<?xml version='1.0' encoding='UTF-8'?><gpx version="1.1" creator="JPX - https://github.com/jenetics/jpx" xmlns="http://www.topografix.com/GPX/1/1"><trk><trkseg><trkpt lat="44.17240619699003" lon="8.357576405474603"><ele>7.999999999999999</ele><time>2026-04-05T12:07:05.999Z</time></trkpt><trkpt lat="44.17242475599384" lon="8.357714631337688"><ele>8.0</ele><time>2026-04-05T12:07:14.999Z</time></trkpt><trkpt lat="44.172458892983165" lon="8.35783180758308"><ele>8.0</ele><time>2026-04-05T12:07:31.999Z</time></trkpt><trkpt lat="44.17248085633996" lon="8.357971020574361"><ele>8.0</ele><time>2026-04-05T12:07:33.999Z</time></trkpt><trkpt lat="44.172500790249586" lon="8.358061212418121"><ele>7.999999999999999</ele><time>2026-04-05T12:07:34.999Z</time></trkpt><trkpt lat="44.17250242060545" lon="8.358163272592162"><ele>8.0</ele><time>2026-04-05T12:07:35.999Z</time></trkpt><trkpt lat="44.17250081375451" lon="8.358266514821548"><ele>8.600000000000001</ele><time>2026-04-05T12:07:36.999Z</time></trkpt><trkpt lat="44.17249065012551" lon="8.358360128783417"><ele>9.200000000000001</ele><time>2026-04-05T12:07:37.999Z</time></trkpt><trkpt lat="44.172487536802706" lon="8.358449359117587"><ele>9.8</ele><time>2026-04-05T12:07:38.999Z</time></trkpt><trkpt lat="44.17249982224021" lon="8.358611211039074"><ele>10.4</ele><time>2026-04-05T12:07:40.999Z</time></trkpt><trkpt lat="44.17246417232398" lon="8.358789683389354"><ele>11.0</ele><time>2026-04-05T12:07:42.999Z</time></trkpt><trkpt lat="44.17239518061552" lon="8.358846717626275"><ele>12.0</ele><time>2026-04-05T12:07:43.999Z</time></trkpt><trkpt lat="44.17236036506684" lon="8.358922392242784"><ele>13.0</ele><time>2026-04-05T12:07:44.999Z</time></trkpt><trkpt lat="44.17224501427131" lon="8.358944192386547"><ele>14.0</ele><time>2026-04-05T12:07:46.999Z</time></trkpt><trkpt lat="44.172150486486" lon="8.358867135089886"><ele>15.0</ele><time>2026-04-05T12:07:48.999Z</time></trkpt><trkpt lat="44.17213058574211" lon="8.35878068882478"><ele>16.0</ele><time>2026-04-05T12:07:49.999Z</time></trkpt><trkpt lat="44.172119978144" lon="8.358683151949988"><ele>17.0</ele><time>2026-04-05T12:07:50.999Z</time></trkpt><trkpt lat="44.17210753334029" lon="8.358573605147727"><ele>14.2</ele><time>2026-04-05T12:07:51.999Z</time></trkpt><trkpt lat="44.17208302576077" lon="8.358461347404235"><ele>11.399999999999999</ele><time>2026-04-05T12:07:52.999Z</time></trkpt><trkpt lat="44.17205600047678" lon="8.358338803354327"><ele>8.6</ele><time>2026-04-05T12:07:53.999Z</time></trkpt><trkpt lat="44.17202991959531" lon="8.35822784921503"><ele>5.8</ele><time>2026-04-05T12:07:54.998Z</time></trkpt><trkpt lat="44.172000385667026" lon="8.358108009546218"><ele>3.0</ele><time>2026-04-05T12:07:55.998Z</time></trkpt><trkpt lat="44.171970887807085" lon="8.357967964198485"><ele>3.0</ele><time>2026-04-05T12:07:56.998Z</time></trkpt><trkpt lat="44.17194054548217" lon="8.357811563358718"><ele>3.0</ele><time>2026-04-05T12:07:57.998Z</time></trkpt><trkpt lat="44.17190951085687" lon="8.357640512132653"><ele>3.0</ele><time>2026-04-05T12:07:58.998Z</time></trkpt><trkpt lat="44.17187541235281" lon="8.357459035463489"><ele>3.0</ele><time>2026-04-05T12:07:59.998Z</time></trkpt><trkpt lat="44.171842407799495" lon="8.357278459472312"><ele>3.5</ele><time>2026-04-05T12:08:00.998Z</time></trkpt><trkpt lat="44.17180771842512" lon="8.357100484962292"><ele>4.0</ele><time>2026-04-05T12:08:01.998Z</time></trkpt><trkpt lat="44.17176846014376" lon="8.356917134856465"><ele>4.5</ele><time>2026-04-05T12:08:02.998Z</time></trkpt><trkpt lat="44.171726832348966" lon="8.356731684729311"><ele>5.0</ele><time>2026-04-05T12:08:03.998Z</time></trkpt><trkpt lat="44.17168909536076" lon="8.356535345012272"><ele>6.0</ele><time>2026-04-05T12:08:04.998Z</time></trkpt><trkpt lat="44.17165292099994" lon="8.35634000053926"><ele>7.0</ele><time>2026-04-05T12:08:06.001Z</time></trkpt><trkpt lat="44.17161714591918" lon="8.35615303245808"><ele>8.0</ele><time>2026-04-05T12:08:07.001Z</time></trkpt><trkpt lat="44.171581265507214" lon="8.355967066503379"><ele>9.0</ele><time>2026-04-05T12:08:08.001Z</time></trkpt><trkpt lat="44.171541487017244" lon="8.355786825579257"><ele>8.25</ele><time>2026-04-05T12:08:09Z</time></trkpt><trkpt lat="44.17150650417426" lon="8.355608517136286"><ele>7.5</ele><time>2026-04-05T12:08:10Z</time></trkpt><trkpt lat="44.17147249786924" lon="8.355433291256164"><ele>6.75</ele><time>2026-04-05T12:08:11Z</time></trkpt><trkpt lat="44.171438099109054" lon="8.355268461109528"><ele>6.0</ele><time>2026-04-05T12:08:12Z</time></trkpt><trkpt lat="44.17141038856437" lon="8.355111077325734"><ele>6.0</ele><time>2026-04-05T12:08:13Z</time></trkpt><trkpt lat="44.17138612344393" lon="8.354946162315777"><ele>6.0</ele><time>2026-04-05T12:08:14Z</time></trkpt><trkpt lat="44.171366008505665" lon="8.35478030644809"><ele>6.0</ele><time>2026-04-05T12:08:15Z</time></trkpt><trkpt lat="44.171320794654044" lon="8.354632485725197"><ele>6.0</ele><time>2026-04-05T12:08:16Z</time></trkpt><trkpt lat="44.17130265199343" lon="8.35449684685436"><ele>6.0</ele><time>2026-04-05T12:08:17Z</time></trkpt><trkpt lat="44.171278190576984" lon="8.354373575022475"><ele>6.0</ele><time>2026-04-05T12:08:18Z</time></trkpt><trkpt lat="44.17125323172194" lon="8.354252687812346"><ele>6.0</ele><time>2026-04-05T12:08:19Z</time></trkpt><trkpt lat="44.171237564244834" lon="8.354137701405929"><ele>6.0</ele><time>2026-04-05T12:08:20Z</time></trkpt><trkpt lat="44.171211849102505" lon="8.35400369118915"><ele>6.0</ele><time>2026-04-05T12:08:21Z</time></trkpt><trkpt lat="44.171177408183596" lon="8.35387968923933"><ele>6.666666666666667</ele><time>2026-04-05T12:08:22Z</time></trkpt><trkpt lat="44.171162870271985" lon="8.353758363997558"><ele>7.333333333333334</ele><time>2026-04-05T12:08:23Z</time></trkpt><trkpt lat="44.17114212098317" lon="8.353644642468524"><ele>8.0</ele><time>2026-04-05T12:08:24Z</time></trkpt><trkpt lat="44.171117115507755" lon="8.353543531251464"><ele>8.666666666666668</ele><time>2026-04-05T12:08:25Z</time></trkpt><trkpt lat="44.171091604663715" lon="8.353440491033675"><ele>9.333333333333334</ele><time>2026-04-05T12:08:26Z</time></trkpt><trkpt lat="44.17108559097426" lon="8.353331326571823"><ele>10.0</ele><time>2026-04-05T12:08:27Z</time></trkpt><trkpt lat="44.17106428245178" lon="8.353226923810295"><ele>10.0</ele><time>2026-04-05T12:08:28Z</time></trkpt><trkpt lat="44.17104496144895" lon="8.353109064030477"><ele>10.0</ele><time>2026-04-05T12:08:29Z</time></trkpt><trkpt lat="44.17100308863878" lon="8.352979229851854"><ele>10.0</ele><time>2026-04-05T12:08:30Z</time></trkpt><trkpt lat="44.17096609546454" lon="8.352849470651243"><ele>10.0</ele><time>2026-04-05T12:08:31Z</time></trkpt><trkpt lat="44.17092359152974" lon="8.35271001137071"><ele>10.0</ele><time>2026-04-05T12:08:32Z</time></trkpt><trkpt lat="44.17089206271021" lon="8.352576401857856"><ele>10.0</ele><time>2026-04-05T12:08:33Z</time></trkpt><trkpt lat="44.17086117592538" lon="8.352455902165945"><ele>10.0</ele><time>2026-04-05T12:08:34Z</time></trkpt><trkpt lat="44.170823176019255" lon="8.352348070985872"><ele>10.0</ele><time>2026-04-05T12:08:35Z</time></trkpt><trkpt lat="44.17080323815299" lon="8.352241291917512"><ele>10.0</ele><time>2026-04-05T12:08:36Z</time></trkpt><trkpt lat="44.17076464787847" lon="8.352147757022344"><ele>10.0</ele><time>2026-04-05T12:08:37Z</time></trkpt><trkpt lat="44.170737388538306" lon="8.352050893079701"><ele>10.0</ele><time>2026-04-05T12:08:38Z</time></trkpt><trkpt lat="44.17071428443238" lon="8.351958855741309"><ele>9.0</ele><time>2026-04-05T12:08:39Z</time></trkpt><trkpt lat="44.1706871944024" lon="8.35185933439922"><ele>8.0</ele><time>2026-04-05T12:08:40Z</time></trkpt><trkpt lat="44.1706538792973" lon="8.351756783659551"><ele>7.0</ele><time>2026-04-05T12:08:41Z</time></trkpt><trkpt lat="44.17063123366788" lon="8.351641063129547"><ele>6.0</ele><time>2026-04-05T12:08:42Z</time></trkpt><trkpt lat="44.17060576577671" lon="8.351533021332878"><ele>5.0</ele><time>2026-04-05T12:08:43Z</time></trkpt><trkpt lat="44.17058202463955" lon="8.351422389009588"><ele>4.0</ele><time>2026-04-05T12:08:44Z</time></trkpt><trkpt lat="44.17055483278418" lon="8.351308938340456"><ele>3.9999999999999996</ele><time>2026-04-05T12:08:45Z</time></trkpt><trkpt lat="44.17052633644598" lon="8.351190132409632"><ele>4.0</ele><time>2026-04-05T12:08:45.999Z</time></trkpt><trkpt lat="44.17050826931951" lon="8.35107224058754"><ele>4.0</ele><time>2026-04-05T12:08:46.999Z</time></trkpt><trkpt lat="44.1704890302874" lon="8.35095471983873"><ele>4.0</ele><time>2026-04-05T12:08:47.999Z</time></trkpt><trkpt lat="44.170479714459724" lon="8.350830516555533"><ele>3.9999999999999996</ele><time>2026-04-05T12:08:48.999Z</time></trkpt><trkpt lat="44.170474035831816" lon="8.350708910112354"><ele>4.0</ele><time>2026-04-05T12:08:49.999Z</time></trkpt><trkpt lat="44.17046959057407" lon="8.350586515144064"><ele>4.333333333333333</ele><time>2026-04-05T12:08:50.999Z</time></trkpt><trkpt lat="44.17046142551696" lon="8.35046357537912"><ele>4.666666666666666</ele><time>2026-04-05T12:08:51.999Z</time></trkpt><trkpt lat="44.170447623288695" lon="8.350344233650361"><ele>5.0</ele><time>2026-04-05T12:08:52.999Z</time></trkpt><trkpt lat="44.170424187537165" lon="8.350230960514036"><ele>5.333333333333333</ele><time>2026-04-05T12:08:53.999Z</time></trkpt><trkpt lat="44.17039512385538" lon="8.35012329225708"><ele>5.666666666666667</ele><time>2026-04-05T12:08:54.999Z</time></trkpt><trkpt lat="44.17036911220428" lon="8.350000065697595"><ele>6.0</ele><time>2026-04-05T12:08:55.999Z</time></trkpt><trkpt lat="44.1703547223284" lon="8.349883954343008"><ele>6.0</ele><time>2026-04-05T12:08:56.999Z</time></trkpt><trkpt lat="44.17036382399863" lon="8.34977859594099"><ele>6.0</ele><time>2026-04-05T12:08:57.999Z</time></trkpt><trkpt lat="44.17041058872118" lon="8.349658141796974"><ele>6.0</ele><time>2026-04-05T12:08:58.999Z</time></trkpt><trkpt lat="44.17045883129735" lon="8.349554833625483"><ele>6.0</ele><time>2026-04-05T12:08:59.999Z</time></trkpt><trkpt lat="44.17049481062911" lon="8.349438063486593"><ele>6.0</ele><time>2026-04-05T12:09:00.999Z</time></trkpt><trkpt lat="44.17053055731284" lon="8.349326139021143"><ele>6.0</ele><time>2026-04-05T12:09:01.999Z</time></trkpt><trkpt lat="44.1705776664744" lon="8.34922413205932"><ele>6.666666666666667</ele><time>2026-04-05T12:09:02.999Z</time></trkpt><trkpt lat="44.17062876264599" lon="8.349127497501376"><ele>7.333333333333334</ele><time>2026-04-05T12:09:03.999Z</time></trkpt><trkpt lat="44.17065589168264" lon="8.34901569185293"><ele>8.0</ele><time>2026-04-05T12:09:04.999Z</time></trkpt><trkpt lat="44.17069306226096" lon="8.348903563711083"><ele>8.666666666666668</ele><time>2026-04-05T12:09:05.999Z</time></trkpt><trkpt lat="44.17071420004116" lon="8.348802994231416"><ele>9.333333333333334</ele><time>2026-04-05T12:09:06.999Z</time></trkpt><trkpt lat="44.1707268364201" lon="8.348691217139312"><ele>10.0</ele><time>2026-04-05T12:09:07.999Z</time></trkpt><trkpt lat="44.17072591954618" lon="8.348583538765647"><ele>10.6</ele><time>2026-04-05T12:09:08.999Z</time></trkpt><trkpt lat="44.17072110132769" lon="8.348480699303206"><ele>11.2</ele><time>2026-04-05T12:09:09.999Z</time></trkpt><trkpt lat="44.170716908395285" lon="8.3483873625559"><ele>11.8</ele><time>2026-04-05T12:09:10.999Z</time></trkpt><trkpt lat="44.170702654329716" lon="8.34819567382322"><ele>12.4</ele><time>2026-04-05T12:09:12.999Z</time></trkpt><trkpt lat="44.170695549175484" lon="8.3480650331936"><ele>13.0</ele><time>2026-04-05T12:09:13.999Z</time></trkpt><trkpt lat="44.17068162741463" lon="8.347921271673558"><ele>13.0</ele><time>2026-04-05T12:09:14.999Z</time></trkpt><trkpt lat="44.170666459383476" lon="8.347763158984213"><ele>13.0</ele><time>2026-04-05T12:09:15.999Z</time></trkpt><trkpt lat="44.17065924821132" lon="8.347611118377177"><ele>13.0</ele><time>2026-04-05T12:09:16.999Z</time></trkpt><trkpt lat="44.17065466124019" lon="8.347483527906425"><ele>13.0</ele><time>2026-04-05T12:09:17.999Z</time></trkpt><trkpt lat="44.170650859359846" lon="8.34736790638567"><ele>13.0</ele><time>2026-04-05T12:09:18.999Z</time></trkpt><trkpt lat="44.170642778532034" lon="8.347253263145477"><ele>12.8</ele><time>2026-04-05T12:09:19.999Z</time></trkpt><trkpt lat="44.170637340154485" lon="8.347124207114213"><ele>12.600000000000001</ele><time>2026-04-05T12:09:20.999Z</time></trkpt><trkpt lat="44.170643430519554" lon="8.346988684693397"><ele>12.399999999999999</ele><time>2026-04-05T12:09:21.999Z</time></trkpt><trkpt lat="44.17063145849607" lon="8.346843091148846"><ele>12.2</ele><time>2026-04-05T12:09:22.999Z</time></trkpt><trkpt lat="44.170621932774935" lon="8.346700735111769"><ele>12.0</ele><time>2026-04-05T12:09:23.999Z</time></trkpt><trkpt lat="44.17064753257828" lon="8.346554295318718"><ele>12.0</ele><time>2026-04-05T12:09:24.999Z</time></trkpt><trkpt lat="44.17066714632579" lon="8.346364153072942"><ele>12.0</ele><time>2026-04-05T12:09:25.999Z</time></trkpt><trkpt lat="44.170674497172435" lon="8.346190834825663"><ele>12.0</ele><time>2026-04-05T12:09:26.999Z</time></trkpt><trkpt lat="44.170679812123886" lon="8.346041357866975"><ele>12.0</ele><time>2026-04-05T12:09:27.999Z</time></trkpt><trkpt lat="44.17068925911121" lon="8.345900498066936"><ele>12.0</ele><time>2026-04-05T12:09:28.999Z</time></trkpt><trkpt lat="44.17068109064388" lon="8.345789333061495"><ele>12.0</ele><time>2026-04-05T12:09:29.999Z</time></trkpt><trkpt lat="44.17066344584869" lon="8.345686029175269"><ele>12.0</ele><time>2026-04-05T12:09:30.999Z</time></trkpt><trkpt lat="44.17061926627392" lon="8.345591558530364"><ele>12.0</ele><time>2026-04-05T12:09:31.998Z</time></trkpt><trkpt lat="44.1706157115274" lon="8.345490110096696"><ele>12.0</ele><time>2026-04-05T12:09:32.998Z</time></trkpt><trkpt lat="44.17058589562426" lon="8.345354860513064"><ele>12.0</ele><time>2026-04-05T12:09:34.998Z</time></trkpt><trkpt lat="44.17057111924852" lon="8.345260068052173"><ele>12.166666666666666</ele><time>2026-04-05T12:09:37.998Z</time></trkpt><trkpt lat="44.17056534257675" lon="8.345139254183826"><ele>12.333333333333332</ele><time>2026-04-05T12:09:39.998Z</time></trkpt><trkpt lat="44.17056405900393" lon="8.344970669541224"><ele>12.5</ele><time>2026-04-05T12:09:41.998Z</time></trkpt><trkpt lat="44.17056167765868" lon="8.344859906668919"><ele>12.666666666666666</ele><time>2026-04-05T12:09:42.998Z</time></trkpt><trkpt lat="44.17056208552611" lon="8.344765633135953"><ele>12.833333333333332</ele><time>2026-04-05T12:09:43.998Z</time></trkpt><trkpt lat="44.170536649031305" lon="8.344673826251283"><ele>13.0</ele><time>2026-04-05T12:09:44.998Z</time></trkpt><trkpt lat="44.1705011961164" lon="8.344587140409244"><ele>13.0</ele><time>2026-04-05T12:09:45.998Z</time></trkpt><trkpt lat="44.170472857465384" lon="8.344471768693435"><ele>13.0</ele><time>2026-04-05T12:09:46.998Z</time></trkpt><trkpt lat="44.170399650542514" lon="8.34437786793727"><ele>13.0</ele><time>2026-04-05T12:09:47.998Z</time></trkpt><trkpt lat="44.170350637964596" lon="8.344268550038139"><ele>13.0</ele><time>2026-04-05T12:09:48.998Z</time></trkpt><trkpt lat="44.17028719490238" lon="8.344143181753017"><ele>13.0</ele><time>2026-04-05T12:09:49.998Z</time></trkpt><trkpt lat="44.17021715334095" lon="8.344003355796227"><ele>13.4</ele><time>2026-04-05T12:09:50.998Z</time></trkpt><trkpt lat="44.170157502471476" lon="8.343861935393408"><ele>13.8</ele><time>2026-04-05T12:09:51.998Z</time></trkpt><trkpt lat="44.170100771532816" lon="8.343733648192735"><ele>14.2</ele><time>2026-04-05T12:09:52.998Z</time></trkpt><trkpt lat="44.17005404884639" lon="8.343608620284986"><ele>14.6</ele><time>2026-04-05T12:09:53.998Z</time></trkpt><trkpt lat="44.16999758894767" lon="8.343498927974013"><ele>15.0</ele><time>2026-04-05T12:09:54.998Z</time></trkpt><trkpt lat="44.1699491130663" lon="8.343393023690975"><ele>15.0</ele><time>2026-04-05T12:09:55.998Z</time></trkpt><trkpt lat="44.16990713056708" lon="8.343294661720584"><ele>15.0</ele><time>2026-04-05T12:09:56.998Z</time></trkpt><trkpt lat="44.16986217186286" lon="8.343204939056662"><ele>15.0</ele><time>2026-04-05T12:09:57.998Z</time></trkpt><trkpt lat="44.16982305040184" lon="8.343120771242761"><ele>15.0</ele><time>2026-04-05T12:09:58.998Z</time></trkpt><trkpt lat="44.16978070587806" lon="8.34303716970141"><ele>15.0</ele><time>2026-04-05T12:09:59.998Z</time></trkpt><trkpt lat="44.1697399344714" lon="8.342944923702285"><ele>15.0</ele><time>2026-04-05T12:10:00.998Z</time></trkpt><trkpt lat="44.16969908522153" lon="8.342861150870323"><ele>14.333333333333334</ele><time>2026-04-05T12:10:01.998Z</time></trkpt><trkpt lat="44.169664524036975" lon="8.342782473720062"><ele>13.666666666666666</ele><time>2026-04-05T12:10:02.998Z</time></trkpt><trkpt lat="44.169611861545874" lon="8.342648294086272"><ele>13.0</ele><time>2026-04-05T12:10:04.998Z</time></trkpt><trkpt lat="44.16956415400207" lon="8.342491301524941"><ele>12.333333333333332</ele><time>2026-04-05T12:10:06.998Z</time></trkpt><trkpt lat="44.16953883928962" lon="8.342404634364685"><ele>11.666666666666666</ele><time>2026-04-05T12:10:07.998Z</time></trkpt><trkpt lat="44.16948446465873" lon="8.342348540805446"><ele>11.0</ele><time>2026-04-05T12:10:08.998Z</time></trkpt><trkpt lat="44.16942968006661" lon="8.34220529294261"><ele>10.4</ele><time>2026-04-05T12:10:10.998Z</time></trkpt><trkpt lat="44.16932994468583" lon="8.342089601165087"><ele>9.8</ele><time>2026-04-05T12:10:13Z</time></trkpt><trkpt lat="44.169275636566866" lon="8.342024258257165"><ele>9.200000000000001</ele><time>2026-04-05T12:10:14Z</time></trkpt><trkpt lat="44.16923006614751" lon="8.341956223251785"><ele>8.600000000000001</ele><time>2026-04-05T12:10:15Z</time></trkpt><trkpt lat="44.169167051035735" lon="8.341820753177737"><ele>8.0</ele><time>2026-04-05T12:10:17Z</time></trkpt><trkpt lat="44.16909820328782" lon="8.34173047845643"><ele>7.999999999999999</ele><time>2026-04-05T12:10:19Z</time></trkpt><trkpt lat="44.16906383645396" lon="8.34163755912008"><ele>8.0</ele><time>2026-04-05T12:10:21Z</time></trkpt><trkpt lat="44.16903899696387" lon="8.34155076510276"><ele>8.0</ele><time>2026-04-05T12:10:25Z</time></trkpt><trkpt lat="44.16897444225778" lon="8.341447773624713"><ele>8.0</ele><time>2026-04-05T12:10:27Z</time></trkpt><trkpt lat="44.1688971991567" lon="8.341353211900394"><ele>7.999999999999999</ele><time>2026-04-05T12:10:29Z</time></trkpt><trkpt lat="44.168847122290785" lon="8.341289461903939"><ele>8.0</ele><time>2026-04-05T12:10:31Z</time></trkpt><trkpt lat="44.16879678743606" lon="8.34122922278604"><ele>7.6000000000000005</ele><time>2026-04-05T12:10:35Z</time></trkpt><trkpt lat="44.16874833015207" lon="8.341139509304444"><ele>7.200000000000001</ele><time>2026-04-05T12:10:37Z</time></trkpt><trkpt lat="44.16872220156708" lon="8.340983358044655"><ele>6.8</ele><time>2026-04-05T12:10:39Z</time></trkpt><trkpt lat="44.1686607236191" lon="8.340897196187605"><ele>6.4</ele><time>2026-04-05T12:10:41Z</time></trkpt><trkpt lat="44.16858505038337" lon="8.340927962502935"><ele>6.0</ele><time>2026-04-05T12:10:43Z</time></trkpt><trkpt lat="44.168547532922254" lon="8.341058916855014"><ele>6.0</ele><time>2026-04-05T12:10:46Z</time></trkpt><trkpt lat="44.16847962678691" lon="8.341152771972686"><ele>6.0</ele><time>2026-04-05T12:10:48.999Z</time></trkpt><trkpt lat="44.16840462775085" lon="8.341227766991288"><ele>6.0</ele><time>2026-04-05T12:10:51.999Z</time></trkpt><trkpt lat="44.168356004210466" lon="8.341299217301486"><ele>6.0</ele><time>2026-04-05T12:10:53.999Z</time></trkpt><trkpt lat="44.1682926229179" lon="8.341346904731521"><ele>6.0</ele><time>2026-04-05T12:10:55.999Z</time></trkpt><trkpt lat="44.168239323362826" lon="8.341412006753304"><ele>6.0</ele><time>2026-04-05T12:10:57.999Z</time></trkpt><trkpt lat="44.16819160825109" lon="8.341473910172926"><ele>5.3999999999999995</ele><time>2026-04-05T12:10:59.999Z</time></trkpt><trkpt lat="44.16809775910595" lon="8.3415436916018"><ele>4.8</ele><time>2026-04-05T12:11:01.999Z</time></trkpt><trkpt lat="44.168041813799455" lon="8.341584995837742"><ele>4.199999999999999</ele><time>2026-04-05T12:11:02.999Z</time></trkpt><trkpt lat="44.167947905618405" lon="8.341667834120598"><ele>3.5999999999999996</ele><time>2026-04-05T12:11:04.999Z</time></trkpt><trkpt lat="44.16789284509528" lon="8.341766791063021"><ele>3.0</ele><time>2026-04-05T12:11:06.999Z</time></trkpt><trkpt lat="44.16780751062065" lon="8.341857036889403"><ele>3.0</ele><time>2026-04-05T12:11:08.999Z</time></trkpt><trkpt lat="44.16777834920185" lon="8.341952694866038"><ele>3.0</ele><time>2026-04-05T12:11:10.999Z</time></trkpt><trkpt lat="44.16786732041978" lon="8.342054928848132"><ele>3.0</ele><time>2026-04-05T12:11:11.999Z</time></trkpt><trkpt lat="44.167913849230715" lon="8.342131725614188"><ele>3.0</ele><time>2026-04-05T12:11:12.999Z</time></trkpt><trkpt lat="44.16793525509168" lon="8.342216610565023"><ele>3.0</ele><time>2026-04-05T12:11:13.999Z</time></trkpt><trkpt lat="44.1679599135942" lon="8.342299826830287"><ele>3.0</ele><time>2026-04-05T12:11:14.999Z</time></trkpt><trkpt lat="44.1679887030437" lon="8.342386887600405"><ele>2.9999999999999996</ele><time>2026-04-05T12:11:15.999Z</time></trkpt><trkpt lat="44.168029980404484" lon="8.342453191215094"><ele>3.0</ele><time>2026-04-05T12:11:16.999Z</time></trkpt><trkpt lat="44.16806652782493" lon="8.34253095068588"><ele>3.0</ele><time>2026-04-05T12:11:17.999Z</time></trkpt><trkpt lat="44.16810267928178" lon="8.3426120333648"><ele>3.0</ele><time>2026-04-05T12:11:18.999Z</time></trkpt><trkpt lat="44.168133017709565" lon="8.342697635947045"><ele>3.0</ele><time>2026-04-05T12:11:19.999Z</time></trkpt><trkpt lat="44.16817231799045" lon="8.342774546710096"><ele>2.9999999999999996</ele><time>2026-04-05T12:11:20.999Z</time></trkpt><trkpt lat="44.1682054947502" lon="8.342855703455722"><ele>3.0</ele><time>2026-04-05T12:11:21.999Z</time></trkpt><trkpt lat="44.16823934244937" lon="8.342935994350677"><ele>3.571428571428571</ele><time>2026-04-05T12:11:22.999Z</time></trkpt><trkpt lat="44.16826041638" lon="8.34303106081841"><ele>4.142857142857142</ele><time>2026-04-05T12:11:23.999Z</time></trkpt><trkpt lat="44.16829131028996" lon="8.343114181442482"><ele>4.714285714285714</ele><time>2026-04-05T12:11:24.999Z</time></trkpt><trkpt lat="44.16833575938344" lon="8.343185998531208"><ele>5.285714285714286</ele><time>2026-04-05T12:11:25.999Z</time></trkpt><trkpt lat="44.16835445451756" lon="8.343280017705425"><ele>5.857142857142857</ele><time>2026-04-05T12:11:26.999Z</time></trkpt><trkpt lat="44.16838738455345" lon="8.343368725307107"><ele>6.428571428571429</ele><time>2026-04-05T12:11:27.999Z</time></trkpt><trkpt lat="44.168429115335876" lon="8.34345676168752"><ele>7.0</ele><time>2026-04-05T12:11:28.999Z</time></trkpt><trkpt lat="44.168463682529016" lon="8.343545594306432"><ele>7.142857142857142</ele><time>2026-04-05T12:11:29.999Z</time></trkpt><trkpt lat="44.16849622820323" lon="8.343638623846285"><ele>7.285714285714286</ele><time>2026-04-05T12:11:30.999Z</time></trkpt><trkpt lat="44.16852472921347" lon="8.343730569223151"><ele>7.428571428571429</ele><time>2026-04-05T12:11:31.999Z</time></trkpt><trkpt lat="44.16855984380572" lon="8.343816580214648"><ele>7.571428571428571</ele><time>2026-04-05T12:11:32.999Z</time></trkpt><trkpt lat="44.16858673408276" lon="8.343911372226577"><ele>7.7142857142857135</ele><time>2026-04-05T12:11:33.999Z</time></trkpt><trkpt lat="44.16861869209305" lon="8.344001478404708"><ele>7.857142857142857</ele><time>2026-04-05T12:11:34.999Z</time></trkpt><trkpt lat="44.1686465300514" lon="8.344093641923973"><ele>8.0</ele><time>2026-04-05T12:11:35.999Z</time></trkpt><trkpt lat="44.168675478320914" lon="8.344186220435393"><ele>7.7142857142857135</ele><time>2026-04-05T12:11:36.999Z</time></trkpt><trkpt lat="44.1687072652363" lon="8.344279592892557"><ele>7.428571428571428</ele><time>2026-04-05T12:11:37.999Z</time></trkpt><trkpt lat="44.168739422877586" lon="8.34436970465348"><ele>7.142857142857142</ele><time>2026-04-05T12:11:38.998Z</time></trkpt><trkpt lat="44.168769885584545" lon="8.34446285001928"><ele>6.857142857142857</ele><time>2026-04-05T12:11:39.998Z</time></trkpt><trkpt lat="44.16880092553904" lon="8.344555200436908"><ele>6.571428571428571</ele><time>2026-04-05T12:11:40.998Z</time></trkpt><trkpt lat="44.168837851636646" lon="8.344648915336665"><ele>6.285714285714285</ele><time>2026-04-05T12:11:41.998Z</time></trkpt><trkpt lat="44.16886557715322" lon="8.344738851088284"><ele>6.0</ele><time>2026-04-05T12:11:42.998Z</time></trkpt><trkpt lat="44.168898490782226" lon="8.344830982841856"><ele>5.571428571428571</ele><time>2026-04-05T12:11:43.998Z</time></trkpt><trkpt lat="44.16893186811941" lon="8.344922723568898"><ele>5.142857142857142</ele><time>2026-04-05T12:11:44.998Z</time></trkpt><trkpt lat="44.16895766255185" lon="8.345018647745109"><ele>4.7142857142857135</ele><time>2026-04-05T12:11:45.998Z</time></trkpt><trkpt lat="44.16898664588347" lon="8.345113397195933"><ele>4.285714285714286</ele><time>2026-04-05T12:11:46.998Z</time></trkpt><trkpt lat="44.16902069014857" lon="8.345198592580235"><ele>3.8571428571428568</ele><time>2026-04-05T12:11:47.998Z</time></trkpt><trkpt lat="44.169056688837784" lon="8.345284080196954"><ele>3.4285714285714284</ele><time>2026-04-05T12:11:48.998Z</time></trkpt><trkpt lat="44.1690891277337" lon="8.345368550907327"><ele>3.0</ele><time>2026-04-05T12:11:49.998Z</time></trkpt><trkpt lat="44.16912839994299" lon="8.345467170346646"><ele>3.714285714285714</ele><time>2026-04-05T12:11:50.998Z</time></trkpt><trkpt lat="44.16916389282676" lon="8.345553081801942"><ele>4.428571428571429</ele><time>2026-04-05T12:11:51.998Z</time></trkpt><trkpt lat="44.1691949913366" lon="8.345645585004974"><ele>5.142857142857142</ele><time>2026-04-05T12:11:52.998Z</time></trkpt><trkpt lat="44.169223101119904" lon="8.34573629701094"><ele>5.857142857142857</ele><time>2026-04-05T12:11:53.998Z</time></trkpt><trkpt lat="44.16924814549451" lon="8.34583066541655"><ele>6.57142857142857</ele><time>2026-04-05T12:11:54.998Z</time></trkpt><trkpt lat="44.16927420194292" lon="8.345915243605523"><ele>7.285714285714286</ele><time>2026-04-05T12:11:55.998Z</time></trkpt><trkpt lat="44.1693142079406" lon="8.34603279821543"><ele>8.0</ele><time>2026-04-05T12:11:57.998Z</time></trkpt><trkpt lat="44.16932387511703" lon="8.34614349507505"><ele>8.0</ele><time>2026-04-05T12:11:59.998Z</time></trkpt><trkpt lat="44.169325572477256" lon="8.346266522162706"><ele>8.0</ele><time>2026-04-05T12:12:01.998Z</time></trkpt><trkpt lat="44.169307855005705" lon="8.34639378041389"><ele>8.0</ele><time>2026-04-05T12:12:03.998Z</time></trkpt><trkpt lat="44.16936838117764" lon="8.34653209285449"><ele>8.0</ele><time>2026-04-05T12:12:05.998Z</time></trkpt><trkpt lat="44.16942970215592" lon="8.346629075312876"><ele>8.0</ele><time>2026-04-05T12:12:07.998Z</time></trkpt><trkpt lat="44.16950442591655" lon="8.346695059542016"><ele>7.2</ele><time>2026-04-05T12:12:09.998Z</time></trkpt><trkpt lat="44.1695507899758" lon="8.346782790017256"><ele>6.4</ele><time>2026-04-05T12:12:11.998Z</time></trkpt><trkpt lat="44.16956087181544" lon="8.346892675473491"><ele>5.6000000000000005</ele><time>2026-04-05T12:12:13.998Z</time></trkpt><trkpt lat="44.16959044625741" lon="8.347034665005301"><ele>4.800000000000001</ele><time>2026-04-05T12:12:15.998Z</time></trkpt><trkpt lat="44.16961989995282" lon="8.34719490490656"><ele>4.0</ele><time>2026-04-05T12:12:18Z</time></trkpt><trkpt lat="44.1696558099071" lon="8.347349118843056"><ele>3.9999999999999996</ele><time>2026-04-05T12:12:20Z</time></trkpt><trkpt lat="44.16967218808231" lon="8.347463080477874"><ele>4.0</ele><time>2026-04-05T12:12:22Z</time></trkpt><trkpt lat="44.16968108689344" lon="8.347578923980636"><ele>4.0</ele><time>2026-04-05T12:12:25Z</time></trkpt><trkpt lat="44.16972395404666" lon="8.347686170313583"><ele>4.0</ele><time>2026-04-05T12:12:27Z</time></trkpt><trkpt lat="44.1697536322244" lon="8.347806275159439"><ele>3.9999999999999996</ele><time>2026-04-05T12:12:29Z</time></trkpt><trkpt lat="44.16978998371808" lon="8.347938648373239"><ele>4.0</ele><time>2026-04-05T12:12:31Z</time></trkpt><trkpt lat="44.16983705960101" lon="8.348092452730942"><ele>5.800000000000001</ele><time>2026-04-05T12:12:33Z</time></trkpt><trkpt lat="44.16986041292789" lon="8.348180517627313"><ele>7.6000000000000005</ele><time>2026-04-05T12:12:34Z</time></trkpt><trkpt lat="44.16988138683744" lon="8.34832229225846"><ele>9.4</ele><time>2026-04-05T12:12:36Z</time></trkpt><trkpt lat="44.169918355131315" lon="8.348484696309468"><ele>11.200000000000001</ele><time>2026-04-05T12:12:38Z</time></trkpt><trkpt lat="44.16996995148083" lon="8.348636267215271"><ele>13.0</ele><time>2026-04-05T12:12:40Z</time></trkpt><trkpt lat="44.17000541169256" lon="8.348712957462888"><ele>13.0</ele><time>2026-04-05T12:12:41Z</time></trkpt><trkpt lat="44.1703623112831" lon="8.34865951954503"><ele>13.0</ele><time>2026-04-05T12:12:42Z</time></trkpt><trkpt lat="44.170032363014776" lon="8.34888618994906"><ele>12.499999999999998</ele><time>2026-04-05T12:12:43Z</time></trkpt><trkpt lat="44.170032102088676" lon="8.34898373923056"><ele>12.0</ele><time>2026-04-05T12:12:44Z</time></trkpt><trkpt lat="44.1700688550543" lon="8.349148041730265"><ele>11.5</ele><time>2026-04-05T12:12:46Z</time></trkpt><trkpt lat="44.17009349493972" lon="8.349258875410962"><ele>11.0</ele><time>2026-04-05T12:12:48Z</time></trkpt><trkpt lat="44.17011642795491" lon="8.34936203212031"><ele>10.5</ele><time>2026-04-05T12:12:51Z</time></trkpt><trkpt lat="44.170142502590735" lon="8.349446820694073"><ele>10.0</ele><time>2026-04-05T12:12:55Z</time></trkpt><trkpt lat="44.1701624848863" lon="8.34953708664459"><ele>10.0</ele><time>2026-04-05T12:13:20.999Z</time></trkpt><trkpt lat="44.17017979656536" lon="8.349632467903632"><ele>10.0</ele><time>2026-04-05T12:13:22.999Z</time></trkpt><trkpt lat="44.170210883491535" lon="8.349744199236829"><ele>10.0</ele><time>2026-04-05T12:13:25.999Z</time></trkpt><trkpt lat="44.17023580974043" lon="8.349869704581337"><ele>10.0</ele><time>2026-04-05T12:13:27.999Z</time></trkpt><trkpt lat="44.17026728219657" lon="8.349995379299344"><ele>10.0</ele><time>2026-04-05T12:13:29.999Z</time></trkpt><trkpt lat="44.17030341760461" lon="8.350134155602296"><ele>9.0</ele><time>2026-04-05T12:13:31.999Z</time></trkpt><trkpt lat="44.17034377943986" lon="8.350292377104616"><ele>8.0</ele><time>2026-04-05T12:13:33.999Z</time></trkpt><trkpt lat="44.170365900443244" lon="8.350456611092403"><ele>7.0</ele><time>2026-04-05T12:13:35.999Z</time></trkpt><trkpt lat="44.17037878557021" lon="8.350616582257196"><ele>6.0</ele><time>2026-04-05T12:13:37.999Z</time></trkpt><trkpt lat="44.17038518528235" lon="8.350751684183829"><ele>6.0</ele><time>2026-04-05T12:13:39.999Z</time></trkpt><trkpt lat="44.17042271411933" lon="8.350823437259134"><ele>6.0</ele><time>2026-04-05T12:13:41.999Z</time></trkpt><trkpt lat="44.17049830930975" lon="8.350712267164562"><ele>6.0</ele><time>2026-04-05T12:13:45.999Z</time></trkpt><trkpt lat="44.17049260865533" lon="8.350619883165834"><ele>6.0</ele><time>2026-04-05T12:13:46.999Z</time></trkpt><trkpt lat="44.17047562963844" lon="8.350522237476524"><ele>6.0</ele><time>2026-04-05T12:13:47.999Z</time></trkpt><trkpt lat="44.17046861719018" lon="8.350425362666254"><ele>6.0</ele><time>2026-04-05T12:13:48.999Z</time></trkpt><trkpt lat="44.1704293508787" lon="8.350260974521984"><ele>6.0</ele><time>2026-04-05T12:13:50.998Z</time></trkpt><trkpt lat="44.17040840062772" lon="8.350173747483462"><ele>6.0</ele><time>2026-04-05T12:13:51.998Z</time></trkpt><trkpt lat="44.17038603184891" lon="8.350081746439262"><ele>6.0</ele><time>2026-04-05T12:13:52.998Z</time></trkpt><trkpt lat="44.170365145928535" lon="8.349977932130145"><ele>6.0</ele><time>2026-04-05T12:13:53.998Z</time></trkpt><trkpt lat="44.17035885775249" lon="8.349868916861073"><ele>6.0</ele><time>2026-04-05T12:13:54.998Z</time></trkpt><trkpt lat="44.170378390727635" lon="8.349756168219002"><ele>6.0</ele><time>2026-04-05T12:13:55.998Z</time></trkpt><trkpt lat="44.17041562840764" lon="8.349641450507944"><ele>6.666666666666667</ele><time>2026-04-05T12:13:56.998Z</time></trkpt><trkpt lat="44.17046079071117" lon="8.34953081573972"><ele>7.333333333333334</ele><time>2026-04-05T12:13:57.998Z</time></trkpt><trkpt lat="44.17050687484465" lon="8.349430655689419"><ele>8.0</ele><time>2026-04-05T12:13:58.998Z</time></trkpt><trkpt lat="44.17054851370151" lon="8.349318613920543"><ele>8.666666666666668</ele><time>2026-04-05T12:13:59.998Z</time></trkpt><trkpt lat="44.17059141532428" lon="8.349212963421682"><ele>9.333333333333334</ele><time>2026-04-05T12:14:00.998Z</time></trkpt><trkpt lat="44.170634199374334" lon="8.34911545515141"><ele>10.0</ele><time>2026-04-05T12:14:01.998Z</time></trkpt><trkpt lat="44.17067203988054" lon="8.349015107388754"><ele>11.166666666666668</ele><time>2026-04-05T12:14:02.998Z</time></trkpt><trkpt lat="44.17070500824397" lon="8.348914147486063"><ele>12.333333333333334</ele><time>2026-04-05T12:14:03.998Z</time></trkpt><trkpt lat="44.17072264919241" lon="8.348809649393148"><ele>13.5</ele><time>2026-04-05T12:14:04.998Z</time></trkpt><trkpt lat="44.17073088009566" lon="8.348703285626472"><ele>14.666666666666668</ele><time>2026-04-05T12:14:05.998Z</time></trkpt><trkpt lat="44.1707343306513" lon="8.348590084142105"><ele>15.833333333333334</ele><time>2026-04-05T12:14:06.998Z</time></trkpt><trkpt lat="44.17073561402868" lon="8.348483035154569"><ele>17.0</ele><time>2026-04-05T12:14:07.998Z</time></trkpt><trkpt lat="44.17073093934804" lon="8.34837140566428"><ele>17.0</ele><time>2026-04-05T12:14:08.998Z</time></trkpt><trkpt lat="44.170718344065456" lon="8.34826198188447"><ele>17.0</ele><time>2026-04-05T12:14:09.998Z</time></trkpt><trkpt lat="44.17070637407061" lon="8.34815629093759"><ele>17.0</ele><time>2026-04-05T12:14:10.998Z</time></trkpt><trkpt lat="44.17070037283241" lon="8.348045781127336"><ele>17.0</ele><time>2026-04-05T12:14:11.998Z</time></trkpt><trkpt lat="44.17068785937721" lon="8.347929739850374"><ele>17.0</ele><time>2026-04-05T12:14:12.998Z</time></trkpt><trkpt lat="44.17067853242054" lon="8.347819803953191"><ele>17.0</ele><time>2026-04-05T12:14:13.998Z</time></trkpt><trkpt lat="44.170659907371935" lon="8.347707513837547"><ele>16.333333333333336</ele><time>2026-04-05T12:14:14.998Z</time></trkpt><trkpt lat="44.17064488767837" lon="8.347592421349304"><ele>15.666666666666668</ele><time>2026-04-05T12:14:15.998Z</time></trkpt><trkpt lat="44.170638511838625" lon="8.347474309608844"><ele>15.0</ele><time>2026-04-05T12:14:16.998Z</time></trkpt><trkpt lat="44.17063691638314" lon="8.347354939068817"><ele>14.333333333333332</ele><time>2026-04-05T12:14:17.998Z</time></trkpt><trkpt lat="44.170636267442625" lon="8.347235997375906"><ele>13.666666666666666</ele><time>2026-04-05T12:14:18.998Z</time></trkpt><trkpt lat="44.17063599528557" lon="8.347117182211777"><ele>13.0</ele><time>2026-04-05T12:14:19.998Z</time></trkpt><trkpt lat="44.17064115184738" lon="8.346992494026768"><ele>12.8</ele><time>2026-04-05T12:14:20.998Z</time></trkpt><trkpt lat="44.17063103130522" lon="8.346872306700108"><ele>12.600000000000001</ele><time>2026-04-05T12:14:21.998Z</time></trkpt><trkpt lat="44.170633132225696" lon="8.346751426259935"><ele>12.399999999999999</ele><time>2026-04-05T12:14:22.998Z</time></trkpt><trkpt lat="44.1706376688098" lon="8.346629971119468"><ele>12.2</ele><time>2026-04-05T12:14:24Z</time></trkpt><trkpt lat="44.17064311295716" lon="8.346530881360346"><ele>12.0</ele><time>2026-04-05T12:14:25Z</time></trkpt><trkpt lat="44.17065398165412" lon="8.346363651646499"><ele>12.0</ele><time>2026-04-05T12:14:27Z</time></trkpt><trkpt lat="44.170665817304524" lon="8.346268441985135"><ele>12.0</ele><time>2026-04-05T12:14:28Z</time></trkpt><trkpt lat="44.170675830393876" lon="8.346160964899491"><ele>12.0</ele><time>2026-04-05T12:14:29Z</time></trkpt><trkpt lat="44.17067826221691" lon="8.346053715319991"><ele>12.0</ele><time>2026-04-05T12:14:30Z</time></trkpt><trkpt lat="44.17067891470105" lon="8.34593871870017"><ele>12.0</ele><time>2026-04-05T12:14:31Z</time></trkpt><trkpt lat="44.17067364653269" lon="8.345826865292688"><ele>12.0</ele><time>2026-04-05T12:14:32Z</time></trkpt><trkpt lat="44.17065092360382" lon="8.345710501593265"><ele>12.0</ele><time>2026-04-05T12:14:33Z</time></trkpt><trkpt lat="44.1706305663055" lon="8.345603683139919"><ele>12.0</ele><time>2026-04-05T12:14:34Z</time></trkpt><trkpt lat="44.17061804428126" lon="8.34549549681254"><ele>12.0</ele><time>2026-04-05T12:14:35Z</time></trkpt><trkpt lat="44.170591699202504" lon="8.345399519342147"><ele>12.0</ele><time>2026-04-05T12:14:36Z</time></trkpt><trkpt lat="44.17057850880426" lon="8.345297533533689"><ele>12.0</ele><time>2026-04-05T12:14:37Z</time></trkpt><trkpt lat="44.17057560824" lon="8.345187247499286"><ele>12.0</ele><time>2026-04-05T12:14:38Z</time></trkpt><trkpt lat="44.170572952037844" lon="8.345075722308566"><ele>12.166666666666666</ele><time>2026-04-05T12:14:39Z</time></trkpt><trkpt lat="44.17057593561335" lon="8.344970871382316"><ele>12.333333333333332</ele><time>2026-04-05T12:14:40Z</time></trkpt><trkpt lat="44.170579939162565" lon="8.344878292932446"><ele>12.5</ele><time>2026-04-05T12:14:41Z</time></trkpt><trkpt lat="44.17059987905973" lon="8.344782765262119"><ele>12.666666666666666</ele><time>2026-04-05T12:14:42Z</time></trkpt><trkpt lat="44.17070199490662" lon="8.344686616029199"><ele>12.833333333333332</ele><time>2026-04-05T12:14:44Z</time></trkpt><trkpt lat="44.17075296430648" lon="8.344626439847099"><ele>13.0</ele><time>2026-04-05T12:14:45Z</time></trkpt><trkpt lat="44.170803544384064" lon="8.34457217391314"><ele>15.333333333333332</ele><time>2026-04-05T12:14:46Z</time></trkpt><trkpt lat="44.17082712683467" lon="8.34447850655354"><ele>17.666666666666664</ele><time>2026-04-05T12:14:47Z</time></trkpt><trkpt lat="44.170822823656366" lon="8.344365171952964"><ele>20.0</ele><time>2026-04-05T12:14:48Z</time></trkpt><trkpt lat="44.170796784137835" lon="8.344253109013982"><ele>22.333333333333332</ele><time>2026-04-05T12:14:49Z</time></trkpt><trkpt lat="44.170767079735114" lon="8.34413751964446"><ele>24.666666666666668</ele><time>2026-04-05T12:14:50Z</time></trkpt><trkpt lat="44.17073677531928" lon="8.344012958005239"><ele>27.0</ele><time>2026-04-05T12:14:51Z</time></trkpt><trkpt lat="44.17069972529626" lon="8.343894934021861"><ele>24.6</ele><time>2026-04-05T12:14:52Z</time></trkpt><trkpt lat="44.17066970408555" lon="8.343773230226942"><ele>22.200000000000003</ele><time>2026-04-05T12:14:53Z</time></trkpt><trkpt lat="44.17063156773894" lon="8.343657848374388"><ele>19.8</ele><time>2026-04-05T12:14:54Z</time></trkpt><trkpt lat="44.17059450667635" lon="8.343540514833752"><ele>17.4</ele><time>2026-04-05T12:14:55Z</time></trkpt><trkpt lat="44.17055249677049" lon="8.343425707784508"><ele>15.0</ele><time>2026-04-05T12:14:55.999Z</time></trkpt><trkpt lat="44.17051269610179" lon="8.343317109531913"><ele>15.0</ele><time>2026-04-05T12:14:56.999Z</time></trkpt><trkpt lat="44.170504014880585" lon="8.343219785045866"><ele>15.0</ele><time>2026-04-05T12:14:57.999Z</time></trkpt><trkpt lat="44.170505457554796" lon="8.343109673852142"><ele>15.0</ele><time>2026-04-05T12:14:59.999Z</time></trkpt><trkpt lat="44.1706075038438" lon="8.343006529552802"><ele>15.0</ele><time>2026-04-05T12:15:01.999Z</time></trkpt><trkpt lat="44.17068232378747" lon="8.342951473579376"><ele>15.0</ele><time>2026-04-05T12:15:02.999Z</time></trkpt><trkpt lat="44.17075519178291" lon="8.342890248042963"><ele>15.0</ele><time>2026-04-05T12:15:03.999Z</time></trkpt><trkpt lat="44.17083483254442" lon="8.342826646987723"><ele>17.0</ele><time>2026-04-05T12:15:04.999Z</time></trkpt><trkpt lat="44.17091878701974" lon="8.342760269488602"><ele>19.0</ele><time>2026-04-05T12:15:05.999Z</time></trkpt><trkpt lat="44.171004356711265" lon="8.34270224372272"><ele>21.0</ele><time>2026-04-05T12:15:06.999Z</time></trkpt><trkpt lat="44.17108060416058" lon="8.342651249133446"><ele>23.0</ele><time>2026-04-05T12:15:07.999Z</time></trkpt><trkpt lat="44.171141276036494" lon="8.342618421524039"><ele>25.0</ele><time>2026-04-05T12:15:08.999Z</time></trkpt><trkpt lat="44.171236402996584" lon="8.342610802449407"><ele>27.0</ele><time>2026-04-05T12:15:10.999Z</time></trkpt><trkpt lat="44.17131451604492" lon="8.34262749796382"><ele>27.0</ele><time>2026-04-05T12:15:12.999Z</time></trkpt><trkpt lat="44.17140572374413" lon="8.342535668396305"><ele>27.0</ele><time>2026-04-05T12:15:14.999Z</time></trkpt><trkpt lat="44.17144116790811" lon="8.34245518888592"><ele>27.0</ele><time>2026-04-05T12:15:15.999Z</time></trkpt><trkpt lat="44.17148152562295" lon="8.342381473317868"><ele>27.0</ele><time>2026-04-05T12:15:16.999Z</time></trkpt><trkpt lat="44.17152518311867" lon="8.34230178062191"><ele>27.0</ele><time>2026-04-05T12:15:17.999Z</time></trkpt><trkpt lat="44.17155864658331" lon="8.342209715908977"><ele>27.0</ele><time>2026-04-05T12:15:18.999Z</time></trkpt><trkpt lat="44.17157393973136" lon="8.342104424827001"><ele>29.5</ele><time>2026-04-05T12:15:19.999Z</time></trkpt><trkpt lat="44.17161376065864" lon="8.342003938674958"><ele>32.0</ele><time>2026-04-05T12:15:20.999Z</time></trkpt><trkpt lat="44.171637803245716" lon="8.341892765402996"><ele>34.5</ele><time>2026-04-05T12:15:21.999Z</time></trkpt><trkpt lat="44.17165368377878" lon="8.341775658698133"><ele>37.0</ele><time>2026-04-05T12:15:22.999Z</time></trkpt><trkpt lat="44.17167799335877" lon="8.341675554537474"><ele>39.5</ele><time>2026-04-05T12:15:23.999Z</time></trkpt><trkpt lat="44.17170685935597" lon="8.341573943413067"><ele>42.0</ele><time>2026-04-05T12:15:24.999Z</time></trkpt><trkpt lat="44.17172129372247" lon="8.341415467135986"><ele>43.0</ele><time>2026-04-05T12:15:26.999Z</time></trkpt><trkpt lat="44.17165184254434" lon="8.341258495392697"><ele>44.0</ele><time>2026-04-05T12:15:28.999Z</time></trkpt><trkpt lat="44.17160087317414" lon="8.341186738804549"><ele>45.0</ele><time>2026-04-05T12:15:29.999Z</time></trkpt><trkpt lat="44.17153694397138" lon="8.341120351722498"><ele>46.0</ele><time>2026-04-05T12:15:30.999Z</time></trkpt><trkpt lat="44.17147513945308" lon="8.341039517875771"><ele>47.0</ele><time>2026-04-05T12:15:31.999Z</time></trkpt><trkpt lat="44.17141119781269" lon="8.340957282639982"><ele>44.5</ele><time>2026-04-05T12:15:32.999Z</time></trkpt><trkpt lat="44.17134769450869" lon="8.34086786724799"><ele>42.0</ele><time>2026-04-05T12:15:33.999Z</time></trkpt><trkpt lat="44.17128456328573" lon="8.340775695758497"><ele>39.5</ele><time>2026-04-05T12:15:34.999Z</time></trkpt><trkpt lat="44.171227336870075" lon="8.340686580288104"><ele>37.0</ele><time>2026-04-05T12:15:35.999Z</time></trkpt><trkpt lat="44.1711616200585" lon="8.340617025741146"><ele>34.5</ele><time>2026-04-05T12:15:36.999Z</time></trkpt><trkpt lat="44.171090819967844" lon="8.340565068745326"><ele>32.0</ele><time>2026-04-05T12:15:37.999Z</time></trkpt><trkpt lat="44.171027154839464" lon="8.340522758596624"><ele>32.0</ele><time>2026-04-05T12:15:38.999Z</time></trkpt><trkpt lat="44.17096742107363" lon="8.340472863210325"><ele>31.999999999999996</ele><time>2026-04-05T12:15:39.999Z</time></trkpt><trkpt lat="44.170932149305514" lon="8.340387756072003"><ele>32.0</ele><time>2026-04-05T12:15:40.999Z</time></trkpt><trkpt lat="44.17088851631384" lon="8.340306035742032"><ele>32.0</ele><time>2026-04-05T12:15:41.999Z</time></trkpt><trkpt lat="44.17084098037713" lon="8.340227341875577"><ele>31.999999999999996</ele><time>2026-04-05T12:15:42.999Z</time></trkpt><trkpt lat="44.17081321556163" lon="8.340135157247264"><ele>32.0</ele><time>2026-04-05T12:15:43.999Z</time></trkpt><trkpt lat="44.170800321802396" lon="8.340041007259215"><ele>32.0</ele><time>2026-04-05T12:15:44.999Z</time></trkpt><trkpt lat="44.17080043799033" lon="8.339863758801636"><ele>31.999999999999996</ele><time>2026-04-05T12:15:46.999Z</time></trkpt><trkpt lat="44.170822081241866" lon="8.339768919328586"><ele>32.0</ele><time>2026-04-05T12:15:47.999Z</time></trkpt><trkpt lat="44.1708533533088" lon="8.33967543138819"><ele>32.0</ele><time>2026-04-05T12:15:48.999Z</time></trkpt><trkpt lat="44.17089451474313" lon="8.33958441553993"><ele>32.0</ele><time>2026-04-05T12:15:49.998Z</time></trkpt><trkpt lat="44.17094674845847" lon="8.339501566650856"><ele>31.999999999999996</ele><time>2026-04-05T12:15:50.998Z</time></trkpt><trkpt lat="44.171006874883915" lon="8.339436351373479"><ele>32.0</ele><time>2026-04-05T12:15:51.998Z</time></trkpt><trkpt lat="44.171072674304845" lon="8.33939324979661"><ele>30.285714285714285</ele><time>2026-04-05T12:15:52.998Z</time></trkpt><trkpt lat="44.17114410114773" lon="8.339364033988112"><ele>28.57142857142857</ele><time>2026-04-05T12:15:53.998Z</time></trkpt><trkpt lat="44.17121816453528" lon="8.339359090661457"><ele>26.857142857142854</ele><time>2026-04-05T12:15:54.998Z</time></trkpt><trkpt lat="44.171291265572094" lon="8.33936762556376"><ele>25.142857142857142</ele><time>2026-04-05T12:15:55.998Z</time></trkpt><trkpt lat="44.17136532225333" lon="8.339393934879872"><ele>23.42857142857143</ele><time>2026-04-05T12:15:56.998Z</time></trkpt><trkpt lat="44.17143367540622" lon="8.33943552321417"><ele>21.714285714285715</ele><time>2026-04-05T12:15:57.998Z</time></trkpt><trkpt lat="44.171500282603084" lon="8.339486574765402"><ele>20.0</ele><time>2026-04-05T12:15:58.998Z</time></trkpt><trkpt lat="44.17156494599365" lon="8.339532587702811"><ele>20.0</ele><time>2026-04-05T12:15:59.998Z</time></trkpt><trkpt lat="44.17162727200241" lon="8.339575856879199"><ele>20.0</ele><time>2026-04-05T12:16:00.998Z</time></trkpt><trkpt lat="44.17168380490405" lon="8.33961630078116"><ele>20.0</ele><time>2026-04-05T12:16:01.998Z</time></trkpt><trkpt lat="44.17179880796837" lon="8.339683313038051"><ele>20.0</ele><time>2026-04-05T12:16:03.998Z</time></trkpt><trkpt lat="44.171847173462524" lon="8.339743327465401"><ele>20.0</ele><time>2026-04-05T12:16:04.998Z</time></trkpt><trkpt lat="44.171926745471964" lon="8.339819426208965"><ele>20.0</ele><time>2026-04-05T12:16:05.998Z</time></trkpt><trkpt lat="44.17201559854813" lon="8.339717999653026"><ele>20.0</ele><time>2026-04-05T12:16:06.998Z</time></trkpt><trkpt lat="44.17209589455684" lon="8.339723123866207"><ele>20.0</ele><time>2026-04-05T12:16:07.998Z</time></trkpt><trkpt lat="44.17217866919983" lon="8.339715191312793"><ele>20.0</ele><time>2026-04-05T12:16:08.998Z</time></trkpt><trkpt lat="44.172260993058764" lon="8.33971382488437"><ele>20.0</ele><time>2026-04-05T12:16:09.998Z</time></trkpt><trkpt lat="44.17234153571005" lon="8.339725017127094"><ele>20.0</ele><time>2026-04-05T12:16:10.998Z</time></trkpt><trkpt lat="44.172423248213825" lon="8.339730275822934"><ele>20.0</ele><time>2026-04-05T12:16:11.998Z</time></trkpt><trkpt lat="44.17250177577752" lon="8.339717150758835"><ele>20.833333333333336</ele><time>2026-04-05T12:16:12.998Z</time></trkpt><trkpt lat="44.17257110584312" lon="8.339676807218604"><ele>21.666666666666668</ele><time>2026-04-05T12:16:13.998Z</time></trkpt><trkpt lat="44.17263168389637" lon="8.339610003023225"><ele>22.5</ele><time>2026-04-05T12:16:14.998Z</time></trkpt><trkpt lat="44.172676325834416" lon="8.339517179597694"><ele>23.333333333333336</ele><time>2026-04-05T12:16:15.998Z</time></trkpt><trkpt lat="44.17270573929704" lon="8.339410686836919"><ele>24.166666666666668</ele><time>2026-04-05T12:16:16.998Z</time></trkpt><trkpt lat="44.17271444499499" lon="8.339301671983913"><ele>25.0</ele><time>2026-04-05T12:16:17.998Z</time></trkpt><trkpt lat="44.17269796029363" lon="8.339189486993922"><ele>25.000000000000004</ele><time>2026-04-05T12:16:18.998Z</time></trkpt><trkpt lat="44.17265840140094" lon="8.339087153399657"><ele>25.0</ele><time>2026-04-05T12:16:19.998Z</time></trkpt><trkpt lat="44.17259809143982" lon="8.339010240721528"><ele>25.0</ele><time>2026-04-05T12:16:20.998Z</time></trkpt><trkpt lat="44.172526087408215" lon="8.338941637340769"><ele>25.0</ele><time>2026-04-05T12:16:21.998Z</time></trkpt><trkpt lat="44.17245634818102" lon="8.338868834225844"><ele>25.000000000000004</ele><time>2026-04-05T12:16:22.998Z</time></trkpt><trkpt lat="44.17239856899065" lon="8.338771527423798"><ele>25.0</ele><time>2026-04-05T12:16:23.998Z</time></trkpt><trkpt lat="44.17233550711589" lon="8.338684093407142"><ele>22.833333333333336</ele><time>2026-04-05T12:16:24.998Z</time></trkpt><trkpt lat="44.172268309274536" lon="8.338605020976335"><ele>20.666666666666668</ele><time>2026-04-05T12:16:25.998Z</time></trkpt><trkpt lat="44.172209638842894" lon="8.338520329041932"><ele>18.5</ele><time>2026-04-05T12:16:26.998Z</time></trkpt><trkpt lat="44.17215743615563" lon="8.338435308810455"><ele>16.333333333333336</ele><time>2026-04-05T12:16:27.998Z</time></trkpt><trkpt lat="44.172125542009255" lon="8.338330638982361"><ele>14.166666666666668</ele><time>2026-04-05T12:16:28.998Z</time></trkpt><trkpt lat="44.17210687664914" lon="8.33822290204426"><ele>12.0</ele><time>2026-04-05T12:16:29.999Z</time></trkpt><trkpt lat="44.172076936878476" lon="8.3381347537751"><ele>12.0</ele><time>2026-04-05T12:16:30.999Z</time></trkpt><trkpt lat="44.17202444587801" lon="8.338064960490522"><ele>12.0</ele><time>2026-04-05T12:16:31.999Z</time></trkpt><trkpt lat="44.17195737595526" lon="8.33800331366664"><ele>12.0</ele><time>2026-04-05T12:16:33Z</time></trkpt><trkpt lat="44.17189156052628" lon="8.337951263193318"><ele>12.0</ele><time>2026-04-05T12:16:34Z</time></trkpt><trkpt lat="44.17182708884924" lon="8.337896595417646"><ele>12.0</ele><time>2026-04-05T12:16:35Z</time></trkpt><trkpt lat="44.17175914539313" lon="8.33784896473414"><ele>12.0</ele><time>2026-04-05T12:16:36Z</time></trkpt><trkpt lat="44.171688855155594" lon="8.33781583410374"><ele>11.999999999999998</ele><time>2026-04-05T12:16:37Z</time></trkpt><trkpt lat="44.17162181710416" lon="8.33777539686177"><ele>12.0</ele><time>2026-04-05T12:16:38Z</time></trkpt><trkpt lat="44.17154920158939" lon="8.33774507080977"><ele>12.0</ele><time>2026-04-05T12:16:39Z</time></trkpt><trkpt lat="44.17147945287897" lon="8.337716959754772"><ele>12.0</ele><time>2026-04-05T12:16:40Z</time></trkpt><trkpt lat="44.17141183423887" lon="8.337679419464923"><ele>12.0</ele><time>2026-04-05T12:16:41Z</time></trkpt><trkpt lat="44.17134791008022" lon="8.337634203180906"><ele>11.999999999999998</ele><time>2026-04-05T12:16:42Z</time></trkpt><trkpt lat="44.17128603733177" lon="8.337584160108355"><ele>12.0</ele><time>2026-04-05T12:16:43Z</time></trkpt><trkpt lat="44.17119225901627" lon="8.337493748715456"><ele>11.6</ele><time>2026-04-05T12:16:45Z</time></trkpt><trkpt lat="44.17114002553994" lon="8.337403168674484"><ele>11.2</ele><time>2026-04-05T12:16:48Z</time></trkpt><trkpt lat="44.17114852857759" lon="8.337278683607602"><ele>10.8</ele><time>2026-04-05T12:16:50Z</time></trkpt><trkpt lat="44.17120542865231" lon="8.337150246681668"><ele>10.4</ele><time>2026-04-05T12:16:52Z</time></trkpt><trkpt lat="44.171265095090604" lon="8.336997724697685"><ele>10.0</ele><time>2026-04-05T12:16:54Z</time></trkpt><trkpt lat="44.171321269592525" lon="8.336854148509325"><ele>9.857142857142858</ele><time>2026-04-05T12:16:56Z</time></trkpt><trkpt lat="44.17134991529135" lon="8.336771405099332"><ele>9.714285714285715</ele><time>2026-04-05T12:16:57Z</time></trkpt><trkpt lat="44.17138254049083" lon="8.336685170779862"><ele>9.571428571428573</ele><time>2026-04-05T12:16:57.999Z</time></trkpt><trkpt lat="44.17141802567421" lon="8.336595103622566"><ele>9.428571428571429</ele><time>2026-04-05T12:16:58.999Z</time></trkpt><trkpt lat="44.17145646848232" lon="8.336505848429598"><ele>9.285714285714286</ele><time>2026-04-05T12:16:59.999Z</time></trkpt><trkpt lat="44.17149510501672" lon="8.336415668854427"><ele>9.142857142857144</ele><time>2026-04-05T12:17:00.999Z</time></trkpt><trkpt lat="44.17153293622619" lon="8.336323045084661"><ele>9.0</ele><time>2026-04-05T12:17:01.999Z</time></trkpt><trkpt lat="44.17156940317629" lon="8.336245694227982"><ele>9.0</ele><time>2026-04-05T12:17:02.999Z</time></trkpt><trkpt lat="44.171639654954106" lon="8.336112365397057"><ele>9.0</ele><time>2026-04-05T12:17:04.999Z</time></trkpt><trkpt lat="44.17167426560248" lon="8.336028140164817"><ele>9.0</ele><time>2026-04-05T12:17:06.999Z</time></trkpt><trkpt lat="44.17159409602999" lon="8.335967320213655"><ele>9.0</ele><time>2026-04-05T12:17:07.999Z</time></trkpt><trkpt lat="44.17150726329899" lon="8.335874242409787"><ele>9.0</ele><time>2026-04-05T12:17:09.999Z</time></trkpt><trkpt lat="44.171413475495314" lon="8.335778827091973"><ele>8.6</ele><time>2026-04-05T12:17:11.999Z</time></trkpt><trkpt lat="44.171313722922584" lon="8.335682016508454"><ele>8.2</ele><time>2026-04-05T12:17:13.999Z</time></trkpt><trkpt lat="44.17125221293671" lon="8.335633423564806"><ele>7.799999999999999</ele><time>2026-04-05T12:17:14.999Z</time></trkpt><trkpt lat="44.171191424330125" lon="8.335589080668447"><ele>7.3999999999999995</ele><time>2026-04-05T12:17:15.999Z</time></trkpt><trkpt lat="44.17113843807054" lon="8.335535695176073"><ele>7.0</ele><time>2026-04-05T12:17:16.999Z</time></trkpt><trkpt lat="44.17102676555163" lon="8.335433500788866"><ele>7.0</ele><time>2026-04-05T12:17:18.999Z</time></trkpt><trkpt lat="44.17093201088432" lon="8.335346479474214"><ele>6.999999999999999</ele><time>2026-04-05T12:17:20.999Z</time></trkpt><trkpt lat="44.170872798698106" lon="8.33528703004352"><ele>6.999999999999999</ele><time>2026-04-05T12:17:22.999Z</time></trkpt><trkpt lat="44.17078314768563" lon="8.335178987810433"><ele>7.0</ele><time>2026-04-05T12:17:56.999Z</time></trkpt><trkpt lat="44.17074280909436" lon="8.335092841214475"><ele>7.0</ele><time>2026-04-05T12:17:57.999Z</time></trkpt><trkpt lat="44.170682871420475" lon="8.335032115912055"><ele>8.5</ele><time>2026-04-05T12:17:58.999Z</time></trkpt><trkpt lat="44.17062274055396" lon="8.334971396455263"><ele>10.0</ele><time>2026-04-05T12:17:59.998Z</time></trkpt><trkpt lat="44.170562266479365" lon="8.334910330321359"><ele>11.5</ele><time>2026-04-05T12:18:00.998Z</time></trkpt><trkpt lat="44.17052244500835" lon="8.334812998171225"><ele>13.0</ele><time>2026-04-05T12:18:02.998Z</time></trkpt><trkpt lat="44.17059911754035" lon="8.33466705353292"><ele>14.499999999999998</ele><time>2026-04-05T12:18:04.998Z</time></trkpt><trkpt lat="44.17065845290394" lon="8.334573989137299"><ele>16.0</ele><time>2026-04-05T12:18:05.998Z</time></trkpt><trkpt lat="44.17070209031021" lon="8.334461042862156"><ele>15.999999999999998</ele><time>2026-04-05T12:18:06.998Z</time></trkpt><trkpt lat="44.17073672957239" lon="8.334339941789121"><ele>16.0</ele><time>2026-04-05T12:18:07.998Z</time></trkpt><trkpt lat="44.1707592348278" lon="8.334237950533652"><ele>16.0</ele><time>2026-04-05T12:18:08.998Z</time></trkpt><trkpt lat="44.17078359299515" lon="8.334140578091151"><ele>16.0</ele><time>2026-04-05T12:18:09.998Z</time></trkpt><trkpt lat="44.17082077897159" lon="8.334023978051949"><ele>15.999999999999998</ele><time>2026-04-05T12:18:10.998Z</time></trkpt><trkpt lat="44.17087466230442" lon="8.333897042155035"><ele>16.0</ele><time>2026-04-05T12:18:11.998Z</time></trkpt><trkpt lat="44.17093084380045" lon="8.333768014740851"><ele>20.75</ele><time>2026-04-05T12:18:12.998Z</time></trkpt><trkpt lat="44.17099438863034" lon="8.333630760868909"><ele>25.5</ele><time>2026-04-05T12:18:13.998Z</time></trkpt><trkpt lat="44.171061861417016" lon="8.333482320017213"><ele>30.25</ele><time>2026-04-05T12:18:14.998Z</time></trkpt><trkpt lat="44.17113069338865" lon="8.33332140044683"><ele>35.0</ele><time>2026-04-05T12:18:15.998Z</time></trkpt><trkpt lat="44.171198698066654" lon="8.333153041503424"><ele>42.75</ele><time>2026-04-05T12:18:16.998Z</time></trkpt><trkpt lat="44.171268785156265" lon="8.33298996582068"><ele>50.5</ele><time>2026-04-05T12:18:17.998Z</time></trkpt><trkpt lat="44.17134287392624" lon="8.332824674428016"><ele>58.25</ele><time>2026-04-05T12:18:18.998Z</time></trkpt><trkpt lat="44.17141710757543" lon="8.332650851553591"><ele>66.0</ele><time>2026-04-05T12:18:19.998Z</time></trkpt><trkpt lat="44.17149205505396" lon="8.332471761672833"><ele>55.333333333333336</ele><time>2026-04-05T12:18:20.998Z</time></trkpt><trkpt lat="44.17157011945398" lon="8.33229460985174"><ele>44.66666666666667</ele><time>2026-04-05T12:18:21.998Z</time></trkpt><trkpt lat="44.17164281474347" lon="8.332111870380347"><ele>34.0</ele><time>2026-04-05T12:18:22.998Z</time></trkpt><trkpt lat="44.17172208930935" lon="8.33192702472505"><ele>34.0</ele><time>2026-04-05T12:18:23.998Z</time></trkpt><trkpt lat="44.17180354652419" lon="8.33173786063965"><ele>34.0</ele><time>2026-04-05T12:18:24.998Z</time></trkpt><trkpt lat="44.17188911545781" lon="8.331553234090173"><ele>34.0</ele><time>2026-04-05T12:18:25.998Z</time></trkpt><trkpt lat="44.17198820349697" lon="8.33137327361078"><ele>45.66666666666667</ele><time>2026-04-05T12:18:26.998Z</time></trkpt><trkpt lat="44.17209833234589" lon="8.331207031631838"><ele>57.333333333333336</ele><time>2026-04-05T12:18:27.998Z</time></trkpt><trkpt lat="44.17221851394706" lon="8.331038819558017"><ele>69.0</ele><time>2026-04-05T12:18:28.998Z</time></trkpt><trkpt lat="44.17233339672631" lon="8.330868626794155"><ele>59.666666666666664</ele><time>2026-04-05T12:18:29.998Z</time></trkpt><trkpt lat="44.17244706898382" lon="8.330693725550654"><ele>50.33333333333333</ele><time>2026-04-05T12:18:30.998Z</time></trkpt><trkpt lat="44.172570121304105" lon="8.330526846884597"><ele>41.0</ele><time>2026-04-05T12:18:31.998Z</time></trkpt><trkpt lat="44.172688114372356" lon="8.330348094936186"><ele>41.0</ele><time>2026-04-05T12:18:32.998Z</time></trkpt><trkpt lat="44.172817850900046" lon="8.330180409528545"><ele>41.0</ele><time>2026-04-05T12:18:33.998Z</time></trkpt><trkpt lat="44.17294669153104" lon="8.330011571627026"><ele>41.0</ele><time>2026-04-05T12:18:34.998Z</time></trkpt><trkpt lat="44.17307964212508" lon="8.329847167938052"><ele>38.33333333333333</ele><time>2026-04-05T12:18:36Z</time></trkpt><trkpt lat="44.17320114327638" lon="8.329691585317466"><ele>35.666666666666664</ele><time>2026-04-05T12:18:37Z</time></trkpt><trkpt lat="44.17331681867693" lon="8.329554350179498"><ele>33.0</ele><time>2026-04-05T12:18:38Z</time></trkpt><trkpt lat="44.173437440297924" lon="8.329445289708978"><ele>33.0</ele><time>2026-04-05T12:18:39Z</time></trkpt><trkpt lat="44.17355343453717" lon="8.329343224676334"><ele>33.0</ele><time>2026-04-05T12:18:40Z</time></trkpt><trkpt lat="44.1736541326172" lon="8.329213170342756"><ele>33.0</ele><time>2026-04-05T12:18:41Z</time></trkpt><trkpt lat="44.17374488126944" lon="8.329047477646062"><ele>33.0</ele><time>2026-04-05T12:18:42Z</time></trkpt><trkpt lat="44.17383011703297" lon="8.328867220717243"><ele>28.666666666666668</ele><time>2026-04-05T12:18:43Z</time></trkpt><trkpt lat="44.17390760015421" lon="8.32868658995279"><ele>24.333333333333336</ele><time>2026-04-05T12:18:44Z</time></trkpt><trkpt lat="44.17397652817986" lon="8.328497102756469"><ele>20.0</ele><time>2026-04-05T12:18:45Z</time></trkpt><trkpt lat="44.17404482368617" lon="8.328303268312506"><ele>20.0</ele><time>2026-04-05T12:18:46Z</time></trkpt><trkpt lat="44.174102214810866" lon="8.328105517413714"><ele>20.0</ele><time>2026-04-05T12:18:47Z</time></trkpt><trkpt lat="44.17414884640186" lon="8.3279259583644"><ele>20.0</ele><time>2026-04-05T12:18:48Z</time></trkpt><trkpt lat="44.17419426976453" lon="8.327760251562815"><ele>20.0</ele><time>2026-04-05T12:18:49Z</time></trkpt><trkpt lat="44.17423674936005" lon="8.32760153541328"><ele>22.5</ele><time>2026-04-05T12:18:50Z</time></trkpt><trkpt lat="44.17428038717644" lon="8.32743199042259"><ele>25.0</ele><time>2026-04-05T12:18:51Z</time></trkpt><trkpt lat="44.17430328521195" lon="8.327245965133091"><ele>27.5</ele><time>2026-04-05T12:18:52Z</time></trkpt><trkpt lat="44.17433029889108" lon="8.327053874513856"><ele>30.0</ele><time>2026-04-05T12:18:53Z</time></trkpt><trkpt lat="44.17434363953613" lon="8.32686348654845"><ele>31.5</ele><time>2026-04-05T12:18:54Z</time></trkpt><trkpt lat="44.17438645993766" lon="8.326678555982584"><ele>33.0</ele><time>2026-04-05T12:18:55Z</time></trkpt><trkpt lat="44.17441797843744" lon="8.32648767227455"><ele>34.5</ele><time>2026-04-05T12:18:56Z</time></trkpt><trkpt lat="44.17444591812726" lon="8.326288700263735"><ele>36.0</ele><time>2026-04-05T12:18:57Z</time></trkpt><trkpt lat="44.17447053203553" lon="8.326089741916237"><ele>39.0</ele><time>2026-04-05T12:18:58Z</time></trkpt><trkpt lat="44.174487679161174" lon="8.325881289975747"><ele>42.0</ele><time>2026-04-05T12:18:59Z</time></trkpt><trkpt lat="44.17451808378942" lon="8.32566957909716"><ele>45.0</ele><time>2026-04-05T12:19:00Z</time></trkpt><trkpt lat="44.17454287464946" lon="8.32546600477905"><ele>48.25</ele><time>2026-04-05T12:19:01Z</time></trkpt><trkpt lat="44.17456889188653" lon="8.32526208603824"><ele>51.5</ele><time>2026-04-05T12:19:02Z</time></trkpt><trkpt lat="44.174591276434796" lon="8.325058040837916"><ele>54.75</ele><time>2026-04-05T12:19:03Z</time></trkpt><trkpt lat="44.174620031021135" lon="8.324857512726206"><ele>58.0</ele><time>2026-04-05T12:19:04Z</time></trkpt><trkpt lat="44.17464787868451" lon="8.324668974057058"><ele>60.599999999999994</ele><time>2026-04-05T12:19:05Z</time></trkpt><trkpt lat="44.17467638756915" lon="8.324506931739249"><ele>63.199999999999996</ele><time>2026-04-05T12:19:06Z</time></trkpt><trkpt lat="44.17469028686281" lon="8.324368648642283"><ele>65.8</ele><time>2026-04-05T12:19:07Z</time></trkpt><trkpt lat="44.17470484561581" lon="8.324233770769347"><ele>68.39999999999999</ele><time>2026-04-05T12:19:08Z</time></trkpt><trkpt lat="44.17473713699751" lon="8.324124553863479"><ele>71.0</ele><time>2026-04-05T12:19:09Z</time></trkpt><trkpt lat="44.17478473999634" lon="8.324029779131747"><ele>71.0</ele><time>2026-04-05T12:19:10Z</time></trkpt><trkpt lat="44.17482981033174" lon="8.323944622791306"><ele>71.0</ele><time>2026-04-05T12:19:11Z</time></trkpt><trkpt lat="44.17485337482876" lon="8.323846322577987"><ele>71.0</ele><time>2026-04-05T12:19:12Z</time></trkpt><trkpt lat="44.1748418062888" lon="8.323744168040319"><ele>71.0</ele><time>2026-04-05T12:19:13Z</time></trkpt><trkpt lat="44.174816072421024" lon="8.323631945611092"><ele>71.0</ele><time>2026-04-05T12:19:13.999Z</time></trkpt><trkpt lat="44.174811588625296" lon="8.323505319681415"><ele>71.0</ele><time>2026-04-05T12:19:14.999Z</time></trkpt><trkpt lat="44.17483525833576" lon="8.323357601008263"><ele>64.25</ele><time>2026-04-05T12:19:15.999Z</time></trkpt><trkpt lat="44.17488194787574" lon="8.323204689145957"><ele>57.5</ele><time>2026-04-05T12:19:16.999Z</time></trkpt><trkpt lat="44.17493590158819" lon="8.323039536180008"><ele>50.75</ele><time>2026-04-05T12:19:17.999Z</time></trkpt><trkpt lat="44.17498147346078" lon="8.32286363404133"><ele>44.0</ele><time>2026-04-05T12:19:18.999Z</time></trkpt><trkpt lat="44.17502680412228" lon="8.322679866001238"><ele>44.0</ele><time>2026-04-05T12:19:19.999Z</time></trkpt><trkpt lat="44.17507651391017" lon="8.32248874005863"><ele>44.0</ele><time>2026-04-05T12:19:20.999Z</time></trkpt><trkpt lat="44.1751266553166" lon="8.3222861844533"><ele>44.0</ele><time>2026-04-05T12:19:21.999Z</time></trkpt><trkpt lat="44.17517817689503" lon="8.322067436046904"><ele>51.33333333333333</ele><time>2026-04-05T12:19:22.999Z</time></trkpt><trkpt lat="44.17522351424698" lon="8.321836149940083"><ele>58.666666666666664</ele><time>2026-04-05T12:19:23.999Z</time></trkpt><trkpt lat="44.175260801443436" lon="8.321595658607086"><ele>66.0</ele><time>2026-04-05T12:19:24.999Z</time></trkpt><trkpt lat="44.175296664392356" lon="8.3213439032194"><ele>69.33333333333333</ele><time>2026-04-05T12:19:25.999Z</time></trkpt><trkpt lat="44.17531583938758" lon="8.321085725316307"><ele>72.66666666666666</ele><time>2026-04-05T12:19:26.999Z</time></trkpt><trkpt lat="44.175331912530744" lon="8.320823489280082"><ele>76.0</ele><time>2026-04-05T12:19:27.999Z</time></trkpt><trkpt lat="44.17534348286908" lon="8.320557963828085"><ele>79.66666666666666</ele><time>2026-04-05T12:19:28.999Z</time></trkpt><trkpt lat="44.175351360188195" lon="8.320294913449036"><ele>83.33333333333333</ele><time>2026-04-05T12:19:29.999Z</time></trkpt><trkpt lat="44.17536937951681" lon="8.320059692034715"><ele>87.0</ele><time>2026-04-05T12:19:30.999Z</time></trkpt><trkpt lat="44.17539881705854" lon="8.319855130759894"><ele>89.5</ele><time>2026-04-05T12:19:31.999Z</time></trkpt><trkpt lat="44.17545158360208" lon="8.31968149294361"><ele>92.0</ele><time>2026-04-05T12:19:32.999Z</time></trkpt><trkpt lat="44.17549837568412" lon="8.31952229610605"><ele>94.5</ele><time>2026-04-05T12:19:33.999Z</time></trkpt><trkpt lat="44.17552647264785" lon="8.319372955628094"><ele>97.0</ele><time>2026-04-05T12:19:34.999Z</time></trkpt><trkpt lat="44.17552154233125" lon="8.319245683134437"><ele>97.0</ele><time>2026-04-05T12:19:35.999Z</time></trkpt><trkpt lat="44.17549065585358" lon="8.319111371009667"><ele>97.0</ele><time>2026-04-05T12:19:36.999Z</time></trkpt><trkpt lat="44.17544246929148" lon="8.318984122858144"><ele>97.0</ele><time>2026-04-05T12:19:37.999Z</time></trkpt><trkpt lat="44.17539680119508" lon="8.318847962711848"><ele>97.0</ele><time>2026-04-05T12:19:38.999Z</time></trkpt><trkpt lat="44.17536676514009" lon="8.3186847176217"><ele>97.0</ele><time>2026-04-05T12:19:39.999Z</time></trkpt><trkpt lat="44.17536554680213" lon="8.318508889911472"><ele>98.25</ele><time>2026-04-05T12:19:40.999Z</time></trkpt><trkpt lat="44.1753875064687" lon="8.318332093705836"><ele>99.5</ele><time>2026-04-05T12:19:41.999Z</time></trkpt><trkpt lat="44.17543442599634" lon="8.318164198059913"><ele>100.75</ele><time>2026-04-05T12:19:42.999Z</time></trkpt><trkpt lat="44.17550244793993" lon="8.318011091877555"><ele>102.0</ele><time>2026-04-05T12:19:43.999Z</time></trkpt><trkpt lat="44.175587349991446" lon="8.31787329636077"><ele>105.75</ele><time>2026-04-05T12:19:44.999Z</time></trkpt><trkpt lat="44.175674230481675" lon="8.317735234289355"><ele>109.5</ele><time>2026-04-05T12:19:45.999Z</time></trkpt><trkpt lat="44.17576325390528" lon="8.317600067525362"><ele>113.25</ele><time>2026-04-05T12:19:46.999Z</time></trkpt><trkpt lat="44.175847127543996" lon="8.317456992307715"><ele>117.0</ele><time>2026-04-05T12:19:47.999Z</time></trkpt><trkpt lat="44.17593976213347" lon="8.317317101567692"><ele>113.25</ele><time>2026-04-05T12:19:48.999Z</time></trkpt><trkpt lat="44.176046079320656" lon="8.317187128381555"><ele>109.5</ele><time>2026-04-05T12:19:49.999Z</time></trkpt><trkpt lat="44.17616251093416" lon="8.317064827590016"><ele>105.75</ele><time>2026-04-05T12:19:50.999Z</time></trkpt><trkpt lat="44.1762709119887" lon="8.31691897558807"><ele>102.0</ele><time>2026-04-05T12:19:51.999Z</time></trkpt><trkpt lat="44.17637917311997" lon="8.316757346577557"><ele>102.0</ele><time>2026-04-05T12:19:52.999Z</time></trkpt><trkpt lat="44.17649328908158" lon="8.316593077229953"><ele>102.0</ele><time>2026-04-05T12:19:53.999Z</time></trkpt><trkpt lat="44.17660850850542" lon="8.316422114960236"><ele>102.0</ele><time>2026-04-05T12:19:54.999Z</time></trkpt><trkpt lat="44.176719541114174" lon="8.316242298176146"><ele>99.33333333333333</ele><time>2026-04-05T12:19:55.999Z</time></trkpt><trkpt lat="44.17683303044277" lon="8.316062158649158"><ele>96.66666666666666</ele><time>2026-04-05T12:19:56.999Z</time></trkpt><trkpt lat="44.17694905236004" lon="8.315886187815831"><ele>94.0</ele><time>2026-04-05T12:19:57.999Z</time></trkpt><trkpt lat="44.17706040060644" lon="8.315713101554913"><ele>92.0</ele><time>2026-04-05T12:19:58.999Z</time></trkpt><trkpt lat="44.17717639703122" lon="8.315552515462226"><ele>90.0</ele><time>2026-04-05T12:19:59.999Z</time></trkpt><trkpt lat="44.177288820882666" lon="8.315409042514183"><ele>88.0</ele><time>2026-04-05T12:20:00.999Z</time></trkpt><trkpt lat="44.17740042366452" lon="8.315266858278237"><ele>88.0</ele><time>2026-04-05T12:20:01.999Z</time></trkpt><trkpt lat="44.17750578286632" lon="8.315128249538265"><ele>88.0</ele><time>2026-04-05T12:20:02.999Z</time></trkpt><trkpt lat="44.17760454498122" lon="8.314979839232198"><ele>88.0</ele><time>2026-04-05T12:20:03.999Z</time></trkpt><trkpt lat="44.17769284856763" lon="8.314814129959077"><ele>88.0</ele><time>2026-04-05T12:20:04.999Z</time></trkpt><trkpt lat="44.17777564050892" lon="8.31463814589742"><ele>95.75</ele><time>2026-04-05T12:20:05.999Z</time></trkpt><trkpt lat="44.177846161296294" lon="8.314457218925865"><ele>103.5</ele><time>2026-04-05T12:20:06.999Z</time></trkpt><trkpt lat="44.17791117333367" lon="8.314277687090032"><ele>111.25</ele><time>2026-04-05T12:20:07.999Z</time></trkpt><trkpt lat="44.17798516998357" lon="8.314109948045834"><ele>119.0</ele><time>2026-04-05T12:20:08.999Z</time></trkpt><trkpt lat="44.17807395525557" lon="8.313964383323173"><ele>115.25</ele><time>2026-04-05T12:20:09.999Z</time></trkpt><trkpt lat="44.178180476008535" lon="8.313837048229516"><ele>111.5</ele><time>2026-04-05T12:20:10.999Z</time></trkpt><trkpt lat="44.17829722725541" lon="8.31372248031649"><ele>107.75</ele><time>2026-04-05T12:20:11.999Z</time></trkpt><trkpt lat="44.178412596223325" lon="8.31360509632778"><ele>104.0</ele><time>2026-04-05T12:20:12.998Z</time></trkpt><trkpt lat="44.178519786105156" lon="8.31347081038283"><ele>104.0</ele><time>2026-04-05T12:20:13.998Z</time></trkpt><trkpt lat="44.17859917215147" lon="8.313308567412811"><ele>104.0</ele><time>2026-04-05T12:20:14.998Z</time></trkpt><trkpt lat="44.17867417208816" lon="8.313144283429812"><ele>104.0</ele><time>2026-04-05T12:20:15.998Z</time></trkpt><trkpt lat="44.178740432901826" lon="8.312986123219174"><ele>104.0</ele><time>2026-04-05T12:20:16.998Z</time></trkpt><trkpt lat="44.178782769854344" lon="8.31281149607317"><ele>112.5</ele><time>2026-04-05T12:20:17.998Z</time></trkpt><trkpt lat="44.17880198157211" lon="8.312618146494215"><ele>121.0</ele><time>2026-04-05T12:20:18.998Z</time></trkpt><trkpt lat="44.178817202981364" lon="8.312416200982316"><ele>129.5</ele><time>2026-04-05T12:20:19.998Z</time></trkpt><trkpt lat="44.178846904243606" lon="8.312224100702714"><ele>138.0</ele><time>2026-04-05T12:20:20.998Z</time></trkpt><trkpt lat="44.178877904914685" lon="8.31203514092162"><ele>143.75</ele><time>2026-04-05T12:20:21.998Z</time></trkpt><trkpt lat="44.17893221828898" lon="8.311847210077667"><ele>149.5</ele><time>2026-04-05T12:20:22.998Z</time></trkpt><trkpt lat="44.178987246314534" lon="8.311670159305319"><ele>155.25</ele><time>2026-04-05T12:20:23.998Z</time></trkpt><trkpt lat="44.17902751368749" lon="8.311511980126644"><ele>161.0</ele><time>2026-04-05T12:20:24.998Z</time></trkpt><trkpt lat="44.17904063207501" lon="8.311359016896935"><ele>160.0</ele><time>2026-04-05T12:20:25.998Z</time></trkpt><trkpt lat="44.17903934885693" lon="8.311224871414801"><ele>159.0</ele><time>2026-04-05T12:20:26.998Z</time></trkpt><trkpt lat="44.179020696823834" lon="8.311098132082614"><ele>158.0</ele><time>2026-04-05T12:20:27.998Z</time></trkpt><trkpt lat="44.179011415036975" lon="8.310983013458259"><ele>157.0</ele><time>2026-04-05T12:20:28.998Z</time></trkpt><trkpt lat="44.17901803808712" lon="8.310884853813935"><ele>156.0</ele><time>2026-04-05T12:20:29.998Z</time></trkpt><trkpt lat="44.17902293729025" lon="8.310792538953939"><ele>155.0</ele><time>2026-04-05T12:20:30.998Z</time></trkpt><trkpt lat="44.178955646843924" lon="8.310669701637147"><ele>155.0</ele><time>2026-04-05T12:20:32.998Z</time></trkpt><trkpt lat="44.17889492337491" lon="8.310619709932356"><ele>155.0</ele><time>2026-04-05T12:20:33.998Z</time></trkpt><trkpt lat="44.1788483814138" lon="8.310539373766378"><ele>155.0</ele><time>2026-04-05T12:20:34.998Z</time></trkpt><trkpt lat="44.178851872900246" lon="8.310430540392934"><ele>155.0</ele><time>2026-04-05T12:20:35.998Z</time></trkpt><trkpt lat="44.178894007727926" lon="8.310329253113949"><ele>155.0</ele><time>2026-04-05T12:20:36.998Z</time></trkpt><trkpt lat="44.178979720173494" lon="8.310225017116334"><ele>155.0</ele><time>2026-04-05T12:20:37.998Z</time></trkpt><trkpt lat="44.17909772651784" lon="8.310146929946656"><ele>152.5</ele><time>2026-04-05T12:20:38.998Z</time></trkpt><trkpt lat="44.179230516204726" lon="8.310103545772058"><ele>150.0</ele><time>2026-04-05T12:20:39.998Z</time></trkpt><trkpt lat="44.17932609937839" lon="8.310039700536695"><ele>147.5</ele><time>2026-04-05T12:20:40.998Z</time></trkpt><trkpt lat="44.179409142277976" lon="8.309820907498292"><ele>145.0</ele><time>2026-04-05T12:20:43Z</time></trkpt><trkpt lat="44.17946662900509" lon="8.309640010422813"><ele>145.0</ele><time>2026-04-05T12:20:44Z</time></trkpt><trkpt lat="44.17949151242709" lon="8.30944278045925"><ele>145.0</ele><time>2026-04-05T12:20:45Z</time></trkpt><trkpt lat="44.179540591007175" lon="8.309248796360265"><ele>145.0</ele><time>2026-04-05T12:20:46Z</time></trkpt><trkpt lat="44.179606215463735" lon="8.309063182892354"><ele>145.0</ele><time>2026-04-05T12:20:47Z</time></trkpt><trkpt lat="44.17965855904603" lon="8.308891998131193"><ele>143.75</ele><time>2026-04-05T12:20:48Z</time></trkpt><trkpt lat="44.17970885993419" lon="8.308727844361355"><ele>142.5</ele><time>2026-04-05T12:20:49Z</time></trkpt><trkpt lat="44.179778995951196" lon="8.30858810324127"><ele>141.25</ele><time>2026-04-05T12:20:50Z</time></trkpt><trkpt lat="44.17987219059209" lon="8.308469623646651"><ele>140.0</ele><time>2026-04-05T12:20:51Z</time></trkpt><trkpt lat="44.1799725089925" lon="8.30841251981237"><ele>140.0</ele><time>2026-04-05T12:20:52Z</time></trkpt><trkpt lat="44.1800952049244" lon="8.308400288939346"><ele>140.0</ele><time>2026-04-05T12:20:53Z</time></trkpt><trkpt lat="44.18022920266985" lon="8.308400204781353"><ele>140.0</ele><time>2026-04-05T12:20:54Z</time></trkpt><trkpt lat="44.18036116291433" lon="8.308368535907201"><ele>140.0</ele><time>2026-04-05T12:20:55Z</time></trkpt><trkpt lat="44.180473216251634" lon="8.30832463973557"><ele>140.0</ele><time>2026-04-05T12:20:56Z</time></trkpt><trkpt lat="44.18056220108251" lon="8.308258876005521"><ele>140.0</ele><time>2026-04-05T12:20:57Z</time></trkpt><trkpt lat="44.18063362282821" lon="8.308152521619988"><ele>140.0</ele><time>2026-04-05T12:20:58Z</time></trkpt><trkpt lat="44.1806865156086" lon="8.308001658603287"><ele>140.0</ele><time>2026-04-05T12:20:59Z</time></trkpt><trkpt lat="44.1807073376828" lon="8.307824179755672"><ele>136.75</ele><time>2026-04-05T12:21:00Z</time></trkpt><trkpt lat="44.18070313830827" lon="8.307655242242248"><ele>133.5</ele><time>2026-04-05T12:21:01Z</time></trkpt><trkpt lat="44.18066919600451" lon="8.307488731038973"><ele>130.25</ele><time>2026-04-05T12:21:02Z</time></trkpt><trkpt lat="44.18059803674551" lon="8.307352674955318"><ele>127.0</ele><time>2026-04-05T12:21:03Z</time></trkpt><trkpt lat="44.180499926873594" lon="8.307253949258264"><ele>134.75</ele><time>2026-04-05T12:21:04Z</time></trkpt><trkpt lat="44.18037916225674" lon="8.307179692719231"><ele>142.5</ele><time>2026-04-05T12:21:05Z</time></trkpt><trkpt lat="44.180240346862476" lon="8.307136703900394"><ele>150.25</ele><time>2026-04-05T12:21:06Z</time></trkpt><trkpt lat="44.18012507515515" lon="8.30709464411763"><ele>158.0</ele><time>2026-04-05T12:21:07Z</time></trkpt><trkpt lat="44.18003958803934" lon="8.307034956866005"><ele>158.0</ele><time>2026-04-05T12:21:08Z</time></trkpt><trkpt lat="44.179972403426575" lon="8.306956969653301"><ele>158.0</ele><time>2026-04-05T12:21:09Z</time></trkpt><trkpt lat="44.17993753686896" lon="8.306841477659953"><ele>158.0</ele><time>2026-04-05T12:21:10Z</time></trkpt><trkpt lat="44.1799549340823" lon="8.306712842485085"><ele>158.0</ele><time>2026-04-05T12:21:11Z</time></trkpt><trkpt lat="44.180015907317916" lon="8.30659709307627"><ele>158.0</ele><time>2026-04-05T12:21:12Z</time></trkpt><trkpt lat="44.18012331563139" lon="8.306518409218143"><ele>162.75</ele><time>2026-04-05T12:21:13Z</time></trkpt><trkpt lat="44.180228547537936" lon="8.306406974015452"><ele>167.5</ele><time>2026-04-05T12:21:14Z</time></trkpt><trkpt lat="44.18034540375829" lon="8.306291431844567"><ele>172.25</ele><time>2026-04-05T12:21:15Z</time></trkpt><trkpt lat="44.18045358143358" lon="8.306154932539181"><ele>177.0</ele><time>2026-04-05T12:21:16Z</time></trkpt><trkpt lat="44.18056396295254" lon="8.306026846095317"><ele>177.0</ele><time>2026-04-05T12:21:17Z</time></trkpt><trkpt lat="44.18066865876654" lon="8.305900810226325"><ele>177.0</ele><time>2026-04-05T12:21:18Z</time></trkpt><trkpt lat="44.1807611093978" lon="8.30579109526255"><ele>177.0</ele><time>2026-04-05T12:21:19Z</time></trkpt><trkpt lat="44.18083876663354" lon="8.305688915135299"><ele>177.0</ele><time>2026-04-05T12:21:20Z</time></trkpt><trkpt lat="44.18088627333295" lon="8.305582790246826"><ele>178.8</ele><time>2026-04-05T12:21:21Z</time></trkpt><trkpt lat="44.180897463533924" lon="8.305465911843747"><ele>180.6</ele><time>2026-04-05T12:21:22Z</time></trkpt><trkpt lat="44.180872051353155" lon="8.305332196896517"><ele>182.4</ele><time>2026-04-05T12:21:23Z</time></trkpt><trkpt lat="44.18080826214601" lon="8.305201352896633"><ele>184.20000000000002</ele><time>2026-04-05T12:21:24Z</time></trkpt><trkpt lat="44.18072629743574" lon="8.305084095753061"><ele>186.0</ele><time>2026-04-05T12:21:25Z</time></trkpt><trkpt lat="44.18066172467997" lon="8.305004193755483"><ele>186.0</ele><time>2026-04-05T12:21:26Z</time></trkpt><trkpt lat="44.180642213478095" lon="8.304902882066036"><ele>186.0</ele><time>2026-04-05T12:21:26.999Z</time></trkpt><trkpt lat="44.18066997516245" lon="8.304776447921963"><ele>186.0</ele><time>2026-04-05T12:21:27.999Z</time></trkpt><trkpt lat="44.18075031166801" lon="8.304679759661926"><ele>186.0</ele><time>2026-04-05T12:21:28.999Z</time></trkpt><trkpt lat="44.18084751530133" lon="8.304594807979639"><ele>186.0</ele><time>2026-04-05T12:21:29.999Z</time></trkpt><trkpt lat="44.180942894138234" lon="8.30449907239406"><ele>184.8</ele><time>2026-04-05T12:21:30.999Z</time></trkpt><trkpt lat="44.1810259023155" lon="8.304396948818606"><ele>183.60000000000002</ele><time>2026-04-05T12:21:31.999Z</time></trkpt><trkpt lat="44.181073817269" lon="8.304264595325655"><ele>182.4</ele><time>2026-04-05T12:21:32.999Z</time></trkpt><trkpt lat="44.181087786122184" lon="8.304106696388176"><ele>181.2</ele><time>2026-04-05T12:21:33.999Z</time></trkpt><trkpt lat="44.18110377603144" lon="8.303952036287312"><ele>180.0</ele><time>2026-04-05T12:21:34.999Z</time></trkpt><trkpt lat="44.18113273311351" lon="8.30380964087649"><ele>180.0</ele><time>2026-04-05T12:21:35.999Z</time></trkpt><trkpt lat="44.181152749690256" lon="8.303679115803535"><ele>180.0</ele><time>2026-04-05T12:21:36.999Z</time></trkpt><trkpt lat="44.18114582284413" lon="8.303536135414683"><ele>180.0</ele><time>2026-04-05T12:21:37.999Z</time></trkpt><trkpt lat="44.181110602755126" lon="8.3033881615925"><ele>180.0</ele><time>2026-04-05T12:21:38.999Z</time></trkpt><trkpt lat="44.18106703213973" lon="8.303241289932137"><ele>180.0</ele><time>2026-04-05T12:21:39.999Z</time></trkpt><trkpt lat="44.18104153651893" lon="8.303080475454983"><ele>182.25</ele><time>2026-04-05T12:21:40.999Z</time></trkpt><trkpt lat="44.18106290102621" lon="8.302921421782212"><ele>184.5</ele><time>2026-04-05T12:21:41.999Z</time></trkpt><trkpt lat="44.18106417198694" lon="8.30275471101545"><ele>186.75</ele><time>2026-04-05T12:21:42.999Z</time></trkpt><trkpt lat="44.1810856288102" lon="8.302587470106438"><ele>189.0</ele><time>2026-04-05T12:21:43.999Z</time></trkpt><trkpt lat="44.18110380457288" lon="8.302419766438117"><ele>189.0</ele><time>2026-04-05T12:21:44.999Z</time></trkpt><trkpt lat="44.181119473906854" lon="8.302259954897146"><ele>189.0</ele><time>2026-04-05T12:21:45.999Z</time></trkpt><trkpt lat="44.18114202646954" lon="8.302112438401561"><ele>189.0</ele><time>2026-04-05T12:21:46.999Z</time></trkpt><trkpt lat="44.18117771115218" lon="8.301967881784941"><ele>189.0</ele><time>2026-04-05T12:21:47.999Z</time></trkpt><trkpt lat="44.18122861403344" lon="8.301821779227181"><ele>189.25</ele><time>2026-04-05T12:21:48.999Z</time></trkpt><trkpt lat="44.181284623048704" lon="8.301676071513459"><ele>189.5</ele><time>2026-04-05T12:21:49.999Z</time></trkpt><trkpt lat="44.18135718142681" lon="8.301543648011911"><ele>189.75</ele><time>2026-04-05T12:21:50.999Z</time></trkpt><trkpt lat="44.181438983829345" lon="8.301422373844737"><ele>190.0</ele><time>2026-04-05T12:21:51.999Z</time></trkpt><trkpt lat="44.18152741079055" lon="8.301308347820887"><ele>190.0</ele><time>2026-04-05T12:21:52.999Z</time></trkpt><trkpt lat="44.18160787105486" lon="8.30120182549678"><ele>190.0</ele><time>2026-04-05T12:21:53.999Z</time></trkpt><trkpt lat="44.181664912984004" lon="8.301087761528295"><ele>190.0</ele><time>2026-04-05T12:21:54.999Z</time></trkpt><trkpt lat="44.18169469490326" lon="8.300936205695354"><ele>190.0</ele><time>2026-04-05T12:21:55.999Z</time></trkpt><trkpt lat="44.181706287244886" lon="8.300755813577123"><ele>192.75</ele><time>2026-04-05T12:21:56.999Z</time></trkpt><trkpt lat="44.18170200676462" lon="8.300558602336913"><ele>195.5</ele><time>2026-04-05T12:21:57.999Z</time></trkpt><trkpt lat="44.18172419990501" lon="8.30035158955109"><ele>198.25</ele><time>2026-04-05T12:21:58.999Z</time></trkpt><trkpt lat="44.18176431587886" lon="8.300159189883994"><ele>201.0</ele><time>2026-04-05T12:21:59.999Z</time></trkpt><trkpt lat="44.1818260596387" lon="8.299993100260577"><ele>201.0</ele><time>2026-04-05T12:22:00.999Z</time></trkpt><trkpt lat="44.18189770783721" lon="8.299867741025553"><ele>201.0</ele><time>2026-04-05T12:22:01.999Z</time></trkpt><trkpt lat="44.18197181746041" lon="8.299747179552929"><ele>201.0</ele><time>2026-04-05T12:22:02.999Z</time></trkpt><trkpt lat="44.182047201932946" lon="8.299613742339444"><ele>201.0</ele><time>2026-04-05T12:22:03.999Z</time></trkpt><trkpt lat="44.18212299736414" lon="8.299475641513585"><ele>202.0</ele><time>2026-04-05T12:22:04.999Z</time></trkpt><trkpt lat="44.18220755450973" lon="8.299323295946385"><ele>203.0</ele><time>2026-04-05T12:22:05.999Z</time></trkpt><trkpt lat="44.18228396680219" lon="8.299168482122479"><ele>204.0</ele><time>2026-04-05T12:22:06.999Z</time></trkpt><trkpt lat="44.18235140723998" lon="8.299008313096257"><ele>205.0</ele><time>2026-04-05T12:22:07.999Z</time></trkpt><trkpt lat="44.18241862504248" lon="8.29884507643982"><ele>205.0</ele><time>2026-04-05T12:22:08.999Z</time></trkpt><trkpt lat="44.182475207843005" lon="8.298692819508133"><ele>205.0</ele><time>2026-04-05T12:22:09.999Z</time></trkpt><trkpt lat="44.182522875295945" lon="8.298563998960464"><ele>205.0</ele><time>2026-04-05T12:22:10.999Z</time></trkpt><trkpt lat="44.18256781760537" lon="8.298451904840986"><ele>205.0</ele><time>2026-04-05T12:22:11.999Z</time></trkpt><trkpt lat="44.18260958004037" lon="8.298367183162553"><ele>205.0</ele><time>2026-04-05T12:22:12.999Z</time></trkpt><trkpt lat="44.18263253059765" lon="8.298283057452968"><ele>204.99999999999997</ele><time>2026-04-05T12:22:13.999Z</time></trkpt><trkpt lat="44.18267866035232" lon="8.298146714070882"><ele>205.0</ele><time>2026-04-05T12:22:15.999Z</time></trkpt><trkpt lat="44.18273706784208" lon="8.298098181594874"><ele>205.0</ele><time>2026-04-05T12:22:16.999Z</time></trkpt><trkpt lat="44.182803887641576" lon="8.298036138567367"><ele>205.0</ele><time>2026-04-05T12:22:17.999Z</time></trkpt><trkpt lat="44.18287281171816" lon="8.297950932246115"><ele>204.99999999999997</ele><time>2026-04-05T12:22:18.999Z</time></trkpt><trkpt lat="44.182937847241895" lon="8.297851546418698"><ele>205.0</ele><time>2026-04-05T12:22:19.999Z</time></trkpt><trkpt lat="44.18298627404729" lon="8.2977457845998"><ele>203.8</ele><time>2026-04-05T12:22:20.999Z</time></trkpt><trkpt lat="44.183016319751104" lon="8.297634737993915"><ele>202.6</ele><time>2026-04-05T12:22:21.999Z</time></trkpt><trkpt lat="44.18302746899458" lon="8.297516025028294"><ele>201.39999999999998</ele><time>2026-04-05T12:22:22.999Z</time></trkpt><trkpt lat="44.18303756141678" lon="8.29739118190043"><ele>200.2</ele><time>2026-04-05T12:22:23.998Z</time></trkpt><trkpt lat="44.18305281010218" lon="8.297263098418583"><ele>199.0</ele><time>2026-04-05T12:22:24.998Z</time></trkpt><trkpt lat="44.18306323708591" lon="8.297130447309012"><ele>197.83333333333331</ele><time>2026-04-05T12:22:25.998Z</time></trkpt><trkpt lat="44.18308081379662" lon="8.296989602413143"><ele>196.66666666666666</ele><time>2026-04-05T12:22:26.998Z</time></trkpt><trkpt lat="44.183094550758184" lon="8.296872813902988"><ele>195.5</ele><time>2026-04-05T12:22:27.998Z</time></trkpt><trkpt lat="44.18310677971172" lon="8.296763354453212"><ele>194.33333333333331</ele><time>2026-04-05T12:22:28.998Z</time></trkpt><trkpt lat="44.183114428885794" lon="8.296661960082384"><ele>193.16666666666666</ele><time>2026-04-05T12:22:29.998Z</time></trkpt><trkpt lat="44.18311971524691" lon="8.296573118832772"><ele>192.0</ele><time>2026-04-05T12:22:30.998Z</time></trkpt><trkpt lat="44.183128749343496" lon="8.296427099176803"><ele>192.5</ele><time>2026-04-05T12:22:32.998Z</time></trkpt><trkpt lat="44.18312436567476" lon="8.296312839421207"><ele>193.0</ele><time>2026-04-05T12:22:34.998Z</time></trkpt><trkpt lat="44.18311486991225" lon="8.296185771478687"><ele>193.5</ele><time>2026-04-05T12:22:36.998Z</time></trkpt><trkpt lat="44.18312265402874" lon="8.296086375972697"><ele>194.0</ele><time>2026-04-05T12:22:37.998Z</time></trkpt><trkpt lat="44.1830985361642" lon="8.295980209024968"><ele>194.5</ele><time>2026-04-05T12:22:38.998Z</time></trkpt><trkpt lat="44.18309361838505" lon="8.295874765588163"><ele>195.0</ele><time>2026-04-05T12:22:39.998Z</time></trkpt><trkpt lat="44.18309240410442" lon="8.295780486446146"><ele>195.0</ele><time>2026-04-05T12:22:40.998Z</time></trkpt><trkpt lat="44.18309298800144" lon="8.29567312746404"><ele>195.0</ele><time>2026-04-05T12:22:41.998Z</time></trkpt><trkpt lat="44.18311783710832" lon="8.295558506740992"><ele>195.0</ele><time>2026-04-05T12:22:42.998Z</time></trkpt><trkpt lat="44.1831471999586" lon="8.295428521544038"><ele>195.0</ele><time>2026-04-05T12:22:43.998Z</time></trkpt><trkpt lat="44.183205765391776" lon="8.29530653331177"><ele>195.0</ele><time>2026-04-05T12:22:44.998Z</time></trkpt><trkpt lat="44.18327629836471" lon="8.295175717715065"><ele>194.2</ele><time>2026-04-05T12:22:45.998Z</time></trkpt><trkpt lat="44.18334369233824" lon="8.295050022501458"><ele>193.4</ele><time>2026-04-05T12:22:46.998Z</time></trkpt><trkpt lat="44.18340502084038" lon="8.294932417597554"><ele>192.60000000000002</ele><time>2026-04-05T12:22:48Z</time></trkpt><trkpt lat="44.18346203742234" lon="8.294825506888975"><ele>191.8</ele><time>2026-04-05T12:22:49Z</time></trkpt><trkpt lat="44.183526593795385" lon="8.294745747190646"><ele>191.0</ele><time>2026-04-05T12:22:50Z</time></trkpt><trkpt lat="44.1836138936156" lon="8.29469902011726"><ele>191.0</ele><time>2026-04-05T12:22:51Z</time></trkpt><trkpt lat="44.183707906107934" lon="8.294681269327352"><ele>191.0</ele><time>2026-04-05T12:22:52Z</time></trkpt><trkpt lat="44.18380961686891" lon="8.294694356261845"><ele>191.0</ele><time>2026-04-05T12:22:53Z</time></trkpt><trkpt lat="44.18392512647319" lon="8.294720004020574"><ele>191.0</ele><time>2026-04-05T12:22:54Z</time></trkpt><trkpt lat="44.18403863905495" lon="8.294728475590885"><ele>191.0</ele><time>2026-04-05T12:22:55Z</time></trkpt><trkpt lat="44.18415482128477" lon="8.294700868276824"><ele>194.0</ele><time>2026-04-05T12:22:56Z</time></trkpt><trkpt lat="44.184284984977594" lon="8.294646763105872"><ele>197.0</ele><time>2026-04-05T12:22:57Z</time></trkpt><trkpt lat="44.18441096929789" lon="8.29460011092577"><ele>200.0</ele><time>2026-04-05T12:22:58Z</time></trkpt><trkpt lat="44.18452877003939" lon="8.294552849516025"><ele>203.0</ele><time>2026-04-05T12:22:59Z</time></trkpt><trkpt lat="44.184644509827706" lon="8.294543414507057"><ele>203.0</ele><time>2026-04-05T12:23:00Z</time></trkpt><trkpt lat="44.18476276669499" lon="8.294548925196105"><ele>203.0</ele><time>2026-04-05T12:23:01Z</time></trkpt><trkpt lat="44.18487865437315" lon="8.294575511825565"><ele>203.0</ele><time>2026-04-05T12:23:02Z</time></trkpt><trkpt lat="44.18499920791556" lon="8.29461295987819"><ele>203.0</ele><time>2026-04-05T12:23:03Z</time></trkpt><trkpt lat="44.185120838474994" lon="8.294670202419468"><ele>204.75</ele><time>2026-04-05T12:23:04Z</time></trkpt><trkpt lat="44.18523773768014" lon="8.294710140653995"><ele>206.5</ele><time>2026-04-05T12:23:05Z</time></trkpt><trkpt lat="44.185369957916805" lon="8.294719415869338"><ele>208.25</ele><time>2026-04-05T12:23:06Z</time></trkpt><trkpt lat="44.18550633892277" lon="8.294709877088128"><ele>210.0</ele><time>2026-04-05T12:23:07Z</time></trkpt><trkpt lat="44.18565879127607" lon="8.294677691873583"><ele>210.5</ele><time>2026-04-05T12:23:08Z</time></trkpt><trkpt lat="44.18580175816807" lon="8.294676222465604"><ele>211.0</ele><time>2026-04-05T12:23:09Z</time></trkpt><trkpt lat="44.18593806675657" lon="8.29471392058849"><ele>211.5</ele><time>2026-04-05T12:23:10Z</time></trkpt><trkpt lat="44.1860862093377" lon="8.294767604288017"><ele>212.0</ele><time>2026-04-05T12:23:11Z</time></trkpt><trkpt lat="44.18623858698537" lon="8.294794973012491"><ele>220.66666666666669</ele><time>2026-04-05T12:23:12Z</time></trkpt><trkpt lat="44.186386970663065" lon="8.294849718845448"><ele>229.33333333333331</ele><time>2026-04-05T12:23:13Z</time></trkpt><trkpt lat="44.18654628335909" lon="8.294859734411572"><ele>238.0</ele><time>2026-04-05T12:23:14Z</time></trkpt><trkpt lat="44.18670518584728" lon="8.294847173484007"><ele>238.5</ele><time>2026-04-05T12:23:15Z</time></trkpt><trkpt lat="44.18684700470558" lon="8.294842606796532"><ele>239.0</ele><time>2026-04-05T12:23:16Z</time></trkpt><trkpt lat="44.18696795334603" lon="8.294894324954242"><ele>239.5</ele><time>2026-04-05T12:23:17Z</time></trkpt><trkpt lat="44.187089625605644" lon="8.294926809794774"><ele>240.0</ele><time>2026-04-05T12:23:18Z</time></trkpt><trkpt lat="44.187193344320015" lon="8.294966912395292"><ele>240.0</ele><time>2026-04-05T12:23:19Z</time></trkpt><trkpt lat="44.187282538957184" lon="8.294976648659235"><ele>240.0</ele><time>2026-04-05T12:23:20Z</time></trkpt><trkpt lat="44.18737800032086" lon="8.29492499083829"><ele>240.0</ele><time>2026-04-05T12:23:21Z</time></trkpt><trkpt lat="44.18746923550485" lon="8.29481798113779"><ele>240.0</ele><time>2026-04-05T12:23:22Z</time></trkpt><trkpt lat="44.18753364317256" lon="8.294653013205082"><ele>240.0</ele><time>2026-04-05T12:23:23Z</time></trkpt><trkpt lat="44.18760223407712" lon="8.294479213156196"><ele>237.25</ele><time>2026-04-05T12:23:24Z</time></trkpt><trkpt lat="44.18768502221949" lon="8.294343339355105"><ele>234.5</ele><time>2026-04-05T12:23:25Z</time></trkpt><trkpt lat="44.18775354719233" lon="8.294226971642244"><ele>231.75</ele><time>2026-04-05T12:23:26Z</time></trkpt><trkpt lat="44.187826868758094" lon="8.294129807141937"><ele>229.0</ele><time>2026-04-05T12:23:27Z</time></trkpt><trkpt lat="44.18792737778153" lon="8.294041329392986"><ele>229.0</ele><time>2026-04-05T12:23:28Z</time></trkpt><trkpt lat="44.18804665060169" lon="8.29396460282975"><ele>229.0</ele><time>2026-04-05T12:23:29Z</time></trkpt><trkpt lat="44.18817717467086" lon="8.293909295843312"><ele>229.0</ele><time>2026-04-05T12:23:30Z</time></trkpt><trkpt lat="44.18831863596156" lon="8.29388366482709"><ele>229.0</ele><time>2026-04-05T12:23:31Z</time></trkpt><trkpt lat="44.18846430505086" lon="8.2938424144763"><ele>226.0</ele><time>2026-04-05T12:23:32Z</time></trkpt><trkpt lat="44.1886063063723" lon="8.293784858192748"><ele>223.0</ele><time>2026-04-05T12:23:33Z</time></trkpt><trkpt lat="44.18875793099809" lon="8.293733129515848"><ele>220.0</ele><time>2026-04-05T12:23:34Z</time></trkpt><trkpt lat="44.18891261721466" lon="8.293692340596621"><ele>225.33333333333331</ele><time>2026-04-05T12:23:35Z</time></trkpt><trkpt lat="44.18907022633476" lon="8.293664897986039"><ele>230.66666666666669</ele><time>2026-04-05T12:23:36Z</time></trkpt><trkpt lat="44.18924806929527" lon="8.293585824553798"><ele>236.0</ele><time>2026-04-05T12:23:36.999Z</time></trkpt><trkpt lat="44.18940577650247" lon="8.29351923527246"><ele>236.0</ele><time>2026-04-05T12:23:37.999Z</time></trkpt><trkpt lat="44.18951897465692" lon="8.293422297426359"><ele>236.0</ele><time>2026-04-05T12:23:38.999Z</time></trkpt><trkpt lat="44.189642681123495" lon="8.29332323309044"><ele>236.0</ele><time>2026-04-05T12:23:39.999Z</time></trkpt><trkpt lat="44.18975665684933" lon="8.293275227977775"><ele>236.0</ele><time>2026-04-05T12:23:40.999Z</time></trkpt><trkpt lat="44.18987479960599" lon="8.293225241195174"><ele>240.5</ele><time>2026-04-05T12:23:41.999Z</time></trkpt><trkpt lat="44.18997880930404" lon="8.293219010289539"><ele>245.0</ele><time>2026-04-05T12:23:42.999Z</time></trkpt><trkpt lat="44.19011468385069" lon="8.293224301378892"><ele>249.5</ele><time>2026-04-05T12:23:43.999Z</time></trkpt><trkpt lat="44.19024872275108" lon="8.293249589536716"><ele>254.0</ele><time>2026-04-05T12:23:44.999Z</time></trkpt><trkpt lat="44.19036759515182" lon="8.293283099946903"><ele>254.0</ele><time>2026-04-05T12:23:45.999Z</time></trkpt><trkpt lat="44.19049711103734" lon="8.293288488335618"><ele>254.0</ele><time>2026-04-05T12:23:46.999Z</time></trkpt><trkpt lat="44.19061251484841" lon="8.293271643373517"><ele>254.0</ele><time>2026-04-05T12:23:47.999Z</time></trkpt><trkpt lat="44.19072821749362" lon="8.293211302782108"><ele>254.0</ele><time>2026-04-05T12:23:48.999Z</time></trkpt><trkpt lat="44.19082347991672" lon="8.293098194254647"><ele>253.25</ele><time>2026-04-05T12:23:49.999Z</time></trkpt><trkpt lat="44.19091136837261" lon="8.292968053270608"><ele>252.5</ele><time>2026-04-05T12:23:50.999Z</time></trkpt><trkpt lat="44.19097507141419" lon="8.292765395065056"><ele>251.75</ele><time>2026-04-05T12:23:51.999Z</time></trkpt><trkpt lat="44.191077500257514" lon="8.292629497065876"><ele>251.0</ele><time>2026-04-05T12:23:52.999Z</time></trkpt><trkpt lat="44.19115801016761" lon="8.292471233750042"><ele>251.0</ele><time>2026-04-05T12:23:53.999Z</time></trkpt><trkpt lat="44.191227161223175" lon="8.292319183433674"><ele>251.0</ele><time>2026-04-05T12:23:54.999Z</time></trkpt><trkpt lat="44.191297172594446" lon="8.292185148776714"><ele>251.0</ele><time>2026-04-05T12:23:55.999Z</time></trkpt><trkpt lat="44.19139165336359" lon="8.292074605758865"><ele>251.0</ele><time>2026-04-05T12:23:56.999Z</time></trkpt><trkpt lat="44.19148159215218" lon="8.291987720050958"><ele>252.75</ele><time>2026-04-05T12:23:57.999Z</time></trkpt><trkpt lat="44.19158460856562" lon="8.291928885968076"><ele>254.5</ele><time>2026-04-05T12:23:58.999Z</time></trkpt><trkpt lat="44.191709441099015" lon="8.291881001647925"><ele>256.25</ele><time>2026-04-05T12:23:59.999Z</time></trkpt><trkpt lat="44.191837835295324" lon="8.291818419108923"><ele>258.0</ele><time>2026-04-05T12:24:00.999Z</time></trkpt><trkpt lat="44.19195955362769" lon="8.291722637693143"><ele>258.0</ele><time>2026-04-05T12:24:01.999Z</time></trkpt><trkpt lat="44.19208836583474" lon="8.291645360519274"><ele>258.0</ele><time>2026-04-05T12:24:02.999Z</time></trkpt><trkpt lat="44.19223259188081" lon="8.29162870326542"><ele>258.0</ele><time>2026-04-05T12:24:03.999Z</time></trkpt><trkpt lat="44.19235784535045" lon="8.291576931490159"><ele>258.0</ele><time>2026-04-05T12:24:04.999Z</time></trkpt><trkpt lat="44.19246548109031" lon="8.291516938990247"><ele>260.5</ele><time>2026-04-05T12:24:05.999Z</time></trkpt><trkpt lat="44.19256387241041" lon="8.291410143269118"><ele>263.0</ele><time>2026-04-05T12:24:06.999Z</time></trkpt><trkpt lat="44.19265518610132" lon="8.291279608370932"><ele>265.5</ele><time>2026-04-05T12:24:07.999Z</time></trkpt><trkpt lat="44.192719940803364" lon="8.291095019395092"><ele>268.0</ele><time>2026-04-05T12:24:08.999Z</time></trkpt><trkpt lat="44.19277186029654" lon="8.290892951704306"><ele>268.0</ele><time>2026-04-05T12:24:09.999Z</time></trkpt><trkpt lat="44.19281781164872" lon="8.290672887014725"><ele>268.0</ele><time>2026-04-05T12:24:10.999Z</time></trkpt><trkpt lat="44.19288724083226" lon="8.290466386576805"><ele>268.0</ele><time>2026-04-05T12:24:11.999Z</time></trkpt><trkpt lat="44.192970565179074" lon="8.290286263695446"><ele>266.75</ele><time>2026-04-05T12:24:12.999Z</time></trkpt><trkpt lat="44.19304122999891" lon="8.290133279542836"><ele>265.5</ele><time>2026-04-05T12:24:13.999Z</time></trkpt><trkpt lat="44.193102945252214" lon="8.289998129028524"><ele>264.25</ele><time>2026-04-05T12:24:14.999Z</time></trkpt><trkpt lat="44.19318438550455" lon="8.289896113995578"><ele>263.0</ele><time>2026-04-05T12:24:15.999Z</time></trkpt><trkpt lat="44.193311746910865" lon="8.289860595334648"><ele>268.25</ele><time>2026-04-05T12:24:16.999Z</time></trkpt><trkpt lat="44.193406251630684" lon="8.289753181798687"><ele>273.5</ele><time>2026-04-05T12:24:17.999Z</time></trkpt><trkpt lat="44.193488680383204" lon="8.289639664999328"><ele>278.75</ele><time>2026-04-05T12:24:18.999Z</time></trkpt><trkpt lat="44.19353824199649" lon="8.289476951249702"><ele>284.0</ele><time>2026-04-05T12:24:19.999Z</time></trkpt><trkpt lat="44.19355700834789" lon="8.289293175237825"><ele>284.0</ele><time>2026-04-05T12:24:20.999Z</time></trkpt><trkpt lat="44.19355377406773" lon="8.289094588162175"><ele>284.0</ele><time>2026-04-05T12:24:21.999Z</time></trkpt><trkpt lat="44.19354544912468" lon="8.288891448488313"><ele>284.0</ele><time>2026-04-05T12:24:22.999Z</time></trkpt><trkpt lat="44.19354666377949" lon="8.288683939873259"><ele>284.0</ele><time>2026-04-05T12:24:23.999Z</time></trkpt><trkpt lat="44.19355290740959" lon="8.288477427204239"><ele>284.75</ele><time>2026-04-05T12:24:24.999Z</time></trkpt><trkpt lat="44.19355673159337" lon="8.288299565430242"><ele>285.5</ele><time>2026-04-05T12:24:25.999Z</time></trkpt><trkpt lat="44.19355718361168" lon="8.288137284018141"><ele>286.25</ele><time>2026-04-05T12:24:26.999Z</time></trkpt><trkpt lat="44.19353600787952" lon="8.287965433273008"><ele>287.0</ele><time>2026-04-05T12:24:27.999Z</time></trkpt><trkpt lat="44.193495628678924" lon="8.28780798623014"><ele>288.25</ele><time>2026-04-05T12:24:28.999Z</time></trkpt><trkpt lat="44.19343386537422" lon="8.287641879427726"><ele>289.5</ele><time>2026-04-05T12:24:29.999Z</time></trkpt><trkpt lat="44.19337371720238" lon="8.287494005672391"><ele>290.75</ele><time>2026-04-05T12:24:30.999Z</time></trkpt><trkpt lat="44.19330364306202" lon="8.287362244336277"><ele>292.0</ele><time>2026-04-05T12:24:31.998Z</time></trkpt><trkpt lat="44.193211923228596" lon="8.287234789586792"><ele>289.8</ele><time>2026-04-05T12:24:32.998Z</time></trkpt><trkpt lat="44.19310736885186" lon="8.287125993396184"><ele>287.6</ele><time>2026-04-05T12:24:33.998Z</time></trkpt><trkpt lat="44.19300809777401" lon="8.287049725924163"><ele>285.40000000000003</ele><time>2026-04-05T12:24:34.998Z</time></trkpt><trkpt lat="44.19293019583773" lon="8.286961773558813"><ele>283.2</ele><time>2026-04-05T12:24:35.998Z</time></trkpt><trkpt lat="44.192883452892616" lon="8.286845199914998"><ele>281.0</ele><time>2026-04-05T12:24:36.998Z</time></trkpt><trkpt lat="44.192876814262235" lon="8.286705034965275"><ele>281.0</ele><time>2026-04-05T12:24:37.998Z</time></trkpt><trkpt lat="44.192901709135384" lon="8.286573870819788"><ele>281.0</ele><time>2026-04-05T12:24:38.998Z</time></trkpt><trkpt lat="44.19295728044853" lon="8.28644659400395"><ele>281.0</ele><time>2026-04-05T12:24:39.998Z</time></trkpt><trkpt lat="44.19303662358725" lon="8.286319252264647"><ele>281.0</ele><time>2026-04-05T12:24:40.998Z</time></trkpt><trkpt lat="44.19312623837892" lon="8.286183980066468"><ele>284.5</ele><time>2026-04-05T12:24:41.998Z</time></trkpt><trkpt lat="44.19320838984053" lon="8.286036057823784"><ele>288.0</ele><time>2026-04-05T12:24:42.998Z</time></trkpt><trkpt lat="44.19327719493676" lon="8.285879059667364"><ele>291.5</ele><time>2026-04-05T12:24:43.998Z</time></trkpt><trkpt lat="44.19333122842872" lon="8.285701070314264"><ele>295.0</ele><time>2026-04-05T12:24:44.998Z</time></trkpt><trkpt lat="44.19336141910955" lon="8.285508442882888"><ele>295.3333333333333</ele><time>2026-04-05T12:24:45.998Z</time></trkpt><trkpt lat="44.19337438162586" lon="8.285306732919066"><ele>295.6666666666667</ele><time>2026-04-05T12:24:46.998Z</time></trkpt><trkpt lat="44.19337691245924" lon="8.28508825537615"><ele>296.0</ele><time>2026-04-05T12:24:47.998Z</time></trkpt><trkpt lat="44.193389623651065" lon="8.284863926906919"><ele>297.75</ele><time>2026-04-05T12:24:48.998Z</time></trkpt><trkpt lat="44.1934082199246" lon="8.28465151619572"><ele>299.5</ele><time>2026-04-05T12:24:49.998Z</time></trkpt><trkpt lat="44.193422054434855" lon="8.284458516448487"><ele>301.25</ele><time>2026-04-05T12:24:50.998Z</time></trkpt><trkpt lat="44.19344270295882" lon="8.284286110013525"><ele>303.0</ele><time>2026-04-05T12:24:51.998Z</time></trkpt><trkpt lat="44.19347697104114" lon="8.284130500733314"><ele>303.0</ele><time>2026-04-05T12:24:52.998Z</time></trkpt><trkpt lat="44.19352910212072" lon="8.283999338215116"><ele>303.0</ele><time>2026-04-05T12:24:54Z</time></trkpt><trkpt lat="44.19359971847766" lon="8.283913681445549"><ele>303.0</ele><time>2026-04-05T12:24:55Z</time></trkpt><trkpt lat="44.19369806600085" lon="8.283850642426085"><ele>303.0</ele><time>2026-04-05T12:24:56Z</time></trkpt><trkpt lat="44.193809526170824" lon="8.283794395496367"><ele>303.0</ele><time>2026-04-05T12:24:57Z</time></trkpt><trkpt lat="44.1939096981267" lon="8.28371426920447"><ele>305.0</ele><time>2026-04-05T12:24:58Z</time></trkpt><trkpt lat="44.19400067602124" lon="8.283593494682737"><ele>307.0</ele><time>2026-04-05T12:24:59Z</time></trkpt><trkpt lat="44.194080584802194" lon="8.283459986639082"><ele>309.0</ele><time>2026-04-05T12:25:00Z</time></trkpt><trkpt lat="44.194182268669415" lon="8.283353528446773"><ele>311.0</ele><time>2026-04-05T12:25:01Z</time></trkpt><trkpt lat="44.19430479681002" lon="8.283283737988187"><ele>311.0</ele><time>2026-04-05T12:25:02Z</time></trkpt><trkpt lat="44.19445283132774" lon="8.283262959747658"><ele>311.0</ele><time>2026-04-05T12:25:03Z</time></trkpt><trkpt lat="44.19454463903744" lon="8.283229788920416"><ele>311.0</ele><time>2026-04-05T12:25:04Z</time></trkpt><trkpt lat="44.19462257939381" lon="8.28317719885866"><ele>311.0</ele><time>2026-04-05T12:25:05Z</time></trkpt><trkpt lat="44.19470272315591" lon="8.28306180641466"><ele>311.0</ele><time>2026-04-05T12:25:06Z</time></trkpt><trkpt lat="44.19477044776378" lon="8.282942993392526"><ele>316.0</ele><time>2026-04-05T12:25:07Z</time></trkpt><trkpt lat="44.19480799598268" lon="8.282818713062602"><ele>321.0</ele><time>2026-04-05T12:25:08Z</time></trkpt><trkpt lat="44.194822107637904" lon="8.282662399692487"><ele>326.0</ele><time>2026-04-05T12:25:09Z</time></trkpt><trkpt lat="44.19482928067202" lon="8.282481271594147"><ele>331.0</ele><time>2026-04-05T12:25:10Z</time></trkpt><trkpt lat="44.19483572146842" lon="8.282290986546895"><ele>327.0</ele><time>2026-04-05T12:25:11Z</time></trkpt><trkpt lat="44.19484655381913" lon="8.282104144298238"><ele>323.0</ele><time>2026-04-05T12:25:12Z</time></trkpt><trkpt lat="44.19486777809145" lon="8.281947191973432"><ele>319.0</ele><time>2026-04-05T12:25:13Z</time></trkpt><trkpt lat="44.1949088332787" lon="8.281794436528806"><ele>315.0</ele><time>2026-04-05T12:25:14Z</time></trkpt><trkpt lat="44.19498367668383" lon="8.281652921559814"><ele>315.0</ele><time>2026-04-05T12:25:15Z</time></trkpt><trkpt lat="44.19506073838935" lon="8.281506280948893"><ele>315.0</ele><time>2026-04-05T12:25:16Z</time></trkpt><trkpt lat="44.19512843771705" lon="8.281351018469266"><ele>315.0</ele><time>2026-04-05T12:25:17Z</time></trkpt><trkpt lat="44.195184576830165" lon="8.281161782399066"><ele>315.0</ele><time>2026-04-05T12:25:18Z</time></trkpt><trkpt lat="44.19519971783243" lon="8.28096555485781"><ele>315.3333333333333</ele><time>2026-04-05T12:25:19Z</time></trkpt><trkpt lat="44.19521644543081" lon="8.28075451573215"><ele>315.66666666666663</ele><time>2026-04-05T12:25:20Z</time></trkpt><trkpt lat="44.19523975628023" lon="8.280537990440317"><ele>316.0</ele><time>2026-04-05T12:25:21Z</time></trkpt><trkpt lat="44.19527012794211" lon="8.280319183276823"><ele>314.5</ele><time>2026-04-05T12:25:22Z</time></trkpt><trkpt lat="44.19530552457971" lon="8.280115158569124"><ele>313.0</ele><time>2026-04-05T12:25:23Z</time></trkpt><trkpt lat="44.19534091980376" lon="8.279925423008738"><ele>311.5</ele><time>2026-04-05T12:25:24Z</time></trkpt><trkpt lat="44.1953573275768" lon="8.279730647087225"><ele>310.0</ele><time>2026-04-05T12:25:25Z</time></trkpt><trkpt lat="44.195344440085904" lon="8.27952485174743"><ele>310.0</ele><time>2026-04-05T12:25:26Z</time></trkpt><trkpt lat="44.195317214244184" lon="8.279316251451684"><ele>310.0</ele><time>2026-04-05T12:25:27Z</time></trkpt><trkpt lat="44.19529253320725" lon="8.279093955747497"><ele>310.0</ele><time>2026-04-05T12:25:28Z</time></trkpt><trkpt lat="44.195282794128" lon="8.278901941392489"><ele>310.0</ele><time>2026-04-05T12:25:29Z</time></trkpt><trkpt lat="44.19527151749658" lon="8.27872678209984"><ele>310.0</ele><time>2026-04-05T12:25:30Z</time></trkpt><trkpt lat="44.19526022944972" lon="8.27857192427356"><ele>310.0</ele><time>2026-04-05T12:25:31Z</time></trkpt><trkpt lat="44.195252937262005" lon="8.278427117099852"><ele>310.0</ele><time>2026-04-05T12:25:32Z</time></trkpt><trkpt lat="44.195266079974004" lon="8.278307355745493"><ele>310.0</ele><time>2026-04-05T12:25:33Z</time></trkpt><trkpt lat="44.19531269909075" lon="8.278194610356367"><ele>310.0</ele><time>2026-04-05T12:25:34Z</time></trkpt><trkpt lat="44.19541388159676" lon="8.27811965579851"><ele>310.0</ele><time>2026-04-05T12:25:35Z</time></trkpt><trkpt lat="44.195509820299414" lon="8.27801480864917"><ele>310.0</ele><time>2026-04-05T12:25:36Z</time></trkpt><trkpt lat="44.195620361834486" lon="8.277925962386382"><ele>310.0</ele><time>2026-04-05T12:25:37Z</time></trkpt><trkpt lat="44.19570944393648" lon="8.277813541965134"><ele>314.4</ele><time>2026-04-05T12:25:38Z</time></trkpt><trkpt lat="44.195770095379494" lon="8.277704198577506"><ele>318.8</ele><time>2026-04-05T12:25:38.999Z</time></trkpt><trkpt lat="44.195799685810165" lon="8.2775914429029"><ele>323.20000000000005</ele><time>2026-04-05T12:25:39.999Z</time></trkpt><trkpt lat="44.195824895507776" lon="8.277440802806609"><ele>327.6</ele><time>2026-04-05T12:25:40.999Z</time></trkpt><trkpt lat="44.195762454946625" lon="8.277246783032258"><ele>332.0</ele><time>2026-04-05T12:25:41.999Z</time></trkpt><trkpt lat="44.195741110014914" lon="8.277055304267783"><ele>333.75</ele><time>2026-04-05T12:25:42.999Z</time></trkpt><trkpt lat="44.19575203452246" lon="8.276857306618892"><ele>335.5</ele><time>2026-04-05T12:25:43.999Z</time></trkpt><trkpt lat="44.195773793794174" lon="8.276654998478676"><ele>337.25</ele><time>2026-04-05T12:25:44.999Z</time></trkpt><trkpt lat="44.19579358432104" lon="8.276455983022004"><ele>339.0</ele><time>2026-04-05T12:25:45.999Z</time></trkpt><trkpt lat="44.19580816142822" lon="8.276238370321417"><ele>340.0</ele><time>2026-04-05T12:25:46.999Z</time></trkpt><trkpt lat="44.195827156315694" lon="8.276034423801542"><ele>341.0</ele><time>2026-04-05T12:25:47.999Z</time></trkpt><trkpt lat="44.19585195432318" lon="8.275829799305868"><ele>342.0</ele><time>2026-04-05T12:25:48.999Z</time></trkpt><trkpt lat="44.195883269426595" lon="8.27564722270405"><ele>343.0</ele><time>2026-04-05T12:25:49.999Z</time></trkpt><trkpt lat="44.195920085473155" lon="8.275448604418504"><ele>343.0</ele><time>2026-04-05T12:25:50.999Z</time></trkpt><trkpt lat="44.195960354606186" lon="8.27525698304306"><ele>343.0</ele><time>2026-04-05T12:25:51.999Z</time></trkpt><trkpt lat="44.19600838956739" lon="8.275106405130723"><ele>343.0</ele><time>2026-04-05T12:25:52.999Z</time></trkpt><trkpt lat="44.19606006008822" lon="8.274969150071492"><ele>343.0</ele><time>2026-04-05T12:25:53.999Z</time></trkpt><trkpt lat="44.19612134764426" lon="8.274829052243504"><ele>344.3333333333333</ele><time>2026-04-05T12:25:54.999Z</time></trkpt><trkpt lat="44.19619379282335" lon="8.274716243906473"><ele>345.66666666666663</ele><time>2026-04-05T12:25:55.999Z</time></trkpt><trkpt lat="44.19626158425337" lon="8.274626195508954"><ele>347.0</ele><time>2026-04-05T12:25:56.999Z</time></trkpt><trkpt lat="44.19630088879579" lon="8.274540198047463"><ele>348.3333333333333</ele><time>2026-04-05T12:25:57.999Z</time></trkpt><trkpt lat="44.19629418753192" lon="8.274428795389186"><ele>349.6666666666667</ele><time>2026-04-05T12:25:58.999Z</time></trkpt><trkpt lat="44.19624162413395" lon="8.27432861064605"><ele>351.0</ele><time>2026-04-05T12:25:59.999Z</time></trkpt><trkpt lat="44.196150087152574" lon="8.274238126232055"><ele>351.0</ele><time>2026-04-05T12:26:00.999Z</time></trkpt><trkpt lat="44.19604366978542" lon="8.27421102035977"><ele>351.0</ele><time>2026-04-05T12:26:01.999Z</time></trkpt><trkpt lat="44.19596522498365" lon="8.274166010428317"><ele>351.0</ele><time>2026-04-05T12:26:02.999Z</time></trkpt><trkpt lat="44.195918011791676" lon="8.274082638913237"><ele>351.0</ele><time>2026-04-05T12:26:03.999Z</time></trkpt><trkpt lat="44.19588713501096" lon="8.273965273135605"><ele>351.0</ele><time>2026-04-05T12:26:04.999Z</time></trkpt><trkpt lat="44.195895267936" lon="8.273814680016818"><ele>351.4</ele><time>2026-04-05T12:26:05.999Z</time></trkpt><trkpt lat="44.195930560597354" lon="8.273686688869368"><ele>351.8</ele><time>2026-04-05T12:26:06.999Z</time></trkpt><trkpt lat="44.195997547288" lon="8.273607801600535"><ele>352.2</ele><time>2026-04-05T12:26:07.999Z</time></trkpt><trkpt lat="44.19609909847024" lon="8.273562824757603"><ele>352.59999999999997</ele><time>2026-04-05T12:26:08.999Z</time></trkpt><trkpt lat="44.19620719214854" lon="8.273567976320253"><ele>353.0</ele><time>2026-04-05T12:26:09.999Z</time></trkpt><trkpt lat="44.19632623706865" lon="8.27358567236187"><ele>353.0</ele><time>2026-04-05T12:26:10.999Z</time></trkpt><trkpt lat="44.196450667212396" lon="8.273602394028998"><ele>353.0</ele><time>2026-04-05T12:26:11.999Z</time></trkpt><trkpt lat="44.19656348602368" lon="8.273624960568831"><ele>353.0</ele><time>2026-04-05T12:26:12.999Z</time></trkpt><trkpt lat="44.19665701793031" lon="8.273609284259338"><ele>353.0</ele><time>2026-04-05T12:26:13.999Z</time></trkpt><trkpt lat="44.19673460079419" lon="8.273565539205793"><ele>353.0</ele><time>2026-04-05T12:26:14.999Z</time></trkpt><trkpt lat="44.1967824670855" lon="8.273451376163123"><ele>355.59999999999997</ele><time>2026-04-05T12:26:15.999Z</time></trkpt><trkpt lat="44.19679446640632" lon="8.273341891790027"><ele>358.2</ele><time>2026-04-05T12:26:16.999Z</time></trkpt><trkpt lat="44.19676434481875" lon="8.273193250950381"><ele>360.8</ele><time>2026-04-05T12:26:17.999Z</time></trkpt><trkpt lat="44.19669581709344" lon="8.273055433990503"><ele>363.4</ele><time>2026-04-05T12:26:18.999Z</time></trkpt><trkpt lat="44.196600946098265" lon="8.272943210276063"><ele>366.0</ele><time>2026-04-05T12:26:19.999Z</time></trkpt><trkpt lat="44.196530643551306" lon="8.272829248069868"><ele>361.6</ele><time>2026-04-05T12:26:20.999Z</time></trkpt><trkpt lat="44.19648691983283" lon="8.272704935835128"><ele>357.20000000000005</ele><time>2026-04-05T12:26:21.999Z</time></trkpt><trkpt lat="44.19647203055361" lon="8.272550776464637"><ele>352.79999999999995</ele><time>2026-04-05T12:26:22.999Z</time></trkpt><trkpt lat="44.19647598192265" lon="8.272379225314639"><ele>348.4</ele><time>2026-04-05T12:26:23.999Z</time></trkpt><trkpt lat="44.19647625321802" lon="8.272222470300077"><ele>344.0</ele><time>2026-04-05T12:26:24.999Z</time></trkpt><trkpt lat="44.19646015371357" lon="8.272082187822475"><ele>344.0</ele><time>2026-04-05T12:26:25.999Z</time></trkpt><trkpt lat="44.19646023147948" lon="8.271947350810867"><ele>344.0</ele><time>2026-04-05T12:26:26.999Z</time></trkpt><trkpt lat="44.19647730406374" lon="8.27179977814843"><ele>344.0</ele><time>2026-04-05T12:26:27.999Z</time></trkpt><trkpt lat="44.19652903140571" lon="8.271656790512742"><ele>344.0</ele><time>2026-04-05T12:26:28.999Z</time></trkpt><trkpt lat="44.196584655127246" lon="8.271529524848507"><ele>344.0</ele><time>2026-04-05T12:26:29.999Z</time></trkpt><trkpt lat="44.196655734657995" lon="8.271426558080234"><ele>350.0</ele><time>2026-04-05T12:26:30.999Z</time></trkpt><trkpt lat="44.196751314308244" lon="8.271324730509175"><ele>356.0</ele><time>2026-04-05T12:26:31.998Z</time></trkpt><trkpt lat="44.19686686617371" lon="8.271224864428108"><ele>362.0</ele><time>2026-04-05T12:26:32.998Z</time></trkpt><trkpt lat="44.196976595330625" lon="8.271114099703912"><ele>368.0</ele><time>2026-04-05T12:26:33.998Z</time></trkpt><trkpt lat="44.19707599814309" lon="8.270993615068715"><ele>368.0</ele><time>2026-04-05T12:26:34.998Z</time></trkpt><trkpt lat="44.197154700627465" lon="8.270856669277789"><ele>368.0</ele><time>2026-04-05T12:26:35.998Z</time></trkpt><trkpt lat="44.19721551995372" lon="8.27070772833742"><ele>368.0</ele><time>2026-04-05T12:26:36.998Z</time></trkpt><trkpt lat="44.19726786789638" lon="8.27056053036509"><ele>368.0</ele><time>2026-04-05T12:26:37.998Z</time></trkpt><trkpt lat="44.19731142568865" lon="8.270434103067364"><ele>368.79999999999995</ele><time>2026-04-05T12:26:38.998Z</time></trkpt><trkpt lat="44.19734844219879" lon="8.270315699640797"><ele>369.6</ele><time>2026-04-05T12:26:39.998Z</time></trkpt><trkpt lat="44.19736664160331" lon="8.270193656142443"><ele>370.4</ele><time>2026-04-05T12:26:40.998Z</time></trkpt><trkpt lat="44.19736691535325" lon="8.270057036046783"><ele>371.20000000000005</ele><time>2026-04-05T12:26:41.998Z</time></trkpt><trkpt lat="44.19730420420361" lon="8.269953546455088"><ele>372.0</ele><time>2026-04-05T12:26:42.998Z</time></trkpt><trkpt lat="44.19723283210578" lon="8.269843825734199"><ele>371.8</ele><time>2026-04-05T12:26:43.998Z</time></trkpt><trkpt lat="44.197161691808766" lon="8.269717334310124"><ele>371.6</ele><time>2026-04-05T12:26:44.998Z</time></trkpt><trkpt lat="44.19710685403363" lon="8.26960555253751"><ele>371.40000000000003</ele><time>2026-04-05T12:26:45.998Z</time></trkpt><trkpt lat="44.19705507787011" lon="8.269522245798067"><ele>371.20000000000005</ele><time>2026-04-05T12:26:46.998Z</time></trkpt><trkpt lat="44.197005591693376" lon="8.269426931126521"><ele>371.0</ele><time>2026-04-05T12:26:47.998Z</time></trkpt><trkpt lat="44.19698576339525" lon="8.269309213902694"><ele>371.0</ele><time>2026-04-05T12:26:48.998Z</time></trkpt><trkpt lat="44.196990995268" lon="8.269174739841695"><ele>371.0</ele><time>2026-04-05T12:26:49.998Z</time></trkpt><trkpt lat="44.197022181063794" lon="8.269040753486907"><ele>371.0</ele><time>2026-04-05T12:26:50.998Z</time></trkpt><trkpt lat="44.197074921260594" lon="8.268916767357718"><ele>371.0</ele><time>2026-04-05T12:26:51.998Z</time></trkpt><trkpt lat="44.19715201156858" lon="8.268800466229512"><ele>371.0</ele><time>2026-04-05T12:26:52.998Z</time></trkpt><trkpt lat="44.19724978975185" lon="8.268688248094316"><ele>377.25</ele><time>2026-04-05T12:26:53.998Z</time></trkpt><trkpt lat="44.19734405596352" lon="8.26855896724506"><ele>383.5</ele><time>2026-04-05T12:26:54.998Z</time></trkpt><trkpt lat="44.197435244886044" lon="8.26841919731528"><ele>389.75</ele><time>2026-04-05T12:26:55.998Z</time></trkpt><trkpt lat="44.19752462297308" lon="8.268277094432603"><ele>396.0</ele><time>2026-04-05T12:26:56.998Z</time></trkpt><trkpt lat="44.19761038537674" lon="8.268177698282695"><ele>394.0</ele><time>2026-04-05T12:26:57.998Z</time></trkpt><trkpt lat="44.19769331509578" lon="8.268037279134772"><ele>392.0</ele><time>2026-04-05T12:26:58.998Z</time></trkpt><trkpt lat="44.197760952653915" lon="8.267927630208174"><ele>390.0</ele><time>2026-04-05T12:27:00Z</time></trkpt><trkpt lat="44.19783452483796" lon="8.267848632305553"><ele>388.0</ele><time>2026-04-05T12:27:01Z</time></trkpt><trkpt lat="44.19792140207029" lon="8.267802655223022"><ele>386.0</ele><time>2026-04-05T12:27:02Z</time></trkpt><trkpt lat="44.19802770232386" lon="8.267796266344899"><ele>385.99999999999994</ele><time>2026-04-05T12:27:03Z</time></trkpt><trkpt lat="44.19812953419689" lon="8.267826542239398"><ele>386.0</ele><time>2026-04-05T12:27:04Z</time></trkpt><trkpt lat="44.19820626115857" lon="8.267838670748283"><ele>386.0</ele><time>2026-04-05T12:27:05Z</time></trkpt><trkpt lat="44.198269625109646" lon="8.267812824441728"><ele>386.0</ele><time>2026-04-05T12:27:06Z</time></trkpt><trkpt lat="44.19831456189449" lon="8.267738553756015"><ele>385.99999999999994</ele><time>2026-04-05T12:27:07Z</time></trkpt><trkpt lat="44.19831968398467" lon="8.267607070044601"><ele>386.0</ele><time>2026-04-05T12:27:08Z</time></trkpt><trkpt lat="44.198284580633086" lon="8.267463159867782"><ele>392.0</ele><time>2026-04-05T12:27:09Z</time></trkpt><trkpt lat="44.198241659308636" lon="8.26730254798504"><ele>398.0</ele><time>2026-04-05T12:27:10Z</time></trkpt><trkpt lat="44.19823208608331" lon="8.267111265364942"><ele>404.0</ele><time>2026-04-05T12:27:11Z</time></trkpt><trkpt lat="44.19822515285584" lon="8.266916595512653"><ele>410.0</ele><time>2026-04-05T12:27:12Z</time></trkpt><trkpt lat="44.19817396673649" lon="8.26676774122357"><ele>409.0</ele><time>2026-04-05T12:27:13Z</time></trkpt><trkpt lat="44.198097544764856" lon="8.26658035053323"><ele>408.0</ele><time>2026-04-05T12:27:14Z</time></trkpt><trkpt lat="44.19801675694701" lon="8.26641021120895"><ele>407.0</ele><time>2026-04-05T12:27:15Z</time></trkpt><trkpt lat="44.197962454103376" lon="8.266240159930849"><ele>406.0</ele><time>2026-04-05T12:27:16Z</time></trkpt><trkpt lat="44.197902237318914" lon="8.266102639813537"><ele>406.0</ele><time>2026-04-05T12:27:17Z</time></trkpt><trkpt lat="44.197854706922584" lon="8.265985670604158"><ele>406.0</ele><time>2026-04-05T12:27:18Z</time></trkpt><trkpt lat="44.197810965368646" lon="8.265873477764892"><ele>406.0</ele><time>2026-04-05T12:27:19Z</time></trkpt><trkpt lat="44.19778477667059" lon="8.265749139452364"><ele>406.0</ele><time>2026-04-05T12:27:20Z</time></trkpt><trkpt lat="44.19782829574554" lon="8.26560844793036"><ele>406.0</ele><time>2026-04-05T12:27:21Z</time></trkpt><trkpt lat="44.197899600626094" lon="8.265489614517989"><ele>405.5</ele><time>2026-04-05T12:27:22Z</time></trkpt><trkpt lat="44.198010548327986" lon="8.265398939151652"><ele>405.0</ele><time>2026-04-05T12:27:23Z</time></trkpt><trkpt lat="44.198117000854644" lon="8.265299003018168"><ele>404.5</ele><time>2026-04-05T12:27:24Z</time></trkpt><trkpt lat="44.19819524479648" lon="8.265162503040345"><ele>404.0</ele><time>2026-04-05T12:27:25Z</time></trkpt><trkpt lat="44.19824282695142" lon="8.264989754944496"><ele>409.25</ele><time>2026-04-05T12:27:26Z</time></trkpt><trkpt lat="44.19826695567411" lon="8.264795876220713"><ele>414.5</ele><time>2026-04-05T12:27:27Z</time></trkpt><trkpt lat="44.19828013055934" lon="8.264596616662168"><ele>419.75</ele><time>2026-04-05T12:27:28Z</time></trkpt><trkpt lat="44.19829768845512" lon="8.26440147279554"><ele>425.0</ele><time>2026-04-05T12:27:29Z</time></trkpt><trkpt lat="44.198319320590976" lon="8.264227833942513"><ele>425.0</ele><time>2026-04-05T12:27:30Z</time></trkpt><trkpt lat="44.19834157853247" lon="8.264063734698565"><ele>425.0</ele><time>2026-04-05T12:27:31Z</time></trkpt><trkpt lat="44.198377767548386" lon="8.263905538998436"><ele>425.0</ele><time>2026-04-05T12:27:32Z</time></trkpt><trkpt lat="44.19844790979863" lon="8.263760037210659"><ele>425.0</ele><time>2026-04-05T12:27:33Z</time></trkpt><trkpt lat="44.198544980435656" lon="8.263647785849969"><ele>423.25</ele><time>2026-04-05T12:27:34Z</time></trkpt><trkpt lat="44.19865541288449" lon="8.263569119184616"><ele>421.5</ele><time>2026-04-05T12:27:35Z</time></trkpt><trkpt lat="44.19877420817469" lon="8.263534048150039"><ele>419.75</ele><time>2026-04-05T12:27:36Z</time></trkpt><trkpt lat="44.198899015891314" lon="8.263541949520798"><ele>418.0</ele><time>2026-04-05T12:27:37Z</time></trkpt><trkpt lat="44.198990477406916" lon="8.263589237866949"><ele>422.79999999999995</ele><time>2026-04-05T12:27:38Z</time></trkpt><trkpt lat="44.199085103007505" lon="8.263543512782316"><ele>427.6</ele><time>2026-04-05T12:27:39Z</time></trkpt><trkpt lat="44.19917366439537" lon="8.263467260030238"><ele>432.40000000000003</ele><time>2026-04-05T12:27:39.999Z</time></trkpt><trkpt lat="44.19923416831579" lon="8.263344558835806"><ele>437.20000000000005</ele><time>2026-04-05T12:27:40.999Z</time></trkpt><trkpt lat="44.19927006016579" lon="8.26320498617303"><ele>442.0</ele><time>2026-04-05T12:27:41.999Z</time></trkpt><trkpt lat="44.19928409795182" lon="8.263054218407529"><ele>443.5</ele><time>2026-04-05T12:27:42.999Z</time></trkpt><trkpt lat="44.19926135919417" lon="8.26291012996963"><ele>445.0</ele><time>2026-04-05T12:27:43.999Z</time></trkpt><trkpt lat="44.199201014749114" lon="8.262777582024563"><ele>446.5</ele><time>2026-04-05T12:27:44.999Z</time></trkpt><trkpt lat="44.19910169847072" lon="8.262664768645065"><ele>448.0</ele><time>2026-04-05T12:27:45.999Z</time></trkpt><trkpt lat="44.198989061271966" lon="8.262562096730687"><ele>443.79999999999995</ele><time>2026-04-05T12:27:46.999Z</time></trkpt><trkpt lat="44.19891088277069" lon="8.26243437881392"><ele>439.59999999999997</ele><time>2026-04-05T12:27:47.999Z</time></trkpt><trkpt lat="44.198853223214854" lon="8.2623207239076"><ele>435.40000000000003</ele><time>2026-04-05T12:27:48.999Z</time></trkpt><trkpt lat="44.19880695812543" lon="8.262193225220404"><ele>431.20000000000005</ele><time>2026-04-05T12:27:49.999Z</time></trkpt><trkpt lat="44.1988095635742" lon="8.26202886903257"><ele>427.0</ele><time>2026-04-05T12:27:50.999Z</time></trkpt><trkpt lat="44.198835803596054" lon="8.26186252585841"><ele>427.0</ele><time>2026-04-05T12:27:51.999Z</time></trkpt><trkpt lat="44.19888144889984" lon="8.261695123402957"><ele>427.0</ele><time>2026-04-05T12:27:52.999Z</time></trkpt><trkpt lat="44.1989345677024" lon="8.261521774443471"><ele>427.0</ele><time>2026-04-05T12:27:53.999Z</time></trkpt><trkpt lat="44.19897428673174" lon="8.261330167210494"><ele>427.0</ele><time>2026-04-05T12:27:54.999Z</time></trkpt><trkpt lat="44.19899619437251" lon="8.261136528156964"><ele>430.20000000000005</ele><time>2026-04-05T12:27:55.999Z</time></trkpt><trkpt lat="44.199005645893614" lon="8.260966544861065"><ele>433.40000000000003</ele><time>2026-04-05T12:27:56.999Z</time></trkpt><trkpt lat="44.199021655322944" lon="8.260813666925428"><ele>436.59999999999997</ele><time>2026-04-05T12:27:57.999Z</time></trkpt><trkpt lat="44.199058259517365" lon="8.260667707702801"><ele>439.79999999999995</ele><time>2026-04-05T12:27:58.999Z</time></trkpt><trkpt lat="44.199122785971674" lon="8.26055162058695"><ele>443.0</ele><time>2026-04-05T12:27:59.999Z</time></trkpt><trkpt lat="44.19920765005475" lon="8.260480393636161"><ele>443.0</ele><time>2026-04-05T12:28:00.999Z</time></trkpt><trkpt lat="44.1993073914374" lon="8.26044120195248"><ele>443.0</ele><time>2026-04-05T12:28:01.999Z</time></trkpt><trkpt lat="44.19942733710464" lon="8.26047134368277"><ele>443.0</ele><time>2026-04-05T12:28:02.999Z</time></trkpt><trkpt lat="44.199562739646915" lon="8.260500707622144"><ele>443.0</ele><time>2026-04-05T12:28:03.999Z</time></trkpt><trkpt lat="44.19969729575072" lon="8.260568670413935"><ele>446.25</ele><time>2026-04-05T12:28:04.999Z</time></trkpt><trkpt lat="44.19982307143922" lon="8.260663305897467"><ele>449.5</ele><time>2026-04-05T12:28:05.999Z</time></trkpt><trkpt lat="44.19992890478416" lon="8.260740784355148"><ele>452.75</ele><time>2026-04-05T12:28:06.999Z</time></trkpt><trkpt lat="44.20004937856155" lon="8.260776011963653"><ele>456.0</ele><time>2026-04-05T12:28:07.999Z</time></trkpt><trkpt lat="44.2001778031943" lon="8.260763684162315"><ele>458.0</ele><time>2026-04-05T12:28:08.999Z</time></trkpt><trkpt lat="44.200303101321815" lon="8.260700456699592"><ele>460.0</ele><time>2026-04-05T12:28:09.999Z</time></trkpt><trkpt lat="44.20042103102998" lon="8.260599738928306"><ele>462.0</ele><time>2026-04-05T12:28:10.999Z</time></trkpt><trkpt lat="44.20053079774912" lon="8.260522156976146"><ele>464.0</ele><time>2026-04-05T12:28:11.999Z</time></trkpt><trkpt lat="44.20060602148177" lon="8.260421293714332"><ele>464.0</ele><time>2026-04-05T12:28:12.999Z</time></trkpt><trkpt lat="44.2006475567478" lon="8.26030575584167"><ele>464.0</ele><time>2026-04-05T12:28:13.999Z</time></trkpt><trkpt lat="44.200666933971505" lon="8.260156063520924"><ele>464.0</ele><time>2026-04-05T12:28:14.999Z</time></trkpt><trkpt lat="44.200656281029325" lon="8.260036818864673"><ele>464.0</ele><time>2026-04-05T12:28:15.999Z</time></trkpt><trkpt lat="44.20061160967012" lon="8.259889064321483"><ele>464.0</ele><time>2026-04-05T12:28:16.999Z</time></trkpt><trkpt lat="44.20055434397473" lon="8.259753940639442"><ele>468.25</ele><time>2026-04-05T12:28:17.999Z</time></trkpt><trkpt lat="44.20044735064134" lon="8.259664663394675"><ele>472.5</ele><time>2026-04-05T12:28:18.999Z</time></trkpt><trkpt lat="44.200315776260695" lon="8.259657319881894"><ele>476.75</ele><time>2026-04-05T12:28:19.999Z</time></trkpt><trkpt lat="44.200203190094534" lon="8.259595222641922"><ele>481.0</ele><time>2026-04-05T12:28:20.999Z</time></trkpt><trkpt lat="44.20009181844488" lon="8.25954026349843"><ele>481.0</ele><time>2026-04-05T12:28:21.999Z</time></trkpt><trkpt lat="44.19998569569611" lon="8.259463761320863"><ele>481.0</ele><time>2026-04-05T12:28:22.999Z</time></trkpt><trkpt lat="44.199884349199564" lon="8.259365627813814"><ele>481.0</ele><time>2026-04-05T12:28:23.999Z</time></trkpt><trkpt lat="44.19980714002611" lon="8.259263820399863"><ele>481.0</ele><time>2026-04-05T12:28:24.999Z</time></trkpt><trkpt lat="44.199746703805296" lon="8.25914860445558"><ele>480.20000000000005</ele><time>2026-04-05T12:28:25.999Z</time></trkpt><trkpt lat="44.199709579167525" lon="8.25900529272677"><ele>479.40000000000003</ele><time>2026-04-05T12:28:26.999Z</time></trkpt><trkpt lat="44.19971692610607" lon="8.258847860224579"><ele>478.6</ele><time>2026-04-05T12:28:27.999Z</time></trkpt><trkpt lat="44.19975437445183" lon="8.258706459639495"><ele>477.8</ele><time>2026-04-05T12:28:28.999Z</time></trkpt><trkpt lat="44.19982849214965" lon="8.258584354389066"><ele>477.0</ele><time>2026-04-05T12:28:29.999Z</time></trkpt><trkpt lat="44.19993201997667" lon="8.258477191610849"><ele>477.0</ele><time>2026-04-05T12:28:30.999Z</time></trkpt><trkpt lat="44.200043872048255" lon="8.25839039638028"><ele>477.0</ele><time>2026-04-05T12:28:31.999Z</time></trkpt><trkpt lat="44.2001636893515" lon="8.258328803168501"><ele>477.0</ele><time>2026-04-05T12:28:32.998Z</time></trkpt><trkpt lat="44.200295136523565" lon="8.258306048357275"><ele>477.0</ele><time>2026-04-05T12:28:33.998Z</time></trkpt><trkpt lat="44.20043216182258" lon="8.258312923400059"><ele>477.0</ele><time>2026-04-05T12:28:34.998Z</time></trkpt><trkpt lat="44.20056906596395" lon="8.258344031908885"><ele>477.0</ele><time>2026-04-05T12:28:35.998Z</time></trkpt><trkpt lat="44.20069930995309" lon="8.258346336574462"><ele>477.0</ele><time>2026-04-05T12:28:36.998Z</time></trkpt><trkpt lat="44.20081827251442" lon="8.25829747362403"><ele>477.0</ele><time>2026-04-05T12:28:37.998Z</time></trkpt><trkpt lat="44.20092030890238" lon="8.258220334600574"><ele>479.25</ele><time>2026-04-05T12:28:38.998Z</time></trkpt><trkpt lat="44.20102061257014" lon="8.25813036212303"><ele>481.5</ele><time>2026-04-05T12:28:39.998Z</time></trkpt><trkpt lat="44.20109591579498" lon="8.2580027970542"><ele>483.75</ele><time>2026-04-05T12:28:40.998Z</time></trkpt><trkpt lat="44.20115116824574" lon="8.257848102738913"><ele>486.0</ele><time>2026-04-05T12:28:41.998Z</time></trkpt><trkpt lat="44.20118741555508" lon="8.257671197363944"><ele>486.0</ele><time>2026-04-05T12:28:42.998Z</time></trkpt><trkpt lat="44.20120851037689" lon="8.257483994697669"><ele>486.0</ele><time>2026-04-05T12:28:43.998Z</time></trkpt><trkpt lat="44.201199518810746" lon="8.257301020786956"><ele>486.0</ele><time>2026-04-05T12:28:44.998Z</time></trkpt><trkpt lat="44.20116917334501" lon="8.257131359451929"><ele>486.0</ele><time>2026-04-05T12:28:45.998Z</time></trkpt><trkpt lat="44.201124977155864" lon="8.256981001769683"><ele>486.75</ele><time>2026-04-05T12:28:46.998Z</time></trkpt><trkpt lat="44.20110046872631" lon="8.256829772636012"><ele>487.5</ele><time>2026-04-05T12:28:47.998Z</time></trkpt><trkpt lat="44.20113435311777" lon="8.256674067858201"><ele>488.25</ele><time>2026-04-05T12:28:48.998Z</time></trkpt><trkpt lat="44.201190768211724" lon="8.256526215468142"><ele>489.0</ele><time>2026-04-05T12:28:49.998Z</time></trkpt><trkpt lat="44.201269565584475" lon="8.256393645986597"><ele>489.0</ele><time>2026-04-05T12:28:50.998Z</time></trkpt><trkpt lat="44.201363743655506" lon="8.256279319997661"><ele>489.0</ele><time>2026-04-05T12:28:51.998Z</time></trkpt><trkpt lat="44.20146170082015" lon="8.256176138929861"><ele>489.0</ele><time>2026-04-05T12:28:52.998Z</time></trkpt><trkpt lat="44.201536938029975" lon="8.256050906295687"><ele>489.0</ele><time>2026-04-05T12:28:53.998Z</time></trkpt><trkpt lat="44.201582175472154" lon="8.255912063675623"><ele>495.25</ele><time>2026-04-05T12:28:54.998Z</time></trkpt><trkpt lat="44.2015859687064" lon="8.255749371405573"><ele>501.5</ele><time>2026-04-05T12:28:55.998Z</time></trkpt><trkpt lat="44.201580997397976" lon="8.255585390058439"><ele>507.75</ele><time>2026-04-05T12:28:56.998Z</time></trkpt><trkpt lat="44.20156269517974" lon="8.255411722345709"><ele>514.0</ele><time>2026-04-05T12:28:57.998Z</time></trkpt><trkpt lat="44.20156121020671" lon="8.255231703241925"><ele>514.0</ele><time>2026-04-05T12:28:58.998Z</time></trkpt><trkpt lat="44.201586642624406" lon="8.255063824620024"><ele>514.0</ele><time>2026-04-05T12:28:59.998Z</time></trkpt><trkpt lat="44.20164682740328" lon="8.254919951971903"><ele>514.0</ele><time>2026-04-05T12:29:00.998Z</time></trkpt><trkpt lat="44.201733343800846" lon="8.254805817583064"><ele>514.0</ele><time>2026-04-05T12:29:01.998Z</time></trkpt><trkpt lat="44.201845310619106" lon="8.254738215192182"><ele>514.0</ele><time>2026-04-05T12:29:02.998Z</time></trkpt><trkpt lat="44.20196585948687" lon="8.25469793121453"><ele>514.0</ele><time>2026-04-05T12:29:03.998Z</time></trkpt><trkpt lat="44.20207703496596" lon="8.254650461251106"><ele>514.0</ele><time>2026-04-05T12:29:04.998Z</time></trkpt><trkpt lat="44.202163715752455" lon="8.254572991004268"><ele>514.0</ele><time>2026-04-05T12:29:06Z</time></trkpt><trkpt lat="44.20221979052148" lon="8.254464669036976"><ele>514.0</ele><time>2026-04-05T12:29:07Z</time></trkpt><trkpt lat="44.20224523222282" lon="8.254322692009904"><ele>514.0</ele><time>2026-04-05T12:29:08Z</time></trkpt><trkpt lat="44.202237807994024" lon="8.254169827105867"><ele>514.0</ele><time>2026-04-05T12:29:09Z</time></trkpt><trkpt lat="44.20219253737043" lon="8.254036749795532"><ele>514.0</ele><time>2026-04-05T12:29:10Z</time></trkpt><trkpt lat="44.20212958035677" lon="8.253919844972954"><ele>514.0</ele><time>2026-04-05T12:29:11Z</time></trkpt><trkpt lat="44.20204216523504" lon="8.25381252422061"><ele>514.0</ele><time>2026-04-05T12:29:12Z</time></trkpt><trkpt lat="44.20195925607745" lon="8.253694804766726"><ele>515.75</ele><time>2026-04-05T12:29:13Z</time></trkpt><trkpt lat="44.20192340661706" lon="8.253553363172005"><ele>517.5</ele><time>2026-04-05T12:29:14Z</time></trkpt><trkpt lat="44.20192581465287" lon="8.253393049450809"><ele>519.25</ele><time>2026-04-05T12:29:15Z</time></trkpt><trkpt lat="44.20195249319339" lon="8.253211912506217"><ele>521.0</ele><time>2026-04-05T12:29:16Z</time></trkpt><trkpt lat="44.202008820140556" lon="8.25302578774933"><ele>521.0</ele><time>2026-04-05T12:29:17Z</time></trkpt><trkpt lat="44.202081495397" lon="8.252853551160012"><ele>521.0</ele><time>2026-04-05T12:29:18Z</time></trkpt><trkpt lat="44.20212692147847" lon="8.252673698947111"><ele>521.0</ele><time>2026-04-05T12:29:19Z</time></trkpt><trkpt lat="44.20212905311455" lon="8.252473676455194"><ele>521.0</ele><time>2026-04-05T12:29:20Z</time></trkpt><trkpt lat="44.202094382887395" lon="8.252279835929313"><ele>521.75</ele><time>2026-04-05T12:29:21Z</time></trkpt><trkpt lat="44.20204354333396" lon="8.252101514135859"><ele>522.5</ele><time>2026-04-05T12:29:22Z</time></trkpt><trkpt lat="44.20203947475501" lon="8.251942503780644"><ele>523.25</ele><time>2026-04-05T12:29:23Z</time></trkpt><trkpt lat="44.20207439558928" lon="8.251795837945645"><ele>524.0</ele><time>2026-04-05T12:29:24Z</time></trkpt><trkpt lat="44.20214129851665" lon="8.251640868770142"><ele>524.0</ele><time>2026-04-05T12:29:25Z</time></trkpt><trkpt lat="44.20223652409143" lon="8.251514680498826"><ele>524.0</ele><time>2026-04-05T12:29:26Z</time></trkpt><trkpt lat="44.202343643407914" lon="8.251439820213038"><ele>524.0</ele><time>2026-04-05T12:29:27Z</time></trkpt><trkpt lat="44.20246351778529" lon="8.251409057862748"><ele>524.0</ele><time>2026-04-05T12:29:28Z</time></trkpt><trkpt lat="44.20258721040562" lon="8.251389377268023"><ele>527.0</ele><time>2026-04-05T12:29:29Z</time></trkpt><trkpt lat="44.20268086950002" lon="8.251305712227712"><ele>530.0</ele><time>2026-04-05T12:29:30Z</time></trkpt><trkpt lat="44.20273919377635" lon="8.251177032451038"><ele>533.0</ele><time>2026-04-05T12:29:31Z</time></trkpt><trkpt lat="44.20277666098037" lon="8.251027957042803"><ele>536.0</ele><time>2026-04-05T12:29:32Z</time></trkpt><trkpt lat="44.202770619231764" lon="8.250883683657149"><ele>539.0</ele><time>2026-04-05T12:29:33Z</time></trkpt><trkpt lat="44.20272506375791" lon="8.2507502405607"><ele>538.4</ele><time>2026-04-05T12:29:34Z</time></trkpt><trkpt lat="44.202674763719884" lon="8.250624215492989"><ele>537.8</ele><time>2026-04-05T12:29:35Z</time></trkpt><trkpt lat="44.202663019083005" lon="8.250505132940285"><ele>537.2</ele><time>2026-04-05T12:29:36Z</time></trkpt><trkpt lat="44.202694685976745" lon="8.25038210091725"><ele>536.6</ele><time>2026-04-05T12:29:37Z</time></trkpt><trkpt lat="44.20276576162322" lon="8.250256296988747"><ele>536.0</ele><time>2026-04-05T12:29:38Z</time></trkpt><trkpt lat="44.202865093560156" lon="8.250129790394316"><ele>536.0</ele><time>2026-04-05T12:29:39Z</time></trkpt><trkpt lat="44.20296746506515" lon="8.249990225327608"><ele>536.0</ele><time>2026-04-05T12:29:40Z</time></trkpt><trkpt lat="44.2030773487" lon="8.24983632309277"><ele>536.0</ele><time>2026-04-05T12:29:41Z</time></trkpt><trkpt lat="44.20318710834651" lon="8.249671203029747"><ele>540.75</ele><time>2026-04-05T12:29:42Z</time></trkpt><trkpt lat="44.203282452490484" lon="8.24950105782277"><ele>545.5</ele><time>2026-04-05T12:29:43Z</time></trkpt><trkpt lat="44.20335876909263" lon="8.249344460157186"><ele>550.25</ele><time>2026-04-05T12:29:44Z</time></trkpt><trkpt lat="44.203422776022116" lon="8.249198768093052"><ele>555.0</ele><time>2026-04-05T12:29:45Z</time></trkpt><trkpt lat="44.20348235533361" lon="8.249050280181553"><ele>553.0</ele><time>2026-04-05T12:29:46Z</time></trkpt><trkpt lat="44.20353062532643" lon="8.248899038267107"><ele>551.0</ele><time>2026-04-05T12:29:46.999Z</time></trkpt><trkpt lat="44.20355712626231" lon="8.248750176229318"><ele>549.0</ele><time>2026-04-05T12:29:47.999Z</time></trkpt><trkpt lat="44.203572003205345" lon="8.24861359532504"><ele>547.0</ele><time>2026-04-05T12:29:48.999Z</time></trkpt><trkpt lat="44.20362238751774" lon="8.24849118919536"><ele>545.0</ele><time>2026-04-05T12:29:49.999Z</time></trkpt><trkpt lat="44.20366927960405" lon="8.248346586078547"><ele>545.0</ele><time>2026-04-05T12:29:50.999Z</time></trkpt><trkpt lat="44.2037507315831" lon="8.248216490298502"><ele>545.0</ele><time>2026-04-05T12:29:51.999Z</time></trkpt><trkpt lat="44.203841303712" lon="8.248107660873071"><ele>545.0</ele><time>2026-04-05T12:29:52.999Z</time></trkpt><trkpt lat="44.203935873747405" lon="8.248035036864243"><ele>545.0</ele><time>2026-04-05T12:29:53.999Z</time></trkpt><trkpt lat="44.20403526144801" lon="8.247997716800862"><ele>548.5</ele><time>2026-04-05T12:29:54.999Z</time></trkpt><trkpt lat="44.20414813085191" lon="8.247998442728836"><ele>552.0</ele><time>2026-04-05T12:29:55.999Z</time></trkpt><trkpt lat="44.2042581755377" lon="8.248051066899537"><ele>555.5</ele><time>2026-04-05T12:29:56.999Z</time></trkpt><trkpt lat="44.204351302343845" lon="8.248120422282637"><ele>559.0</ele><time>2026-04-05T12:29:57.999Z</time></trkpt><trkpt lat="44.2044368969544" lon="8.248242186938644"><ele>560.2</ele><time>2026-04-05T12:29:58.999Z</time></trkpt><trkpt lat="44.20449914266133" lon="8.248321515085895"><ele>561.4</ele><time>2026-04-05T12:29:59.999Z</time></trkpt><trkpt lat="44.2045708106894" lon="8.24838615016653"><ele>562.6</ele><time>2026-04-05T12:30:00.999Z</time></trkpt><trkpt lat="44.204647375280395" lon="8.248404856419013"><ele>563.8</ele><time>2026-04-05T12:30:01.999Z</time></trkpt><trkpt lat="44.20472802281167" lon="8.24834859969217"><ele>565.0</ele><time>2026-04-05T12:30:02.999Z</time></trkpt><trkpt lat="44.20479660459659" lon="8.248181837446468"><ele>563.5</ele><time>2026-04-05T12:30:03.999Z</time></trkpt><trkpt lat="44.20481325830464" lon="8.248036254929502"><ele>562.0</ele><time>2026-04-05T12:30:04.999Z</time></trkpt><trkpt lat="44.204803701743025" lon="8.247881048741398"><ele>560.5</ele><time>2026-04-05T12:30:05.999Z</time></trkpt><trkpt lat="44.20475116279637" lon="8.247734282936733"><ele>559.0</ele><time>2026-04-05T12:30:06.999Z</time></trkpt><trkpt lat="44.20466569552868" lon="8.247596902138925"><ele>559.0</ele><time>2026-04-05T12:30:07.999Z</time></trkpt><trkpt lat="44.20457696167793" lon="8.247477034007995"><ele>559.0</ele><time>2026-04-05T12:30:08.999Z</time></trkpt><trkpt lat="44.20452966132018" lon="8.247354437641368"><ele>559.0</ele><time>2026-04-05T12:30:09.999Z</time></trkpt><trkpt lat="44.2045187441756" lon="8.247210677128592"><ele>559.0</ele><time>2026-04-05T12:30:10.999Z</time></trkpt><trkpt lat="44.20453703481493" lon="8.247062068315417"><ele>559.0</ele><time>2026-04-05T12:30:11.999Z</time></trkpt><trkpt lat="44.20459197399681" lon="8.246912979338044"><ele>558.2</ele><time>2026-04-05T12:30:12.999Z</time></trkpt><trkpt lat="44.204671491527634" lon="8.2467885693167"><ele>557.4</ele><time>2026-04-05T12:30:13.999Z</time></trkpt><trkpt lat="44.20476477417395" lon="8.246720203147978"><ele>556.6</ele><time>2026-04-05T12:30:14.999Z</time></trkpt><trkpt lat="44.204849473909825" lon="8.246665559641883"><ele>555.8</ele><time>2026-04-05T12:30:15.999Z</time></trkpt><trkpt lat="44.20494734428861" lon="8.246687827955363"><ele>555.0</ele><time>2026-04-05T12:30:16.999Z</time></trkpt><trkpt lat="44.205056831730936" lon="8.246747116515152"><ele>560.5</ele><time>2026-04-05T12:30:17.999Z</time></trkpt><trkpt lat="44.20519412512144" lon="8.246786917352706"><ele>566.0</ele><time>2026-04-05T12:30:18.999Z</time></trkpt><trkpt lat="44.20533634246522" lon="8.246852059251944"><ele>571.5</ele><time>2026-04-05T12:30:19.999Z</time></trkpt><trkpt lat="44.205471009609006" lon="8.24690988282967"><ele>577.0</ele><time>2026-04-05T12:30:20.999Z</time></trkpt><trkpt lat="44.205615728066505" lon="8.246948673945093"><ele>578.5</ele><time>2026-04-05T12:30:21.999Z</time></trkpt><trkpt lat="44.205765947835566" lon="8.24689792940547"><ele>580.0</ele><time>2026-04-05T12:30:22.999Z</time></trkpt><trkpt lat="44.20589311813681" lon="8.24684531186592"><ele>581.5</ele><time>2026-04-05T12:30:23.999Z</time></trkpt><trkpt lat="44.20601716162093" lon="8.246780128861149"><ele>583.0</ele><time>2026-04-05T12:30:24.999Z</time></trkpt><trkpt lat="44.20612680173347" lon="8.246749103978217"><ele>583.0</ele><time>2026-04-05T12:30:25.999Z</time></trkpt><trkpt lat="44.20621826301767" lon="8.246731062506969"><ele>583.0</ele><time>2026-04-05T12:30:26.999Z</time></trkpt><trkpt lat="44.206303714424784" lon="8.2467349747787"><ele>583.0</ele><time>2026-04-05T12:30:27.999Z</time></trkpt><trkpt lat="44.20639537137451" lon="8.246694828319292"><ele>583.0</ele><time>2026-04-05T12:30:28.999Z</time></trkpt><trkpt lat="44.20646921738135" lon="8.246657759405501"><ele>583.0</ele><time>2026-04-05T12:30:29.999Z</time></trkpt><trkpt lat="44.206516906383214" lon="8.246499769313758"><ele>585.4</ele><time>2026-04-05T12:30:30.999Z</time></trkpt><trkpt lat="44.20654789316133" lon="8.246378702454452"><ele>587.8</ele><time>2026-04-05T12:30:31.999Z</time></trkpt><trkpt lat="44.20661676132727" lon="8.24628792930302"><ele>590.2</ele><time>2026-04-05T12:30:32.999Z</time></trkpt><trkpt lat="44.20672710541182" lon="8.246233489082213"><ele>592.6</ele><time>2026-04-05T12:30:33.999Z</time></trkpt><trkpt lat="44.206838685677624" lon="8.246181269746733"><ele>595.0</ele><time>2026-04-05T12:30:34.999Z</time></trkpt><trkpt lat="44.2069293035478" lon="8.24613307402687"><ele>595.0</ele><time>2026-04-05T12:30:35.999Z</time></trkpt><trkpt lat="44.2069892126015" lon="8.246064046863317"><ele>595.0</ele><time>2026-04-05T12:30:36.999Z</time></trkpt><trkpt lat="44.207003308136954" lon="8.245967415526003"><ele>595.0</ele><time>2026-04-05T12:30:37.999Z</time></trkpt><trkpt lat="44.20698148724825" lon="8.245842555988162"><ele>595.0</ele><time>2026-04-05T12:30:38.999Z</time></trkpt><trkpt lat="44.20692727773132" lon="8.245703025700301"><ele>595.0</ele><time>2026-04-05T12:30:39.998Z</time></trkpt><trkpt lat="44.2068542437206" lon="8.2455713427255"><ele>595.0</ele><time>2026-04-05T12:30:40.998Z</time></trkpt><trkpt lat="44.206786014698196" lon="8.245430720980034"><ele>595.0</ele><time>2026-04-05T12:30:41.998Z</time></trkpt><trkpt lat="44.20672148784186" lon="8.245304684296746"><ele>595.0</ele><time>2026-04-05T12:30:42.998Z</time></trkpt><trkpt lat="44.20669440102906" lon="8.245170995661805"><ele>595.0</ele><time>2026-04-05T12:30:43.998Z</time></trkpt><trkpt lat="44.206670319868124" lon="8.245060894831205"><ele>595.0</ele><time>2026-04-05T12:30:44.998Z</time></trkpt><trkpt lat="44.2066786649705" lon="8.244951673981792"><ele>595.0</ele><time>2026-04-05T12:30:45.998Z</time></trkpt><trkpt lat="44.20672969170573" lon="8.24485161324646"><ele>595.0</ele><time>2026-04-05T12:30:46.998Z</time></trkpt><trkpt lat="44.20680875696702" lon="8.244781257557639"><ele>595.0</ele><time>2026-04-05T12:30:47.998Z</time></trkpt><trkpt lat="44.206911237103405" lon="8.24472212935553"><ele>595.0</ele><time>2026-04-05T12:30:48.998Z</time></trkpt><trkpt lat="44.20699641724545" lon="8.244614234066235"><ele>595.0</ele><time>2026-04-05T12:30:49.998Z</time></trkpt><trkpt lat="44.207063431410525" lon="8.244460294096848"><ele>593.0</ele><time>2026-04-05T12:30:50.998Z</time></trkpt><trkpt lat="44.207124338941675" lon="8.244276840520834"><ele>591.0</ele><time>2026-04-05T12:30:51.998Z</time></trkpt><trkpt lat="44.20720157713037" lon="8.244096353093774"><ele>589.0</ele><time>2026-04-05T12:30:52.998Z</time></trkpt><trkpt lat="44.2072830490835" lon="8.243903998323987"><ele>597.0</ele><time>2026-04-05T12:30:53.998Z</time></trkpt><trkpt lat="44.20736244075809" lon="8.243709987153204"><ele>605.0</ele><time>2026-04-05T12:30:54.998Z</time></trkpt><trkpt lat="44.20744841730271" lon="8.243516439833286"><ele>613.0</ele><time>2026-04-05T12:30:55.998Z</time></trkpt><trkpt lat="44.207533024086736" lon="8.243317537012672"><ele>610.0</ele><time>2026-04-05T12:30:56.998Z</time></trkpt><trkpt lat="44.20761835761552" lon="8.243118866889757"><ele>607.0</ele><time>2026-04-05T12:30:57.998Z</time></trkpt><trkpt lat="44.20770474907228" lon="8.242929266867423"><ele>604.0</ele><time>2026-04-05T12:30:58.998Z</time></trkpt><trkpt lat="44.20778911237003" lon="8.24274124323629"><ele>604.0</ele><time>2026-04-05T12:30:59.998Z</time></trkpt><trkpt lat="44.207864879532906" lon="8.242567022698776"><ele>604.0</ele><time>2026-04-05T12:31:00.998Z</time></trkpt><trkpt lat="44.207929780417125" lon="8.242419099145241"><ele>604.0</ele><time>2026-04-05T12:31:01.998Z</time></trkpt><trkpt lat="44.207990582520765" lon="8.242270881557932"><ele>604.0</ele><time>2026-04-05T12:31:02.998Z</time></trkpt><trkpt lat="44.208055448570725" lon="8.242123040239637"><ele>601.25</ele><time>2026-04-05T12:31:03.998Z</time></trkpt><trkpt lat="44.208130286119456" lon="8.241979155300516"><ele>598.5</ele><time>2026-04-05T12:31:04.998Z</time></trkpt><trkpt lat="44.208210094364134" lon="8.241835879259288"><ele>595.75</ele><time>2026-04-05T12:31:05.998Z</time></trkpt><trkpt lat="44.20828867043466" lon="8.24168611153283"><ele>593.0</ele><time>2026-04-05T12:31:06.998Z</time></trkpt><trkpt lat="44.20836812342468" lon="8.241541646847274"><ele>599.4</ele><time>2026-04-05T12:31:07.998Z</time></trkpt><trkpt lat="44.20844355254632" lon="8.241406743660354"><ele>605.8</ele><time>2026-04-05T12:31:08.998Z</time></trkpt><trkpt lat="44.20851174039664" lon="8.241278300553324"><ele>612.2</ele><time>2026-04-05T12:31:09.998Z</time></trkpt><trkpt lat="44.20859750403222" lon="8.24119586385763"><ele>618.6</ele><time>2026-04-05T12:31:10.998Z</time></trkpt><trkpt lat="44.20864502578226" lon="8.241091788005427"><ele>625.0</ele><time>2026-04-05T12:31:12Z</time></trkpt><trkpt lat="44.208539906348946" lon="8.240899964951513"><ele>625.0</ele><time>2026-04-05T12:31:13Z</time></trkpt><trkpt lat="44.20846805582904" lon="8.240770697324066"><ele>625.0</ele><time>2026-04-05T12:31:14Z</time></trkpt><trkpt lat="44.20840085491804" lon="8.240654211285912"><ele>625.0</ele><time>2026-04-05T12:31:15Z</time></trkpt><trkpt lat="44.20837781128919" lon="8.240520837145606"><ele>625.0</ele><time>2026-04-05T12:31:16Z</time></trkpt><trkpt lat="44.208405872044686" lon="8.24037069553437"><ele>625.0</ele><time>2026-04-05T12:31:17Z</time></trkpt><trkpt lat="44.20845312207972" lon="8.240195728853992"><ele>625.0</ele><time>2026-04-05T12:31:18Z</time></trkpt><trkpt lat="44.208513590726014" lon="8.2400245273176"><ele>625.0</ele><time>2026-04-05T12:31:19Z</time></trkpt><trkpt lat="44.20856591471665" lon="8.2398204345668"><ele>625.0</ele><time>2026-04-05T12:31:20Z</time></trkpt><trkpt lat="44.20862092074943" lon="8.239604825508724"><ele>625.6666666666667</ele><time>2026-04-05T12:31:21Z</time></trkpt><trkpt lat="44.2086725523387" lon="8.239372619337011"><ele>626.3333333333334</ele><time>2026-04-05T12:31:22Z</time></trkpt><trkpt lat="44.20871362010262" lon="8.239127241439588"><ele>627.0</ele><time>2026-04-05T12:31:23Z</time></trkpt><trkpt lat="44.20874192618715" lon="8.238869999828403"><ele>627.0</ele><time>2026-04-05T12:31:24Z</time></trkpt><trkpt lat="44.20876416759918" lon="8.23860747317192"><ele>627.0</ele><time>2026-04-05T12:31:25Z</time></trkpt><trkpt lat="44.208779670530625" lon="8.238337094331246"><ele>627.0</ele><time>2026-04-05T12:31:26Z</time></trkpt><trkpt lat="44.208789047479684" lon="8.238091763173218"><ele>626.75</ele><time>2026-04-05T12:31:27Z</time></trkpt><trkpt lat="44.20878854458369" lon="8.237874122212997"><ele>626.5</ele><time>2026-04-05T12:31:28Z</time></trkpt><trkpt lat="44.20879002159973" lon="8.237671955355653"><ele>626.25</ele><time>2026-04-05T12:31:29Z</time></trkpt><trkpt lat="44.20878890289555" lon="8.237479595051761"><ele>626.0</ele><time>2026-04-05T12:31:30Z</time></trkpt><trkpt lat="44.20880475824967" lon="8.237310747831986"><ele>625.25</ele><time>2026-04-05T12:31:31Z</time></trkpt><trkpt lat="44.20882315088544" lon="8.237156158568267"><ele>624.5</ele><time>2026-04-05T12:31:32Z</time></trkpt><trkpt lat="44.20884859231707" lon="8.236994127992231"><ele>623.75</ele><time>2026-04-05T12:31:33Z</time></trkpt><trkpt lat="44.20890277257176" lon="8.236827665712362"><ele>623.0</ele><time>2026-04-05T12:31:34Z</time></trkpt><trkpt lat="44.2089876531903" lon="8.236661160095464"><ele>632.3333333333333</ele><time>2026-04-05T12:31:35Z</time></trkpt><trkpt lat="44.20908733725135" lon="8.236480339671562"><ele>641.6666666666666</ele><time>2026-04-05T12:31:36Z</time></trkpt><trkpt lat="44.20918827167374" lon="8.236282307224954"><ele>651.0</ele><time>2026-04-05T12:31:37Z</time></trkpt><trkpt lat="44.209285700055325" lon="8.236076234201818"><ele>651.0</ele><time>2026-04-05T12:31:38Z</time></trkpt><trkpt lat="44.20937356453413" lon="8.235859200269523"><ele>651.0</ele><time>2026-04-05T12:31:39Z</time></trkpt><trkpt lat="44.20945662967018" lon="8.235661308951217"><ele>651.0</ele><time>2026-04-05T12:31:40Z</time></trkpt><trkpt lat="44.20952074430035" lon="8.235482084524092"><ele>650.25</ele><time>2026-04-05T12:31:41Z</time></trkpt><trkpt lat="44.20958073263741" lon="8.235302474648368"><ele>649.5</ele><time>2026-04-05T12:31:42Z</time></trkpt><trkpt lat="44.20962261728689" lon="8.235105863903815"><ele>648.75</ele><time>2026-04-05T12:31:43Z</time></trkpt><trkpt lat="44.20965024330004" lon="8.23489398370574"><ele>648.0</ele><time>2026-04-05T12:31:44Z</time></trkpt><trkpt lat="44.20967164804861" lon="8.234687324958871"><ele>648.25</ele><time>2026-04-05T12:31:45Z</time></trkpt><trkpt lat="44.209680629248886" lon="8.234471619676176"><ele>648.5</ele><time>2026-04-05T12:31:46Z</time></trkpt><trkpt lat="44.20967548906754" lon="8.234284201017312"><ele>648.75</ele><time>2026-04-05T12:31:47Z</time></trkpt><trkpt lat="44.20964588357555" lon="8.234091756100888"><ele>649.0</ele><time>2026-04-05T12:31:48Z</time></trkpt><trkpt lat="44.209621138762834" lon="8.233914901356293"><ele>649.0</ele><time>2026-04-05T12:31:49Z</time></trkpt><trkpt lat="44.20961649259186" lon="8.233730440210334"><ele>649.0</ele><time>2026-04-05T12:31:50Z</time></trkpt><trkpt lat="44.2096420778251" lon="8.233559487064255"><ele>649.0</ele><time>2026-04-05T12:31:51Z</time></trkpt><trkpt lat="44.20968120356012" lon="8.233414225290607"><ele>649.0</ele><time>2026-04-05T12:31:51.999Z</time></trkpt><trkpt lat="44.20974460499023" lon="8.233302243021253"><ele>653.5</ele><time>2026-04-05T12:31:52.999Z</time></trkpt><trkpt lat="44.20983176321632" lon="8.233202287620399"><ele>658.0</ele><time>2026-04-05T12:31:53.999Z</time></trkpt><trkpt lat="44.20994152512515" lon="8.233112168741394"><ele>662.5</ele><time>2026-04-05T12:31:54.999Z</time></trkpt><trkpt lat="44.21007980839028" lon="8.23306372862955"><ele>667.0</ele><time>2026-04-05T12:31:55.999Z</time></trkpt><trkpt lat="44.210216113692645" lon="8.232986777823319"><ele>667.0</ele><time>2026-04-05T12:31:56.999Z</time></trkpt><trkpt lat="44.210340366029605" lon="8.232891232329237"><ele>667.0</ele><time>2026-04-05T12:31:57.999Z</time></trkpt><trkpt lat="44.210440946705106" lon="8.232793798338308"><ele>667.0</ele><time>2026-04-05T12:31:58.999Z</time></trkpt><trkpt lat="44.210524131627146" lon="8.232707071175625"><ele>667.0</ele><time>2026-04-05T12:31:59.999Z</time></trkpt><trkpt lat="44.21057745470751" lon="8.232603988353016"><ele>667.0</ele><time>2026-04-05T12:32:00.999Z</time></trkpt><trkpt lat="44.210601568117525" lon="8.232487478490924"><ele>667.0</ele><time>2026-04-05T12:32:01.999Z</time></trkpt><trkpt lat="44.21056634589762" lon="8.232375761311205"><ele>667.0</ele><time>2026-04-05T12:32:02.999Z</time></trkpt><trkpt lat="44.21048576117956" lon="8.232269577780384"><ele>667.0</ele><time>2026-04-05T12:32:03.999Z</time></trkpt><trkpt lat="44.210389219403666" lon="8.232180005285725"><ele>667.0</ele><time>2026-04-05T12:32:04.999Z</time></trkpt><trkpt lat="44.21031577598098" lon="8.232069162404002"><ele>667.6</ele><time>2026-04-05T12:32:05.999Z</time></trkpt><trkpt lat="44.210279521852534" lon="8.231941086722896"><ele>668.2</ele><time>2026-04-05T12:32:06.999Z</time></trkpt><trkpt lat="44.21030937841006" lon="8.231774511173537"><ele>668.8</ele><time>2026-04-05T12:32:07.999Z</time></trkpt><trkpt lat="44.21035913244943" lon="8.231664954127929"><ele>669.4</ele><time>2026-04-05T12:32:08.999Z</time></trkpt><trkpt lat="44.21045165128262" lon="8.231574570087753"><ele>670.0</ele><time>2026-04-05T12:32:09.999Z</time></trkpt><trkpt lat="44.21060163013972" lon="8.231509043910066"><ele>672.5</ele><time>2026-04-05T12:32:10.999Z</time></trkpt><trkpt lat="44.21071218668862" lon="8.231403937316484"><ele>675.0</ele><time>2026-04-05T12:32:11.999Z</time></trkpt><trkpt lat="44.21080881995736" lon="8.231269816751098"><ele>677.5</ele><time>2026-04-05T12:32:12.999Z</time></trkpt><trkpt lat="44.21089139330858" lon="8.231169329247576"><ele>680.0</ele><time>2026-04-05T12:32:13.999Z</time></trkpt><trkpt lat="44.21098801245872" lon="8.231104766092635"><ele>680.0</ele><time>2026-04-05T12:32:14.999Z</time></trkpt><trkpt lat="44.21110356459509" lon="8.231114166036058"><ele>680.0</ele><time>2026-04-05T12:32:15.999Z</time></trkpt><trkpt lat="44.21121938661507" lon="8.231159667056847"><ele>680.0</ele><time>2026-04-05T12:32:16.999Z</time></trkpt><trkpt lat="44.21135273576106" lon="8.231212952478995"><ele>680.0</ele><time>2026-04-05T12:32:17.999Z</time></trkpt><trkpt lat="44.211507260505726" lon="8.231288180514522"><ele>681.0</ele><time>2026-04-05T12:32:18.999Z</time></trkpt><trkpt lat="44.21166977488898" lon="8.231366325539305"><ele>682.0</ele><time>2026-04-05T12:32:19.999Z</time></trkpt><trkpt lat="44.21184492921317" lon="8.2314078233679"><ele>683.0</ele><time>2026-04-05T12:32:20.999Z</time></trkpt><trkpt lat="44.21200801989725" lon="8.23147029809224"><ele>689.5</ele><time>2026-04-05T12:32:21.999Z</time></trkpt><trkpt lat="44.212155286008716" lon="8.231499274061564"><ele>696.0</ele><time>2026-04-05T12:32:22.999Z</time></trkpt><trkpt lat="44.21227907013067" lon="8.231552557486474"><ele>702.5</ele><time>2026-04-05T12:32:23.999Z</time></trkpt><trkpt lat="44.2124018569995" lon="8.231624995284449"><ele>709.0</ele><time>2026-04-05T12:32:24.999Z</time></trkpt><trkpt lat="44.21252498964905" lon="8.231710249881147"><ele>709.0</ele><time>2026-04-05T12:32:25.999Z</time></trkpt><trkpt lat="44.212629921878296" lon="8.231802897681609"><ele>709.0</ele><time>2026-04-05T12:32:26.999Z</time></trkpt><trkpt lat="44.212721141777294" lon="8.231874951175115"><ele>709.0</ele><time>2026-04-05T12:32:27.999Z</time></trkpt><trkpt lat="44.21281615330115" lon="8.231881698765024"><ele>709.0</ele><time>2026-04-05T12:32:28.999Z</time></trkpt><trkpt lat="44.21292006511395" lon="8.231833366424453"><ele>709.0</ele><time>2026-04-05T12:32:29.999Z</time></trkpt><trkpt lat="44.21303196534435" lon="8.23173064729324"><ele>709.0</ele><time>2026-04-05T12:32:30.999Z</time></trkpt><trkpt lat="44.21314399560273" lon="8.231610508111899"><ele>709.0</ele><time>2026-04-05T12:32:31.999Z</time></trkpt><trkpt lat="44.213262935160586" lon="8.23150530788951"><ele>709.0</ele><time>2026-04-05T12:32:32.999Z</time></trkpt><trkpt lat="44.21337598742889" lon="8.231432186715649"><ele>709.0</ele><time>2026-04-05T12:32:33.999Z</time></trkpt><trkpt lat="44.21347551887875" lon="8.231347008537123"><ele>705.5</ele><time>2026-04-05T12:32:34.999Z</time></trkpt><trkpt lat="44.213561623691106" lon="8.231214065191333"><ele>702.0</ele><time>2026-04-05T12:32:35.999Z</time></trkpt><trkpt lat="44.21364650336314" lon="8.231071992384564"><ele>698.5</ele><time>2026-04-05T12:32:36.999Z</time></trkpt><trkpt lat="44.21373724788515" lon="8.230917162674798"><ele>695.0</ele><time>2026-04-05T12:32:37.999Z</time></trkpt><trkpt lat="44.21382160985465" lon="8.230790043154277"><ele>695.0</ele><time>2026-04-05T12:32:38.999Z</time></trkpt><trkpt lat="44.21390304176304" lon="8.230688945972606"><ele>695.0</ele><time>2026-04-05T12:32:39.999Z</time></trkpt><trkpt lat="44.21398352077182" lon="8.23063349901345"><ele>695.0</ele><time>2026-04-05T12:32:40.999Z</time></trkpt><trkpt lat="44.21407178667789" lon="8.230602227050458"><ele>695.0</ele><time>2026-04-05T12:32:41.999Z</time></trkpt><trkpt lat="44.2141779549929" lon="8.230610945819537"><ele>695.0</ele><time>2026-04-05T12:32:42.999Z</time></trkpt><trkpt lat="44.21428374367017" lon="8.230622050899553"><ele>697.75</ele><time>2026-04-05T12:32:43.999Z</time></trkpt><trkpt lat="44.214373896440996" lon="8.230575965269075"><ele>700.5</ele><time>2026-04-05T12:32:44.999Z</time></trkpt><trkpt lat="44.21443929883603" lon="8.23047488938918"><ele>703.25</ele><time>2026-04-05T12:32:45.998Z</time></trkpt><trkpt lat="44.21448643070847" lon="8.230313084628627"><ele>706.0</ele><time>2026-04-05T12:32:46.998Z</time></trkpt><trkpt lat="44.214536630265144" lon="8.23013799421953"><ele>706.0</ele><time>2026-04-05T12:32:47.998Z</time></trkpt><trkpt lat="44.214594007231916" lon="8.229940584117337"><ele>706.0</ele><time>2026-04-05T12:32:48.998Z</time></trkpt><trkpt lat="44.214660266199594" lon="8.22974222840297"><ele>706.0</ele><time>2026-04-05T12:32:49.998Z</time></trkpt><trkpt lat="44.214727479187225" lon="8.229545556660677"><ele>706.0</ele><time>2026-04-05T12:32:50.998Z</time></trkpt><trkpt lat="44.21480554474934" lon="8.229377635140368"><ele>706.0</ele><time>2026-04-05T12:32:51.998Z</time></trkpt><trkpt lat="44.21489227027367" lon="8.229223673448606"><ele>706.0</ele><time>2026-04-05T12:32:52.998Z</time></trkpt><trkpt lat="44.2150090125823" lon="8.229079080070314"><ele>706.0</ele><time>2026-04-05T12:32:53.998Z</time></trkpt><trkpt lat="44.21513694213158" lon="8.228965085571314"><ele>706.0</ele><time>2026-04-05T12:32:54.998Z</time></trkpt><trkpt lat="44.21529252325686" lon="8.228884449316078"><ele>706.0</ele><time>2026-04-05T12:32:55.998Z</time></trkpt><trkpt lat="44.215425485175025" lon="8.228743546767229"><ele>706.0</ele><time>2026-04-05T12:32:56.998Z</time></trkpt><trkpt lat="44.215551388007285" lon="8.228594699866852"><ele>717.6666666666667</ele><time>2026-04-05T12:32:57.998Z</time></trkpt><trkpt lat="44.21567006162221" lon="8.22844958305907"><ele>729.3333333333334</ele><time>2026-04-05T12:32:58.998Z</time></trkpt><trkpt lat="44.21579568718649" lon="8.228322648108762"><ele>741.0</ele><time>2026-04-05T12:32:59.998Z</time></trkpt><trkpt lat="44.21593534763988" lon="8.228225977966753"><ele>741.0</ele><time>2026-04-05T12:33:00.998Z</time></trkpt><trkpt lat="44.216077911847286" lon="8.228167097126969"><ele>741.0</ele><time>2026-04-05T12:33:01.998Z</time></trkpt><trkpt lat="44.21620310497071" lon="8.228103084826959"><ele>741.0</ele><time>2026-04-05T12:33:02.998Z</time></trkpt><trkpt lat="44.216310567774386" lon="8.227996763972712"><ele>741.0</ele><time>2026-04-05T12:33:03.998Z</time></trkpt><trkpt lat="44.21641054800639" lon="8.227842041766129"><ele>742.75</ele><time>2026-04-05T12:33:04.998Z</time></trkpt><trkpt lat="44.216509844584166" lon="8.227664846266359"><ele>744.5</ele><time>2026-04-05T12:33:05.998Z</time></trkpt><trkpt lat="44.2166138768713" lon="8.227496812253992"><ele>746.25</ele><time>2026-04-05T12:33:06.998Z</time></trkpt><trkpt lat="44.21670984926805" lon="8.227394122558083"><ele>748.0</ele><time>2026-04-05T12:33:07.998Z</time></trkpt><trkpt lat="44.21680080564756" lon="8.227244674309025"><ele>742.0</ele><time>2026-04-05T12:33:08.998Z</time></trkpt><trkpt lat="44.21687920178314" lon="8.227126765863463"><ele>736.0</ele><time>2026-04-05T12:33:09.998Z</time></trkpt><trkpt lat="44.2169630421646" lon="8.227054238235896"><ele>730.0</ele><time>2026-04-05T12:33:10.998Z</time></trkpt><trkpt lat="44.217061912177634" lon="8.227003607702"><ele>724.0</ele><time>2026-04-05T12:33:11.998Z</time></trkpt><trkpt lat="44.21717165598243" lon="8.22696693198878"><ele>718.0</ele><time>2026-04-05T12:33:12.998Z</time></trkpt><trkpt lat="44.217293385099445" lon="8.2269302448298"><ele>725.5</ele><time>2026-04-05T12:33:13.998Z</time></trkpt><trkpt lat="44.21743125414951" lon="8.226923131963062"><ele>733.0</ele><time>2026-04-05T12:33:14.998Z</time></trkpt><trkpt lat="44.21757498921454" lon="8.226915482821946"><ele>740.5</ele><time>2026-04-05T12:33:15.998Z</time></trkpt><trkpt lat="44.217712017534474" lon="8.226911997783368"><ele>748.0</ele><time>2026-04-05T12:33:16.998Z</time></trkpt><trkpt lat="44.21783265131903" lon="8.226913247489621"><ele>748.0</ele><time>2026-04-05T12:33:18Z</time></trkpt><trkpt lat="44.21792706998017" lon="8.226901351757958"><ele>748.0</ele><time>2026-04-05T12:33:19Z</time></trkpt><trkpt lat="44.21799892162976" lon="8.226824463863956"><ele>748.0</ele><time>2026-04-05T12:33:20Z</time></trkpt><trkpt lat="44.21805363349055" lon="8.226698805255847"><ele>748.0</ele><time>2026-04-05T12:33:21Z</time></trkpt><trkpt lat="44.21808018576848" lon="8.226556641825484"><ele>748.0</ele><time>2026-04-05T12:33:22Z</time></trkpt><trkpt lat="44.218086436287976" lon="8.226400992339535"><ele>751.5999999999999</ele><time>2026-04-05T12:33:23Z</time></trkpt><trkpt lat="44.21809635115414" lon="8.22624364615473"><ele>755.1999999999999</ele><time>2026-04-05T12:33:24Z</time></trkpt><trkpt lat="44.218109530033324" lon="8.22609463176512"><ele>758.8</ele><time>2026-04-05T12:33:25Z</time></trkpt><trkpt lat="44.21819126240085" lon="8.225999582306818"><ele>762.4</ele><time>2026-04-05T12:33:26Z</time></trkpt><trkpt lat="44.21827312251125" lon="8.225908926678171"><ele>766.0</ele><time>2026-04-05T12:33:27Z</time></trkpt><trkpt lat="44.21838805829312" lon="8.225843741546267"><ele>766.0</ele><time>2026-04-05T12:33:28Z</time></trkpt><trkpt lat="44.218505005151556" lon="8.225799967559645"><ele>766.0</ele><time>2026-04-05T12:33:29Z</time></trkpt><trkpt lat="44.21861492861285" lon="8.225733482095954"><ele>766.0</ele><time>2026-04-05T12:33:30Z</time></trkpt><trkpt lat="44.218693281426376" lon="8.225658162468141"><ele>766.0</ele><time>2026-04-05T12:33:31Z</time></trkpt><trkpt lat="44.21874140128075" lon="8.225567882932342"><ele>766.0</ele><time>2026-04-05T12:33:32Z</time></trkpt><trkpt lat="44.2187678804045" lon="8.225463173425497"><ele>761.1999999999999</ele><time>2026-04-05T12:33:33Z</time></trkpt><trkpt lat="44.21877363894588" lon="8.225342269764134"><ele>756.4</ele><time>2026-04-05T12:33:34Z</time></trkpt><trkpt lat="44.21876256812181" lon="8.225230733935078"><ele>751.6</ele><time>2026-04-05T12:33:35Z</time></trkpt><trkpt lat="44.21877461480647" lon="8.225044016849335"><ele>746.8</ele><time>2026-04-05T12:33:36Z</time></trkpt><trkpt lat="44.21881785516255" lon="8.224884415342235"><ele>742.0</ele><time>2026-04-05T12:33:37Z</time></trkpt><trkpt lat="44.21887578393185" lon="8.224748684863414"><ele>738.75</ele><time>2026-04-05T12:33:38Z</time></trkpt><trkpt lat="44.21893839862913" lon="8.224631272893308"><ele>735.5</ele><time>2026-04-05T12:33:39Z</time></trkpt><trkpt lat="44.21902315294566" lon="8.224525862234778"><ele>732.25</ele><time>2026-04-05T12:33:40Z</time></trkpt><trkpt lat="44.219129624670835" lon="8.224432843255933"><ele>729.0</ele><time>2026-04-05T12:33:41Z</time></trkpt><trkpt lat="44.219233617455416" lon="8.224319107085824"><ele>735.2</ele><time>2026-04-05T12:33:42Z</time></trkpt><trkpt lat="44.219315437661" lon="8.224163687362697"><ele>741.4000000000001</ele><time>2026-04-05T12:33:43Z</time></trkpt><trkpt lat="44.21936578083104" lon="8.224015038332604"><ele>747.6</ele><time>2026-04-05T12:33:44Z</time></trkpt><trkpt lat="44.21940895533025" lon="8.223892333523388"><ele>753.8</ele><time>2026-04-05T12:33:45Z</time></trkpt><trkpt lat="44.21948343767657" lon="8.223817399436134"><ele>760.0</ele><time>2026-04-05T12:33:46Z</time></trkpt><trkpt lat="44.21959288101209" lon="8.223783976203695"><ele>760.0</ele><time>2026-04-05T12:33:47Z</time></trkpt><trkpt lat="44.21970302315629" lon="8.223764716343183"><ele>760.0</ele><time>2026-04-05T12:33:48Z</time></trkpt><trkpt lat="44.219835229426664" lon="8.223764901750723"><ele>760.0</ele><time>2026-04-05T12:33:49Z</time></trkpt><trkpt lat="44.21996508146624" lon="8.223754115010632"><ele>760.0</ele><time>2026-04-05T12:33:50Z</time></trkpt><trkpt lat="44.22007802915791" lon="8.223743323307463"><ele>765.0</ele><time>2026-04-05T12:33:51Z</time></trkpt><trkpt lat="44.2201676923006" lon="8.223728470603259"><ele>770.0</ele><time>2026-04-05T12:33:52Z</time></trkpt><trkpt lat="44.22023085923589" lon="8.223689773768573"><ele>775.0</ele><time>2026-04-05T12:33:53Z</time></trkpt><trkpt lat="44.22027157085335" lon="8.223598011749841"><ele>780.0</ele><time>2026-04-05T12:33:54Z</time></trkpt><trkpt lat="44.220276859499364" lon="8.223448927194719"><ele>784.9999999999999</ele><time>2026-04-05T12:33:55Z</time></trkpt><trkpt lat="44.22023481228901" lon="8.223316594176644"><ele>790.0</ele><time>2026-04-05T12:33:56Z</time></trkpt><trkpt lat="44.22019719721365" lon="8.223165167671773"><ele>790.8</ele><time>2026-04-05T12:33:57Z</time></trkpt><trkpt lat="44.220197522601985" lon="8.223003101600067"><ele>791.6</ele><time>2026-04-05T12:33:58Z</time></trkpt><trkpt lat="44.220220617979" lon="8.22286488072488"><ele>792.4000000000001</ele><time>2026-04-05T12:33:58.999Z</time></trkpt><trkpt lat="44.220224088816856" lon="8.222754522299695"><ele>793.2</ele><time>2026-04-05T12:33:59.999Z</time></trkpt><trkpt lat="44.22017978509721" lon="8.222649550899625"><ele>794.0</ele><time>2026-04-05T12:34:00.999Z</time></trkpt><trkpt lat="44.22010333961802" lon="8.222567441089868"><ele>794.0</ele><time>2026-04-05T12:34:01.999Z</time></trkpt><trkpt lat="44.220022506266254" lon="8.222454618088745"><ele>794.0</ele><time>2026-04-05T12:34:02.999Z</time></trkpt><trkpt lat="44.22000054227367" lon="8.222336138044836"><ele>794.0</ele><time>2026-04-05T12:34:03.999Z</time></trkpt><trkpt lat="44.22002928542132" lon="8.222194732369212"><ele>794.0</ele><time>2026-04-05T12:34:04.999Z</time></trkpt><trkpt lat="44.220077394906696" lon="8.222039480744737"><ele>794.0</ele><time>2026-04-05T12:34:05.999Z</time></trkpt><trkpt lat="44.22014600427819" lon="8.221896687366762"><ele>794.0</ele><time>2026-04-05T12:34:06.999Z</time></trkpt><trkpt lat="44.220197816784385" lon="8.221741737733218"><ele>794.0</ele><time>2026-04-05T12:34:07.999Z</time></trkpt><trkpt lat="44.220249551632236" lon="8.22161454114524"><ele>794.0</ele><time>2026-04-05T12:34:08.999Z</time></trkpt><trkpt lat="44.22032609948033" lon="8.221499281605757"><ele>794.0</ele><time>2026-04-05T12:34:09.999Z</time></trkpt><trkpt lat="44.22042896167267" lon="8.2214091216363"><ele>796.5</ele><time>2026-04-05T12:34:10.999Z</time></trkpt><trkpt lat="44.22055006441302" lon="8.221344320214275"><ele>799.0</ele><time>2026-04-05T12:34:11.999Z</time></trkpt><trkpt lat="44.22068322103524" lon="8.221299689192474"><ele>801.5</ele><time>2026-04-05T12:34:12.999Z</time></trkpt><trkpt lat="44.220823938024864" lon="8.22124691178598"><ele>804.0</ele><time>2026-04-05T12:34:13.999Z</time></trkpt><trkpt lat="44.22094986917179" lon="8.221169568104285"><ele>804.0</ele><time>2026-04-05T12:34:14.999Z</time></trkpt><trkpt lat="44.22106123459082" lon="8.221052509737948"><ele>804.0</ele><time>2026-04-05T12:34:15.999Z</time></trkpt><trkpt lat="44.221165727872815" lon="8.220920399661042"><ele>804.0</ele><time>2026-04-05T12:34:16.999Z</time></trkpt><trkpt lat="44.22127198950621" lon="8.220785620129723"><ele>804.0</ele><time>2026-04-05T12:34:17.999Z</time></trkpt><trkpt lat="44.221384777308025" lon="8.220687844954165"><ele>801.75</ele><time>2026-04-05T12:34:18.999Z</time></trkpt><trkpt lat="44.22150489503498" lon="8.220630994361327"><ele>799.5</ele><time>2026-04-05T12:34:19.999Z</time></trkpt><trkpt lat="44.22162928429945" lon="8.220593518214628"><ele>797.25</ele><time>2026-04-05T12:34:20.999Z</time></trkpt><trkpt lat="44.221768466395" lon="8.22060300711604"><ele>795.0</ele><time>2026-04-05T12:34:21.999Z</time></trkpt><trkpt lat="44.221912430953815" lon="8.220583568244427"><ele>795.0</ele><time>2026-04-05T12:34:22.999Z</time></trkpt><trkpt lat="44.222063980937094" lon="8.220582272478854"><ele>795.0</ele><time>2026-04-05T12:34:23.999Z</time></trkpt><trkpt lat="44.22220950907464" lon="8.220565611969768"><ele>795.0</ele><time>2026-04-05T12:34:24.999Z</time></trkpt><trkpt lat="44.22238464020321" lon="8.220557159794124"><ele>798.5</ele><time>2026-04-05T12:34:25.999Z</time></trkpt><trkpt lat="44.22253995270355" lon="8.220542744302856"><ele>802.0</ele><time>2026-04-05T12:34:26.999Z</time></trkpt><trkpt lat="44.222676844591014" lon="8.220524268770035"><ele>805.5</ele><time>2026-04-05T12:34:27.999Z</time></trkpt><trkpt lat="44.22278479615806" lon="8.220437838644893"><ele>809.0</ele><time>2026-04-05T12:34:28.999Z</time></trkpt><trkpt lat="44.22290309923468" lon="8.220399663544017"><ele>809.0</ele><time>2026-04-05T12:34:29.999Z</time></trkpt><trkpt lat="44.223030594766776" lon="8.220445965297712"><ele>809.0</ele><time>2026-04-05T12:34:30.999Z</time></trkpt><trkpt lat="44.22315256338476" lon="8.220461540834274"><ele>809.0</ele><time>2026-04-05T12:34:31.999Z</time></trkpt><trkpt lat="44.22326095522179" lon="8.220455006938097"><ele>809.0</ele><time>2026-04-05T12:34:32.999Z</time></trkpt><trkpt lat="44.223362045731164" lon="8.220369091034819"><ele>814.0</ele><time>2026-04-05T12:34:33.999Z</time></trkpt><trkpt lat="44.22347115039506" lon="8.220245950809147"><ele>819.0</ele><time>2026-04-05T12:34:34.999Z</time></trkpt><trkpt lat="44.22357747040583" lon="8.220109326454603"><ele>824.0</ele><time>2026-04-05T12:34:35.999Z</time></trkpt><trkpt lat="44.223674231997066" lon="8.219974069268096"><ele>829.0</ele><time>2026-04-05T12:34:36.999Z</time></trkpt><trkpt lat="44.2237950620355" lon="8.219909955008706"><ele>829.0</ele><time>2026-04-05T12:34:37.999Z</time></trkpt><trkpt lat="44.22391203491723" lon="8.219841244733853"><ele>829.0</ele><time>2026-04-05T12:34:38.999Z</time></trkpt><trkpt lat="44.22401490923566" lon="8.219773690069625"><ele>829.0</ele><time>2026-04-05T12:34:39.999Z</time></trkpt><trkpt lat="44.22409625920221" lon="8.219647967623795"><ele>829.0</ele><time>2026-04-05T12:34:40.999Z</time></trkpt><trkpt lat="44.22417638823463" lon="8.219495497667907"><ele>833.75</ele><time>2026-04-05T12:34:41.999Z</time></trkpt><trkpt lat="44.22425359429329" lon="8.219347082200613"><ele>838.5</ele><time>2026-04-05T12:34:42.999Z</time></trkpt><trkpt lat="44.224311064488276" lon="8.219192579713999"><ele>843.25</ele><time>2026-04-05T12:34:43.999Z</time></trkpt><trkpt lat="44.22433720337682" lon="8.219009748838534"><ele>848.0</ele><time>2026-04-05T12:34:44.999Z</time></trkpt><trkpt lat="44.22434369030655" lon="8.21881018274265"><ele>850.4</ele><time>2026-04-05T12:34:45.999Z</time></trkpt><trkpt lat="44.22434851726832" lon="8.218652831568315"><ele>852.8</ele><time>2026-04-05T12:34:46.999Z</time></trkpt><trkpt lat="44.22431737524862" lon="8.218516979189495"><ele>855.2</ele><time>2026-04-05T12:34:47.999Z</time></trkpt><trkpt lat="44.22424017336844" lon="8.21840055634659"><ele>857.6</ele><time>2026-04-05T12:34:48.999Z</time></trkpt><trkpt lat="44.22415731768558" lon="8.218293145418938"><ele>860.0</ele><time>2026-04-05T12:34:49.999Z</time></trkpt><trkpt lat="44.22408484007468" lon="8.218177168648491"><ele>861.0</ele><time>2026-04-05T12:34:50.999Z</time></trkpt><trkpt lat="44.2240712286514" lon="8.217987365928028"><ele>862.0</ele><time>2026-04-05T12:34:51.999Z</time></trkpt><trkpt lat="44.22406649571686" lon="8.21779610931612"><ele>863.0</ele><time>2026-04-05T12:34:52.999Z</time></trkpt><trkpt lat="44.22405869971104" lon="8.217603037156932"><ele>864.0</ele><time>2026-04-05T12:34:53.998Z</time></trkpt><trkpt lat="44.22405698596219" lon="8.217418341368784"><ele>862.0</ele><time>2026-04-05T12:34:54.998Z</time></trkpt><trkpt lat="44.224079712275824" lon="8.217243160714705"><ele>860.0</ele><time>2026-04-05T12:34:55.998Z</time></trkpt><trkpt lat="44.22412206443354" lon="8.217074304960203"><ele>858.0</ele><time>2026-04-05T12:34:56.998Z</time></trkpt><trkpt lat="44.22418174467626" lon="8.216918380365126"><ele>856.0</ele><time>2026-04-05T12:34:57.998Z</time></trkpt><trkpt lat="44.22426022796822" lon="8.216766230205907"><ele>856.0</ele><time>2026-04-05T12:34:58.998Z</time></trkpt><trkpt lat="44.224359343446274" lon="8.21662140800053"><ele>856.0</ele><time>2026-04-05T12:34:59.998Z</time></trkpt><trkpt lat="44.224452125542356" lon="8.216474691656106"><ele>856.0</ele><time>2026-04-05T12:35:00.998Z</time></trkpt><trkpt lat="44.22451164738458" lon="8.216296834053953"><ele>856.0</ele><time>2026-04-05T12:35:01.998Z</time></trkpt><trkpt lat="44.22457820708844" lon="8.216109577125335"><ele>854.25</ele><time>2026-04-05T12:35:02.998Z</time></trkpt><trkpt lat="44.22467003138228" lon="8.215946643907317"><ele>852.5</ele><time>2026-04-05T12:35:03.998Z</time></trkpt><trkpt lat="44.22473549186605" lon="8.215771612461824"><ele>850.75</ele><time>2026-04-05T12:35:04.998Z</time></trkpt><trkpt lat="44.22476245832896" lon="8.215602937733088"><ele>849.0</ele><time>2026-04-05T12:35:05.998Z</time></trkpt><trkpt lat="44.224795104810795" lon="8.215464966015638"><ele>851.75</ele><time>2026-04-05T12:35:06.998Z</time></trkpt><trkpt lat="44.22486058238321" lon="8.21534996579082"><ele>854.5</ele><time>2026-04-05T12:35:07.998Z</time></trkpt><trkpt lat="44.22495440625739" lon="8.21526644007781"><ele>857.25</ele><time>2026-04-05T12:35:08.998Z</time></trkpt><trkpt lat="44.22506597197399" lon="8.215217584997792"><ele>860.0</ele><time>2026-04-05T12:35:09.998Z</time></trkpt><trkpt lat="44.225194387381826" lon="8.215202360436109"><ele>860.0</ele><time>2026-04-05T12:35:10.998Z</time></trkpt><trkpt lat="44.225323605031086" lon="8.215192018333886"><ele>860.0</ele><time>2026-04-05T12:35:11.998Z</time></trkpt><trkpt lat="44.22542965094045" lon="8.215172883099164"><ele>860.0</ele><time>2026-04-05T12:35:12.998Z</time></trkpt><trkpt lat="44.22552336488866" lon="8.215155035791309"><ele>860.0</ele><time>2026-04-05T12:35:13.998Z</time></trkpt><trkpt lat="44.22562880295053" lon="8.215170093804543"><ele>860.0</ele><time>2026-04-05T12:35:14.998Z</time></trkpt><trkpt lat="44.22571814933978" lon="8.215241259327772"><ele>860.75</ele><time>2026-04-05T12:35:15.998Z</time></trkpt><trkpt lat="44.2257757553888" lon="8.215362345615143"><ele>861.5</ele><time>2026-04-05T12:35:16.998Z</time></trkpt><trkpt lat="44.22582695517895" lon="8.215510733187976"><ele>862.25</ele><time>2026-04-05T12:35:17.998Z</time></trkpt><trkpt lat="44.22590098745805" lon="8.21565132926905"><ele>863.0</ele><time>2026-04-05T12:35:18.998Z</time></trkpt><trkpt lat="44.22599383484781" lon="8.215777032628962"><ele>870.0</ele><time>2026-04-05T12:35:19.998Z</time></trkpt><trkpt lat="44.226086181095035" lon="8.21587719660672"><ele>877.0</ele><time>2026-04-05T12:35:20.998Z</time></trkpt><trkpt lat="44.22621061442293" lon="8.21594198224214"><ele>884.0</ele><time>2026-04-05T12:35:21.998Z</time></trkpt><trkpt lat="44.226343056628394" lon="8.21596527976339"><ele>891.0</ele><time>2026-04-05T12:35:22.998Z</time></trkpt><trkpt lat="44.22648539660648" lon="8.215969085069688"><ele>891.0</ele><time>2026-04-05T12:35:24Z</time></trkpt><trkpt lat="44.22662149776562" lon="8.21596541856443"><ele>891.0</ele><time>2026-04-05T12:35:25Z</time></trkpt><trkpt lat="44.226750273631346" lon="8.215946578062987"><ele>891.0</ele><time>2026-04-05T12:35:26Z</time></trkpt><trkpt lat="44.226862560389904" lon="8.215914443925016"><ele>891.0</ele><time>2026-04-05T12:35:27Z</time></trkpt><trkpt lat="44.226984487518315" lon="8.215917033538567"><ele>891.0</ele><time>2026-04-05T12:35:28Z</time></trkpt><trkpt lat="44.22710511241075" lon="8.215978050110541"><ele>891.0</ele><time>2026-04-05T12:35:29Z</time></trkpt><trkpt lat="44.22719870740985" lon="8.216091598459574"><ele>891.0</ele><time>2026-04-05T12:35:30Z</time></trkpt><trkpt lat="44.22728132441641" lon="8.21621452674689"><ele>891.0</ele><time>2026-04-05T12:35:31Z</time></trkpt><trkpt lat="44.22735711544377" lon="8.216346782137668"><ele>890.1999999999999</ele><time>2026-04-05T12:35:32Z</time></trkpt><trkpt lat="44.227443109696544" lon="8.216420808150309"><ele>889.3999999999999</ele><time>2026-04-05T12:35:33Z</time></trkpt><trkpt lat="44.227510290404844" lon="8.216470630661028"><ele>888.6</ele><time>2026-04-05T12:35:34Z</time></trkpt><trkpt lat="44.22762194025263" lon="8.21644453364342"><ele>887.8</ele><time>2026-04-05T12:35:35Z</time></trkpt><trkpt lat="44.2277358146601" lon="8.216396560442359"><ele>887.0</ele><time>2026-04-05T12:35:36Z</time></trkpt><trkpt lat="44.22785109713974" lon="8.216335983860656"><ele>887.0</ele><time>2026-04-05T12:35:37Z</time></trkpt><trkpt lat="44.2279625261679" lon="8.216246214077835"><ele>887.0</ele><time>2026-04-05T12:35:38Z</time></trkpt><trkpt lat="44.228065692551134" lon="8.216109354592824"><ele>887.0</ele><time>2026-04-05T12:35:39Z</time></trkpt><trkpt lat="44.22816880710208" lon="8.215941595283972"><ele>887.0</ele><time>2026-04-05T12:35:40Z</time></trkpt><trkpt lat="44.22828182432619" lon="8.215787342841384"><ele>890.0</ele><time>2026-04-05T12:35:41Z</time></trkpt><trkpt lat="44.22838473902719" lon="8.215640061173428"><ele>893.0</ele><time>2026-04-05T12:35:42Z</time></trkpt><trkpt lat="44.22845534078071" lon="8.215483043599127"><ele>896.0</ele><time>2026-04-05T12:35:43Z</time></trkpt><trkpt lat="44.228508476914" lon="8.215300744464587"><ele>899.0</ele><time>2026-04-05T12:35:44Z</time></trkpt><trkpt lat="44.22854133601448" lon="8.215115539847133"><ele>899.0</ele><time>2026-04-05T12:35:45Z</time></trkpt><trkpt lat="44.22858492625615" lon="8.214939841688546"><ele>899.0000000000001</ele><time>2026-04-05T12:35:46Z</time></trkpt><trkpt lat="44.228638341873264" lon="8.2148015186237"><ele>899.0000000000001</ele><time>2026-04-05T12:35:47Z</time></trkpt><trkpt lat="44.228692944785394" lon="8.21468362158985"><ele>899.0</ele><time>2026-04-05T12:35:48Z</time></trkpt><trkpt lat="44.22874977394902" lon="8.214582876927345"><ele>899.0</ele><time>2026-04-05T12:35:49Z</time></trkpt><trkpt lat="44.228827642512705" lon="8.214504696574547"><ele>899.2</ele><time>2026-04-05T12:35:50Z</time></trkpt><trkpt lat="44.22892484400507" lon="8.21447018712863"><ele>899.4000000000001</ele><time>2026-04-05T12:35:51Z</time></trkpt><trkpt lat="44.22902750774633" lon="8.214487308834052"><ele>899.6</ele><time>2026-04-05T12:35:52Z</time></trkpt><trkpt lat="44.22911582682499" lon="8.214554695921718"><ele>899.8</ele><time>2026-04-05T12:35:53Z</time></trkpt><trkpt lat="44.22919364760444" lon="8.214654088647453"><ele>900.0</ele><time>2026-04-05T12:35:54Z</time></trkpt><trkpt lat="44.22928930927092" lon="8.214751357354666"><ele>905.2</ele><time>2026-04-05T12:35:55Z</time></trkpt><trkpt lat="44.22939186787308" lon="8.214824764126881"><ele>910.4</ele><time>2026-04-05T12:35:56Z</time></trkpt><trkpt lat="44.229495526183314" lon="8.214880694073738"><ele>915.5999999999999</ele><time>2026-04-05T12:35:57Z</time></trkpt><trkpt lat="44.22957923433854" lon="8.214939294694103"><ele>920.8</ele><time>2026-04-05T12:35:58Z</time></trkpt><trkpt lat="44.22965396636895" lon="8.214985174783694"><ele>926.0</ele><time>2026-04-05T12:35:58.999Z</time></trkpt><trkpt lat="44.229746319442334" lon="8.215036382860257"><ele>921.6666666666667</ele><time>2026-04-05T12:35:59.999Z</time></trkpt><trkpt lat="44.229921437516076" lon="8.214764312196014"><ele>917.3333333333333</ele><time>2026-04-05T12:36:00.999Z</time></trkpt><trkpt lat="44.23003980816389" lon="8.214656174145777"><ele>913.0</ele><time>2026-04-05T12:36:01.999Z</time></trkpt><trkpt lat="44.230163926816765" lon="8.214553120321016"><ele>913.0</ele><time>2026-04-05T12:36:02.999Z</time></trkpt><trkpt lat="44.230276583132195" lon="8.21444936202356"><ele>913.0</ele><time>2026-04-05T12:36:03.999Z</time></trkpt><trkpt lat="44.23036574523115" lon="8.214356174199194"><ele>913.0</ele><time>2026-04-05T12:36:04.999Z</time></trkpt><trkpt lat="44.230446244016214" lon="8.214282802958206"><ele>913.0</ele><time>2026-04-05T12:36:05.999Z</time></trkpt><trkpt lat="44.230531156383485" lon="8.214269619876472"><ele>913.0</ele><time>2026-04-05T12:36:06.999Z</time></trkpt><trkpt lat="44.23062333000532" lon="8.214300253818541"><ele>917.2</ele><time>2026-04-05T12:36:07.999Z</time></trkpt><trkpt lat="44.23071770923909" lon="8.214354785108075"><ele>921.4</ele><time>2026-04-05T12:36:08.999Z</time></trkpt><trkpt lat="44.230816655256" lon="8.21440286105366"><ele>925.6000000000001</ele><time>2026-04-05T12:36:09.999Z</time></trkpt><trkpt lat="44.23091974067231" lon="8.21440013802192"><ele>929.8000000000001</ele><time>2026-04-05T12:36:10.999Z</time></trkpt><trkpt lat="44.231030962559025" lon="8.214355009723928"><ele>934.0</ele><time>2026-04-05T12:36:11.999Z</time></trkpt><trkpt lat="44.231131518790285" lon="8.214289474518612"><ele>934.0</ele><time>2026-04-05T12:36:12.999Z</time></trkpt><trkpt lat="44.23121429746917" lon="8.214224854485412"><ele>934.0000000000001</ele><time>2026-04-05T12:36:13.999Z</time></trkpt><trkpt lat="44.23128472461832" lon="8.214184537799811"><ele>934.0000000000001</ele><time>2026-04-05T12:36:14.999Z</time></trkpt><trkpt lat="44.2313735854467" lon="8.214181673253398"><ele>934.0</ele><time>2026-04-05T12:36:16.999Z</time></trkpt><trkpt lat="44.23142739825518" lon="8.214265811553227"><ele>934.0</ele><time>2026-04-05T12:36:18.999Z</time></trkpt><trkpt lat="44.23152021301613" lon="8.214405248602104"><ele>935.4000000000001</ele><time>2026-04-05T12:36:20.999Z</time></trkpt><trkpt lat="44.231584026614556" lon="8.214489913643277"><ele>936.8000000000001</ele><time>2026-04-05T12:36:21.999Z</time></trkpt><trkpt lat="44.23165975098587" lon="8.214590381215263"><ele>938.1999999999999</ele><time>2026-04-05T12:36:22.999Z</time></trkpt><trkpt lat="44.231744941483335" lon="8.214703408308136"><ele>939.5999999999999</ele><time>2026-04-05T12:36:23.999Z</time></trkpt><trkpt lat="44.23183871271121" lon="8.21482781979423"><ele>941.0</ele><time>2026-04-05T12:36:24.999Z</time></trkpt><trkpt lat="44.231933701677086" lon="8.214953397757165"><ele>941.0</ele><time>2026-04-05T12:36:25.999Z</time></trkpt><trkpt lat="44.232026335036245" lon="8.215070287241112"><ele>941.0</ele><time>2026-04-05T12:36:26.999Z</time></trkpt><trkpt lat="44.23211841970561" lon="8.215184585275043"><ele>941.0</ele><time>2026-04-05T12:36:27.999Z</time></trkpt><trkpt lat="44.232216574340356" lon="8.21530238624006"><ele>941.0</ele><time>2026-04-05T12:36:28.999Z</time></trkpt><trkpt lat="44.23231651307499" lon="8.215410229655427"><ele>943.0</ele><time>2026-04-05T12:36:29.999Z</time></trkpt><trkpt lat="44.23242315637307" lon="8.215519510963253"><ele>945.0</ele><time>2026-04-05T12:36:30.999Z</time></trkpt><trkpt lat="44.23252464570903" lon="8.215629835687412"><ele>947.0</ele><time>2026-04-05T12:36:31.999Z</time></trkpt><trkpt lat="44.232606011979776" lon="8.215753969274612"><ele>949.0</ele><time>2026-04-05T12:36:32.999Z</time></trkpt><trkpt lat="44.23267559972065" lon="8.215860949097063"><ele>949.0</ele><time>2026-04-05T12:36:33.999Z</time></trkpt><trkpt lat="44.232739591526" lon="8.215988843473454"><ele>949.0</ele><time>2026-04-05T12:36:34.999Z</time></trkpt><trkpt lat="44.23282237124883" lon="8.21610883346025"><ele>949.0</ele><time>2026-04-05T12:36:35.999Z</time></trkpt><trkpt lat="44.23290641535698" lon="8.216230696368317"><ele>949.0</ele><time>2026-04-05T12:36:36.999Z</time></trkpt><trkpt lat="44.23299485321005" lon="8.216358929838007"><ele>950.75</ele><time>2026-04-05T12:36:37.999Z</time></trkpt><trkpt lat="44.233085042153604" lon="8.216489702442372"><ele>952.5</ele><time>2026-04-05T12:36:38.999Z</time></trkpt><trkpt lat="44.233170186906165" lon="8.216614720492188"><ele>954.25</ele><time>2026-04-05T12:36:39.999Z</time></trkpt><trkpt lat="44.233263007030914" lon="8.216750378343981"><ele>956.0</ele><time>2026-04-05T12:36:40.999Z</time></trkpt><trkpt lat="44.23335104157714" lon="8.21687488441"><ele>956.0</ele><time>2026-04-05T12:36:41.999Z</time></trkpt><trkpt lat="44.23343960275816" lon="8.216988917741336"><ele>956.0</ele><time>2026-04-05T12:36:42.999Z</time></trkpt><trkpt lat="44.23352802498092" lon="8.217100198425676"><ele>956.0</ele><time>2026-04-05T12:36:43.999Z</time></trkpt><trkpt lat="44.23363403865114" lon="8.217198747994061"><ele>956.0</ele><time>2026-04-05T12:36:44.999Z</time></trkpt><trkpt lat="44.23374943148905" lon="8.217283234701739"><ele>957.75</ele><time>2026-04-05T12:36:45.999Z</time></trkpt><trkpt lat="44.23387415949746" lon="8.217350378527547"><ele>959.5</ele><time>2026-04-05T12:36:46.999Z</time></trkpt><trkpt lat="44.23400530630404" lon="8.217433844252653"><ele>961.25</ele><time>2026-04-05T12:36:47.999Z</time></trkpt><trkpt lat="44.23414229379865" lon="8.217504913877114"><ele>963.0</ele><time>2026-04-05T12:36:48.999Z</time></trkpt><trkpt lat="44.23428103472018" lon="8.217582670528722"><ele>963.0</ele><time>2026-04-05T12:36:49.999Z</time></trkpt><trkpt lat="44.23442091848975" lon="8.217664882114043"><ele>963.0</ele><time>2026-04-05T12:36:50.999Z</time></trkpt><trkpt lat="44.234557774425795" lon="8.217760199162969"><ele>963.0</ele><time>2026-04-05T12:36:51.999Z</time></trkpt><trkpt lat="44.23470836139904" lon="8.217831056624068"><ele>968.3333333333333</ele><time>2026-04-05T12:36:52.999Z</time></trkpt><trkpt lat="44.234851248827525" lon="8.217915263235769"><ele>973.6666666666666</ele><time>2026-04-05T12:36:53.999Z</time></trkpt><trkpt lat="44.2349901087553" lon="8.218013642180049"><ele>979.0</ele><time>2026-04-05T12:36:54.998Z</time></trkpt><trkpt lat="44.23513544670282" lon="8.218108413038014"><ele>972.0</ele><time>2026-04-05T12:36:55.998Z</time></trkpt><trkpt lat="44.23527547298624" lon="8.21821635699877"><ele>965.0</ele><time>2026-04-05T12:36:56.998Z</time></trkpt><trkpt lat="44.23539482835038" lon="8.218368091469078"><ele>958.0</ele><time>2026-04-05T12:36:57.998Z</time></trkpt><trkpt lat="44.235520425470284" lon="8.218524866649725"><ele>958.0</ele><time>2026-04-05T12:36:58.998Z</time></trkpt><trkpt lat="44.23563545293038" lon="8.218672920272473"><ele>958.0</ele><time>2026-04-05T12:36:59.998Z</time></trkpt><trkpt lat="44.2357441141162" lon="8.218789756961831"><ele>958.0</ele><time>2026-04-05T12:37:00.998Z</time></trkpt><trkpt lat="44.2358350757913" lon="8.218905035400901"><ele>958.0</ele><time>2026-04-05T12:37:01.998Z</time></trkpt><trkpt lat="44.23592188922484" lon="8.218992139783717"><ele>959.0</ele><time>2026-04-05T12:37:02.998Z</time></trkpt><trkpt lat="44.23598970041059" lon="8.219076749484627"><ele>960.0</ele><time>2026-04-05T12:37:03.998Z</time></trkpt><trkpt lat="44.236077843725944" lon="8.219138049314264"><ele>961.0</ele><time>2026-04-05T12:37:04.998Z</time></trkpt><trkpt lat="44.23618357762871" lon="8.219210724358584"><ele>962.0</ele><time>2026-04-05T12:37:05.998Z</time></trkpt><trkpt lat="44.23629880375367" lon="8.219284789509585"><ele>963.0</ele><time>2026-04-05T12:37:06.998Z</time></trkpt><trkpt lat="44.236418971149966" lon="8.219368823139853"><ele>967.0</ele><time>2026-04-05T12:37:07.998Z</time></trkpt><trkpt lat="44.23654821261709" lon="8.219448451153276"><ele>971.0</ele><time>2026-04-05T12:37:08.998Z</time></trkpt><trkpt lat="44.236683152590516" lon="8.21953277711402"><ele>975.0</ele><time>2026-04-05T12:37:09.998Z</time></trkpt><trkpt lat="44.2368278593236" lon="8.219624013604502"><ele>979.0</ele><time>2026-04-05T12:37:10.998Z</time></trkpt><trkpt lat="44.23696176115014" lon="8.21971771127492"><ele>979.0</ele><time>2026-04-05T12:37:11.998Z</time></trkpt><trkpt lat="44.237096194227405" lon="8.219811669491586"><ele>979.0</ele><time>2026-04-05T12:37:12.998Z</time></trkpt><trkpt lat="44.23721528336122" lon="8.219911120116961"><ele>979.0</ele><time>2026-04-05T12:37:13.998Z</time></trkpt><trkpt lat="44.23733515346333" lon="8.21997293229501"><ele>979.0</ele><time>2026-04-05T12:37:14.998Z</time></trkpt><trkpt lat="44.237431308199284" lon="8.220046921544423"><ele>978.6</ele><time>2026-04-05T12:37:15.998Z</time></trkpt><trkpt lat="44.23752331695747" lon="8.220108902413775"><ele>978.2</ele><time>2026-04-05T12:37:16.998Z</time></trkpt><trkpt lat="44.23760164082949" lon="8.220164429033083"><ele>977.8000000000001</ele><time>2026-04-05T12:37:17.998Z</time></trkpt><trkpt lat="44.23768478514792" lon="8.220219684455218"><ele>977.4000000000001</ele><time>2026-04-05T12:37:18.998Z</time></trkpt><trkpt lat="44.23776033635411" lon="8.220278041151817"><ele>977.0</ele><time>2026-04-05T12:37:19.998Z</time></trkpt><trkpt lat="44.23785117976606" lon="8.22033906876632"><ele>977.0</ele><time>2026-04-05T12:37:20.998Z</time></trkpt><trkpt lat="44.23792744720786" lon="8.220384383267714"><ele>977.0</ele><time>2026-04-05T12:37:21.998Z</time></trkpt><trkpt lat="44.23799574370355" lon="8.220419344019081"><ele>977.0</ele><time>2026-04-05T12:37:22.998Z</time></trkpt><trkpt lat="44.23806178916219" lon="8.220443325939423"><ele>977.0</ele><time>2026-04-05T12:37:23.998Z</time></trkpt><trkpt lat="44.23815719443604" lon="8.22049301153257"><ele>977.0</ele><time>2026-04-05T12:37:25.998Z</time></trkpt><trkpt lat="44.23819248032194" lon="8.22030533071842"><ele>977.0</ele><time>2026-04-05T12:37:27.998Z</time></trkpt><trkpt lat="44.23818041509368" lon="8.220145043308914"><ele>977.0</ele><time>2026-04-05T12:37:30Z</time></trkpt><trkpt lat="44.238126762676195" lon="8.22005575343783"><ele>977.0</ele><time>2026-04-05T12:37:31Z</time></trkpt><trkpt lat="44.238058845663595" lon="8.219953376127185"><ele>977.0</ele><time>2026-04-05T12:37:32Z</time></trkpt><trkpt lat="44.23799605988286" lon="8.21983166031321"><ele>977.0</ele><time>2026-04-05T12:37:33Z</time></trkpt><trkpt lat="44.23793144877395" lon="8.219701113936248"><ele>978.5</ele><time>2026-04-05T12:37:34Z</time></trkpt><trkpt lat="44.23787997100969" lon="8.219559540145028"><ele>980.0</ele><time>2026-04-05T12:37:35Z</time></trkpt><trkpt lat="44.23784312696264" lon="8.219400870351427"><ele>981.5</ele><time>2026-04-05T12:37:36Z</time></trkpt><trkpt lat="44.23782265195794" lon="8.219230298404971"><ele>983.0</ele><time>2026-04-05T12:37:37Z</time></trkpt><trkpt lat="44.2378079588734" lon="8.219062114467826"><ele>984.5</ele><time>2026-04-05T12:37:38Z</time></trkpt><trkpt lat="44.23779617086721" lon="8.218885792307791"><ele>986.0</ele><time>2026-04-05T12:37:39Z</time></trkpt><trkpt lat="44.237775302604526" lon="8.218702222467586"><ele>987.5</ele><time>2026-04-05T12:37:40Z</time></trkpt><trkpt lat="44.23775360815529" lon="8.218515343838893"><ele>989.0</ele><time>2026-04-05T12:37:41Z</time></trkpt><trkpt lat="44.23774037794852" lon="8.218334791955908"><ele>990.0</ele><time>2026-04-05T12:37:42Z</time></trkpt><trkpt lat="44.23774709631075" lon="8.218149513327123"><ele>991.0</ele><time>2026-04-05T12:37:43Z</time></trkpt><trkpt lat="44.23777467441685" lon="8.217966240235953"><ele>992.0</ele><time>2026-04-05T12:37:44Z</time></trkpt><trkpt lat="44.2378308041172" lon="8.217800115617544"><ele>993.0</ele><time>2026-04-05T12:37:45Z</time></trkpt><trkpt lat="44.23790953718679" lon="8.217644235477481"><ele>993.0</ele><time>2026-04-05T12:37:46Z</time></trkpt><trkpt lat="44.238012274597665" lon="8.217510834935807"><ele>993.0</ele><time>2026-04-05T12:37:47Z</time></trkpt><trkpt lat="44.23811888279772" lon="8.217384750530218"><ele>993.0</ele><time>2026-04-05T12:37:48Z</time></trkpt><trkpt lat="44.2382179345785" lon="8.217246787386731"><ele>993.0</ele><time>2026-04-05T12:37:49Z</time></trkpt><trkpt lat="44.23829574983706" lon="8.21710649274874"><ele>994.0</ele><time>2026-04-05T12:37:50Z</time></trkpt><trkpt lat="44.23835188084294" lon="8.216953709451355"><ele>995.0</ele><time>2026-04-05T12:37:51Z</time></trkpt><trkpt lat="44.238380092820975" lon="8.216777219770469"><ele>996.0</ele><time>2026-04-05T12:37:52Z</time></trkpt><trkpt lat="44.23838140587842" lon="8.216599975445371"><ele>997.0</ele><time>2026-04-05T12:37:53Z</time></trkpt><trkpt lat="44.238382556462795" lon="8.21643981781924"><ele>997.0</ele><time>2026-04-05T12:37:54Z</time></trkpt><trkpt lat="44.23839994753395" lon="8.216295506061774"><ele>997.0</ele><time>2026-04-05T12:37:55Z</time></trkpt><trkpt lat="44.23844323168734" lon="8.216181147807085"><ele>997.0</ele><time>2026-04-05T12:37:56Z</time></trkpt><trkpt lat="44.238510500481155" lon="8.216102111103364"><ele>997.0</ele><time>2026-04-05T12:37:57Z</time></trkpt><trkpt lat="44.23860249178342" lon="8.216069608710567"><ele>997.0</ele><time>2026-04-05T12:37:58Z</time></trkpt><trkpt lat="44.23868703392456" lon="8.216089756094824"><ele>997.0</ele><time>2026-04-05T12:37:59Z</time></trkpt><trkpt lat="44.238758643804054" lon="8.216198952974551"><ele>997.0</ele><time>2026-04-05T12:38:00Z</time></trkpt><trkpt lat="44.23885242466291" lon="8.216218630142443"><ele>997.0</ele><time>2026-04-05T12:38:01Z</time></trkpt><trkpt lat="44.2389608746081" lon="8.21622344466397"><ele>997.0</ele><time>2026-04-05T12:38:02Z</time></trkpt><trkpt lat="44.23908265890265" lon="8.216171021958445"><ele>997.0</ele><time>2026-04-05T12:38:03Z</time></trkpt><trkpt lat="44.23921401291081" lon="8.21610249816264"><ele>997.0</ele><time>2026-04-05T12:38:04Z</time></trkpt><trkpt lat="44.23936012120444" lon="8.216056652574041"><ele>997.0</ele><time>2026-04-05T12:38:05Z</time></trkpt><trkpt lat="44.23951462606822" lon="8.216057761300753"><ele>997.0</ele><time>2026-04-05T12:38:06Z</time></trkpt><trkpt lat="44.23965787081859" lon="8.216067610951642"><ele>997.0</ele><time>2026-04-05T12:38:07Z</time></trkpt><trkpt lat="44.239791686441635" lon="8.21607327836526"><ele>998.6</ele><time>2026-04-05T12:38:08Z</time></trkpt><trkpt lat="44.239906855274036" lon="8.216069755622126"><ele>1000.2</ele><time>2026-04-05T12:38:09Z</time></trkpt><trkpt lat="44.24000203413462" lon="8.216032874359293"><ele>1001.8</ele><time>2026-04-05T12:38:10Z</time></trkpt><trkpt lat="44.24008491416502" lon="8.215949522108819"><ele>1003.4</ele><time>2026-04-05T12:38:10.999Z</time></trkpt><trkpt lat="44.24015400192884" lon="8.215819886187052"><ele>1005.0</ele><time>2026-04-05T12:38:11.999Z</time></trkpt><trkpt lat="44.24020721707877" lon="8.215652549548205"><ele>1005.0</ele><time>2026-04-05T12:38:12.999Z</time></trkpt><trkpt lat="44.240246445715" lon="8.215465378573919"><ele>1005.0</ele><time>2026-04-05T12:38:13.999Z</time></trkpt><trkpt lat="44.240301886614915" lon="8.215271272080283"><ele>1005.0</ele><time>2026-04-05T12:38:14.999Z</time></trkpt><trkpt lat="44.24036447535785" lon="8.21509035822499"><ele>1005.0</ele><time>2026-04-05T12:38:15.999Z</time></trkpt><trkpt lat="44.24044228300756" lon="8.214933143862629"><ele>1009.75</ele><time>2026-04-05T12:38:16.999Z</time></trkpt><trkpt lat="44.24051693635722" lon="8.214785298583081"><ele>1014.5</ele><time>2026-04-05T12:38:17.999Z</time></trkpt><trkpt lat="44.240603381111974" lon="8.214634804537498"><ele>1019.25</ele><time>2026-04-05T12:38:18.999Z</time></trkpt><trkpt lat="44.240692320047486" lon="8.214480751763938"><ele>1024.0</ele><time>2026-04-05T12:38:19.999Z</time></trkpt><trkpt lat="44.2407910138903" lon="8.214337607878262"><ele>1019.25</ele><time>2026-04-05T12:38:20.999Z</time></trkpt><trkpt lat="44.24090103114457" lon="8.214213369828549"><ele>1014.5</ele><time>2026-04-05T12:38:21.999Z</time></trkpt><trkpt lat="44.24101694640299" lon="8.214103160712684"><ele>1009.75</ele><time>2026-04-05T12:38:22.999Z</time></trkpt><trkpt lat="44.24112769646711" lon="8.213992369747062"><ele>1005.0</ele><time>2026-04-05T12:38:23.999Z</time></trkpt><trkpt lat="44.241233208382354" lon="8.213876687785852"><ele>1005.0</ele><time>2026-04-05T12:38:24.999Z</time></trkpt><trkpt lat="44.241324106012115" lon="8.213745616139017"><ele>1005.0</ele><time>2026-04-05T12:38:25.999Z</time></trkpt><trkpt lat="44.24140026865933" lon="8.213604499618286"><ele>1005.0</ele><time>2026-04-05T12:38:26.999Z</time></trkpt><trkpt lat="44.24146274116118" lon="8.213465445156988"><ele>1005.0</ele><time>2026-04-05T12:38:27.999Z</time></trkpt><trkpt lat="44.241522446248844" lon="8.21333547913986"><ele>1001.1666666666666</ele><time>2026-04-05T12:38:28.999Z</time></trkpt><trkpt lat="44.241589022080724" lon="8.213233605495674"><ele>997.3333333333333</ele><time>2026-04-05T12:38:29.999Z</time></trkpt><trkpt lat="44.24166812226243" lon="8.213175391192502"><ele>993.5</ele><time>2026-04-05T12:38:30.999Z</time></trkpt><trkpt lat="44.24175057744122" lon="8.213183902941788"><ele>989.6666666666666</ele><time>2026-04-05T12:38:31.999Z</time></trkpt><trkpt lat="44.241811886343065" lon="8.213248356006774"><ele>985.8333333333333</ele><time>2026-04-05T12:38:32.999Z</time></trkpt><trkpt lat="44.24185789968599" lon="8.213341821808875"><ele>982.0</ele><time>2026-04-05T12:38:33.999Z</time></trkpt><trkpt lat="44.24193843647445" lon="8.213444556815361"><ele>982.0</ele><time>2026-04-05T12:38:34.999Z</time></trkpt><trkpt lat="44.24202540726144" lon="8.213562974432998"><ele>982.0</ele><time>2026-04-05T12:38:35.999Z</time></trkpt><trkpt lat="44.24211519332234" lon="8.213690674196577"><ele>982.0</ele><time>2026-04-05T12:38:36.999Z</time></trkpt><trkpt lat="44.24221716270503" lon="8.213820274583316"><ele>982.0</ele><time>2026-04-05T12:38:37.999Z</time></trkpt><trkpt lat="44.242291939252105" lon="8.213992106135406"><ele>983.0</ele><time>2026-04-05T12:38:38.999Z</time></trkpt><trkpt lat="44.24234633298878" lon="8.214156423816398"><ele>984.0</ele><time>2026-04-05T12:38:39.999Z</time></trkpt><trkpt lat="44.242390471623395" lon="8.214343044283288"><ele>985.0</ele><time>2026-04-05T12:38:40.999Z</time></trkpt><trkpt lat="44.24244151802538" lon="8.214529905724918"><ele>986.0</ele><time>2026-04-05T12:38:41.999Z</time></trkpt><trkpt lat="44.24251711762434" lon="8.214682423903769"><ele>980.25</ele><time>2026-04-05T12:38:42.999Z</time></trkpt><trkpt lat="44.24259165317812" lon="8.214833698105952"><ele>974.5</ele><time>2026-04-05T12:38:43.999Z</time></trkpt><trkpt lat="44.2426471929087" lon="8.214986981987112"><ele>968.75</ele><time>2026-04-05T12:38:44.999Z</time></trkpt><trkpt lat="44.2427123683813" lon="8.215113808535964"><ele>963.0</ele><time>2026-04-05T12:38:45.999Z</time></trkpt><trkpt lat="44.24278700945963" lon="8.215218495190047"><ele>963.0</ele><time>2026-04-05T12:38:46.999Z</time></trkpt><trkpt lat="44.24286642081933" lon="8.215292838188132"><ele>963.0</ele><time>2026-04-05T12:38:47.999Z</time></trkpt><trkpt lat="44.24295150416627" lon="8.215311423879669"><ele>963.0</ele><time>2026-04-05T12:38:48.999Z</time></trkpt><trkpt lat="44.24305252193371" lon="8.215266981392631"><ele>963.0</ele><time>2026-04-05T12:38:49.999Z</time></trkpt><trkpt lat="44.243170847659236" lon="8.215157105922941"><ele>963.0</ele><time>2026-04-05T12:38:50.999Z</time></trkpt><trkpt lat="44.243289943046555" lon="8.215110321438663"><ele>965.75</ele><time>2026-04-05T12:38:51.999Z</time></trkpt><trkpt lat="44.243424949744096" lon="8.215074988029029"><ele>968.5</ele><time>2026-04-05T12:38:52.999Z</time></trkpt><trkpt lat="44.24356401642869" lon="8.215007276824915"><ele>971.25</ele><time>2026-04-05T12:38:53.999Z</time></trkpt><trkpt lat="44.24371332250564" lon="8.214947851319828"><ele>974.0</ele><time>2026-04-05T12:38:54.999Z</time></trkpt><trkpt lat="44.2438528642489" lon="8.214865676227687"><ele>977.0</ele><time>2026-04-05T12:38:55.999Z</time></trkpt><trkpt lat="44.243978990553934" lon="8.214798056630706"><ele>980.0</ele><time>2026-04-05T12:38:56.999Z</time></trkpt><trkpt lat="44.24410767052112" lon="8.214780415521837"><ele>983.0</ele><time>2026-04-05T12:38:57.999Z</time></trkpt><trkpt lat="44.244206796527195" lon="8.21471277718048"><ele>986.0</ele><time>2026-04-05T12:38:58.999Z</time></trkpt><trkpt lat="44.244293957957524" lon="8.21464253997099"><ele>986.0</ele><time>2026-04-05T12:38:59.999Z</time></trkpt><trkpt lat="44.24435507074141" lon="8.21453160596781"><ele>985.9999999999999</ele><time>2026-04-05T12:39:00.999Z</time></trkpt><trkpt lat="44.24440474580809" lon="8.21440225619606"><ele>985.9999999999999</ele><time>2026-04-05T12:39:01.999Z</time></trkpt><trkpt lat="44.24443771120847" lon="8.214259532796818"><ele>986.0</ele><time>2026-04-05T12:39:02.999Z</time></trkpt><trkpt lat="44.24448705892426" lon="8.214162967356982"><ele>986.0</ele><time>2026-04-05T12:39:03.999Z</time></trkpt><trkpt lat="44.244536341289006" lon="8.214071051569086"><ele>986.0</ele><time>2026-04-05T12:39:04.999Z</time></trkpt><trkpt lat="44.24460286127046" lon="8.214012090913782"><ele>985.9999999999999</ele><time>2026-04-05T12:39:05.999Z</time></trkpt><trkpt lat="44.244696410164295" lon="8.21403793189984"><ele>985.9999999999999</ele><time>2026-04-05T12:39:06.999Z</time></trkpt><trkpt lat="44.244780245943105" lon="8.214097978239382"><ele>986.0</ele><time>2026-04-05T12:39:07.999Z</time></trkpt><trkpt lat="44.24486665326599" lon="8.214179023139616"><ele>986.0</ele><time>2026-04-05T12:39:08.999Z</time></trkpt><trkpt lat="44.244971633279036" lon="8.214218690275775"><ele>982.5999999999999</ele><time>2026-04-05T12:39:09.998Z</time></trkpt><trkpt lat="44.24508228040167" lon="8.21423403494697"><ele>979.1999999999999</ele><time>2026-04-05T12:39:10.998Z</time></trkpt><trkpt lat="44.24518699569557" lon="8.21421563259791"><ele>975.8000000000001</ele><time>2026-04-05T12:39:11.998Z</time></trkpt><trkpt lat="44.24527577751422" lon="8.214169129728953"><ele>972.4000000000001</ele><time>2026-04-05T12:39:12.998Z</time></trkpt><trkpt lat="44.24534258780912" lon="8.214096769286485"><ele>969.0</ele><time>2026-04-05T12:39:13.998Z</time></trkpt><trkpt lat="44.2453945610707" lon="8.213984003730499"><ele>973.4000000000001</ele><time>2026-04-05T12:39:14.998Z</time></trkpt><trkpt lat="44.24543429256265" lon="8.213854626081488"><ele>977.8000000000001</ele><time>2026-04-05T12:39:15.998Z</time></trkpt><trkpt lat="44.245465536238015" lon="8.213720187517357"><ele>982.1999999999999</ele><time>2026-04-05T12:39:16.998Z</time></trkpt><trkpt lat="44.245512507913745" lon="8.213614205249614"><ele>986.5999999999999</ele><time>2026-04-05T12:39:17.998Z</time></trkpt><trkpt lat="44.24557980884278" lon="8.21352719488979"><ele>991.0</ele><time>2026-04-05T12:39:18.998Z</time></trkpt><trkpt lat="44.24566878291916" lon="8.213461904917914"><ele>991.0</ele><time>2026-04-05T12:39:19.998Z</time></trkpt><trkpt lat="44.245776011185534" lon="8.213423856451925"><ele>991.0</ele><time>2026-04-05T12:39:20.998Z</time></trkpt><trkpt lat="44.245894061853484" lon="8.213473798973968"><ele>991.0</ele><time>2026-04-05T12:39:21.998Z</time></trkpt><trkpt lat="44.246018073075625" lon="8.213489662747751"><ele>991.0</ele><time>2026-04-05T12:39:22.998Z</time></trkpt><trkpt lat="44.246139822773145" lon="8.213508404526895"><ele>991.0</ele><time>2026-04-05T12:39:23.998Z</time></trkpt><trkpt lat="44.246263664639734" lon="8.213519281674792"><ele>990.9999999999999</ele><time>2026-04-05T12:39:24.998Z</time></trkpt><trkpt lat="44.24637147149121" lon="8.213557924760634"><ele>990.9999999999999</ele><time>2026-04-05T12:39:25.998Z</time></trkpt><trkpt lat="44.246465128438665" lon="8.213598047507546"><ele>991.0</ele><time>2026-04-05T12:39:26.998Z</time></trkpt><trkpt lat="44.246549814920236" lon="8.21363130079701"><ele>991.0</ele><time>2026-04-05T12:39:27.998Z</time></trkpt><trkpt lat="44.2466243056547" lon="8.213605923356942"><ele>985.8</ele><time>2026-04-05T12:39:28.998Z</time></trkpt><trkpt lat="44.246678779166515" lon="8.21351386704306"><ele>980.5999999999999</ele><time>2026-04-05T12:39:29.998Z</time></trkpt><trkpt lat="44.24671394362138" lon="8.213384485480434"><ele>975.4</ele><time>2026-04-05T12:39:30.998Z</time></trkpt><trkpt lat="44.24671682252553" lon="8.213231862550233"><ele>970.2</ele><time>2026-04-05T12:39:31.998Z</time></trkpt><trkpt lat="44.246730372487335" lon="8.213087676931046"><ele>965.0</ele><time>2026-04-05T12:39:32.998Z</time></trkpt><trkpt lat="44.2467238067464" lon="8.212940974873112"><ele>963.75</ele><time>2026-04-05T12:39:33.998Z</time></trkpt><trkpt lat="44.24669542100519" lon="8.21280156187108"><ele>962.5</ele><time>2026-04-05T12:39:34.998Z</time></trkpt><trkpt lat="44.24663661213346" lon="8.21267679755885"><ele>961.25</ele><time>2026-04-05T12:39:36Z</time></trkpt><trkpt lat="44.24654703075227" lon="8.212561562967394"><ele>960.0</ele><time>2026-04-05T12:39:37Z</time></trkpt><trkpt lat="44.24645593075336" lon="8.212442283757273"><ele>969.5</ele><time>2026-04-05T12:39:38Z</time></trkpt><trkpt lat="44.246364190844496" lon="8.212328475498486"><ele>979.0</ele><time>2026-04-05T12:39:39Z</time></trkpt><trkpt lat="44.24627271191092" lon="8.212204426396163"><ele>988.5</ele><time>2026-04-05T12:39:40Z</time></trkpt><trkpt lat="44.24619709917057" lon="8.212088130959328"><ele>998.0</ele><time>2026-04-05T12:39:41Z</time></trkpt><trkpt lat="44.24612243509648" lon="8.211977202295177"><ele>998.0</ele><time>2026-04-05T12:39:42Z</time></trkpt><trkpt lat="44.246053935634514" lon="8.211850746178886"><ele>998.0</ele><time>2026-04-05T12:39:43Z</time></trkpt><trkpt lat="44.24599629755616" lon="8.211702482073735"><ele>998.0</ele><time>2026-04-05T12:39:44Z</time></trkpt><trkpt lat="44.245957692444414" lon="8.21152840596907"><ele>998.0</ele><time>2026-04-05T12:39:45Z</time></trkpt><trkpt lat="44.2459308047409" lon="8.211345546926571"><ele>996.25</ele><time>2026-04-05T12:39:46Z</time></trkpt><trkpt lat="44.24590893769459" lon="8.211157611815693"><ele>994.5</ele><time>2026-04-05T12:39:47Z</time></trkpt><trkpt lat="44.24588364022713" lon="8.210958275846913"><ele>992.75</ele><time>2026-04-05T12:39:48Z</time></trkpt><trkpt lat="44.245855784673715" lon="8.210769449202548"><ele>991.0</ele><time>2026-04-05T12:39:49Z</time></trkpt><trkpt lat="44.24582154296535" lon="8.210568829679286"><ele>991.0</ele><time>2026-04-05T12:39:50Z</time></trkpt><trkpt lat="44.24578147926644" lon="8.2103750061913"><ele>991.0</ele><time>2026-04-05T12:39:51Z</time></trkpt><trkpt lat="44.245757783171754" lon="8.2101964326927"><ele>991.0</ele><time>2026-04-05T12:39:52Z</time></trkpt><trkpt lat="44.24572246952586" lon="8.210037812386163"><ele>991.0</ele><time>2026-04-05T12:39:53Z</time></trkpt><trkpt lat="44.245701415810785" lon="8.209892817241942"><ele>996.1999999999999</ele><time>2026-04-05T12:39:54Z</time></trkpt><trkpt lat="44.24568986705687" lon="8.209759147535674"><ele>1001.3999999999999</ele><time>2026-04-05T12:39:55Z</time></trkpt><trkpt lat="44.24570073746048" lon="8.209648858121087"><ele>1006.6</ele><time>2026-04-05T12:39:56Z</time></trkpt><trkpt lat="44.24574153805562" lon="8.209531220134378"><ele>1011.8</ele><time>2026-04-05T12:39:57Z</time></trkpt><trkpt lat="44.24580585458815" lon="8.20944323614627"><ele>1017.0</ele><time>2026-04-05T12:39:58Z</time></trkpt><trkpt lat="44.24588466089186" lon="8.209380719052987"><ele>1017.0</ele><time>2026-04-05T12:39:59Z</time></trkpt><trkpt lat="44.24598394299912" lon="8.209392257973306"><ele>1017.0</ele><time>2026-04-05T12:40:00Z</time></trkpt><trkpt lat="44.24612376056011" lon="8.209365547632789"><ele>1017.0</ele><time>2026-04-05T12:40:01Z</time></trkpt><trkpt lat="44.24625563186654" lon="8.20935390100932"><ele>1017.0</ele><time>2026-04-05T12:40:02Z</time></trkpt><trkpt lat="44.24640038777755" lon="8.209357357772848"><ele>1014.6666666666667</ele><time>2026-04-05T12:40:03Z</time></trkpt><trkpt lat="44.24653962303388" lon="8.209343133959708"><ele>1012.3333333333334</ele><time>2026-04-05T12:40:04Z</time></trkpt><trkpt lat="44.24669016932122" lon="8.209358065284755"><ele>1010.0</ele><time>2026-04-05T12:40:05Z</time></trkpt><trkpt lat="44.246850329397105" lon="8.209362663064482"><ele>1010.0</ele><time>2026-04-05T12:40:06Z</time></trkpt><trkpt lat="44.24699857111307" lon="8.209368901609768"><ele>1010.0</ele><time>2026-04-05T12:40:07Z</time></trkpt><trkpt lat="44.247135187879124" lon="8.20935615733408"><ele>1010.0</ele><time>2026-04-05T12:40:08Z</time></trkpt><trkpt lat="44.247275682625265" lon="8.209343426865587"><ele>1010.0</ele><time>2026-04-05T12:40:09Z</time></trkpt><trkpt lat="44.247403849045874" lon="8.209302049699986"><ele>1009.6</ele><time>2026-04-05T12:40:10Z</time></trkpt><trkpt lat="44.247521139268834" lon="8.209250966409249"><ele>1009.2</ele><time>2026-04-05T12:40:11Z</time></trkpt><trkpt lat="44.247625686625234" lon="8.209191046333824"><ele>1008.8</ele><time>2026-04-05T12:40:12Z</time></trkpt><trkpt lat="44.24771777534091" lon="8.209127705310694"><ele>1008.4</ele><time>2026-04-05T12:40:13Z</time></trkpt><trkpt lat="44.24778761547265" lon="8.209050983141418"><ele>1008.0</ele><time>2026-04-05T12:40:14Z</time></trkpt><trkpt lat="44.24782450178629" lon="8.208962194012946"><ele>1008.0</ele><time>2026-04-05T12:40:15Z</time></trkpt><trkpt lat="44.24781134214849" lon="8.208859857642322"><ele>1008.0</ele><time>2026-04-05T12:40:16Z</time></trkpt><trkpt lat="44.247735067565856" lon="8.208781114036363"><ele>1008.0</ele><time>2026-04-05T12:40:17Z</time></trkpt><trkpt lat="44.247644629823185" lon="8.208736408922723"><ele>1008.0</ele><time>2026-04-05T12:40:18Z</time></trkpt><trkpt lat="44.24754246448737" lon="8.208705258376993"><ele>1008.0</ele><time>2026-04-05T12:40:19Z</time></trkpt><trkpt lat="44.24745325957779" lon="8.208630863496452"><ele>1008.0</ele><time>2026-04-05T12:40:20Z</time></trkpt><trkpt lat="44.24739887202254" lon="8.208523782630172"><ele>1008.0</ele><time>2026-04-05T12:40:21Z</time></trkpt><trkpt lat="44.24736324499337" lon="8.208395588429854"><ele>1008.0</ele><time>2026-04-05T12:40:22Z</time></trkpt><trkpt lat="44.24735674137109" lon="8.208237645026221"><ele>1008.0</ele><time>2026-04-05T12:40:23Z</time></trkpt><trkpt lat="44.247349048716295" lon="8.208096584626162"><ele>1008.0</ele><time>2026-04-05T12:40:23.999Z</time></trkpt><trkpt lat="44.24738283779331" lon="8.207965184964008"><ele>1013.2</ele><time>2026-04-05T12:40:24.999Z</time></trkpt><trkpt lat="44.247441531689866" lon="8.207855586903548"><ele>1018.4</ele><time>2026-04-05T12:40:25.999Z</time></trkpt><trkpt lat="44.247525307861544" lon="8.207780449274635"><ele>1023.6000000000001</ele><time>2026-04-05T12:40:26.999Z</time></trkpt><trkpt lat="44.24763461322106" lon="8.207788825678982"><ele>1028.8</ele><time>2026-04-05T12:40:27.999Z</time></trkpt><trkpt lat="44.24774163840162" lon="8.20773880369934"><ele>1034.0</ele><time>2026-04-05T12:40:28.999Z</time></trkpt><trkpt lat="44.24787112464741" lon="8.207725414475792"><ele>1034.0</ele><time>2026-04-05T12:40:29.999Z</time></trkpt><trkpt lat="44.24800370821166" lon="8.207669915689149"><ele>1034.0</ele><time>2026-04-05T12:40:30.999Z</time></trkpt><trkpt lat="44.248140176035356" lon="8.207607794903906"><ele>1034.0</ele><time>2026-04-05T12:40:31.999Z</time></trkpt><trkpt lat="44.24829470216623" lon="8.207599335177742"><ele>1034.0</ele><time>2026-04-05T12:40:32.999Z</time></trkpt><trkpt lat="44.2484440104398" lon="8.207598957911447"><ele>1030.4</ele><time>2026-04-05T12:40:33.999Z</time></trkpt><trkpt lat="44.2485656670721" lon="8.207619664642758"><ele>1026.8000000000002</ele><time>2026-04-05T12:40:34.999Z</time></trkpt><trkpt lat="44.24868005398482" lon="8.20762247776887"><ele>1023.1999999999999</ele><time>2026-04-05T12:40:35.999Z</time></trkpt><trkpt lat="44.24877961434755" lon="8.207585798224502"><ele>1019.5999999999999</ele><time>2026-04-05T12:40:36.999Z</time></trkpt><trkpt lat="44.24884698765655" lon="8.207531942276457"><ele>1016.0</ele><time>2026-04-05T12:40:37.999Z</time></trkpt><trkpt lat="44.24888877553566" lon="8.20743949347553"><ele>1022.75</ele><time>2026-04-05T12:40:38.999Z</time></trkpt><trkpt lat="44.24889579848609" lon="8.207301697032579"><ele>1029.5</ele><time>2026-04-05T12:40:39.999Z</time></trkpt><trkpt lat="44.24888847043144" lon="8.207143249781161"><ele>1036.25</ele><time>2026-04-05T12:40:40.999Z</time></trkpt><trkpt lat="44.24887657242282" lon="8.206958458003431"><ele>1043.0</ele><time>2026-04-05T12:40:41.999Z</time></trkpt><trkpt lat="44.24887838702174" lon="8.206772407331352"><ele>1043.0</ele><time>2026-04-05T12:40:42.999Z</time></trkpt><trkpt lat="44.24890022004821" lon="8.206597518198302"><ele>1043.0</ele><time>2026-04-05T12:40:43.999Z</time></trkpt><trkpt lat="44.24893414870669" lon="8.206441105267547"><ele>1043.0</ele><time>2026-04-05T12:40:44.999Z</time></trkpt><trkpt lat="44.248986619107235" lon="8.206309043766272"><ele>1043.0</ele><time>2026-04-05T12:40:45.999Z</time></trkpt><trkpt lat="44.249079850134635" lon="8.206192419569108"><ele>1038.0</ele><time>2026-04-05T12:40:46.999Z</time></trkpt><trkpt lat="44.249184915668195" lon="8.206084698992976"><ele>1033.0</ele><time>2026-04-05T12:40:47.999Z</time></trkpt><trkpt lat="44.24926466903576" lon="8.20598321306459"><ele>1028.0</ele><time>2026-04-05T12:40:48.999Z</time></trkpt><trkpt lat="44.24935645094249" lon="8.205850116414986"><ele>1023.0</ele><time>2026-04-05T12:40:49.999Z</time></trkpt><trkpt lat="44.249435322506564" lon="8.205743864661317"><ele>1026.25</ele><time>2026-04-05T12:40:50.999Z</time></trkpt><trkpt lat="44.24951932911664" lon="8.205646952586168"><ele>1029.5</ele><time>2026-04-05T12:40:51.999Z</time></trkpt><trkpt lat="44.24962131401531" lon="8.205583065018597"><ele>1032.75</ele><time>2026-04-05T12:40:52.999Z</time></trkpt><trkpt lat="44.24974895218635" lon="8.205597610491239"><ele>1036.0</ele><time>2026-04-05T12:40:53.999Z</time></trkpt><trkpt lat="44.2498606360931" lon="8.205609542049439"><ele>1036.0</ele><time>2026-04-05T12:40:54.999Z</time></trkpt><trkpt lat="44.24999014335836" lon="8.20565369258763"><ele>1036.0</ele><time>2026-04-05T12:40:55.999Z</time></trkpt><trkpt lat="44.25012204168441" lon="8.205711640892824"><ele>1036.0</ele><time>2026-04-05T12:40:56.999Z</time></trkpt><trkpt lat="44.25026373299645" lon="8.205790064466113"><ele>1036.0</ele><time>2026-04-05T12:40:57.999Z</time></trkpt><trkpt lat="44.25039884864107" lon="8.205876217850086"><ele>1031.6666666666665</ele><time>2026-04-05T12:40:58.999Z</time></trkpt><trkpt lat="44.250554818205686" lon="8.205988995976101"><ele>1027.3333333333333</ele><time>2026-04-05T12:40:59.999Z</time></trkpt><trkpt lat="44.250724757316654" lon="8.206113604188769"><ele>1023.0</ele><time>2026-04-05T12:41:00.999Z</time></trkpt><trkpt lat="44.25088300016313" lon="8.206231076033792"><ele>1023.0</ele><time>2026-04-05T12:41:01.999Z</time></trkpt><trkpt lat="44.251026118420405" lon="8.206340447314258"><ele>1023.0</ele><time>2026-04-05T12:41:02.999Z</time></trkpt><trkpt lat="44.25115924607616" lon="8.206462181466929"><ele>1023.0</ele><time>2026-04-05T12:41:03.999Z</time></trkpt><trkpt lat="44.25129752123255" lon="8.206609912645998"><ele>1021.75</ele><time>2026-04-05T12:41:04.999Z</time></trkpt><trkpt lat="44.251427170289794" lon="8.206742441253786"><ele>1020.5</ele><time>2026-04-05T12:41:05.999Z</time></trkpt><trkpt lat="44.251548596511135" lon="8.206840341106327"><ele>1019.25</ele><time>2026-04-05T12:41:06.999Z</time></trkpt><trkpt lat="44.251677188784086" lon="8.206940510835867"><ele>1018.0</ele><time>2026-04-05T12:41:07.999Z</time></trkpt><trkpt lat="44.25177729880804" lon="8.207061229056027"><ele>1018.0</ele><time>2026-04-05T12:41:08.999Z</time></trkpt><trkpt lat="44.25187153592375" lon="8.207214159634393"><ele>1018.0</ele><time>2026-04-05T12:41:09.999Z</time></trkpt><trkpt lat="44.25195938891351" lon="8.207358667357765"><ele>1018.0</ele><time>2026-04-05T12:41:10.999Z</time></trkpt><trkpt lat="44.25204460917283" lon="8.207496221077925"><ele>1018.0</ele><time>2026-04-05T12:41:11.999Z</time></trkpt><trkpt lat="44.25211611252236" lon="8.207598625183483"><ele>1011.8</ele><time>2026-04-05T12:41:12.999Z</time></trkpt><trkpt lat="44.25218722144428" lon="8.207679633433811"><ele>1005.5999999999999</ele><time>2026-04-05T12:41:13.999Z</time></trkpt><trkpt lat="44.252293594984955" lon="8.20769541622948"><ele>999.4000000000001</ele><time>2026-04-05T12:41:14.999Z</time></trkpt><trkpt lat="44.25238447003665" lon="8.207628347147633"><ele>993.2</ele><time>2026-04-05T12:41:15.999Z</time></trkpt><trkpt lat="44.252472725786895" lon="8.207544366144138"><ele>987.0</ele><time>2026-04-05T12:41:16.999Z</time></trkpt><trkpt lat="44.25257506928335" lon="8.2074254604302"><ele>996.0</ele><time>2026-04-05T12:41:17.999Z</time></trkpt><trkpt lat="44.252671784046136" lon="8.20728983613897"><ele>1005.0</ele><time>2026-04-05T12:41:18.999Z</time></trkpt><trkpt lat="44.25279290280667" lon="8.207151513245751"><ele>1014.0</ele><time>2026-04-05T12:41:19.998Z</time></trkpt><trkpt lat="44.25289203579802" lon="8.207002842154735"><ele>1023.0</ele><time>2026-04-05T12:41:20.998Z</time></trkpt><trkpt lat="44.252965984588094" lon="8.206859145454972"><ele>1023.0</ele><time>2026-04-05T12:41:21.998Z</time></trkpt><trkpt lat="44.25303578139895" lon="8.20673156108991"><ele>1023.0</ele><time>2026-04-05T12:41:22.998Z</time></trkpt><trkpt lat="44.25313741150198" lon="8.206674416397012"><ele>1023.0</ele><time>2026-04-05T12:41:23.998Z</time></trkpt><trkpt lat="44.25323034956798" lon="8.206629000125078"><ele>1023.0</ele><time>2026-04-05T12:41:24.998Z</time></trkpt><trkpt lat="44.2533248760326" lon="8.206706655337157"><ele>1023.0</ele><time>2026-04-05T12:41:25.998Z</time></trkpt><trkpt lat="44.253426487122205" lon="8.206761837493085"><ele>1017.0</ele><time>2026-04-05T12:41:26.998Z</time></trkpt><trkpt lat="44.25352649384751" lon="8.206784373485586"><ele>1011.0</ele><time>2026-04-05T12:41:27.998Z</time></trkpt><trkpt lat="44.2536184604594" lon="8.206756208066027"><ele>1005.0</ele><time>2026-04-05T12:41:28.998Z</time></trkpt><trkpt lat="44.2537222354968" lon="8.206693146825454"><ele>999.0</ele><time>2026-04-05T12:41:29.998Z</time></trkpt><trkpt lat="44.253834143932565" lon="8.206592935341927"><ele>993.0</ele><time>2026-04-05T12:41:30.998Z</time></trkpt><trkpt lat="44.25395860355093" lon="8.206511618395695"><ele>990.0</ele><time>2026-04-05T12:41:31.998Z</time></trkpt><trkpt lat="44.25408402069709" lon="8.206489253845291"><ele>987.0</ele><time>2026-04-05T12:41:32.998Z</time></trkpt><trkpt lat="44.25419314815126" lon="8.206440917718448"><ele>984.0</ele><time>2026-04-05T12:41:33.998Z</time></trkpt><trkpt lat="44.254298056860186" lon="8.206471829930063"><ele>981.0</ele><time>2026-04-05T12:41:34.998Z</time></trkpt><trkpt lat="44.254383333838575" lon="8.206549959140355"><ele>981.0</ele><time>2026-04-05T12:41:35.998Z</time></trkpt><trkpt lat="44.25444319391723" lon="8.2066824611227"><ele>981.0</ele><time>2026-04-05T12:41:36.998Z</time></trkpt><trkpt lat="44.25448325403494" lon="8.206858928149776"><ele>981.0</ele><time>2026-04-05T12:41:37.998Z</time></trkpt><trkpt lat="44.25454116986442" lon="8.207034323488847"><ele>981.0</ele><time>2026-04-05T12:41:38.998Z</time></trkpt><trkpt lat="44.25460169004453" lon="8.207190876316846"><ele>978.5</ele><time>2026-04-05T12:41:39.998Z</time></trkpt><trkpt lat="44.25466718080016" lon="8.207336296379342"><ele>976.0</ele><time>2026-04-05T12:41:40.998Z</time></trkpt><trkpt lat="44.25473940491279" lon="8.207427780842561"><ele>973.5</ele><time>2026-04-05T12:41:42Z</time></trkpt><trkpt lat="44.25490874807784" lon="8.207487846910304"><ele>971.0</ele><time>2026-04-05T12:41:44Z</time></trkpt><trkpt lat="44.255027789714106" lon="8.20751553730139"><ele>971.0000000000001</ele><time>2026-04-05T12:41:45Z</time></trkpt><trkpt lat="44.25513546288758" lon="8.207524993225094"><ele>971.0</ele><time>2026-04-05T12:41:46Z</time></trkpt><trkpt lat="44.255220811058905" lon="8.20756521311722"><ele>971.0</ele><time>2026-04-05T12:41:47Z</time></trkpt><trkpt lat="44.255309886563765" lon="8.207601337558769"><ele>971.0</ele><time>2026-04-05T12:41:48Z</time></trkpt><trkpt lat="44.25534591089264" lon="8.20769807661734"><ele>971.0000000000001</ele><time>2026-04-05T12:41:49Z</time></trkpt><trkpt lat="44.25532369159084" lon="8.20779150651396"><ele>971.0</ele><time>2026-04-05T12:41:50Z</time></trkpt><trkpt lat="44.25530633104548" lon="8.207912125839123"><ele>971.0</ele><time>2026-04-05T12:41:51Z</time></trkpt><trkpt lat="44.255286606254884" lon="8.208054159353678"><ele>970.9999999999999</ele><time>2026-04-05T12:41:52Z</time></trkpt><trkpt lat="44.25526599836497" lon="8.208185574957843"><ele>970.9999999999999</ele><time>2026-04-05T12:41:53Z</time></trkpt><trkpt lat="44.25526947710442" lon="8.208314556840387"><ele>971.0</ele><time>2026-04-05T12:41:54Z</time></trkpt><trkpt lat="44.25530230890278" lon="8.20842277706266"><ele>971.0</ele><time>2026-04-05T12:41:55Z</time></trkpt><trkpt lat="44.25538809907224" lon="8.208495469950618"><ele>968.5</ele><time>2026-04-05T12:41:56Z</time></trkpt><trkpt lat="44.25547004913804" lon="8.20850479677062"><ele>966.0</ele><time>2026-04-05T12:41:57Z</time></trkpt><trkpt lat="44.255578026714986" lon="8.20849056660941"><ele>963.5</ele><time>2026-04-05T12:41:58Z</time></trkpt><trkpt lat="44.25570075028659" lon="8.20845325879202"><ele>961.0</ele><time>2026-04-05T12:41:59Z</time></trkpt><trkpt lat="44.25583143428212" lon="8.208397301491658"><ele>961.0</ele><time>2026-04-05T12:42:00Z</time></trkpt><trkpt lat="44.25597452848335" lon="8.208327653267188"><ele>961.0</ele><time>2026-04-05T12:42:01Z</time></trkpt><trkpt lat="44.2561269458218" lon="8.208243218002831"><ele>961.0</ele><time>2026-04-05T12:42:02Z</time></trkpt><trkpt lat="44.25628057975721" lon="8.208164473322691"><ele>968.3333333333333</ele><time>2026-04-05T12:42:03Z</time></trkpt><trkpt lat="44.25643214249157" lon="8.20809285401371"><ele>975.6666666666667</ele><time>2026-04-05T12:42:04Z</time></trkpt><trkpt lat="44.256583658417405" lon="8.208044860327497"><ele>983.0</ele><time>2026-04-05T12:42:05Z</time></trkpt><trkpt lat="44.25672795210835" lon="8.20798773999773"><ele>983.0</ele><time>2026-04-05T12:42:06Z</time></trkpt><trkpt lat="44.256858214887295" lon="8.20792218310435"><ele>983.0</ele><time>2026-04-05T12:42:07Z</time></trkpt><trkpt lat="44.25698275327089" lon="8.20786098916456"><ele>983.0</ele><time>2026-04-05T12:42:08Z</time></trkpt><trkpt lat="44.257086713256456" lon="8.20779843865554"><ele>983.0</ele><time>2026-04-05T12:42:09Z</time></trkpt><trkpt lat="44.257191811012625" lon="8.207790851563074"><ele>981.75</ele><time>2026-04-05T12:42:10Z</time></trkpt><trkpt lat="44.2572936259417" lon="8.207824489202526"><ele>980.5</ele><time>2026-04-05T12:42:11Z</time></trkpt><trkpt lat="44.25735917450549" lon="8.20793967589967"><ele>979.25</ele><time>2026-04-05T12:42:12Z</time></trkpt><trkpt lat="44.25745044136734" lon="8.208065061232467"><ele>978.0</ele><time>2026-04-05T12:42:13Z</time></trkpt><trkpt lat="44.25753803823918" lon="8.208197994357068"><ele>972.0</ele><time>2026-04-05T12:42:14Z</time></trkpt><trkpt lat="44.25762146495615" lon="8.208347803700375"><ele>966.0</ele><time>2026-04-05T12:42:15Z</time></trkpt><trkpt lat="44.25768211091115" lon="8.208512516650568"><ele>960.0</ele><time>2026-04-05T12:42:16Z</time></trkpt><trkpt lat="44.25773346829528" lon="8.20868818711055"><ele>954.0</ele><time>2026-04-05T12:42:17Z</time></trkpt><trkpt lat="44.257762842700515" lon="8.208895343295643"><ele>948.5</ele><time>2026-04-05T12:42:18Z</time></trkpt><trkpt lat="44.257782228322284" lon="8.209073592006408"><ele>943.0</ele><time>2026-04-05T12:42:19Z</time></trkpt><trkpt lat="44.25779260196715" lon="8.20923690187435"><ele>937.5</ele><time>2026-04-05T12:42:20Z</time></trkpt><trkpt lat="44.25777912414321" lon="8.209394982900177"><ele>932.0</ele><time>2026-04-05T12:42:21Z</time></trkpt><trkpt lat="44.2577289079682" lon="8.209544055428374"><ele>932.0</ele><time>2026-04-05T12:42:22Z</time></trkpt><trkpt lat="44.25764257505383" lon="8.209667626043181"><ele>932.0</ele><time>2026-04-05T12:42:23Z</time></trkpt><trkpt lat="44.257579994540244" lon="8.209810600910592"><ele>932.0</ele><time>2026-04-05T12:42:24Z</time></trkpt><trkpt lat="44.2575560027472" lon="8.209964842328723"><ele>932.0</ele><time>2026-04-05T12:42:25Z</time></trkpt><trkpt lat="44.25754464280508" lon="8.21014026820187"><ele>931.75</ele><time>2026-04-05T12:42:26Z</time></trkpt><trkpt lat="44.25755191594727" lon="8.210332120138233"><ele>931.5</ele><time>2026-04-05T12:42:26.999Z</time></trkpt><trkpt lat="44.25759171164132" lon="8.2105246484258"><ele>931.25</ele><time>2026-04-05T12:42:27.999Z</time></trkpt><trkpt lat="44.25764361622655" lon="8.21073259872605"><ele>931.0</ele><time>2026-04-05T12:42:28.999Z</time></trkpt><trkpt lat="44.257699377993454" lon="8.210937250110835"><ele>931.0</ele><time>2026-04-05T12:42:29.999Z</time></trkpt><trkpt lat="44.25775062504765" lon="8.21112580661501"><ele>931.0</ele><time>2026-04-05T12:42:30.999Z</time></trkpt><trkpt lat="44.257798496277694" lon="8.211302901799936"><ele>931.0</ele><time>2026-04-05T12:42:31.999Z</time></trkpt><trkpt lat="44.25784243317543" lon="8.211468821785225"><ele>931.0</ele><time>2026-04-05T12:42:32.999Z</time></trkpt><trkpt lat="44.257859193194015" lon="8.211621303174987"><ele>929.5999999999999</ele><time>2026-04-05T12:42:33.999Z</time></trkpt><trkpt lat="44.25783472049052" lon="8.211757990590149"><ele>928.1999999999999</ele><time>2026-04-05T12:42:34.999Z</time></trkpt><trkpt lat="44.257767890404736" lon="8.21188176990979"><ele>926.8000000000001</ele><time>2026-04-05T12:42:35.999Z</time></trkpt><trkpt lat="44.257712985390114" lon="8.212017297938885"><ele>925.4000000000001</ele><time>2026-04-05T12:42:36.999Z</time></trkpt><trkpt lat="44.25767499906435" lon="8.212151714918088"><ele>924.0</ele><time>2026-04-05T12:42:37.999Z</time></trkpt><trkpt lat="44.25765167727515" lon="8.212288092878975"><ele>923.5</ele><time>2026-04-05T12:42:38.999Z</time></trkpt><trkpt lat="44.25765978123021" lon="8.212421924645843"><ele>923.0</ele><time>2026-04-05T12:42:39.999Z</time></trkpt><trkpt lat="44.257693655676896" lon="8.212548692098077"><ele>922.5</ele><time>2026-04-05T12:42:40.999Z</time></trkpt><trkpt lat="44.25781029523419" lon="8.212637769896173"><ele>922.0</ele><time>2026-04-05T12:42:41.999Z</time></trkpt><trkpt lat="44.25792404138166" lon="8.212724011412448"><ele>922.0</ele><time>2026-04-05T12:42:42.999Z</time></trkpt><trkpt lat="44.25807013728371" lon="8.21280015552523"><ele>922.0</ele><time>2026-04-05T12:42:43.999Z</time></trkpt><trkpt lat="44.25822022200601" lon="8.212869257144694"><ele>922.0</ele><time>2026-04-05T12:42:44.999Z</time></trkpt><trkpt lat="44.258380994014026" lon="8.212944559245926"><ele>925.0</ele><time>2026-04-05T12:42:45.999Z</time></trkpt><trkpt lat="44.25855842791848" lon="8.212999245624603"><ele>928.0</ele><time>2026-04-05T12:42:46.999Z</time></trkpt><trkpt lat="44.258734877812955" lon="8.213046606907325"><ele>931.0</ele><time>2026-04-05T12:42:47.999Z</time></trkpt><trkpt lat="44.258910663902014" lon="8.213077541500345"><ele>933.0</ele><time>2026-04-05T12:42:48.999Z</time></trkpt><trkpt lat="44.2590956732608" lon="8.213088512939667"><ele>935.0</ele><time>2026-04-05T12:42:49.999Z</time></trkpt><trkpt lat="44.259276246880795" lon="8.213101809750189"><ele>937.0</ele><time>2026-04-05T12:42:50.999Z</time></trkpt><trkpt lat="44.25944152288994" lon="8.213186416945955"><ele>930.6666666666666</ele><time>2026-04-05T12:42:51.999Z</time></trkpt><trkpt lat="44.259605895689546" lon="8.213257343243178"><ele>924.3333333333333</ele><time>2026-04-05T12:42:52.999Z</time></trkpt><trkpt lat="44.259760363682574" lon="8.213313673269775"><ele>918.0</ele><time>2026-04-05T12:42:53.999Z</time></trkpt><trkpt lat="44.259894697346674" lon="8.213376864072798"><ele>917.75</ele><time>2026-04-05T12:42:54.999Z</time></trkpt><trkpt lat="44.260018266487215" lon="8.213427145743765"><ele>917.5</ele><time>2026-04-05T12:42:55.999Z</time></trkpt><trkpt lat="44.26013332841816" lon="8.213454388991286"><ele>917.25</ele><time>2026-04-05T12:42:56.999Z</time></trkpt><trkpt lat="44.26023925499203" lon="8.213453184021004"><ele>917.0</ele><time>2026-04-05T12:42:57.999Z</time></trkpt><trkpt lat="44.26035894081115" lon="8.213406877673638"><ele>917.0</ele><time>2026-04-05T12:42:58.999Z</time></trkpt><trkpt lat="44.26047031237324" lon="8.213300533014632"><ele>917.0</ele><time>2026-04-05T12:42:59.999Z</time></trkpt><trkpt lat="44.26056965310216" lon="8.213155030482588"><ele>917.0</ele><time>2026-04-05T12:43:00.999Z</time></trkpt><trkpt lat="44.26065827359029" lon="8.212991978570503"><ele>917.0</ele><time>2026-04-05T12:43:01.999Z</time></trkpt><trkpt lat="44.260760208343825" lon="8.212861263207506"><ele>916.0</ele><time>2026-04-05T12:43:02.999Z</time></trkpt><trkpt lat="44.26088316359043" lon="8.212759331412657"><ele>915.0</ele><time>2026-04-05T12:43:03.999Z</time></trkpt><trkpt lat="44.26103489049008" lon="8.2127342023647"><ele>914.0</ele><time>2026-04-05T12:43:04.999Z</time></trkpt><trkpt lat="44.26118172579149" lon="8.212668371219037"><ele>914.0</ele><time>2026-04-05T12:43:05.999Z</time></trkpt><trkpt lat="44.261330450370934" lon="8.212637590378922"><ele>914.0</ele><time>2026-04-05T12:43:06.999Z</time></trkpt><trkpt lat="44.26146477519141" lon="8.212594667419392"><ele>914.0</ele><time>2026-04-05T12:43:07.999Z</time></trkpt><trkpt lat="44.261608215197484" lon="8.212562384277229"><ele>914.0</ele><time>2026-04-05T12:43:08.999Z</time></trkpt><trkpt lat="44.26175609578621" lon="8.212598394213106"><ele>910.3333333333334</ele><time>2026-04-05T12:43:09.999Z</time></trkpt><trkpt lat="44.26191060299999" lon="8.212674903481876"><ele>906.6666666666667</ele><time>2026-04-05T12:43:10.999Z</time></trkpt><trkpt lat="44.262072145117685" lon="8.21276234531869"><ele>903.0</ele><time>2026-04-05T12:43:11.999Z</time></trkpt><trkpt lat="44.26221949237972" lon="8.212840175650372"><ele>901.0</ele><time>2026-04-05T12:43:12.999Z</time></trkpt><trkpt lat="44.26236747663159" lon="8.212900770944259"><ele>899.0</ele><time>2026-04-05T12:43:13.999Z</time></trkpt><trkpt lat="44.26251065847912" lon="8.212977248833717"><ele>897.0</ele><time>2026-04-05T12:43:14.999Z</time></trkpt><trkpt lat="44.262644759774375" lon="8.213048631478388"><ele>897.0</ele><time>2026-04-05T12:43:15.999Z</time></trkpt><trkpt lat="44.2627598352209" lon="8.213102033162986"><ele>897.0</ele><time>2026-04-05T12:43:16.999Z</time></trkpt><trkpt lat="44.262867891816796" lon="8.213128099975538"><ele>897.0</ele><time>2026-04-05T12:43:17.999Z</time></trkpt><trkpt lat="44.26296823017182" lon="8.213106727485126"><ele>897.0</ele><time>2026-04-05T12:43:18.998Z</time></trkpt><trkpt lat="44.263061721097344" lon="8.213036904042648"><ele>897.0</ele><time>2026-04-05T12:43:19.998Z</time></trkpt><trkpt lat="44.26313728322308" lon="8.212912937830092"><ele>895.5</ele><time>2026-04-05T12:43:20.998Z</time></trkpt><trkpt lat="44.2631949263684" lon="8.212742704886711"><ele>894.0</ele><time>2026-04-05T12:43:21.998Z</time></trkpt><trkpt lat="44.263259671689646" lon="8.212563148898177"><ele>892.5</ele><time>2026-04-05T12:43:22.998Z</time></trkpt><trkpt lat="44.26333454926826" lon="8.212385750569771"><ele>891.0</ele><time>2026-04-05T12:43:23.998Z</time></trkpt><trkpt lat="44.26341189937231" lon="8.212225216876817"><ele>891.0</ele><time>2026-04-05T12:43:24.998Z</time></trkpt><trkpt lat="44.26349126873531" lon="8.212072618435485"><ele>891.0</ele><time>2026-04-05T12:43:25.998Z</time></trkpt><trkpt lat="44.26357049651474" lon="8.21194223893804"><ele>891.0</ele><time>2026-04-05T12:43:26.998Z</time></trkpt><trkpt lat="44.26366282863802" lon="8.21185505326063"><ele>891.0</ele><time>2026-04-05T12:43:27.998Z</time></trkpt><trkpt lat="44.263731461944815" lon="8.211787508356425"><ele>891.0</ele><time>2026-04-05T12:43:28.998Z</time></trkpt><trkpt lat="44.26383203515708" lon="8.211735493164605"><ele>890.9999999999999</ele><time>2026-04-05T12:43:29.998Z</time></trkpt><trkpt lat="44.263928645117964" lon="8.211766896555355"><ele>890.9999999999999</ele><time>2026-04-05T12:43:30.998Z</time></trkpt><trkpt lat="44.264000237767384" lon="8.211860328256863"><ele>891.0</ele><time>2026-04-05T12:43:31.998Z</time></trkpt><trkpt lat="44.26406988780258" lon="8.211953272329271"><ele>891.0</ele><time>2026-04-05T12:43:32.998Z</time></trkpt><trkpt lat="44.26415364470917" lon="8.21205248421812"><ele>888.8</ele><time>2026-04-05T12:43:33.998Z</time></trkpt><trkpt lat="44.26422948111533" lon="8.212138696804727"><ele>886.5999999999999</ele><time>2026-04-05T12:43:34.998Z</time></trkpt><trkpt lat="44.26431567425694" lon="8.21219782280957"><ele>884.4</ele><time>2026-04-05T12:43:35.998Z</time></trkpt><trkpt lat="44.26440345875214" lon="8.212236069999443"><ele>882.2</ele><time>2026-04-05T12:43:36.998Z</time></trkpt><trkpt lat="44.26450111494087" lon="8.212250893077687"><ele>880.0</ele><time>2026-04-05T12:43:37.998Z</time></trkpt><trkpt lat="44.2646139506042" lon="8.212246452045237"><ele>880.0</ele><time>2026-04-05T12:43:38.998Z</time></trkpt><trkpt lat="44.26474113884033" lon="8.212258743454386"><ele>880.0</ele><time>2026-04-05T12:43:39.998Z</time></trkpt><trkpt lat="44.264875390344734" lon="8.212267711923879"><ele>880.0</ele><time>2026-04-05T12:43:40.998Z</time></trkpt><trkpt lat="44.26500437859928" lon="8.212285134556685"><ele>880.0</ele><time>2026-04-05T12:43:41.998Z</time></trkpt><trkpt lat="44.265129865216736" lon="8.21229125494947"><ele>878.0</ele><time>2026-04-05T12:43:42.998Z</time></trkpt><trkpt lat="44.26524503429564" lon="8.21229492844029"><ele>876.0</ele><time>2026-04-05T12:43:43.998Z</time></trkpt><trkpt lat="44.26534279563294" lon="8.212270755538785"><ele>874.0</ele><time>2026-04-05T12:43:44.998Z</time></trkpt><trkpt lat="44.26541954457662" lon="8.212243414972356"><ele>872.0</ele><time>2026-04-05T12:43:45.998Z</time></trkpt><trkpt lat="44.26548699256352" lon="8.212149940333047"><ele>870.0</ele><time>2026-04-05T12:43:46.998Z</time></trkpt><trkpt lat="44.265539355798985" lon="8.212017956764013"><ele>870.0</ele><time>2026-04-05T12:43:48Z</time></trkpt><trkpt lat="44.265576445531885" lon="8.211851543258277"><ele>870.0</ele><time>2026-04-05T12:43:49Z</time></trkpt><trkpt lat="44.26562730087868" lon="8.211691686691413"><ele>870.0</ele><time>2026-04-05T12:43:50Z</time></trkpt><trkpt lat="44.26569731802008" lon="8.211544825359226"><ele>870.0</ele><time>2026-04-05T12:43:51Z</time></trkpt><trkpt lat="44.2657709150169" lon="8.211412635957874"><ele>868.2</ele><time>2026-04-05T12:43:52Z</time></trkpt><trkpt lat="44.26583962822065" lon="8.211283364690876"><ele>866.4</ele><time>2026-04-05T12:43:53Z</time></trkpt><trkpt lat="44.26589605692085" lon="8.211168040207081"><ele>864.5999999999999</ele><time>2026-04-05T12:43:54Z</time></trkpt><trkpt lat="44.26595404349083" lon="8.211075443521409"><ele>862.8</ele><time>2026-04-05T12:43:55Z</time></trkpt><trkpt lat="44.2660207912565" lon="8.21102889289748"><ele>861.0</ele><time>2026-04-05T12:43:56Z</time></trkpt><trkpt lat="44.26610669976804" lon="8.211035137986212"><ele>861.0</ele><time>2026-04-05T12:43:57Z</time></trkpt><trkpt lat="44.266185281544495" lon="8.21109420651425"><ele>860.9999999999999</ele><time>2026-04-05T12:43:58Z</time></trkpt><trkpt lat="44.266215822582794" lon="8.211234001598495"><ele>860.9999999999999</ele><time>2026-04-05T12:43:59Z</time></trkpt><trkpt lat="44.26626296022161" lon="8.211359205766065"><ele>861.0</ele><time>2026-04-05T12:44:00Z</time></trkpt><trkpt lat="44.26632177117842" lon="8.211494466202982"><ele>861.0</ele><time>2026-04-05T12:44:01Z</time></trkpt><trkpt lat="44.26639828134246" lon="8.211596532224156"><ele>856.5</ele><time>2026-04-05T12:44:02Z</time></trkpt><trkpt lat="44.26647026247116" lon="8.211692104320543"><ele>852.0</ele><time>2026-04-05T12:44:03Z</time></trkpt><trkpt lat="44.266574074451654" lon="8.211751920568263"><ele>847.5</ele><time>2026-04-05T12:44:04Z</time></trkpt><trkpt lat="44.26670157968602" lon="8.211799136106347"><ele>843.0</ele><time>2026-04-05T12:44:05Z</time></trkpt><trkpt lat="44.26682957663375" lon="8.211867244400551"><ele>843.0</ele><time>2026-04-05T12:44:06Z</time></trkpt><trkpt lat="44.26696209934814" lon="8.21196375127237"><ele>843.0</ele><time>2026-04-05T12:44:07Z</time></trkpt><trkpt lat="44.26711598554601" lon="8.212062616305651"><ele>843.0</ele><time>2026-04-05T12:44:08Z</time></trkpt><trkpt lat="44.26728196136108" lon="8.212158199955988"><ele>845.0</ele><time>2026-04-05T12:44:09Z</time></trkpt><trkpt lat="44.26743392116864" lon="8.212263896751937"><ele>847.0</ele><time>2026-04-05T12:44:10Z</time></trkpt><trkpt lat="44.26757428353506" lon="8.212351463566232"><ele>849.0</ele><time>2026-04-05T12:44:11Z</time></trkpt><trkpt lat="44.26770801203716" lon="8.212445954386293"><ele>844.5</ele><time>2026-04-05T12:44:12Z</time></trkpt><trkpt lat="44.26784282492532" lon="8.212520864950047"><ele>840.0</ele><time>2026-04-05T12:44:13Z</time></trkpt><trkpt lat="44.26796224866643" lon="8.212583684248903"><ele>835.5</ele><time>2026-04-05T12:44:14Z</time></trkpt><trkpt lat="44.26808036655074" lon="8.212628770270888"><ele>831.0</ele><time>2026-04-05T12:44:15Z</time></trkpt><trkpt lat="44.268196051162434" lon="8.212639531322598"><ele>830.0</ele><time>2026-04-05T12:44:16Z</time></trkpt><trkpt lat="44.26831589672387" lon="8.212597344777137"><ele>829.0</ele><time>2026-04-05T12:44:17Z</time></trkpt><trkpt lat="44.26844383821731" lon="8.212519204774217"><ele>828.0</ele><time>2026-04-05T12:44:18Z</time></trkpt><trkpt lat="44.26857276253637" lon="8.212423001612551"><ele>827.0</ele><time>2026-04-05T12:44:19Z</time></trkpt><trkpt lat="44.2686929941803" lon="8.212312638089136"><ele>829.75</ele><time>2026-04-05T12:44:20Z</time></trkpt><trkpt lat="44.268796566207314" lon="8.212214438937698"><ele>832.5</ele><time>2026-04-05T12:44:21Z</time></trkpt><trkpt lat="44.26889362915979" lon="8.212160746997393"><ele>835.25</ele><time>2026-04-05T12:44:22Z</time></trkpt><trkpt lat="44.269004731989995" lon="8.21215662865573"><ele>838.0</ele><time>2026-04-05T12:44:23Z</time></trkpt><trkpt lat="44.26911453260001" lon="8.212204186707151"><ele>838.0</ele><time>2026-04-05T12:44:24Z</time></trkpt><trkpt lat="44.269207471530066" lon="8.21226355750149"><ele>838.0</ele><time>2026-04-05T12:44:25Z</time></trkpt><trkpt lat="44.26931502072822" lon="8.212324049804431"><ele>838.0</ele><time>2026-04-05T12:44:26Z</time></trkpt><trkpt lat="44.26943602901281" lon="8.212348933734534"><ele>838.0</ele><time>2026-04-05T12:44:27Z</time></trkpt><trkpt lat="44.26956665017983" lon="8.212323396007353"><ele>838.0</ele><time>2026-04-05T12:44:28Z</time></trkpt><trkpt lat="44.269703818433115" lon="8.21226472565035"><ele>838.0</ele><time>2026-04-05T12:44:29Z</time></trkpt><trkpt lat="44.26984858994423" lon="8.212210342722775"><ele>838.0</ele><time>2026-04-05T12:44:30Z</time></trkpt><trkpt lat="44.27000342453768" lon="8.212157315185742"><ele>833.3333333333333</ele><time>2026-04-05T12:44:31Z</time></trkpt><trkpt lat="44.27016511911172" lon="8.212100275609851"><ele>828.6666666666667</ele><time>2026-04-05T12:44:32Z</time></trkpt><trkpt lat="44.27031509868088" lon="8.212039963420885"><ele>824.0</ele><time>2026-04-05T12:44:33Z</time></trkpt><trkpt lat="44.270456511401974" lon="8.21197016720162"><ele>824.0</ele><time>2026-04-05T12:44:33.999Z</time></trkpt><trkpt lat="44.27059654290906" lon="8.21190711734651"><ele>824.0</ele><time>2026-04-05T12:44:34.999Z</time></trkpt><trkpt lat="44.270720908902945" lon="8.21182755876401"><ele>824.0</ele><time>2026-04-05T12:44:35.999Z</time></trkpt><trkpt lat="44.27082660063185" lon="8.21174183520307"><ele>824.0</ele><time>2026-04-05T12:44:36.999Z</time></trkpt><trkpt lat="44.270913216791705" lon="8.211650258304376"><ele>820.4000000000001</ele><time>2026-04-05T12:44:37.999Z</time></trkpt><trkpt lat="44.27098010130983" lon="8.211565675917193"><ele>816.8</ele><time>2026-04-05T12:44:38.999Z</time></trkpt><trkpt lat="44.2710309539011" lon="8.211499692926639"><ele>813.2</ele><time>2026-04-05T12:44:39.999Z</time></trkpt><trkpt lat="44.27110332636612" lon="8.211445850059844"><ele>809.5999999999999</ele><time>2026-04-05T12:44:41.999Z</time></trkpt><trkpt lat="44.27104920600809" lon="8.211263092163739"><ele>806.0</ele><time>2026-04-05T12:44:44.999Z</time></trkpt><trkpt lat="44.2709965032072" lon="8.211197134708813"><ele>805.5999999999999</ele><time>2026-04-05T12:44:45.999Z</time></trkpt><trkpt lat="44.27095001587263" lon="8.21110911518417"><ele>805.2</ele><time>2026-04-05T12:44:46.999Z</time></trkpt><trkpt lat="44.27090171883951" lon="8.211002049476074"><ele>804.8</ele><time>2026-04-05T12:44:47.999Z</time></trkpt><trkpt lat="44.270853545268054" lon="8.210873145789318"><ele>804.4000000000001</ele><time>2026-04-05T12:44:48.999Z</time></trkpt><trkpt lat="44.270810167525546" lon="8.21074285983913"><ele>804.0</ele><time>2026-04-05T12:44:49.999Z</time></trkpt><trkpt lat="44.27076736040281" lon="8.210621836949015"><ele>802.4000000000001</ele><time>2026-04-05T12:44:50.999Z</time></trkpt><trkpt lat="44.270732640769516" lon="8.210497525357644"><ele>800.8</ele><time>2026-04-05T12:44:51.999Z</time></trkpt><trkpt lat="44.27067729055531" lon="8.210376070473576"><ele>799.2</ele><time>2026-04-05T12:44:52.999Z</time></trkpt><trkpt lat="44.270617307712364" lon="8.2102624579639"><ele>797.5999999999999</ele><time>2026-04-05T12:44:53.999Z</time></trkpt><trkpt lat="44.27053808492094" lon="8.210182734344055"><ele>796.0</ele><time>2026-04-05T12:44:54.999Z</time></trkpt><trkpt lat="44.27043970125271" lon="8.210137168372121"><ele>800.1999999999999</ele><time>2026-04-05T12:44:55.999Z</time></trkpt><trkpt lat="44.2703276501405" lon="8.210118058552043"><ele>804.4</ele><time>2026-04-05T12:44:56.999Z</time></trkpt><trkpt lat="44.270229363989834" lon="8.210104255417185"><ele>808.6</ele><time>2026-04-05T12:44:57.999Z</time></trkpt><trkpt lat="44.27014357279532" lon="8.210076047149757"><ele>812.8</ele><time>2026-04-05T12:44:58.999Z</time></trkpt><trkpt lat="44.27009248283745" lon="8.20999769850829"><ele>817.0</ele><time>2026-04-05T12:44:59.999Z</time></trkpt><trkpt lat="44.270074491584275" lon="8.209874487443606"><ele>816.25</ele><time>2026-04-05T12:45:00.999Z</time></trkpt><trkpt lat="44.27003363044292" lon="8.209744685596961"><ele>815.5</ele><time>2026-04-05T12:45:01.999Z</time></trkpt><trkpt lat="44.270016668561716" lon="8.209590449946255"><ele>814.75</ele><time>2026-04-05T12:45:02.999Z</time></trkpt><trkpt lat="44.269982320392536" lon="8.209426063013439"><ele>814.0</ele><time>2026-04-05T12:45:03.999Z</time></trkpt><trkpt lat="44.26993500399704" lon="8.209276019672682"><ele>814.0</ele><time>2026-04-05T12:45:04.999Z</time></trkpt><trkpt lat="44.26988373820863" lon="8.2091021136711"><ele>814.0</ele><time>2026-04-05T12:45:05.999Z</time></trkpt><trkpt lat="44.269838733455686" lon="8.208948396218492"><ele>814.0</ele><time>2026-04-05T12:45:06.999Z</time></trkpt><trkpt lat="44.26980417236693" lon="8.208811301350773"><ele>814.0</ele><time>2026-04-05T12:45:07.999Z</time></trkpt><trkpt lat="44.269805530313306" lon="8.208662262462969"><ele>815.25</ele><time>2026-04-05T12:45:08.999Z</time></trkpt><trkpt lat="44.26986025550723" lon="8.208511932188584"><ele>816.5</ele><time>2026-04-05T12:45:09.999Z</time></trkpt><trkpt lat="44.269936642392935" lon="8.20838118044004"><ele>817.75</ele><time>2026-04-05T12:45:10.999Z</time></trkpt><trkpt lat="44.27002236398157" lon="8.208283011940132"><ele>819.0</ele><time>2026-04-05T12:45:11.999Z</time></trkpt><trkpt lat="44.27009104591574" lon="8.208145075161921"><ele>821.0</ele><time>2026-04-05T12:45:12.999Z</time></trkpt><trkpt lat="44.27012587015923" lon="8.207966834347328"><ele>823.0</ele><time>2026-04-05T12:45:13.999Z</time></trkpt><trkpt lat="44.2701517180068" lon="8.207774037273506"><ele>825.0</ele><time>2026-04-05T12:45:14.999Z</time></trkpt><trkpt lat="44.27017096720908" lon="8.207578797841276"><ele>827.0</ele><time>2026-04-05T12:45:15.999Z</time></trkpt><trkpt lat="44.27019571819066" lon="8.207385689717006"><ele>829.6666666666667</ele><time>2026-04-05T12:45:16.999Z</time></trkpt><trkpt lat="44.27023080883909" lon="8.20717464349226"><ele>832.3333333333333</ele><time>2026-04-05T12:45:17.999Z</time></trkpt><trkpt lat="44.27027620124339" lon="8.206950860265023"><ele>835.0</ele><time>2026-04-05T12:45:18.999Z</time></trkpt><trkpt lat="44.27032493960497" lon="8.206728850510023"><ele>835.0</ele><time>2026-04-05T12:45:19.999Z</time></trkpt><trkpt lat="44.270374646216375" lon="8.206502741152919"><ele>835.0</ele><time>2026-04-05T12:45:20.999Z</time></trkpt><trkpt lat="44.2704213938513" lon="8.20629119535301"><ele>835.0</ele><time>2026-04-05T12:45:21.999Z</time></trkpt><trkpt lat="44.270462558753756" lon="8.20609434480757"><ele>836.25</ele><time>2026-04-05T12:45:22.999Z</time></trkpt><trkpt lat="44.27049947985429" lon="8.205911349204106"><ele>837.5</ele><time>2026-04-05T12:45:23.999Z</time></trkpt><trkpt lat="44.27053574614397" lon="8.205733472633897"><ele>838.75</ele><time>2026-04-05T12:45:24.999Z</time></trkpt><trkpt lat="44.270564934996905" lon="8.205563935503017"><ele>840.0</ele><time>2026-04-05T12:45:25.998Z</time></trkpt><trkpt lat="44.27059421893711" lon="8.205398849840421"><ele>837.0</ele><time>2026-04-05T12:45:26.998Z</time></trkpt><trkpt lat="44.27062303682981" lon="8.205240807452261"><ele>834.0</ele><time>2026-04-05T12:45:27.998Z</time></trkpt><trkpt lat="44.27067103451314" lon="8.205097393398578"><ele>831.0</ele><time>2026-04-05T12:45:28.998Z</time></trkpt><trkpt lat="44.270726383980175" lon="8.204945708112751"><ele>828.0</ele><time>2026-04-05T12:45:29.998Z</time></trkpt><trkpt lat="44.270801708295245" lon="8.204807280356484"><ele>828.0</ele><time>2026-04-05T12:45:30.998Z</time></trkpt><trkpt lat="44.27092851806802" lon="8.204719140292637"><ele>828.0</ele><time>2026-04-05T12:45:31.998Z</time></trkpt><trkpt lat="44.271038120949825" lon="8.204641290483506"><ele>828.0</ele><time>2026-04-05T12:45:32.998Z</time></trkpt><trkpt lat="44.27117435334476" lon="8.204584792905068"><ele>828.0</ele><time>2026-04-05T12:45:33.998Z</time></trkpt><trkpt lat="44.27132396963864" lon="8.204517850526559"><ele>822.75</ele><time>2026-04-05T12:45:34.998Z</time></trkpt><trkpt lat="44.27146387839835" lon="8.204492753399265"><ele>817.5</ele><time>2026-04-05T12:45:35.998Z</time></trkpt><trkpt lat="44.271602827894334" lon="8.204457801032493"><ele>812.25</ele><time>2026-04-05T12:45:36.998Z</time></trkpt><trkpt lat="44.2717090176254" lon="8.204436366706217"><ele>807.0</ele><time>2026-04-05T12:45:37.998Z</time></trkpt><trkpt lat="44.27180872002294" lon="8.204396504927008"><ele>807.0</ele><time>2026-04-05T12:45:38.998Z</time></trkpt><trkpt lat="44.27188904224728" lon="8.204369638338832"><ele>807.0</ele><time>2026-04-05T12:45:39.998Z</time></trkpt><trkpt lat="44.27195245120097" lon="8.204260190452155"><ele>807.0</ele><time>2026-04-05T12:45:40.998Z</time></trkpt><trkpt lat="44.272000667339796" lon="8.204117163497914"><ele>807.0</ele><time>2026-04-05T12:45:41.998Z</time></trkpt><trkpt lat="44.27204285554135" lon="8.204006086247709"><ele>807.0</ele><time>2026-04-05T12:45:42.998Z</time></trkpt><trkpt lat="44.27208794375299" lon="8.203865938386748"><ele>806.5</ele><time>2026-04-05T12:45:43.998Z</time></trkpt><trkpt lat="44.27219332773016" lon="8.203788496913345"><ele>806.0</ele><time>2026-04-05T12:45:44.998Z</time></trkpt><trkpt lat="44.272308296837146" lon="8.203729613044656"><ele>805.5</ele><time>2026-04-05T12:45:45.998Z</time></trkpt><trkpt lat="44.272406680871576" lon="8.203677452409433"><ele>805.0</ele><time>2026-04-05T12:45:46.998Z</time></trkpt><trkpt lat="44.272528788964024" lon="8.203612899927386"><ele>805.0</ele><time>2026-04-05T12:45:47.998Z</time></trkpt><trkpt lat="44.2726219966487" lon="8.203562970785704"><ele>805.0</ele><time>2026-04-05T12:45:48.998Z</time></trkpt><trkpt lat="44.27269007771566" lon="8.203526501375759"><ele>805.0</ele><time>2026-04-05T12:45:49.998Z</time></trkpt><trkpt lat="44.27277682005894" lon="8.203480035573167"><ele>805.0</ele><time>2026-04-05T12:45:51.998Z</time></trkpt><trkpt lat="44.27283575938523" lon="8.203448463177708"><ele>805.0</ele><time>2026-04-05T12:45:52.998Z</time></trkpt><trkpt lat="44.27300848477424" lon="8.203406439651328"><ele>804.9999999999999</ele><time>2026-04-05T12:45:54Z</time></trkpt><trkpt lat="44.273040253717916" lon="8.20350595974767"><ele>805.0</ele><time>2026-04-05T12:45:56Z</time></trkpt><trkpt lat="44.27298913779501" lon="8.20362920504581"><ele>805.0</ele><time>2026-04-05T12:45:58Z</time></trkpt><trkpt lat="44.27291190865124" lon="8.20366757977641"><ele>805.0</ele><time>2026-04-05T12:45:59Z</time></trkpt><trkpt lat="44.272822857651114" lon="8.203707411142725"><ele>804.9999999999999</ele><time>2026-04-05T12:46:00Z</time></trkpt><trkpt lat="44.27273781455318" lon="8.203748188263543"><ele>805.0</ele><time>2026-04-05T12:46:01Z</time></trkpt><trkpt lat="44.27266283981952" lon="8.203776938536164"><ele>804.9999999999999</ele><time>2026-04-05T12:46:02Z</time></trkpt><trkpt lat="44.27260308443045" lon="8.20385972479596"><ele>805.0</ele><time>2026-04-05T12:46:03Z</time></trkpt><trkpt lat="44.27255848008223" lon="8.203924932213402"><ele>805.0</ele><time>2026-04-05T12:46:04Z</time></trkpt><trkpt lat="44.27256448357208" lon="8.204055786379495"><ele>805.0</ele><time>2026-04-05T12:46:06Z</time></trkpt><trkpt lat="44.27266176143181" lon="8.204103717482225"><ele>804.9999999999999</ele><time>2026-04-05T12:46:08Z</time></trkpt><trkpt lat="44.27272580135413" lon="8.204077565260556"><ele>805.0</ele><time>2026-04-05T12:46:09Z</time></trkpt><trkpt lat="44.272800158176935" lon="8.204015522870673"><ele>804.9999999999999</ele><time>2026-04-05T12:46:10Z</time></trkpt><trkpt lat="44.272884112369084" lon="8.203959179966741"><ele>805.0</ele><time>2026-04-05T12:46:11Z</time></trkpt><trkpt lat="44.27297015615873" lon="8.203940722887802"><ele>805.0</ele><time>2026-04-05T12:46:12Z</time></trkpt><trkpt lat="44.27305543514182" lon="8.203899219558638"><ele>805.0</ele><time>2026-04-05T12:46:13Z</time></trkpt><trkpt lat="44.27312242402449" lon="8.20387126234117"><ele>804.9999999999999</ele><time>2026-04-05T12:46:14Z</time></trkpt><trkpt lat="44.27318565849978" lon="8.203832700916418"><ele>805.0</ele><time>2026-04-05T12:46:15Z</time></trkpt><trkpt lat="44.27325532182818" lon="8.203734054082956"><ele>802.0</ele><time>2026-04-05T12:46:16Z</time></trkpt><trkpt lat="44.273375575422776" lon="8.20366816796429"><ele>799.0</ele><time>2026-04-05T12:46:17Z</time></trkpt><trkpt lat="44.27344581782184" lon="8.203594336475167"><ele>796.0</ele><time>2026-04-05T12:46:18Z</time></trkpt><trkpt lat="44.273525448226366" lon="8.203544219849325"><ele>793.0</ele><time>2026-04-05T12:46:19Z</time></trkpt><trkpt lat="44.27360494059996" lon="8.203500713217338"><ele>790.0</ele><time>2026-04-05T12:46:20Z</time></trkpt><trkpt lat="44.27368307248561" lon="8.20344888578004"><ele>790.0</ele><time>2026-04-05T12:46:21Z</time></trkpt><trkpt lat="44.273763656502645" lon="8.203373769352774"><ele>790.0</ele><time>2026-04-05T12:46:22Z</time></trkpt><trkpt lat="44.27383947171836" lon="8.203273555266057"><ele>790.0</ele><time>2026-04-05T12:46:23Z</time></trkpt><trkpt lat="44.273928075563866" lon="8.203188065829796"><ele>790.0</ele><time>2026-04-05T12:46:24Z</time></trkpt><trkpt lat="44.27399759829033" lon="8.20310593328605"><ele>790.0</ele><time>2026-04-05T12:46:25Z</time></trkpt><trkpt lat="44.27406931199053" lon="8.20302082868428"><ele>787.8</ele><time>2026-04-05T12:46:26Z</time></trkpt><trkpt lat="44.27413674521517" lon="8.202916157765314"><ele>785.6</ele><time>2026-04-05T12:46:27Z</time></trkpt><trkpt lat="44.27422515239008" lon="8.20283628158712"><ele>783.4000000000001</ele><time>2026-04-05T12:46:28Z</time></trkpt><trkpt lat="44.27431040091179" lon="8.202760036204253"><ele>781.2</ele><time>2026-04-05T12:46:29Z</time></trkpt><trkpt lat="44.2743988392062" lon="8.202686219267399"><ele>779.0</ele><time>2026-04-05T12:46:30Z</time></trkpt><trkpt lat="44.27450015434084" lon="8.202645775704141"><ele>779.0</ele><time>2026-04-05T12:46:31Z</time></trkpt><trkpt lat="44.274596270050544" lon="8.202611811633819"><ele>779.0</ele><time>2026-04-05T12:46:32Z</time></trkpt><trkpt lat="44.274690118522784" lon="8.202557218965666"><ele>779.0</ele><time>2026-04-05T12:46:33Z</time></trkpt><trkpt lat="44.27477858105831" lon="8.202537340844355"><ele>779.0</ele><time>2026-04-05T12:46:34Z</time></trkpt><trkpt lat="44.27486751334005" lon="8.202540192967541"><ele>779.0</ele><time>2026-04-05T12:46:35Z</time></trkpt><trkpt lat="44.27495503988362" lon="8.202571259579374"><ele>776.6</ele><time>2026-04-05T12:46:36Z</time></trkpt><trkpt lat="44.27502489697771" lon="8.202675431664485"><ele>774.2</ele><time>2026-04-05T12:46:37Z</time></trkpt><trkpt lat="44.27510075304723" lon="8.202720742859189"><ele>771.8000000000001</ele><time>2026-04-05T12:46:37.999Z</time></trkpt><trkpt lat="44.27518450265526" lon="8.202726404323883"><ele>769.4000000000001</ele><time>2026-04-05T12:46:38.999Z</time></trkpt><trkpt lat="44.27527132384263" lon="8.202725266049105"><ele>767.0</ele><time>2026-04-05T12:46:39.999Z</time></trkpt><trkpt lat="44.27536763771889" lon="8.202689491528307"><ele>767.0</ele><time>2026-04-05T12:46:40.999Z</time></trkpt><trkpt lat="44.27546672470361" lon="8.20262766755626"><ele>767.0</ele><time>2026-04-05T12:46:41.999Z</time></trkpt><trkpt lat="44.275554837581886" lon="8.202556357964738"><ele>767.0</ele><time>2026-04-05T12:46:42.999Z</time></trkpt><trkpt lat="44.275624325438436" lon="8.202451761828492"><ele>767.0</ele><time>2026-04-05T12:46:43.999Z</time></trkpt><trkpt lat="44.275692129309064" lon="8.202365813547697"><ele>767.0</ele><time>2026-04-05T12:46:44.999Z</time></trkpt><trkpt lat="44.275769353207494" lon="8.202297101516697"><ele>769.2</ele><time>2026-04-05T12:46:45.999Z</time></trkpt><trkpt lat="44.27585943621685" lon="8.202260627584824"><ele>771.4000000000001</ele><time>2026-04-05T12:46:46.999Z</time></trkpt><trkpt lat="44.27594099072237" lon="8.202192397178765"><ele>773.5999999999999</ele><time>2026-04-05T12:46:47.999Z</time></trkpt><trkpt lat="44.27602111779129" lon="8.202137653778447"><ele>775.8</ele><time>2026-04-05T12:46:48.999Z</time></trkpt><trkpt lat="44.276107179114184" lon="8.202089984428728"><ele>778.0</ele><time>2026-04-05T12:46:49.999Z</time></trkpt><trkpt lat="44.276195452315086" lon="8.202046165776691"><ele>778.0</ele><time>2026-04-05T12:46:50.999Z</time></trkpt><trkpt lat="44.276267090883735" lon="8.202002395267142"><ele>778.0</ele><time>2026-04-05T12:46:51.999Z</time></trkpt><trkpt lat="44.276380338559484" lon="8.201982183971598"><ele>778.0</ele><time>2026-04-05T12:46:52.999Z</time></trkpt><trkpt lat="44.2764708528341" lon="8.201955154545566"><ele>778.0</ele><time>2026-04-05T12:46:53.999Z</time></trkpt><trkpt lat="44.276556597824715" lon="8.201929455275048"><ele>778.0</ele><time>2026-04-05T12:46:54.999Z</time></trkpt><trkpt lat="44.27665306360581" lon="8.20188354407675"><ele>774.3333333333333</ele><time>2026-04-05T12:46:55.999Z</time></trkpt><trkpt lat="44.2767181007454" lon="8.201805233063277"><ele>770.6666666666666</ele><time>2026-04-05T12:46:56.999Z</time></trkpt><trkpt lat="44.27679154849377" lon="8.201724936659996"><ele>767.0</ele><time>2026-04-05T12:46:57.999Z</time></trkpt><trkpt lat="44.27686358334308" lon="8.201675569324891"><ele>763.3333333333333</ele><time>2026-04-05T12:46:58.999Z</time></trkpt><trkpt lat="44.276922331293804" lon="8.201630328598561"><ele>759.6666666666666</ele><time>2026-04-05T12:46:59.999Z</time></trkpt><trkpt lat="44.27702442151204" lon="8.201674629700948"><ele>756.0</ele><time>2026-04-05T12:47:01.999Z</time></trkpt><trkpt lat="44.27703324822909" lon="8.201826059888667"><ele>756.0</ele><time>2026-04-05T12:47:03.999Z</time></trkpt><trkpt lat="44.27695139237905" lon="8.201981331944582"><ele>756.0</ele><time>2026-04-05T12:47:05.999Z</time></trkpt><trkpt lat="44.276885106303766" lon="8.20206830645541"><ele>756.0</ele><time>2026-04-05T12:47:06.999Z</time></trkpt><trkpt lat="44.27682196299792" lon="8.202169214823133"><ele>756.0</ele><time>2026-04-05T12:47:07.999Z</time></trkpt><trkpt lat="44.2767515357352" lon="8.202277024669282"><ele>756.0</ele><time>2026-04-05T12:47:08.999Z</time></trkpt><trkpt lat="44.276667865420414" lon="8.202385962674233"><ele>756.5999999999999</ele><time>2026-04-05T12:47:09.999Z</time></trkpt><trkpt lat="44.27659386582117" lon="8.20249925496431"><ele>757.2</ele><time>2026-04-05T12:47:10.999Z</time></trkpt><trkpt lat="44.276523166880196" lon="8.202606836931288"><ele>757.8</ele><time>2026-04-05T12:47:11.999Z</time></trkpt><trkpt lat="44.2764532103893" lon="8.202711294691351"><ele>758.4000000000001</ele><time>2026-04-05T12:47:12.999Z</time></trkpt><trkpt lat="44.27639180409414" lon="8.202815980319302"><ele>759.0</ele><time>2026-04-05T12:47:13.999Z</time></trkpt><trkpt lat="44.27633105614912" lon="8.202920274854863"><ele>759.0</ele><time>2026-04-05T12:47:14.999Z</time></trkpt><trkpt lat="44.27626609289687" lon="8.203015524131786"><ele>759.0</ele><time>2026-04-05T12:47:15.999Z</time></trkpt><trkpt lat="44.27619803432574" lon="8.203108914134239"><ele>759.0</ele><time>2026-04-05T12:47:16.999Z</time></trkpt><trkpt lat="44.27612875931807" lon="8.203205649168225"><ele>759.0</ele><time>2026-04-05T12:47:17.999Z</time></trkpt><trkpt lat="44.27605599488029" lon="8.203301688750466"><ele>759.0</ele><time>2026-04-05T12:47:18.999Z</time></trkpt><trkpt lat="44.275984580297276" lon="8.20338973179074"><ele>756.5</ele><time>2026-04-05T12:47:19.999Z</time></trkpt><trkpt lat="44.275912875946666" lon="8.203468071196554"><ele>754.0</ele><time>2026-04-05T12:47:20.999Z</time></trkpt><trkpt lat="44.27584348982949" lon="8.20353434197842"><ele>751.5</ele><time>2026-04-05T12:47:21.999Z</time></trkpt><trkpt lat="44.2757894465276" lon="8.203601229130205"><ele>749.0</ele><time>2026-04-05T12:47:22.999Z</time></trkpt><trkpt lat="44.27575876619169" lon="8.203685336276651"><ele>746.5</ele><time>2026-04-05T12:47:23.999Z</time></trkpt><trkpt lat="44.27576969093517" lon="8.20377613250569"><ele>744.0</ele><time>2026-04-05T12:47:24.999Z</time></trkpt><trkpt lat="44.275825914829255" lon="8.20383136684625"><ele>744.0</ele><time>2026-04-05T12:47:25.999Z</time></trkpt><trkpt lat="44.27588511857463" lon="8.203865403241327"><ele>744.0</ele><time>2026-04-05T12:47:26.998Z</time></trkpt><trkpt lat="44.27598058953451" lon="8.20378750400627"><ele>744.0</ele><time>2026-04-05T12:47:27.998Z</time></trkpt><trkpt lat="44.27604830500652" lon="8.203701230427763"><ele>744.0</ele><time>2026-04-05T12:47:28.998Z</time></trkpt><trkpt lat="44.27613848117099" lon="8.203648764138547"><ele>744.0</ele><time>2026-04-05T12:47:29.998Z</time></trkpt><trkpt lat="44.27621482933397" lon="8.203555898968956"><ele>744.0</ele><time>2026-04-05T12:47:30.998Z</time></trkpt><trkpt lat="44.276307270218894" lon="8.203491228845602"><ele>744.0</ele><time>2026-04-05T12:47:31.998Z</time></trkpt><trkpt lat="44.276386941076474" lon="8.203418892937524"><ele>744.0</ele><time>2026-04-05T12:47:32.998Z</time></trkpt><trkpt lat="44.27646368344595" lon="8.203352681491275"><ele>744.0</ele><time>2026-04-05T12:47:33.998Z</time></trkpt><trkpt lat="44.276535695462385" lon="8.203266735885075"><ele>744.0</ele><time>2026-04-05T12:47:34.998Z</time></trkpt><trkpt lat="44.27660294953949" lon="8.203177736120143"><ele>743.6</ele><time>2026-04-05T12:47:35.998Z</time></trkpt><trkpt lat="44.27666791242517" lon="8.2030861186993"><ele>743.2</ele><time>2026-04-05T12:47:36.998Z</time></trkpt><trkpt lat="44.27672647471489" lon="8.202987267442285"><ele>742.8000000000001</ele><time>2026-04-05T12:47:37.998Z</time></trkpt><trkpt lat="44.27680819584256" lon="8.202910511210131"><ele>742.4000000000001</ele><time>2026-04-05T12:47:38.998Z</time></trkpt><trkpt lat="44.2769375351596" lon="8.202908431472151"><ele>742.0</ele><time>2026-04-05T12:47:39.998Z</time></trkpt><trkpt lat="44.27705047388646" lon="8.202881045160526"><ele>742.0</ele><time>2026-04-05T12:47:40.998Z</time></trkpt><trkpt lat="44.27715640518041" lon="8.202825988834276"><ele>742.0</ele><time>2026-04-05T12:47:41.998Z</time></trkpt><trkpt lat="44.2772587242387" lon="8.202786893175334"><ele>742.0</ele><time>2026-04-05T12:47:42.998Z</time></trkpt><trkpt lat="44.277363158215" lon="8.202737409177994"><ele>742.0</ele><time>2026-04-05T12:47:43.998Z</time></trkpt><trkpt lat="44.27746063528824" lon="8.202684618527751"><ele>742.0</ele><time>2026-04-05T12:47:44.998Z</time></trkpt><trkpt lat="44.27756060838838" lon="8.20261645017318"><ele>740.2</ele><time>2026-04-05T12:47:45.998Z</time></trkpt><trkpt lat="44.27763211056889" lon="8.202539164219004"><ele>738.4000000000001</ele><time>2026-04-05T12:47:46.998Z</time></trkpt><trkpt lat="44.27770090185064" lon="8.202456727317262"><ele>736.5999999999999</ele><time>2026-04-05T12:47:47.998Z</time></trkpt><trkpt lat="44.277753617465635" lon="8.202345685229387"><ele>734.8</ele><time>2026-04-05T12:47:48.998Z</time></trkpt><trkpt lat="44.27779405463963" lon="8.202224156739488"><ele>733.0</ele><time>2026-04-05T12:47:49.998Z</time></trkpt><trkpt lat="44.27781944039012" lon="8.202076454007443"><ele>733.0</ele><time>2026-04-05T12:47:50.998Z</time></trkpt><trkpt lat="44.27783637006461" lon="8.201908892299487"><ele>733.0</ele><time>2026-04-05T12:47:51.998Z</time></trkpt><trkpt lat="44.277854700090685" lon="8.201739979581808"><ele>733.0</ele><time>2026-04-05T12:47:52.998Z</time></trkpt><trkpt lat="44.27788413615355" lon="8.201572552752252"><ele>733.0</ele><time>2026-04-05T12:47:53.998Z</time></trkpt><trkpt lat="44.277911998570374" lon="8.201411181271437"><ele>734.5</ele><time>2026-04-05T12:47:54.998Z</time></trkpt><trkpt lat="44.27793300637815" lon="8.201254745871537"><ele>736.0</ele><time>2026-04-05T12:47:55.998Z</time></trkpt><trkpt lat="44.27795604631309" lon="8.201100285992656"><ele>737.5</ele><time>2026-04-05T12:47:56.998Z</time></trkpt><trkpt lat="44.27799057863332" lon="8.200948372056724"><ele>739.0</ele><time>2026-04-05T12:47:57.998Z</time></trkpt><trkpt lat="44.27804554407548" lon="8.200813242795475"><ele>735.0</ele><time>2026-04-05T12:47:58.998Z</time></trkpt><trkpt lat="44.27812472541731" lon="8.200701849194292"><ele>731.0</ele><time>2026-04-05T12:48:00Z</time></trkpt><trkpt lat="44.27823055038664" lon="8.200616090924255"><ele>727.0</ele><time>2026-04-05T12:48:01Z</time></trkpt><trkpt lat="44.278332948650494" lon="8.200549639864839"><ele>723.0</ele><time>2026-04-05T12:48:02Z</time></trkpt><trkpt lat="44.27840418668237" lon="8.200475087804458"><ele>719.0</ele><time>2026-04-05T12:48:03Z</time></trkpt><trkpt lat="44.27846251967418" lon="8.200357394692507"><ele>719.0</ele><time>2026-04-05T12:48:04Z</time></trkpt><trkpt lat="44.27851473765067" lon="8.200201613283356"><ele>719.0</ele><time>2026-04-05T12:48:05Z</time></trkpt><trkpt lat="44.27856498831325" lon="8.200062577375602"><ele>719.0</ele><time>2026-04-05T12:48:06Z</time></trkpt><trkpt lat="44.278615296380856" lon="8.19993185692974"><ele>719.0</ele><time>2026-04-05T12:48:07Z</time></trkpt><trkpt lat="44.278659623424915" lon="8.199787484866864"><ele>716.8000000000001</ele><time>2026-04-05T12:48:08Z</time></trkpt><trkpt lat="44.27867906620371" lon="8.199634638623177"><ele>714.6</ele><time>2026-04-05T12:48:09Z</time></trkpt><trkpt lat="44.27869598467519" lon="8.199492094422018"><ele>712.4</ele><time>2026-04-05T12:48:10Z</time></trkpt><trkpt lat="44.2787205437972" lon="8.199346794357275"><ele>710.2</ele><time>2026-04-05T12:48:11Z</time></trkpt><trkpt lat="44.278724731296876" lon="8.199195411997364"><ele>708.0</ele><time>2026-04-05T12:48:12Z</time></trkpt><trkpt lat="44.278722646763676" lon="8.199046456800415"><ele>702.5999999999999</ele><time>2026-04-05T12:48:13Z</time></trkpt><trkpt lat="44.2787067135416" lon="8.198900958268446"><ele>697.1999999999999</ele><time>2026-04-05T12:48:14Z</time></trkpt><trkpt lat="44.27868533081723" lon="8.198763504420402"><ele>691.8</ele><time>2026-04-05T12:48:15Z</time></trkpt><trkpt lat="44.27863609616334" lon="8.198649014219647"><ele>686.4</ele><time>2026-04-05T12:48:16Z</time></trkpt><trkpt lat="44.2785952567694" lon="8.198554151787688"><ele>681.0</ele><time>2026-04-05T12:48:17Z</time></trkpt><trkpt lat="44.278522422792165" lon="8.198491107773604"><ele>681.0</ele><time>2026-04-05T12:48:18Z</time></trkpt><trkpt lat="44.27842515204757" lon="8.198447448490349"><ele>681.0</ele><time>2026-04-05T12:48:19Z</time></trkpt><trkpt lat="44.27831476152814" lon="8.198413516373229"><ele>681.0</ele><time>2026-04-05T12:48:20Z</time></trkpt><trkpt lat="44.2781882294044" lon="8.198394668935055"><ele>681.0</ele><time>2026-04-05T12:48:21Z</time></trkpt><trkpt lat="44.27807971236485" lon="8.19841690628712"><ele>682.0</ele><time>2026-04-05T12:48:22Z</time></trkpt><trkpt lat="44.277971193755626" lon="8.198429870557982"><ele>683.0</ele><time>2026-04-05T12:48:23Z</time></trkpt><trkpt lat="44.277863810081875" lon="8.198466131107997"><ele>684.0</ele><time>2026-04-05T12:48:24Z</time></trkpt><trkpt lat="44.277754365795374" lon="8.198464827916458"><ele>685.0</ele><time>2026-04-05T12:48:25Z</time></trkpt><trkpt lat="44.27765420990461" lon="8.198488907321984"><ele>686.0</ele><time>2026-04-05T12:48:26Z</time></trkpt><trkpt lat="44.277546533013414" lon="8.198495029565956"><ele>686.0</ele><time>2026-04-05T12:48:27Z</time></trkpt><trkpt lat="44.277448439174" lon="8.19848330532707"><ele>686.0</ele><time>2026-04-05T12:48:28Z</time></trkpt><trkpt lat="44.27735884006383" lon="8.198400189734343"><ele>686.0</ele><time>2026-04-05T12:48:29Z</time></trkpt><trkpt lat="44.277297999614504" lon="8.198284983214423"><ele>686.0</ele><time>2026-04-05T12:48:30Z</time></trkpt><trkpt lat="44.277245951978436" lon="8.198172709539705"><ele>686.0</ele><time>2026-04-05T12:48:31Z</time></trkpt><trkpt lat="44.27720609650805" lon="8.198062142912763"><ele>683.8</ele><time>2026-04-05T12:48:32Z</time></trkpt><trkpt lat="44.27717382716942" lon="8.197965804625778"><ele>681.5999999999999</ele><time>2026-04-05T12:48:33Z</time></trkpt><trkpt lat="44.27712291930675" lon="8.197840284650022"><ele>679.4</ele><time>2026-04-05T12:48:35Z</time></trkpt><trkpt lat="44.277185040685985" lon="8.197855187085157"><ele>677.2</ele><time>2026-04-05T12:48:43.999Z</time></trkpt><trkpt lat="44.27726855469626" lon="8.19804261589716"><ele>675.0</ele><time>2026-04-05T12:48:45.999Z</time></trkpt><trkpt lat="44.27731346119216" lon="8.198109517444546"><ele>676.8333333333334</ele><time>2026-04-05T12:48:46.999Z</time></trkpt><trkpt lat="44.277361828111914" lon="8.198181309234496"><ele>678.6666666666666</ele><time>2026-04-05T12:48:47.999Z</time></trkpt><trkpt lat="44.277415927729635" lon="8.198241576299168"><ele>680.5</ele><time>2026-04-05T12:48:48.999Z</time></trkpt><trkpt lat="44.277471194889095" lon="8.19828987519964"><ele>682.3333333333333</ele><time>2026-04-05T12:48:49.999Z</time></trkpt><trkpt lat="44.27753410174181" lon="8.19831638255648"><ele>684.1666666666666</ele><time>2026-04-05T12:48:50.999Z</time></trkpt><trkpt lat="44.277663929378186" lon="8.198308502287109"><ele>686.0</ele><time>2026-04-05T12:48:52.999Z</time></trkpt><trkpt lat="44.2777353796641" lon="8.198291021318498"><ele>686.0</ele><time>2026-04-05T12:48:53.999Z</time></trkpt><trkpt lat="44.277808688940524" lon="8.198280850555347"><ele>686.0</ele><time>2026-04-05T12:48:54.999Z</time></trkpt><trkpt lat="44.27787895680764" lon="8.19826456725689"><ele>686.0</ele><time>2026-04-05T12:48:55.999Z</time></trkpt><trkpt lat="44.27794475489625" lon="8.198244226719522"><ele>686.0</ele><time>2026-04-05T12:48:56.999Z</time></trkpt><trkpt lat="44.278009574413524" lon="8.198212948455252"><ele>686.0</ele><time>2026-04-05T12:48:57.999Z</time></trkpt><trkpt lat="44.27807239863381" lon="8.198175264618595"><ele>686.0</ele><time>2026-04-05T12:48:58.999Z</time></trkpt><trkpt lat="44.278184698626454" lon="8.198126927032014"><ele>682.8</ele><time>2026-04-05T12:49:00.999Z</time></trkpt><trkpt lat="44.278303212192675" lon="8.198114297390461"><ele>679.5999999999999</ele><time>2026-04-05T12:49:02.999Z</time></trkpt><trkpt lat="44.27841531086313" lon="8.198106563083856"><ele>676.4</ele><time>2026-04-05T12:49:04.999Z</time></trkpt><trkpt lat="44.27853849274637" lon="8.19805059631532"><ele>673.2</ele><time>2026-04-05T12:49:06.999Z</time></trkpt><trkpt lat="44.2786026842974" lon="8.198013135998652"><ele>670.0</ele><time>2026-04-05T12:49:07.999Z</time></trkpt><trkpt lat="44.27867266402209" lon="8.197977964706855"><ele>670.0</ele><time>2026-04-05T12:49:08.999Z</time></trkpt><trkpt lat="44.278745524806915" lon="8.197956094746404"><ele>670.0</ele><time>2026-04-05T12:49:09.999Z</time></trkpt><trkpt lat="44.27881658687577" lon="8.197946040130576"><ele>670.0</ele><time>2026-04-05T12:49:10.999Z</time></trkpt><trkpt lat="44.27891776421499" lon="8.197937271996404"><ele>670.0</ele><time>2026-04-05T12:49:12.999Z</time></trkpt><trkpt lat="44.27893038725608" lon="8.19754473622475"><ele>669.2</ele><time>2026-04-05T12:49:18.999Z</time></trkpt><trkpt lat="44.2790105647328" lon="8.197451990206368"><ele>668.4</ele><time>2026-04-05T12:49:21.999Z</time></trkpt><trkpt lat="44.27909890137022" lon="8.197470795476448"><ele>667.5999999999999</ele><time>2026-04-05T12:49:22.999Z</time></trkpt><trkpt lat="44.27917953035214" lon="8.197477432659054"><ele>666.8</ele><time>2026-04-05T12:49:23.999Z</time></trkpt><trkpt lat="44.27926032753404" lon="8.197478861280553"><ele>666.0</ele><time>2026-04-05T12:49:24.999Z</time></trkpt><trkpt lat="44.279363238882695" lon="8.197480300421669"><ele>666.0</ele><time>2026-04-05T12:49:25.999Z</time></trkpt><trkpt lat="44.279474017327416" lon="8.197490342717106"><ele>666.0</ele><time>2026-04-05T12:49:26.999Z</time></trkpt><trkpt lat="44.279583278512895" lon="8.197511908010394"><ele>666.0</ele><time>2026-04-05T12:49:27.999Z</time></trkpt><trkpt lat="44.27969041684254" lon="8.197538197059957"><ele>666.0</ele><time>2026-04-05T12:49:28.999Z</time></trkpt><trkpt lat="44.27980593323322" lon="8.197570831191976"><ele>666.0</ele><time>2026-04-05T12:49:29.998Z</time></trkpt><trkpt lat="44.27992478368858" lon="8.197622171185893"><ele>666.75</ele><time>2026-04-05T12:49:30.998Z</time></trkpt><trkpt lat="44.28004156690009" lon="8.197683279774264"><ele>667.5</ele><time>2026-04-05T12:49:31.998Z</time></trkpt><trkpt lat="44.2801537204256" lon="8.197771493118626"><ele>668.25</ele><time>2026-04-05T12:49:32.998Z</time></trkpt><trkpt lat="44.28025315319674" lon="8.197885827858517"><ele>669.0</ele><time>2026-04-05T12:49:33.998Z</time></trkpt><trkpt lat="44.28033197546619" lon="8.19801855202865"><ele>669.0</ele><time>2026-04-05T12:49:34.998Z</time></trkpt><trkpt lat="44.280392432145355" lon="8.198165078055396"><ele>669.0</ele><time>2026-04-05T12:49:35.998Z</time></trkpt><trkpt lat="44.28042309828113" lon="8.198326577878566"><ele>669.0</ele><time>2026-04-05T12:49:36.998Z</time></trkpt><trkpt lat="44.28043207566619" lon="8.1984920542252"><ele>669.0</ele><time>2026-04-05T12:49:37.998Z</time></trkpt><trkpt lat="44.28042860693371" lon="8.19864952503242"><ele>667.0</ele><time>2026-04-05T12:49:38.998Z</time></trkpt><trkpt lat="44.28040177541276" lon="8.198815807556771"><ele>665.0</ele><time>2026-04-05T12:49:39.998Z</time></trkpt><trkpt lat="44.28038693744486" lon="8.198968604104948"><ele>663.0</ele><time>2026-04-05T12:49:40.998Z</time></trkpt><trkpt lat="44.280369299992124" lon="8.199126732132452"><ele>661.0</ele><time>2026-04-05T12:49:41.998Z</time></trkpt><trkpt lat="44.28034724210826" lon="8.199289479906216"><ele>661.0</ele><time>2026-04-05T12:49:42.998Z</time></trkpt><trkpt lat="44.28032442976926" lon="8.199451986796143"><ele>661.0</ele><time>2026-04-05T12:49:43.998Z</time></trkpt><trkpt lat="44.280304767276846" lon="8.199607978701302"><ele>661.0</ele><time>2026-04-05T12:49:44.998Z</time></trkpt><trkpt lat="44.28029376040998" lon="8.199758858413665"><ele>661.0</ele><time>2026-04-05T12:49:45.998Z</time></trkpt><trkpt lat="44.28028656769083" lon="8.199897459451924"><ele>661.0</ele><time>2026-04-05T12:49:46.998Z</time></trkpt><trkpt lat="44.28028493451398" lon="8.200022729831907"><ele>660.4</ele><time>2026-04-05T12:49:47.998Z</time></trkpt><trkpt lat="44.28030207866054" lon="8.200141728241222"><ele>659.8</ele><time>2026-04-05T12:49:48.998Z</time></trkpt><trkpt lat="44.28032469349853" lon="8.200258890802647"><ele>659.1999999999999</ele><time>2026-04-05T12:49:49.998Z</time></trkpt><trkpt lat="44.280396770471086" lon="8.200349325177752"><ele>658.5999999999999</ele><time>2026-04-05T12:49:50.998Z</time></trkpt><trkpt lat="44.2804626578438" lon="8.200444359417798"><ele>658.0</ele><time>2026-04-05T12:49:51.998Z</time></trkpt><trkpt lat="44.28054134614415" lon="8.200532894558421"><ele>658.2</ele><time>2026-04-05T12:49:52.998Z</time></trkpt><trkpt lat="44.28061655333546" lon="8.200626289694027"><ele>658.4</ele><time>2026-04-05T12:49:53.998Z</time></trkpt><trkpt lat="44.28070870280522" lon="8.20071103108536"><ele>658.6</ele><time>2026-04-05T12:49:54.998Z</time></trkpt><trkpt lat="44.28080645934224" lon="8.20079535965349"><ele>658.8000000000001</ele><time>2026-04-05T12:49:55.998Z</time></trkpt><trkpt lat="44.280897640252284" lon="8.200881035940649"><ele>659.0</ele><time>2026-04-05T12:49:56.998Z</time></trkpt><trkpt lat="44.2809820705502" lon="8.200958260646265"><ele>659.0</ele><time>2026-04-05T12:49:57.998Z</time></trkpt><trkpt lat="44.2810550050038" lon="8.201026384014575"><ele>659.0</ele><time>2026-04-05T12:49:58.998Z</time></trkpt><trkpt lat="44.28112236181276" lon="8.201093888915373"><ele>659.0</ele><time>2026-04-05T12:49:59.998Z</time></trkpt><trkpt lat="44.281181424846004" lon="8.201168676477547"><ele>659.0</ele><time>2026-04-05T12:50:00.998Z</time></trkpt><trkpt lat="44.28124918167338" lon="8.201233616154946"><ele>659.0</ele><time>2026-04-05T12:50:01.998Z</time></trkpt><trkpt lat="44.28131748091499" lon="8.201302243805001"><ele>659.0</ele><time>2026-04-05T12:50:02.998Z</time></trkpt><trkpt lat="44.28139237083463" lon="8.20138213533291"><ele>658.8000000000001</ele><time>2026-04-05T12:50:03.998Z</time></trkpt><trkpt lat="44.28147621918561" lon="8.201471164966138"><ele>658.6</ele><time>2026-04-05T12:50:04.998Z</time></trkpt><trkpt lat="44.28155852440886" lon="8.201557516887512"><ele>658.4</ele><time>2026-04-05T12:50:06Z</time></trkpt><trkpt lat="44.28163644098839" lon="8.201642018231563"><ele>658.2</ele><time>2026-04-05T12:50:07Z</time></trkpt><trkpt lat="44.28172671709974" lon="8.201696336020465"><ele>658.0</ele><time>2026-04-05T12:50:08Z</time></trkpt><trkpt lat="44.281820098420184" lon="8.20176750978508"><ele>658.0</ele><time>2026-04-05T12:50:09Z</time></trkpt><trkpt lat="44.281927147732894" lon="8.201820158169992"><ele>658.0</ele><time>2026-04-05T12:50:10Z</time></trkpt><trkpt lat="44.28203515660101" lon="8.201877722706927"><ele>658.0</ele><time>2026-04-05T12:50:11Z</time></trkpt><trkpt lat="44.2821430257749" lon="8.201935780296369"><ele>658.0</ele><time>2026-04-05T12:50:12Z</time></trkpt><trkpt lat="44.28226162308075" lon="8.201986137554506"><ele>658.75</ele><time>2026-04-05T12:50:13Z</time></trkpt><trkpt lat="44.282378665727016" lon="8.202039689443074"><ele>659.5</ele><time>2026-04-05T12:50:14Z</time></trkpt><trkpt lat="44.2824963169186" lon="8.202094908051501"><ele>660.25</ele><time>2026-04-05T12:50:15Z</time></trkpt><trkpt lat="44.28261626573748" lon="8.202145349413819"><ele>661.0</ele><time>2026-04-05T12:50:16Z</time></trkpt><trkpt lat="44.28273599465715" lon="8.202198816509064"><ele>661.0</ele><time>2026-04-05T12:50:17Z</time></trkpt><trkpt lat="44.28284601427369" lon="8.20229012878921"><ele>661.0</ele><time>2026-04-05T12:50:18Z</time></trkpt><trkpt lat="44.282965507649976" lon="8.202352229054657"><ele>661.0</ele><time>2026-04-05T12:50:19Z</time></trkpt><trkpt lat="44.283070983525796" lon="8.202439286369003"><ele>661.0</ele><time>2026-04-05T12:50:20Z</time></trkpt><trkpt lat="44.28318004034355" lon="8.20252498479982"><ele>659.25</ele><time>2026-04-05T12:50:21Z</time></trkpt><trkpt lat="44.283284880838664" lon="8.202605033273855"><ele>657.5</ele><time>2026-04-05T12:50:22Z</time></trkpt><trkpt lat="44.28339084511701" lon="8.202693451966732"><ele>655.75</ele><time>2026-04-05T12:50:23Z</time></trkpt><trkpt lat="44.283485432022594" lon="8.202757899628908"><ele>654.0</ele><time>2026-04-05T12:50:24Z</time></trkpt><trkpt lat="44.28357267680282" lon="8.20283502161681"><ele>654.0</ele><time>2026-04-05T12:50:25Z</time></trkpt><trkpt lat="44.283666603059366" lon="8.202899581940708"><ele>654.0</ele><time>2026-04-05T12:50:26Z</time></trkpt><trkpt lat="44.28377054050019" lon="8.202924463183072"><ele>654.0</ele><time>2026-04-05T12:50:27Z</time></trkpt><trkpt lat="44.28388885359114" lon="8.202954014672127"><ele>654.0</ele><time>2026-04-05T12:50:28Z</time></trkpt><trkpt lat="44.28400474635445" lon="8.202975317770875"><ele>654.0</ele><time>2026-04-05T12:50:29Z</time></trkpt><trkpt lat="44.28411872518242" lon="8.202992566873753"><ele>654.4000000000001</ele><time>2026-04-05T12:50:30Z</time></trkpt><trkpt lat="44.28422400259682" lon="8.202985244338192"><ele>654.8</ele><time>2026-04-05T12:50:31Z</time></trkpt><trkpt lat="44.28432389563941" lon="8.202977900261486"><ele>655.2</ele><time>2026-04-05T12:50:32Z</time></trkpt><trkpt lat="44.284415426544626" lon="8.202969606900263"><ele>655.5999999999999</ele><time>2026-04-05T12:50:33Z</time></trkpt><trkpt lat="44.284501902647456" lon="8.202956693395668"><ele>656.0</ele><time>2026-04-05T12:50:34Z</time></trkpt><trkpt lat="44.28458891458906" lon="8.202971831638246"><ele>656.0</ele><time>2026-04-05T12:50:35Z</time></trkpt><trkpt lat="44.28468312942063" lon="8.203014292575416"><ele>656.0</ele><time>2026-04-05T12:50:36Z</time></trkpt><trkpt lat="44.28475507737368" lon="8.203098355857808"><ele>656.0</ele><time>2026-04-05T12:50:37Z</time></trkpt><trkpt lat="44.28480930931034" lon="8.203183932491791"><ele>656.0</ele><time>2026-04-05T12:50:38Z</time></trkpt><trkpt lat="44.28486065808308" lon="8.203273019178727"><ele>656.0</ele><time>2026-04-05T12:50:39Z</time></trkpt><trkpt lat="44.28489304907781" lon="8.203379268882253"><ele>656.0</ele><time>2026-04-05T12:50:40Z</time></trkpt><trkpt lat="44.284933996178374" lon="8.203491649927576"><ele>653.5999999999999</ele><time>2026-04-05T12:50:41Z</time></trkpt><trkpt lat="44.28497516138181" lon="8.203605499781629"><ele>651.2</ele><time>2026-04-05T12:50:42Z</time></trkpt><trkpt lat="44.28501872289407" lon="8.203732619116966"><ele>648.8</ele><time>2026-04-05T12:50:43Z</time></trkpt><trkpt lat="44.28508063892457" lon="8.203853767270422"><ele>646.4000000000001</ele><time>2026-04-05T12:50:43.999Z</time></trkpt><trkpt lat="44.28511931754085" lon="8.203986292765439"><ele>644.0</ele><time>2026-04-05T12:50:44.999Z</time></trkpt><trkpt lat="44.28516597279408" lon="8.204099156118259"><ele>644.0</ele><time>2026-04-05T12:50:45.999Z</time></trkpt><trkpt lat="44.28523285648609" lon="8.204192692442565"><ele>644.0</ele><time>2026-04-05T12:50:46.999Z</time></trkpt><trkpt lat="44.2853279863857" lon="8.204259786301412"><ele>644.0</ele><time>2026-04-05T12:50:47.999Z</time></trkpt><trkpt lat="44.2854418773727" lon="8.204283086376051"><ele>644.0</ele><time>2026-04-05T12:50:48.999Z</time></trkpt><trkpt lat="44.28556936751625" lon="8.204271730970076"><ele>644.0</ele><time>2026-04-05T12:50:49.999Z</time></trkpt><trkpt lat="44.28570507649437" lon="8.204232192452348"><ele>645.0</ele><time>2026-04-05T12:50:50.999Z</time></trkpt><trkpt lat="44.2858507613872" lon="8.20420423426106"><ele>646.0</ele><time>2026-04-05T12:50:51.999Z</time></trkpt><trkpt lat="44.286007562849605" lon="8.204177333039024"><ele>647.0</ele><time>2026-04-05T12:50:52.999Z</time></trkpt><trkpt lat="44.28616844296833" lon="8.2041495109901"><ele>647.0</ele><time>2026-04-05T12:50:53.999Z</time></trkpt><trkpt lat="44.28632608666875" lon="8.20411589008714"><ele>647.0</ele><time>2026-04-05T12:50:54.999Z</time></trkpt><trkpt lat="44.28649188747088" lon="8.204096327154893"><ele>647.0</ele><time>2026-04-05T12:50:55.999Z</time></trkpt><trkpt lat="44.28665161737023" lon="8.204072309265765"><ele>645.25</ele><time>2026-04-05T12:50:56.999Z</time></trkpt><trkpt lat="44.28679750423447" lon="8.204056363759074"><ele>643.5</ele><time>2026-04-05T12:50:57.999Z</time></trkpt><trkpt lat="44.286926148062804" lon="8.20401588470522"><ele>641.75</ele><time>2026-04-05T12:50:58.999Z</time></trkpt><trkpt lat="44.28703979660432" lon="8.203950716686409"><ele>640.0</ele><time>2026-04-05T12:50:59.999Z</time></trkpt><trkpt lat="44.28714225190214" lon="8.203842792155548"><ele>640.0</ele><time>2026-04-05T12:51:00.999Z</time></trkpt><trkpt lat="44.28723434761833" lon="8.20371316656675"><ele>640.0</ele><time>2026-04-05T12:51:01.999Z</time></trkpt><trkpt lat="44.28732578919407" lon="8.203611542073949"><ele>640.0</ele><time>2026-04-05T12:51:02.999Z</time></trkpt><trkpt lat="44.28744126179336" lon="8.203546146021752"><ele>640.0</ele><time>2026-04-05T12:51:03.999Z</time></trkpt><trkpt lat="44.28757995903903" lon="8.203493764581232"><ele>641.6666666666667</ele><time>2026-04-05T12:51:04.999Z</time></trkpt><trkpt lat="44.2877404240711" lon="8.203463494607197"><ele>643.3333333333334</ele><time>2026-04-05T12:51:05.999Z</time></trkpt><trkpt lat="44.28791630803387" lon="8.203440195061019"><ele>645.0</ele><time>2026-04-05T12:51:06.999Z</time></trkpt><trkpt lat="44.28808926588679" lon="8.203428382169015"><ele>646.0</ele><time>2026-04-05T12:51:07.999Z</time></trkpt><trkpt lat="44.28823819626543" lon="8.203393956859088"><ele>647.0</ele><time>2026-04-05T12:51:08.999Z</time></trkpt><trkpt lat="44.288388554317656" lon="8.203293871709063"><ele>648.0</ele><time>2026-04-05T12:51:09.999Z</time></trkpt><trkpt lat="44.28852927631417" lon="8.203189714020592"><ele>646.0</ele><time>2026-04-05T12:51:10.999Z</time></trkpt><trkpt lat="44.28867899795504" lon="8.203066773592353"><ele>644.0</ele><time>2026-04-05T12:51:11.999Z</time></trkpt><trkpt lat="44.28881431376083" lon="8.202929278858624"><ele>642.0</ele><time>2026-04-05T12:51:12.999Z</time></trkpt><trkpt lat="44.28892929183924" lon="8.202798925403876"><ele>642.0</ele><time>2026-04-05T12:51:13.999Z</time></trkpt><trkpt lat="44.289043696872355" lon="8.202669423617882"><ele>642.0</ele><time>2026-04-05T12:51:14.999Z</time></trkpt><trkpt lat="44.28915130410371" lon="8.202549068856444"><ele>642.0</ele><time>2026-04-05T12:51:15.999Z</time></trkpt><trkpt lat="44.28928406093624" lon="8.202472986814925"><ele>642.0</ele><time>2026-04-05T12:51:16.999Z</time></trkpt><trkpt lat="44.28942174299204" lon="8.202405446342393"><ele>642.0</ele><time>2026-04-05T12:51:17.999Z</time></trkpt><trkpt lat="44.28956737603677" lon="8.20234012577232"><ele>642.0</ele><time>2026-04-05T12:51:18.999Z</time></trkpt><trkpt lat="44.28972763134406" lon="8.202268892745352"><ele>642.0</ele><time>2026-04-05T12:51:19.999Z</time></trkpt><trkpt lat="44.28989870791562" lon="8.202192849758147"><ele>640.0</ele><time>2026-04-05T12:51:20.999Z</time></trkpt><trkpt lat="44.29007919486887" lon="8.202109886592593"><ele>638.0</ele><time>2026-04-05T12:51:21.999Z</time></trkpt><trkpt lat="44.290260468109665" lon="8.202025045280608"><ele>636.0</ele><time>2026-04-05T12:51:22.999Z</time></trkpt><trkpt lat="44.290422673750946" lon="8.201929536127908"><ele>636.0</ele><time>2026-04-05T12:51:23.999Z</time></trkpt><trkpt lat="44.29057764007942" lon="8.201860586777455"><ele>636.0</ele><time>2026-04-05T12:51:24.999Z</time></trkpt><trkpt lat="44.290727234653446" lon="8.201798473145237"><ele>636.0</ele><time>2026-04-05T12:51:25.999Z</time></trkpt><trkpt lat="44.29086718158858" lon="8.201740484258917"><ele>637.6666666666666</ele><time>2026-04-05T12:51:26.999Z</time></trkpt><trkpt lat="44.291011651445494" lon="8.201693457807918"><ele>639.3333333333333</ele><time>2026-04-05T12:51:27.999Z</time></trkpt><trkpt lat="44.29116204476837" lon="8.201674892816813"><ele>641.0</ele><time>2026-04-05T12:51:28.999Z</time></trkpt><trkpt lat="44.29131245436181" lon="8.201705068027197"><ele>642.0</ele><time>2026-04-05T12:51:29.999Z</time></trkpt><trkpt lat="44.29146770539331" lon="8.201712261226728"><ele>643.0</ele><time>2026-04-05T12:51:30.999Z</time></trkpt><trkpt lat="44.29162005146548" lon="8.201697201616524"><ele>644.0</ele><time>2026-04-05T12:51:31.999Z</time></trkpt><trkpt lat="44.291778883320376" lon="8.201704206447994"><ele>644.0</ele><time>2026-04-05T12:51:32.998Z</time></trkpt><trkpt lat="44.29194664289859" lon="8.201741355843161"><ele>644.0</ele><time>2026-04-05T12:51:33.998Z</time></trkpt><trkpt lat="44.292117892077016" lon="8.201805941953955"><ele>644.0</ele><time>2026-04-05T12:51:34.998Z</time></trkpt><trkpt lat="44.292290846659874" lon="8.20186482640899"><ele>643.3333333333333</ele><time>2026-04-05T12:51:35.998Z</time></trkpt><trkpt lat="44.29246182099662" lon="8.20191851810591"><ele>642.6666666666666</ele><time>2026-04-05T12:51:36.998Z</time></trkpt><trkpt lat="44.29265386380793" lon="8.201943963711013"><ele>642.0</ele><time>2026-04-05T12:51:37.998Z</time></trkpt><trkpt lat="44.29285468276131" lon="8.201965729267457"><ele>642.0</ele><time>2026-04-05T12:51:38.998Z</time></trkpt><trkpt lat="44.293068213098366" lon="8.20195649153498"><ele>642.0</ele><time>2026-04-05T12:51:39.998Z</time></trkpt><trkpt lat="44.29329025275458" lon="8.201944508428442"><ele>642.0</ele><time>2026-04-05T12:51:40.998Z</time></trkpt><trkpt lat="44.293510539073914" lon="8.201931740177438"><ele>640.6666666666666</ele><time>2026-04-05T12:51:41.998Z</time></trkpt><trkpt lat="44.29372938941644" lon="8.201921077002837"><ele>639.3333333333333</ele><time>2026-04-05T12:51:42.998Z</time></trkpt><trkpt lat="44.29394658044967" lon="8.201912313776903"><ele>638.0</ele><time>2026-04-05T12:51:43.998Z</time></trkpt><trkpt lat="44.29415624172602" lon="8.201901031113916"><ele>636.6666666666666</ele><time>2026-04-05T12:51:44.998Z</time></trkpt><trkpt lat="44.29435453383246" lon="8.201890111549229"><ele>635.3333333333334</ele><time>2026-04-05T12:51:45.998Z</time></trkpt><trkpt lat="44.29455463196604" lon="8.201879092510005"><ele>634.0</ele><time>2026-04-05T12:51:46.998Z</time></trkpt><trkpt lat="44.294753404993294" lon="8.201869993660837"><ele>635.3333333333334</ele><time>2026-04-05T12:51:47.998Z</time></trkpt><trkpt lat="44.29495121932597" lon="8.201871045495988"><ele>636.6666666666666</ele><time>2026-04-05T12:51:48.998Z</time></trkpt><trkpt lat="44.29517090651022" lon="8.201887264556817"><ele>638.0</ele><time>2026-04-05T12:51:49.998Z</time></trkpt><trkpt lat="44.295393344168865" lon="8.201907931321363"><ele>639.3333333333333</ele><time>2026-04-05T12:51:50.998Z</time></trkpt><trkpt lat="44.2956052111489" lon="8.201926697455505"><ele>640.6666666666666</ele><time>2026-04-05T12:51:51.998Z</time></trkpt><trkpt lat="44.29575874699856" lon="8.201941875794253"><ele>642.0</ele><time>2026-04-05T12:51:52.998Z</time></trkpt><trkpt lat="44.29593902398165" lon="8.201960477283611"><ele>642.0</ele><time>2026-04-05T12:51:53.998Z</time></trkpt><trkpt lat="44.2961074823107" lon="8.201975399006594"><ele>642.0</ele><time>2026-04-05T12:51:54.998Z</time></trkpt><trkpt lat="44.29627371402994" lon="8.20198588893959"><ele>642.0</ele><time>2026-04-05T12:51:55.998Z</time></trkpt><trkpt lat="44.29644994901093" lon="8.201991132334777"><ele>641.0</ele><time>2026-04-05T12:51:56.998Z</time></trkpt><trkpt lat="44.296647617894614" lon="8.201955751571111"><ele>640.0</ele><time>2026-04-05T12:51:57.998Z</time></trkpt><trkpt lat="44.29684109978401" lon="8.201893556471951"><ele>639.0</ele><time>2026-04-05T12:51:58.998Z</time></trkpt><trkpt lat="44.29703841474163" lon="8.201826681301506"><ele>639.0</ele><time>2026-04-05T12:51:59.998Z</time></trkpt><trkpt lat="44.29723976610407" lon="8.201748434554675"><ele>639.0</ele><time>2026-04-05T12:52:00.998Z</time></trkpt><trkpt lat="44.29742698273221" lon="8.201693780806261"><ele>639.0</ele><time>2026-04-05T12:52:01.998Z</time></trkpt><trkpt lat="44.297606543695835" lon="8.201650077029596"><ele>638.6666666666666</ele><time>2026-04-05T12:52:02.998Z</time></trkpt><trkpt lat="44.29778680208834" lon="8.201598032894282"><ele>638.3333333333333</ele><time>2026-04-05T12:52:03.998Z</time></trkpt><trkpt lat="44.29796906293377" lon="8.201532939840686"><ele>638.0</ele><time>2026-04-05T12:52:04.998Z</time></trkpt><trkpt lat="44.298153525724096" lon="8.201450285493689"><ele>638.0</ele><time>2026-04-05T12:52:05.998Z</time></trkpt><trkpt lat="44.298324336331866" lon="8.201328923768388"><ele>638.0</ele><time>2026-04-05T12:52:06.998Z</time></trkpt><trkpt lat="44.298492287235725" lon="8.20123308096253"><ele>638.0</ele><time>2026-04-05T12:52:07.998Z</time></trkpt><trkpt lat="44.29865443222472" lon="8.201166368002177"><ele>638.0</ele><time>2026-04-05T12:52:08.998Z</time></trkpt><trkpt lat="44.29880175152998" lon="8.201083447375552"><ele>638.0</ele><time>2026-04-05T12:52:09.998Z</time></trkpt><trkpt lat="44.29893849111092" lon="8.200987363378697"><ele>638.0</ele><time>2026-04-05T12:52:10.998Z</time></trkpt><trkpt lat="44.299068644702615" lon="8.200907877773044"><ele>636.75</ele><time>2026-04-05T12:52:12Z</time></trkpt><trkpt lat="44.2991945884998" lon="8.200822565014004"><ele>635.5</ele><time>2026-04-05T12:52:13Z</time></trkpt><trkpt lat="44.29931196541368" lon="8.200711299774987"><ele>634.25</ele><time>2026-04-05T12:52:14Z</time></trkpt><trkpt lat="44.299422328724916" lon="8.200560363686199"><ele>633.0</ele><time>2026-04-05T12:52:15Z</time></trkpt><trkpt lat="44.29952397978385" lon="8.2003789401695"><ele>633.0</ele><time>2026-04-05T12:52:16Z</time></trkpt><trkpt lat="44.299625969203014" lon="8.200191860465928"><ele>633.0</ele><time>2026-04-05T12:52:17Z</time></trkpt><trkpt lat="44.29972575497485" lon="8.200020375821808"><ele>633.0</ele><time>2026-04-05T12:52:18Z</time></trkpt><trkpt lat="44.29981954718024" lon="8.199862510073038"><ele>633.25</ele><time>2026-04-05T12:52:19Z</time></trkpt><trkpt lat="44.29991146896322" lon="8.199709457769126"><ele>633.5</ele><time>2026-04-05T12:52:20Z</time></trkpt><trkpt lat="44.30000920779617" lon="8.199562290089414"><ele>633.75</ele><time>2026-04-05T12:52:21Z</time></trkpt><trkpt lat="44.30011036920059" lon="8.199434294415681"><ele>634.0</ele><time>2026-04-05T12:52:22Z</time></trkpt><trkpt lat="44.30023017768685" lon="8.199355759659637"><ele>634.0</ele><time>2026-04-05T12:52:23Z</time></trkpt><trkpt lat="44.30035917272502" lon="8.199273624175136"><ele>634.0</ele><time>2026-04-05T12:52:24Z</time></trkpt><trkpt lat="44.30049124024814" lon="8.199204675232233"><ele>634.0</ele><time>2026-04-05T12:52:25Z</time></trkpt><trkpt lat="44.30062139045219" lon="8.19915402430643"><ele>634.0</ele><time>2026-04-05T12:52:26Z</time></trkpt><trkpt lat="44.30072747001656" lon="8.199175183134866"><ele>636.75</ele><time>2026-04-05T12:52:27Z</time></trkpt><trkpt lat="44.30085256806956" lon="8.199208928426865"><ele>639.5</ele><time>2026-04-05T12:52:28Z</time></trkpt><trkpt lat="44.3009844893847" lon="8.199250596601399"><ele>642.25</ele><time>2026-04-05T12:52:29Z</time></trkpt><trkpt lat="44.30113785502397" lon="8.199268380889484"><ele>645.0</ele><time>2026-04-05T12:52:30Z</time></trkpt><trkpt lat="44.30128700013519" lon="8.199190860732054"><ele>645.0</ele><time>2026-04-05T12:52:31Z</time></trkpt><trkpt lat="44.30140276154952" lon="8.199144436531311"><ele>645.0</ele><time>2026-04-05T12:52:32Z</time></trkpt><trkpt lat="44.30154386994792" lon="8.19906338398218"><ele>645.0</ele><time>2026-04-05T12:52:33Z</time></trkpt><trkpt lat="44.301678670157635" lon="8.198978787719412"><ele>645.0</ele><time>2026-04-05T12:52:34Z</time></trkpt><trkpt lat="44.30180875980246" lon="8.198880462685471"><ele>641.3333333333334</ele><time>2026-04-05T12:52:35Z</time></trkpt><trkpt lat="44.30192540976532" lon="8.198745889143154"><ele>637.6666666666667</ele><time>2026-04-05T12:52:36Z</time></trkpt><trkpt lat="44.302038735273015" lon="8.198580635307456"><ele>634.0</ele><time>2026-04-05T12:52:37Z</time></trkpt><trkpt lat="44.30214395388315" lon="8.198389531030983"><ele>634.0</ele><time>2026-04-05T12:52:38Z</time></trkpt><trkpt lat="44.302228340930945" lon="8.19818441399987"><ele>634.0</ele><time>2026-04-05T12:52:39Z</time></trkpt><trkpt lat="44.30229300809827" lon="8.197982971686296"><ele>634.0</ele><time>2026-04-05T12:52:40Z</time></trkpt><trkpt lat="44.302362530737945" lon="8.197800912324377"><ele>633.25</ele><time>2026-04-05T12:52:41Z</time></trkpt><trkpt lat="44.302453093408964" lon="8.197637520933927"><ele>632.5</ele><time>2026-04-05T12:52:42Z</time></trkpt><trkpt lat="44.30256218103497" lon="8.197501947348927"><ele>631.75</ele><time>2026-04-05T12:52:43Z</time></trkpt><trkpt lat="44.30270037197985" lon="8.19740814250776"><ele>631.0</ele><time>2026-04-05T12:52:43.999Z</time></trkpt><trkpt lat="44.30283866260747" lon="8.197320499109926"><ele>631.0</ele><time>2026-04-05T12:52:44.999Z</time></trkpt><trkpt lat="44.30299113459433" lon="8.197265760585209"><ele>631.0</ele><time>2026-04-05T12:52:45.999Z</time></trkpt><trkpt lat="44.303161010498066" lon="8.197213361447378"><ele>631.0</ele><time>2026-04-05T12:52:46.999Z</time></trkpt><trkpt lat="44.303334521637154" lon="8.197161127919008"><ele>631.6666666666667</ele><time>2026-04-05T12:52:47.999Z</time></trkpt><trkpt lat="44.30350601054424" lon="8.197082999534183"><ele>632.3333333333334</ele><time>2026-04-05T12:52:48.999Z</time></trkpt><trkpt lat="44.30367468226951" lon="8.197048588356198"><ele>633.0</ele><time>2026-04-05T12:52:49.999Z</time></trkpt><trkpt lat="44.30384092802275" lon="8.19698277386978"><ele>637.0</ele><time>2026-04-05T12:52:50.999Z</time></trkpt><trkpt lat="44.304006286014435" lon="8.19687096248546"><ele>641.0</ele><time>2026-04-05T12:52:51.999Z</time></trkpt><trkpt lat="44.304169404396674" lon="8.19676836588532"><ele>645.0</ele><time>2026-04-05T12:52:52.999Z</time></trkpt><trkpt lat="44.304312204875345" lon="8.196612260963077"><ele>640.3333333333334</ele><time>2026-04-05T12:52:53.999Z</time></trkpt><trkpt lat="44.30445552124533" lon="8.19644060081432"><ele>635.6666666666667</ele><time>2026-04-05T12:52:54.999Z</time></trkpt><trkpt lat="44.30459537899719" lon="8.19627094282323"><ele>631.0</ele><time>2026-04-05T12:52:55.999Z</time></trkpt><trkpt lat="44.304722240972346" lon="8.196099960976236"><ele>637.0</ele><time>2026-04-05T12:52:56.999Z</time></trkpt><trkpt lat="44.30486419861028" lon="8.195942365653627"><ele>643.0</ele><time>2026-04-05T12:52:57.999Z</time></trkpt><trkpt lat="44.305012629026216" lon="8.19580507430043"><ele>649.0</ele><time>2026-04-05T12:52:58.999Z</time></trkpt><trkpt lat="44.30516993313882" lon="8.195674764683858"><ele>647.6666666666667</ele><time>2026-04-05T12:52:59.999Z</time></trkpt><trkpt lat="44.30533023749468" lon="8.195549705143325"><ele>646.3333333333334</ele><time>2026-04-05T12:53:00.999Z</time></trkpt><trkpt lat="44.30548933452609" lon="8.195458034376871"><ele>645.0</ele><time>2026-04-05T12:53:01.999Z</time></trkpt><trkpt lat="44.30562431365476" lon="8.195337597991294"><ele>645.0</ele><time>2026-04-05T12:53:02.999Z</time></trkpt><trkpt lat="44.305752615240074" lon="8.195252447608906"><ele>645.0</ele><time>2026-04-05T12:53:03.999Z</time></trkpt><trkpt lat="44.3058670852894" lon="8.195181491062783"><ele>645.0</ele><time>2026-04-05T12:53:04.999Z</time></trkpt><trkpt lat="44.30598662029424" lon="8.195129197380158"><ele>645.0</ele><time>2026-04-05T12:53:05.999Z</time></trkpt><trkpt lat="44.306109385998816" lon="8.195110605074209"><ele>645.0</ele><time>2026-04-05T12:53:06.999Z</time></trkpt><trkpt lat="44.30621607311148" lon="8.195166352557804"><ele>645.0</ele><time>2026-04-05T12:53:07.999Z</time></trkpt><trkpt lat="44.30633418700083" lon="8.195216501555032"><ele>645.0</ele><time>2026-04-05T12:53:08.999Z</time></trkpt><trkpt lat="44.30645082832263" lon="8.195320332451352"><ele>645.0</ele><time>2026-04-05T12:53:09.999Z</time></trkpt><trkpt lat="44.30657096719187" lon="8.195434136448503"><ele>643.0</ele><time>2026-04-05T12:53:10.999Z</time></trkpt><trkpt lat="44.30671403385354" lon="8.19555315066983"><ele>641.0</ele><time>2026-04-05T12:53:11.999Z</time></trkpt><trkpt lat="44.30684444781851" lon="8.19565099876909"><ele>639.0</ele><time>2026-04-05T12:53:12.999Z</time></trkpt><trkpt lat="44.30697509149819" lon="8.195728722631728"><ele>639.75</ele><time>2026-04-05T12:53:13.999Z</time></trkpt><trkpt lat="44.307099266174994" lon="8.19579420232249"><ele>640.5</ele><time>2026-04-05T12:53:14.999Z</time></trkpt><trkpt lat="44.307225209896096" lon="8.195863209762422"><ele>641.25</ele><time>2026-04-05T12:53:15.999Z</time></trkpt><trkpt lat="44.30733952744741" lon="8.195947136048732"><ele>642.0</ele><time>2026-04-05T12:53:16.999Z</time></trkpt><trkpt lat="44.30743776419012" lon="8.196079400371481"><ele>642.0</ele><time>2026-04-05T12:53:17.999Z</time></trkpt><trkpt lat="44.30752218120346" lon="8.19625300520374"><ele>642.0</ele><time>2026-04-05T12:53:18.999Z</time></trkpt><trkpt lat="44.30763001209324" lon="8.196428302457207"><ele>642.0</ele><time>2026-04-05T12:53:19.999Z</time></trkpt><trkpt lat="44.30775597176752" lon="8.19657776792746"><ele>640.0</ele><time>2026-04-05T12:53:20.999Z</time></trkpt><trkpt lat="44.30788826730187" lon="8.196720397755271"><ele>638.0</ele><time>2026-04-05T12:53:21.999Z</time></trkpt><trkpt lat="44.30802928349529" lon="8.196869520539586"><ele>636.0</ele><time>2026-04-05T12:53:22.999Z</time></trkpt><trkpt lat="44.30817398193739" lon="8.1970238923395"><ele>636.0</ele><time>2026-04-05T12:53:23.999Z</time></trkpt><trkpt lat="44.30832120447997" lon="8.19718286746143"><ele>636.0</ele><time>2026-04-05T12:53:24.999Z</time></trkpt><trkpt lat="44.308473801484844" lon="8.197348763218642"><ele>636.0</ele><time>2026-04-05T12:53:25.999Z</time></trkpt><trkpt lat="44.30862696285443" lon="8.197517493934322"><ele>635.6666666666666</ele><time>2026-04-05T12:53:26.999Z</time></trkpt><trkpt lat="44.308783096935116" lon="8.197690233684233"><ele>635.3333333333333</ele><time>2026-04-05T12:53:27.999Z</time></trkpt><trkpt lat="44.308943110347485" lon="8.197860525001715"><ele>635.0</ele><time>2026-04-05T12:53:28.999Z</time></trkpt><trkpt lat="44.309098843194114" lon="8.198028798533137"><ele>643.3333333333333</ele><time>2026-04-05T12:53:29.999Z</time></trkpt><trkpt lat="44.309248491081334" lon="8.198196264856529"><ele>651.6666666666666</ele><time>2026-04-05T12:53:30.999Z</time></trkpt><trkpt lat="44.30938015045309" lon="8.198354607135226"><ele>660.0</ele><time>2026-04-05T12:53:31.999Z</time></trkpt><trkpt lat="44.30950182743706" lon="8.198512648034015"><ele>660.0</ele><time>2026-04-05T12:53:32.999Z</time></trkpt><trkpt lat="44.30961623219388" lon="8.19865645251286"><ele>660.0</ele><time>2026-04-05T12:53:33.998Z</time></trkpt><trkpt lat="44.309732748858615" lon="8.19878496859046"><ele>660.0</ele><time>2026-04-05T12:53:34.998Z</time></trkpt><trkpt lat="44.309886985595675" lon="8.198892225554685"><ele>659.0</ele><time>2026-04-05T12:53:35.998Z</time></trkpt><trkpt lat="44.309983908825416" lon="8.198982984822203"><ele>658.0</ele><time>2026-04-05T12:53:36.998Z</time></trkpt><trkpt lat="44.3101193986774" lon="8.199024044157776"><ele>657.0</ele><time>2026-04-05T12:53:37.998Z</time></trkpt><trkpt lat="44.3102378624351" lon="8.199085314076276"><ele>656.0</ele><time>2026-04-05T12:53:38.998Z</time></trkpt><trkpt lat="44.31035072255099" lon="8.199121322934928"><ele>656.0</ele><time>2026-04-05T12:53:39.998Z</time></trkpt><trkpt lat="44.310456744551594" lon="8.199150450843236"><ele>656.0</ele><time>2026-04-05T12:53:40.998Z</time></trkpt><trkpt lat="44.310550922246705" lon="8.199169406758264"><ele>656.0</ele><time>2026-04-05T12:53:41.998Z</time></trkpt><trkpt lat="44.31062891655546" lon="8.199219244753957"><ele>656.0</ele><time>2026-04-05T12:53:42.998Z</time></trkpt><trkpt lat="44.310693019651026" lon="8.199293279573407"><ele>656.0</ele><time>2026-04-05T12:53:43.998Z</time></trkpt><trkpt lat="44.31071714537179" lon="8.199411637688094"><ele>651.5999999999999</ele><time>2026-04-05T12:53:44.998Z</time></trkpt><trkpt lat="44.3107341387785" lon="8.19953126527417"><ele>647.1999999999999</ele><time>2026-04-05T12:53:45.998Z</time></trkpt><trkpt lat="44.31072173663715" lon="8.199642238819063"><ele>642.8</ele><time>2026-04-05T12:53:46.998Z</time></trkpt><trkpt lat="44.310688204924844" lon="8.199784515470839"><ele>638.4</ele><time>2026-04-05T12:53:47.998Z</time></trkpt><trkpt lat="44.31065050793855" lon="8.199942340078742"><ele>634.0</ele><time>2026-04-05T12:53:48.998Z</time></trkpt><trkpt lat="44.310602238015846" lon="8.20009649447359"><ele>642.75</ele><time>2026-04-05T12:53:49.998Z</time></trkpt><trkpt lat="44.31053321437467" lon="8.200253392950685"><ele>651.5</ele><time>2026-04-05T12:53:50.998Z</time></trkpt><trkpt lat="44.31049451252286" lon="8.200412993669913"><ele>660.25</ele><time>2026-04-05T12:53:51.998Z</time></trkpt><trkpt lat="44.31044940355994" lon="8.200550446329384"><ele>669.0</ele><time>2026-04-05T12:53:52.998Z</time></trkpt><trkpt lat="44.31041278002527" lon="8.200672580308947"><ele>669.0</ele><time>2026-04-05T12:53:53.998Z</time></trkpt><trkpt lat="44.31037347902006" lon="8.200777817363768"><ele>669.0</ele><time>2026-04-05T12:53:54.998Z</time></trkpt><trkpt lat="44.310349642678005" lon="8.20088343666013"><ele>669.0</ele><time>2026-04-05T12:53:55.998Z</time></trkpt><trkpt lat="44.31034496755327" lon="8.200974611165822"><ele>669.0</ele><time>2026-04-05T12:53:56.998Z</time></trkpt><trkpt lat="44.310459471794466" lon="8.201084460075942"><ele>669.0</ele><time>2026-04-05T12:53:58.998Z</time></trkpt><trkpt lat="44.31055646596605" lon="8.201098134806537"><ele>659.25</ele><time>2026-04-05T12:53:59.998Z</time></trkpt><trkpt lat="44.31066798713497" lon="8.201086287439166"><ele>649.5</ele><time>2026-04-05T12:54:00.998Z</time></trkpt><trkpt lat="44.310784586544564" lon="8.201092631751575"><ele>639.75</ele><time>2026-04-05T12:54:01.998Z</time></trkpt><trkpt lat="44.31089738787292" lon="8.20109881021121"><ele>630.0</ele><time>2026-04-05T12:54:02.998Z</time></trkpt><trkpt lat="44.31100986309968" lon="8.201159298668328"><ele>630.0</ele><time>2026-04-05T12:54:03.998Z</time></trkpt><trkpt lat="44.311119475147486" lon="8.201220154954374"><ele>630.0</ele><time>2026-04-05T12:54:04.998Z</time></trkpt><trkpt lat="44.31121891213404" lon="8.201281724096996"><ele>630.0</ele><time>2026-04-05T12:54:05.998Z</time></trkpt><trkpt lat="44.311294751687896" lon="8.201343261442444"><ele>630.0</ele><time>2026-04-05T12:54:06.998Z</time></trkpt><trkpt lat="44.31134013339569" lon="8.201424784319261"><ele>630.0</ele><time>2026-04-05T12:54:07.998Z</time></trkpt><trkpt lat="44.31136161107111" lon="8.201517441369147"><ele>633.25</ele><time>2026-04-05T12:54:08.998Z</time></trkpt><trkpt lat="44.31131917742762" lon="8.201607331984397"><ele>636.5</ele><time>2026-04-05T12:54:09.998Z</time></trkpt><trkpt lat="44.311273472760675" lon="8.201738412862236"><ele>639.75</ele><time>2026-04-05T12:54:10.998Z</time></trkpt><trkpt lat="44.31123305543911" lon="8.201913403258978"><ele>643.0</ele><time>2026-04-05T12:54:11.998Z</time></trkpt><trkpt lat="44.31119040171508" lon="8.20211867965888"><ele>643.0</ele><time>2026-04-05T12:54:12.998Z</time></trkpt><trkpt lat="44.311148765612934" lon="8.202325568730817"><ele>643.0</ele><time>2026-04-05T12:54:13.998Z</time></trkpt><trkpt lat="44.31111248201127" lon="8.202528113407796"><ele>643.0</ele><time>2026-04-05T12:54:14.998Z</time></trkpt><trkpt lat="44.31109575505421" lon="8.202705927769475"><ele>643.0</ele><time>2026-04-05T12:54:15.998Z</time></trkpt><trkpt lat="44.31106114420798" lon="8.202880583792115"><ele>642.75</ele><time>2026-04-05T12:54:16.998Z</time></trkpt><trkpt lat="44.311079433098534" lon="8.203070556880855"><ele>642.5</ele><time>2026-04-05T12:54:18Z</time></trkpt><trkpt lat="44.31111786202403" lon="8.203242673265162"><ele>642.25</ele><time>2026-04-05T12:54:19Z</time></trkpt><trkpt lat="44.31116527253691" lon="8.203377610492714"><ele>642.0</ele><time>2026-04-05T12:54:20Z</time></trkpt><trkpt lat="44.311244129579414" lon="8.203499458590445"><ele>642.4000000000001</ele><time>2026-04-05T12:54:21Z</time></trkpt><trkpt lat="44.311345373021766" lon="8.203592118873132"><ele>642.8000000000001</ele><time>2026-04-05T12:54:22Z</time></trkpt><trkpt lat="44.31145570253101" lon="8.203639832091705"><ele>643.2</ele><time>2026-04-05T12:54:23Z</time></trkpt><trkpt lat="44.3115319571135" lon="8.203739851633541"><ele>643.6</ele><time>2026-04-05T12:54:24Z</time></trkpt><trkpt lat="44.31157097060243" lon="8.203853410804934"><ele>644.0</ele><time>2026-04-05T12:54:25Z</time></trkpt><trkpt lat="44.31158652815955" lon="8.204026372210464"><ele>637.3333333333333</ele><time>2026-04-05T12:54:26Z</time></trkpt><trkpt lat="44.31159926530105" lon="8.204147887737129"><ele>630.6666666666666</ele><time>2026-04-05T12:54:27Z</time></trkpt><trkpt lat="44.311639620983954" lon="8.204222983194672"><ele>624.0</ele><time>2026-04-05T12:54:28Z</time></trkpt><trkpt lat="44.31170100144625" lon="8.204283816477195"><ele>617.3333333333334</ele><time>2026-04-05T12:54:29Z</time></trkpt><trkpt lat="44.31177593351133" lon="8.204287337454044"><ele>610.6666666666667</ele><time>2026-04-05T12:54:30Z</time></trkpt><trkpt lat="44.31185567826985" lon="8.20421225389803"><ele>604.0</ele><time>2026-04-05T12:54:31Z</time></trkpt><trkpt lat="44.3118962620579" lon="8.204117127027631"><ele>604.0</ele><time>2026-04-05T12:54:32Z</time></trkpt><trkpt lat="44.31188317929921" lon="8.203999880931125"><ele>604.0</ele><time>2026-04-05T12:54:33Z</time></trkpt><trkpt lat="44.31183221516758" lon="8.203887541014334"><ele>604.0</ele><time>2026-04-05T12:54:34Z</time></trkpt><trkpt lat="44.31176872733618" lon="8.203771487811952"><ele>604.0</ele><time>2026-04-05T12:54:35Z</time></trkpt><trkpt lat="44.31169997850964" lon="8.203626025396728"><ele>604.0</ele><time>2026-04-05T12:54:36Z</time></trkpt><trkpt lat="44.311627817883235" lon="8.203497898225805"><ele>603.75</ele><time>2026-04-05T12:54:37Z</time></trkpt><trkpt lat="44.311566911598895" lon="8.2033778978684"><ele>603.5</ele><time>2026-04-05T12:54:38Z</time></trkpt><trkpt lat="44.31152906526685" lon="8.203232730858055"><ele>603.25</ele><time>2026-04-05T12:54:39Z</time></trkpt><trkpt lat="44.31149112587891" lon="8.203075469703851"><ele>603.0</ele><time>2026-04-05T12:54:40Z</time></trkpt><trkpt lat="44.311475651766465" lon="8.20290497033754"><ele>602.25</ele><time>2026-04-05T12:54:41Z</time></trkpt><trkpt lat="44.311495151716095" lon="8.20274553703901"><ele>601.5</ele><time>2026-04-05T12:54:42Z</time></trkpt><trkpt lat="44.3115259778108" lon="8.202553593414333"><ele>600.75</ele><time>2026-04-05T12:54:43Z</time></trkpt><trkpt lat="44.31159122620524" lon="8.202384058999355"><ele>600.0</ele><time>2026-04-05T12:54:44Z</time></trkpt><trkpt lat="44.31164906560167" lon="8.202185673605422"><ele>600.0</ele><time>2026-04-05T12:54:45Z</time></trkpt><trkpt lat="44.31172071735147" lon="8.201993913207112"><ele>600.0</ele><time>2026-04-05T12:54:46Z</time></trkpt><trkpt lat="44.31179489123119" lon="8.201816651106844"><ele>600.0</ele><time>2026-04-05T12:54:47Z</time></trkpt><trkpt lat="44.31185869672826" lon="8.201644974901784"><ele>600.0</ele><time>2026-04-05T12:54:48Z</time></trkpt><trkpt lat="44.31190507669473" lon="8.20147374208504"><ele>598.6</ele><time>2026-04-05T12:54:49Z</time></trkpt><trkpt lat="44.31193708263532" lon="8.20131337949487"><ele>597.2</ele><time>2026-04-05T12:54:50Z</time></trkpt><trkpt lat="44.31194160698618" lon="8.201170288507601"><ele>595.8</ele><time>2026-04-05T12:54:51Z</time></trkpt><trkpt lat="44.31193962915256" lon="8.201042487694389"><ele>594.4</ele><time>2026-04-05T12:54:51.999Z</time></trkpt><trkpt lat="44.31198217766932" lon="8.200968861923108"><ele>593.0</ele><time>2026-04-05T12:54:52.999Z</time></trkpt><trkpt lat="44.312056489581984" lon="8.200956354858993"><ele>593.0</ele><time>2026-04-05T12:54:53.999Z</time></trkpt><trkpt lat="44.312118904878254" lon="8.20101557540613"><ele>593.0</ele><time>2026-04-05T12:54:54.999Z</time></trkpt><trkpt lat="44.31214585878213" lon="8.201121570982632"><ele>593.0</ele><time>2026-04-05T12:54:55.999Z</time></trkpt><trkpt lat="44.312104552595" lon="8.201255846388097"><ele>593.0</ele><time>2026-04-05T12:54:56.999Z</time></trkpt><trkpt lat="44.3120857953222" lon="8.201410949637076"><ele>593.0</ele><time>2026-04-05T12:54:57.999Z</time></trkpt><trkpt lat="44.31206043335305" lon="8.201600853354948"><ele>594.75</ele><time>2026-04-05T12:54:58.999Z</time></trkpt><trkpt lat="44.31203202968969" lon="8.201797881961394"><ele>596.5</ele><time>2026-04-05T12:54:59.999Z</time></trkpt><trkpt lat="44.31200306034524" lon="8.201976946009918"><ele>598.25</ele><time>2026-04-05T12:55:00.999Z</time></trkpt><trkpt lat="44.31198880824484" lon="8.202157472320627"><ele>600.0</ele><time>2026-04-05T12:55:01.999Z</time></trkpt><trkpt lat="44.311972526871166" lon="8.202329728027937"><ele>599.75</ele><time>2026-04-05T12:55:02.999Z</time></trkpt><trkpt lat="44.31197381144551" lon="8.202506203722477"><ele>599.5</ele><time>2026-04-05T12:55:03.999Z</time></trkpt><trkpt lat="44.312008379531804" lon="8.202689175455182"><ele>599.25</ele><time>2026-04-05T12:55:04.999Z</time></trkpt><trkpt lat="44.31206890274864" lon="8.202863984022436"><ele>599.0</ele><time>2026-04-05T12:55:05.999Z</time></trkpt><trkpt lat="44.312145217118854" lon="8.20303673968345"><ele>600.3333333333333</ele><time>2026-04-05T12:55:06.999Z</time></trkpt><trkpt lat="44.31222692282989" lon="8.20321787933371"><ele>601.6666666666666</ele><time>2026-04-05T12:55:07.999Z</time></trkpt><trkpt lat="44.31230495379181" lon="8.203412695901994"><ele>603.0</ele><time>2026-04-05T12:55:08.999Z</time></trkpt><trkpt lat="44.31238076989556" lon="8.203604498764639"><ele>595.25</ele><time>2026-04-05T12:55:09.999Z</time></trkpt><trkpt lat="44.31245474158216" lon="8.20378846392319"><ele>587.5</ele><time>2026-04-05T12:55:10.999Z</time></trkpt><trkpt lat="44.3125208419563" lon="8.203964960615824"><ele>579.75</ele><time>2026-04-05T12:55:11.999Z</time></trkpt><trkpt lat="44.312587554544514" lon="8.204134865067312"><ele>572.0</ele><time>2026-04-05T12:55:12.999Z</time></trkpt><trkpt lat="44.31266392595803" lon="8.20428863386334"><ele>572.0</ele><time>2026-04-05T12:55:13.999Z</time></trkpt><trkpt lat="44.31271940584479" lon="8.204443360504722"><ele>572.0</ele><time>2026-04-05T12:55:14.999Z</time></trkpt><trkpt lat="44.312764398851336" lon="8.204567506995987"><ele>572.0</ele><time>2026-04-05T12:55:15.999Z</time></trkpt><trkpt lat="44.312788289591566" lon="8.204685409389194"><ele>572.0</ele><time>2026-04-05T12:55:16.999Z</time></trkpt><trkpt lat="44.31278574574743" lon="8.204801830964215"><ele>572.0</ele><time>2026-04-05T12:55:17.999Z</time></trkpt><trkpt lat="44.312707782614375" lon="8.204871932315932"><ele>569.5</ele><time>2026-04-05T12:55:18.999Z</time></trkpt><trkpt lat="44.3126211299024" lon="8.204904734842295"><ele>567.0</ele><time>2026-04-05T12:55:19.999Z</time></trkpt><trkpt lat="44.31251801190071" lon="8.204969901529157"><ele>564.5</ele><time>2026-04-05T12:55:20.999Z</time></trkpt><trkpt lat="44.31238478456551" lon="8.20502753025201"><ele>562.0</ele><time>2026-04-05T12:55:21.999Z</time></trkpt><trkpt lat="44.3122426077347" lon="8.205110855715354"><ele>568.6666666666667</ele><time>2026-04-05T12:55:22.999Z</time></trkpt><trkpt lat="44.31209778661623" lon="8.205184803059703"><ele>575.3333333333334</ele><time>2026-04-05T12:55:23.999Z</time></trkpt><trkpt lat="44.311930636514326" lon="8.20525093623219"><ele>582.0</ele><time>2026-04-05T12:55:24.999Z</time></trkpt><trkpt lat="44.3117847193274" lon="8.205329424370316"><ele>582.0</ele><time>2026-04-05T12:55:25.999Z</time></trkpt><trkpt lat="44.31166355957227" lon="8.20541817577076"><ele>582.0</ele><time>2026-04-05T12:55:26.999Z</time></trkpt><trkpt lat="44.311536521707204" lon="8.205501315009116"><ele>582.0</ele><time>2026-04-05T12:55:27.999Z</time></trkpt><trkpt lat="44.311417791593456" lon="8.205598062036783"><ele>582.0</ele><time>2026-04-05T12:55:28.999Z</time></trkpt><trkpt lat="44.311314572324854" lon="8.205716648498557"><ele>580.0</ele><time>2026-04-05T12:55:29.999Z</time></trkpt><trkpt lat="44.31122822690589" lon="8.20585636974034"><ele>578.0</ele><time>2026-04-05T12:55:30.999Z</time></trkpt><trkpt lat="44.31117838753809" lon="8.206031622123295"><ele>576.0</ele><time>2026-04-05T12:55:31.999Z</time></trkpt><trkpt lat="44.311144111275226" lon="8.206226619368707"><ele>574.0</ele><time>2026-04-05T12:55:32.999Z</time></trkpt><trkpt lat="44.311148980742985" lon="8.206446980499756"><ele>575.0</ele><time>2026-04-05T12:55:33.999Z</time></trkpt><trkpt lat="44.311189351699646" lon="8.206679082090181"><ele>576.0</ele><time>2026-04-05T12:55:34.999Z</time></trkpt><trkpt lat="44.31121770385647" lon="8.206939843061571"><ele>577.0</ele><time>2026-04-05T12:55:35.999Z</time></trkpt><trkpt lat="44.311264688120964" lon="8.207212465289825"><ele>579.3333333333334</ele><time>2026-04-05T12:55:36.999Z</time></trkpt><trkpt lat="44.31131697898845" lon="8.207506236785886"><ele>581.6666666666666</ele><time>2026-04-05T12:55:37.999Z</time></trkpt><trkpt lat="44.311370564282456" lon="8.207806777567301"><ele>584.0</ele><time>2026-04-05T12:55:38.999Z</time></trkpt><trkpt lat="44.311421152804584" lon="8.208097241658603"><ele>570.0</ele><time>2026-04-05T12:55:39.999Z</time></trkpt><trkpt lat="44.31147043430359" lon="8.208390624847423"><ele>556.0</ele><time>2026-04-05T12:55:40.999Z</time></trkpt><trkpt lat="44.311522225466824" lon="8.208676319671998"><ele>542.0</ele><time>2026-04-05T12:55:41.999Z</time></trkpt><trkpt lat="44.31158397929475" lon="8.208939459503034"><ele>543.0</ele><time>2026-04-05T12:55:42.999Z</time></trkpt><trkpt lat="44.311614957136456" lon="8.20919971170305"><ele>544.0</ele><time>2026-04-05T12:55:43.999Z</time></trkpt><trkpt lat="44.311657180922396" lon="8.209444808658"><ele>545.0</ele><time>2026-04-05T12:55:44.999Z</time></trkpt><trkpt lat="44.31170024659457" lon="8.209685425195628"><ele>547.3333333333333</ele><time>2026-04-05T12:55:45.998Z</time></trkpt><trkpt lat="44.31175779578453" lon="8.209914049235447"><ele>549.6666666666666</ele><time>2026-04-05T12:55:46.998Z</time></trkpt><trkpt lat="44.311779415146766" lon="8.210125410038414"><ele>552.0</ele><time>2026-04-05T12:55:47.998Z</time></trkpt><trkpt lat="44.31183055468566" lon="8.210300492218167"><ele>552.0</ele><time>2026-04-05T12:55:48.998Z</time></trkpt><trkpt lat="44.311866541705115" lon="8.21046632993355"><ele>552.0</ele><time>2026-04-05T12:55:49.998Z</time></trkpt><trkpt lat="44.31189855941316" lon="8.210629506845523"><ele>552.0</ele><time>2026-04-05T12:55:50.998Z</time></trkpt><trkpt lat="44.311964078967556" lon="8.210793678921078"><ele>552.0</ele><time>2026-04-05T12:55:51.998Z</time></trkpt><trkpt lat="44.312041813645244" lon="8.210955956879879"><ele>555.5</ele><time>2026-04-05T12:55:52.998Z</time></trkpt><trkpt lat="44.31211714748456" lon="8.211100494986658"><ele>559.0</ele><time>2026-04-05T12:55:53.998Z</time></trkpt><trkpt lat="44.31221052910887" lon="8.211211710980242"><ele>562.5</ele><time>2026-04-05T12:55:54.998Z</time></trkpt><trkpt lat="44.31230297604216" lon="8.211305791388366"><ele>566.0</ele><time>2026-04-05T12:55:55.998Z</time></trkpt><trkpt lat="44.312418792216114" lon="8.211371961244438"><ele>558.8</ele><time>2026-04-05T12:55:56.998Z</time></trkpt><trkpt lat="44.31253156663976" lon="8.21142025264144"><ele>551.6</ele><time>2026-04-05T12:55:57.998Z</time></trkpt><trkpt lat="44.3126403902902" lon="8.211430142722334"><ele>544.4</ele><time>2026-04-05T12:55:58.998Z</time></trkpt><trkpt lat="44.31274438017907" lon="8.211390787948089"><ele>537.2</ele><time>2026-04-05T12:55:59.998Z</time></trkpt><trkpt lat="44.31283536261886" lon="8.211296536078736"><ele>530.0</ele><time>2026-04-05T12:56:00.998Z</time></trkpt><trkpt lat="44.31291961153865" lon="8.211181294607245"><ele>530.0</ele><time>2026-04-05T12:56:01.998Z</time></trkpt><trkpt lat="44.31297759967248" lon="8.211021191094341"><ele>530.0</ele><time>2026-04-05T12:56:02.998Z</time></trkpt><trkpt lat="44.31301589361052" lon="8.210846778322503"><ele>530.0</ele><time>2026-04-05T12:56:03.998Z</time></trkpt><trkpt lat="44.31304151563583" lon="8.210694880308015"><ele>530.0</ele><time>2026-04-05T12:56:04.998Z</time></trkpt><trkpt lat="44.31308969568827" lon="8.210556429774424"><ele>529.2</ele><time>2026-04-05T12:56:05.998Z</time></trkpt><trkpt lat="44.313160010714554" lon="8.210442901406779"><ele>528.4</ele><time>2026-04-05T12:56:06.998Z</time></trkpt><trkpt lat="44.313250782094016" lon="8.210364866476391"><ele>527.6</ele><time>2026-04-05T12:56:07.998Z</time></trkpt><trkpt lat="44.3133482870231" lon="8.21033540845257"><ele>526.8</ele><time>2026-04-05T12:56:08.998Z</time></trkpt><trkpt lat="44.31344123469184" lon="8.21034762816484"><ele>526.0</ele><time>2026-04-05T12:56:09.998Z</time></trkpt><trkpt lat="44.31351050882176" lon="8.21043409297183"><ele>526.0</ele><time>2026-04-05T12:56:10.998Z</time></trkpt><trkpt lat="44.31355985079293" lon="8.210537855518472"><ele>526.0</ele><time>2026-04-05T12:56:11.998Z</time></trkpt><trkpt lat="44.313599944194465" lon="8.210681101603564"><ele>526.0</ele><time>2026-04-05T12:56:12.998Z</time></trkpt><trkpt lat="44.313663108698776" lon="8.210843268282947"><ele>526.0</ele><time>2026-04-05T12:56:13.998Z</time></trkpt><trkpt lat="44.313763057175656" lon="8.21100085697315"><ele>526.6666666666667</ele><time>2026-04-05T12:56:14.998Z</time></trkpt><trkpt lat="44.31383979662495" lon="8.211195684326531"><ele>527.3333333333334</ele><time>2026-04-05T12:56:15.998Z</time></trkpt><trkpt lat="44.31392624417444" lon="8.21140206178755"><ele>528.0</ele><time>2026-04-05T12:56:16.998Z</time></trkpt><trkpt lat="44.314012260171765" lon="8.21162292000701"><ele>526.3333333333334</ele><time>2026-04-05T12:56:17.998Z</time></trkpt><trkpt lat="44.3140746680017" lon="8.211875868387027"><ele>524.6666666666667</ele><time>2026-04-05T12:56:18.998Z</time></trkpt><trkpt lat="44.31416732680589" lon="8.212111275801593"><ele>523.0</ele><time>2026-04-05T12:56:19.998Z</time></trkpt><trkpt lat="44.314261040663695" lon="8.212348739121774"><ele>523.0</ele><time>2026-04-05T12:56:20.998Z</time></trkpt><trkpt lat="44.31434761676366" lon="8.212567620610043"><ele>523.0</ele><time>2026-04-05T12:56:21.998Z</time></trkpt><trkpt lat="44.31442421671798" lon="8.212763102851229"><ele>523.0</ele><time>2026-04-05T12:56:22.998Z</time></trkpt><trkpt lat="44.31449066857857" lon="8.212936372657694"><ele>523.0</ele><time>2026-04-05T12:56:24Z</time></trkpt><trkpt lat="44.31454565653222" lon="8.213099261678652"><ele>523.0</ele><time>2026-04-05T12:56:25Z</time></trkpt><trkpt lat="44.31458621847836" lon="8.213262430394"><ele>523.0</ele><time>2026-04-05T12:56:26Z</time></trkpt><trkpt lat="44.31461559982401" lon="8.213445627451271"><ele>523.0</ele><time>2026-04-05T12:56:27Z</time></trkpt><trkpt lat="44.31462887264579" lon="8.213653201868842"><ele>527.6666666666667</ele><time>2026-04-05T12:56:28Z</time></trkpt><trkpt lat="44.31464171602631" lon="8.213887487010142"><ele>532.3333333333334</ele><time>2026-04-05T12:56:29Z</time></trkpt><trkpt lat="44.31465601249052" lon="8.214099531505743"><ele>537.0</ele><time>2026-04-05T12:56:30Z</time></trkpt><trkpt lat="44.314682808681674" lon="8.214315354179133"><ele>530.6666666666666</ele><time>2026-04-05T12:56:31Z</time></trkpt><trkpt lat="44.314740690605085" lon="8.214538358328358"><ele>524.3333333333333</ele><time>2026-04-05T12:56:32Z</time></trkpt><trkpt lat="44.31481685635459" lon="8.214736108155522"><ele>518.0</ele><time>2026-04-05T12:56:33Z</time></trkpt><trkpt lat="44.31488932069968" lon="8.214917842725665"><ele>518.0</ele><time>2026-04-05T12:56:34Z</time></trkpt><trkpt lat="44.314962662273835" lon="8.215082538797544"><ele>518.0</ele><time>2026-04-05T12:56:35Z</time></trkpt><trkpt lat="44.31503828860234" lon="8.21523132875444"><ele>518.0</ele><time>2026-04-05T12:56:36Z</time></trkpt><trkpt lat="44.31513793254426" lon="8.215360387486202"><ele>518.0</ele><time>2026-04-05T12:56:37Z</time></trkpt><trkpt lat="44.3152588480871" lon="8.215470458109733"><ele>518.0</ele><time>2026-04-05T12:56:38Z</time></trkpt><trkpt lat="44.31540206920915" lon="8.21556214207867"><ele>518.0</ele><time>2026-04-05T12:56:39Z</time></trkpt><trkpt lat="44.31556157961139" lon="8.2156232131483"><ele>518.0</ele><time>2026-04-05T12:56:40Z</time></trkpt><trkpt lat="44.31571421133135" lon="8.215729540319515"><ele>519.0</ele><time>2026-04-05T12:56:41Z</time></trkpt><trkpt lat="44.31588176936763" lon="8.215811094782389"><ele>520.0</ele><time>2026-04-05T12:56:42Z</time></trkpt><trkpt lat="44.31606985088356" lon="8.215866579777535"><ele>521.0</ele><time>2026-04-05T12:56:43Z</time></trkpt><trkpt lat="44.316271698983044" lon="8.215888566558755"><ele>518.0</ele><time>2026-04-05T12:56:44Z</time></trkpt><trkpt lat="44.316470914594355" lon="8.215940023175387"><ele>515.0</ele><time>2026-04-05T12:56:45Z</time></trkpt><trkpt lat="44.31667033021893" lon="8.215990572340242"><ele>512.0</ele><time>2026-04-05T12:56:46Z</time></trkpt><trkpt lat="44.316866628830944" lon="8.216073314678193"><ele>512.0</ele><time>2026-04-05T12:56:47Z</time></trkpt><trkpt lat="44.31706681436765" lon="8.216164874922292"><ele>512.0</ele><time>2026-04-05T12:56:48Z</time></trkpt><trkpt lat="44.31726483547351" lon="8.216255446952792"><ele>512.0</ele><time>2026-04-05T12:56:49Z</time></trkpt><trkpt lat="44.317454501912856" lon="8.216341046552206"><ele>512.0</ele><time>2026-04-05T12:56:50Z</time></trkpt><trkpt lat="44.317626482392434" lon="8.216416829765413"><ele>512.0</ele><time>2026-04-05T12:56:51Z</time></trkpt><trkpt lat="44.317790274027935" lon="8.216476683611731"><ele>512.0</ele><time>2026-04-05T12:56:52Z</time></trkpt><trkpt lat="44.3179450723712" lon="8.216523516313755"><ele>512.0</ele><time>2026-04-05T12:56:53Z</time></trkpt><trkpt lat="44.318101530721826" lon="8.21653528393366"><ele>512.0</ele><time>2026-04-05T12:56:54Z</time></trkpt><trkpt lat="44.31826635696271" lon="8.216552760351329"><ele>512.0</ele><time>2026-04-05T12:56:55Z</time></trkpt><trkpt lat="44.31844386505179" lon="8.216513955274134"><ele>509.66666666666663</ele><time>2026-04-05T12:56:56Z</time></trkpt><trkpt lat="44.318627016733856" lon="8.21646838654497"><ele>507.33333333333337</ele><time>2026-04-05T12:56:57Z</time></trkpt><trkpt lat="44.318812119066735" lon="8.216420349566036"><ele>505.0</ele><time>2026-04-05T12:56:58Z</time></trkpt><trkpt lat="44.31898656263954" lon="8.216379559394698"><ele>504.6666666666667</ele><time>2026-04-05T12:56:59Z</time></trkpt><trkpt lat="44.31915401586412" lon="8.216338951185937"><ele>504.33333333333337</ele><time>2026-04-05T12:56:59.999Z</time></trkpt><trkpt lat="44.31931375963661" lon="8.216304865303423"><ele>504.0</ele><time>2026-04-05T12:57:00.999Z</time></trkpt><trkpt lat="44.31947090953161" lon="8.216295908021555"><ele>504.0</ele><time>2026-04-05T12:57:01.999Z</time></trkpt><trkpt lat="44.319639575514145" lon="8.216290387766634"><ele>504.0</ele><time>2026-04-05T12:57:02.999Z</time></trkpt><trkpt lat="44.31980823398047" lon="8.216294582429796"><ele>504.0</ele><time>2026-04-05T12:57:03.999Z</time></trkpt><trkpt lat="44.319987492111174" lon="8.216302890009729"><ele>506.0</ele><time>2026-04-05T12:57:04.999Z</time></trkpt><trkpt lat="44.32015535808657" lon="8.216292522226643"><ele>508.0</ele><time>2026-04-05T12:57:05.999Z</time></trkpt><trkpt lat="44.32030984745699" lon="8.216294025911193"><ele>510.0</ele><time>2026-04-05T12:57:06.999Z</time></trkpt><trkpt lat="44.320455184577256" lon="8.216301199488877"><ele>509.75</ele><time>2026-04-05T12:57:07.999Z</time></trkpt><trkpt lat="44.32059102894087" lon="8.216308403450013"><ele>509.5</ele><time>2026-04-05T12:57:08.999Z</time></trkpt><trkpt lat="44.32072378499356" lon="8.216329140747025"><ele>509.25</ele><time>2026-04-05T12:57:09.999Z</time></trkpt><trkpt lat="44.320856569068425" lon="8.216336311162628"><ele>509.0</ele><time>2026-04-05T12:57:10.999Z</time></trkpt><trkpt lat="44.320989325425494" lon="8.216342450528755"><ele>509.0</ele><time>2026-04-05T12:57:11.999Z</time></trkpt><trkpt lat="44.321109908225" lon="8.216317722383883"><ele>509.0</ele><time>2026-04-05T12:57:12.999Z</time></trkpt><trkpt lat="44.32123089871119" lon="8.216293577109886"><ele>509.0</ele><time>2026-04-05T12:57:13.999Z</time></trkpt><trkpt lat="44.321345639790586" lon="8.21622077799945"><ele>509.0</ele><time>2026-04-05T12:57:14.999Z</time></trkpt><trkpt lat="44.32144302685543" lon="8.216114428058388"><ele>508.75</ele><time>2026-04-05T12:57:15.999Z</time></trkpt><trkpt lat="44.32151159540303" lon="8.215954376814578"><ele>508.5</ele><time>2026-04-05T12:57:16.999Z</time></trkpt><trkpt lat="44.32156001947043" lon="8.215794138012631"><ele>508.25</ele><time>2026-04-05T12:57:17.999Z</time></trkpt><trkpt lat="44.32158292478517" lon="8.21561228544078"><ele>508.0</ele><time>2026-04-05T12:57:18.999Z</time></trkpt><trkpt lat="44.321596296229906" lon="8.215412332156864"><ele>508.0</ele><time>2026-04-05T12:57:19.999Z</time></trkpt><trkpt lat="44.32161446206379" lon="8.215179106344818"><ele>508.0</ele><time>2026-04-05T12:57:20.999Z</time></trkpt><trkpt lat="44.32164643246725" lon="8.214930927096793"><ele>508.0</ele><time>2026-04-05T12:57:21.999Z</time></trkpt><trkpt lat="44.3216867922888" lon="8.214691034448414"><ele>507.0</ele><time>2026-04-05T12:57:22.999Z</time></trkpt><trkpt lat="44.321726445127354" lon="8.214469128377667"><ele>506.0</ele><time>2026-04-05T12:57:23.999Z</time></trkpt><trkpt lat="44.3217614499587" lon="8.214274719050128"><ele>505.0</ele><time>2026-04-05T12:57:24.999Z</time></trkpt><trkpt lat="44.321788833925304" lon="8.214085399299881"><ele>504.0</ele><time>2026-04-05T12:57:25.999Z</time></trkpt><trkpt lat="44.321815739536504" lon="8.213917221700328"><ele>503.5</ele><time>2026-04-05T12:57:26.999Z</time></trkpt><trkpt lat="44.32184129479695" lon="8.213760639132083"><ele>503.0</ele><time>2026-04-05T12:57:27.999Z</time></trkpt><trkpt lat="44.32186644905073" lon="8.213601151346616"><ele>502.5</ele><time>2026-04-05T12:57:28.999Z</time></trkpt><trkpt lat="44.32188554625327" lon="8.213421525660777"><ele>502.0</ele><time>2026-04-05T12:57:29.999Z</time></trkpt><trkpt lat="44.32190608756378" lon="8.213208375777574"><ele>502.33333333333337</ele><time>2026-04-05T12:57:30.999Z</time></trkpt><trkpt lat="44.32193923133302" lon="8.212960557301653"><ele>502.66666666666663</ele><time>2026-04-05T12:57:31.999Z</time></trkpt><trkpt lat="44.321981112792926" lon="8.21272404328718"><ele>503.0</ele><time>2026-04-05T12:57:32.999Z</time></trkpt><trkpt lat="44.322024599014554" lon="8.212514950660989"><ele>501.25</ele><time>2026-04-05T12:57:33.999Z</time></trkpt><trkpt lat="44.32206002795546" lon="8.212319660400901"><ele>499.5</ele><time>2026-04-05T12:57:34.999Z</time></trkpt><trkpt lat="44.322105317421205" lon="8.212143768466998"><ele>497.75</ele><time>2026-04-05T12:57:35.999Z</time></trkpt><trkpt lat="44.322166522755154" lon="8.211995389575167"><ele>496.0</ele><time>2026-04-05T12:57:36.999Z</time></trkpt><trkpt lat="44.32224767277042" lon="8.21186235807642"><ele>496.0</ele><time>2026-04-05T12:57:37.999Z</time></trkpt><trkpt lat="44.32235231545452" lon="8.211764158680758"><ele>496.0</ele><time>2026-04-05T12:57:38.999Z</time></trkpt><trkpt lat="44.32247607040918" lon="8.211719074570137"><ele>496.0</ele><time>2026-04-05T12:57:39.999Z</time></trkpt><trkpt lat="44.32260316771683" lon="8.211700971230602"><ele>496.0</ele><time>2026-04-05T12:57:40.999Z</time></trkpt><trkpt lat="44.32273381358758" lon="8.211715424713525"><ele>496.0</ele><time>2026-04-05T12:57:41.999Z</time></trkpt><trkpt lat="44.322864758346235" lon="8.21177595728942"><ele>496.0</ele><time>2026-04-05T12:57:42.999Z</time></trkpt><trkpt lat="44.32300453346812" lon="8.21182985884778"><ele>496.0</ele><time>2026-04-05T12:57:43.999Z</time></trkpt><trkpt lat="44.32314380893264" lon="8.211852254042508"><ele>496.0</ele><time>2026-04-05T12:57:44.999Z</time></trkpt><trkpt lat="44.323281401117214" lon="8.211859984440089"><ele>496.33333333333337</ele><time>2026-04-05T12:57:45.999Z</time></trkpt><trkpt lat="44.32342420115449" lon="8.211828079611601"><ele>496.66666666666663</ele><time>2026-04-05T12:57:46.999Z</time></trkpt><trkpt lat="44.32356927954943" lon="8.21175211836178"><ele>497.0</ele><time>2026-04-05T12:57:47.999Z</time></trkpt><trkpt lat="44.32370975399786" lon="8.211662606098733"><ele>497.0</ele><time>2026-04-05T12:57:48.999Z</time></trkpt><trkpt lat="44.32383148621252" lon="8.211541028295516"><ele>497.0</ele><time>2026-04-05T12:57:49.999Z</time></trkpt><trkpt lat="44.323941158416524" lon="8.211392282747706"><ele>497.0</ele><time>2026-04-05T12:57:50.999Z</time></trkpt><trkpt lat="44.32403938985274" lon="8.21120626600503"><ele>496.66666666666663</ele><time>2026-04-05T12:57:51.999Z</time></trkpt><trkpt lat="44.32414441656606" lon="8.211028285209679"><ele>496.33333333333337</ele><time>2026-04-05T12:57:52.998Z</time></trkpt><trkpt lat="44.32425422102054" lon="8.210852537327987"><ele>496.0</ele><time>2026-04-05T12:57:53.998Z</time></trkpt><trkpt lat="44.32436656688179" lon="8.210665440094218"><ele>495.0</ele><time>2026-04-05T12:57:54.998Z</time></trkpt><trkpt lat="44.32448279050965" lon="8.210476740989446"><ele>494.0</ele><time>2026-04-05T12:57:55.998Z</time></trkpt><trkpt lat="44.32460009581176" lon="8.210295818175156"><ele>493.0</ele><time>2026-04-05T12:57:56.998Z</time></trkpt><trkpt lat="44.32470706098729" lon="8.210128233943678"><ele>494.5</ele><time>2026-04-05T12:57:57.998Z</time></trkpt><trkpt lat="44.32480742961274" lon="8.20996985742912"><ele>496.0</ele><time>2026-04-05T12:57:58.998Z</time></trkpt><trkpt lat="44.324900219001755" lon="8.209813367157164"><ele>497.5</ele><time>2026-04-05T12:57:59.998Z</time></trkpt><trkpt lat="44.324980827246534" lon="8.2096631246359"><ele>499.0</ele><time>2026-04-05T12:58:00.998Z</time></trkpt><trkpt lat="44.32504523502004" lon="8.209514232101425"><ele>499.0</ele><time>2026-04-05T12:58:01.998Z</time></trkpt><trkpt lat="44.32508245246331" lon="8.209359199548626"><ele>499.0</ele><time>2026-04-05T12:58:02.998Z</time></trkpt><trkpt lat="44.32508238772409" lon="8.20919711416441"><ele>499.0</ele><time>2026-04-05T12:58:03.998Z</time></trkpt><trkpt lat="44.32504030284154" lon="8.20902870719736"><ele>499.0</ele><time>2026-04-05T12:58:04.998Z</time></trkpt><trkpt lat="44.324969250076265" lon="8.208881356547664"><ele>500.75</ele><time>2026-04-05T12:58:05.998Z</time></trkpt><trkpt lat="44.3248769796031" lon="8.208745812001679"><ele>502.5</ele><time>2026-04-05T12:58:06.998Z</time></trkpt><trkpt lat="44.32477262201977" lon="8.208615098050013"><ele>504.25</ele><time>2026-04-05T12:58:07.998Z</time></trkpt><trkpt lat="44.324684731125366" lon="8.20850366137323"><ele>506.0</ele><time>2026-04-05T12:58:08.998Z</time></trkpt><trkpt lat="44.32461499518769" lon="8.208402808857224"><ele>502.4</ele><time>2026-04-05T12:58:09.998Z</time></trkpt><trkpt lat="44.324571421176856" lon="8.208285566449073"><ele>498.8</ele><time>2026-04-05T12:58:10.998Z</time></trkpt><trkpt lat="44.324563641398626" lon="8.208148337874405"><ele>495.19999999999993</ele><time>2026-04-05T12:58:11.998Z</time></trkpt><trkpt lat="44.32459172191857" lon="8.208011676113923"><ele>491.59999999999997</ele><time>2026-04-05T12:58:12.998Z</time></trkpt><trkpt lat="44.32463195129974" lon="8.207887188585856"><ele>488.0</ele><time>2026-04-05T12:58:13.998Z</time></trkpt><trkpt lat="44.32471537362706" lon="8.207761329400075"><ele>488.5</ele><time>2026-04-05T12:58:14.998Z</time></trkpt><trkpt lat="44.324847662999936" lon="8.2077112222592"><ele>489.0</ele><time>2026-04-05T12:58:15.998Z</time></trkpt><trkpt lat="44.32496474723242" lon="8.20760120718418"><ele>489.5</ele><time>2026-04-05T12:58:16.998Z</time></trkpt><trkpt lat="44.32508371564655" lon="8.20748578629469"><ele>490.0</ele><time>2026-04-05T12:58:17.998Z</time></trkpt><trkpt lat="44.32520759482038" lon="8.207365601209483"><ele>488.33333333333337</ele><time>2026-04-05T12:58:18.998Z</time></trkpt><trkpt lat="44.325339491982454" lon="8.207235578127365"><ele>486.66666666666663</ele><time>2026-04-05T12:58:19.998Z</time></trkpt><trkpt lat="44.32546208550085" lon="8.207083158796024"><ele>485.0</ele><time>2026-04-05T12:58:20.998Z</time></trkpt><trkpt lat="44.32560257315037" lon="8.206964896550307"><ele>485.0</ele><time>2026-04-05T12:58:21.998Z</time></trkpt><trkpt lat="44.32571631656971" lon="8.206826127888034"><ele>485.0</ele><time>2026-04-05T12:58:22.998Z</time></trkpt><trkpt lat="44.32583662489478" lon="8.206738153858876"><ele>485.0</ele><time>2026-04-05T12:58:23.998Z</time></trkpt><trkpt lat="44.32595334253195" lon="8.206654380704943"><ele>485.0</ele><time>2026-04-05T12:58:24.998Z</time></trkpt><trkpt lat="44.32606808194538" lon="8.206609645306088"><ele>485.0</ele><time>2026-04-05T12:58:25.998Z</time></trkpt><trkpt lat="44.32620504099374" lon="8.206589223366676"><ele>485.0</ele><time>2026-04-05T12:58:26.998Z</time></trkpt><trkpt lat="44.326359910926676" lon="8.206609755163164"><ele>485.0</ele><time>2026-04-05T12:58:27.998Z</time></trkpt><trkpt lat="44.32653102151842" lon="8.206613344287549"><ele>485.66666666666663</ele><time>2026-04-05T12:58:28.998Z</time></trkpt><trkpt lat="44.32670442666374" lon="8.206618490323102"><ele>486.33333333333337</ele><time>2026-04-05T12:58:30Z</time></trkpt><trkpt lat="44.326860439066266" lon="8.206620926118191"><ele>487.0</ele><time>2026-04-05T12:58:31Z</time></trkpt><trkpt lat="44.32701516199487" lon="8.20662545348064"><ele>487.0</ele><time>2026-04-05T12:58:32Z</time></trkpt><trkpt lat="44.32715824523197" lon="8.206638473260345"><ele>487.0</ele><time>2026-04-05T12:58:33Z</time></trkpt><trkpt lat="44.32730175378746" lon="8.206671222100747"><ele>487.0</ele><time>2026-04-05T12:58:34Z</time></trkpt><trkpt lat="44.32745501041994" lon="8.206741035328273"><ele>485.33333333333337</ele><time>2026-04-05T12:58:35Z</time></trkpt><trkpt lat="44.32762004397997" lon="8.206831004816978"><ele>483.66666666666663</ele><time>2026-04-05T12:58:36Z</time></trkpt><trkpt lat="44.327814544622065" lon="8.206947935920793"><ele>482.0</ele><time>2026-04-05T12:58:37Z</time></trkpt><trkpt lat="44.32799492971995" lon="8.207092037447044"><ele>477.5</ele><time>2026-04-05T12:58:38Z</time></trkpt><trkpt lat="44.32820242600319" lon="8.20720472776259"><ele>473.0</ele><time>2026-04-05T12:58:39Z</time></trkpt><trkpt lat="44.32842719874457" lon="8.207283573380437"><ele>473.0</ele><time>2026-04-05T12:58:40Z</time></trkpt><trkpt lat="44.3285098359295" lon="8.207277407766838"><ele>473.0</ele><time>2026-04-05T12:58:41Z</time></trkpt><trkpt lat="44.328690676338" lon="8.207297044368023"><ele>473.0</ele><time>2026-04-05T12:58:42Z</time></trkpt><trkpt lat="44.32886179106421" lon="8.207302867002099"><ele>473.0</ele><time>2026-04-05T12:58:43Z</time></trkpt><trkpt lat="44.32902867339773" lon="8.207333666345688"><ele>479.66666666666663</ele><time>2026-04-05T12:58:44Z</time></trkpt><trkpt lat="44.32918079303997" lon="8.207363839585737"><ele>486.33333333333337</ele><time>2026-04-05T12:58:45Z</time></trkpt><trkpt lat="44.32933037910746" lon="8.20738897955995"><ele>493.0</ele><time>2026-04-05T12:58:46Z</time></trkpt><trkpt lat="44.329481083205025" lon="8.207397118645272"><ele>493.0</ele><time>2026-04-05T12:58:47Z</time></trkpt><trkpt lat="44.32963730562226" lon="8.20736189022681"><ele>493.0</ele><time>2026-04-05T12:58:48Z</time></trkpt><trkpt lat="44.32980102973881" lon="8.207311073783211"><ele>493.0</ele><time>2026-04-05T12:58:49Z</time></trkpt><trkpt lat="44.32995758475565" lon="8.207263504823812"><ele>486.5</ele><time>2026-04-05T12:58:50Z</time></trkpt><trkpt lat="44.33009775143715" lon="8.20722270931502"><ele>480.0</ele><time>2026-04-05T12:58:51Z</time></trkpt><trkpt lat="44.33023181783446" lon="8.207172815443135"><ele>473.5</ele><time>2026-04-05T12:58:52Z</time></trkpt><trkpt lat="44.330356378457004" lon="8.207071109197253"><ele>467.0</ele><time>2026-04-05T12:58:53Z</time></trkpt><trkpt lat="44.330483984900724" lon="8.206932595614711"><ele>467.66666666666663</ele><time>2026-04-05T12:58:54Z</time></trkpt><trkpt lat="44.33060431248879" lon="8.206763209854971"><ele>468.33333333333337</ele><time>2026-04-05T12:58:55Z</time></trkpt><trkpt lat="44.33071975470586" lon="8.20659716755012"><ele>469.0</ele><time>2026-04-05T12:58:56Z</time></trkpt><trkpt lat="44.33081445013018" lon="8.20643155040354"><ele>469.0</ele><time>2026-04-05T12:58:57Z</time></trkpt><trkpt lat="44.33089490206132" lon="8.20627293125086"><ele>469.0</ele><time>2026-04-05T12:58:58Z</time></trkpt><trkpt lat="44.33096201003142" lon="8.2061454525475"><ele>469.0</ele><time>2026-04-05T12:58:59Z</time></trkpt><trkpt lat="44.3310287954519" lon="8.206032664332154"><ele>469.0</ele><time>2026-04-05T12:59:00Z</time></trkpt><trkpt lat="44.3311084062283" lon="8.20594341454155"><ele>469.0</ele><time>2026-04-05T12:59:01Z</time></trkpt><trkpt lat="44.33121467847193" lon="8.20591642425279"><ele>469.0</ele><time>2026-04-05T12:59:02Z</time></trkpt><trkpt lat="44.33133124849902" lon="8.205964731612058"><ele>469.0</ele><time>2026-04-05T12:59:03Z</time></trkpt><trkpt lat="44.331455240910316" lon="8.205971642123693"><ele>469.0</ele><time>2026-04-05T12:59:04Z</time></trkpt><trkpt lat="44.33156184566978" lon="8.205975279145932"><ele>469.2</ele><time>2026-04-05T12:59:05Z</time></trkpt><trkpt lat="44.33165989860963" lon="8.205926439158207"><ele>469.4</ele><time>2026-04-05T12:59:06Z</time></trkpt><trkpt lat="44.33174283334928" lon="8.205844337665809"><ele>469.6</ele><time>2026-04-05T12:59:07Z</time></trkpt><trkpt lat="44.331810060525726" lon="8.205767001334051"><ele>469.8</ele><time>2026-04-05T12:59:08Z</time></trkpt><trkpt lat="44.33187508847728" lon="8.205673595503802"><ele>470.0</ele><time>2026-04-05T12:59:09.999Z</time></trkpt><trkpt lat="44.331985641617266" lon="8.205743535767676"><ele>470.0</ele><time>2026-04-05T12:59:11.999Z</time></trkpt><trkpt lat="44.332030304975824" lon="8.205817977626165"><ele>470.0</ele><time>2026-04-05T12:59:12.999Z</time></trkpt><trkpt lat="44.33210059898129" lon="8.205901202359854"><ele>470.0</ele><time>2026-04-05T12:59:13.999Z</time></trkpt><trkpt lat="44.33218133188779" lon="8.206006596192394"><ele>470.0</ele><time>2026-04-05T12:59:14.999Z</time></trkpt><trkpt lat="44.33225674685385" lon="8.20611380082689"><ele>470.0</ele><time>2026-04-05T12:59:15.999Z</time></trkpt><trkpt lat="44.33233503809391" lon="8.206237901551656"><ele>470.0</ele><time>2026-04-05T12:59:16.999Z</time></trkpt><trkpt lat="44.33242317469992" lon="8.206393022046347"><ele>470.0</ele><time>2026-04-05T12:59:17.999Z</time></trkpt><trkpt lat="44.332511824886296" lon="8.206563975373099"><ele>470.0</ele><time>2026-04-05T12:59:18.999Z</time></trkpt><trkpt lat="44.332584479073304" lon="8.206735448835673"><ele>470.0</ele><time>2026-04-05T12:59:19.999Z</time></trkpt><trkpt lat="44.33265334643349" lon="8.206923010714265"><ele>468.3333333333333</ele><time>2026-04-05T12:59:20.999Z</time></trkpt><trkpt lat="44.33272659646277" lon="8.207128761262483"><ele>466.66666666666663</ele><time>2026-04-05T12:59:21.999Z</time></trkpt><trkpt lat="44.33280470064897" lon="8.207343380737171"><ele>465.0</ele><time>2026-04-05T12:59:22.999Z</time></trkpt><trkpt lat="44.33288929832503" lon="8.20755374027015"><ele>464.0</ele><time>2026-04-05T12:59:23.999Z</time></trkpt><trkpt lat="44.33298800436212" lon="8.207759624470398"><ele>463.0</ele><time>2026-04-05T12:59:24.999Z</time></trkpt><trkpt lat="44.33309962860304" lon="8.207950088069934"><ele>462.0</ele><time>2026-04-05T12:59:25.999Z</time></trkpt><trkpt lat="44.333210822108775" lon="8.208122718712989"><ele>463.5</ele><time>2026-04-05T12:59:26.999Z</time></trkpt><trkpt lat="44.3333144694123" lon="8.208277176660214"><ele>465.0</ele><time>2026-04-05T12:59:27.999Z</time></trkpt><trkpt lat="44.333412291173246" lon="8.208418800298045"><ele>466.5</ele><time>2026-04-05T12:59:28.999Z</time></trkpt><trkpt lat="44.333505111966225" lon="8.2085479314158"><ele>468.0</ele><time>2026-04-05T12:59:29.999Z</time></trkpt><trkpt lat="44.33358660629206" lon="8.208666559727703"><ele>468.0</ele><time>2026-04-05T12:59:30.999Z</time></trkpt><trkpt lat="44.33365458982903" lon="8.208776199526802"><ele>467.99999999999994</ele><time>2026-04-05T12:59:31.999Z</time></trkpt><trkpt lat="44.33370523311361" lon="8.208885653094134"><ele>467.99999999999994</ele><time>2026-04-05T12:59:32.999Z</time></trkpt><trkpt lat="44.33371782756423" lon="8.209011013409771"><ele>468.0</ele><time>2026-04-05T12:59:33.999Z</time></trkpt><trkpt lat="44.3336702410133" lon="8.209113143492612"><ele>468.0</ele><time>2026-04-05T12:59:34.999Z</time></trkpt><trkpt lat="44.33362689810194" lon="8.209213277451532"><ele>468.0</ele><time>2026-04-05T12:59:35.999Z</time></trkpt><trkpt lat="44.333567700461366" lon="8.209323426874063"><ele>467.99999999999994</ele><time>2026-04-05T12:59:36.999Z</time></trkpt><trkpt lat="44.33350062827313" lon="8.209456740774616"><ele>467.99999999999994</ele><time>2026-04-05T12:59:37.999Z</time></trkpt><trkpt lat="44.333429389563456" lon="8.209595873063744"><ele>468.0</ele><time>2026-04-05T12:59:38.999Z</time></trkpt><trkpt lat="44.33338237533843" lon="8.209732506043887"><ele>468.0</ele><time>2026-04-05T12:59:39.999Z</time></trkpt><trkpt lat="44.33333125499059" lon="8.209849560631243"><ele>468.0</ele><time>2026-04-05T12:59:40.999Z</time></trkpt><trkpt lat="44.333287358168874" lon="8.209975950906355"><ele>468.0</ele><time>2026-04-05T12:59:41.999Z</time></trkpt><trkpt lat="44.33322703799185" lon="8.210117600943974"><ele>468.0</ele><time>2026-04-05T12:59:42.999Z</time></trkpt><trkpt lat="44.333361683299536" lon="8.210287990673647"><ele>468.0</ele><time>2026-04-05T12:59:43.999Z</time></trkpt><trkpt lat="44.333436104940226" lon="8.21044820533226"><ele>468.0</ele><time>2026-04-05T12:59:44.999Z</time></trkpt><trkpt lat="44.333515431559505" lon="8.210620994537438"><ele>468.0</ele><time>2026-04-05T12:59:45.999Z</time></trkpt><trkpt lat="44.33358400852043" lon="8.21082074355998"><ele>468.0</ele><time>2026-04-05T12:59:46.999Z</time></trkpt><trkpt lat="44.3336458132292" lon="8.211020253312991"><ele>467.25</ele><time>2026-04-05T12:59:47.999Z</time></trkpt><trkpt lat="44.333697688857015" lon="8.211198617766005"><ele>466.5</ele><time>2026-04-05T12:59:48.999Z</time></trkpt><trkpt lat="44.33375226605807" lon="8.211357351013675"><ele>465.75</ele><time>2026-04-05T12:59:49.999Z</time></trkpt><trkpt lat="44.33382234449465" lon="8.211497965121488"><ele>465.0</ele><time>2026-04-05T12:59:50.999Z</time></trkpt><trkpt lat="44.3339074259941" lon="8.21163013658655"><ele>465.0</ele><time>2026-04-05T12:59:51.999Z</time></trkpt><trkpt lat="44.33401946877475" lon="8.211742046627734"><ele>465.0</ele><time>2026-04-05T12:59:52.999Z</time></trkpt><trkpt lat="44.334154682136564" lon="8.211817111787632"><ele>465.0</ele><time>2026-04-05T12:59:53.999Z</time></trkpt><trkpt lat="44.33429650307756" lon="8.211877972104132"><ele>465.0</ele><time>2026-04-05T12:59:54.999Z</time></trkpt><trkpt lat="44.33443231962561" lon="8.211963178132521"><ele>465.0</ele><time>2026-04-05T12:59:55.999Z</time></trkpt><trkpt lat="44.334574371719825" lon="8.212038963426807"><ele>465.0</ele><time>2026-04-05T12:59:56.999Z</time></trkpt><trkpt lat="44.33471601369324" lon="8.212114529924834"><ele>465.0</ele><time>2026-04-05T12:59:57.999Z</time></trkpt><trkpt lat="44.33485959467434" lon="8.212185091160334"><ele>465.0</ele><time>2026-04-05T12:59:58.999Z</time></trkpt><trkpt lat="44.335002431372054" lon="8.212266746776473"><ele>465.0</ele><time>2026-04-05T12:59:59.999Z</time></trkpt><trkpt lat="44.335140206825784" lon="8.212345144093678"><ele>465.0</ele><time>2026-04-05T13:00:00.999Z</time></trkpt><trkpt lat="44.33526506804573" lon="8.21241659348396"><ele>465.0</ele><time>2026-04-05T13:00:01.999Z</time></trkpt><trkpt lat="44.33538670634276" lon="8.212473402734435"><ele>465.0</ele><time>2026-04-05T13:00:02.998Z</time></trkpt><trkpt lat="44.3355066651793" lon="8.21249731355722"><ele>465.0</ele><time>2026-04-05T13:00:03.998Z</time></trkpt><trkpt lat="44.33563396687718" lon="8.212484779911422"><ele>465.0</ele><time>2026-04-05T13:00:04.998Z</time></trkpt><trkpt lat="44.33576473677685" lon="8.212437532476343"><ele>465.0</ele><time>2026-04-05T13:00:05.998Z</time></trkpt><trkpt lat="44.33589293933712" lon="8.21234806562776"><ele>463.5</ele><time>2026-04-05T13:00:06.998Z</time></trkpt><trkpt lat="44.336011265216754" lon="8.212232100329025"><ele>462.0</ele><time>2026-04-05T13:00:07.998Z</time></trkpt><trkpt lat="44.3361330064676" lon="8.2121003379766"><ele>460.5</ele><time>2026-04-05T13:00:08.998Z</time></trkpt><trkpt lat="44.33624964985652" lon="8.2119750464796"><ele>459.0</ele><time>2026-04-05T13:00:09.998Z</time></trkpt><trkpt lat="44.336357418633064" lon="8.211851272932199"><ele>461.5</ele><time>2026-04-05T13:00:10.998Z</time></trkpt><trkpt lat="44.33645605415519" lon="8.211720638148027"><ele>464.0</ele><time>2026-04-05T13:00:11.998Z</time></trkpt><trkpt lat="44.33654050275957" lon="8.211588604386028"><ele>466.5</ele><time>2026-04-05T13:00:12.998Z</time></trkpt><trkpt lat="44.33661159818006" lon="8.211443225105883"><ele>469.0</ele><time>2026-04-05T13:00:13.998Z</time></trkpt><trkpt lat="44.33666980479764" lon="8.211266578413197"><ele>469.0</ele><time>2026-04-05T13:00:14.998Z</time></trkpt><trkpt lat="44.33670939017184" lon="8.211073585638982"><ele>469.0</ele><time>2026-04-05T13:00:15.998Z</time></trkpt><trkpt lat="44.33674446781008" lon="8.210857700010989"><ele>469.0</ele><time>2026-04-05T13:00:16.998Z</time></trkpt><trkpt lat="44.33678320293716" lon="8.210622666661497"><ele>466.6666666666667</ele><time>2026-04-05T13:00:17.998Z</time></trkpt><trkpt lat="44.336838137081685" lon="8.210381225995484"><ele>464.33333333333337</ele><time>2026-04-05T13:00:18.998Z</time></trkpt><trkpt lat="44.3368921530653" lon="8.210127332900573"><ele>462.0</ele><time>2026-04-05T13:00:19.998Z</time></trkpt><trkpt lat="44.33694280498841" lon="8.209856347569373"><ele>461.33333333333337</ele><time>2026-04-05T13:00:20.998Z</time></trkpt><trkpt lat="44.33699105622203" lon="8.209596875504115"><ele>460.6666666666667</ele><time>2026-04-05T13:00:21.998Z</time></trkpt><trkpt lat="44.33703736859092" lon="8.209346605007996"><ele>460.0</ele><time>2026-04-05T13:00:22.998Z</time></trkpt><trkpt lat="44.337085450954426" lon="8.209094157238974"><ele>459.0</ele><time>2026-04-05T13:00:23.998Z</time></trkpt><trkpt lat="44.33713160155177" lon="8.208837694842682"><ele>458.0</ele><time>2026-04-05T13:00:24.998Z</time></trkpt><trkpt lat="44.3371803598645" lon="8.208582794859655"><ele>457.0</ele><time>2026-04-05T13:00:25.998Z</time></trkpt><trkpt lat="44.337224831456915" lon="8.208327365420708"><ele>458.0</ele><time>2026-04-05T13:00:26.998Z</time></trkpt><trkpt lat="44.337272400341405" lon="8.208077617148943"><ele>459.0</ele><time>2026-04-05T13:00:27.998Z</time></trkpt><trkpt lat="44.33731735054921" lon="8.207838176698088"><ele>460.0</ele><time>2026-04-05T13:00:28.998Z</time></trkpt><trkpt lat="44.33735833077626" lon="8.207600720285683"><ele>460.0</ele><time>2026-04-05T13:00:29.998Z</time></trkpt><trkpt lat="44.33739065394467" lon="8.207371761260932"><ele>460.0</ele><time>2026-04-05T13:00:30.998Z</time></trkpt><trkpt lat="44.33741189030508" lon="8.207139221188386"><ele>460.0</ele><time>2026-04-05T13:00:31.998Z</time></trkpt><trkpt lat="44.337418623268945" lon="8.206905648191206"><ele>460.0</ele><time>2026-04-05T13:00:32.998Z</time></trkpt><trkpt lat="44.33742657164022" lon="8.206676235262455"><ele>460.0</ele><time>2026-04-05T13:00:33.998Z</time></trkpt><trkpt lat="44.33744475822052" lon="8.206458738157405"><ele>460.0</ele><time>2026-04-05T13:00:34.998Z</time></trkpt><trkpt lat="44.33746913628008" lon="8.206255709447479"><ele>459.75</ele><time>2026-04-05T13:00:36Z</time></trkpt><trkpt lat="44.33750707756406" lon="8.206060484777456"><ele>459.5</ele><time>2026-04-05T13:00:37Z</time></trkpt><trkpt lat="44.337560908370556" lon="8.20587077533982"><ele>459.25</ele><time>2026-04-05T13:00:38Z</time></trkpt><trkpt lat="44.33762884044259" lon="8.205700941478083"><ele>459.0</ele><time>2026-04-05T13:00:39Z</time></trkpt><trkpt lat="44.337709330934" lon="8.205557391930705"><ele>459.25</ele><time>2026-04-05T13:00:40Z</time></trkpt><trkpt lat="44.337803916833614" lon="8.20544082591291"><ele>459.5</ele><time>2026-04-05T13:00:41Z</time></trkpt><trkpt lat="44.33793022506947" lon="8.205345564465503"><ele>459.75</ele><time>2026-04-05T13:00:42Z</time></trkpt><trkpt lat="44.33806795506223" lon="8.205251322147765"><ele>460.0</ele><time>2026-04-05T13:00:43Z</time></trkpt><trkpt lat="44.33821808364988" lon="8.20514099019123"><ele>460.0</ele><time>2026-04-05T13:00:44Z</time></trkpt><trkpt lat="44.33837069150496" lon="8.205013342431307"><ele>460.0</ele><time>2026-04-05T13:00:45Z</time></trkpt><trkpt lat="44.338537076569146" lon="8.204871064028296"><ele>460.0</ele><time>2026-04-05T13:00:46Z</time></trkpt><trkpt lat="44.33870340127305" lon="8.20472195398904"><ele>460.33333333333337</ele><time>2026-04-05T13:00:47Z</time></trkpt><trkpt lat="44.33887594856132" lon="8.2045596740383"><ele>460.66666666666663</ele><time>2026-04-05T13:00:48Z</time></trkpt><trkpt lat="44.33905448054614" lon="8.204403400265578"><ele>461.0</ele><time>2026-04-05T13:00:49Z</time></trkpt><trkpt lat="44.33922343285002" lon="8.204255036588545"><ele>461.0</ele><time>2026-04-05T13:00:50Z</time></trkpt><trkpt lat="44.3393800571168" lon="8.204102853209816"><ele>461.0</ele><time>2026-04-05T13:00:51Z</time></trkpt><trkpt lat="44.33952696632545" lon="8.20395803848602"><ele>461.0</ele><time>2026-04-05T13:00:52Z</time></trkpt><trkpt lat="44.33967092218149" lon="8.203826726538505"><ele>461.66666666666663</ele><time>2026-04-05T13:00:53Z</time></trkpt><trkpt lat="44.339806382653734" lon="8.203692784838466"><ele>462.33333333333337</ele><time>2026-04-05T13:00:54Z</time></trkpt><trkpt lat="44.3399359791973" lon="8.203564684748155"><ele>463.0</ele><time>2026-04-05T13:00:55Z</time></trkpt><trkpt lat="44.34005242544147" lon="8.20341195415176"><ele>463.0</ele><time>2026-04-05T13:00:56Z</time></trkpt><trkpt lat="44.34015505469303" lon="8.203241929096071"><ele>463.0</ele><time>2026-04-05T13:00:57Z</time></trkpt><trkpt lat="44.34026003486808" lon="8.203088021660637"><ele>463.0</ele><time>2026-04-05T13:00:58Z</time></trkpt><trkpt lat="44.340376634531694" lon="8.202961152389918"><ele>460.6666666666667</ele><time>2026-04-05T13:00:59Z</time></trkpt><trkpt lat="44.34051049461933" lon="8.202855802845601"><ele>458.33333333333337</ele><time>2026-04-05T13:01:00Z</time></trkpt><trkpt lat="44.34065596532287" lon="8.202763116929596"><ele>456.0</ele><time>2026-04-05T13:01:01Z</time></trkpt><trkpt lat="44.34080116161979" lon="8.202702103931436"><ele>456.0</ele><time>2026-04-05T13:01:02Z</time></trkpt><trkpt lat="44.34093917999761" lon="8.202651769624019"><ele>456.0</ele><time>2026-04-05T13:01:03Z</time></trkpt><trkpt lat="44.34106604114376" lon="8.202609674671582"><ele>456.0</ele><time>2026-04-05T13:01:04Z</time></trkpt><trkpt lat="44.341188290717014" lon="8.202543521696828"><ele>456.0</ele><time>2026-04-05T13:01:05Z</time></trkpt><trkpt lat="44.34130607666984" lon="8.202421828204695"><ele>454.33333333333337</ele><time>2026-04-05T13:01:06Z</time></trkpt><trkpt lat="44.341419945337876" lon="8.202267486340208"><ele>452.6666666666667</ele><time>2026-04-05T13:01:07Z</time></trkpt><trkpt lat="44.34152770807048" lon="8.202097569939736"><ele>451.0</ele><time>2026-04-05T13:01:08Z</time></trkpt><trkpt lat="44.341629630395374" lon="8.201949554708408"><ele>451.0</ele><time>2026-04-05T13:01:09Z</time></trkpt><trkpt lat="44.341721549054" lon="8.201824667340626"><ele>451.0</ele><time>2026-04-05T13:01:10Z</time></trkpt><trkpt lat="44.341794824921806" lon="8.201719998127079"><ele>451.0</ele><time>2026-04-05T13:01:11Z</time></trkpt><trkpt lat="44.341857493292615" lon="8.201639524588927"><ele>451.0</ele><time>2026-04-05T13:01:12Z</time></trkpt><trkpt lat="44.34194055404234" lon="8.201610067001905"><ele>451.0</ele><time>2026-04-05T13:01:13Z</time></trkpt><trkpt lat="44.34204632141859" lon="8.201644739518466"><ele>451.0</ele><time>2026-04-05T13:01:14Z</time></trkpt><trkpt lat="44.34215405250959" lon="8.201733438314001"><ele>451.0</ele><time>2026-04-05T13:01:15Z</time></trkpt><trkpt lat="44.34227876576061" lon="8.201817349959152"><ele>451.0</ele><time>2026-04-05T13:01:15.999Z</time></trkpt><trkpt lat="44.342405812266364" lon="8.201917860036632"><ele>451.0</ele><time>2026-04-05T13:01:16.999Z</time></trkpt><trkpt lat="44.34252329531752" lon="8.202004792158537"><ele>452.0</ele><time>2026-04-05T13:01:17.999Z</time></trkpt><trkpt lat="44.34264520365321" lon="8.202078243937839"><ele>453.0</ele><time>2026-04-05T13:01:18.999Z</time></trkpt><trkpt lat="44.3427513182013" lon="8.202196001347541"><ele>454.0</ele><time>2026-04-05T13:01:19.999Z</time></trkpt><trkpt lat="44.34281979585192" lon="8.202371313688634"><ele>455.0</ele><time>2026-04-05T13:01:20.999Z</time></trkpt><trkpt lat="44.342888727062366" lon="8.202537013399693"><ele>455.0</ele><time>2026-04-05T13:01:21.999Z</time></trkpt><trkpt lat="44.34292569538554" lon="8.202709547301172"><ele>455.0</ele><time>2026-04-05T13:01:22.999Z</time></trkpt><trkpt lat="44.342931135589644" lon="8.202883467233377"><ele>455.0</ele><time>2026-04-05T13:01:23.999Z</time></trkpt><trkpt lat="44.34292496635023" lon="8.20307451707098"><ele>455.0</ele><time>2026-04-05T13:01:24.999Z</time></trkpt><trkpt lat="44.34293406383059" lon="8.203256750383801"><ele>454.0</ele><time>2026-04-05T13:01:25.999Z</time></trkpt><trkpt lat="44.34293476450319" lon="8.203425396752428"><ele>453.0</ele><time>2026-04-05T13:01:26.999Z</time></trkpt><trkpt lat="44.342968575212296" lon="8.203600514816001"><ele>452.0</ele><time>2026-04-05T13:01:27.999Z</time></trkpt><trkpt lat="44.34304522503894" lon="8.203774485875067"><ele>451.0</ele><time>2026-04-05T13:01:28.999Z</time></trkpt><trkpt lat="44.34314209789827" lon="8.203937872215173"><ele>455.33333333333337</ele><time>2026-04-05T13:01:29.999Z</time></trkpt><trkpt lat="44.343260022419706" lon="8.204099619367375"><ele>459.66666666666663</ele><time>2026-04-05T13:01:30.999Z</time></trkpt><trkpt lat="44.343372711165166" lon="8.204261582742738"><ele>464.0</ele><time>2026-04-05T13:01:31.999Z</time></trkpt><trkpt lat="44.34348006238303" lon="8.20440373506547"><ele>464.0</ele><time>2026-04-05T13:01:32.999Z</time></trkpt><trkpt lat="44.3435981676305" lon="8.204538167326913"><ele>464.0</ele><time>2026-04-05T13:01:33.999Z</time></trkpt><trkpt lat="44.34374439488013" lon="8.204647525103269"><ele>464.0</ele><time>2026-04-05T13:01:34.999Z</time></trkpt><trkpt lat="44.34390777550074" lon="8.204741491774708"><ele>463.3333333333333</ele><time>2026-04-05T13:01:35.999Z</time></trkpt><trkpt lat="44.34406659281064" lon="8.204871121878364"><ele>462.66666666666663</ele><time>2026-04-05T13:01:36.999Z</time></trkpt><trkpt lat="44.344220985001385" lon="8.205014708334643"><ele>462.0</ele><time>2026-04-05T13:01:37.999Z</time></trkpt><trkpt lat="44.344380656782434" lon="8.20515079314539"><ele>462.0</ele><time>2026-04-05T13:01:38.999Z</time></trkpt><trkpt lat="44.344526466316914" lon="8.205289296857284"><ele>462.0</ele><time>2026-04-05T13:01:39.999Z</time></trkpt><trkpt lat="44.34466132704936" lon="8.205413484808815"><ele>462.0</ele><time>2026-04-05T13:01:40.999Z</time></trkpt><trkpt lat="44.34479283211475" lon="8.205525567505047"><ele>458.66666666666663</ele><time>2026-04-05T13:01:41.999Z</time></trkpt><trkpt lat="44.34492550270405" lon="8.205622289262076"><ele>455.3333333333333</ele><time>2026-04-05T13:01:42.999Z</time></trkpt><trkpt lat="44.34506306253189" lon="8.20572671920425"><ele>452.0</ele><time>2026-04-05T13:01:43.999Z</time></trkpt><trkpt lat="44.34521515760101" lon="8.205788346113561"><ele>452.0</ele><time>2026-04-05T13:01:44.999Z</time></trkpt><trkpt lat="44.34535962923139" lon="8.205837352391121"><ele>452.0</ele><time>2026-04-05T13:01:45.999Z</time></trkpt><trkpt lat="44.345484645642145" lon="8.205882325833906"><ele>452.0</ele><time>2026-04-05T13:01:46.999Z</time></trkpt><trkpt lat="44.345604591420525" lon="8.205933919201597"><ele>452.0</ele><time>2026-04-05T13:01:47.999Z</time></trkpt><trkpt lat="44.345716027116495" lon="8.205994823831835"><ele>453.5</ele><time>2026-04-05T13:01:48.999Z</time></trkpt><trkpt lat="44.345803025140825" lon="8.20608560447446"><ele>455.0</ele><time>2026-04-05T13:01:49.999Z</time></trkpt><trkpt lat="44.34587955111574" lon="8.20619684045053"><ele>456.5</ele><time>2026-04-05T13:01:50.999Z</time></trkpt><trkpt lat="44.34595182345892" lon="8.206344131933182"><ele>458.0</ele><time>2026-04-05T13:01:51.999Z</time></trkpt><trkpt lat="44.34600548065182" lon="8.206536987160959"><ele>458.0</ele><time>2026-04-05T13:01:52.999Z</time></trkpt><trkpt lat="44.3460293289051" lon="8.20675593778986"><ele>458.0</ele><time>2026-04-05T13:01:53.999Z</time></trkpt><trkpt lat="44.34605521750862" lon="8.206996994545275"><ele>458.0</ele><time>2026-04-05T13:01:54.999Z</time></trkpt><trkpt lat="44.34607793625774" lon="8.207249363276887"><ele>455.3333333333333</ele><time>2026-04-05T13:01:55.999Z</time></trkpt><trkpt lat="44.34610044923047" lon="8.207507574926435"><ele>452.66666666666663</ele><time>2026-04-05T13:01:56.999Z</time></trkpt><trkpt lat="44.346123170160126" lon="8.207768171734926"><ele>450.0</ele><time>2026-04-05T13:01:57.999Z</time></trkpt><trkpt lat="44.34614679046809" lon="8.208039083979262"><ele>449.33333333333337</ele><time>2026-04-05T13:01:58.999Z</time></trkpt><trkpt lat="44.34617184828692" lon="8.208308588642353"><ele>448.6666666666667</ele><time>2026-04-05T13:01:59.999Z</time></trkpt><trkpt lat="44.346195158642566" lon="8.208556199896712"><ele>448.0</ele><time>2026-04-05T13:02:00.999Z</time></trkpt><trkpt lat="44.34620889059685" lon="8.208795476721976"><ele>448.0</ele><time>2026-04-05T13:02:01.999Z</time></trkpt><trkpt lat="44.34621541975927" lon="8.209003886994344"><ele>448.0</ele><time>2026-04-05T13:02:02.999Z</time></trkpt><trkpt lat="44.34622574927089" lon="8.209191956206022"><ele>448.0</ele><time>2026-04-05T13:02:03.999Z</time></trkpt><trkpt lat="44.3462611091201" lon="8.209369181514877"><ele>448.0</ele><time>2026-04-05T13:02:04.999Z</time></trkpt><trkpt lat="44.34634770717494" lon="8.20952153081818"><ele>448.25</ele><time>2026-04-05T13:02:05.999Z</time></trkpt><trkpt lat="44.34645077516505" lon="8.209674564920887"><ele>448.5</ele><time>2026-04-05T13:02:06.999Z</time></trkpt><trkpt lat="44.34653465229116" lon="8.20984242109024"><ele>448.75</ele><time>2026-04-05T13:02:07.999Z</time></trkpt><trkpt lat="44.346615201802365" lon="8.20997084022535"><ele>449.0</ele><time>2026-04-05T13:02:08.999Z</time></trkpt><trkpt lat="44.34671005986152" lon="8.210054951846908"><ele>449.0</ele><time>2026-04-05T13:02:09.998Z</time></trkpt><trkpt lat="44.346805097420656" lon="8.210125951713186"><ele>449.0</ele><time>2026-04-05T13:02:10.998Z</time></trkpt><trkpt lat="44.34692308675272" lon="8.210150299449696"><ele>449.0</ele><time>2026-04-05T13:02:11.998Z</time></trkpt><trkpt lat="44.34704716570796" lon="8.210113006866585"><ele>449.0</ele><time>2026-04-05T13:02:12.998Z</time></trkpt><trkpt lat="44.34717241021508" lon="8.21002880763727"><ele>448.66666666666663</ele><time>2026-04-05T13:02:13.998Z</time></trkpt><trkpt lat="44.347306774302496" lon="8.20991506322237"><ele>448.33333333333337</ele><time>2026-04-05T13:02:14.998Z</time></trkpt><trkpt lat="44.34743969168536" lon="8.209794500258479"><ele>448.0</ele><time>2026-04-05T13:02:15.998Z</time></trkpt><trkpt lat="44.34758208709539" lon="8.20966988044037"><ele>453.33333333333337</ele><time>2026-04-05T13:02:16.998Z</time></trkpt><trkpt lat="44.347737476930675" lon="8.209542858661758"><ele>458.66666666666663</ele><time>2026-04-05T13:02:17.998Z</time></trkpt><trkpt lat="44.34789204843655" lon="8.209414394689071"><ele>464.0</ele><time>2026-04-05T13:02:18.998Z</time></trkpt><trkpt lat="44.348033603640665" lon="8.209283937656908"><ele>460.3333333333333</ele><time>2026-04-05T13:02:19.998Z</time></trkpt><trkpt lat="44.348165743725126" lon="8.209169500708207"><ele>456.66666666666663</ele><time>2026-04-05T13:02:20.998Z</time></trkpt><trkpt lat="44.34829549403456" lon="8.209061836050362"><ele>453.0</ele><time>2026-04-05T13:02:21.998Z</time></trkpt><trkpt lat="44.34841947851263" lon="8.208958180775522"><ele>457.0</ele><time>2026-04-05T13:02:22.998Z</time></trkpt><trkpt lat="44.34854042780947" lon="8.208875370152215"><ele>461.0</ele><time>2026-04-05T13:02:23.998Z</time></trkpt><trkpt lat="44.34866122146705" lon="8.208804965101388"><ele>465.0</ele><time>2026-04-05T13:02:24.998Z</time></trkpt><trkpt lat="44.348798566365396" lon="8.208784892105445"><ele>469.0</ele><time>2026-04-05T13:02:25.998Z</time></trkpt><trkpt lat="44.348943770656334" lon="8.208825660864287"><ele>469.0</ele><time>2026-04-05T13:02:26.998Z</time></trkpt><trkpt lat="44.34910282256778" lon="8.20886329309315"><ele>469.0</ele><time>2026-04-05T13:02:27.998Z</time></trkpt><trkpt lat="44.349251112307556" lon="8.208873223031793"><ele>469.0</ele><time>2026-04-05T13:02:28.998Z</time></trkpt><trkpt lat="44.34939237778559" lon="8.208856794441393"><ele>469.0</ele><time>2026-04-05T13:02:29.998Z</time></trkpt><trkpt lat="44.34954063089" lon="8.208796629027958"><ele>469.0</ele><time>2026-04-05T13:02:30.998Z</time></trkpt><trkpt lat="44.34969304657948" lon="8.208697465185237"><ele>469.0</ele><time>2026-04-05T13:02:31.998Z</time></trkpt><trkpt lat="44.34986075063167" lon="8.20860589148405"><ele>467.33333333333337</ele><time>2026-04-05T13:02:32.998Z</time></trkpt><trkpt lat="44.350036982869945" lon="8.208512326470494"><ele>465.66666666666663</ele><time>2026-04-05T13:02:33.998Z</time></trkpt><trkpt lat="44.35022508205832" lon="8.20841112212072"><ele>464.0</ele><time>2026-04-05T13:02:34.998Z</time></trkpt><trkpt lat="44.350417006952306" lon="8.208306878225326"><ele>468.0</ele><time>2026-04-05T13:02:35.998Z</time></trkpt><trkpt lat="44.35059331848328" lon="8.208212810242586"><ele>472.0</ele><time>2026-04-05T13:02:36.998Z</time></trkpt><trkpt lat="44.350766405721" lon="8.208128840261159"><ele>476.0</ele><time>2026-04-05T13:02:37.998Z</time></trkpt><trkpt lat="44.35093477235215" lon="8.208044350936019"><ele>476.0</ele><time>2026-04-05T13:02:38.998Z</time></trkpt><trkpt lat="44.35108495042992" lon="8.207965603963382"><ele>476.0</ele><time>2026-04-05T13:02:39.998Z</time></trkpt><trkpt lat="44.35122399042141" lon="8.20789052519402"><ele>476.0</ele><time>2026-04-05T13:02:40.998Z</time></trkpt><trkpt lat="44.35134680427072" lon="8.207794955901026"><ele>467.0</ele><time>2026-04-05T13:02:42Z</time></trkpt><trkpt lat="44.351465650737865" lon="8.207679655799776"><ele>458.0</ele><time>2026-04-05T13:02:43Z</time></trkpt><trkpt lat="44.35156535410054" lon="8.207529064652554"><ele>449.0</ele><time>2026-04-05T13:02:44Z</time></trkpt><trkpt lat="44.35165497059005" lon="8.207342963457506"><ele>452.0</ele><time>2026-04-05T13:02:45Z</time></trkpt><trkpt lat="44.35173091215443" lon="8.207142773152691"><ele>455.0</ele><time>2026-04-05T13:02:46Z</time></trkpt><trkpt lat="44.351785147538074" lon="8.206952574104308"><ele>458.0</ele><time>2026-04-05T13:02:47Z</time></trkpt><trkpt lat="44.35185504810038" lon="8.206776336829833"><ele>458.0</ele><time>2026-04-05T13:02:48Z</time></trkpt><trkpt lat="44.351935241580556" lon="8.20660856903512"><ele>458.0</ele><time>2026-04-05T13:02:49Z</time></trkpt><trkpt lat="44.35204718844556" lon="8.206453021650526"><ele>458.0</ele><time>2026-04-05T13:02:50Z</time></trkpt><trkpt lat="44.35217926731244" lon="8.20632013679806"><ele>457.66666666666663</ele><time>2026-04-05T13:02:51Z</time></trkpt><trkpt lat="44.3523239332236" lon="8.206199329250147"><ele>457.33333333333337</ele><time>2026-04-05T13:02:52Z</time></trkpt><trkpt lat="44.35246810145017" lon="8.206078567200537"><ele>457.0</ele><time>2026-04-05T13:02:53Z</time></trkpt><trkpt lat="44.35261728670289" lon="8.205952697770977"><ele>457.0</ele><time>2026-04-05T13:02:54Z</time></trkpt><trkpt lat="44.3527695975124" lon="8.20582342132324"><ele>457.0</ele><time>2026-04-05T13:02:55Z</time></trkpt><trkpt lat="44.352913865166556" lon="8.205714525500888"><ele>457.0</ele><time>2026-04-05T13:02:56Z</time></trkpt><trkpt lat="44.35305365586912" lon="8.20560385105163"><ele>456.5</ele><time>2026-04-05T13:02:57Z</time></trkpt><trkpt lat="44.35318278434212" lon="8.205496748250658"><ele>456.0</ele><time>2026-04-05T13:02:58Z</time></trkpt><trkpt lat="44.35331538414563" lon="8.205413715528778"><ele>455.5</ele><time>2026-04-05T13:02:59Z</time></trkpt><trkpt lat="44.353448633707465" lon="8.205359532123593"><ele>455.0</ele><time>2026-04-05T13:03:00Z</time></trkpt><trkpt lat="44.35358335255529" lon="8.205319862806304"><ele>455.0</ele><time>2026-04-05T13:03:01Z</time></trkpt><trkpt lat="44.35371842533316" lon="8.205288333746067"><ele>455.0</ele><time>2026-04-05T13:03:02Z</time></trkpt><trkpt lat="44.35384145256793" lon="8.205280559161514"><ele>455.0</ele><time>2026-04-05T13:03:03Z</time></trkpt><trkpt lat="44.35395827272522" lon="8.205300813727405"><ele>455.0</ele><time>2026-04-05T13:03:04Z</time></trkpt><trkpt lat="44.35406028145471" lon="8.205348058778883"><ele>451.25</ele><time>2026-04-05T13:03:05Z</time></trkpt><trkpt lat="44.35415531574276" lon="8.205406183317224"><ele>447.5</ele><time>2026-04-05T13:03:06Z</time></trkpt><trkpt lat="44.35421899819696" lon="8.205548711315576"><ele>443.75</ele><time>2026-04-05T13:03:07Z</time></trkpt><trkpt lat="44.35429977239772" lon="8.205666846389807"><ele>440.0</ele><time>2026-04-05T13:03:08Z</time></trkpt><trkpt lat="44.35437143641283" lon="8.20581095566143"><ele>439.0</ele><time>2026-04-05T13:03:09Z</time></trkpt><trkpt lat="44.354451115603055" lon="8.205971182768856"><ele>438.0</ele><time>2026-04-05T13:03:10Z</time></trkpt><trkpt lat="44.35452370944042" lon="8.20611716198355"><ele>437.0</ele><time>2026-04-05T13:03:11Z</time></trkpt><trkpt lat="44.354571915501644" lon="8.206226811897809"><ele>436.0</ele><time>2026-04-05T13:03:12Z</time></trkpt><trkpt lat="44.35464427685379" lon="8.206349976977101"><ele>438.75</ele><time>2026-04-05T13:03:13Z</time></trkpt><trkpt lat="44.35472863245612" lon="8.206449145139713"><ele>441.5</ele><time>2026-04-05T13:03:14Z</time></trkpt><trkpt lat="44.35481967963911" lon="8.206519462598125"><ele>444.25</ele><time>2026-04-05T13:03:15Z</time></trkpt><trkpt lat="44.35492828258014" lon="8.206556963886603"><ele>447.0</ele><time>2026-04-05T13:03:16Z</time></trkpt><trkpt lat="44.35505613328839" lon="8.206566606895533"><ele>447.5</ele><time>2026-04-05T13:03:17Z</time></trkpt><trkpt lat="44.35519260833272" lon="8.2065520680045"><ele>448.0</ele><time>2026-04-05T13:03:17.999Z</time></trkpt><trkpt lat="44.35531697406716" lon="8.206558080809863"><ele>448.5</ele><time>2026-04-05T13:03:18.999Z</time></trkpt><trkpt lat="44.3554505193764" lon="8.206592092867227"><ele>449.0</ele><time>2026-04-05T13:03:19.999Z</time></trkpt><trkpt lat="44.35557858380385" lon="8.206634022040305"><ele>446.75</ele><time>2026-04-05T13:03:20.999Z</time></trkpt><trkpt lat="44.35569978720211" lon="8.206687451902107"><ele>444.5</ele><time>2026-04-05T13:03:21.999Z</time></trkpt><trkpt lat="44.355804643012235" lon="8.206721716294854"><ele>442.25</ele><time>2026-04-05T13:03:22.999Z</time></trkpt><trkpt lat="44.35591217629168" lon="8.206742349690469"><ele>440.0</ele><time>2026-04-05T13:03:23.999Z</time></trkpt><trkpt lat="44.35603454899877" lon="8.206759524259972"><ele>440.0</ele><time>2026-04-05T13:03:24.999Z</time></trkpt><trkpt lat="44.35615678352603" lon="8.206792955879711"><ele>440.0</ele><time>2026-04-05T13:03:25.999Z</time></trkpt><trkpt lat="44.35629324455764" lon="8.20684365639282"><ele>440.0</ele><time>2026-04-05T13:03:26.999Z</time></trkpt><trkpt lat="44.35640708900739" lon="8.206884776723081"><ele>440.0</ele><time>2026-04-05T13:03:27.999Z</time></trkpt><trkpt lat="44.35653574750247" lon="8.206954684982156"><ele>439.25</ele><time>2026-04-05T13:03:28.999Z</time></trkpt><trkpt lat="44.356657913105956" lon="8.206988166436217"><ele>438.5</ele><time>2026-04-05T13:03:29.999Z</time></trkpt><trkpt lat="44.35678687277592" lon="8.207028761015543"><ele>437.75</ele><time>2026-04-05T13:03:30.999Z</time></trkpt><trkpt lat="44.35691126949488" lon="8.20707336532766"><ele>437.0</ele><time>2026-04-05T13:03:31.999Z</time></trkpt><trkpt lat="44.35702342857903" lon="8.207116486900048"><ele>437.0</ele><time>2026-04-05T13:03:32.999Z</time></trkpt><trkpt lat="44.357125164967016" lon="8.207157531338103"><ele>437.00000000000006</ele><time>2026-04-05T13:03:33.999Z</time></trkpt><trkpt lat="44.35721446114235" lon="8.207186800339827"><ele>437.00000000000006</ele><time>2026-04-05T13:03:34.999Z</time></trkpt><trkpt lat="44.357295520955816" lon="8.207210737209017"><ele>437.0</ele><time>2026-04-05T13:03:35.999Z</time></trkpt><trkpt lat="44.35738613747165" lon="8.207237335539725"><ele>437.0</ele><time>2026-04-05T13:03:36.999Z</time></trkpt><trkpt lat="44.35748892899453" lon="8.207271029179482"><ele>436.5</ele><time>2026-04-05T13:03:37.999Z</time></trkpt><trkpt lat="44.35760160228906" lon="8.207317004292014"><ele>436.0</ele><time>2026-04-05T13:03:38.999Z</time></trkpt><trkpt lat="44.3577220304429" lon="8.207366426077648"><ele>435.5</ele><time>2026-04-05T13:03:39.999Z</time></trkpt><trkpt lat="44.35785035978883" lon="8.20742401361933"><ele>435.0</ele><time>2026-04-05T13:03:40.999Z</time></trkpt><trkpt lat="44.35798401300771" lon="8.207493052545724"><ele>435.5</ele><time>2026-04-05T13:03:41.999Z</time></trkpt><trkpt lat="44.35811985620452" lon="8.20757074498171"><ele>436.0</ele><time>2026-04-05T13:03:42.999Z</time></trkpt><trkpt lat="44.358247476262854" lon="8.207646621028703"><ele>436.5</ele><time>2026-04-05T13:03:43.999Z</time></trkpt><trkpt lat="44.358364253755184" lon="8.207717737785158"><ele>437.0</ele><time>2026-04-05T13:03:44.999Z</time></trkpt><trkpt lat="44.35847568706296" lon="8.207788775983133"><ele>437.0</ele><time>2026-04-05T13:03:45.999Z</time></trkpt><trkpt lat="44.358586024668256" lon="8.207869109138786"><ele>437.0</ele><time>2026-04-05T13:03:46.999Z</time></trkpt><trkpt lat="44.35869951903659" lon="8.20794964598702"><ele>437.0</ele><time>2026-04-05T13:03:47.999Z</time></trkpt><trkpt lat="44.358815688989765" lon="8.208055734360432"><ele>437.0</ele><time>2026-04-05T13:03:48.999Z</time></trkpt><trkpt lat="44.35891477832074" lon="8.208218851469317"><ele>439.3333333333333</ele><time>2026-04-05T13:03:49.999Z</time></trkpt><trkpt lat="44.35902902930624" lon="8.20837405266052"><ele>441.66666666666663</ele><time>2026-04-05T13:03:50.999Z</time></trkpt><trkpt lat="44.359153050914486" lon="8.208528583308075"><ele>444.0</ele><time>2026-04-05T13:03:51.999Z</time></trkpt><trkpt lat="44.3592773560772" lon="8.208689390859142"><ele>444.0</ele><time>2026-04-05T13:03:52.999Z</time></trkpt><trkpt lat="44.35938661455578" lon="8.208853777721862"><ele>444.0</ele><time>2026-04-05T13:03:53.999Z</time></trkpt><trkpt lat="44.35948606680493" lon="8.20900492476722"><ele>444.0</ele><time>2026-04-05T13:03:54.999Z</time></trkpt><trkpt lat="44.35959262447754" lon="8.209141257212016"><ele>441.25</ele><time>2026-04-05T13:03:55.999Z</time></trkpt><trkpt lat="44.35970032198656" lon="8.20925638278458"><ele>438.5</ele><time>2026-04-05T13:03:56.999Z</time></trkpt><trkpt lat="44.359805954736636" lon="8.209363343519028"><ele>435.75</ele><time>2026-04-05T13:03:57.999Z</time></trkpt><trkpt lat="44.359920541717294" lon="8.209475183671733"><ele>433.0</ele><time>2026-04-05T13:03:58.999Z</time></trkpt><trkpt lat="44.36003771762633" lon="8.209591040911105"><ele>433.0</ele><time>2026-04-05T13:03:59.999Z</time></trkpt><trkpt lat="44.36014806094696" lon="8.209704869045188"><ele>433.0</ele><time>2026-04-05T13:04:00.999Z</time></trkpt><trkpt lat="44.360249444077795" lon="8.209806397007078"><ele>433.0</ele><time>2026-04-05T13:04:01.999Z</time></trkpt><trkpt lat="44.36034865488824" lon="8.209893735462211"><ele>433.0</ele><time>2026-04-05T13:04:02.999Z</time></trkpt><trkpt lat="44.36045443341098" lon="8.209970231779701"><ele>434.0</ele><time>2026-04-05T13:04:03.999Z</time></trkpt><trkpt lat="44.36055235159437" lon="8.210022489674756"><ele>434.99999999999994</ele><time>2026-04-05T13:04:04.999Z</time></trkpt><trkpt lat="44.36065523389242" lon="8.21004660617362"><ele>435.99999999999994</ele><time>2026-04-05T13:04:05.999Z</time></trkpt><trkpt lat="44.360733537796044" lon="8.210066523491339"><ele>437.0</ele><time>2026-04-05T13:04:06.999Z</time></trkpt><trkpt lat="44.36079109351893" lon="8.21011090522398"><ele>438.0</ele><time>2026-04-05T13:04:07.999Z</time></trkpt><trkpt lat="44.36084453425338" lon="8.210300069305347"><ele>438.0</ele><time>2026-04-05T13:04:09.999Z</time></trkpt><trkpt lat="44.36085680691836" lon="8.210427547560366"><ele>437.99999999999994</ele><time>2026-04-05T13:04:10.999Z</time></trkpt><trkpt lat="44.36086475341964" lon="8.210566382177172"><ele>437.99999999999994</ele><time>2026-04-05T13:04:11.999Z</time></trkpt><trkpt lat="44.360873092100945" lon="8.210714895094275"><ele>438.0</ele><time>2026-04-05T13:04:12.999Z</time></trkpt><trkpt lat="44.36087296151969" lon="8.210871268990847"><ele>438.0</ele><time>2026-04-05T13:04:13.998Z</time></trkpt><trkpt lat="44.36086470637604" lon="8.211025761511763"><ele>439.0</ele><time>2026-04-05T13:04:14.998Z</time></trkpt><trkpt lat="44.36084647332499" lon="8.211157377298699"><ele>439.99999999999994</ele><time>2026-04-05T13:04:15.998Z</time></trkpt><trkpt lat="44.360818786613876" lon="8.211263014473937"><ele>440.99999999999994</ele><time>2026-04-05T13:04:16.998Z</time></trkpt><trkpt lat="44.36076359626311" lon="8.211326681544866"><ele>442.0</ele><time>2026-04-05T13:04:17.998Z</time></trkpt><trkpt lat="44.360713115691325" lon="8.21140159810653"><ele>443.0</ele><time>2026-04-05T13:04:18.998Z</time></trkpt><trkpt lat="44.36052586647724" lon="8.211310886304428"><ele>446.79999999999995</ele><time>2026-04-05T13:04:20.998Z</time></trkpt><trkpt lat="44.36043668376569" lon="8.211224959080567"><ele>450.59999999999997</ele><time>2026-04-05T13:04:21.998Z</time></trkpt><trkpt lat="44.360342539807725" lon="8.21114152323926"><ele>454.40000000000003</ele><time>2026-04-05T13:04:22.998Z</time></trkpt><trkpt lat="44.36026181658156" lon="8.211064668998697"><ele>458.20000000000005</ele><time>2026-04-05T13:04:23.998Z</time></trkpt><trkpt lat="44.36018940201017" lon="8.210973615631612"><ele>462.0</ele><time>2026-04-05T13:04:24.998Z</time></trkpt><trkpt lat="44.3601171475421" lon="8.210871910819536"><ele>462.0</ele><time>2026-04-05T13:04:26.015Z</time></trkpt><trkpt lat="44.360070211143594" lon="8.210752737547914"><ele>462.0</ele><time>2026-04-05T13:04:27.016Z</time></trkpt><trkpt lat="44.36005424544414" lon="8.21063461129198"><ele>462.0</ele><time>2026-04-05T13:04:28.016Z</time></trkpt><trkpt lat="44.36002917298324" lon="8.210478268672269"><ele>462.0</ele><time>2026-04-05T13:04:30.015Z</time></trkpt><trkpt lat="44.36002925740914" lon="8.21021823618268"><ele>456.66666666666663</ele><time>2026-04-05T13:04:31.016Z</time></trkpt><trkpt lat="44.35993975412038" lon="8.20994665740926"><ele>451.3333333333333</ele><time>2026-04-05T13:04:31.998Z</time></trkpt><trkpt lat="44.3598349553794" lon="8.209808696665636"><ele>446.0</ele><time>2026-04-05T13:04:32.998Z</time></trkpt><trkpt lat="44.35971945722356" lon="8.20966218090356"><ele>445.5</ele><time>2026-04-05T13:04:33.998Z</time></trkpt><trkpt lat="44.359624635673875" lon="8.209517092542791"><ele>445.0</ele><time>2026-04-05T13:04:34.998Z</time></trkpt><trkpt lat="44.35956746624247" lon="8.209328344321158"><ele>444.5</ele><time>2026-04-05T13:04:35.998Z</time></trkpt><trkpt lat="44.35952569004124" lon="8.209131354612342"><ele>444.0</ele><time>2026-04-05T13:04:36.998Z</time></trkpt><trkpt lat="44.35949875600283" lon="8.208917284209482"><ele>444.0</ele><time>2026-04-05T13:04:37.998Z</time></trkpt><trkpt lat="44.35948304850059" lon="8.208706286341496"><ele>444.0</ele><time>2026-04-05T13:04:38.998Z</time></trkpt><trkpt lat="44.35948942261503" lon="8.208493510171648"><ele>444.0</ele><time>2026-04-05T13:04:39.998Z</time></trkpt><trkpt lat="44.35951356029955" lon="8.208274130414026"><ele>442.0</ele><time>2026-04-05T13:04:40.998Z</time></trkpt><trkpt lat="44.35956352378512" lon="8.208042463369587"><ele>440.0</ele><time>2026-04-05T13:04:41.998Z</time></trkpt><trkpt lat="44.35963061113049" lon="8.207809214416445"><ele>438.0</ele><time>2026-04-05T13:04:42.998Z</time></trkpt><trkpt lat="44.35969670907468" lon="8.20757781925301"><ele>437.33333333333337</ele><time>2026-04-05T13:04:43.998Z</time></trkpt><trkpt lat="44.35977595007608" lon="8.207357464848819"><ele>436.6666666666667</ele><time>2026-04-05T13:04:44.998Z</time></trkpt><trkpt lat="44.35985957447385" lon="8.207135108076509"><ele>436.0</ele><time>2026-04-05T13:04:45.998Z</time></trkpt><trkpt lat="44.359955908495365" lon="8.206919990085712"><ele>442.0</ele><time>2026-04-05T13:04:46.998Z</time></trkpt><trkpt lat="44.36005007088322" lon="8.20673433412112"><ele>448.0</ele><time>2026-04-05T13:04:48Z</time></trkpt><trkpt lat="44.36014950933354" lon="8.206567156754113"><ele>454.0</ele><time>2026-04-05T13:04:49Z</time></trkpt><trkpt lat="44.36026172733737" lon="8.206402615373449"><ele>453.6666666666667</ele><time>2026-04-05T13:04:50Z</time></trkpt><trkpt lat="44.36038918674623" lon="8.206244011546753"><ele>453.33333333333337</ele><time>2026-04-05T13:04:51Z</time></trkpt><trkpt lat="44.360523409896096" lon="8.206087066773636"><ele>453.0</ele><time>2026-04-05T13:04:52Z</time></trkpt><trkpt lat="44.36066534853543" lon="8.205925968128026"><ele>453.0</ele><time>2026-04-05T13:04:53.016Z</time></trkpt><trkpt lat="44.36082340472778" lon="8.205786237201735"><ele>453.0</ele><time>2026-04-05T13:04:54.016Z</time></trkpt><trkpt lat="44.36097620751961" lon="8.205628174042065"><ele>453.0</ele><time>2026-04-05T13:04:55.011Z</time></trkpt><trkpt lat="44.361130334659194" lon="8.205467907272224"><ele>445.0</ele><time>2026-04-05T13:04:56.012Z</time></trkpt><trkpt lat="44.363665725144024" lon="8.202567699976516"><ele>449.5</ele><time>2026-04-05T13:05:01.276Z</time></trkpt><trkpt lat="44.36393592076318" lon="8.202068031549553"><ele>454.0</ele><time>2026-04-05T13:05:02.274Z</time></trkpt><trkpt lat="44.36300339647044" lon="8.203181382276307"><ele>445.0</ele><time>2026-04-05T13:05:09Z</time></trkpt><trkpt lat="44.36344203080708" lon="8.202926294118416"><ele>445.0</ele><time>2026-04-05T13:05:11Z</time></trkpt><trkpt lat="44.36358307072413" lon="8.20273743865499"><ele>445.0</ele><time>2026-04-05T13:05:12Z</time></trkpt><trkpt lat="44.36370656387378" lon="8.202535643511661"><ele>445.0</ele><time>2026-04-05T13:05:13Z</time></trkpt><trkpt lat="44.363808780492974" lon="8.202323933587333"><ele>440.33333333333337</ele><time>2026-04-05T13:05:14Z</time></trkpt><trkpt lat="44.36392303899489" lon="8.202124287726658"><ele>435.66666666666663</ele><time>2026-04-05T13:05:15.017Z</time></trkpt><trkpt lat="44.36402919068845" lon="8.201929640019777"><ele>431.0</ele><time>2026-04-05T13:05:16.016Z</time></trkpt><trkpt lat="44.364135273683296" lon="8.201736467372125"><ele>431.0</ele><time>2026-04-05T13:05:17.015Z</time></trkpt><trkpt lat="44.36424105145332" lon="8.201547681080383"><ele>431.0</ele><time>2026-04-05T13:05:18Z</time></trkpt><trkpt lat="44.3642764220032" lon="8.201332364249373"><ele>431.0</ele><time>2026-04-05T13:05:19Z</time></trkpt><trkpt lat="44.364331006687294" lon="8.201152479178461"><ele>432.0</ele><time>2026-04-05T13:05:20Z</time></trkpt><trkpt lat="44.36439184611738" lon="8.200971353288502"><ele>433.0</ele><time>2026-04-05T13:05:21Z</time></trkpt><trkpt lat="44.364450131797845" lon="8.200791076809116"><ele>434.0</ele><time>2026-04-05T13:05:22Z</time></trkpt><trkpt lat="44.36450289079673" lon="8.200613219926943"><ele>435.0</ele><time>2026-04-05T13:05:23Z</time></trkpt><trkpt lat="44.364558535393854" lon="8.200441026185374"><ele>435.0</ele><time>2026-04-05T13:05:23.999Z</time></trkpt><trkpt lat="44.36461723771066" lon="8.200256078909927"><ele>435.0</ele><time>2026-04-05T13:05:24.999Z</time></trkpt><trkpt lat="44.36467537386886" lon="8.200072989578372"><ele>435.0</ele><time>2026-04-05T13:05:25.999Z</time></trkpt><trkpt lat="44.36473727102314" lon="8.199892965224848"><ele>435.0</ele><time>2026-04-05T13:05:26.999Z</time></trkpt><trkpt lat="44.364808564580976" lon="8.199705618944481"><ele>435.0</ele><time>2026-04-05T13:05:27.999Z</time></trkpt><trkpt lat="44.364875130484506" lon="8.199515873555937"><ele>435.0</ele><time>2026-04-05T13:05:28.999Z</time></trkpt><trkpt lat="44.364952622476665" lon="8.199324602708348"><ele>435.0</ele><time>2026-04-05T13:05:29.999Z</time></trkpt><trkpt lat="44.36503275261577" lon="8.199142530111043"><ele>437.33333333333337</ele><time>2026-04-05T13:05:30.999Z</time></trkpt><trkpt lat="44.36513249905208" lon="8.19896667260647"><ele>439.6666666666667</ele><time>2026-04-05T13:05:31.999Z</time></trkpt><trkpt lat="44.36524226631784" lon="8.198811834505486"><ele>442.0</ele><time>2026-04-05T13:05:32.999Z</time></trkpt><trkpt lat="44.36536004531769" lon="8.198660491462986"><ele>442.0</ele><time>2026-04-05T13:05:33.999Z</time></trkpt><trkpt lat="44.36547038379077" lon="8.198519230904374"><ele>442.0</ele><time>2026-04-05T13:05:34.999Z</time></trkpt><trkpt lat="44.36556178273129" lon="8.198369262867049"><ele>442.0</ele><time>2026-04-05T13:05:35.999Z</time></trkpt><trkpt lat="44.365643607668666" lon="8.198204718416145"><ele>442.0</ele><time>2026-04-05T13:05:36.999Z</time></trkpt><trkpt lat="44.365686900336684" lon="8.198003773770544"><ele>440.75</ele><time>2026-04-05T13:05:37.999Z</time></trkpt><trkpt lat="44.365713983718585" lon="8.197787089589006"><ele>439.5</ele><time>2026-04-05T13:05:38.999Z</time></trkpt><trkpt lat="44.36573843999255" lon="8.197584599856352"><ele>438.25</ele><time>2026-04-05T13:05:39.999Z</time></trkpt><trkpt lat="44.36575560779021" lon="8.197395408261201"><ele>437.0</ele><time>2026-04-05T13:05:40.999Z</time></trkpt><trkpt lat="44.365782920897175" lon="8.197198079809331"><ele>436.66666666666663</ele><time>2026-04-05T13:05:41.999Z</time></trkpt><trkpt lat="44.36579998456425" lon="8.196981662758931"><ele>436.33333333333337</ele><time>2026-04-05T13:05:42.999Z</time></trkpt><trkpt lat="44.365799754409444" lon="8.19676501640674"><ele>436.0</ele><time>2026-04-05T13:05:43.999Z</time></trkpt><trkpt lat="44.36577803662205" lon="8.196538496226665"><ele>434.75</ele><time>2026-04-05T13:05:44.999Z</time></trkpt><trkpt lat="44.365743387205036" lon="8.19633044249584"><ele>433.5</ele><time>2026-04-05T13:05:45.999Z</time></trkpt><trkpt lat="44.36569486229118" lon="8.196142515034854"><ele>432.25</ele><time>2026-04-05T13:05:46.999Z</time></trkpt><trkpt lat="44.36564120456496" lon="8.195947792099808"><ele>431.0</ele><time>2026-04-05T13:05:47.999Z</time></trkpt><trkpt lat="44.365569436053335" lon="8.195732309027363"><ele>435.0</ele><time>2026-04-05T13:05:48.999Z</time></trkpt><trkpt lat="44.36548273349289" lon="8.195513184763858"><ele>439.0</ele><time>2026-04-05T13:05:49.999Z</time></trkpt><trkpt lat="44.365371978090835" lon="8.195283751937568"><ele>443.0</ele><time>2026-04-05T13:05:50.999Z</time></trkpt><trkpt lat="44.3652470919462" lon="8.195056355318385"><ele>441.3333333333333</ele><time>2026-04-05T13:05:51.999Z</time></trkpt><trkpt lat="44.365122988717225" lon="8.194835466921155"><ele>439.66666666666663</ele><time>2026-04-05T13:05:52.999Z</time></trkpt><trkpt lat="44.36500640184188" lon="8.194627953211999"><ele>438.0</ele><time>2026-04-05T13:05:53.999Z</time></trkpt><trkpt lat="44.364889057996464" lon="8.194422833158134"><ele>438.0</ele><time>2026-04-05T13:05:54.999Z</time></trkpt><trkpt lat="44.36477032081919" lon="8.194223205051268"><ele>438.0</ele><time>2026-04-05T13:05:55.999Z</time></trkpt><trkpt lat="44.36464953606571" lon="8.194047522196753"><ele>438.0</ele><time>2026-04-05T13:05:56.999Z</time></trkpt><trkpt lat="44.36453878462785" lon="8.193876783838821"><ele>438.33333333333337</ele><time>2026-04-05T13:05:57.999Z</time></trkpt><trkpt lat="44.36444354122943" lon="8.193704065925958"><ele>438.6666666666667</ele><time>2026-04-05T13:05:58.999Z</time></trkpt><trkpt lat="44.36435160195738" lon="8.193544747896539"><ele>439.0</ele><time>2026-04-05T13:05:59.999Z</time></trkpt><trkpt lat="44.364236420160104" lon="8.193411276243275"><ele>439.0</ele><time>2026-04-05T13:06:00.999Z</time></trkpt><trkpt lat="44.36409103845317" lon="8.193305440261769"><ele>439.0</ele><time>2026-04-05T13:06:01.999Z</time></trkpt><trkpt lat="44.363920307672394" lon="8.193228178500721"><ele>439.0</ele><time>2026-04-05T13:06:02.999Z</time></trkpt><trkpt lat="44.36373870199403" lon="8.193175976983442"><ele>439.6666666666667</ele><time>2026-04-05T13:06:03.999Z</time></trkpt><trkpt lat="44.36355132860088" lon="8.193124835420472"><ele>440.33333333333337</ele><time>2026-04-05T13:06:04.999Z</time></trkpt><trkpt lat="44.36336309775701" lon="8.193078738319496"><ele>441.0</ele><time>2026-04-05T13:06:05.999Z</time></trkpt><trkpt lat="44.36317972475717" lon="8.19304314050147"><ele>439.33333333333337</ele><time>2026-04-05T13:06:06.999Z</time></trkpt><trkpt lat="44.36301105816153" lon="8.193034950305277"><ele>437.6666666666667</ele><time>2026-04-05T13:06:07.999Z</time></trkpt><trkpt lat="44.362845014825666" lon="8.193048699127853"><ele>436.0</ele><time>2026-04-05T13:06:08.999Z</time></trkpt><trkpt lat="44.362690315553806" lon="8.19307200844318"><ele>436.0</ele><time>2026-04-05T13:06:09.999Z</time></trkpt><trkpt lat="44.362542072375575" lon="8.193094126969465"><ele>436.0</ele><time>2026-04-05T13:06:10.999Z</time></trkpt><trkpt lat="44.362403622870865" lon="8.193104645779407"><ele>436.0</ele><time>2026-04-05T13:06:11.999Z</time></trkpt><trkpt lat="44.36226863892965" lon="8.19311930528935"><ele>436.0</ele><time>2026-04-05T13:06:12.999Z</time></trkpt><trkpt lat="44.36213633125382" lon="8.193123476274994"><ele>437.0</ele><time>2026-04-05T13:06:13.999Z</time></trkpt><trkpt lat="44.362008945656584" lon="8.193108369070195"><ele>438.0</ele><time>2026-04-05T13:06:14.999Z</time></trkpt><trkpt lat="44.361893138445126" lon="8.193067405352451"><ele>439.0</ele><time>2026-04-05T13:06:15.999Z</time></trkpt><trkpt lat="44.36178675253327" lon="8.192994400613443"><ele>440.0</ele><time>2026-04-05T13:06:16.999Z</time></trkpt><trkpt lat="44.361691960692845" lon="8.192871723304656"><ele>440.0</ele><time>2026-04-05T13:06:17.999Z</time></trkpt><trkpt lat="44.36163232448365" lon="8.192716044539845"><ele>440.0</ele><time>2026-04-05T13:06:18.999Z</time></trkpt><trkpt lat="44.36159504333209" lon="8.192545574854105"><ele>440.0</ele><time>2026-04-05T13:06:19.998Z</time></trkpt><trkpt lat="44.3615927405416" lon="8.192362181657423"><ele>440.0</ele><time>2026-04-05T13:06:20.998Z</time></trkpt><trkpt lat="44.36162509355008" lon="8.192166320658435"><ele>441.25</ele><time>2026-04-05T13:06:21.998Z</time></trkpt><trkpt lat="44.36168060331727" lon="8.191975174402838"><ele>442.5</ele><time>2026-04-05T13:06:22.998Z</time></trkpt><trkpt lat="44.36173970423748" lon="8.191783149050199"><ele>443.75</ele><time>2026-04-05T13:06:23.998Z</time></trkpt><trkpt lat="44.36178435988779" lon="8.191606254096659"><ele>445.0</ele><time>2026-04-05T13:06:24.998Z</time></trkpt><trkpt lat="44.36181470981865" lon="8.19145280893516"><ele>446.8</ele><time>2026-04-05T13:06:25.998Z</time></trkpt><trkpt lat="44.361834561821375" lon="8.191309859374396"><ele>448.6</ele><time>2026-04-05T13:06:26.998Z</time></trkpt><trkpt lat="44.36183093238438" lon="8.191161413189148"><ele>450.4</ele><time>2026-04-05T13:06:27.998Z</time></trkpt><trkpt lat="44.36179000441663" lon="8.19101669031875"><ele>452.2</ele><time>2026-04-05T13:06:28.998Z</time></trkpt><trkpt lat="44.361710622942766" lon="8.190888368388235"><ele>454.0</ele><time>2026-04-05T13:06:29.998Z</time></trkpt><trkpt lat="44.36160515007504" lon="8.19078209314201"><ele>454.0</ele><time>2026-04-05T13:06:30.998Z</time></trkpt><trkpt lat="44.36150892340587" lon="8.190678707739444"><ele>454.0</ele><time>2026-04-05T13:06:31.998Z</time></trkpt><trkpt lat="44.36143070899317" lon="8.190602337679753"><ele>454.0</ele><time>2026-04-05T13:06:32.998Z</time></trkpt><trkpt lat="44.361349983302574" lon="8.190570370093159"><ele>454.0</ele><time>2026-04-05T13:06:33.998Z</time></trkpt><trkpt lat="44.361265980943855" lon="8.190589619203548"><ele>454.0</ele><time>2026-04-05T13:06:34.998Z</time></trkpt><trkpt lat="44.361172328212106" lon="8.190688171144831"><ele>453.4</ele><time>2026-04-05T13:06:35.998Z</time></trkpt><trkpt lat="44.361098672576404" lon="8.190777229033294"><ele>452.79999999999995</ele><time>2026-04-05T13:06:36.998Z</time></trkpt><trkpt lat="44.36101100024579" lon="8.19080257285652"><ele>452.20000000000005</ele><time>2026-04-05T13:06:37.998Z</time></trkpt><trkpt lat="44.36091338771223" lon="8.190764650952216"><ele>451.6</ele><time>2026-04-05T13:06:38.998Z</time></trkpt><trkpt lat="44.36081425730447" lon="8.19068035144384"><ele>451.0</ele><time>2026-04-05T13:06:39.998Z</time></trkpt><trkpt lat="44.360748152640205" lon="8.19052985753305"><ele>453.25</ele><time>2026-04-05T13:06:40.998Z</time></trkpt><trkpt lat="44.36071190952377" lon="8.190378424153819"><ele>455.5</ele><time>2026-04-05T13:06:41.998Z</time></trkpt><trkpt lat="44.36073771396727" lon="8.190218398961067"><ele>457.75</ele><time>2026-04-05T13:06:42.998Z</time></trkpt><trkpt lat="44.36074627724789" lon="8.190034761635552"><ele>460.0</ele><time>2026-04-05T13:06:43.998Z</time></trkpt><trkpt lat="44.36076127707651" lon="8.189848616286135"><ele>462.6666666666667</ele><time>2026-04-05T13:06:44.998Z</time></trkpt><trkpt lat="44.3607284042705" lon="8.189658817559854"><ele>465.33333333333337</ele><time>2026-04-05T13:06:45.998Z</time></trkpt><trkpt lat="44.3606713929366" lon="8.189455681049722"><ele>468.0</ele><time>2026-04-05T13:06:46.998Z</time></trkpt><trkpt lat="44.36062448234602" lon="8.189227829897868"><ele>470.0</ele><time>2026-04-05T13:06:47.998Z</time></trkpt><trkpt lat="44.36060328593442" lon="8.188987816647801"><ele>472.0</ele><time>2026-04-05T13:06:48.998Z</time></trkpt><trkpt lat="44.36059118522662" lon="8.188746496969504"><ele>474.0</ele><time>2026-04-05T13:06:49.998Z</time></trkpt><trkpt lat="44.36057452050649" lon="8.188538300181532"><ele>474.0</ele><time>2026-04-05T13:06:50.998Z</time></trkpt><trkpt lat="44.36055953425849" lon="8.188367279236836"><ele>474.0</ele><time>2026-04-05T13:06:51.998Z</time></trkpt><trkpt lat="44.36058383685798" lon="8.18819937798033"><ele>474.0</ele><time>2026-04-05T13:06:52.998Z</time></trkpt><trkpt lat="44.36064849290433" lon="8.1880491511247"><ele>474.0</ele><time>2026-04-05T13:06:54Z</time></trkpt><trkpt lat="44.36074657494192" lon="8.187914523249852"><ele>474.25</ele><time>2026-04-05T13:06:55Z</time></trkpt><trkpt lat="44.36084544508465" lon="8.187785182924195"><ele>474.5</ele><time>2026-04-05T13:06:56Z</time></trkpt><trkpt lat="44.36093312509689" lon="8.187630640862123"><ele>474.75</ele><time>2026-04-05T13:06:57Z</time></trkpt><trkpt lat="44.360994011171634" lon="8.187424998154096"><ele>475.0</ele><time>2026-04-05T13:06:58Z</time></trkpt><trkpt lat="44.36103864950694" lon="8.187201187630116"><ele>475.0</ele><time>2026-04-05T13:06:59Z</time></trkpt><trkpt lat="44.361058757454764" lon="8.186969619080234"><ele>475.0</ele><time>2026-04-05T13:07:00Z</time></trkpt><trkpt lat="44.361064613005944" lon="8.186763487826452"><ele>475.0</ele><time>2026-04-05T13:07:01Z</time></trkpt><trkpt lat="44.36105678183042" lon="8.18656891167597"><ele>477.75</ele><time>2026-04-05T13:07:02Z</time></trkpt><trkpt lat="44.36102819067012" lon="8.186367079220734"><ele>480.5</ele><time>2026-04-05T13:07:03Z</time></trkpt><trkpt lat="44.36097186339648" lon="8.186174753940746"><ele>483.25</ele><time>2026-04-05T13:07:04Z</time></trkpt><trkpt lat="44.36088419806319" lon="8.18599968120032"><ele>486.0</ele><time>2026-04-05T13:07:05Z</time></trkpt><trkpt lat="44.36077108333532" lon="8.185856500374346"><ele>486.0</ele><time>2026-04-05T13:07:06Z</time></trkpt><trkpt lat="44.36065320413281" lon="8.185707717011718"><ele>486.0</ele><time>2026-04-05T13:07:07Z</time></trkpt><trkpt lat="44.36056207452098" lon="8.185530145294077"><ele>486.0</ele><time>2026-04-05T13:07:08Z</time></trkpt><trkpt lat="44.36049298569226" lon="8.185331320149162"><ele>484.66666666666663</ele><time>2026-04-05T13:07:09Z</time></trkpt><trkpt lat="44.36042649509098" lon="8.185125085684444"><ele>483.3333333333333</ele><time>2026-04-05T13:07:10Z</time></trkpt><trkpt lat="44.36036427835966" lon="8.184929523470151"><ele>482.0</ele><time>2026-04-05T13:07:11Z</time></trkpt><trkpt lat="44.360317216875956" lon="8.184749327556096"><ele>482.0</ele><time>2026-04-05T13:07:12Z</time></trkpt><trkpt lat="44.36029312275423" lon="8.18457981939896"><ele>482.0</ele><time>2026-04-05T13:07:13Z</time></trkpt><trkpt lat="44.360297469429604" lon="8.184410201618729"><ele>482.0</ele><time>2026-04-05T13:07:14Z</time></trkpt><trkpt lat="44.36033552677559" lon="8.184243209673904"><ele>482.0</ele><time>2026-04-05T13:07:15Z</time></trkpt><trkpt lat="44.36040218347929" lon="8.184063035991961"><ele>480.3333333333333</ele><time>2026-04-05T13:07:16Z</time></trkpt><trkpt lat="44.36046910392833" lon="8.183866499238139"><ele>478.66666666666663</ele><time>2026-04-05T13:07:17Z</time></trkpt><trkpt lat="44.36053223579422" lon="8.183638766536415"><ele>477.0</ele><time>2026-04-05T13:07:18Z</time></trkpt><trkpt lat="44.36059761150544" lon="8.183393835076497"><ele>488.33333333333337</ele><time>2026-04-05T13:07:19Z</time></trkpt><trkpt lat="44.3606598826599" lon="8.183146901703966"><ele>499.6666666666667</ele><time>2026-04-05T13:07:20Z</time></trkpt><trkpt lat="44.36070108795146" lon="8.182920472083325"><ele>511.0</ele><time>2026-04-05T13:07:21Z</time></trkpt><trkpt lat="44.360719336940136" lon="8.182723180545844"><ele>511.0</ele><time>2026-04-05T13:07:22Z</time></trkpt><trkpt lat="44.36074049680701" lon="8.182568968112648"><ele>511.0</ele><time>2026-04-05T13:07:23Z</time></trkpt><trkpt lat="44.36075295317549" lon="8.182417073028779"><ele>511.0</ele><time>2026-04-05T13:07:24Z</time></trkpt><trkpt lat="44.36076531395899" lon="8.182246631620512"><ele>511.0</ele><time>2026-04-05T13:07:25Z</time></trkpt><trkpt lat="44.36077885630987" lon="8.182050209883137"><ele>512.0</ele><time>2026-04-05T13:07:26Z</time></trkpt><trkpt lat="44.360790305395334" lon="8.181829084242766"><ele>513.0</ele><time>2026-04-05T13:07:27Z</time></trkpt><trkpt lat="44.360796597397794" lon="8.181602496949628"><ele>514.0</ele><time>2026-04-05T13:07:28Z</time></trkpt><trkpt lat="44.36079524484876" lon="8.181369028318425"><ele>517.3333333333334</ele><time>2026-04-05T13:07:29Z</time></trkpt><trkpt lat="44.36077928817879" lon="8.181152148306104"><ele>520.6666666666666</ele><time>2026-04-05T13:07:30Z</time></trkpt><trkpt lat="44.36074255767905" lon="8.180946023590392"><ele>524.0</ele><time>2026-04-05T13:07:31Z</time></trkpt><trkpt lat="44.36068030713337" lon="8.18074183309418"><ele>526.6666666666666</ele><time>2026-04-05T13:07:32Z</time></trkpt><trkpt lat="44.360613194203815" lon="8.180541745294214"><ele>529.3333333333334</ele><time>2026-04-05T13:07:32.999Z</time></trkpt><trkpt lat="44.36055984012038" lon="8.180339229877022"><ele>532.0</ele><time>2026-04-05T13:07:33.999Z</time></trkpt><trkpt lat="44.3605294437141" lon="8.180121360726448"><ele>520.3333333333334</ele><time>2026-04-05T13:07:34.999Z</time></trkpt><trkpt lat="44.36051859679791" lon="8.179893716997785"><ele>508.66666666666663</ele><time>2026-04-05T13:07:35.999Z</time></trkpt><trkpt lat="44.36051836401677" lon="8.179667928553746"><ele>497.0</ele><time>2026-04-05T13:07:36.999Z</time></trkpt><trkpt lat="44.360522038224566" lon="8.17944377779902"><ele>497.0</ele><time>2026-04-05T13:07:37.999Z</time></trkpt><trkpt lat="44.360530232936874" lon="8.179237539030096"><ele>497.0</ele><time>2026-04-05T13:07:38.999Z</time></trkpt><trkpt lat="44.36054031544846" lon="8.179058351344626"><ele>497.0</ele><time>2026-04-05T13:07:39.999Z</time></trkpt><trkpt lat="44.36053690307111" lon="8.178884543903843"><ele>497.0</ele><time>2026-04-05T13:07:40.999Z</time></trkpt><trkpt lat="44.36052796939049" lon="8.178716539436289"><ele>498.25</ele><time>2026-04-05T13:07:41.999Z</time></trkpt><trkpt lat="44.36052696703824" lon="8.178554273978406"><ele>499.5</ele><time>2026-04-05T13:07:42.999Z</time></trkpt><trkpt lat="44.360532212859006" lon="8.178391791031325"><ele>500.75</ele><time>2026-04-05T13:07:43.999Z</time></trkpt><trkpt lat="44.36053211975956" lon="8.178225070533507"><ele>502.0</ele><time>2026-04-05T13:07:44.999Z</time></trkpt><trkpt lat="44.36051796386522" lon="8.178048074848752"><ele>502.5</ele><time>2026-04-05T13:07:45.999Z</time></trkpt><trkpt lat="44.36048524002808" lon="8.177871603472104"><ele>503.0</ele><time>2026-04-05T13:07:46.999Z</time></trkpt><trkpt lat="44.36043203431946" lon="8.177715468862143"><ele>503.5</ele><time>2026-04-05T13:07:47.999Z</time></trkpt><trkpt lat="44.36038402475154" lon="8.17758252444827"><ele>504.0</ele><time>2026-04-05T13:07:48.999Z</time></trkpt><trkpt lat="44.360366979272776" lon="8.177422347797574"><ele>504.75</ele><time>2026-04-05T13:07:49.999Z</time></trkpt><trkpt lat="44.36038793986493" lon="8.177246344538995"><ele>505.5</ele><time>2026-04-05T13:07:50.999Z</time></trkpt><trkpt lat="44.36042264070735" lon="8.177066542495734"><ele>506.25</ele><time>2026-04-05T13:07:51.999Z</time></trkpt><trkpt lat="44.360462230978555" lon="8.176891391932406"><ele>507.0</ele><time>2026-04-05T13:07:52.999Z</time></trkpt><trkpt lat="44.360501977095055" lon="8.176711957951946"><ele>514.75</ele><time>2026-04-05T13:07:53.999Z</time></trkpt><trkpt lat="44.360566746673655" lon="8.176538391110665"><ele>522.5</ele><time>2026-04-05T13:07:54.999Z</time></trkpt><trkpt lat="44.36062644859" lon="8.176351497379745"><ele>530.25</ele><time>2026-04-05T13:07:55.999Z</time></trkpt><trkpt lat="44.36067138503958" lon="8.176153503328534"><ele>538.0</ele><time>2026-04-05T13:07:56.999Z</time></trkpt><trkpt lat="44.36068721174495" lon="8.175945998053376"><ele>537.5</ele><time>2026-04-05T13:07:57.999Z</time></trkpt><trkpt lat="44.36069780926143" lon="8.175750524761174"><ele>537.0</ele><time>2026-04-05T13:07:58.999Z</time></trkpt><trkpt lat="44.36072276044399" lon="8.17557778256312"><ele>536.5</ele><time>2026-04-05T13:07:59.999Z</time></trkpt><trkpt lat="44.36077587133688" lon="8.17543142965662"><ele>536.0</ele><time>2026-04-05T13:08:00.999Z</time></trkpt><trkpt lat="44.360857074339954" lon="8.175275063509165"><ele>536.0</ele><time>2026-04-05T13:08:01.999Z</time></trkpt><trkpt lat="44.36093997354287" lon="8.175116041641996"><ele>536.0</ele><time>2026-04-05T13:08:02.999Z</time></trkpt><trkpt lat="44.36102217175177" lon="8.17495243799209"><ele>536.0</ele><time>2026-04-05T13:08:03.999Z</time></trkpt><trkpt lat="44.36109096893642" lon="8.174775615765853"><ele>536.0</ele><time>2026-04-05T13:08:04.999Z</time></trkpt><trkpt lat="44.361161478888526" lon="8.174616964763372"><ele>533.8</ele><time>2026-04-05T13:08:05.999Z</time></trkpt><trkpt lat="44.36122796255473" lon="8.174483552406775"><ele>531.6</ele><time>2026-04-05T13:08:06.999Z</time></trkpt><trkpt lat="44.36128563497841" lon="8.174369374072889"><ele>529.4</ele><time>2026-04-05T13:08:07.999Z</time></trkpt><trkpt lat="44.36134444959587" lon="8.174269814590499"><ele>527.2</ele><time>2026-04-05T13:08:08.999Z</time></trkpt><trkpt lat="44.36140644187059" lon="8.174192582091358"><ele>525.0</ele><time>2026-04-05T13:08:09.999Z</time></trkpt><trkpt lat="44.361464633665086" lon="8.174101119484218"><ele>527.6</ele><time>2026-04-05T13:08:10.999Z</time></trkpt><trkpt lat="44.36152686632947" lon="8.174014762625175"><ele>530.2</ele><time>2026-04-05T13:08:11.999Z</time></trkpt><trkpt lat="44.36159743321142" lon="8.173930677993523"><ele>532.8</ele><time>2026-04-05T13:08:12.999Z</time></trkpt><trkpt lat="44.36167682840484" lon="8.17384956037611"><ele>535.4</ele><time>2026-04-05T13:08:13.999Z</time></trkpt><trkpt lat="44.36176864752446" lon="8.173758363009505"><ele>538.0</ele><time>2026-04-05T13:08:14.999Z</time></trkpt><trkpt lat="44.361878488383205" lon="8.173659394589787"><ele>538.0</ele><time>2026-04-05T13:08:15.999Z</time></trkpt><trkpt lat="44.36200196597617" lon="8.173559073910663"><ele>538.0</ele><time>2026-04-05T13:08:16.999Z</time></trkpt><trkpt lat="44.362138630269186" lon="8.17345625968869"><ele>538.0</ele><time>2026-04-05T13:08:17.999Z</time></trkpt><trkpt lat="44.36228218804175" lon="8.173358263802333"><ele>539.6666666666667</ele><time>2026-04-05T13:08:18.999Z</time></trkpt><trkpt lat="44.36242724487015" lon="8.173258626622419"><ele>541.3333333333334</ele><time>2026-04-05T13:08:19.999Z</time></trkpt><trkpt lat="44.362573649682396" lon="8.173161653765494"><ele>543.0</ele><time>2026-04-05T13:08:20.999Z</time></trkpt><trkpt lat="44.36271126194617" lon="8.17305709272161"><ele>546.3333333333334</ele><time>2026-04-05T13:08:21.999Z</time></trkpt><trkpt lat="44.36284323013873" lon="8.172940420290459"><ele>549.6666666666667</ele><time>2026-04-05T13:08:22.999Z</time></trkpt><trkpt lat="44.362976566853625" lon="8.172819188600391"><ele>553.0</ele><time>2026-04-05T13:08:23.999Z</time></trkpt><trkpt lat="44.363106256512495" lon="8.17268016254741"><ele>557.0</ele><time>2026-04-05T13:08:24.999Z</time></trkpt><trkpt lat="44.363238482475644" lon="8.172521760574433"><ele>561.0</ele><time>2026-04-05T13:08:25.999Z</time></trkpt><trkpt lat="44.36337817674071" lon="8.172339996535824"><ele>565.0</ele><time>2026-04-05T13:08:26.999Z</time></trkpt><trkpt lat="44.36352304529986" lon="8.17214298356635"><ele>566.3333333333334</ele><time>2026-04-05T13:08:27.998Z</time></trkpt><trkpt lat="44.36365561621677" lon="8.171916149464002"><ele>567.6666666666666</ele><time>2026-04-05T13:08:28.998Z</time></trkpt><trkpt lat="44.36378231316524" lon="8.171679211179397"><ele>569.0</ele><time>2026-04-05T13:08:29.998Z</time></trkpt><trkpt lat="44.36389718849448" lon="8.17143507882251"><ele>571.6666666666666</ele><time>2026-04-05T13:08:30.998Z</time></trkpt><trkpt lat="44.363999236046574" lon="8.1711799528492"><ele>574.3333333333334</ele><time>2026-04-05T13:08:31.998Z</time></trkpt><trkpt lat="44.36408626809209" lon="8.170918106662732"><ele>577.0</ele><time>2026-04-05T13:08:32.998Z</time></trkpt><trkpt lat="44.36415926247051" lon="8.170647754159972"><ele>581.0</ele><time>2026-04-05T13:08:33.998Z</time></trkpt><trkpt lat="44.36422432049264" lon="8.170375453277023"><ele>585.0</ele><time>2026-04-05T13:08:34.998Z</time></trkpt><trkpt lat="44.36427895459502" lon="8.170104538755147"><ele>589.0</ele><time>2026-04-05T13:08:35.998Z</time></trkpt><trkpt lat="44.36431484427511" lon="8.169829908645594"><ele>591.0</ele><time>2026-04-05T13:08:36.998Z</time></trkpt><trkpt lat="44.36434542912448" lon="8.169541386540825"><ele>593.0</ele><time>2026-04-05T13:08:37.998Z</time></trkpt><trkpt lat="44.364357492390205" lon="8.169234269291117"><ele>595.0</ele><time>2026-04-05T13:08:38.998Z</time></trkpt><trkpt lat="44.36435715318013" lon="8.1689123405703"><ele>595.0</ele><time>2026-04-05T13:08:39.998Z</time></trkpt><trkpt lat="44.364342518235475" lon="8.168581061833699"><ele>595.0</ele><time>2026-04-05T13:08:40.998Z</time></trkpt><trkpt lat="44.36432534327686" lon="8.168250650951123"><ele>598.5</ele><time>2026-04-05T13:08:41.998Z</time></trkpt><trkpt lat="44.36430346949218" lon="8.167925739744259"><ele>602.0</ele><time>2026-04-05T13:08:42.998Z</time></trkpt><trkpt lat="44.364280008283274" lon="8.16760464507919"><ele>605.5</ele><time>2026-04-05T13:08:43.998Z</time></trkpt><trkpt lat="44.36425464133297" lon="8.167272764458765"><ele>609.0</ele><time>2026-04-05T13:08:44.998Z</time></trkpt><trkpt lat="44.36422722801089" lon="8.166932519255836"><ele>609.0</ele><time>2026-04-05T13:08:45.998Z</time></trkpt><trkpt lat="44.364199385834794" lon="8.166596187671152"><ele>609.0</ele><time>2026-04-05T13:08:46.998Z</time></trkpt><trkpt lat="44.36417475961447" lon="8.166219505441186"><ele>610.3333333333334</ele><time>2026-04-05T13:08:47.998Z</time></trkpt><trkpt lat="44.36414283019492" lon="8.165939206525012"><ele>611.6666666666667</ele><time>2026-04-05T13:08:48.998Z</time></trkpt><trkpt lat="44.36412170523869" lon="8.165642688021947"><ele>613.0</ele><time>2026-04-05T13:08:49.998Z</time></trkpt><trkpt lat="44.36410426870595" lon="8.1653451963575"><ele>615.3333333333334</ele><time>2026-04-05T13:08:50.998Z</time></trkpt><trkpt lat="44.364086040526395" lon="8.165040558518207"><ele>617.6666666666666</ele><time>2026-04-05T13:08:51.998Z</time></trkpt><trkpt lat="44.36406643778992" lon="8.164744756310979"><ele>620.0</ele><time>2026-04-05T13:08:52.998Z</time></trkpt><trkpt lat="44.36404747711184" lon="8.164452770567605"><ele>620.6666666666666</ele><time>2026-04-05T13:08:53.998Z</time></trkpt><trkpt lat="44.36402718472199" lon="8.164162734944583"><ele>621.3333333333334</ele><time>2026-04-05T13:08:54.998Z</time></trkpt><trkpt lat="44.364003734749424" lon="8.163873711970515"><ele>622.0</ele><time>2026-04-05T13:08:55.998Z</time></trkpt><trkpt lat="44.36398048449588" lon="8.163586322398878"><ele>624.6666666666667</ele><time>2026-04-05T13:08:56.998Z</time></trkpt><trkpt lat="44.36395865491822" lon="8.163296856413258"><ele>627.3333333333334</ele><time>2026-04-05T13:08:57.998Z</time></trkpt><trkpt lat="44.363938801129045" lon="8.163025611453957"><ele>630.0</ele><time>2026-04-05T13:08:58.998Z</time></trkpt><trkpt lat="44.36392591099554" lon="8.162766854133338"><ele>635.3333333333334</ele><time>2026-04-05T13:09:00Z</time></trkpt><trkpt lat="44.36391536878358" lon="8.162509760277347"><ele>640.6666666666667</ele><time>2026-04-05T13:09:01Z</time></trkpt><trkpt lat="44.36390487133484" lon="8.162240525133559"><ele>646.0</ele><time>2026-04-05T13:09:02.015Z</time></trkpt><trkpt lat="44.36389470087792" lon="8.161972839397702"><ele>649.6666666666667</ele><time>2026-04-05T13:09:03.012Z</time></trkpt><trkpt lat="44.363916323479906" lon="8.161709725602874"><ele>653.3333333333334</ele><time>2026-04-05T13:09:04.012Z</time></trkpt><trkpt lat="44.363926412837685" lon="8.161443689194014"><ele>657.0</ele><time>2026-04-05T13:09:05.016Z</time></trkpt><trkpt lat="44.36414424515118" lon="8.15942955917591"><ele>678.5</ele><time>2026-04-05T13:09:08.273Z</time></trkpt><trkpt lat="44.36427035884617" lon="8.158827660061283"><ele>700.0</ele><time>2026-04-05T13:09:09.273Z</time></trkpt><trkpt lat="44.3644221094432" lon="8.15823729080424"><ele>698.0</ele><time>2026-04-05T13:09:10.273Z</time></trkpt><trkpt lat="44.36459838080644" lon="8.157660277945812"><ele>696.0</ele><time>2026-04-05T13:09:11.273Z</time></trkpt><trkpt lat="44.36479834372341" lon="8.15709864747575"><ele>699.0</ele><time>2026-04-05T13:09:12.272Z</time></trkpt><trkpt lat="44.365022086207574" lon="8.156555233304598"><ele>702.0</ele><time>2026-04-05T13:09:13.271Z</time></trkpt><trkpt lat="44.365269034523486" lon="8.156031795274949"><ele>707.5</ele><time>2026-04-05T13:09:14.27Z</time></trkpt><trkpt lat="44.36553743333587" lon="8.155528892006451"><ele>713.0</ele><time>2026-04-05T13:09:15.27Z</time></trkpt><trkpt lat="44.365825604254354" lon="8.15504820935124"><ele>697.0</ele><time>2026-04-05T13:09:16.269Z</time></trkpt><trkpt lat="44.36613786431011" lon="8.154593577378563"><ele>694.0</ele><time>2026-04-05T13:09:17.272Z</time></trkpt><trkpt lat="44.36646407431993" lon="8.154163451016693"><ele>691.0</ele><time>2026-04-05T13:09:18.27Z</time></trkpt><trkpt lat="44.366809544476205" lon="8.15376267843262"><ele>691.0</ele><time>2026-04-05T13:09:19.27Z</time></trkpt><trkpt lat="44.36716982925883" lon="8.153388316515493"><ele>691.0</ele><time>2026-04-05T13:09:20.268Z</time></trkpt><trkpt lat="44.36754765028383" lon="8.153045535285973"><ele>654.0</ele><time>2026-04-05T13:09:21.27Z</time></trkpt><trkpt lat="44.36793952441062" lon="8.152734935416184"><ele>645.5</ele><time>2026-04-05T13:09:22.272Z</time></trkpt><trkpt lat="44.3681815" lon="8.1525623"><ele>637.0</ele><time>2026-04-05T13:09:23.272Z</time></trkpt><trkpt lat="44.368480634916914" lon="8.152357293300472"><ele>634.5</ele><time>2026-04-05T13:09:43.999Z</time></trkpt><trkpt lat="44.36868372297183" lon="8.15221695235598"><ele>632.0</ele><time>2026-04-05T13:09:44.999Z</time></trkpt><trkpt lat="44.368886523499214" lon="8.15206319076953"><ele>632.0</ele><time>2026-04-05T13:09:45.999Z</time></trkpt><trkpt lat="44.36911583422519" lon="8.1519386561941"><ele>632.0</ele><time>2026-04-05T13:09:46.999Z</time></trkpt><trkpt lat="44.369320933632444" lon="8.15179631352036"><ele>632.0</ele><time>2026-04-05T13:09:47.999Z</time></trkpt><trkpt lat="44.36953159541838" lon="8.151676024456656"><ele>632.0</ele><time>2026-04-05T13:09:48.999Z</time></trkpt><trkpt lat="44.369735665152824" lon="8.151536659801188"><ele>637.0</ele><time>2026-04-05T13:09:49.999Z</time></trkpt><trkpt lat="44.36997158898251" lon="8.151423687792843"><ele>642.0</ele><time>2026-04-05T13:09:50.999Z</time></trkpt><trkpt lat="44.37018570070996" lon="8.151287113311996"><ele>642.0</ele><time>2026-04-05T13:09:51.999Z</time></trkpt><trkpt lat="44.37040605663629" lon="8.151167620798855"><ele>642.0</ele><time>2026-04-05T13:09:52.999Z</time></trkpt><trkpt lat="44.37060585687549" lon="8.150995254913948"><ele>647.0</ele><time>2026-04-05T13:09:53.999Z</time></trkpt><trkpt lat="44.37080892216668" lon="8.150872241633198"><ele>652.0</ele><time>2026-04-05T13:09:54.999Z</time></trkpt><trkpt lat="44.37101443674476" lon="8.150750028792306"><ele>657.0</ele><time>2026-04-05T13:09:55.999Z</time></trkpt><trkpt lat="44.37121548799654" lon="8.150607694200035"><ele>662.5</ele><time>2026-04-05T13:09:56.999Z</time></trkpt><trkpt lat="44.371420207463395" lon="8.150476067425098"><ele>668.0</ele><time>2026-04-05T13:09:57.999Z</time></trkpt><trkpt lat="44.371634930887424" lon="8.150332383832879"><ele>668.0</ele><time>2026-04-05T13:09:58.999Z</time></trkpt><trkpt lat="44.37174977220621" lon="8.150285411408332"><ele>668.0</ele><time>2026-04-05T13:09:59.999Z</time></trkpt><trkpt lat="44.37191522647495" lon="8.150157430764962"><ele>668.0</ele><time>2026-04-05T13:10:00.999Z</time></trkpt><trkpt lat="44.37207763086116" lon="8.150073267342464"><ele>667.75</ele><time>2026-04-05T13:10:01.999Z</time></trkpt><trkpt lat="44.3722115596113" lon="8.14999846919458"><ele>667.5</ele><time>2026-04-05T13:10:02.999Z</time></trkpt><trkpt lat="44.37234388953962" lon="8.149924504571485"><ele>667.25</ele><time>2026-04-05T13:10:03.999Z</time></trkpt><trkpt lat="44.37245572844909" lon="8.149849968846754"><ele>667.0</ele><time>2026-04-05T13:10:04.999Z</time></trkpt><trkpt lat="44.37255635567356" lon="8.149718360835612"><ele>668.0</ele><time>2026-04-05T13:10:05.999Z</time></trkpt><trkpt lat="44.37267535348608" lon="8.149656800568582"><ele>669.0</ele><time>2026-04-05T13:10:06.999Z</time></trkpt><trkpt lat="44.372784262559584" lon="8.149593404875553"><ele>670.0</ele><time>2026-04-05T13:10:07.999Z</time></trkpt><trkpt lat="44.37287679415125" lon="8.149543834223794"><ele>671.0</ele><time>2026-04-05T13:10:08.999Z</time></trkpt><trkpt lat="44.37300043956677" lon="8.149531327951117"><ele>670.8333333333333</ele><time>2026-04-05T13:10:10.999Z</time></trkpt><trkpt lat="44.37309778540239" lon="8.149583249968277"><ele>670.6666666666666</ele><time>2026-04-05T13:10:12.999Z</time></trkpt><trkpt lat="44.373146729809065" lon="8.149660234384273"><ele>670.5</ele><time>2026-04-05T13:10:14.999Z</time></trkpt><trkpt lat="44.373187125441056" lon="8.149728196253886"><ele>670.3333333333334</ele><time>2026-04-05T13:10:16.999Z</time></trkpt><trkpt lat="44.373239561876716" lon="8.149861376641052"><ele>670.1666666666667</ele><time>2026-04-05T13:10:18.999Z</time></trkpt><trkpt lat="44.373302973217385" lon="8.149935703141123"><ele>670.0</ele><time>2026-04-05T13:10:20.999Z</time></trkpt><trkpt lat="44.37337217400613" lon="8.149902157109842"><ele>670.0</ele><time>2026-04-05T13:10:22.999Z</time></trkpt><trkpt lat="44.37342109204542" lon="8.149819949663552"><ele>670.0</ele><time>2026-04-05T13:10:24.999Z</time></trkpt><trkpt lat="44.37351252555874" lon="8.149688476349281"><ele>670.0</ele><time>2026-04-05T13:10:26.999Z</time></trkpt><trkpt lat="44.37356809393585" lon="8.149599775564424"><ele>670.0</ele><time>2026-04-05T13:10:27.999Z</time></trkpt><trkpt lat="44.37363074490978" lon="8.149499774555176"><ele>670.0</ele><time>2026-04-05T13:10:28.999Z</time></trkpt><trkpt lat="44.37369319941867" lon="8.149409187602444"><ele>670.0</ele><time>2026-04-05T13:10:29.999Z</time></trkpt><trkpt lat="44.37375535485878" lon="8.149310541015986"><ele>670.0</ele><time>2026-04-05T13:10:30.999Z</time></trkpt><trkpt lat="44.37382251813165" lon="8.149207728218588"><ele>670.0</ele><time>2026-04-05T13:10:31.999Z</time></trkpt><trkpt lat="44.37389118124725" lon="8.14910697686164"><ele>670.0</ele><time>2026-04-05T13:10:32.999Z</time></trkpt><trkpt lat="44.37395816730174" lon="8.148997000809091"><ele>670.0</ele><time>2026-04-05T13:10:33.999Z</time></trkpt><trkpt lat="44.37401941543462" lon="8.148866883724324"><ele>671.0</ele><time>2026-04-05T13:10:34.999Z</time></trkpt><trkpt lat="44.37407052499328" lon="8.148733975848078"><ele>672.0</ele><time>2026-04-05T13:10:35.999Z</time></trkpt><trkpt lat="44.374115347219366" lon="8.14860469572385"><ele>673.0</ele><time>2026-04-05T13:10:36.999Z</time></trkpt><trkpt lat="44.37414808842635" lon="8.148465658589252"><ele>674.0</ele><time>2026-04-05T13:10:37.999Z</time></trkpt><trkpt lat="44.374187246011076" lon="8.148307447305271"><ele>675.0</ele><time>2026-04-05T13:10:38.998Z</time></trkpt><trkpt lat="44.37421957541419" lon="8.148149571632906"><ele>677.25</ele><time>2026-04-05T13:10:39.998Z</time></trkpt><trkpt lat="44.37425061675954" lon="8.147992453085585"><ele>679.5</ele><time>2026-04-05T13:10:40.998Z</time></trkpt><trkpt lat="44.374289896625115" lon="8.147840339521979"><ele>681.75</ele><time>2026-04-05T13:10:41.998Z</time></trkpt><trkpt lat="44.374338568007616" lon="8.147698252368423"><ele>684.0</ele><time>2026-04-05T13:10:42.998Z</time></trkpt><trkpt lat="44.37439474542053" lon="8.147574053864194"><ele>684.0</ele><time>2026-04-05T13:10:43.998Z</time></trkpt><trkpt lat="44.374465302965426" lon="8.147466503334364"><ele>684.0</ele><time>2026-04-05T13:10:44.998Z</time></trkpt><trkpt lat="44.374568385266336" lon="8.147373266536308"><ele>684.0</ele><time>2026-04-05T13:10:45.998Z</time></trkpt><trkpt lat="44.374668144026565" lon="8.147283027280935"><ele>684.0</ele><time>2026-04-05T13:10:46.998Z</time></trkpt><trkpt lat="44.37477224710581" lon="8.1471909985759"><ele>682.25</ele><time>2026-04-05T13:10:47.998Z</time></trkpt><trkpt lat="44.374874345161295" lon="8.147089714059863"><ele>680.5</ele><time>2026-04-05T13:10:48.998Z</time></trkpt><trkpt lat="44.37497094342502" lon="8.146973369525792"><ele>678.75</ele><time>2026-04-05T13:10:49.998Z</time></trkpt><trkpt lat="44.3750554253993" lon="8.146839878201085"><ele>677.0</ele><time>2026-04-05T13:10:50.998Z</time></trkpt><trkpt lat="44.375118643545576" lon="8.146679688152492"><ele>677.75</ele><time>2026-04-05T13:10:51.998Z</time></trkpt><trkpt lat="44.375165259915434" lon="8.146508657813952"><ele>678.5</ele><time>2026-04-05T13:10:52.998Z</time></trkpt><trkpt lat="44.37519930664181" lon="8.146321974101369"><ele>679.25</ele><time>2026-04-05T13:10:53.998Z</time></trkpt><trkpt lat="44.37522520850286" lon="8.14613213098367"><ele>680.0</ele><time>2026-04-05T13:10:54.998Z</time></trkpt><trkpt lat="44.37524933603189" lon="8.145932370991776"><ele>680.0</ele><time>2026-04-05T13:10:55.998Z</time></trkpt><trkpt lat="44.37527106842444" lon="8.145725317621427"><ele>680.0</ele><time>2026-04-05T13:10:56.998Z</time></trkpt><trkpt lat="44.3752912213488" lon="8.145512612825552"><ele>680.0</ele><time>2026-04-05T13:10:57.998Z</time></trkpt><trkpt lat="44.37530097024575" lon="8.145298749277607"><ele>681.5</ele><time>2026-04-05T13:10:58.998Z</time></trkpt><trkpt lat="44.37529092832973" lon="8.145089888817385"><ele>683.0</ele><time>2026-04-05T13:10:59.998Z</time></trkpt><trkpt lat="44.375280513589054" lon="8.144903552250225"><ele>684.5</ele><time>2026-04-05T13:11:00.998Z</time></trkpt><trkpt lat="44.37527930360212" lon="8.14473147210449"><ele>686.0</ele><time>2026-04-05T13:11:01.998Z</time></trkpt><trkpt lat="44.375315677373564" lon="8.144520297485803"><ele>686.25</ele><time>2026-04-05T13:11:02.998Z</time></trkpt><trkpt lat="44.3753601508312" lon="8.144379222628496"><ele>686.5</ele><time>2026-04-05T13:11:03.998Z</time></trkpt><trkpt lat="44.37541239022904" lon="8.144205459977032"><ele>686.75</ele><time>2026-04-05T13:11:04.998Z</time></trkpt><trkpt lat="44.375500816148794" lon="8.144050026376188"><ele>687.0</ele><time>2026-04-05T13:11:06Z</time></trkpt><trkpt lat="44.37559968694866" lon="8.143892964367614"><ele>692.0</ele><time>2026-04-05T13:11:07Z</time></trkpt><trkpt lat="44.37570842451735" lon="8.143745355839911"><ele>697.0</ele><time>2026-04-05T13:11:08Z</time></trkpt><trkpt lat="44.375833344664784" lon="8.1436161833553"><ele>702.0</ele><time>2026-04-05T13:11:09Z</time></trkpt><trkpt lat="44.37596736811787" lon="8.143492820605504"><ele>702.0</ele><time>2026-04-05T13:11:10Z</time></trkpt><trkpt lat="44.37610724334833" lon="8.143369753701478"><ele>702.0</ele><time>2026-04-05T13:11:11Z</time></trkpt><trkpt lat="44.37622733503192" lon="8.14324988913943"><ele>702.0</ele><time>2026-04-05T13:11:12Z</time></trkpt><trkpt lat="44.37632287903767" lon="8.143136512221185"><ele>702.0</ele><time>2026-04-05T13:11:13Z</time></trkpt><trkpt lat="44.376403035064214" lon="8.143029989105505"><ele>704.8333333333334</ele><time>2026-04-05T13:11:14Z</time></trkpt><trkpt lat="44.376456174979324" lon="8.142917489313378"><ele>707.6666666666666</ele><time>2026-04-05T13:11:15Z</time></trkpt><trkpt lat="44.37648758348963" lon="8.142817737752042"><ele>710.5</ele><time>2026-04-05T13:11:16Z</time></trkpt><trkpt lat="44.3764849745268" lon="8.14270713941526"><ele>713.3333333333333</ele><time>2026-04-05T13:11:17Z</time></trkpt><trkpt lat="44.37650091896071" lon="8.14259561545108"><ele>716.1666666666666</ele><time>2026-04-05T13:11:19Z</time></trkpt><trkpt lat="44.37657708809567" lon="8.142615581201511"><ele>719.0</ele><time>2026-04-05T13:11:21Z</time></trkpt><trkpt lat="44.37669953193741" lon="8.142608256698498"><ele>718.9999999999999</ele><time>2026-04-05T13:11:23Z</time></trkpt><trkpt lat="44.376774306082964" lon="8.142597657805071"><ele>719.0</ele><time>2026-04-05T13:11:24Z</time></trkpt><trkpt lat="44.37684023840429" lon="8.142614121792331"><ele>719.0</ele><time>2026-04-05T13:11:25Z</time></trkpt><trkpt lat="44.37688439543028" lon="8.142678260787433"><ele>719.0</ele><time>2026-04-05T13:11:26Z</time></trkpt><trkpt lat="44.376898686089305" lon="8.142770204365666"><ele>719.0</ele><time>2026-04-05T13:11:27Z</time></trkpt><trkpt lat="44.37682893171192" lon="8.142862444040382"><ele>718.9999999999999</ele><time>2026-04-05T13:11:28Z</time></trkpt><trkpt lat="44.37679236584419" lon="8.142936596659785"><ele>719.0</ele><time>2026-04-05T13:11:29Z</time></trkpt><trkpt lat="44.37674945230306" lon="8.143027285693476"><ele>719.0</ele><time>2026-04-05T13:11:30Z</time></trkpt><trkpt lat="44.37671858272087" lon="8.143131730909069"><ele>719.0</ele><time>2026-04-05T13:11:31Z</time></trkpt><trkpt lat="44.37666286593032" lon="8.143219302903153"><ele>719.0</ele><time>2026-04-05T13:11:32Z</time></trkpt><trkpt lat="44.376626430420835" lon="8.143307709597059"><ele>719.0</ele><time>2026-04-05T13:11:33Z</time></trkpt><trkpt lat="44.37659440755664" lon="8.143400411344736"><ele>719.0</ele><time>2026-04-05T13:11:34Z</time></trkpt><trkpt lat="44.37655730695844" lon="8.14350876252422"><ele>719.0</ele><time>2026-04-05T13:11:35Z</time></trkpt><trkpt lat="44.37651756690394" lon="8.143624822321712"><ele>718.8333333333333</ele><time>2026-04-05T13:11:36Z</time></trkpt><trkpt lat="44.37647299762073" lon="8.143742783347783"><ele>718.6666666666666</ele><time>2026-04-05T13:11:37Z</time></trkpt><trkpt lat="44.37642990661119" lon="8.143865798685676"><ele>718.5</ele><time>2026-04-05T13:11:38Z</time></trkpt><trkpt lat="44.376396185175444" lon="8.143996052639734"><ele>718.3333333333334</ele><time>2026-04-05T13:11:39Z</time></trkpt><trkpt lat="44.376378498273915" lon="8.144093443796338"><ele>718.1666666666667</ele><time>2026-04-05T13:11:40Z</time></trkpt><trkpt lat="44.37636922380182" lon="8.144191459793413"><ele>718.0</ele><time>2026-04-05T13:11:41Z</time></trkpt><trkpt lat="44.37638525517201" lon="8.14429601582196"><ele>718.5</ele><time>2026-04-05T13:11:42Z</time></trkpt><trkpt lat="44.37647269824295" lon="8.144361060481662"><ele>719.0</ele><time>2026-04-05T13:11:43Z</time></trkpt><trkpt lat="44.376551505274676" lon="8.14438881248026"><ele>719.5</ele><time>2026-04-05T13:11:44Z</time></trkpt><trkpt lat="44.37663468767781" lon="8.14439868008619"><ele>720.0</ele><time>2026-04-05T13:11:45Z</time></trkpt><trkpt lat="44.376717059105175" lon="8.144395576313611"><ele>720.5</ele><time>2026-04-05T13:11:46Z</time></trkpt><trkpt lat="44.376782321315446" lon="8.144351603637523"><ele>721.0</ele><time>2026-04-05T13:11:47Z</time></trkpt><trkpt lat="44.37683789359318" lon="8.144273429868681"><ele>721.0</ele><time>2026-04-05T13:11:48Z</time></trkpt><trkpt lat="44.376876153689686" lon="8.144168369014748"><ele>721.0</ele><time>2026-04-05T13:11:49Z</time></trkpt><trkpt lat="44.37689284516638" lon="8.144036898840605"><ele>721.0</ele><time>2026-04-05T13:11:50Z</time></trkpt><trkpt lat="44.37691646802345" lon="8.143916658131545"><ele>721.0</ele><time>2026-04-05T13:11:51Z</time></trkpt><trkpt lat="44.37695110697704" lon="8.143795011367489"><ele>721.0</ele><time>2026-04-05T13:11:52Z</time></trkpt><trkpt lat="44.37700414834987" lon="8.14367188766941"><ele>721.3333333333334</ele><time>2026-04-05T13:11:52.999Z</time></trkpt><trkpt lat="44.37705956216991" lon="8.143565350511022"><ele>721.6666666666667</ele><time>2026-04-05T13:11:53.999Z</time></trkpt><trkpt lat="44.37711618146504" lon="8.14347103306265"><ele>722.0</ele><time>2026-04-05T13:11:54.999Z</time></trkpt><trkpt lat="44.377163152516346" lon="8.143385844922069"><ele>722.3333333333334</ele><time>2026-04-05T13:11:55.999Z</time></trkpt><trkpt lat="44.37720855573953" lon="8.143304646062454"><ele>722.6666666666666</ele><time>2026-04-05T13:11:56.999Z</time></trkpt><trkpt lat="44.3772451513759" lon="8.143222642831228"><ele>723.0</ele><time>2026-04-05T13:11:57.999Z</time></trkpt><trkpt lat="44.37729194509284" lon="8.143136565283333"><ele>724.2</ele><time>2026-04-05T13:11:58.999Z</time></trkpt><trkpt lat="44.37734195171069" lon="8.143049833390728"><ele>725.4</ele><time>2026-04-05T13:11:59.999Z</time></trkpt><trkpt lat="44.377383329562434" lon="8.142970333158193"><ele>726.6</ele><time>2026-04-05T13:12:00.999Z</time></trkpt><trkpt lat="44.377446548631994" lon="8.142839105048097"><ele>727.8000000000001</ele><time>2026-04-05T13:12:02.999Z</time></trkpt><trkpt lat="44.37752609676264" lon="8.142718431634918"><ele>729.0</ele><time>2026-04-05T13:12:04.999Z</time></trkpt><trkpt lat="44.37757160810275" lon="8.142636256930391"><ele>729.0</ele><time>2026-04-05T13:12:05.999Z</time></trkpt><trkpt lat="44.377620604369106" lon="8.142559670970051"><ele>729.0</ele><time>2026-04-05T13:12:06.999Z</time></trkpt><trkpt lat="44.3776724071895" lon="8.1424828794601"><ele>729.0</ele><time>2026-04-05T13:12:07.999Z</time></trkpt><trkpt lat="44.377730485103456" lon="8.142409398431079"><ele>729.0</ele><time>2026-04-05T13:12:08.999Z</time></trkpt><trkpt lat="44.37779015729145" lon="8.142362153408243"><ele>729.0</ele><time>2026-04-05T13:12:09.999Z</time></trkpt><trkpt lat="44.377839639564925" lon="8.14229941851893"><ele>729.0</ele><time>2026-04-05T13:12:10.999Z</time></trkpt><trkpt lat="44.377931783897445" lon="8.142208210795818"><ele>730.3333333333334</ele><time>2026-04-05T13:12:12.999Z</time></trkpt><trkpt lat="44.3779193425277" lon="8.142096260500542"><ele>731.6666666666666</ele><time>2026-04-05T13:12:14.999Z</time></trkpt><trkpt lat="44.37782211881645" lon="8.141977643998501"><ele>733.0</ele><time>2026-04-05T13:12:16.999Z</time></trkpt><trkpt lat="44.3777882940985" lon="8.141898689751995"><ele>734.3333333333333</ele><time>2026-04-05T13:12:17.999Z</time></trkpt><trkpt lat="44.377780827040375" lon="8.14179351011732"><ele>735.6666666666666</ele><time>2026-04-05T13:12:18.999Z</time></trkpt><trkpt lat="44.37774190722721" lon="8.141723594026386"><ele>737.0</ele><time>2026-04-05T13:12:19.999Z</time></trkpt><trkpt lat="44.37770216453762" lon="8.141653725520309"><ele>737.4000000000001</ele><time>2026-04-05T13:12:20.999Z</time></trkpt><trkpt lat="44.377640765417176" lon="8.141517292144282"><ele>737.8000000000001</ele><time>2026-04-05T13:12:22.999Z</time></trkpt><trkpt lat="44.377737883167946" lon="8.14147299411999"><ele>738.2</ele><time>2026-04-05T13:12:27.999Z</time></trkpt><trkpt lat="44.377822649855204" lon="8.141483002167043"><ele>738.6</ele><time>2026-04-05T13:12:28.999Z</time></trkpt><trkpt lat="44.37791204055335" lon="8.141478684916574"><ele>739.0</ele><time>2026-04-05T13:12:29.999Z</time></trkpt><trkpt lat="44.378046332807074" lon="8.14147619880459"><ele>739.0</ele><time>2026-04-05T13:12:31.999Z</time></trkpt><trkpt lat="44.37811872716326" lon="8.14145031257745"><ele>739.0</ele><time>2026-04-05T13:12:32.999Z</time></trkpt><trkpt lat="44.378191375857426" lon="8.14142073464074"><ele>739.0</ele><time>2026-04-05T13:12:33.999Z</time></trkpt><trkpt lat="44.378262935818505" lon="8.141308060710372"><ele>739.0</ele><time>2026-04-05T13:12:34.999Z</time></trkpt><trkpt lat="44.37831561808041" lon="8.141183955194403"><ele>739.0</ele><time>2026-04-05T13:12:35.999Z</time></trkpt><trkpt lat="44.37839199263995" lon="8.141067220115156"><ele>739.0</ele><time>2026-04-05T13:12:36.999Z</time></trkpt><trkpt lat="44.37846171233724" lon="8.140938509208585"><ele>739.0</ele><time>2026-04-05T13:12:37.999Z</time></trkpt><trkpt lat="44.37851766026253" lon="8.140828282887963"><ele>739.0</ele><time>2026-04-05T13:12:38.999Z</time></trkpt><trkpt lat="44.3785671722919" lon="8.140718940154246"><ele>739.0</ele><time>2026-04-05T13:12:39.999Z</time></trkpt><trkpt lat="44.37859397964283" lon="8.140591028975992"><ele>739.0</ele><time>2026-04-05T13:12:40.999Z</time></trkpt><trkpt lat="44.37861698247337" lon="8.140486753001232"><ele>737.2</ele><time>2026-04-05T13:12:41.999Z</time></trkpt><trkpt lat="44.37864068231937" lon="8.140377435892415"><ele>735.4000000000001</ele><time>2026-04-05T13:12:42.999Z</time></trkpt><trkpt lat="44.37866009418966" lon="8.140264255476048"><ele>733.6</ele><time>2026-04-05T13:12:43.999Z</time></trkpt><trkpt lat="44.37868434714016" lon="8.140142414227256"><ele>731.8</ele><time>2026-04-05T13:12:44.999Z</time></trkpt><trkpt lat="44.37870761717425" lon="8.140010759556136"><ele>730.0</ele><time>2026-04-05T13:12:45.998Z</time></trkpt><trkpt lat="44.378731954472144" lon="8.139873487186986"><ele>728.75</ele><time>2026-04-05T13:12:46.998Z</time></trkpt><trkpt lat="44.37875697731306" lon="8.139730031015027"><ele>727.5</ele><time>2026-04-05T13:12:47.998Z</time></trkpt><trkpt lat="44.37878357150438" lon="8.139580899129513"><ele>726.25</ele><time>2026-04-05T13:12:48.998Z</time></trkpt><trkpt lat="44.37883307087973" lon="8.13943085284418"><ele>725.0</ele><time>2026-04-05T13:12:49.998Z</time></trkpt><trkpt lat="44.37888876767276" lon="8.139286834861187"><ele>726.25</ele><time>2026-04-05T13:12:50.998Z</time></trkpt><trkpt lat="44.37894449599238" lon="8.139145496500426"><ele>727.5</ele><time>2026-04-05T13:12:51.998Z</time></trkpt><trkpt lat="44.37900157163812" lon="8.139007232448485"><ele>728.75</ele><time>2026-04-05T13:12:52.998Z</time></trkpt><trkpt lat="44.37907114968047" lon="8.138878801930257"><ele>730.0</ele><time>2026-04-05T13:12:53.998Z</time></trkpt><trkpt lat="44.379149190647624" lon="8.138767050100325"><ele>730.0</ele><time>2026-04-05T13:12:54.998Z</time></trkpt><trkpt lat="44.37923960953977" lon="8.13867322268999"><ele>730.0</ele><time>2026-04-05T13:12:55.998Z</time></trkpt><trkpt lat="44.379347133808515" lon="8.13860935405258"><ele>730.0</ele><time>2026-04-05T13:12:56.998Z</time></trkpt><trkpt lat="44.3794505390302" lon="8.138583952747926"><ele>730.0</ele><time>2026-04-05T13:12:57.998Z</time></trkpt><trkpt lat="44.3795519659908" lon="8.138543747641386"><ele>730.0</ele><time>2026-04-05T13:12:58.998Z</time></trkpt><trkpt lat="44.379663108792165" lon="8.138494947343075"><ele>730.4</ele><time>2026-04-05T13:12:59.998Z</time></trkpt><trkpt lat="44.37976258847259" lon="8.138438737526402"><ele>730.8</ele><time>2026-04-05T13:13:00.998Z</time></trkpt><trkpt lat="44.379858651068616" lon="8.138363487154765"><ele>731.2</ele><time>2026-04-05T13:13:01.998Z</time></trkpt><trkpt lat="44.379956669807875" lon="8.138277974326572"><ele>731.6</ele><time>2026-04-05T13:13:02.998Z</time></trkpt><trkpt lat="44.380043721345" lon="8.13817122606788"><ele>732.0</ele><time>2026-04-05T13:13:03.998Z</time></trkpt><trkpt lat="44.38012133973221" lon="8.138035448919059"><ele>732.0</ele><time>2026-04-05T13:13:04.998Z</time></trkpt><trkpt lat="44.38018420086485" lon="8.137878194786547"><ele>732.0</ele><time>2026-04-05T13:13:05.998Z</time></trkpt><trkpt lat="44.380236124297745" lon="8.137704070696984"><ele>732.0</ele><time>2026-04-05T13:13:06.998Z</time></trkpt><trkpt lat="44.38028015487743" lon="8.137520044345598"><ele>732.0</ele><time>2026-04-05T13:13:07.998Z</time></trkpt><trkpt lat="44.3803284595746" lon="8.137329367166314"><ele>728.3333333333334</ele><time>2026-04-05T13:13:08.998Z</time></trkpt><trkpt lat="44.38038050290348" lon="8.137140521101168"><ele>724.6666666666667</ele><time>2026-04-05T13:13:09.998Z</time></trkpt><trkpt lat="44.380454593502805" lon="8.136952583658154"><ele>721.0</ele><time>2026-04-05T13:13:10.998Z</time></trkpt><trkpt lat="44.38054254632316" lon="8.136775454215858"><ele>726.0</ele><time>2026-04-05T13:13:12Z</time></trkpt><trkpt lat="44.38061588663929" lon="8.136589974746027"><ele>731.0</ele><time>2026-04-05T13:13:13Z</time></trkpt><trkpt lat="44.380659236289056" lon="8.136391474861842"><ele>736.0</ele><time>2026-04-05T13:13:14Z</time></trkpt><trkpt lat="44.38067315614284" lon="8.136184498284402"><ele>741.0</ele><time>2026-04-05T13:13:15Z</time></trkpt><trkpt lat="44.380683671040714" lon="8.135991099770791"><ele>741.0</ele><time>2026-04-05T13:13:16Z</time></trkpt><trkpt lat="44.380688399425196" lon="8.135809536805269"><ele>741.0</ele><time>2026-04-05T13:13:17Z</time></trkpt><trkpt lat="44.38069582811971" lon="8.135632884341058"><ele>741.0</ele><time>2026-04-05T13:13:18Z</time></trkpt><trkpt lat="44.3807054771047" lon="8.135465336114077"><ele>741.0</ele><time>2026-04-05T13:13:19Z</time></trkpt><trkpt lat="44.38071442125671" lon="8.13529909811478"><ele>739.0</ele><time>2026-04-05T13:13:20Z</time></trkpt><trkpt lat="44.3807352081203" lon="8.135143551233504"><ele>737.0</ele><time>2026-04-05T13:13:21Z</time></trkpt><trkpt lat="44.38077244913843" lon="8.135002382366192"><ele>735.0</ele><time>2026-04-05T13:13:22Z</time></trkpt><trkpt lat="44.38082586449487" lon="8.134862224535631"><ele>733.0</ele><time>2026-04-05T13:13:23Z</time></trkpt><trkpt lat="44.38087961309215" lon="8.134718980232877"><ele>730.5</ele><time>2026-04-05T13:13:24Z</time></trkpt><trkpt lat="44.38096805716378" lon="8.134608017427102"><ele>728.0</ele><time>2026-04-05T13:13:25Z</time></trkpt><trkpt lat="44.38106243236595" lon="8.134487277083775"><ele>725.5</ele><time>2026-04-05T13:13:26Z</time></trkpt><trkpt lat="44.38116488488121" lon="8.1343818951174"><ele>723.0</ele><time>2026-04-05T13:13:27Z</time></trkpt><trkpt lat="44.381275869252285" lon="8.134252389702183"><ele>723.25</ele><time>2026-04-05T13:13:28Z</time></trkpt><trkpt lat="44.38139517640619" lon="8.134143702048599"><ele>723.5</ele><time>2026-04-05T13:13:29Z</time></trkpt><trkpt lat="44.38150859526008" lon="8.134038772031776"><ele>723.75</ele><time>2026-04-05T13:13:30Z</time></trkpt><trkpt lat="44.38162126662021" lon="8.133942875782651"><ele>724.0</ele><time>2026-04-05T13:13:31Z</time></trkpt><trkpt lat="44.381730349414696" lon="8.133852447517581"><ele>724.0</ele><time>2026-04-05T13:13:32Z</time></trkpt><trkpt lat="44.38183217940368" lon="8.133738946651063"><ele>724.0</ele><time>2026-04-05T13:13:33Z</time></trkpt><trkpt lat="44.381902464519236" lon="8.133591025641575"><ele>724.0</ele><time>2026-04-05T13:13:34Z</time></trkpt><trkpt lat="44.3819871759105" lon="8.133450545773288"><ele>724.0</ele><time>2026-04-05T13:13:35Z</time></trkpt><trkpt lat="44.38208249601338" lon="8.133317901256884"><ele>725.25</ele><time>2026-04-05T13:13:36Z</time></trkpt><trkpt lat="44.38217743391657" lon="8.133187440962192"><ele>726.5</ele><time>2026-04-05T13:13:37Z</time></trkpt><trkpt lat="44.3822733020536" lon="8.133055372498783"><ele>727.75</ele><time>2026-04-05T13:13:38Z</time></trkpt><trkpt lat="44.38237805339905" lon="8.132922479665423"><ele>729.0</ele><time>2026-04-05T13:13:39Z</time></trkpt><trkpt lat="44.38245483014879" lon="8.132793904703561"><ele>729.0</ele><time>2026-04-05T13:13:40Z</time></trkpt><trkpt lat="44.38250158736352" lon="8.13264878197085"><ele>729.0</ele><time>2026-04-05T13:13:41Z</time></trkpt><trkpt lat="44.38258597055872" lon="8.13252251732342"><ele>729.0</ele><time>2026-04-05T13:13:42Z</time></trkpt><trkpt lat="44.382674693691314" lon="8.132407399406246"><ele>729.0</ele><time>2026-04-05T13:13:43Z</time></trkpt><trkpt lat="44.38277112407375" lon="8.132302632569699"><ele>729.0</ele><time>2026-04-05T13:13:44Z</time></trkpt><trkpt lat="44.382867366091304" lon="8.132216909359508"><ele>729.0</ele><time>2026-04-05T13:13:45Z</time></trkpt><trkpt lat="44.38296689345038" lon="8.132131330582752"><ele>729.0</ele><time>2026-04-05T13:13:46Z</time></trkpt><trkpt lat="44.383072540993965" lon="8.132033119680836"><ele>729.0</ele><time>2026-04-05T13:13:47Z</time></trkpt><trkpt lat="44.38319428069845" lon="8.131975163276994"><ele>729.0</ele><time>2026-04-05T13:13:48Z</time></trkpt><trkpt lat="44.38332849589868" lon="8.13194561084693"><ele>729.0</ele><time>2026-04-05T13:13:49Z</time></trkpt><trkpt lat="44.38347105492412" lon="8.131872907519552"><ele>729.0</ele><time>2026-04-05T13:13:50Z</time></trkpt><trkpt lat="44.383619231352746" lon="8.131800527371004"><ele>729.0</ele><time>2026-04-05T13:13:51Z</time></trkpt><trkpt lat="44.38377995819118" lon="8.131711291104278"><ele>728.3333333333334</ele><time>2026-04-05T13:13:52Z</time></trkpt><trkpt lat="44.383947662847106" lon="8.131622234177994"><ele>727.6666666666667</ele><time>2026-04-05T13:13:53Z</time></trkpt><trkpt lat="44.384121918800915" lon="8.131553597870408"><ele>727.0</ele><time>2026-04-05T13:13:53.999Z</time></trkpt><trkpt lat="44.3843002965815" lon="8.131497098719743"><ele>728.3333333333334</ele><time>2026-04-05T13:13:54.999Z</time></trkpt><trkpt lat="44.38448015692096" lon="8.131460309026425"><ele>729.6666666666666</ele><time>2026-04-05T13:13:55.999Z</time></trkpt><trkpt lat="44.38464395149499" lon="8.131429158064224"><ele>731.0</ele><time>2026-04-05T13:13:56.999Z</time></trkpt><trkpt lat="44.38480428881003" lon="8.13139558039205"><ele>731.0</ele><time>2026-04-05T13:13:57.999Z</time></trkpt><trkpt lat="44.384971400607114" lon="8.131358682862306"><ele>731.0</ele><time>2026-04-05T13:13:58.999Z</time></trkpt><trkpt lat="44.38512326969032" lon="8.131327662490932"><ele>731.0</ele><time>2026-04-05T13:13:59.999Z</time></trkpt><trkpt lat="44.38527531571608" lon="8.131306894503318"><ele>731.0</ele><time>2026-04-05T13:14:00.999Z</time></trkpt><trkpt lat="44.385431302862614" lon="8.131297072345625"><ele>731.0</ele><time>2026-04-05T13:14:01.999Z</time></trkpt><trkpt lat="44.385581986535705" lon="8.131289569299058"><ele>731.0</ele><time>2026-04-05T13:14:02.999Z</time></trkpt><trkpt lat="44.3857383782982" lon="8.131296481078598"><ele>728.5</ele><time>2026-04-05T13:14:03.999Z</time></trkpt><trkpt lat="44.38587707451524" lon="8.131286808324903"><ele>726.0</ele><time>2026-04-05T13:14:04.999Z</time></trkpt><trkpt lat="44.386012284078" lon="8.131289659135588"><ele>723.5</ele><time>2026-04-05T13:14:05.999Z</time></trkpt><trkpt lat="44.38615312296732" lon="8.131311493123604"><ele>721.0</ele><time>2026-04-05T13:14:06.999Z</time></trkpt><trkpt lat="44.38629250313284" lon="8.131365141856126"><ele>720.0</ele><time>2026-04-05T13:14:07.999Z</time></trkpt><trkpt lat="44.386424881037854" lon="8.131448395740964"><ele>719.0</ele><time>2026-04-05T13:14:08.999Z</time></trkpt><trkpt lat="44.38654955622638" lon="8.131561434212994"><ele>718.0</ele><time>2026-04-05T13:14:09.999Z</time></trkpt><trkpt lat="44.38666112474247" lon="8.131672067730147"><ele>717.0</ele><time>2026-04-05T13:14:10.999Z</time></trkpt><trkpt lat="44.38677146021279" lon="8.131753316466556"><ele>717.0</ele><time>2026-04-05T13:14:11.999Z</time></trkpt><trkpt lat="44.386901696328295" lon="8.131819266849142"><ele>717.0</ele><time>2026-04-05T13:14:12.999Z</time></trkpt><trkpt lat="44.387047545976834" lon="8.131848834862692"><ele>717.0</ele><time>2026-04-05T13:14:13.999Z</time></trkpt><trkpt lat="44.387212010719736" lon="8.131860435157398"><ele>718.0</ele><time>2026-04-05T13:14:14.999Z</time></trkpt><trkpt lat="44.38737834569839" lon="8.131899319332975"><ele>719.0</ele><time>2026-04-05T13:14:15.999Z</time></trkpt><trkpt lat="44.387548077161775" lon="8.131934761528893"><ele>720.0</ele><time>2026-04-05T13:14:16.999Z</time></trkpt><trkpt lat="44.38770713004853" lon="8.131980976650848"><ele>720.0</ele><time>2026-04-05T13:14:17.999Z</time></trkpt><trkpt lat="44.387853631725534" lon="8.13204460617669"><ele>720.0</ele><time>2026-04-05T13:14:18.999Z</time></trkpt><trkpt lat="44.38799106985524" lon="8.132112400162418"><ele>720.0</ele><time>2026-04-05T13:14:19.999Z</time></trkpt><trkpt lat="44.38813070666153" lon="8.132172244826226"><ele>720.0</ele><time>2026-04-05T13:14:20.999Z</time></trkpt><trkpt lat="44.38827283865048" lon="8.132221643848311"><ele>719.25</ele><time>2026-04-05T13:14:21.999Z</time></trkpt><trkpt lat="44.388420790402456" lon="8.132256201021614"><ele>718.5</ele><time>2026-04-05T13:14:22.999Z</time></trkpt><trkpt lat="44.38856404909175" lon="8.132228706954848"><ele>717.75</ele><time>2026-04-05T13:14:23.999Z</time></trkpt><trkpt lat="44.38870142905801" lon="8.132160997985144"><ele>717.0</ele><time>2026-04-05T13:14:24.999Z</time></trkpt><trkpt lat="44.38884146529126" lon="8.132071868604141"><ele>714.0</ele><time>2026-04-05T13:14:25.999Z</time></trkpt><trkpt lat="44.388990132735145" lon="8.1319852129026"><ele>711.0</ele><time>2026-04-05T13:14:26.999Z</time></trkpt><trkpt lat="44.38914785807242" lon="8.131902460318756"><ele>708.0</ele><time>2026-04-05T13:14:27.999Z</time></trkpt><trkpt lat="44.38931194535953" lon="8.13181763744559"><ele>708.0</ele><time>2026-04-05T13:14:28.999Z</time></trkpt><trkpt lat="44.38947858083904" lon="8.131734494656733"><ele>708.0</ele><time>2026-04-05T13:14:29.999Z</time></trkpt><trkpt lat="44.389646685440525" lon="8.131653275063426"><ele>708.0</ele><time>2026-04-05T13:14:30.999Z</time></trkpt><trkpt lat="44.38980446333204" lon="8.131554305735131"><ele>705.6666666666666</ele><time>2026-04-05T13:14:31.999Z</time></trkpt><trkpt lat="44.3899577462737" lon="8.13143433269846"><ele>703.3333333333333</ele><time>2026-04-05T13:14:32.999Z</time></trkpt><trkpt lat="44.39010643203062" lon="8.131290936207149"><ele>701.0</ele><time>2026-04-05T13:14:33.999Z</time></trkpt><trkpt lat="44.39024518431582" lon="8.131143738105655"><ele>701.0</ele><time>2026-04-05T13:14:34.999Z</time></trkpt><trkpt lat="44.39036933940092" lon="8.131005530387322"><ele>701.0</ele><time>2026-04-05T13:14:35.999Z</time></trkpt><trkpt lat="44.39048177640918" lon="8.13086231748641"><ele>701.0</ele><time>2026-04-05T13:14:36.999Z</time></trkpt><trkpt lat="44.39057788634374" lon="8.130711511084273"><ele>700.0</ele><time>2026-04-05T13:14:37.999Z</time></trkpt><trkpt lat="44.390659149436374" lon="8.130551945886419"><ele>699.0</ele><time>2026-04-05T13:14:38.999Z</time></trkpt><trkpt lat="44.39072416861169" lon="8.13039261835277"><ele>698.0</ele><time>2026-04-05T13:14:39.999Z</time></trkpt><trkpt lat="44.39078571905497" lon="8.130249226543167"><ele>697.0</ele><time>2026-04-05T13:14:40.999Z</time></trkpt><trkpt lat="44.39086976423127" lon="8.130140202116598"><ele>697.0</ele><time>2026-04-05T13:14:41.999Z</time></trkpt><trkpt lat="44.39098018918588" lon="8.13006300103249"><ele>697.0</ele><time>2026-04-05T13:14:42.999Z</time></trkpt><trkpt lat="44.39110546504506" lon="8.130032777826106"><ele>697.0</ele><time>2026-04-05T13:14:43.999Z</time></trkpt><trkpt lat="44.39124160266393" lon="8.130055336207297"><ele>697.0</ele><time>2026-04-05T13:14:44.998Z</time></trkpt><trkpt lat="44.391375286448614" lon="8.130155379804632"><ele>695.6666666666667</ele><time>2026-04-05T13:14:45.998Z</time></trkpt><trkpt lat="44.39150494875335" lon="8.130242727089989"><ele>694.3333333333334</ele><time>2026-04-05T13:14:46.998Z</time></trkpt><trkpt lat="44.391641315648805" lon="8.130354925998141"><ele>693.0</ele><time>2026-04-05T13:14:47.998Z</time></trkpt><trkpt lat="44.39177954991144" lon="8.13043276303166"><ele>693.0</ele><time>2026-04-05T13:14:48.998Z</time></trkpt><trkpt lat="44.39192055970502" lon="8.130474681584452"><ele>693.0</ele><time>2026-04-05T13:14:49.998Z</time></trkpt><trkpt lat="44.392069809504626" lon="8.130478227680431"><ele>693.0</ele><time>2026-04-05T13:14:50.998Z</time></trkpt><trkpt lat="44.39222910410027" lon="8.130436800180373"><ele>690.6666666666666</ele><time>2026-04-05T13:14:51.998Z</time></trkpt><trkpt lat="44.392391488258795" lon="8.130357696583328"><ele>688.3333333333333</ele><time>2026-04-05T13:14:52.998Z</time></trkpt><trkpt lat="44.392542779652146" lon="8.13024667068594"><ele>686.0</ele><time>2026-04-05T13:14:53.998Z</time></trkpt><trkpt lat="44.392685515921315" lon="8.130123469708407"><ele>686.0</ele><time>2026-04-05T13:14:54.998Z</time></trkpt><trkpt lat="44.392830925860274" lon="8.129991581864948"><ele>686.0</ele><time>2026-04-05T13:14:55.998Z</time></trkpt><trkpt lat="44.39297555626428" lon="8.129834766250994"><ele>686.0</ele><time>2026-04-05T13:14:56.998Z</time></trkpt><trkpt lat="44.39311740209078" lon="8.129668766572307"><ele>682.6666666666666</ele><time>2026-04-05T13:14:57.998Z</time></trkpt><trkpt lat="44.39324403406302" lon="8.129502396579737"><ele>679.3333333333334</ele><time>2026-04-05T13:14:58.998Z</time></trkpt><trkpt lat="44.39335547642392" lon="8.129331676411562"><ele>676.0</ele><time>2026-04-05T13:14:59.998Z</time></trkpt><trkpt lat="44.39346705499463" lon="8.129179139686093"><ele>674.0</ele><time>2026-04-05T13:15:00.998Z</time></trkpt><trkpt lat="44.393604337586886" lon="8.129054978374592"><ele>672.0</ele><time>2026-04-05T13:15:01.998Z</time></trkpt><trkpt lat="44.393729682442704" lon="8.128933571061333"><ele>670.0</ele><time>2026-04-05T13:15:02.998Z</time></trkpt><trkpt lat="44.393872026650385" lon="8.128848434736529"><ele>670.0</ele><time>2026-04-05T13:15:03.998Z</time></trkpt><trkpt lat="44.39402362112492" lon="8.128772892534311"><ele>670.0</ele><time>2026-04-05T13:15:04.998Z</time></trkpt><trkpt lat="44.394188733388745" lon="8.128722363120163"><ele>670.0</ele><time>2026-04-05T13:15:05.998Z</time></trkpt><trkpt lat="44.39436835879414" lon="8.128700269312544"><ele>670.0</ele><time>2026-04-05T13:15:06.998Z</time></trkpt><trkpt lat="44.39455622076086" lon="8.128692307495706"><ele>670.0</ele><time>2026-04-05T13:15:07.998Z</time></trkpt><trkpt lat="44.39474091560445" lon="8.128660783825717"><ele>670.0</ele><time>2026-04-05T13:15:08.998Z</time></trkpt><trkpt lat="44.39491880973064" lon="8.128595659811346"><ele>669.0</ele><time>2026-04-05T13:15:09.998Z</time></trkpt><trkpt lat="44.39509371369687" lon="8.128497233202255"><ele>668.0</ele><time>2026-04-05T13:15:10.998Z</time></trkpt><trkpt lat="44.39526333206589" lon="8.128388555546197"><ele>667.0</ele><time>2026-04-05T13:15:11.998Z</time></trkpt><trkpt lat="44.39541900215985" lon="8.128294772047873"><ele>670.6666666666667</ele><time>2026-04-05T13:15:12.998Z</time></trkpt><trkpt lat="44.39556056316416" lon="8.128195239520593"><ele>674.3333333333334</ele><time>2026-04-05T13:15:13.998Z</time></trkpt><trkpt lat="44.39569763359321" lon="8.128074041199119"><ele>678.0</ele><time>2026-04-05T13:15:14.998Z</time></trkpt><trkpt lat="44.39582441367136" lon="8.127930655338373"><ele>678.0</ele><time>2026-04-05T13:15:15.998Z</time></trkpt><trkpt lat="44.395942983630036" lon="8.127775589977325"><ele>678.0</ele><time>2026-04-05T13:15:16.998Z</time></trkpt><trkpt lat="44.396043202094496" lon="8.127598701817334"><ele>678.0</ele><time>2026-04-05T13:15:18Z</time></trkpt><trkpt lat="44.39613374163401" lon="8.12741527607498"><ele>679.0</ele><time>2026-04-05T13:15:19Z</time></trkpt><trkpt lat="44.396208166730396" lon="8.12720783519022"><ele>680.0</ele><time>2026-04-05T13:15:20Z</time></trkpt><trkpt lat="44.396267455143224" lon="8.126985767442743"><ele>681.0</ele><time>2026-04-05T13:15:21Z</time></trkpt><trkpt lat="44.39631407872504" lon="8.126746983659967"><ele>680.3333333333334</ele><time>2026-04-05T13:15:22Z</time></trkpt><trkpt lat="44.396346881445844" lon="8.126502177638011"><ele>679.6666666666667</ele><time>2026-04-05T13:15:23Z</time></trkpt><trkpt lat="44.396367053004994" lon="8.126271209724564"><ele>679.0</ele><time>2026-04-05T13:15:24Z</time></trkpt><trkpt lat="44.39639425168691" lon="8.126062413542781"><ele>679.0</ele><time>2026-04-05T13:15:25Z</time></trkpt><trkpt lat="44.39644498498841" lon="8.125861816892892"><ele>679.0</ele><time>2026-04-05T13:15:26Z</time></trkpt><trkpt lat="44.396529558886066" lon="8.125675341097416"><ele>679.0</ele><time>2026-04-05T13:15:27Z</time></trkpt><trkpt lat="44.39664049775786" lon="8.125508077105957"><ele>680.0</ele><time>2026-04-05T13:15:28Z</time></trkpt><trkpt lat="44.396772888447146" lon="8.125363179194233"><ele>681.0</ele><time>2026-04-05T13:15:29Z</time></trkpt><trkpt lat="44.39692215548039" lon="8.125233877582696"><ele>682.0</ele><time>2026-04-05T13:15:30Z</time></trkpt><trkpt lat="44.397078670642934" lon="8.125108627358959"><ele>683.0</ele><time>2026-04-05T13:15:31Z</time></trkpt><trkpt lat="44.397238611050675" lon="8.124991669458401"><ele>684.0</ele><time>2026-04-05T13:15:32Z</time></trkpt><trkpt lat="44.39737937075375" lon="8.124870227632973"><ele>685.0</ele><time>2026-04-05T13:15:33Z</time></trkpt><trkpt lat="44.397501167948924" lon="8.124751267859807"><ele>685.75</ele><time>2026-04-05T13:15:34Z</time></trkpt><trkpt lat="44.39760212007525" lon="8.124617847992306"><ele>686.5</ele><time>2026-04-05T13:15:35Z</time></trkpt><trkpt lat="44.39767650691956" lon="8.12445409530339"><ele>687.25</ele><time>2026-04-05T13:15:36Z</time></trkpt><trkpt lat="44.39772948610412" lon="8.124269624505018"><ele>688.0</ele><time>2026-04-05T13:15:37Z</time></trkpt><trkpt lat="44.397747768261375" lon="8.124073563015585"><ele>688.75</ele><time>2026-04-05T13:15:38Z</time></trkpt><trkpt lat="44.39774408650331" lon="8.123878361496164"><ele>689.5</ele><time>2026-04-05T13:15:39Z</time></trkpt><trkpt lat="44.39772234114404" lon="8.123692079437356"><ele>690.25</ele><time>2026-04-05T13:15:40Z</time></trkpt><trkpt lat="44.397719487045684" lon="8.12353411124586"><ele>691.0</ele><time>2026-04-05T13:15:41Z</time></trkpt><trkpt lat="44.39775529013503" lon="8.123382506859187"><ele>689.0</ele><time>2026-04-05T13:15:42Z</time></trkpt><trkpt lat="44.39782407980028" lon="8.123224196978361"><ele>687.0</ele><time>2026-04-05T13:15:43Z</time></trkpt><trkpt lat="44.39791290716337" lon="8.123074455492274"><ele>685.0</ele><time>2026-04-05T13:15:44Z</time></trkpt><trkpt lat="44.39803476324285" lon="8.122964790725549"><ele>683.0</ele><time>2026-04-05T13:15:45Z</time></trkpt><trkpt lat="44.398159758218654" lon="8.122820966598955"><ele>688.6666666666666</ele><time>2026-04-05T13:15:46Z</time></trkpt><trkpt lat="44.398308415801026" lon="8.12269943680075"><ele>694.3333333333334</ele><time>2026-04-05T13:15:47Z</time></trkpt><trkpt lat="44.398466385537866" lon="8.122563983878779"><ele>700.0</ele><time>2026-04-05T13:15:48Z</time></trkpt><trkpt lat="44.39862850930548" lon="8.122408378151945"><ele>702.6666666666667</ele><time>2026-04-05T13:15:49Z</time></trkpt><trkpt lat="44.39879408988109" lon="8.122254252548114"><ele>705.3333333333334</ele><time>2026-04-05T13:15:50Z</time></trkpt><trkpt lat="44.39894839382025" lon="8.1221263314969"><ele>708.0</ele><time>2026-04-05T13:15:51Z</time></trkpt><trkpt lat="44.399077131796425" lon="8.122004121130855"><ele>708.0</ele><time>2026-04-05T13:15:52Z</time></trkpt><trkpt lat="44.39920040485562" lon="8.121887227442308"><ele>708.0</ele><time>2026-04-05T13:15:53Z</time></trkpt><trkpt lat="44.399330820113825" lon="8.121756248669072"><ele>708.0</ele><time>2026-04-05T13:15:53.999Z</time></trkpt><trkpt lat="44.399443592054276" lon="8.121603137628894"><ele>709.3333333333334</ele><time>2026-04-05T13:15:54.999Z</time></trkpt><trkpt lat="44.39955080078543" lon="8.121433589320825"><ele>710.6666666666667</ele><time>2026-04-05T13:15:55.999Z</time></trkpt><trkpt lat="44.399652902976506" lon="8.121258522842988"><ele>712.0</ele><time>2026-04-05T13:15:56.999Z</time></trkpt><trkpt lat="44.399769520592315" lon="8.121099602900216"><ele>712.0</ele><time>2026-04-05T13:15:57.999Z</time></trkpt><trkpt lat="44.39987993585205" lon="8.120950076553745"><ele>712.0</ele><time>2026-04-05T13:15:58.999Z</time></trkpt><trkpt lat="44.39997306045136" lon="8.120804776290592"><ele>712.0</ele><time>2026-04-05T13:15:59.999Z</time></trkpt><trkpt lat="44.40005132961395" lon="8.12065142541481"><ele>712.0</ele><time>2026-04-05T13:16:00.999Z</time></trkpt><trkpt lat="44.40009680818887" lon="8.120464868848963"><ele>712.0</ele><time>2026-04-05T13:16:01.999Z</time></trkpt><trkpt lat="44.40014299592426" lon="8.120261655753708"><ele>712.0</ele><time>2026-04-05T13:16:02.999Z</time></trkpt><trkpt lat="44.40018831326002" lon="8.12003972036403"><ele>712.0</ele><time>2026-04-05T13:16:03.999Z</time></trkpt><trkpt lat="44.4002338469364" lon="8.119813418319257"><ele>713.3333333333334</ele><time>2026-04-05T13:16:04.999Z</time></trkpt><trkpt lat="44.40028086602301" lon="8.119595039626699"><ele>714.6666666666666</ele><time>2026-04-05T13:16:05.999Z</time></trkpt><trkpt lat="44.4003283973494" lon="8.119390428167405"><ele>716.0</ele><time>2026-04-05T13:16:06.999Z</time></trkpt><trkpt lat="44.40037522659973" lon="8.119188135916364"><ele>715.5</ele><time>2026-04-05T13:16:07.999Z</time></trkpt><trkpt lat="44.40042949386091" lon="8.118991311372028"><ele>715.0</ele><time>2026-04-05T13:16:08.999Z</time></trkpt><trkpt lat="44.40049695960728" lon="8.118807235229026"><ele>714.5</ele><time>2026-04-05T13:16:09.999Z</time></trkpt><trkpt lat="44.400571963603284" lon="8.118627641091244"><ele>714.0</ele><time>2026-04-05T13:16:10.999Z</time></trkpt><trkpt lat="44.40065622423981" lon="8.11845870462501"><ele>712.25</ele><time>2026-04-05T13:16:11.999Z</time></trkpt><trkpt lat="44.40075232926108" lon="8.118300586704446"><ele>710.5</ele><time>2026-04-05T13:16:12.999Z</time></trkpt><trkpt lat="44.40085708822661" lon="8.11815563613796"><ele>708.75</ele><time>2026-04-05T13:16:13.999Z</time></trkpt><trkpt lat="44.400966079370754" lon="8.118025371286691"><ele>707.0</ele><time>2026-04-05T13:16:14.999Z</time></trkpt><trkpt lat="44.40106801598823" lon="8.11791584581307"><ele>707.0</ele><time>2026-04-05T13:16:15.999Z</time></trkpt><trkpt lat="44.4011680789956" lon="8.117825285070067"><ele>707.0</ele><time>2026-04-05T13:16:16.999Z</time></trkpt><trkpt lat="44.40126409202793" lon="8.117754504396425"><ele>707.0</ele><time>2026-04-05T13:16:17.999Z</time></trkpt><trkpt lat="44.40135061679504" lon="8.117709066700725"><ele>707.0</ele><time>2026-04-05T13:16:18.999Z</time></trkpt><trkpt lat="44.40142975526309" lon="8.117675301593342"><ele>707.0</ele><time>2026-04-05T13:16:19.999Z</time></trkpt><trkpt lat="44.401507320060524" lon="8.117663812637991"><ele>706.0</ele><time>2026-04-05T13:16:20.999Z</time></trkpt><trkpt lat="44.401583857959736" lon="8.117682891628972"><ele>705.0</ele><time>2026-04-05T13:16:21.999Z</time></trkpt><trkpt lat="44.40165053317858" lon="8.117770073884067"><ele>704.0</ele><time>2026-04-05T13:16:22.999Z</time></trkpt><trkpt lat="44.40172495559003" lon="8.117827412732696"><ele>703.0</ele><time>2026-04-05T13:16:23.999Z</time></trkpt><trkpt lat="44.40179338998899" lon="8.117920544536354"><ele>702.0</ele><time>2026-04-05T13:16:24.999Z</time></trkpt><trkpt lat="44.40187318376702" lon="8.118014022802594"><ele>702.0</ele><time>2026-04-05T13:16:25.999Z</time></trkpt><trkpt lat="44.40195513043707" lon="8.118105371847449"><ele>702.0</ele><time>2026-04-05T13:16:26.999Z</time></trkpt><trkpt lat="44.40203763227087" lon="8.118203714467397"><ele>702.0</ele><time>2026-04-05T13:16:27.999Z</time></trkpt><trkpt lat="44.40211690625481" lon="8.118296681664233"><ele>702.0</ele><time>2026-04-05T13:16:28.999Z</time></trkpt><trkpt lat="44.40219132525841" lon="8.11839320548278"><ele>702.0</ele><time>2026-04-05T13:16:29.999Z</time></trkpt><trkpt lat="44.402268706032054" lon="8.118493863450908"><ele>699.8</ele><time>2026-04-05T13:16:30.999Z</time></trkpt><trkpt lat="44.40234258381814" lon="8.118598957076173"><ele>697.6</ele><time>2026-04-05T13:16:31.999Z</time></trkpt><trkpt lat="44.40241203013692" lon="8.118706792841312"><ele>695.4</ele><time>2026-04-05T13:16:32.999Z</time></trkpt><trkpt lat="44.4024761096669" lon="8.118823807994493"><ele>693.1999999999999</ele><time>2026-04-05T13:16:33.999Z</time></trkpt><trkpt lat="44.4025305918376" lon="8.118949040061382"><ele>691.0</ele><time>2026-04-05T13:16:34.999Z</time></trkpt><trkpt lat="44.40258302089855" lon="8.119080050728947"><ele>689.8</ele><time>2026-04-05T13:16:35.999Z</time></trkpt><trkpt lat="44.40263082389141" lon="8.119210562397425"><ele>688.5999999999999</ele><time>2026-04-05T13:16:36.999Z</time></trkpt><trkpt lat="44.40268067484726" lon="8.119340497012612"><ele>687.4</ele><time>2026-04-05T13:16:37.999Z</time></trkpt><trkpt lat="44.40273384662727" lon="8.119472572537703"><ele>686.2</ele><time>2026-04-05T13:16:38.999Z</time></trkpt><trkpt lat="44.4027827783423" lon="8.119604366334823"><ele>685.0</ele><time>2026-04-05T13:16:39.999Z</time></trkpt><trkpt lat="44.4028346872667" lon="8.11973505004614"><ele>685.0</ele><time>2026-04-05T13:16:40.999Z</time></trkpt><trkpt lat="44.40288763221138" lon="8.119865706472298"><ele>685.0</ele><time>2026-04-05T13:16:41.999Z</time></trkpt><trkpt lat="44.402938195796324" lon="8.11998916766285"><ele>685.0</ele><time>2026-04-05T13:16:42.999Z</time></trkpt><trkpt lat="44.40298186347513" lon="8.120106448624416"><ele>685.0</ele><time>2026-04-05T13:16:43.999Z</time></trkpt><trkpt lat="44.40302323368798" lon="8.120219318475943"><ele>685.0</ele><time>2026-04-05T13:16:44.999Z</time></trkpt><trkpt lat="44.403070940931705" lon="8.12032023779944"><ele>683.4</ele><time>2026-04-05T13:16:45.999Z</time></trkpt><trkpt lat="44.40313738716831" lon="8.120401917867927"><ele>681.8</ele><time>2026-04-05T13:16:46.998Z</time></trkpt><trkpt lat="44.40321721722936" lon="8.120462371552513"><ele>680.2</ele><time>2026-04-05T13:16:47.998Z</time></trkpt><trkpt lat="44.40330755677113" lon="8.120464142297953"><ele>678.6</ele><time>2026-04-05T13:16:48.998Z</time></trkpt><trkpt lat="44.403393316151075" lon="8.120406647498825"><ele>677.0</ele><time>2026-04-05T13:16:49.998Z</time></trkpt><trkpt lat="44.403455252895654" lon="8.120324827446268"><ele>677.0</ele><time>2026-04-05T13:16:50.998Z</time></trkpt><trkpt lat="44.403496377044526" lon="8.120203034997"><ele>677.0</ele><time>2026-04-05T13:16:51.998Z</time></trkpt><trkpt lat="44.403501954022786" lon="8.12006471487497"><ele>677.0</ele><time>2026-04-05T13:16:52.998Z</time></trkpt><trkpt lat="44.40347843151703" lon="8.119931870052927"><ele>677.0</ele><time>2026-04-05T13:16:53.998Z</time></trkpt><trkpt lat="44.4034537059869" lon="8.119809323748717"><ele>677.0</ele><time>2026-04-05T13:16:54.998Z</time></trkpt><trkpt lat="44.403421214187205" lon="8.119712041111086"><ele>676.6666666666666</ele><time>2026-04-05T13:16:55.998Z</time></trkpt><trkpt lat="44.40344458918643" lon="8.11961908934561"><ele>676.3333333333333</ele><time>2026-04-05T13:16:56.998Z</time></trkpt><trkpt lat="44.40350818120936" lon="8.119557805435187"><ele>676.0</ele><time>2026-04-05T13:16:57.998Z</time></trkpt><trkpt lat="44.40358136796164" lon="8.119568537191775"><ele>675.6666666666666</ele><time>2026-04-05T13:16:58.998Z</time></trkpt><trkpt lat="44.40363371042588" lon="8.119643310771474"><ele>675.3333333333334</ele><time>2026-04-05T13:16:59.998Z</time></trkpt><trkpt lat="44.40364581255859" lon="8.119763041640269"><ele>675.0</ele><time>2026-04-05T13:17:00.998Z</time></trkpt><trkpt lat="44.40369217834355" lon="8.119887735649375"><ele>675.5</ele><time>2026-04-05T13:17:01.998Z</time></trkpt><trkpt lat="44.40373906202196" lon="8.12004885193887"><ele>676.0</ele><time>2026-04-05T13:17:02.998Z</time></trkpt><trkpt lat="44.403818871924166" lon="8.120224578246079"><ele>676.5</ele><time>2026-04-05T13:17:03.998Z</time></trkpt><trkpt lat="44.40391665508699" lon="8.120418468019931"><ele>677.0</ele><time>2026-04-05T13:17:04.998Z</time></trkpt><trkpt lat="44.40402155451921" lon="8.120626434744997"><ele>674.0</ele><time>2026-04-05T13:17:05.998Z</time></trkpt><trkpt lat="44.40411753056308" lon="8.120825159275709"><ele>671.0</ele><time>2026-04-05T13:17:06.998Z</time></trkpt><trkpt lat="44.40421659731511" lon="8.121021440148393"><ele>668.0</ele><time>2026-04-05T13:17:07.998Z</time></trkpt><trkpt lat="44.404320379206474" lon="8.121222972885496"><ele>668.0</ele><time>2026-04-05T13:17:08.998Z</time></trkpt><trkpt lat="44.40440835464572" lon="8.121436805217794"><ele>668.0</ele><time>2026-04-05T13:17:09.998Z</time></trkpt><trkpt lat="44.40451431411934" lon="8.121622576206"><ele>668.0</ele><time>2026-04-05T13:17:10.998Z</time></trkpt><trkpt lat="44.40460639884773" lon="8.121814931784582"><ele>664.6666666666666</ele><time>2026-04-05T13:17:11.998Z</time></trkpt><trkpt lat="44.40469178406413" lon="8.122002303840732"><ele>661.3333333333334</ele><time>2026-04-05T13:17:12.998Z</time></trkpt><trkpt lat="44.40475644543519" lon="8.1221985599105"><ele>658.0</ele><time>2026-04-05T13:17:13.998Z</time></trkpt><trkpt lat="44.404828306119484" lon="8.122373495106787"><ele>657.25</ele><time>2026-04-05T13:17:14.998Z</time></trkpt><trkpt lat="44.4048939794839" lon="8.12253937237295"><ele>656.5</ele><time>2026-04-05T13:17:15.998Z</time></trkpt><trkpt lat="44.404951703138636" lon="8.122696428048007"><ele>655.75</ele><time>2026-04-05T13:17:16.998Z</time></trkpt><trkpt lat="44.405005539399994" lon="8.122848147978203"><ele>655.0</ele><time>2026-04-05T13:17:17.998Z</time></trkpt><trkpt lat="44.40506169098777" lon="8.123002255568235"><ele>655.0</ele><time>2026-04-05T13:17:18.998Z</time></trkpt><trkpt lat="44.40514013594418" lon="8.123148450048195"><ele>655.0</ele><time>2026-04-05T13:17:19.998Z</time></trkpt><trkpt lat="44.40524701211435" lon="8.123282531744286"><ele>655.0</ele><time>2026-04-05T13:17:20.998Z</time></trkpt><trkpt lat="44.40536182875056" lon="8.12340168237242"><ele>655.0</ele><time>2026-04-05T13:17:21.998Z</time></trkpt><trkpt lat="44.40547506687146" lon="8.123518591798474"><ele>652.75</ele><time>2026-04-05T13:17:22.998Z</time></trkpt><trkpt lat="44.40558441588033" lon="8.12363148583896"><ele>650.5</ele><time>2026-04-05T13:17:24Z</time></trkpt><trkpt lat="44.40569002871189" lon="8.123740522649303"><ele>648.25</ele><time>2026-04-05T13:17:25Z</time></trkpt><trkpt lat="44.4057899197444" lon="8.123843953187398"><ele>646.0</ele><time>2026-04-05T13:17:26Z</time></trkpt><trkpt lat="44.40588900750662" lon="8.123919464384958"><ele>646.0</ele><time>2026-04-05T13:17:27Z</time></trkpt><trkpt lat="44.40595327604958" lon="8.124037584149292"><ele>646.0</ele><time>2026-04-05T13:17:28Z</time></trkpt><trkpt lat="44.406032211966135" lon="8.124135324365644"><ele>646.0</ele><time>2026-04-05T13:17:29Z</time></trkpt><trkpt lat="44.406135730089666" lon="8.124147731163326"><ele>646.0</ele><time>2026-04-05T13:17:30Z</time></trkpt><trkpt lat="44.40623900526587" lon="8.124120699353078"><ele>646.0</ele><time>2026-04-05T13:17:31Z</time></trkpt><trkpt lat="44.40634146228224" lon="8.124071430368865"><ele>644.5999999999999</ele><time>2026-04-05T13:17:32Z</time></trkpt><trkpt lat="44.40642999879832" lon="8.124026982862384"><ele>643.1999999999999</ele><time>2026-04-05T13:17:33Z</time></trkpt><trkpt lat="44.40651735096903" lon="8.12398590683239"><ele>641.8</ele><time>2026-04-05T13:17:34Z</time></trkpt><trkpt lat="44.406615269920685" lon="8.123975126970981"><ele>640.4</ele><time>2026-04-05T13:17:35Z</time></trkpt><trkpt lat="44.406717001388216" lon="8.124003055586801"><ele>639.0</ele><time>2026-04-05T13:17:36Z</time></trkpt><trkpt lat="44.40682472382373" lon="8.124075716614003"><ele>638.25</ele><time>2026-04-05T13:17:37Z</time></trkpt><trkpt lat="44.40692503318517" lon="8.124181540640299"><ele>637.5</ele><time>2026-04-05T13:17:38Z</time></trkpt><trkpt lat="44.40701262338155" lon="8.124329812733189"><ele>636.75</ele><time>2026-04-05T13:17:39Z</time></trkpt><trkpt lat="44.407092945229955" lon="8.124496431874453"><ele>636.0</ele><time>2026-04-05T13:17:40Z</time></trkpt><trkpt lat="44.40716622574416" lon="8.12467711937614"><ele>633.0</ele><time>2026-04-05T13:17:41Z</time></trkpt><trkpt lat="44.407211847592336" lon="8.124889582578723"><ele>630.0</ele><time>2026-04-05T13:17:42Z</time></trkpt><trkpt lat="44.407264314998685" lon="8.125090407025123"><ele>627.0</ele><time>2026-04-05T13:17:43Z</time></trkpt><trkpt lat="44.407317609845165" lon="8.12529439844643"><ele>627.0</ele><time>2026-04-05T13:17:44Z</time></trkpt><trkpt lat="44.40738622212393" lon="8.125492778735177"><ele>627.0</ele><time>2026-04-05T13:17:45Z</time></trkpt><trkpt lat="44.40744034512622" lon="8.125702037920563"><ele>627.0</ele><time>2026-04-05T13:17:46Z</time></trkpt><trkpt lat="44.40749441690148" lon="8.125916667096496"><ele>626.6666666666666</ele><time>2026-04-05T13:17:47Z</time></trkpt><trkpt lat="44.40755167560747" lon="8.1261318725068"><ele>626.3333333333333</ele><time>2026-04-05T13:17:48Z</time></trkpt><trkpt lat="44.40760922445605" lon="8.126347733474613"><ele>626.0</ele><time>2026-04-05T13:17:49Z</time></trkpt><trkpt lat="44.40766460010273" lon="8.126565165722255"><ele>626.5</ele><time>2026-04-05T13:17:50Z</time></trkpt><trkpt lat="44.40771445195409" lon="8.126763213875615"><ele>627.0</ele><time>2026-04-05T13:17:51Z</time></trkpt><trkpt lat="44.407761057379815" lon="8.126947955282487"><ele>627.5</ele><time>2026-04-05T13:17:52Z</time></trkpt><trkpt lat="44.40780531537271" lon="8.127116621347946"><ele>628.0</ele><time>2026-04-05T13:17:53Z</time></trkpt><trkpt lat="44.40784657130137" lon="8.127272003489097"><ele>628.0</ele><time>2026-04-05T13:17:54Z</time></trkpt><trkpt lat="44.40788614055396" lon="8.127413003629405"><ele>628.0</ele><time>2026-04-05T13:17:55Z</time></trkpt><trkpt lat="44.407917544244725" lon="8.1275298727069"><ele>628.0</ele><time>2026-04-05T13:17:55.999Z</time></trkpt><trkpt lat="44.407937655768784" lon="8.127617093522943"><ele>628.0</ele><time>2026-04-05T13:17:56.999Z</time></trkpt><trkpt lat="44.40796758492079" lon="8.127721536711999"><ele>628.0</ele><time>2026-04-05T13:17:58.999Z</time></trkpt><trkpt lat="44.408082730392984" lon="8.127572745818414"><ele>628.1999999999999</ele><time>2026-04-05T13:18:02.999Z</time></trkpt><trkpt lat="44.40808603305728" lon="8.127454634042905"><ele>628.4</ele><time>2026-04-05T13:18:03.999Z</time></trkpt><trkpt lat="44.40811768424472" lon="8.12732683477429"><ele>628.5999999999999</ele><time>2026-04-05T13:18:04.999Z</time></trkpt><trkpt lat="44.408163063782375" lon="8.127191089148814"><ele>628.8</ele><time>2026-04-05T13:18:05.999Z</time></trkpt><trkpt lat="44.40821918459523" lon="8.127055589764247"><ele>629.0</ele><time>2026-04-05T13:18:06.999Z</time></trkpt><trkpt lat="44.40828434716383" lon="8.126906210248544"><ele>629.0</ele><time>2026-04-05T13:18:07.999Z</time></trkpt><trkpt lat="44.40836769567536" lon="8.126751345318274"><ele>629.0</ele><time>2026-04-05T13:18:08.999Z</time></trkpt><trkpt lat="44.40846538857779" lon="8.126588438186992"><ele>629.0</ele><time>2026-04-05T13:18:09.999Z</time></trkpt><trkpt lat="44.40856486438327" lon="8.126428415784893"><ele>629.0</ele><time>2026-04-05T13:18:10.999Z</time></trkpt><trkpt lat="44.40867949298049" lon="8.126265731290045"><ele>629.0</ele><time>2026-04-05T13:18:11.999Z</time></trkpt><trkpt lat="44.40878326769725" lon="8.126075934633347"><ele>629.0</ele><time>2026-04-05T13:18:12.999Z</time></trkpt><trkpt lat="44.40889213940959" lon="8.125875863647149"><ele>629.0</ele><time>2026-04-05T13:18:13.999Z</time></trkpt><trkpt lat="44.409005130888225" lon="8.125666138129807"><ele>629.6666666666666</ele><time>2026-04-05T13:18:14.999Z</time></trkpt><trkpt lat="44.4091156903091" lon="8.125452329686013"><ele>630.3333333333334</ele><time>2026-04-05T13:18:15.999Z</time></trkpt><trkpt lat="44.409215045693415" lon="8.125258067926676"><ele>631.0</ele><time>2026-04-05T13:18:16.999Z</time></trkpt><trkpt lat="44.409305193018575" lon="8.12508183400648"><ele>631.0</ele><time>2026-04-05T13:18:17.999Z</time></trkpt><trkpt lat="44.40938956551767" lon="8.124927435414877"><ele>631.0</ele><time>2026-04-05T13:18:18.999Z</time></trkpt><trkpt lat="44.40948035671949" lon="8.124800046016457"><ele>631.0</ele><time>2026-04-05T13:18:19.999Z</time></trkpt><trkpt lat="44.409595818708134" lon="8.124740103229241"><ele>631.0</ele><time>2026-04-05T13:18:20.999Z</time></trkpt><trkpt lat="44.40970548210992" lon="8.12464826397962"><ele>631.5</ele><time>2026-04-05T13:18:21.999Z</time></trkpt><trkpt lat="44.409806965049896" lon="8.124538736113507"><ele>632.0</ele><time>2026-04-05T13:18:22.999Z</time></trkpt><trkpt lat="44.40990751644004" lon="8.124430276511434"><ele>632.5</ele><time>2026-04-05T13:18:23.999Z</time></trkpt><trkpt lat="44.409985666383314" lon="8.124293787577827"><ele>633.0</ele><time>2026-04-05T13:18:24.999Z</time></trkpt><trkpt lat="44.41004950729728" lon="8.124137549588276"><ele>633.0</ele><time>2026-04-05T13:18:25.999Z</time></trkpt><trkpt lat="44.410097916066505" lon="8.12394567669103"><ele>633.0</ele><time>2026-04-05T13:18:26.999Z</time></trkpt><trkpt lat="44.410149781113155" lon="8.123736198191121"><ele>633.0</ele><time>2026-04-05T13:18:27.999Z</time></trkpt><trkpt lat="44.41020499257596" lon="8.123528089507206"><ele>633.0</ele><time>2026-04-05T13:18:28.999Z</time></trkpt><trkpt lat="44.4102510644589" lon="8.123336181096093"><ele>633.0</ele><time>2026-04-05T13:18:29.999Z</time></trkpt><trkpt lat="44.41027938163975" lon="8.123157946741227"><ele>633.0</ele><time>2026-04-05T13:18:30.999Z</time></trkpt><trkpt lat="44.41030874615585" lon="8.122996211907994"><ele>633.0</ele><time>2026-04-05T13:18:31.999Z</time></trkpt><trkpt lat="44.41035410878602" lon="8.122856879789092"><ele>632.0</ele><time>2026-04-05T13:18:32.999Z</time></trkpt><trkpt lat="44.41043808916706" lon="8.12274944422255"><ele>631.0</ele><time>2026-04-05T13:18:33.999Z</time></trkpt><trkpt lat="44.4105092158422" lon="8.122626649316414"><ele>630.0</ele><time>2026-04-05T13:18:34.999Z</time></trkpt><trkpt lat="44.41058784889915" lon="8.122550772058403"><ele>629.0</ele><time>2026-04-05T13:18:35.999Z</time></trkpt><trkpt lat="44.41065860181125" lon="8.122508293238733"><ele>628.0</ele><time>2026-04-05T13:18:36.999Z</time></trkpt><trkpt lat="44.410736469956284" lon="8.122454412212818"><ele>627.5</ele><time>2026-04-05T13:18:37.999Z</time></trkpt><trkpt lat="44.410851587393324" lon="8.122439862878402"><ele>627.0</ele><time>2026-04-05T13:18:38.999Z</time></trkpt><trkpt lat="44.410988196889555" lon="8.12239276184689"><ele>626.5</ele><time>2026-04-05T13:18:39.999Z</time></trkpt><trkpt lat="44.41112683053667" lon="8.122327684279206"><ele>626.0</ele><time>2026-04-05T13:18:40.999Z</time></trkpt><trkpt lat="44.41127297158006" lon="8.122313914300104"><ele>626.0</ele><time>2026-04-05T13:18:41.999Z</time></trkpt><trkpt lat="44.41140824681907" lon="8.122298249847683"><ele>626.0</ele><time>2026-04-05T13:18:42.999Z</time></trkpt><trkpt lat="44.41154649333393" lon="8.122298323236182"><ele>626.0</ele><time>2026-04-05T13:18:43.999Z</time></trkpt><trkpt lat="44.41169366848299" lon="8.122298308357331"><ele>626.0</ele><time>2026-04-05T13:18:44.999Z</time></trkpt><trkpt lat="44.41183775153381" lon="8.122244842267083"><ele>626.0</ele><time>2026-04-05T13:18:45.999Z</time></trkpt><trkpt lat="44.411988584874244" lon="8.12220346407304"><ele>626.0</ele><time>2026-04-05T13:18:46.999Z</time></trkpt><trkpt lat="44.41213738603" lon="8.122150470265064"><ele>626.0</ele><time>2026-04-05T13:18:47.999Z</time></trkpt><trkpt lat="44.41227371809191" lon="8.122095277804004"><ele>626.0</ele><time>2026-04-05T13:18:48.999Z</time></trkpt><trkpt lat="44.4123933160299" lon="8.12202280194142"><ele>625.75</ele><time>2026-04-05T13:18:49.999Z</time></trkpt><trkpt lat="44.41250062633908" lon="8.121924410457193"><ele>625.5</ele><time>2026-04-05T13:18:50.998Z</time></trkpt><trkpt lat="44.41258863157342" lon="8.121802200616733"><ele>625.25</ele><time>2026-04-05T13:18:51.998Z</time></trkpt><trkpt lat="44.4126683367481" lon="8.121667677183073"><ele>625.0</ele><time>2026-04-05T13:18:52.998Z</time></trkpt><trkpt lat="44.41274674634197" lon="8.121524671238404"><ele>625.0</ele><time>2026-04-05T13:18:53.998Z</time></trkpt><trkpt lat="44.412844335122" lon="8.121392740425794"><ele>625.0</ele><time>2026-04-05T13:18:54.998Z</time></trkpt><trkpt lat="44.41296051575316" lon="8.121276712853708"><ele>625.0</ele><time>2026-04-05T13:18:55.998Z</time></trkpt><trkpt lat="44.41308809139274" lon="8.12117508559021"><ele>625.0</ele><time>2026-04-05T13:18:56.998Z</time></trkpt><trkpt lat="44.41322155188739" lon="8.121085792379944"><ele>624.75</ele><time>2026-04-05T13:18:57.998Z</time></trkpt><trkpt lat="44.413360162514756" lon="8.121013462207312"><ele>624.5</ele><time>2026-04-05T13:18:58.998Z</time></trkpt><trkpt lat="44.4135020741311" lon="8.120948873376767"><ele>624.25</ele><time>2026-04-05T13:18:59.998Z</time></trkpt><trkpt lat="44.413646484433436" lon="8.120898654082922"><ele>624.0</ele><time>2026-04-05T13:19:00.998Z</time></trkpt><trkpt lat="44.41379218024697" lon="8.120861797433577"><ele>624.0</ele><time>2026-04-05T13:19:01.998Z</time></trkpt><trkpt lat="44.413942757947" lon="8.120839908138638"><ele>624.0</ele><time>2026-04-05T13:19:02.998Z</time></trkpt><trkpt lat="44.41409575036809" lon="8.120834310691365"><ele>624.0</ele><time>2026-04-05T13:19:03.998Z</time></trkpt><trkpt lat="44.41425079986054" lon="8.12083097701998"><ele>624.0</ele><time>2026-04-05T13:19:04.998Z</time></trkpt><trkpt lat="44.414407509053596" lon="8.120840352122093"><ele>624.0</ele><time>2026-04-05T13:19:05.998Z</time></trkpt><trkpt lat="44.41456995772538" lon="8.120854721739125"><ele>624.0</ele><time>2026-04-05T13:19:06.998Z</time></trkpt><trkpt lat="44.4147376157105" lon="8.120867079830294"><ele>624.3333333333334</ele><time>2026-04-05T13:19:07.998Z</time></trkpt><trkpt lat="44.41490866833474" lon="8.120883450815898"><ele>624.6666666666667</ele><time>2026-04-05T13:19:08.998Z</time></trkpt><trkpt lat="44.41507618165923" lon="8.120941900896854"><ele>625.0</ele><time>2026-04-05T13:19:09.998Z</time></trkpt><trkpt lat="44.415249880736106" lon="8.12099378177171"><ele>625.0</ele><time>2026-04-05T13:19:10.998Z</time></trkpt><trkpt lat="44.41542001422507" lon="8.121025170126341"><ele>625.0</ele><time>2026-04-05T13:19:11.998Z</time></trkpt><trkpt lat="44.41559092520887" lon="8.121020701741324"><ele>625.0</ele><time>2026-04-05T13:19:12.998Z</time></trkpt><trkpt lat="44.415762574933076" lon="8.12103667677765"><ele>625.0</ele><time>2026-04-05T13:19:13.998Z</time></trkpt><trkpt lat="44.4159235736764" lon="8.121055799717618"><ele>625.0</ele><time>2026-04-05T13:19:14.998Z</time></trkpt><trkpt lat="44.41607485342442" lon="8.121055358653875"><ele>625.0</ele><time>2026-04-05T13:19:15.998Z</time></trkpt><trkpt lat="44.41621986846959" lon="8.121039225799585"><ele>625.0</ele><time>2026-04-05T13:19:16.998Z</time></trkpt><trkpt lat="44.41635845892975" lon="8.12102207559109"><ele>625.0</ele><time>2026-04-05T13:19:17.998Z</time></trkpt><trkpt lat="44.416482322164875" lon="8.120994441069836"><ele>625.0</ele><time>2026-04-05T13:19:18.998Z</time></trkpt><trkpt lat="44.41660157954562" lon="8.120987122349876"><ele>625.0</ele><time>2026-04-05T13:19:19.998Z</time></trkpt><trkpt lat="44.416705091038686" lon="8.121044160138922"><ele>625.0</ele><time>2026-04-05T13:19:20.998Z</time></trkpt><trkpt lat="44.41680905134246" lon="8.121084648370104"><ele>625.0</ele><time>2026-04-05T13:19:21.998Z</time></trkpt><trkpt lat="44.416925813751924" lon="8.121101660946664"><ele>625.0</ele><time>2026-04-05T13:19:22.998Z</time></trkpt><trkpt lat="44.417039869505444" lon="8.121118917294435"><ele>625.0</ele><time>2026-04-05T13:19:23.998Z</time></trkpt><trkpt lat="44.417150065360744" lon="8.121121475109467"><ele>625.0</ele><time>2026-04-05T13:19:24.998Z</time></trkpt><trkpt lat="44.41724667719543" lon="8.121110580037163"><ele>625.0</ele><time>2026-04-05T13:19:25.998Z</time></trkpt><trkpt lat="44.4173425366121" lon="8.12109898478269"><ele>625.0</ele><time>2026-04-05T13:19:26.998Z</time></trkpt><trkpt lat="44.417429449883294" lon="8.121088594838318"><ele>625.0</ele><time>2026-04-05T13:19:27.998Z</time></trkpt><trkpt lat="44.417516231077485" lon="8.12107335842317"><ele>625.0</ele><time>2026-04-05T13:19:28.998Z</time></trkpt><trkpt lat="44.41761064328507" lon="8.121050521494244"><ele>625.0</ele><time>2026-04-05T13:19:30Z</time></trkpt><trkpt lat="44.41770685799233" lon="8.12100020467155"><ele>625.0</ele><time>2026-04-05T13:19:31Z</time></trkpt><trkpt lat="44.41779986883149" lon="8.120937866587104"><ele>625.0</ele><time>2026-04-05T13:19:32Z</time></trkpt><trkpt lat="44.41788073528546" lon="8.120881161923032"><ele>625.0</ele><time>2026-04-05T13:19:33Z</time></trkpt><trkpt lat="44.41796202574826" lon="8.12084233828106"><ele>625.0</ele><time>2026-04-05T13:19:34Z</time></trkpt><trkpt lat="44.41803649081798" lon="8.120803535920658"><ele>625.2</ele><time>2026-04-05T13:19:35Z</time></trkpt><trkpt lat="44.41811780041697" lon="8.120774565518564"><ele>625.4</ele><time>2026-04-05T13:19:36Z</time></trkpt><trkpt lat="44.41820112728222" lon="8.120732723822123"><ele>625.6</ele><time>2026-04-05T13:19:37Z</time></trkpt><trkpt lat="44.41828658369339" lon="8.120677192448627"><ele>625.8</ele><time>2026-04-05T13:19:38Z</time></trkpt><trkpt lat="44.418375642435926" lon="8.120633932279063"><ele>626.0</ele><time>2026-04-05T13:19:39Z</time></trkpt><trkpt lat="44.41846438954469" lon="8.120605642473665"><ele>625.6666666666666</ele><time>2026-04-05T13:19:40Z</time></trkpt><trkpt lat="44.4185516433311" lon="8.120594618349038"><ele>625.3333333333333</ele><time>2026-04-05T13:19:41Z</time></trkpt><trkpt lat="44.4186369520819" lon="8.120602486825494"><ele>625.0</ele><time>2026-04-05T13:19:42Z</time></trkpt><trkpt lat="44.418719488773064" lon="8.120614684800701"><ele>624.6666666666666</ele><time>2026-04-05T13:19:43Z</time></trkpt><trkpt lat="44.41879628244084" lon="8.120676067748612"><ele>624.3333333333334</ele><time>2026-04-05T13:19:44Z</time></trkpt><trkpt lat="44.4188678520281" lon="8.120732349236476"><ele>624.0</ele><time>2026-04-05T13:19:45Z</time></trkpt><trkpt lat="44.418932965262414" lon="8.120796197761136"><ele>623.5</ele><time>2026-04-05T13:19:46Z</time></trkpt><trkpt lat="44.41898923449541" lon="8.120859476158422"><ele>623.0</ele><time>2026-04-05T13:19:47Z</time></trkpt><trkpt lat="44.41904482972725" lon="8.120934343080407"><ele>622.5</ele><time>2026-04-05T13:19:48Z</time></trkpt><trkpt lat="44.419097004215246" lon="8.121015851366419"><ele>622.0</ele><time>2026-04-05T13:19:49Z</time></trkpt><trkpt lat="44.419146070604334" lon="8.12109971273385"><ele>621.5</ele><time>2026-04-05T13:19:50Z</time></trkpt><trkpt lat="44.41919509356565" lon="8.121184706407645"><ele>621.0</ele><time>2026-04-05T13:19:51Z</time></trkpt><trkpt lat="44.41924817508171" lon="8.121262937305882"><ele>620.9999999999999</ele><time>2026-04-05T13:19:52Z</time></trkpt><trkpt lat="44.419302308704054" lon="8.121336688882245"><ele>621.0</ele><time>2026-04-05T13:19:53Z</time></trkpt><trkpt lat="44.41936144486717" lon="8.121403192177572"><ele>621.0</ele><time>2026-04-05T13:19:54Z</time></trkpt><trkpt lat="44.41942009954349" lon="8.121453438033843"><ele>621.0</ele><time>2026-04-05T13:19:55Z</time></trkpt><trkpt lat="44.419475773247555" lon="8.121494650427778"><ele>621.0</ele><time>2026-04-05T13:19:56Z</time></trkpt><trkpt lat="44.4195354550219" lon="8.121540373562317"><ele>620.9999999999999</ele><time>2026-04-05T13:19:57Z</time></trkpt><trkpt lat="44.41960666176127" lon="8.121589572913674"><ele>621.0</ele><time>2026-04-05T13:19:58Z</time></trkpt><trkpt lat="44.41968699786173" lon="8.1216388089674"><ele>621.2</ele><time>2026-04-05T13:19:59Z</time></trkpt><trkpt lat="44.41977268716319" lon="8.121680050180187"><ele>621.4000000000001</ele><time>2026-04-05T13:20:00Z</time></trkpt><trkpt lat="44.41986866643879" lon="8.121703611398127"><ele>621.6</ele><time>2026-04-05T13:20:01Z</time></trkpt><trkpt lat="44.41996420844744" lon="8.121717688233247"><ele>621.8000000000001</ele><time>2026-04-05T13:20:02Z</time></trkpt><trkpt lat="44.42004761960825" lon="8.121737598585488"><ele>622.0</ele><time>2026-04-05T13:20:02.999Z</time></trkpt><trkpt lat="44.420139570402796" lon="8.121764090483584"><ele>622.0</ele><time>2026-04-05T13:20:03.999Z</time></trkpt><trkpt lat="44.42023652038019" lon="8.121784686630967"><ele>622.0</ele><time>2026-04-05T13:20:04.999Z</time></trkpt><trkpt lat="44.4203445774253" lon="8.121795281127921"><ele>622.0</ele><time>2026-04-05T13:20:05.999Z</time></trkpt><trkpt lat="44.42045514158487" lon="8.121811420070669"><ele>622.0</ele><time>2026-04-05T13:20:06.999Z</time></trkpt><trkpt lat="44.42056972679984" lon="8.121820756545437"><ele>622.0</ele><time>2026-04-05T13:20:07.999Z</time></trkpt><trkpt lat="44.42068628304519" lon="8.121818991100438"><ele>622.25</ele><time>2026-04-05T13:20:08.999Z</time></trkpt><trkpt lat="44.42079988621329" lon="8.121832935028005"><ele>622.5</ele><time>2026-04-05T13:20:09.999Z</time></trkpt><trkpt lat="44.42090493201995" lon="8.121900188779627"><ele>622.75</ele><time>2026-04-05T13:20:10.999Z</time></trkpt><trkpt lat="44.42102337535795" lon="8.121932723147173"><ele>623.0</ele><time>2026-04-05T13:20:11.999Z</time></trkpt><trkpt lat="44.421138905302215" lon="8.121975839525824"><ele>623.0</ele><time>2026-04-05T13:20:12.999Z</time></trkpt><trkpt lat="44.421259675098" lon="8.121987922865236"><ele>623.0</ele><time>2026-04-05T13:20:13.999Z</time></trkpt><trkpt lat="44.421378694252816" lon="8.12197352063176"><ele>623.0</ele><time>2026-04-05T13:20:14.999Z</time></trkpt><trkpt lat="44.421496885499174" lon="8.121938126783721"><ele>623.0</ele><time>2026-04-05T13:20:15.999Z</time></trkpt><trkpt lat="44.42161305485248" lon="8.121903104695976"><ele>622.75</ele><time>2026-04-05T13:20:16.999Z</time></trkpt><trkpt lat="44.42173196769784" lon="8.121845499524314"><ele>622.5</ele><time>2026-04-05T13:20:17.999Z</time></trkpt><trkpt lat="44.42185547517911" lon="8.121801563831818"><ele>622.25</ele><time>2026-04-05T13:20:18.999Z</time></trkpt><trkpt lat="44.421982232886286" lon="8.12175847087668"><ele>622.0</ele><time>2026-04-05T13:20:19.999Z</time></trkpt><trkpt lat="44.422108453735014" lon="8.121712343520803"><ele>621.75</ele><time>2026-04-05T13:20:20.999Z</time></trkpt><trkpt lat="44.42223353830019" lon="8.121660619036987"><ele>621.5</ele><time>2026-04-05T13:20:21.999Z</time></trkpt><trkpt lat="44.422362089531376" lon="8.121604140767145"><ele>621.25</ele><time>2026-04-05T13:20:22.999Z</time></trkpt><trkpt lat="44.422489632876804" lon="8.121549014171737"><ele>621.0</ele><time>2026-04-05T13:20:23.999Z</time></trkpt><trkpt lat="44.42261754101824" lon="8.121498557178823"><ele>621.0</ele><time>2026-04-05T13:20:24.999Z</time></trkpt><trkpt lat="44.422745089933876" lon="8.121445317947419"><ele>621.0</ele><time>2026-04-05T13:20:25.999Z</time></trkpt><trkpt lat="44.42287076804227" lon="8.12138873058378"><ele>621.0</ele><time>2026-04-05T13:20:26.999Z</time></trkpt><trkpt lat="44.42299739333799" lon="8.121328183722788"><ele>621.0</ele><time>2026-04-05T13:20:27.999Z</time></trkpt><trkpt lat="44.42312543509735" lon="8.1212717600726"><ele>621.0</ele><time>2026-04-05T13:20:28.999Z</time></trkpt><trkpt lat="44.42325383977434" lon="8.121213049352265"><ele>621.0</ele><time>2026-04-05T13:20:29.999Z</time></trkpt><trkpt lat="44.423380121078225" lon="8.121153873587822"><ele>621.0</ele><time>2026-04-05T13:20:30.999Z</time></trkpt><trkpt lat="44.4235065612601" lon="8.121091444495102"><ele>621.0</ele><time>2026-04-05T13:20:31.999Z</time></trkpt><trkpt lat="44.42363417950457" lon="8.12103102196838"><ele>621.0</ele><time>2026-04-05T13:20:32.999Z</time></trkpt><trkpt lat="44.42376189154208" lon="8.120969567925195"><ele>621.0</ele><time>2026-04-05T13:20:33.999Z</time></trkpt><trkpt lat="44.423890657901985" lon="8.120907847305283"><ele>621.0</ele><time>2026-04-05T13:20:34.999Z</time></trkpt><trkpt lat="44.42401925640673" lon="8.120850298821368"><ele>621.0</ele><time>2026-04-05T13:20:35.999Z</time></trkpt><trkpt lat="44.42414732690297" lon="8.120794264520402"><ele>621.5</ele><time>2026-04-05T13:20:36.999Z</time></trkpt><trkpt lat="44.42427687743033" lon="8.12073752430159"><ele>622.0</ele><time>2026-04-05T13:20:37.999Z</time></trkpt><trkpt lat="44.42440769351699" lon="8.12068389380315"><ele>622.5</ele><time>2026-04-05T13:20:38.999Z</time></trkpt><trkpt lat="44.42454030240761" lon="8.120637659748489"><ele>623.0</ele><time>2026-04-05T13:20:39.999Z</time></trkpt><trkpt lat="44.424678898875094" lon="8.120610823022734"><ele>623.0</ele><time>2026-04-05T13:20:40.999Z</time></trkpt><trkpt lat="44.42481702796304" lon="8.120594516121082"><ele>623.0</ele><time>2026-04-05T13:20:41.999Z</time></trkpt><trkpt lat="44.42495522346949" lon="8.120581390052516"><ele>623.0</ele><time>2026-04-05T13:20:42.999Z</time></trkpt><trkpt lat="44.42509332767215" lon="8.120559413820747"><ele>623.0</ele><time>2026-04-05T13:20:43.999Z</time></trkpt><trkpt lat="44.42523121709852" lon="8.1205323573988"><ele>623.0</ele><time>2026-04-05T13:20:44.999Z</time></trkpt><trkpt lat="44.42536681698952" lon="8.120498530245008"><ele>623.0</ele><time>2026-04-05T13:20:45.999Z</time></trkpt><trkpt lat="44.42549463061218" lon="8.120456062565426"><ele>623.0</ele><time>2026-04-05T13:20:46.999Z</time></trkpt><trkpt lat="44.42561642460992" lon="8.120404309544991"><ele>623.0</ele><time>2026-04-05T13:20:47.999Z</time></trkpt><trkpt lat="44.42573668323631" lon="8.120349315834618"><ele>622.5</ele><time>2026-04-05T13:20:48.999Z</time></trkpt><trkpt lat="44.425843560839766" lon="8.120292812126523"><ele>622.0</ele><time>2026-04-05T13:20:49.999Z</time></trkpt><trkpt lat="44.42594238198452" lon="8.120226904067618"><ele>621.5</ele><time>2026-04-05T13:20:50.999Z</time></trkpt><trkpt lat="44.426034184344" lon="8.120137974294185"><ele>621.0</ele><time>2026-04-05T13:20:51.999Z</time></trkpt><trkpt lat="44.42611855636436" lon="8.120028476874904"><ele>621.5</ele><time>2026-04-05T13:20:52.999Z</time></trkpt><trkpt lat="44.42619986222181" lon="8.119891489283315"><ele>622.0</ele><time>2026-04-05T13:20:53.999Z</time></trkpt><trkpt lat="44.42628773687284" lon="8.119746248194682"><ele>622.5</ele><time>2026-04-05T13:20:54.999Z</time></trkpt><trkpt lat="44.42638093903758" lon="8.11957577373283"><ele>623.0</ele><time>2026-04-05T13:20:55.999Z</time></trkpt><trkpt lat="44.42647106957335" lon="8.119398527184488"><ele>622.0</ele><time>2026-04-05T13:20:56.999Z</time></trkpt><trkpt lat="44.426565489257015" lon="8.119206711231733"><ele>621.0</ele><time>2026-04-05T13:20:57.998Z</time></trkpt><trkpt lat="44.426660313643765" lon="8.119007062297026"><ele>620.0</ele><time>2026-04-05T13:20:58.998Z</time></trkpt><trkpt lat="44.42675537627691" lon="8.118804481096074"><ele>620.0</ele><time>2026-04-05T13:20:59.998Z</time></trkpt><trkpt lat="44.42685146616308" lon="8.118599059005756"><ele>620.0</ele><time>2026-04-05T13:21:00.998Z</time></trkpt><trkpt lat="44.42694825958509" lon="8.118390200794382"><ele>620.0</ele><time>2026-04-05T13:21:01.998Z</time></trkpt><trkpt lat="44.42704624371577" lon="8.118184953223018"><ele>620.3333333333333</ele><time>2026-04-05T13:21:02.998Z</time></trkpt><trkpt lat="44.427139028739035" lon="8.118001355125699"><ele>620.6666666666666</ele><time>2026-04-05T13:21:03.998Z</time></trkpt><trkpt lat="44.42723166680571" lon="8.11782409896186"><ele>621.0</ele><time>2026-04-05T13:21:04.998Z</time></trkpt><trkpt lat="44.42732980134058" lon="8.117643793163028"><ele>620.3333333333334</ele><time>2026-04-05T13:21:05.998Z</time></trkpt><trkpt lat="44.42742618790312" lon="8.117460837866357"><ele>619.6666666666667</ele><time>2026-04-05T13:21:06.998Z</time></trkpt><trkpt lat="44.42752463712387" lon="8.11727956741207"><ele>619.0</ele><time>2026-04-05T13:21:07.998Z</time></trkpt><trkpt lat="44.42762779541067" lon="8.11709773052647"><ele>619.0</ele><time>2026-04-05T13:21:08.998Z</time></trkpt><trkpt lat="44.427730793982896" lon="8.116917762181624"><ele>619.0</ele><time>2026-04-05T13:21:09.998Z</time></trkpt><trkpt lat="44.42783478377275" lon="8.11673613878698"><ele>619.0</ele><time>2026-04-05T13:21:10.998Z</time></trkpt><trkpt lat="44.42794136023523" lon="8.116556732747911"><ele>619.0</ele><time>2026-04-05T13:21:11.998Z</time></trkpt><trkpt lat="44.428046155463264" lon="8.116375243346514"><ele>619.0</ele><time>2026-04-05T13:21:12.998Z</time></trkpt><trkpt lat="44.4281481558425" lon="8.116191682506726"><ele>619.0</ele><time>2026-04-05T13:21:13.998Z</time></trkpt><trkpt lat="44.42825000949911" lon="8.11600895823116"><ele>619.0</ele><time>2026-04-05T13:21:14.998Z</time></trkpt><trkpt lat="44.4283521930299" lon="8.11582150687674"><ele>619.0</ele><time>2026-04-05T13:21:15.998Z</time></trkpt><trkpt lat="44.428464829374334" lon="8.115654785856925"><ele>619.0</ele><time>2026-04-05T13:21:16.998Z</time></trkpt><trkpt lat="44.42854246184822" lon="8.115469494070474"><ele>618.6666666666667</ele><time>2026-04-05T13:21:17.998Z</time></trkpt><trkpt lat="44.42862277482284" lon="8.115290876093269"><ele>618.3333333333334</ele><time>2026-04-05T13:21:18.998Z</time></trkpt><trkpt lat="44.4286956126136" lon="8.115091694920547"><ele>618.0</ele><time>2026-04-05T13:21:19.998Z</time></trkpt><trkpt lat="44.42877208316232" lon="8.114881351349638"><ele>619.6666666666666</ele><time>2026-04-05T13:21:20.998Z</time></trkpt><trkpt lat="44.42884657443203" lon="8.114660306221142"><ele>621.3333333333333</ele><time>2026-04-05T13:21:21.998Z</time></trkpt><trkpt lat="44.42891495837206" lon="8.114429923826975"><ele>623.0</ele><time>2026-04-05T13:21:22.998Z</time></trkpt><trkpt lat="44.428975673073" lon="8.11420073459843"><ele>622.0</ele><time>2026-04-05T13:21:23.998Z</time></trkpt><trkpt lat="44.429032759958744" lon="8.113983032262867"><ele>621.0</ele><time>2026-04-05T13:21:24.998Z</time></trkpt><trkpt lat="44.42908810764659" lon="8.113783243829161"><ele>620.0</ele><time>2026-04-05T13:21:25.998Z</time></trkpt><trkpt lat="44.4291471056168" lon="8.113600300829493"><ele>620.0</ele><time>2026-04-05T13:21:26.998Z</time></trkpt><trkpt lat="44.42921463225572" lon="8.113435713462712"><ele>620.0</ele><time>2026-04-05T13:21:27.998Z</time></trkpt><trkpt lat="44.429309255957975" lon="8.11330780997823"><ele>620.0</ele><time>2026-04-05T13:21:28.998Z</time></trkpt><trkpt lat="44.42940123942864" lon="8.11316714758299"><ele>620.0</ele><time>2026-04-05T13:21:29.998Z</time></trkpt><trkpt lat="44.42950717432235" lon="8.113013471824507"><ele>620.3333333333333</ele><time>2026-04-05T13:21:30.998Z</time></trkpt><trkpt lat="44.42962266868587" lon="8.112855269996652"><ele>620.6666666666666</ele><time>2026-04-05T13:21:31.998Z</time></trkpt><trkpt lat="44.42974841339155" lon="8.112694598963044"><ele>621.0</ele><time>2026-04-05T13:21:32.998Z</time></trkpt><trkpt lat="44.429869757715416" lon="8.112533554070883"><ele>619.75</ele><time>2026-04-05T13:21:33.998Z</time></trkpt><trkpt lat="44.429976515333266" lon="8.112381371033825"><ele>618.5</ele><time>2026-04-05T13:21:34.998Z</time></trkpt><trkpt lat="44.430059917387425" lon="8.112214905249267"><ele>617.25</ele><time>2026-04-05T13:21:36Z</time></trkpt><trkpt lat="44.430150797711235" lon="8.112057511140566"><ele>616.0</ele><time>2026-04-05T13:21:37Z</time></trkpt><trkpt lat="44.430235075200414" lon="8.111877145181191"><ele>616.0</ele><time>2026-04-05T13:21:38Z</time></trkpt><trkpt lat="44.43030643749625" lon="8.111690316083234"><ele>616.0</ele><time>2026-04-05T13:21:39Z</time></trkpt><trkpt lat="44.430361016855066" lon="8.111486287141906"><ele>616.0</ele><time>2026-04-05T13:21:40Z</time></trkpt><trkpt lat="44.430412122203" lon="8.111282002687645"><ele>616.25</ele><time>2026-04-05T13:21:41Z</time></trkpt><trkpt lat="44.43045911072569" lon="8.111084473776947"><ele>616.5</ele><time>2026-04-05T13:21:42Z</time></trkpt><trkpt lat="44.43049214518619" lon="8.110896429685777"><ele>616.75</ele><time>2026-04-05T13:21:43Z</time></trkpt><trkpt lat="44.430509043717684" lon="8.11072536663162"><ele>617.0</ele><time>2026-04-05T13:21:44Z</time></trkpt><trkpt lat="44.43052764415404" lon="8.110568101854197"><ele>617.0</ele><time>2026-04-05T13:21:45Z</time></trkpt><trkpt lat="44.43054860582319" lon="8.110437891734517"><ele>617.0</ele><time>2026-04-05T13:21:46Z</time></trkpt><trkpt lat="44.4305863338345" lon="8.110339126136552"><ele>617.0</ele><time>2026-04-05T13:21:47Z</time></trkpt><trkpt lat="44.4306469084076" lon="8.110268418717176"><ele>617.0</ele><time>2026-04-05T13:21:48Z</time></trkpt><trkpt lat="44.430733382063096" lon="8.11026314342889"><ele>617.0</ele><time>2026-04-05T13:21:49Z</time></trkpt><trkpt lat="44.430826295467064" lon="8.110247910842903"><ele>617.0</ele><time>2026-04-05T13:21:50Z</time></trkpt><trkpt lat="44.430946983677636" lon="8.110233230469898"><ele>617.0</ele><time>2026-04-05T13:21:51Z</time></trkpt><trkpt lat="44.43107481727484" lon="8.110196893840039"><ele>617.0</ele><time>2026-04-05T13:21:52Z</time></trkpt><trkpt lat="44.431211255516" lon="8.110187270569055"><ele>617.0</ele><time>2026-04-05T13:21:53Z</time></trkpt><trkpt lat="44.4313448460971" lon="8.110104636840777"><ele>617.0</ele><time>2026-04-05T13:21:54Z</time></trkpt><trkpt lat="44.431486939366486" lon="8.110036972405936"><ele>616.3333333333333</ele><time>2026-04-05T13:21:55Z</time></trkpt><trkpt lat="44.43163171245973" lon="8.109967450200573"><ele>615.6666666666666</ele><time>2026-04-05T13:21:56Z</time></trkpt><trkpt lat="44.43178257008925" lon="8.109896131357738"><ele>615.0</ele><time>2026-04-05T13:21:57Z</time></trkpt><trkpt lat="44.43193492962246" lon="8.109823715892661"><ele>615.3333333333334</ele><time>2026-04-05T13:21:58Z</time></trkpt><trkpt lat="44.43208913371424" lon="8.109750276927306"><ele>615.6666666666667</ele><time>2026-04-05T13:21:59Z</time></trkpt><trkpt lat="44.43223845349127" lon="8.10970334640747"><ele>616.0</ele><time>2026-04-05T13:22:00Z</time></trkpt><trkpt lat="44.43237294889237" lon="8.109616544882527"><ele>616.0</ele><time>2026-04-05T13:22:01Z</time></trkpt><trkpt lat="44.43251543168844" lon="8.109540993966162"><ele>616.0</ele><time>2026-04-05T13:22:02Z</time></trkpt><trkpt lat="44.43265871027786" lon="8.109454219507022"><ele>616.0</ele><time>2026-04-05T13:22:03Z</time></trkpt><trkpt lat="44.43280222347446" lon="8.109356360988473"><ele>616.0</ele><time>2026-04-05T13:22:04Z</time></trkpt><trkpt lat="44.43294429741143" lon="8.10924783498617"><ele>616.0</ele><time>2026-04-05T13:22:05Z</time></trkpt><trkpt lat="44.43308506971903" lon="8.109134032033797"><ele>616.0</ele><time>2026-04-05T13:22:06Z</time></trkpt><trkpt lat="44.43322165426314" lon="8.109018610111876"><ele>616.5</ele><time>2026-04-05T13:22:07Z</time></trkpt><trkpt lat="44.433357056213154" lon="8.108909983571"><ele>617.0</ele><time>2026-04-05T13:22:08Z</time></trkpt><trkpt lat="44.43348647546521" lon="8.108806262501279"><ele>617.5</ele><time>2026-04-05T13:22:09Z</time></trkpt><trkpt lat="44.43360361420707" lon="8.10871529086144"><ele>618.0</ele><time>2026-04-05T13:22:10Z</time></trkpt><trkpt lat="44.433713563737165" lon="8.108623972070225"><ele>617.4</ele><time>2026-04-05T13:22:11Z</time></trkpt><trkpt lat="44.43381680940326" lon="8.108533983240838"><ele>616.8</ele><time>2026-04-05T13:22:11.999Z</time></trkpt><trkpt lat="44.43391012309797" lon="8.108443417903205"><ele>616.2</ele><time>2026-04-05T13:22:12.999Z</time></trkpt><trkpt lat="44.43399528078723" lon="8.108354175659436"><ele>615.6</ele><time>2026-04-05T13:22:13.999Z</time></trkpt><trkpt lat="44.434068335672514" lon="8.108263840511542"><ele>615.0</ele><time>2026-04-05T13:22:14.999Z</time></trkpt><trkpt lat="44.43412849965544" lon="8.1081677503175"><ele>615.0</ele><time>2026-04-05T13:22:15.999Z</time></trkpt><trkpt lat="44.434189323446326" lon="8.108054331779988"><ele>615.0</ele><time>2026-04-05T13:22:16.999Z</time></trkpt><trkpt lat="44.43427133099672" lon="8.107932419792583"><ele>615.0</ele><time>2026-04-05T13:22:17.999Z</time></trkpt><trkpt lat="44.4343518442176" lon="8.107794561369136"><ele>615.0</ele><time>2026-04-05T13:22:18.999Z</time></trkpt><trkpt lat="44.43444364594231" lon="8.107644663413526"><ele>615.0</ele><time>2026-04-05T13:22:19.999Z</time></trkpt><trkpt lat="44.4345343921715" lon="8.107485135506874"><ele>615.0</ele><time>2026-04-05T13:22:20.999Z</time></trkpt><trkpt lat="44.434632646382155" lon="8.1073168143228"><ele>615.0</ele><time>2026-04-05T13:22:21.999Z</time></trkpt><trkpt lat="44.434730599026516" lon="8.107143798801742"><ele>614.5</ele><time>2026-04-05T13:22:22.999Z</time></trkpt><trkpt lat="44.43484043500734" lon="8.106997650768195"><ele>614.0</ele><time>2026-04-05T13:22:23.999Z</time></trkpt><trkpt lat="44.43494699484104" lon="8.106871786233635"><ele>613.5</ele><time>2026-04-05T13:22:24.999Z</time></trkpt><trkpt lat="44.4350560814618" lon="8.106744902299818"><ele>613.0</ele><time>2026-04-05T13:22:25.999Z</time></trkpt><trkpt lat="44.43514251880464" lon="8.106615905229809"><ele>613.0</ele><time>2026-04-05T13:22:26.999Z</time></trkpt><trkpt lat="44.43523065453355" lon="8.10650945503137"><ele>613.0</ele><time>2026-04-05T13:22:27.999Z</time></trkpt><trkpt lat="44.43531164250165" lon="8.106405173005804"><ele>613.0</ele><time>2026-04-05T13:22:28.999Z</time></trkpt><trkpt lat="44.435395170547004" lon="8.10633292250243"><ele>613.0</ele><time>2026-04-05T13:22:29.999Z</time></trkpt><trkpt lat="44.43549550250039" lon="8.106308551057504"><ele>613.0</ele><time>2026-04-05T13:22:30.999Z</time></trkpt><trkpt lat="44.43560826511614" lon="8.106304741816748"><ele>613.0</ele><time>2026-04-05T13:22:31.999Z</time></trkpt><trkpt lat="44.4357344371301" lon="8.106294187346625"><ele>613.0</ele><time>2026-04-05T13:22:32.999Z</time></trkpt><trkpt lat="44.435873860934564" lon="8.10627955557697"><ele>613.0</ele><time>2026-04-05T13:22:33.999Z</time></trkpt><trkpt lat="44.43601526458072" lon="8.106241762348839"><ele>613.0</ele><time>2026-04-05T13:22:34.999Z</time></trkpt><trkpt lat="44.43616763891005" lon="8.10622828825097"><ele>612.6666666666667</ele><time>2026-04-05T13:22:35.999Z</time></trkpt><trkpt lat="44.43632122751422" lon="8.106191146925394"><ele>612.3333333333334</ele><time>2026-04-05T13:22:36.999Z</time></trkpt><trkpt lat="44.436477987145246" lon="8.106161692994716"><ele>612.0</ele><time>2026-04-05T13:22:37.999Z</time></trkpt><trkpt lat="44.43663513658349" lon="8.106148722370708"><ele>612.0</ele><time>2026-04-05T13:22:38.999Z</time></trkpt><trkpt lat="44.43676943813493" lon="8.10611996634537"><ele>612.0</ele><time>2026-04-05T13:22:39.999Z</time></trkpt><trkpt lat="44.43690774019064" lon="8.106101460932289"><ele>612.0</ele><time>2026-04-05T13:22:40.999Z</time></trkpt><trkpt lat="44.437038814915454" lon="8.106123089612726"><ele>612.0</ele><time>2026-04-05T13:22:41.999Z</time></trkpt><trkpt lat="44.43715651322913" lon="8.106159137495327"><ele>612.0</ele><time>2026-04-05T13:22:42.999Z</time></trkpt><trkpt lat="44.43727398508138" lon="8.106218488323655"><ele>612.0</ele><time>2026-04-05T13:22:43.999Z</time></trkpt><trkpt lat="44.43740365911846" lon="8.106292520399583"><ele>612.0</ele><time>2026-04-05T13:22:44.999Z</time></trkpt><trkpt lat="44.43754083848877" lon="8.106370065859753"><ele>612.0</ele><time>2026-04-05T13:22:45.999Z</time></trkpt><trkpt lat="44.437683026191365" lon="8.106443631554086"><ele>612.0</ele><time>2026-04-05T13:22:46.999Z</time></trkpt><trkpt lat="44.43782450791432" lon="8.106500040486074"><ele>612.0</ele><time>2026-04-05T13:22:47.999Z</time></trkpt><trkpt lat="44.437946158952826" lon="8.106563667432036"><ele>612.0</ele><time>2026-04-05T13:22:48.999Z</time></trkpt><trkpt lat="44.43806266360764" lon="8.10663298429016"><ele>612.0</ele><time>2026-04-05T13:22:49.999Z</time></trkpt><trkpt lat="44.43817066233248" lon="8.106711206328933"><ele>612.0</ele><time>2026-04-05T13:22:50.999Z</time></trkpt><trkpt lat="44.43828675266055" lon="8.106795382181456"><ele>612.0</ele><time>2026-04-05T13:22:51.999Z</time></trkpt><trkpt lat="44.43839769183154" lon="8.106907323142856"><ele>612.0</ele><time>2026-04-05T13:22:52.999Z</time></trkpt><trkpt lat="44.438517245967965" lon="8.106988710364861"><ele>612.0</ele><time>2026-04-05T13:22:53.999Z</time></trkpt><trkpt lat="44.43863418495467" lon="8.107083171096933"><ele>612.0</ele><time>2026-04-05T13:22:54.999Z</time></trkpt><trkpt lat="44.43875078517279" lon="8.107173975351714"><ele>612.0</ele><time>2026-04-05T13:22:55.999Z</time></trkpt><trkpt lat="44.438867206271624" lon="8.107259721010301"><ele>612.0</ele><time>2026-04-05T13:22:56.999Z</time></trkpt><trkpt lat="44.43897980125381" lon="8.107344557038752"><ele>612.0</ele><time>2026-04-05T13:22:57.999Z</time></trkpt><trkpt lat="44.43907741339156" lon="8.107415856671768"><ele>612.0</ele><time>2026-04-05T13:22:58.999Z</time></trkpt><trkpt lat="44.439195279157225" lon="8.107461891603142"><ele>612.0</ele><time>2026-04-05T13:22:59.999Z</time></trkpt><trkpt lat="44.43932577460173" lon="8.10751140301511"><ele>612.0</ele><time>2026-04-05T13:23:00.999Z</time></trkpt><trkpt lat="44.43946951355028" lon="8.10755624710458"><ele>612.0</ele><time>2026-04-05T13:23:01.999Z</time></trkpt><trkpt lat="44.43961215358617" lon="8.107614055278447"><ele>612.3333333333334</ele><time>2026-04-05T13:23:02.999Z</time></trkpt><trkpt lat="44.43975913295082" lon="8.107682757345694"><ele>612.6666666666667</ele><time>2026-04-05T13:23:03.999Z</time></trkpt><trkpt lat="44.439897598164706" lon="8.10775826081363"><ele>613.0</ele><time>2026-04-05T13:23:04.999Z</time></trkpt><trkpt lat="44.440031712768786" lon="8.107846751281937"><ele>613.0</ele><time>2026-04-05T13:23:05.999Z</time></trkpt><trkpt lat="44.440164926880826" lon="8.107957872923336"><ele>613.0</ele><time>2026-04-05T13:23:06.999Z</time></trkpt><trkpt lat="44.44028519795005" lon="8.108093764128853"><ele>613.0</ele><time>2026-04-05T13:23:07.999Z</time></trkpt><trkpt lat="44.440417769011304" lon="8.108220262841389"><ele>613.0</ele><time>2026-04-05T13:23:08.998Z</time></trkpt><trkpt lat="44.440551676210504" lon="8.108348036625257"><ele>613.0</ele><time>2026-04-05T13:23:09.998Z</time></trkpt><trkpt lat="44.440682328889345" lon="8.108468950269739"><ele>613.0</ele><time>2026-04-05T13:23:10.998Z</time></trkpt><trkpt lat="44.44079150662144" lon="8.108569887267537"><ele>613.0</ele><time>2026-04-05T13:23:11.998Z</time></trkpt><trkpt lat="44.4409083574875" lon="8.108673792672183"><ele>613.0</ele><time>2026-04-05T13:23:12.998Z</time></trkpt><trkpt lat="44.441028220094175" lon="8.10876918829464"><ele>613.0</ele><time>2026-04-05T13:23:13.998Z</time></trkpt><trkpt lat="44.44115213888402" lon="8.108826923717078"><ele>613.0</ele><time>2026-04-05T13:23:14.998Z</time></trkpt><trkpt lat="44.4412737446535" lon="8.108891805208376"><ele>613.0</ele><time>2026-04-05T13:23:15.998Z</time></trkpt><trkpt lat="44.44140175612584" lon="8.108943481282452"><ele>612.5</ele><time>2026-04-05T13:23:16.998Z</time></trkpt><trkpt lat="44.441537705520716" lon="8.108975447462731"><ele>612.0</ele><time>2026-04-05T13:23:17.998Z</time></trkpt><trkpt lat="44.44167534703767" lon="8.108989422654806"><ele>611.5</ele><time>2026-04-05T13:23:18.998Z</time></trkpt><trkpt lat="44.44181557932231" lon="8.108988311990116"><ele>611.0</ele><time>2026-04-05T13:23:19.998Z</time></trkpt><trkpt lat="44.4419499096831" lon="8.10897466952844"><ele>611.0</ele><time>2026-04-05T13:23:20.998Z</time></trkpt><trkpt lat="44.44207618606029" lon="8.108955663821256"><ele>611.0</ele><time>2026-04-05T13:23:21.998Z</time></trkpt><trkpt lat="44.44219193618651" lon="8.108954544311368"><ele>611.0</ele><time>2026-04-05T13:23:22.998Z</time></trkpt><trkpt lat="44.442281140268555" lon="8.108932542201464"><ele>611.0</ele><time>2026-04-05T13:23:23.998Z</time></trkpt><trkpt lat="44.44234611715034" lon="8.108919763456628"><ele>611.0</ele><time>2026-04-05T13:23:24.998Z</time></trkpt><trkpt lat="44.442406599832516" lon="8.108895086285044"><ele>610.8</ele><time>2026-04-05T13:23:26.998Z</time></trkpt><trkpt lat="44.442509223452284" lon="8.108829628818206"><ele>610.6</ele><time>2026-04-05T13:23:29.998Z</time></trkpt><trkpt lat="44.44259721348552" lon="8.108807321345411"><ele>610.4</ele><time>2026-04-05T13:23:30.998Z</time></trkpt><trkpt lat="44.44268482477237" lon="8.108797058667722"><ele>610.2</ele><time>2026-04-05T13:23:31.998Z</time></trkpt><trkpt lat="44.44277128582512" lon="8.108782875578486"><ele>610.0</ele><time>2026-04-05T13:23:32.998Z</time></trkpt><trkpt lat="44.44286419481108" lon="8.108768466362791"><ele>610.75</ele><time>2026-04-05T13:23:33.998Z</time></trkpt><trkpt lat="44.44296948772239" lon="8.108756898399706"><ele>611.5</ele><time>2026-04-05T13:23:34.998Z</time></trkpt><trkpt lat="44.44308122783251" lon="8.108742100857622"><ele>612.25</ele><time>2026-04-05T13:23:35.998Z</time></trkpt><trkpt lat="44.44320083944314" lon="8.108730358067387"><ele>613.0</ele><time>2026-04-05T13:23:36.998Z</time></trkpt><trkpt lat="44.443316128258466" lon="8.108707663502082"><ele>613.0</ele><time>2026-04-05T13:23:37.998Z</time></trkpt><trkpt lat="44.44343054300758" lon="8.108688763915076"><ele>613.0</ele><time>2026-04-05T13:23:38.998Z</time></trkpt><trkpt lat="44.44354780229139" lon="8.10866425900263"><ele>613.0</ele><time>2026-04-05T13:23:39.998Z</time></trkpt><trkpt lat="44.443666363149134" lon="8.108631710323843"><ele>613.0</ele><time>2026-04-05T13:23:40.998Z</time></trkpt><trkpt lat="44.44378152986145" lon="8.108581073503654"><ele>612.75</ele><time>2026-04-05T13:23:42Z</time></trkpt><trkpt lat="44.44389039683746" lon="8.108511764254363"><ele>612.5</ele><time>2026-04-05T13:23:43Z</time></trkpt><trkpt lat="44.44400267720196" lon="8.108423101091823"><ele>612.25</ele><time>2026-04-05T13:23:44Z</time></trkpt><trkpt lat="44.44409494619412" lon="8.108310116556595"><ele>612.0</ele><time>2026-04-05T13:23:45Z</time></trkpt><trkpt lat="44.44417527695907" lon="8.108185872067585"><ele>612.0</ele><time>2026-04-05T13:23:46Z</time></trkpt><trkpt lat="44.444251388141815" lon="8.108049209754235"><ele>612.0</ele><time>2026-04-05T13:23:47Z</time></trkpt><trkpt lat="44.444315206808696" lon="8.107875824769334"><ele>612.0</ele><time>2026-04-05T13:23:48Z</time></trkpt><trkpt lat="44.44437299784124" lon="8.107674976855485"><ele>612.0</ele><time>2026-04-05T13:23:49Z</time></trkpt><trkpt lat="44.44443226262779" lon="8.107484484375563"><ele>611.0</ele><time>2026-04-05T13:23:50Z</time></trkpt><trkpt lat="44.44448159073109" lon="8.107284303046779"><ele>610.0</ele><time>2026-04-05T13:23:51Z</time></trkpt><trkpt lat="44.44452672089169" lon="8.107082527068261"><ele>609.0</ele><time>2026-04-05T13:23:52Z</time></trkpt><trkpt lat="44.44457396413974" lon="8.106883184463051"><ele>609.0</ele><time>2026-04-05T13:23:53Z</time></trkpt><trkpt lat="44.444617512082374" lon="8.106679823299318"><ele>609.0</ele><time>2026-04-05T13:23:54Z</time></trkpt><trkpt lat="44.444666866301084" lon="8.106467501956834"><ele>609.0</ele><time>2026-04-05T13:23:55Z</time></trkpt><trkpt lat="44.44471797826444" lon="8.106247893461196"><ele>610.3333333333334</ele><time>2026-04-05T13:23:56Z</time></trkpt><trkpt lat="44.44477404495829" lon="8.106025200564886"><ele>611.6666666666667</ele><time>2026-04-05T13:23:57Z</time></trkpt><trkpt lat="44.4448420694066" lon="8.105806147675901"><ele>613.0</ele><time>2026-04-05T13:23:58Z</time></trkpt><trkpt lat="44.44491565881323" lon="8.105588052398552"><ele>613.0</ele><time>2026-04-05T13:23:59Z</time></trkpt><trkpt lat="44.444980646144984" lon="8.105377191758816"><ele>613.0</ele><time>2026-04-05T13:24:00Z</time></trkpt><trkpt lat="44.44504065763084" lon="8.10518032209518"><ele>613.0</ele><time>2026-04-05T13:24:01Z</time></trkpt><trkpt lat="44.44508514847886" lon="8.104972519695842"><ele>612.0</ele><time>2026-04-05T13:24:02Z</time></trkpt><trkpt lat="44.4451302680776" lon="8.10476099555507"><ele>611.0</ele><time>2026-04-05T13:24:03Z</time></trkpt><trkpt lat="44.445179694614595" lon="8.10454822417854"><ele>610.0</ele><time>2026-04-05T13:24:04Z</time></trkpt><trkpt lat="44.44523217639798" lon="8.104350604233236"><ele>610.0</ele><time>2026-04-05T13:24:05Z</time></trkpt><trkpt lat="44.44528480470192" lon="8.104158324101594"><ele>610.0</ele><time>2026-04-05T13:24:06Z</time></trkpt><trkpt lat="44.4453318586243" lon="8.103983920516619"><ele>610.0</ele><time>2026-04-05T13:24:07Z</time></trkpt><trkpt lat="44.44537829163412" lon="8.103813314555838"><ele>610.0</ele><time>2026-04-05T13:24:08Z</time></trkpt><trkpt lat="44.44542026181451" lon="8.103657025463052"><ele>609.6</ele><time>2026-04-05T13:24:09Z</time></trkpt><trkpt lat="44.44546498664115" lon="8.103518560580362"><ele>609.2</ele><time>2026-04-05T13:24:10Z</time></trkpt><trkpt lat="44.44552381533624" lon="8.103399249814078"><ele>608.8</ele><time>2026-04-05T13:24:11Z</time></trkpt><trkpt lat="44.4455991212784" lon="8.103301976756551"><ele>608.4</ele><time>2026-04-05T13:24:12Z</time></trkpt><trkpt lat="44.445683389086916" lon="8.103225678776013"><ele>608.0</ele><time>2026-04-05T13:24:13Z</time></trkpt><trkpt lat="44.44578984294332" lon="8.103205888533033"><ele>608.0</ele><time>2026-04-05T13:24:14Z</time></trkpt><trkpt lat="44.44589912991128" lon="8.103203516218732"><ele>608.0</ele><time>2026-04-05T13:24:15Z</time></trkpt><trkpt lat="44.44602277980082" lon="8.103204882622256"><ele>608.0</ele><time>2026-04-05T13:24:16Z</time></trkpt><trkpt lat="44.446159935335025" lon="8.10319729042278"><ele>608.0</ele><time>2026-04-05T13:24:17Z</time></trkpt><trkpt lat="44.44630304917809" lon="8.103233943105753"><ele>608.0</ele><time>2026-04-05T13:24:18Z</time></trkpt><trkpt lat="44.44645592831801" lon="8.103242822147019"><ele>608.0</ele><time>2026-04-05T13:24:19Z</time></trkpt><trkpt lat="44.446617067254564" lon="8.103253475849083"><ele>608.0</ele><time>2026-04-05T13:24:20Z</time></trkpt><trkpt lat="44.446784690252244" lon="8.103252734606102"><ele>608.0</ele><time>2026-04-05T13:24:21Z</time></trkpt><trkpt lat="44.44696280691243" lon="8.103231320672855"><ele>608.0</ele><time>2026-04-05T13:24:22Z</time></trkpt><trkpt lat="44.44714046742419" lon="8.103212275133073"><ele>608.0</ele><time>2026-04-05T13:24:23Z</time></trkpt><trkpt lat="44.44732162711865" lon="8.103198564249135"><ele>607.6666666666666</ele><time>2026-04-05T13:24:24Z</time></trkpt><trkpt lat="44.44750181401003" lon="8.103193777866872"><ele>607.3333333333334</ele><time>2026-04-05T13:24:24.999Z</time></trkpt><trkpt lat="44.44767705732543" lon="8.10319098040078"><ele>607.0</ele><time>2026-04-05T13:24:25.999Z</time></trkpt><trkpt lat="44.44784254497052" lon="8.103181153393638"><ele>607.0</ele><time>2026-04-05T13:24:26.999Z</time></trkpt><trkpt lat="44.447996626357615" lon="8.103156910261275"><ele>607.0</ele><time>2026-04-05T13:24:27.999Z</time></trkpt><trkpt lat="44.44815392361361" lon="8.103119407898733"><ele>607.0</ele><time>2026-04-05T13:24:28.999Z</time></trkpt><trkpt lat="44.448305956839526" lon="8.103071286273778"><ele>607.0</ele><time>2026-04-05T13:24:29.999Z</time></trkpt><trkpt lat="44.448446376758646" lon="8.10301440406435"><ele>607.0</ele><time>2026-04-05T13:24:30.999Z</time></trkpt><trkpt lat="44.44858759082223" lon="8.102959873382666"><ele>607.0</ele><time>2026-04-05T13:24:31.999Z</time></trkpt><trkpt lat="44.44873033607796" lon="8.102906196517337"><ele>607.0</ele><time>2026-04-05T13:24:32.999Z</time></trkpt><trkpt lat="44.44887387910804" lon="8.10283002495751"><ele>609.0</ele><time>2026-04-05T13:24:33.999Z</time></trkpt><trkpt lat="44.4490157963212" lon="8.102730857597091"><ele>611.0</ele><time>2026-04-05T13:24:34.999Z</time></trkpt><trkpt lat="44.449156472558926" lon="8.10262382432921"><ele>613.0</ele><time>2026-04-05T13:24:35.999Z</time></trkpt><trkpt lat="44.44929529234753" lon="8.10251369763222"><ele>614.25</ele><time>2026-04-05T13:24:36.999Z</time></trkpt><trkpt lat="44.449415909427664" lon="8.102395056750796"><ele>615.5</ele><time>2026-04-05T13:24:37.999Z</time></trkpt><trkpt lat="44.449542596474686" lon="8.102284261758328"><ele>616.75</ele><time>2026-04-05T13:24:38.999Z</time></trkpt><trkpt lat="44.44965789611357" lon="8.1021725386142"><ele>618.0</ele><time>2026-04-05T13:24:39.999Z</time></trkpt><trkpt lat="44.44976621133864" lon="8.102047237945873"><ele>618.0</ele><time>2026-04-05T13:24:40.999Z</time></trkpt><trkpt lat="44.44986668334543" lon="8.101896692576672"><ele>618.0</ele><time>2026-04-05T13:24:41.999Z</time></trkpt><trkpt lat="44.44996310333833" lon="8.101738702858112"><ele>618.0</ele><time>2026-04-05T13:24:42.999Z</time></trkpt><trkpt lat="44.45006959774996" lon="8.101590573665245"><ele>618.0</ele><time>2026-04-05T13:24:43.999Z</time></trkpt><trkpt lat="44.45017143860583" lon="8.101457266020669"><ele>620.0</ele><time>2026-04-05T13:24:44.999Z</time></trkpt><trkpt lat="44.4502619455612" lon="8.101313143233716"><ele>622.0</ele><time>2026-04-05T13:24:45.999Z</time></trkpt><trkpt lat="44.450362585019136" lon="8.101188184364172"><ele>624.0</ele><time>2026-04-05T13:24:46.999Z</time></trkpt><trkpt lat="44.45045009383571" lon="8.1010328816525"><ele>626.0</ele><time>2026-04-05T13:24:47.999Z</time></trkpt><trkpt lat="44.45054584313281" lon="8.100860584744423"><ele>623.25</ele><time>2026-04-05T13:24:48.999Z</time></trkpt><trkpt lat="44.45063827672976" lon="8.100672563360801"><ele>620.5</ele><time>2026-04-05T13:24:49.999Z</time></trkpt><trkpt lat="44.450713526084" lon="8.100502216109527"><ele>617.75</ele><time>2026-04-05T13:24:50.999Z</time></trkpt><trkpt lat="44.4507717810311" lon="8.100329662629461"><ele>615.0</ele><time>2026-04-05T13:24:51.999Z</time></trkpt><trkpt lat="44.45084265198595" lon="8.100177265669952"><ele>615.0</ele><time>2026-04-05T13:24:52.999Z</time></trkpt><trkpt lat="44.45090120841931" lon="8.100028292602953"><ele>615.0</ele><time>2026-04-05T13:24:53.999Z</time></trkpt><trkpt lat="44.450965992992025" lon="8.099875656648779"><ele>615.0</ele><time>2026-04-05T13:24:54.999Z</time></trkpt><trkpt lat="44.451032859164904" lon="8.099746623484283"><ele>615.0</ele><time>2026-04-05T13:24:55.999Z</time></trkpt><trkpt lat="44.45108078852438" lon="8.099597222491496"><ele>613.5</ele><time>2026-04-05T13:24:56.999Z</time></trkpt><trkpt lat="44.45111324242584" lon="8.099438307106125"><ele>612.0</ele><time>2026-04-05T13:24:57.999Z</time></trkpt><trkpt lat="44.451125192183476" lon="8.099278206399024"><ele>610.5</ele><time>2026-04-05T13:24:58.999Z</time></trkpt><trkpt lat="44.45115215602877" lon="8.099133992137443"><ele>609.0</ele><time>2026-04-05T13:24:59.999Z</time></trkpt><trkpt lat="44.45118457606908" lon="8.098983114217303"><ele>609.2</ele><time>2026-04-05T13:25:00.999Z</time></trkpt><trkpt lat="44.45122494099135" lon="8.09884988204167"><ele>609.4</ele><time>2026-04-05T13:25:01.999Z</time></trkpt><trkpt lat="44.45125463507417" lon="8.098717281405216"><ele>609.6</ele><time>2026-04-05T13:25:02.999Z</time></trkpt><trkpt lat="44.45130691148171" lon="8.098611537779187"><ele>609.8</ele><time>2026-04-05T13:25:03.999Z</time></trkpt><trkpt lat="44.45135507199594" lon="8.098517095072303"><ele>610.0</ele><time>2026-04-05T13:25:04.999Z</time></trkpt><trkpt lat="44.45140713070431" lon="8.098426989977513"><ele>610.0</ele><time>2026-04-05T13:25:05.999Z</time></trkpt><trkpt lat="44.45145686717105" lon="8.098354697267322"><ele>610.0</ele><time>2026-04-05T13:25:06.999Z</time></trkpt><trkpt lat="44.451532405181766" lon="8.098278701736715"><ele>610.0</ele><time>2026-04-05T13:25:08.999Z</time></trkpt><trkpt lat="44.45163210786243" lon="8.09823191230633"><ele>610.0</ele><time>2026-04-05T13:25:10.999Z</time></trkpt><trkpt lat="44.451755190300865" lon="8.098245169185267"><ele>610.0</ele><time>2026-04-05T13:25:12.999Z</time></trkpt><trkpt lat="44.45183160345063" lon="8.098258659940734"><ele>610.0</ele><time>2026-04-05T13:25:13.999Z</time></trkpt><trkpt lat="44.45190586029153" lon="8.098282018535121"><ele>610.0</ele><time>2026-04-05T13:25:14.999Z</time></trkpt><trkpt lat="44.451985075358074" lon="8.098318623644376"><ele>610.0</ele><time>2026-04-05T13:25:15.999Z</time></trkpt><trkpt lat="44.45206100447015" lon="8.098373039158057"><ele>610.0</ele><time>2026-04-05T13:25:16.999Z</time></trkpt><trkpt lat="44.45214272763071" lon="8.098444087445731"><ele>610.0</ele><time>2026-04-05T13:25:17.999Z</time></trkpt><trkpt lat="44.45220599722899" lon="8.098532001393517"><ele>610.0</ele><time>2026-04-05T13:25:18.999Z</time></trkpt><trkpt lat="44.452277189963986" lon="8.098634587750816"><ele>610.4</ele><time>2026-04-05T13:25:19.999Z</time></trkpt><trkpt lat="44.45235102409649" lon="8.09872981965189"><ele>610.8</ele><time>2026-04-05T13:25:20.999Z</time></trkpt><trkpt lat="44.45242792597203" lon="8.098773688314118"><ele>611.2</ele><time>2026-04-05T13:25:21.999Z</time></trkpt><trkpt lat="44.452500713553036" lon="8.098787810481696"><ele>611.6</ele><time>2026-04-05T13:25:22.998Z</time></trkpt><trkpt lat="44.452585556286614" lon="8.098770803007577"><ele>612.0</ele><time>2026-04-05T13:25:23.998Z</time></trkpt><trkpt lat="44.45267005825613" lon="8.098656238325711"><ele>612.0</ele><time>2026-04-05T13:25:24.998Z</time></trkpt><trkpt lat="44.452741001023306" lon="8.098553549540041"><ele>612.0</ele><time>2026-04-05T13:25:25.998Z</time></trkpt><trkpt lat="44.45280882474935" lon="8.098448430917697"><ele>612.0</ele><time>2026-04-05T13:25:26.998Z</time></trkpt><trkpt lat="44.45289245517453" lon="8.098377494589664"><ele>612.0</ele><time>2026-04-05T13:25:27.998Z</time></trkpt><trkpt lat="44.45298228354762" lon="8.098308490773725"><ele>612.0</ele><time>2026-04-05T13:25:28.998Z</time></trkpt><trkpt lat="44.453085488079914" lon="8.09826784336023"><ele>610.75</ele><time>2026-04-05T13:25:29.998Z</time></trkpt><trkpt lat="44.453194521219466" lon="8.098229377441731"><ele>609.5</ele><time>2026-04-05T13:25:30.998Z</time></trkpt><trkpt lat="44.45331427554531" lon="8.098172819043146"><ele>608.25</ele><time>2026-04-05T13:25:31.998Z</time></trkpt><trkpt lat="44.45342688455105" lon="8.09812768096718"><ele>607.0</ele><time>2026-04-05T13:25:32.998Z</time></trkpt><trkpt lat="44.45354789605948" lon="8.098077580400581"><ele>607.0</ele><time>2026-04-05T13:25:33.998Z</time></trkpt><trkpt lat="44.45367687805694" lon="8.098030260037081"><ele>607.0</ele><time>2026-04-05T13:25:34.998Z</time></trkpt><trkpt lat="44.45380574160447" lon="8.09795470828352"><ele>607.0</ele><time>2026-04-05T13:25:35.998Z</time></trkpt><trkpt lat="44.45393330136611" lon="8.097865515809595"><ele>607.0</ele><time>2026-04-05T13:25:36.998Z</time></trkpt><trkpt lat="44.45406038046499" lon="8.097745522453328"><ele>606.5</ele><time>2026-04-05T13:25:37.998Z</time></trkpt><trkpt lat="44.45417574458037" lon="8.097611970327923"><ele>606.0</ele><time>2026-04-05T13:25:38.998Z</time></trkpt><trkpt lat="44.45427003756127" lon="8.097465967724442"><ele>605.5</ele><time>2026-04-05T13:25:39.998Z</time></trkpt><trkpt lat="44.45436049457774" lon="8.097331568464593"><ele>605.0</ele><time>2026-04-05T13:25:40.998Z</time></trkpt><trkpt lat="44.4544484558437" lon="8.097202091551216"><ele>605.0</ele><time>2026-04-05T13:25:41.998Z</time></trkpt><trkpt lat="44.45453238493694" lon="8.097054449149729"><ele>605.0</ele><time>2026-04-05T13:25:42.998Z</time></trkpt><trkpt lat="44.454612937091554" lon="8.096889040077778"><ele>605.0</ele><time>2026-04-05T13:25:43.998Z</time></trkpt><trkpt lat="44.45469024298231" lon="8.0967179514437"><ele>605.0</ele><time>2026-04-05T13:25:44.998Z</time></trkpt><trkpt lat="44.45477254860685" lon="8.096530524061311"><ele>607.0</ele><time>2026-04-05T13:25:45.998Z</time></trkpt><trkpt lat="44.45484209798319" lon="8.096342787524474"><ele>609.0</ele><time>2026-04-05T13:25:46.998Z</time></trkpt><trkpt lat="44.45490731938696" lon="8.09613549748966"><ele>611.0</ele><time>2026-04-05T13:25:48Z</time></trkpt><trkpt lat="44.454973318957315" lon="8.095935784010596"><ele>609.3333333333333</ele><time>2026-04-05T13:25:49Z</time></trkpt><trkpt lat="44.45502974924621" lon="8.095729719171832"><ele>607.6666666666666</ele><time>2026-04-05T13:25:50Z</time></trkpt><trkpt lat="44.45508071191667" lon="8.0955174055198"><ele>606.0</ele><time>2026-04-05T13:25:51Z</time></trkpt><trkpt lat="44.455131896901136" lon="8.095307064532543"><ele>606.0</ele><time>2026-04-05T13:25:52Z</time></trkpt><trkpt lat="44.45517936995471" lon="8.095093361304944"><ele>606.0</ele><time>2026-04-05T13:25:53Z</time></trkpt><trkpt lat="44.455222360633144" lon="8.094878347732312"><ele>606.0</ele><time>2026-04-05T13:25:54Z</time></trkpt><trkpt lat="44.45525195784261" lon="8.094657399866565"><ele>605.0</ele><time>2026-04-05T13:25:55Z</time></trkpt><trkpt lat="44.45528863597932" lon="8.094441063779202"><ele>604.0</ele><time>2026-04-05T13:25:56Z</time></trkpt><trkpt lat="44.455324484795845" lon="8.094226460197918"><ele>603.0</ele><time>2026-04-05T13:25:57Z</time></trkpt><trkpt lat="44.45537094771986" lon="8.094015719830901"><ele>602.75</ele><time>2026-04-05T13:25:58Z</time></trkpt><trkpt lat="44.455412995678536" lon="8.093806872320464"><ele>602.5</ele><time>2026-04-05T13:25:59Z</time></trkpt><trkpt lat="44.45545601734645" lon="8.093610439669948"><ele>602.25</ele><time>2026-04-05T13:26:00Z</time></trkpt><trkpt lat="44.45549408041333" lon="8.093430096649127"><ele>602.0</ele><time>2026-04-05T13:26:01Z</time></trkpt><trkpt lat="44.45553339052456" lon="8.093268465671063"><ele>603.25</ele><time>2026-04-05T13:26:02Z</time></trkpt><trkpt lat="44.45558584707305" lon="8.09312477490389"><ele>604.5</ele><time>2026-04-05T13:26:03Z</time></trkpt><trkpt lat="44.455654114853786" lon="8.092990756188138"><ele>605.75</ele><time>2026-04-05T13:26:04Z</time></trkpt><trkpt lat="44.455757182146" lon="8.092881567862964"><ele>607.0</ele><time>2026-04-05T13:26:05Z</time></trkpt><trkpt lat="44.45585202697992" lon="8.092742559499845"><ele>607.0</ele><time>2026-04-05T13:26:06Z</time></trkpt><trkpt lat="44.45593306420789" lon="8.092570356775612"><ele>607.0</ele><time>2026-04-05T13:26:07Z</time></trkpt><trkpt lat="44.456029488464694" lon="8.092405734611367"><ele>607.0</ele><time>2026-04-05T13:26:08Z</time></trkpt><trkpt lat="44.45611690421073" lon="8.092222173526682"><ele>606.0</ele><time>2026-04-05T13:26:09Z</time></trkpt><trkpt lat="44.456210624846264" lon="8.092042956671945"><ele>605.0</ele><time>2026-04-05T13:26:10Z</time></trkpt><trkpt lat="44.4563024959044" lon="8.091865050695949"><ele>604.0</ele><time>2026-04-05T13:26:11Z</time></trkpt><trkpt lat="44.45638971143158" lon="8.09170692990215"><ele>606.0</ele><time>2026-04-05T13:26:12Z</time></trkpt><trkpt lat="44.456472027013575" lon="8.091555973129399"><ele>608.0</ele><time>2026-04-05T13:26:13Z</time></trkpt><trkpt lat="44.456543177242935" lon="8.091408896570867"><ele>610.0</ele><time>2026-04-05T13:26:14Z</time></trkpt><trkpt lat="44.45659484342894" lon="8.091254006703165"><ele>612.0</ele><time>2026-04-05T13:26:15Z</time></trkpt><trkpt lat="44.4566362155653" lon="8.091091899400942"><ele>612.0</ele><time>2026-04-05T13:26:16Z</time></trkpt><trkpt lat="44.456674895168774" lon="8.090928212950525"><ele>612.0</ele><time>2026-04-05T13:26:17Z</time></trkpt><trkpt lat="44.45670745231524" lon="8.09078045309267"><ele>612.0</ele><time>2026-04-05T13:26:18Z</time></trkpt><trkpt lat="44.45673636904215" lon="8.090642033482577"><ele>612.0</ele><time>2026-04-05T13:26:19Z</time></trkpt><trkpt lat="44.456763080876335" lon="8.090517276234504"><ele>612.0</ele><time>2026-04-05T13:26:20Z</time></trkpt><trkpt lat="44.456799212251696" lon="8.090398156386167"><ele>611.4</ele><time>2026-04-05T13:26:21Z</time></trkpt><trkpt lat="44.45686538467555" lon="8.090294319453777"><ele>610.8000000000001</ele><time>2026-04-05T13:26:22Z</time></trkpt><trkpt lat="44.456949666494246" lon="8.090208174163328"><ele>610.2</ele><time>2026-04-05T13:26:23Z</time></trkpt><trkpt lat="44.457020749366926" lon="8.090095235356545"><ele>609.6</ele><time>2026-04-05T13:26:24Z</time></trkpt><trkpt lat="44.45710641064588" lon="8.090006171164006"><ele>609.0</ele><time>2026-04-05T13:26:25Z</time></trkpt><trkpt lat="44.45717204275183" lon="8.089907698891286"><ele>611.8</ele><time>2026-04-05T13:26:26Z</time></trkpt><trkpt lat="44.45721321996151" lon="8.08980765701817"><ele>614.5999999999999</ele><time>2026-04-05T13:26:27Z</time></trkpt><trkpt lat="44.45723855919" lon="8.089708911845035"><ele>617.4</ele><time>2026-04-05T13:26:28Z</time></trkpt><trkpt lat="44.45725128376784" lon="8.089617882462756"><ele>620.1999999999999</ele><time>2026-04-05T13:26:29Z</time></trkpt><trkpt lat="44.457246229356464" lon="8.089486763998393"><ele>623.0</ele><time>2026-04-05T13:26:31Z</time></trkpt><trkpt lat="44.45718445436135" lon="8.089309560023866"><ele>623.0</ele><time>2026-04-05T13:26:32.999Z</time></trkpt><trkpt lat="44.45714539127258" lon="8.089184235948832"><ele>623.0</ele><time>2026-04-05T13:26:33.999Z</time></trkpt><trkpt lat="44.45711344353231" lon="8.089035008107103"><ele>623.0</ele><time>2026-04-05T13:26:34.999Z</time></trkpt><trkpt lat="44.45708874807833" lon="8.08887836173891"><ele>623.0</ele><time>2026-04-05T13:26:35.999Z</time></trkpt><trkpt lat="44.45706574537568" lon="8.088725462046861"><ele>623.0</ele><time>2026-04-05T13:26:36.999Z</time></trkpt><trkpt lat="44.45703804301741" lon="8.088568939262517"><ele>619.5</ele><time>2026-04-05T13:26:37.999Z</time></trkpt><trkpt lat="44.456994979468966" lon="8.08840774420475"><ele>616.0</ele><time>2026-04-05T13:26:38.999Z</time></trkpt><trkpt lat="44.45694234803322" lon="8.088246082808244"><ele>612.5</ele><time>2026-04-05T13:26:39.999Z</time></trkpt><trkpt lat="44.45688831750962" lon="8.088081810080078"><ele>609.0</ele><time>2026-04-05T13:26:40.999Z</time></trkpt><trkpt lat="44.456840437961255" lon="8.087909215543638"><ele>608.75</ele><time>2026-04-05T13:26:41.999Z</time></trkpt><trkpt lat="44.456802162384044" lon="8.08772650078853"><ele>608.5</ele><time>2026-04-05T13:26:42.999Z</time></trkpt><trkpt lat="44.45677540826565" lon="8.087533666128829"><ele>608.25</ele><time>2026-04-05T13:26:43.999Z</time></trkpt><trkpt lat="44.45675483867224" lon="8.087339960722908"><ele>608.0</ele><time>2026-04-05T13:26:44.999Z</time></trkpt><trkpt lat="44.456744564748746" lon="8.087139589481785"><ele>608.0</ele><time>2026-04-05T13:26:45.999Z</time></trkpt><trkpt lat="44.45674178609232" lon="8.086941481845848"><ele>608.0</ele><time>2026-04-05T13:26:46.999Z</time></trkpt><trkpt lat="44.45674508348121" lon="8.086759383197817"><ele>608.0</ele><time>2026-04-05T13:26:47.999Z</time></trkpt><trkpt lat="44.456751992998015" lon="8.086595569769822"><ele>608.0</ele><time>2026-04-05T13:26:48.999Z</time></trkpt><trkpt lat="44.45676242718212" lon="8.086452594219528"><ele>608.1666666666666</ele><time>2026-04-05T13:26:49.999Z</time></trkpt><trkpt lat="44.45679823879844" lon="8.086331634400176"><ele>608.3333333333333</ele><time>2026-04-05T13:26:50.999Z</time></trkpt><trkpt lat="44.45681468214617" lon="8.086215161796865"><ele>608.5</ele><time>2026-04-05T13:26:51.999Z</time></trkpt><trkpt lat="44.456828178363594" lon="8.086105608887175"><ele>608.6666666666666</ele><time>2026-04-05T13:26:52.999Z</time></trkpt><trkpt lat="44.45681481112149" lon="8.085982521247548"><ele>608.8333333333334</ele><time>2026-04-05T13:26:53.999Z</time></trkpt><trkpt lat="44.45678849523421" lon="8.085866913007928"><ele>609.0</ele><time>2026-04-05T13:26:54.999Z</time></trkpt><trkpt lat="44.4567624597923" lon="8.08575167038129"><ele>608.6</ele><time>2026-04-05T13:26:55.999Z</time></trkpt><trkpt lat="44.45674088815637" lon="8.085641076189225"><ele>608.2</ele><time>2026-04-05T13:26:56.999Z</time></trkpt><trkpt lat="44.45674197827199" lon="8.085514108279533"><ele>607.8000000000001</ele><time>2026-04-05T13:26:57.999Z</time></trkpt><trkpt lat="44.45674199123652" lon="8.085381828709423"><ele>607.4</ele><time>2026-04-05T13:26:58.999Z</time></trkpt><trkpt lat="44.456744000510334" lon="8.08523439970466"><ele>607.0</ele><time>2026-04-05T13:26:59.999Z</time></trkpt><trkpt lat="44.456749363470465" lon="8.08508115690742"><ele>607.0</ele><time>2026-04-05T13:27:00.999Z</time></trkpt><trkpt lat="44.4567535216887" lon="8.084917500673466"><ele>607.0</ele><time>2026-04-05T13:27:01.999Z</time></trkpt><trkpt lat="44.45674947244657" lon="8.084750902074859"><ele>607.0</ele><time>2026-04-05T13:27:02.999Z</time></trkpt><trkpt lat="44.45674525870109" lon="8.084578814347317"><ele>607.0</ele><time>2026-04-05T13:27:03.999Z</time></trkpt><trkpt lat="44.4567427183192" lon="8.084399493532091"><ele>607.0</ele><time>2026-04-05T13:27:04.999Z</time></trkpt><trkpt lat="44.45674686052482" lon="8.08421286133495"><ele>607.0</ele><time>2026-04-05T13:27:05.999Z</time></trkpt><trkpt lat="44.45677688217104" lon="8.084027902312803"><ele>607.0</ele><time>2026-04-05T13:27:06.999Z</time></trkpt><trkpt lat="44.45678135121709" lon="8.083834420392485"><ele>607.0</ele><time>2026-04-05T13:27:07.999Z</time></trkpt><trkpt lat="44.45680391959997" lon="8.083640116304219"><ele>606.25</ele><time>2026-04-05T13:27:08.999Z</time></trkpt><trkpt lat="44.45683348640985" lon="8.083458768945128"><ele>605.5</ele><time>2026-04-05T13:27:09.999Z</time></trkpt><trkpt lat="44.45686280366132" lon="8.083302161212034"><ele>604.75</ele><time>2026-04-05T13:27:10.999Z</time></trkpt><trkpt lat="44.45690398420344" lon="8.083163408974809"><ele>604.0</ele><time>2026-04-05T13:27:11.999Z</time></trkpt><trkpt lat="44.456990377721695" lon="8.083057804892217"><ele>603.5</ele><time>2026-04-05T13:27:12.999Z</time></trkpt><trkpt lat="44.457085892476464" lon="8.082949586234994"><ele>603.0</ele><time>2026-04-05T13:27:13.999Z</time></trkpt><trkpt lat="44.4571679614678" lon="8.08281195537937"><ele>602.5</ele><time>2026-04-05T13:27:14.999Z</time></trkpt><trkpt lat="44.45726230261238" lon="8.082702972406963"><ele>602.0</ele><time>2026-04-05T13:27:15.999Z</time></trkpt><trkpt lat="44.457341000842696" lon="8.082599015348825"><ele>604.0</ele><time>2026-04-05T13:27:16.999Z</time></trkpt><trkpt lat="44.45740074104381" lon="8.082502425494269"><ele>606.0</ele><time>2026-04-05T13:27:17.999Z</time></trkpt><trkpt lat="44.45744468020275" lon="8.082398743391764"><ele>608.0</ele><time>2026-04-05T13:27:18.999Z</time></trkpt><trkpt lat="44.45746588625709" lon="8.082274532816227"><ele>610.0</ele><time>2026-04-05T13:27:19.999Z</time></trkpt><trkpt lat="44.45745556769083" lon="8.082134348511994"><ele>612.0</ele><time>2026-04-05T13:27:20.999Z</time></trkpt><trkpt lat="44.457406193706205" lon="8.08199088215939"><ele>612.5</ele><time>2026-04-05T13:27:21.999Z</time></trkpt><trkpt lat="44.457327535695676" lon="8.081852892596181"><ele>613.0</ele><time>2026-04-05T13:27:22.999Z</time></trkpt><trkpt lat="44.45723596789013" lon="8.081710083913915"><ele>613.5</ele><time>2026-04-05T13:27:23.999Z</time></trkpt><trkpt lat="44.45714347069843" lon="8.081557473828921"><ele>614.0</ele><time>2026-04-05T13:27:24.999Z</time></trkpt><trkpt lat="44.45708119665504" lon="8.081365103986219"><ele>612.6666666666666</ele><time>2026-04-05T13:27:25.999Z</time></trkpt><trkpt lat="44.45699723764927" lon="8.081175312402822"><ele>611.3333333333334</ele><time>2026-04-05T13:27:26.999Z</time></trkpt><trkpt lat="44.45692973957776" lon="8.080964538307548"><ele>610.0</ele><time>2026-04-05T13:27:27.999Z</time></trkpt><trkpt lat="44.45686216538152" lon="8.080758384055581"><ele>610.0</ele><time>2026-04-05T13:27:28.999Z</time></trkpt><trkpt lat="44.4567971282679" lon="8.080556604213834"><ele>610.0</ele><time>2026-04-05T13:27:29.999Z</time></trkpt><trkpt lat="44.45673203386917" lon="8.080367976997815"><ele>610.0</ele><time>2026-04-05T13:27:30.998Z</time></trkpt><trkpt lat="44.456667983217564" lon="8.080194286241086"><ele>610.0</ele><time>2026-04-05T13:27:31.998Z</time></trkpt><trkpt lat="44.45660754095334" lon="8.080031277457802"><ele>610.25</ele><time>2026-04-05T13:27:32.998Z</time></trkpt><trkpt lat="44.45656293715141" lon="8.079863098698818"><ele>610.5</ele><time>2026-04-05T13:27:33.998Z</time></trkpt><trkpt lat="44.45653508891926" lon="8.079690868477982"><ele>610.75</ele><time>2026-04-05T13:27:34.998Z</time></trkpt><trkpt lat="44.45652457174923" lon="8.079500231964188"><ele>611.0</ele><time>2026-04-05T13:27:35.998Z</time></trkpt><trkpt lat="44.45652701184789" lon="8.079301128429638"><ele>610.3333333333333</ele><time>2026-04-05T13:27:36.998Z</time></trkpt><trkpt lat="44.45653470365781" lon="8.079090998760432"><ele>609.6666666666666</ele><time>2026-04-05T13:27:37.998Z</time></trkpt><trkpt lat="44.456539863213" lon="8.078872451437126"><ele>609.0</ele><time>2026-04-05T13:27:38.998Z</time></trkpt><trkpt lat="44.45654487019938" lon="8.078652614888657"><ele>609.0</ele><time>2026-04-05T13:27:39.998Z</time></trkpt><trkpt lat="44.456555673804765" lon="8.078423160334463"><ele>609.0</ele><time>2026-04-05T13:27:40.998Z</time></trkpt><trkpt lat="44.45657125734971" lon="8.078207591447544"><ele>609.0</ele><time>2026-04-05T13:27:41.998Z</time></trkpt><trkpt lat="44.456585755525715" lon="8.077998874233138"><ele>608.75</ele><time>2026-04-05T13:27:42.998Z</time></trkpt><trkpt lat="44.45659157599342" lon="8.077796897630886"><ele>608.5</ele><time>2026-04-05T13:27:43.998Z</time></trkpt><trkpt lat="44.456593350227" lon="8.077601217817078"><ele>608.25</ele><time>2026-04-05T13:27:44.998Z</time></trkpt><trkpt lat="44.456596872499176" lon="8.077414077517394"><ele>608.0</ele><time>2026-04-05T13:27:45.998Z</time></trkpt><trkpt lat="44.45659976952835" lon="8.077232691608181"><ele>607.5</ele><time>2026-04-05T13:27:46.998Z</time></trkpt><trkpt lat="44.45660300473197" lon="8.077056472865758"><ele>607.0</ele><time>2026-04-05T13:27:47.998Z</time></trkpt><trkpt lat="44.456602381000415" lon="8.076865446521207"><ele>606.5</ele><time>2026-04-05T13:27:48.998Z</time></trkpt><trkpt lat="44.45659649820135" lon="8.076662792287456"><ele>606.0</ele><time>2026-04-05T13:27:49.998Z</time></trkpt><trkpt lat="44.456599298706244" lon="8.076465496919377"><ele>605.0</ele><time>2026-04-05T13:27:50.998Z</time></trkpt><trkpt lat="44.45660324851052" lon="8.076280925710694"><ele>604.0</ele><time>2026-04-05T13:27:51.998Z</time></trkpt><trkpt lat="44.456611249715294" lon="8.076111949435719"><ele>603.0</ele><time>2026-04-05T13:27:52.998Z</time></trkpt><trkpt lat="44.456617244992295" lon="8.075955261223436"><ele>602.0</ele><time>2026-04-05T13:27:54Z</time></trkpt><trkpt lat="44.456625539112075" lon="8.075806863465386"><ele>602.75</ele><time>2026-04-05T13:27:55Z</time></trkpt><trkpt lat="44.456625261146854" lon="8.075647670650657"><ele>603.5</ele><time>2026-04-05T13:27:56Z</time></trkpt><trkpt lat="44.4566246805423" lon="8.07548550557203"><ele>604.25</ele><time>2026-04-05T13:27:57Z</time></trkpt><trkpt lat="44.456609481266824" lon="8.075312120621298"><ele>605.0</ele><time>2026-04-05T13:27:58Z</time></trkpt><trkpt lat="44.45659787940358" lon="8.075121582122453"><ele>604.3333333333333</ele><time>2026-04-05T13:27:59Z</time></trkpt><trkpt lat="44.45659705884907" lon="8.07491287671815"><ele>603.6666666666666</ele><time>2026-04-05T13:28:00Z</time></trkpt><trkpt lat="44.45660815415231" lon="8.074685625344506"><ele>603.0</ele><time>2026-04-05T13:28:01Z</time></trkpt><trkpt lat="44.45661696871916" lon="8.07444965810215"><ele>603.0</ele><time>2026-04-05T13:28:02Z</time></trkpt><trkpt lat="44.456609564706575" lon="8.074211530695193"><ele>603.0</ele><time>2026-04-05T13:28:03Z</time></trkpt><trkpt lat="44.45659772193195" lon="8.073975038513508"><ele>603.0</ele><time>2026-04-05T13:28:04Z</time></trkpt><trkpt lat="44.45657816659337" lon="8.07373632715234"><ele>603.6666666666666</ele><time>2026-04-05T13:28:05Z</time></trkpt><trkpt lat="44.45655417684674" lon="8.0735048534596"><ele>604.3333333333333</ele><time>2026-04-05T13:28:06Z</time></trkpt><trkpt lat="44.456519055117425" lon="8.07329087518407"><ele>605.0</ele><time>2026-04-05T13:28:07Z</time></trkpt><trkpt lat="44.45646946024723" lon="8.073096695154529"><ele>606.25</ele><time>2026-04-05T13:28:08Z</time></trkpt><trkpt lat="44.45641793794866" lon="8.07291780690811"><ele>607.5</ele><time>2026-04-05T13:28:09Z</time></trkpt><trkpt lat="44.45636644655402" lon="8.072751672693226"><ele>608.75</ele><time>2026-04-05T13:28:10Z</time></trkpt><trkpt lat="44.45632984228521" lon="8.072558471341859"><ele>610.0</ele><time>2026-04-05T13:28:11Z</time></trkpt><trkpt lat="44.45631349053798" lon="8.072350535396593"><ele>612.0</ele><time>2026-04-05T13:28:12Z</time></trkpt><trkpt lat="44.45631721900859" lon="8.072137549842326"><ele>614.0</ele><time>2026-04-05T13:28:13Z</time></trkpt><trkpt lat="44.456340888573536" lon="8.071925691036084"><ele>616.0</ele><time>2026-04-05T13:28:14Z</time></trkpt><trkpt lat="44.45635263564269" lon="8.071709316723997"><ele>618.3333333333334</ele><time>2026-04-05T13:28:15Z</time></trkpt><trkpt lat="44.45634579922007" lon="8.071479552219257"><ele>620.6666666666666</ele><time>2026-04-05T13:28:16Z</time></trkpt><trkpt lat="44.456320703204256" lon="8.07124975054158"><ele>623.0</ele><time>2026-04-05T13:28:17Z</time></trkpt><trkpt lat="44.45630041848984" lon="8.071018903251774"><ele>617.5</ele><time>2026-04-05T13:28:18Z</time></trkpt><trkpt lat="44.456244514317625" lon="8.070832688048108"><ele>612.0</ele><time>2026-04-05T13:28:19Z</time></trkpt><trkpt lat="44.4561811473801" lon="8.070653764022886"><ele>606.5</ele><time>2026-04-05T13:28:20Z</time></trkpt><trkpt lat="44.456134635775534" lon="8.070467102294316"><ele>601.0</ele><time>2026-04-05T13:28:21Z</time></trkpt><trkpt lat="44.456099974595865" lon="8.070270790967324"><ele>601.0</ele><time>2026-04-05T13:28:22Z</time></trkpt><trkpt lat="44.4560666291682" lon="8.070077296775414"><ele>601.0</ele><time>2026-04-05T13:28:23Z</time></trkpt><trkpt lat="44.45603395418209" lon="8.06989204996947"><ele>601.0</ele><time>2026-04-05T13:28:24Z</time></trkpt><trkpt lat="44.45600620985877" lon="8.069714313653394"><ele>601.0</ele><time>2026-04-05T13:28:25Z</time></trkpt><trkpt lat="44.455974763137725" lon="8.069547536300542"><ele>602.0</ele><time>2026-04-05T13:28:26Z</time></trkpt><trkpt lat="44.455940765368496" lon="8.069382260253295"><ele>603.0</ele><time>2026-04-05T13:28:27Z</time></trkpt><trkpt lat="44.45590096394233" lon="8.069235920617421"><ele>604.0</ele><time>2026-04-05T13:28:28Z</time></trkpt><trkpt lat="44.455856048782316" lon="8.069081556211945"><ele>605.0</ele><time>2026-04-05T13:28:29Z</time></trkpt><trkpt lat="44.45579876153318" lon="8.068912324634482"><ele>605.75</ele><time>2026-04-05T13:28:30Z</time></trkpt><trkpt lat="44.45574352577692" lon="8.068750134227576"><ele>606.5</ele><time>2026-04-05T13:28:31Z</time></trkpt><trkpt lat="44.45568263679425" lon="8.0686025985214"><ele>607.25</ele><time>2026-04-05T13:28:32Z</time></trkpt><trkpt lat="44.45562827762991" lon="8.068453561805889"><ele>608.0</ele><time>2026-04-05T13:28:33Z</time></trkpt><trkpt lat="44.45558045827962" lon="8.06828317295437"><ele>608.0</ele><time>2026-04-05T13:28:34Z</time></trkpt><trkpt lat="44.45555047562071" lon="8.068104684886789"><ele>608.0</ele><time>2026-04-05T13:28:34.999Z</time></trkpt><trkpt lat="44.45553696413327" lon="8.06792458323422"><ele>608.0</ele><time>2026-04-05T13:28:35.999Z</time></trkpt><trkpt lat="44.45553734240353" lon="8.067727481652307"><ele>608.0</ele><time>2026-04-05T13:28:36.999Z</time></trkpt><trkpt lat="44.45555748432304" lon="8.067508644673874"><ele>606.6666666666666</ele><time>2026-04-05T13:28:37.999Z</time></trkpt><trkpt lat="44.45558706144625" lon="8.067268515278624"><ele>605.3333333333334</ele><time>2026-04-05T13:28:38.999Z</time></trkpt><trkpt lat="44.455609178605556" lon="8.067006497423108"><ele>604.0</ele><time>2026-04-05T13:28:39.999Z</time></trkpt><trkpt lat="44.45562370124515" lon="8.066738471821356"><ele>602.6666666666667</ele><time>2026-04-05T13:28:40.999Z</time></trkpt><trkpt lat="44.45563555908911" lon="8.066475051443414"><ele>601.3333333333334</ele><time>2026-04-05T13:28:41.999Z</time></trkpt><trkpt lat="44.455642518106416" lon="8.066241204299432"><ele>600.0</ele><time>2026-04-05T13:28:42.999Z</time></trkpt><trkpt lat="44.45565612534231" lon="8.066015505946462"><ele>600.0</ele><time>2026-04-05T13:28:43.999Z</time></trkpt><trkpt lat="44.45567967210142" lon="8.065787174173074"><ele>600.0</ele><time>2026-04-05T13:28:44.999Z</time></trkpt><trkpt lat="44.45570522702891" lon="8.065557746636735"><ele>600.0</ele><time>2026-04-05T13:28:45.999Z</time></trkpt><trkpt lat="44.45573526533844" lon="8.065328739418828"><ele>599.0</ele><time>2026-04-05T13:28:46.999Z</time></trkpt><trkpt lat="44.45577230873483" lon="8.065092616976514"><ele>598.0</ele><time>2026-04-05T13:28:47.999Z</time></trkpt><trkpt lat="44.455821335252395" lon="8.064847446544798"><ele>597.0</ele><time>2026-04-05T13:28:48.999Z</time></trkpt><trkpt lat="44.45587764720163" lon="8.064600520720418"><ele>595.6666666666666</ele><time>2026-04-05T13:28:49.999Z</time></trkpt><trkpt lat="44.45593066027808" lon="8.064348846378635"><ele>594.3333333333333</ele><time>2026-04-05T13:28:50.999Z</time></trkpt><trkpt lat="44.45598220366649" lon="8.064090733730737"><ele>593.0</ele><time>2026-04-05T13:28:51.999Z</time></trkpt><trkpt lat="44.45603956109752" lon="8.063835707931311"><ele>593.0</ele><time>2026-04-05T13:28:52.999Z</time></trkpt><trkpt lat="44.45610445893868" lon="8.063579410313062"><ele>593.0</ele><time>2026-04-05T13:28:53.999Z</time></trkpt><trkpt lat="44.45617402870141" lon="8.063329050604887"><ele>593.0</ele><time>2026-04-05T13:28:54.999Z</time></trkpt><trkpt lat="44.45624531000533" lon="8.063097495672254"><ele>597.0</ele><time>2026-04-05T13:28:55.999Z</time></trkpt><trkpt lat="44.45630900041668" lon="8.062888578697489"><ele>601.0</ele><time>2026-04-05T13:28:56.999Z</time></trkpt><trkpt lat="44.456362412819246" lon="8.062667800772513"><ele>605.0</ele><time>2026-04-05T13:28:57.999Z</time></trkpt><trkpt lat="44.45640338415517" lon="8.062432187002008"><ele>605.0</ele><time>2026-04-05T13:28:58.999Z</time></trkpt><trkpt lat="44.45643281869844" lon="8.062183339810858"><ele>605.0</ele><time>2026-04-05T13:28:59.999Z</time></trkpt><trkpt lat="44.45645890445299" lon="8.061922672269947"><ele>605.0</ele><time>2026-04-05T13:29:00.999Z</time></trkpt><trkpt lat="44.45647969783108" lon="8.061654686715586"><ele>606.0</ele><time>2026-04-05T13:29:01.999Z</time></trkpt><trkpt lat="44.456495506327094" lon="8.061398894913085"><ele>607.0</ele><time>2026-04-05T13:29:02.999Z</time></trkpt><trkpt lat="44.456502197034766" lon="8.061165077486582"><ele>608.0</ele><time>2026-04-05T13:29:03.999Z</time></trkpt><trkpt lat="44.456505198243114" lon="8.060944389980683"><ele>607.5</ele><time>2026-04-05T13:29:04.999Z</time></trkpt><trkpt lat="44.4564994109348" lon="8.06072853985185"><ele>607.0</ele><time>2026-04-05T13:29:05.999Z</time></trkpt><trkpt lat="44.45649449133755" lon="8.060530021101258"><ele>606.5</ele><time>2026-04-05T13:29:06.999Z</time></trkpt><trkpt lat="44.456493332854336" lon="8.06034664491626"><ele>606.0</ele><time>2026-04-05T13:29:07.999Z</time></trkpt><trkpt lat="44.45648648010546" lon="8.060168464093834"><ele>606.0</ele><time>2026-04-05T13:29:08.999Z</time></trkpt><trkpt lat="44.45648179546813" lon="8.0600017199364"><ele>606.0</ele><time>2026-04-05T13:29:09.999Z</time></trkpt><trkpt lat="44.456489534167" lon="8.059828841610987"><ele>606.0</ele><time>2026-04-05T13:29:10.999Z</time></trkpt><trkpt lat="44.45651366598463" lon="8.059640623341787"><ele>606.0</ele><time>2026-04-05T13:29:11.999Z</time></trkpt><trkpt lat="44.45655605018031" lon="8.05945259556987"><ele>603.75</ele><time>2026-04-05T13:29:12.999Z</time></trkpt><trkpt lat="44.45660138036261" lon="8.059245209619391"><ele>601.5</ele><time>2026-04-05T13:29:13.999Z</time></trkpt><trkpt lat="44.456659104801645" lon="8.059051009468641"><ele>599.25</ele><time>2026-04-05T13:29:14.999Z</time></trkpt><trkpt lat="44.456715953101224" lon="8.058868172464331"><ele>597.0</ele><time>2026-04-05T13:29:15.999Z</time></trkpt><trkpt lat="44.45677711597674" lon="8.058699599554311"><ele>595.5</ele><time>2026-04-05T13:29:16.999Z</time></trkpt><trkpt lat="44.45683093736259" lon="8.058540508143132"><ele>594.0</ele><time>2026-04-05T13:29:17.999Z</time></trkpt><trkpt lat="44.45687904726378" lon="8.058386074684572"><ele>592.5</ele><time>2026-04-05T13:29:18.999Z</time></trkpt><trkpt lat="44.45692165017713" lon="8.058242495084928"><ele>591.0</ele><time>2026-04-05T13:29:19.999Z</time></trkpt><trkpt lat="44.456984869283154" lon="8.058117740107422"><ele>591.0</ele><time>2026-04-05T13:29:20.999Z</time></trkpt><trkpt lat="44.45705081295796" lon="8.057988832096687"><ele>591.0</ele><time>2026-04-05T13:29:21.999Z</time></trkpt><trkpt lat="44.45715132092244" lon="8.057895375253318"><ele>591.0</ele><time>2026-04-05T13:29:22.999Z</time></trkpt><trkpt lat="44.457256340888556" lon="8.057804868383437"><ele>591.0</ele><time>2026-04-05T13:29:23.999Z</time></trkpt><trkpt lat="44.4573784898706" lon="8.057708166249606"><ele>591.0</ele><time>2026-04-05T13:29:24.999Z</time></trkpt><trkpt lat="44.45750689835834" lon="8.057601543582297"><ele>591.0</ele><time>2026-04-05T13:29:25.999Z</time></trkpt><trkpt lat="44.45764437649147" lon="8.057505651954289"><ele>591.0</ele><time>2026-04-05T13:29:26.999Z</time></trkpt><trkpt lat="44.45779162512971" lon="8.057419990429308"><ele>591.0</ele><time>2026-04-05T13:29:27.999Z</time></trkpt><trkpt lat="44.457933949108536" lon="8.057355428790252"><ele>591.0</ele><time>2026-04-05T13:29:28.999Z</time></trkpt><trkpt lat="44.45806409902934" lon="8.057303796030086"><ele>591.0</ele><time>2026-04-05T13:29:29.999Z</time></trkpt><trkpt lat="44.4581886008827" lon="8.05728329819353"><ele>591.0</ele><time>2026-04-05T13:29:30.999Z</time></trkpt><trkpt lat="44.45830210640672" lon="8.057231665552303"><ele>590.75</ele><time>2026-04-05T13:29:31.999Z</time></trkpt><trkpt lat="44.45842661438297" lon="8.057236562981448"><ele>590.5</ele><time>2026-04-05T13:29:32.998Z</time></trkpt><trkpt lat="44.45855269960608" lon="8.057232085813386"><ele>590.25</ele><time>2026-04-05T13:29:33.998Z</time></trkpt><trkpt lat="44.45868960838548" lon="8.057207098500696"><ele>590.0</ele><time>2026-04-05T13:29:34.998Z</time></trkpt><trkpt lat="44.45883051503867" lon="8.057204512818458"><ele>589.3333333333333</ele><time>2026-04-05T13:29:35.998Z</time></trkpt><trkpt lat="44.45898370504597" lon="8.05719888245019"><ele>588.6666666666666</ele><time>2026-04-05T13:29:36.998Z</time></trkpt><trkpt lat="44.45914647215427" lon="8.057154175866689"><ele>588.0</ele><time>2026-04-05T13:29:37.998Z</time></trkpt><trkpt lat="44.45932068169082" lon="8.057077013921338"><ele>588.0</ele><time>2026-04-05T13:29:38.998Z</time></trkpt><trkpt lat="44.45950288093889" lon="8.056987504052922"><ele>588.0</ele><time>2026-04-05T13:29:39.998Z</time></trkpt><trkpt lat="44.459681003689" lon="8.056880189698113"><ele>588.0</ele><time>2026-04-05T13:29:40.998Z</time></trkpt><trkpt lat="44.45984118678794" lon="8.056757942029689"><ele>588.6666666666666</ele><time>2026-04-05T13:29:41.998Z</time></trkpt><trkpt lat="44.45998477858548" lon="8.056641988895823"><ele>589.3333333333333</ele><time>2026-04-05T13:29:42.998Z</time></trkpt><trkpt lat="44.460119815430595" lon="8.056530160671455"><ele>590.0</ele><time>2026-04-05T13:29:43.998Z</time></trkpt><trkpt lat="44.46023722922588" lon="8.056414726877698"><ele>590.0</ele><time>2026-04-05T13:29:44.998Z</time></trkpt><trkpt lat="44.46034489736194" lon="8.056291941493617"><ele>590.0</ele><time>2026-04-05T13:29:45.998Z</time></trkpt><trkpt lat="44.460434117227834" lon="8.056154249174947"><ele>590.0</ele><time>2026-04-05T13:29:46.998Z</time></trkpt><trkpt lat="44.46051576563465" lon="8.056037912863374"><ele>590.0</ele><time>2026-04-05T13:29:47.998Z</time></trkpt><trkpt lat="44.46059032067669" lon="8.055937290366883"><ele>590.2</ele><time>2026-04-05T13:29:48.998Z</time></trkpt><trkpt lat="44.46067755321482" lon="8.055890982586277"><ele>590.4</ele><time>2026-04-05T13:29:49.998Z</time></trkpt><trkpt lat="44.460775390237316" lon="8.055886235824062"><ele>590.6</ele><time>2026-04-05T13:29:50.998Z</time></trkpt><trkpt lat="44.46088257153095" lon="8.05591528421861"><ele>590.8</ele><time>2026-04-05T13:29:51.998Z</time></trkpt><trkpt lat="44.461015670829184" lon="8.055930138748861"><ele>591.0</ele><time>2026-04-05T13:29:52.998Z</time></trkpt><trkpt lat="44.461161791118" lon="8.055948812587108"><ele>592.3333333333334</ele><time>2026-04-05T13:29:53.998Z</time></trkpt><trkpt lat="44.461322677761615" lon="8.055937760248629"><ele>593.6666666666667</ele><time>2026-04-05T13:29:54.998Z</time></trkpt><trkpt lat="44.46148992365781" lon="8.055904709719677"><ele>595.0</ele><time>2026-04-05T13:29:55.998Z</time></trkpt><trkpt lat="44.46163498786384" lon="8.055852936076926"><ele>593.75</ele><time>2026-04-05T13:29:56.998Z</time></trkpt><trkpt lat="44.46176830505409" lon="8.055784008359423"><ele>592.5</ele><time>2026-04-05T13:29:57.998Z</time></trkpt><trkpt lat="44.46190778940269" lon="8.055713878998626"><ele>591.25</ele><time>2026-04-05T13:29:58.998Z</time></trkpt><trkpt lat="44.46205384526515" lon="8.055635818555812"><ele>590.0</ele><time>2026-04-05T13:30:00Z</time></trkpt><trkpt lat="44.46219782790821" lon="8.055549362598102"><ele>590.0</ele><time>2026-04-05T13:30:01Z</time></trkpt><trkpt lat="44.46234358034182" lon="8.055460516292142"><ele>590.0</ele><time>2026-04-05T13:30:02Z</time></trkpt><trkpt lat="44.462482192621614" lon="8.055362285424293"><ele>590.0</ele><time>2026-04-05T13:30:03Z</time></trkpt><trkpt lat="44.462611941076304" lon="8.05525731209644"><ele>590.0</ele><time>2026-04-05T13:30:04Z</time></trkpt><trkpt lat="44.46273265777162" lon="8.055159287867882"><ele>590.0</ele><time>2026-04-05T13:30:05Z</time></trkpt><trkpt lat="44.46284998931806" lon="8.055067961975999"><ele>590.0</ele><time>2026-04-05T13:30:06Z</time></trkpt><trkpt lat="44.46297165416854" lon="8.055018438269045"><ele>590.0</ele><time>2026-04-05T13:30:07Z</time></trkpt><trkpt lat="44.46309877745572" lon="8.054969097745285"><ele>590.25</ele><time>2026-04-05T13:30:08Z</time></trkpt><trkpt lat="44.46324429008346" lon="8.05492563188307"><ele>590.5</ele><time>2026-04-05T13:30:09Z</time></trkpt><trkpt lat="44.46339402604515" lon="8.054911744467969"><ele>590.75</ele><time>2026-04-05T13:30:10Z</time></trkpt><trkpt lat="44.46353948870666" lon="8.054933080309292"><ele>591.0</ele><time>2026-04-05T13:30:11Z</time></trkpt><trkpt lat="44.46368078022413" lon="8.054976310402948"><ele>590.6666666666666</ele><time>2026-04-05T13:30:12Z</time></trkpt><trkpt lat="44.46382454512337" lon="8.055045978808137"><ele>590.3333333333333</ele><time>2026-04-05T13:30:13Z</time></trkpt><trkpt lat="44.46397356011642" lon="8.055125941561666"><ele>590.0</ele><time>2026-04-05T13:30:14Z</time></trkpt><trkpt lat="44.46412271921317" lon="8.055199784361424"><ele>590.0</ele><time>2026-04-05T13:30:15Z</time></trkpt><trkpt lat="44.46426885459935" lon="8.055246607290975"><ele>590.0</ele><time>2026-04-05T13:30:16Z</time></trkpt><trkpt lat="44.464411663659995" lon="8.055296278404004"><ele>590.0</ele><time>2026-04-05T13:30:17Z</time></trkpt><trkpt lat="44.46455776980521" lon="8.055325588314576"><ele>590.0</ele><time>2026-04-05T13:30:18Z</time></trkpt><trkpt lat="44.46471284103875" lon="8.055333459293674"><ele>590.3333333333333</ele><time>2026-04-05T13:30:19Z</time></trkpt><trkpt lat="44.46486901860161" lon="8.055314755820172"><ele>590.6666666666666</ele><time>2026-04-05T13:30:20Z</time></trkpt><trkpt lat="44.46503335716485" lon="8.055269989364723"><ele>591.0</ele><time>2026-04-05T13:30:21Z</time></trkpt><trkpt lat="44.465194900868326" lon="8.055259849704623"><ele>591.0</ele><time>2026-04-05T13:30:22Z</time></trkpt><trkpt lat="44.46534820001846" lon="8.055237312828062"><ele>591.0</ele><time>2026-04-05T13:30:23Z</time></trkpt><trkpt lat="44.46549594294519" lon="8.055210908248757"><ele>591.0</ele><time>2026-04-05T13:30:24Z</time></trkpt><trkpt lat="44.465640430657174" lon="8.055254805697837"><ele>590.6666666666666</ele><time>2026-04-05T13:30:25Z</time></trkpt><trkpt lat="44.46580043867351" lon="8.055300019954412"><ele>590.3333333333333</ele><time>2026-04-05T13:30:26Z</time></trkpt><trkpt lat="44.46596373956565" lon="8.055340414528095"><ele>590.0</ele><time>2026-04-05T13:30:27Z</time></trkpt><trkpt lat="44.4661338267363" lon="8.055356858638246"><ele>589.0</ele><time>2026-04-05T13:30:28Z</time></trkpt><trkpt lat="44.46628821962178" lon="8.05542624865164"><ele>588.0</ele><time>2026-04-05T13:30:29Z</time></trkpt><trkpt lat="44.46644064903346" lon="8.055468450940731"><ele>587.0</ele><time>2026-04-05T13:30:30Z</time></trkpt><trkpt lat="44.466569329776576" lon="8.055512738984135"><ele>587.0</ele><time>2026-04-05T13:30:31Z</time></trkpt><trkpt lat="44.46669024821749" lon="8.055542899359587"><ele>587.0</ele><time>2026-04-05T13:30:32Z</time></trkpt><trkpt lat="44.46680248594226" lon="8.055591851555924"><ele>587.0</ele><time>2026-04-05T13:30:33Z</time></trkpt><trkpt lat="44.46691605739053" lon="8.055624901639504"><ele>587.0</ele><time>2026-04-05T13:30:34Z</time></trkpt><trkpt lat="44.467041681287554" lon="8.055667497871593"><ele>587.0</ele><time>2026-04-05T13:30:35Z</time></trkpt><trkpt lat="44.467175975593385" lon="8.05570381646692"><ele>587.0</ele><time>2026-04-05T13:30:36Z</time></trkpt><trkpt lat="44.467323069234254" lon="8.055726608891343"><ele>587.0</ele><time>2026-04-05T13:30:37Z</time></trkpt><trkpt lat="44.467475182872946" lon="8.055716766105107"><ele>587.0</ele><time>2026-04-05T13:30:38Z</time></trkpt><trkpt lat="44.467635397077956" lon="8.055666632404627"><ele>587.0</ele><time>2026-04-05T13:30:39Z</time></trkpt><trkpt lat="44.46779842213049" lon="8.055591305463297"><ele>587.0</ele><time>2026-04-05T13:30:40Z</time></trkpt><trkpt lat="44.467966093032224" lon="8.055511501810969"><ele>587.0</ele><time>2026-04-05T13:30:41Z</time></trkpt><trkpt lat="44.46813589779454" lon="8.055436354002005"><ele>587.6666666666666</ele><time>2026-04-05T13:30:41.999Z</time></trkpt><trkpt lat="44.468293491356505" lon="8.055362945534263"><ele>588.3333333333334</ele><time>2026-04-05T13:30:42.999Z</time></trkpt><trkpt lat="44.468432825906724" lon="8.055291815383702"><ele>589.0</ele><time>2026-04-05T13:30:43.999Z</time></trkpt><trkpt lat="44.468555662274575" lon="8.055205160216213"><ele>589.0</ele><time>2026-04-05T13:30:44.999Z</time></trkpt><trkpt lat="44.46867060183859" lon="8.055114481219482"><ele>589.0</ele><time>2026-04-05T13:30:45.999Z</time></trkpt><trkpt lat="44.46877539313916" lon="8.054995829185827"><ele>589.0</ele><time>2026-04-05T13:30:46.999Z</time></trkpt><trkpt lat="44.46887200489835" lon="8.054855639171409"><ele>589.0</ele><time>2026-04-05T13:30:47.999Z</time></trkpt><trkpt lat="44.468962662899074" lon="8.054689249027208"><ele>588.25</ele><time>2026-04-05T13:30:48.999Z</time></trkpt><trkpt lat="44.46903660636776" lon="8.054506454083716"><ele>587.5</ele><time>2026-04-05T13:30:49.999Z</time></trkpt><trkpt lat="44.469120274404396" lon="8.054348852089944"><ele>586.75</ele><time>2026-04-05T13:30:50.999Z</time></trkpt><trkpt lat="44.469190718170566" lon="8.054202088806164"><ele>586.0</ele><time>2026-04-05T13:30:51.999Z</time></trkpt><trkpt lat="44.46926740737693" lon="8.054058625756241"><ele>585.5</ele><time>2026-04-05T13:30:52.999Z</time></trkpt><trkpt lat="44.46935252563251" lon="8.05391873494122"><ele>585.0</ele><time>2026-04-05T13:30:53.999Z</time></trkpt><trkpt lat="44.469455363993106" lon="8.05380083804436"><ele>584.5</ele><time>2026-04-05T13:30:54.999Z</time></trkpt><trkpt lat="44.46956500060518" lon="8.053706557959424"><ele>584.0</ele><time>2026-04-05T13:30:55.999Z</time></trkpt><trkpt lat="44.46967362015863" lon="8.053623247002243"><ele>584.0</ele><time>2026-04-05T13:30:56.999Z</time></trkpt><trkpt lat="44.469775290444716" lon="8.053554487426512"><ele>584.0</ele><time>2026-04-05T13:30:57.999Z</time></trkpt><trkpt lat="44.46988213126662" lon="8.053512767960964"><ele>584.0</ele><time>2026-04-05T13:30:58.999Z</time></trkpt><trkpt lat="44.470008337031196" lon="8.053501509769733"><ele>584.0</ele><time>2026-04-05T13:30:59.999Z</time></trkpt><trkpt lat="44.470152973539726" lon="8.053494837632861"><ele>584.0</ele><time>2026-04-05T13:31:00.999Z</time></trkpt><trkpt lat="44.47031477532885" lon="8.053478177883402"><ele>584.0</ele><time>2026-04-05T13:31:01.999Z</time></trkpt><trkpt lat="44.47049308717586" lon="8.053439287542458"><ele>584.0</ele><time>2026-04-05T13:31:02.999Z</time></trkpt><trkpt lat="44.470671229959905" lon="8.053395651771465"><ele>584.3333333333333</ele><time>2026-04-05T13:31:03.999Z</time></trkpt><trkpt lat="44.47085025168828" lon="8.053349326049538"><ele>584.6666666666666</ele><time>2026-04-05T13:31:04.999Z</time></trkpt><trkpt lat="44.47101690854531" lon="8.05330597026444"><ele>585.0</ele><time>2026-04-05T13:31:05.999Z</time></trkpt><trkpt lat="44.471174162656965" lon="8.05326817065849"><ele>583.25</ele><time>2026-04-05T13:31:06.999Z</time></trkpt><trkpt lat="44.471321592819265" lon="8.053237146677128"><ele>581.5</ele><time>2026-04-05T13:31:07.999Z</time></trkpt><trkpt lat="44.47146670975951" lon="8.053216286942792"><ele>579.75</ele><time>2026-04-05T13:31:08.999Z</time></trkpt><trkpt lat="44.47161144469042" lon="8.053205484510244"><ele>578.0</ele><time>2026-04-05T13:31:09.999Z</time></trkpt><trkpt lat="44.47174973355611" lon="8.053199752969496"><ele>578.0</ele><time>2026-04-05T13:31:10.999Z</time></trkpt><trkpt lat="44.47188255572441" lon="8.053181455390872"><ele>578.0</ele><time>2026-04-05T13:31:11.999Z</time></trkpt><trkpt lat="44.47200809365276" lon="8.053144325364753"><ele>578.0</ele><time>2026-04-05T13:31:12.999Z</time></trkpt><trkpt lat="44.47213094316321" lon="8.053060211800856"><ele>578.0</ele><time>2026-04-05T13:31:13.999Z</time></trkpt><trkpt lat="44.47224218594144" lon="8.052930313124461"><ele>577.75</ele><time>2026-04-05T13:31:14.999Z</time></trkpt><trkpt lat="44.472336521838976" lon="8.052774315392139"><ele>577.5</ele><time>2026-04-05T13:31:15.999Z</time></trkpt><trkpt lat="44.472423340530405" lon="8.052633028881143"><ele>577.25</ele><time>2026-04-05T13:31:16.999Z</time></trkpt><trkpt lat="44.47250426759544" lon="8.052503282298623"><ele>577.0</ele><time>2026-04-05T13:31:17.999Z</time></trkpt><trkpt lat="44.47257610756439" lon="8.052402343242061"><ele>577.0</ele><time>2026-04-05T13:31:18.999Z</time></trkpt><trkpt lat="44.47264401439564" lon="8.052342301611226"><ele>577.0</ele><time>2026-04-05T13:31:19.999Z</time></trkpt><trkpt lat="44.472724304325965" lon="8.052313550569462"><ele>577.0</ele><time>2026-04-05T13:31:20.999Z</time></trkpt><trkpt lat="44.472788071204626" lon="8.052320600375502"><ele>577.0</ele><time>2026-04-05T13:31:21.999Z</time></trkpt><trkpt lat="44.47284926203596" lon="8.052394426653343"><ele>577.0</ele><time>2026-04-05T13:31:22.999Z</time></trkpt><trkpt lat="44.472933320154766" lon="8.052474007708419"><ele>577.0</ele><time>2026-04-05T13:31:23.999Z</time></trkpt><trkpt lat="44.47301589842848" lon="8.052588331541596"><ele>577.6666666666667</ele><time>2026-04-05T13:31:24.999Z</time></trkpt><trkpt lat="44.47312100719605" lon="8.052722001874223"><ele>578.3333333333334</ele><time>2026-04-05T13:31:25.999Z</time></trkpt><trkpt lat="44.47322682334171" lon="8.052867118632383"><ele>579.0</ele><time>2026-04-05T13:31:26.999Z</time></trkpt><trkpt lat="44.47334105145134" lon="8.053031740059403"><ele>579.0</ele><time>2026-04-05T13:31:27.999Z</time></trkpt><trkpt lat="44.473470764516534" lon="8.053169827880518"><ele>579.0</ele><time>2026-04-05T13:31:28.999Z</time></trkpt><trkpt lat="44.473613847848185" lon="8.053319967072056"><ele>579.0</ele><time>2026-04-05T13:31:29.999Z</time></trkpt><trkpt lat="44.473753579666855" lon="8.053466334733205"><ele>579.3333333333334</ele><time>2026-04-05T13:31:30.999Z</time></trkpt><trkpt lat="44.47389146830908" lon="8.05361622385412"><ele>579.6666666666667</ele><time>2026-04-05T13:31:31.999Z</time></trkpt><trkpt lat="44.47401862545364" lon="8.053755004364465"><ele>580.0</ele><time>2026-04-05T13:31:32.999Z</time></trkpt><trkpt lat="44.47413438380425" lon="8.053882292653189"><ele>580.0</ele><time>2026-04-05T13:31:33.999Z</time></trkpt><trkpt lat="44.47425887411977" lon="8.05398713927614"><ele>580.0</ele><time>2026-04-05T13:31:34.999Z</time></trkpt><trkpt lat="44.47436971848191" lon="8.054111181491294"><ele>580.0</ele><time>2026-04-05T13:31:35.999Z</time></trkpt><trkpt lat="44.47447690713347" lon="8.054224792973114"><ele>580.0</ele><time>2026-04-05T13:31:36.999Z</time></trkpt><trkpt lat="44.47458949442848" lon="8.054332935763638"><ele>580.0</ele><time>2026-04-05T13:31:37.999Z</time></trkpt><trkpt lat="44.47469075118032" lon="8.054449839386749"><ele>580.0</ele><time>2026-04-05T13:31:38.999Z</time></trkpt><trkpt lat="44.47481223032798" lon="8.054575364966972"><ele>580.0</ele><time>2026-04-05T13:31:39.999Z</time></trkpt><trkpt lat="44.47490853602651" lon="8.05473351120214"><ele>580.0</ele><time>2026-04-05T13:31:40.998Z</time></trkpt><trkpt lat="44.475031430947716" lon="8.054883407451346"><ele>583.3333333333334</ele><time>2026-04-05T13:31:41.998Z</time></trkpt><trkpt lat="44.475138116412715" lon="8.05505478936859"><ele>586.6666666666666</ele><time>2026-04-05T13:31:42.998Z</time></trkpt><trkpt lat="44.47523943879423" lon="8.055208321623809"><ele>590.0</ele><time>2026-04-05T13:31:43.998Z</time></trkpt><trkpt lat="44.475337268682914" lon="8.055352975594793"><ele>588.0</ele><time>2026-04-05T13:31:44.998Z</time></trkpt><trkpt lat="44.47544839738715" lon="8.05547963076072"><ele>586.0</ele><time>2026-04-05T13:31:45.998Z</time></trkpt><trkpt lat="44.475570832898065" lon="8.055593099436289"><ele>584.0</ele><time>2026-04-05T13:31:46.998Z</time></trkpt><trkpt lat="44.47569062128091" lon="8.055718717097117"><ele>582.0</ele><time>2026-04-05T13:31:47.998Z</time></trkpt><trkpt lat="44.47581496536929" lon="8.055845674128774"><ele>582.0</ele><time>2026-04-05T13:31:48.998Z</time></trkpt><trkpt lat="44.475933728409395" lon="8.05595807493177"><ele>582.0</ele><time>2026-04-05T13:31:49.998Z</time></trkpt><trkpt lat="44.476040949192566" lon="8.056091071652315"><ele>582.0</ele><time>2026-04-05T13:31:50.998Z</time></trkpt><trkpt lat="44.47614104469025" lon="8.056200774582454"><ele>582.0</ele><time>2026-04-05T13:31:51.998Z</time></trkpt><trkpt lat="44.4762368430803" lon="8.056322003388658"><ele>581.5</ele><time>2026-04-05T13:31:52.998Z</time></trkpt><trkpt lat="44.476330645354835" lon="8.056440706760005"><ele>581.0</ele><time>2026-04-05T13:31:53.998Z</time></trkpt><trkpt lat="44.47645816450373" lon="8.0565171692092"><ele>580.5</ele><time>2026-04-05T13:31:54.998Z</time></trkpt><trkpt lat="44.476601215925236" lon="8.056591426911616"><ele>580.0</ele><time>2026-04-05T13:31:55.998Z</time></trkpt><trkpt lat="44.476748746599924" lon="8.05664690776766"><ele>580.0</ele><time>2026-04-05T13:31:56.998Z</time></trkpt><trkpt lat="44.47688769102731" lon="8.056750030531767"><ele>580.0</ele><time>2026-04-05T13:31:57.998Z</time></trkpt><trkpt lat="44.477027499247875" lon="8.056848456932887"><ele>580.0</ele><time>2026-04-05T13:31:58.998Z</time></trkpt><trkpt lat="44.47716042195038" lon="8.056943677325252"><ele>579.0</ele><time>2026-04-05T13:31:59.998Z</time></trkpt><trkpt lat="44.47729142650388" lon="8.057021878693664"><ele>578.0</ele><time>2026-04-05T13:32:00.998Z</time></trkpt><trkpt lat="44.47740075007098" lon="8.057122327870664"><ele>577.0</ele><time>2026-04-05T13:32:01.998Z</time></trkpt><trkpt lat="44.47750406658267" lon="8.057217653229817"><ele>576.0</ele><time>2026-04-05T13:32:02.998Z</time></trkpt><trkpt lat="44.47759700452751" lon="8.057296952878882"><ele>576.0</ele><time>2026-04-05T13:32:03.998Z</time></trkpt><trkpt lat="44.477683840125984" lon="8.057363470226235"><ele>576.0</ele><time>2026-04-05T13:32:04.998Z</time></trkpt><trkpt lat="44.477769123441675" lon="8.057399519571215"><ele>576.0</ele><time>2026-04-05T13:32:06Z</time></trkpt><trkpt lat="44.477880041081036" lon="8.057402180582814"><ele>576.0</ele><time>2026-04-05T13:32:07Z</time></trkpt><trkpt lat="44.47800018888322" lon="8.057359799301356"><ele>576.0</ele><time>2026-04-05T13:32:08Z</time></trkpt><trkpt lat="44.47812188787798" lon="8.057280692265305"><ele>574.3333333333334</ele><time>2026-04-05T13:32:09Z</time></trkpt><trkpt lat="44.478263815162364" lon="8.057270234257878"><ele>572.6666666666667</ele><time>2026-04-05T13:32:10Z</time></trkpt><trkpt lat="44.47841326254354" lon="8.057266959781808"><ele>571.0</ele><time>2026-04-05T13:32:11Z</time></trkpt><trkpt lat="44.47857384266334" lon="8.057281857784394"><ele>571.0</ele><time>2026-04-05T13:32:12Z</time></trkpt><trkpt lat="44.4787303726594" lon="8.05729871995558"><ele>571.0</ele><time>2026-04-05T13:32:13Z</time></trkpt><trkpt lat="44.47886943536703" lon="8.057309965100343"><ele>571.0</ele><time>2026-04-05T13:32:14Z</time></trkpt><trkpt lat="44.478994812643634" lon="8.057322110235278"><ele>571.0</ele><time>2026-04-05T13:32:15Z</time></trkpt><trkpt lat="44.479111947176875" lon="8.057321274125531"><ele>570.75</ele><time>2026-04-05T13:32:16Z</time></trkpt><trkpt lat="44.47921241055099" lon="8.057385501878466"><ele>570.5</ele><time>2026-04-05T13:32:17Z</time></trkpt><trkpt lat="44.479309083455576" lon="8.057427306021005"><ele>570.25</ele><time>2026-04-05T13:32:18Z</time></trkpt><trkpt lat="44.47937078317149" lon="8.057568269544442"><ele>570.0</ele><time>2026-04-05T13:32:19Z</time></trkpt><trkpt lat="44.47946461932139" lon="8.057693787178337"><ele>570.0</ele><time>2026-04-05T13:32:20Z</time></trkpt><trkpt lat="44.47956263856693" lon="8.057809279644326"><ele>570.0</ele><time>2026-04-05T13:32:21Z</time></trkpt><trkpt lat="44.47964721870486" lon="8.057908547194621"><ele>570.0</ele><time>2026-04-05T13:32:22Z</time></trkpt><trkpt lat="44.479726763138615" lon="8.057989923912036"><ele>570.0</ele><time>2026-04-05T13:32:23Z</time></trkpt><trkpt lat="44.47981801781121" lon="8.058057313341052"><ele>570.0</ele><time>2026-04-05T13:32:24Z</time></trkpt><trkpt lat="44.479925935954384" lon="8.058097815107132"><ele>570.25</ele><time>2026-04-05T13:32:25Z</time></trkpt><trkpt lat="44.48005514947421" lon="8.0581134491058"><ele>570.5</ele><time>2026-04-05T13:32:26Z</time></trkpt><trkpt lat="44.480195662771166" lon="8.058087952974272"><ele>570.75</ele><time>2026-04-05T13:32:27Z</time></trkpt><trkpt lat="44.48033388388143" lon="8.05803723873167"><ele>571.0</ele><time>2026-04-05T13:32:28Z</time></trkpt><trkpt lat="44.480476739454545" lon="8.057958307960138"><ele>571.3333333333334</ele><time>2026-04-05T13:32:29Z</time></trkpt><trkpt lat="44.480625483414066" lon="8.057870262782975"><ele>571.6666666666666</ele><time>2026-04-05T13:32:30Z</time></trkpt><trkpt lat="44.48078454016479" lon="8.057822028125697"><ele>572.0</ele><time>2026-04-05T13:32:31Z</time></trkpt><trkpt lat="44.48093926873337" lon="8.057784016752487"><ele>572.0</ele><time>2026-04-05T13:32:32Z</time></trkpt><trkpt lat="44.48109049730945" lon="8.057735867253113"><ele>572.0</ele><time>2026-04-05T13:32:33Z</time></trkpt><trkpt lat="44.481230843329634" lon="8.057704981845275"><ele>572.0</ele><time>2026-04-05T13:32:34Z</time></trkpt><trkpt lat="44.48136223560335" lon="8.057672239401489"><ele>572.0</ele><time>2026-04-05T13:32:35Z</time></trkpt><trkpt lat="44.48148151734287" lon="8.057629984873918"><ele>571.75</ele><time>2026-04-05T13:32:36Z</time></trkpt><trkpt lat="44.48159556650454" lon="8.057563864208184"><ele>571.5</ele><time>2026-04-05T13:32:37Z</time></trkpt><trkpt lat="44.48171358647539" lon="8.057471991825343"><ele>571.25</ele><time>2026-04-05T13:32:38Z</time></trkpt><trkpt lat="44.48182922236223" lon="8.05734434421428"><ele>571.0</ele><time>2026-04-05T13:32:39Z</time></trkpt><trkpt lat="44.48194453717505" lon="8.05720109423975"><ele>571.0</ele><time>2026-04-05T13:32:40Z</time></trkpt><trkpt lat="44.4820624090324" lon="8.057068308310846"><ele>571.0</ele><time>2026-04-05T13:32:41Z</time></trkpt><trkpt lat="44.482165789621774" lon="8.056942009905068"><ele>571.0</ele><time>2026-04-05T13:32:42Z</time></trkpt><trkpt lat="44.48227556213654" lon="8.056830061729455"><ele>571.0</ele><time>2026-04-05T13:32:43Z</time></trkpt><trkpt lat="44.48237799070908" lon="8.056727299871092"><ele>571.0</ele><time>2026-04-05T13:32:44Z</time></trkpt><trkpt lat="44.48248817720235" lon="8.05664356257888"><ele>571.0</ele><time>2026-04-05T13:32:45Z</time></trkpt><trkpt lat="44.48261318697343" lon="8.056624954417556"><ele>571.0</ele><time>2026-04-05T13:32:46Z</time></trkpt><trkpt lat="44.48274633694539" lon="8.056611975185685"><ele>571.0</ele><time>2026-04-05T13:32:47Z</time></trkpt><trkpt lat="44.48288451581741" lon="8.05662137828086"><ele>570.0</ele><time>2026-04-05T13:32:48Z</time></trkpt><trkpt lat="44.483009987261376" lon="8.056650716273435"><ele>569.0</ele><time>2026-04-05T13:32:48.999Z</time></trkpt><trkpt lat="44.483144652348265" lon="8.0566941420729"><ele>568.0</ele><time>2026-04-05T13:32:49.999Z</time></trkpt><trkpt lat="44.48328316717903" lon="8.056754944008103"><ele>567.0</ele><time>2026-04-05T13:32:50.999Z</time></trkpt><trkpt lat="44.483414386282135" lon="8.05681805392239"><ele>567.0</ele><time>2026-04-05T13:32:51.999Z</time></trkpt><trkpt lat="44.48354025325423" lon="8.056883917601857"><ele>567.0</ele><time>2026-04-05T13:32:52.999Z</time></trkpt><trkpt lat="44.48367771456744" lon="8.056931141692907"><ele>567.0</ele><time>2026-04-05T13:32:53.999Z</time></trkpt><trkpt lat="44.483819959392626" lon="8.057020187390552"><ele>567.0</ele><time>2026-04-05T13:32:54.999Z</time></trkpt><trkpt lat="44.4839710937921" lon="8.057062916138534"><ele>566.75</ele><time>2026-04-05T13:32:55.999Z</time></trkpt><trkpt lat="44.484100958374135" lon="8.057140995963678"><ele>566.5</ele><time>2026-04-05T13:32:56.999Z</time></trkpt><trkpt lat="44.48423006763071" lon="8.057198818186095"><ele>566.25</ele><time>2026-04-05T13:32:57.999Z</time></trkpt><trkpt lat="44.48435483336078" lon="8.057247050913054"><ele>566.0</ele><time>2026-04-05T13:32:58.999Z</time></trkpt><trkpt lat="44.48447271671549" lon="8.057259605047669"><ele>566.0</ele><time>2026-04-05T13:32:59.999Z</time></trkpt><trkpt lat="44.4845909465125" lon="8.057274322489352"><ele>566.0</ele><time>2026-04-05T13:33:00.999Z</time></trkpt><trkpt lat="44.48472177681836" lon="8.05724284046135"><ele>566.0</ele><time>2026-04-05T13:33:01.999Z</time></trkpt><trkpt lat="44.48484039443115" lon="8.057170345870196"><ele>566.0</ele><time>2026-04-05T13:33:02.999Z</time></trkpt><trkpt lat="44.48494215799352" lon="8.057081595087025"><ele>566.0</ele><time>2026-04-05T13:33:03.999Z</time></trkpt><trkpt lat="44.48505269187027" lon="8.057001742516922"><ele>566.0</ele><time>2026-04-05T13:33:04.999Z</time></trkpt><trkpt lat="44.48516480422773" lon="8.05689696746165"><ele>566.0</ele><time>2026-04-05T13:33:05.999Z</time></trkpt><trkpt lat="44.485288944201926" lon="8.05679030286361"><ele>566.0</ele><time>2026-04-05T13:33:06.999Z</time></trkpt><trkpt lat="44.4854206567589" lon="8.056687621095213"><ele>566.0</ele><time>2026-04-05T13:33:07.999Z</time></trkpt><trkpt lat="44.48555775671077" lon="8.056592396632844"><ele>566.0</ele><time>2026-04-05T13:33:08.999Z</time></trkpt><trkpt lat="44.48568347512025" lon="8.056519241969568"><ele>566.0</ele><time>2026-04-05T13:33:09.999Z</time></trkpt><trkpt lat="44.485816156100505" lon="8.056487542420282"><ele>566.0</ele><time>2026-04-05T13:33:10.999Z</time></trkpt><trkpt lat="44.48595037560418" lon="8.056443011304882"><ele>566.0</ele><time>2026-04-05T13:33:11.999Z</time></trkpt><trkpt lat="44.48608304580534" lon="8.056378857763276"><ele>566.0</ele><time>2026-04-05T13:33:12.999Z</time></trkpt><trkpt lat="44.48621291735405" lon="8.056339639631547"><ele>566.0</ele><time>2026-04-05T13:33:13.999Z</time></trkpt><trkpt lat="44.486331302288896" lon="8.056287847965669"><ele>566.0</ele><time>2026-04-05T13:33:14.999Z</time></trkpt><trkpt lat="44.486442973675196" lon="8.056246483704422"><ele>566.4</ele><time>2026-04-05T13:33:15.999Z</time></trkpt><trkpt lat="44.48653635957689" lon="8.056154622348924"><ele>566.8</ele><time>2026-04-05T13:33:16.999Z</time></trkpt><trkpt lat="44.48662049454607" lon="8.056062252303315"><ele>567.1999999999999</ele><time>2026-04-05T13:33:17.999Z</time></trkpt><trkpt lat="44.4866972988835" lon="8.055954140152156"><ele>567.6</ele><time>2026-04-05T13:33:18.999Z</time></trkpt><trkpt lat="44.48677282328182" lon="8.055838391295426"><ele>568.0</ele><time>2026-04-05T13:33:19.999Z</time></trkpt><trkpt lat="44.4868493676411" lon="8.055756320833094"><ele>567.5</ele><time>2026-04-05T13:33:20.999Z</time></trkpt><trkpt lat="44.48692179738533" lon="8.055690444435713"><ele>567.0</ele><time>2026-04-05T13:33:21.999Z</time></trkpt><trkpt lat="44.48698528323481" lon="8.055619547790041"><ele>566.5</ele><time>2026-04-05T13:33:22.999Z</time></trkpt><trkpt lat="44.48704077064821" lon="8.055522131480084"><ele>566.0</ele><time>2026-04-05T13:33:23.999Z</time></trkpt><trkpt lat="44.487099457720106" lon="8.055420651490117"><ele>565.5</ele><time>2026-04-05T13:33:24.999Z</time></trkpt><trkpt lat="44.48716052617899" lon="8.0553418089482"><ele>565.0</ele><time>2026-04-05T13:33:25.999Z</time></trkpt><trkpt lat="44.48721476620306" lon="8.055268294061975"><ele>565.0</ele><time>2026-04-05T13:33:26.999Z</time></trkpt><trkpt lat="44.48729024759703" lon="8.055174911059819"><ele>565.0</ele><time>2026-04-05T13:33:28.999Z</time></trkpt><trkpt lat="44.487354115955675" lon="8.055119183818869"><ele>565.0</ele><time>2026-04-05T13:33:32.999Z</time></trkpt><trkpt lat="44.48726408313759" lon="8.054916798134606"><ele>565.0</ele><time>2026-04-05T13:33:33.999Z</time></trkpt><trkpt lat="44.487214896737775" lon="8.05481817532239"><ele>565.0</ele><time>2026-04-05T13:33:34.999Z</time></trkpt><trkpt lat="44.48717317529856" lon="8.054730298696292"><ele>564.8333333333334</ele><time>2026-04-05T13:33:35.999Z</time></trkpt><trkpt lat="44.48711054185912" lon="8.054592259389999"><ele>564.6666666666667</ele><time>2026-04-05T13:33:37.999Z</time></trkpt><trkpt lat="44.48704337347844" lon="8.054443622611805"><ele>564.5</ele><time>2026-04-05T13:33:39.999Z</time></trkpt><trkpt lat="44.48701015925334" lon="8.05436152584901"><ele>564.3333333333334</ele><time>2026-04-05T13:33:40.999Z</time></trkpt><trkpt lat="44.48697457030039" lon="8.054285707184102"><ele>564.1666666666666</ele><time>2026-04-05T13:33:41.999Z</time></trkpt><trkpt lat="44.486938988946704" lon="8.054211020179153"><ele>564.0</ele><time>2026-04-05T13:33:42.999Z</time></trkpt><trkpt lat="44.486902793729236" lon="8.054135192827752"><ele>564.2857142857143</ele><time>2026-04-05T13:33:43.999Z</time></trkpt><trkpt lat="44.4868684786535" lon="8.05405874547539"><ele>564.5714285714286</ele><time>2026-04-05T13:33:44.999Z</time></trkpt><trkpt lat="44.48683575234127" lon="8.053980833148358"><ele>564.8571428571429</ele><time>2026-04-05T13:33:45.999Z</time></trkpt><trkpt lat="44.48680105379561" lon="8.053904242177785"><ele>565.1428571428571</ele><time>2026-04-05T13:33:46.999Z</time></trkpt><trkpt lat="44.486761013280955" lon="8.053824367598807"><ele>565.4285714285714</ele><time>2026-04-05T13:33:47.999Z</time></trkpt><trkpt lat="44.48672256833223" lon="8.05374493803969"><ele>565.7142857142858</ele><time>2026-04-05T13:33:48.999Z</time></trkpt><trkpt lat="44.48668407560024" lon="8.053659381862918"><ele>566.0</ele><time>2026-04-05T13:33:49.998Z</time></trkpt><trkpt lat="44.48664571228417" lon="8.053577937312827"><ele>566.0</ele><time>2026-04-05T13:33:50.998Z</time></trkpt><trkpt lat="44.48660693274497" lon="8.053488638090409"><ele>566.0</ele><time>2026-04-05T13:33:51.998Z</time></trkpt><trkpt lat="44.48656947948449" lon="8.053396893352724"><ele>566.0</ele><time>2026-04-05T13:33:52.998Z</time></trkpt><trkpt lat="44.486533014067206" lon="8.053304093077754"><ele>566.0</ele><time>2026-04-05T13:33:53.998Z</time></trkpt><trkpt lat="44.486492471404645" lon="8.053212570295166"><ele>566.0</ele><time>2026-04-05T13:33:54.998Z</time></trkpt><trkpt lat="44.486448039668254" lon="8.053121055505043"><ele>566.0</ele><time>2026-04-05T13:33:55.998Z</time></trkpt><trkpt lat="44.48640475516043" lon="8.05302873330267"><ele>566.6666666666666</ele><time>2026-04-05T13:33:56.998Z</time></trkpt><trkpt lat="44.48636363215869" lon="8.052932996635507"><ele>567.3333333333333</ele><time>2026-04-05T13:33:57.998Z</time></trkpt><trkpt lat="44.486320020054116" lon="8.052840651188045"><ele>568.0</ele><time>2026-04-05T13:33:58.998Z</time></trkpt><trkpt lat="44.486273923398315" lon="8.052751759705206"><ele>568.6666666666666</ele><time>2026-04-05T13:33:59.998Z</time></trkpt><trkpt lat="44.48623705475573" lon="8.05265430936822"><ele>569.3333333333334</ele><time>2026-04-05T13:34:00.998Z</time></trkpt><trkpt lat="44.48620435311845" lon="8.052551120491797"><ele>570.0</ele><time>2026-04-05T13:34:01.998Z</time></trkpt><trkpt lat="44.48618025139199" lon="8.052442941713245"><ele>572.6666666666666</ele><time>2026-04-05T13:34:02.998Z</time></trkpt><trkpt lat="44.486166282275434" lon="8.052328381969016"><ele>575.3333333333334</ele><time>2026-04-05T13:34:03.998Z</time></trkpt><trkpt lat="44.486164262126444" lon="8.052213668431653"><ele>578.0</ele><time>2026-04-05T13:34:04.998Z</time></trkpt><trkpt lat="44.48617684874536" lon="8.052095491465757"><ele>580.6666666666667</ele><time>2026-04-05T13:34:05.998Z</time></trkpt><trkpt lat="44.48620621085161" lon="8.051986917538215"><ele>583.3333333333334</ele><time>2026-04-05T13:34:06.998Z</time></trkpt><trkpt lat="44.48625368437997" lon="8.051893265826381"><ele>586.0</ele><time>2026-04-05T13:34:07.998Z</time></trkpt><trkpt lat="44.48631001041393" lon="8.051823394511363"><ele>586.0</ele><time>2026-04-05T13:34:08.998Z</time></trkpt><trkpt lat="44.48639968876601" lon="8.051764235888568"><ele>586.0</ele><time>2026-04-05T13:34:09.998Z</time></trkpt><trkpt lat="44.48646494058214" lon="8.051733895907226"><ele>586.0</ele><time>2026-04-05T13:34:10.998Z</time></trkpt><trkpt lat="44.486547200588134" lon="8.051708996482608"><ele>586.0</ele><time>2026-04-05T13:34:12Z</time></trkpt><trkpt lat="44.486629868927764" lon="8.051689466071092"><ele>586.0</ele><time>2026-04-05T13:34:13Z</time></trkpt><trkpt lat="44.48670780861962" lon="8.051661175928121"><ele>586.0</ele><time>2026-04-05T13:34:14Z</time></trkpt><trkpt lat="44.48679093074816" lon="8.051634054530313"><ele>587.3333333333334</ele><time>2026-04-05T13:34:15Z</time></trkpt><trkpt lat="44.48686804487345" lon="8.051577857791552"><ele>588.6666666666667</ele><time>2026-04-05T13:34:16Z</time></trkpt><trkpt lat="44.48694335677646" lon="8.051506078360962"><ele>590.0</ele><time>2026-04-05T13:34:17Z</time></trkpt><trkpt lat="44.487006593157254" lon="8.051422070340358"><ele>591.3333333333334</ele><time>2026-04-05T13:34:18Z</time></trkpt><trkpt lat="44.487061599192884" lon="8.051330697497576"><ele>592.6666666666666</ele><time>2026-04-05T13:34:19Z</time></trkpt><trkpt lat="44.48712378222373" lon="8.051248177063428"><ele>594.0</ele><time>2026-04-05T13:34:20Z</time></trkpt><trkpt lat="44.4871925673159" lon="8.051161652803518"><ele>594.0</ele><time>2026-04-05T13:34:21Z</time></trkpt><trkpt lat="44.48724720319165" lon="8.051068930915235"><ele>594.0</ele><time>2026-04-05T13:34:22Z</time></trkpt><trkpt lat="44.48731177669382" lon="8.050974381566865"><ele>594.0</ele><time>2026-04-05T13:34:23Z</time></trkpt><trkpt lat="44.48736991874153" lon="8.050884332004568"><ele>594.0</ele><time>2026-04-05T13:34:24Z</time></trkpt><trkpt lat="44.487453958542496" lon="8.050799030732856"><ele>594.0</ele><time>2026-04-05T13:34:25Z</time></trkpt><trkpt lat="44.48751566779015" lon="8.050711290921624"><ele>597.6</ele><time>2026-04-05T13:34:26Z</time></trkpt><trkpt lat="44.48758317584891" lon="8.050619774864911"><ele>601.2</ele><time>2026-04-05T13:34:27Z</time></trkpt><trkpt lat="44.48764023230729" lon="8.050518456346872"><ele>604.8000000000001</ele><time>2026-04-05T13:34:28Z</time></trkpt><trkpt lat="44.4876858891151" lon="8.050408355602002"><ele>608.4</ele><time>2026-04-05T13:34:29Z</time></trkpt><trkpt lat="44.48772258838639" lon="8.050291536749084"><ele>612.0</ele><time>2026-04-05T13:34:30Z</time></trkpt><trkpt lat="44.4877499963414" lon="8.050169672388217"><ele>612.0</ele><time>2026-04-05T13:34:31Z</time></trkpt><trkpt lat="44.48778488962849" lon="8.0500494069875"><ele>612.0</ele><time>2026-04-05T13:34:32Z</time></trkpt><trkpt lat="44.487815255765774" lon="8.049961877547702"><ele>612.0</ele><time>2026-04-05T13:34:33Z</time></trkpt><trkpt lat="44.487869568738795" lon="8.049897726009542"><ele>612.0</ele><time>2026-04-05T13:34:34Z</time></trkpt><trkpt lat="44.48795208565139" lon="8.049903263053798"><ele>612.0</ele><time>2026-04-05T13:34:35Z</time></trkpt><trkpt lat="44.48805674214331" lon="8.050008803621383"><ele>612.0</ele><time>2026-04-05T13:34:37Z</time></trkpt><trkpt lat="44.48811955420374" lon="8.05009569408065"><ele>611.6</ele><time>2026-04-05T13:34:38Z</time></trkpt><trkpt lat="44.488172523177695" lon="8.050198562334375"><ele>611.2</ele><time>2026-04-05T13:34:39Z</time></trkpt><trkpt lat="44.48823254523355" lon="8.050304698431779"><ele>610.8</ele><time>2026-04-05T13:34:40Z</time></trkpt><trkpt lat="44.488304476931106" lon="8.050406883588417"><ele>610.4</ele><time>2026-04-05T13:34:41Z</time></trkpt><trkpt lat="44.488368086670185" lon="8.050498679586093"><ele>610.0</ele><time>2026-04-05T13:34:42Z</time></trkpt><trkpt lat="44.48844358556586" lon="8.050536428913786"><ele>610.0</ele><time>2026-04-05T13:34:43Z</time></trkpt><trkpt lat="44.488548432875376" lon="8.050498098298407"><ele>610.0</ele><time>2026-04-05T13:34:44Z</time></trkpt><trkpt lat="44.488636240010415" lon="8.05043558606345"><ele>610.0</ele><time>2026-04-05T13:34:45Z</time></trkpt><trkpt lat="44.48873416782018" lon="8.050363771046992"><ele>610.0</ele><time>2026-04-05T13:34:46Z</time></trkpt><trkpt lat="44.4888606513625" lon="8.050343705258472"><ele>610.0</ele><time>2026-04-05T13:34:47Z</time></trkpt><trkpt lat="44.48900623122556" lon="8.050332854096391"><ele>612.25</ele><time>2026-04-05T13:34:48Z</time></trkpt><trkpt lat="44.48916542803906" lon="8.050304175306815"><ele>614.5</ele><time>2026-04-05T13:34:49Z</time></trkpt><trkpt lat="44.48931619516487" lon="8.050299147952915"><ele>616.75</ele><time>2026-04-05T13:34:50Z</time></trkpt><trkpt lat="44.48944340056336" lon="8.05027718462606"><ele>619.0</ele><time>2026-04-05T13:34:51Z</time></trkpt><trkpt lat="44.48954471380769" lon="8.050235149691526"><ele>618.25</ele><time>2026-04-05T13:34:52Z</time></trkpt><trkpt lat="44.48964053710026" lon="8.05016310896651"><ele>617.5</ele><time>2026-04-05T13:34:53Z</time></trkpt><trkpt lat="44.48972970634264" lon="8.050066525027237"><ele>616.75</ele><time>2026-04-05T13:34:54Z</time></trkpt><trkpt lat="44.48981656120097" lon="8.049939171568319"><ele>616.0</ele><time>2026-04-05T13:34:55Z</time></trkpt><trkpt lat="44.48993085827845" lon="8.049880516556492"><ele>622.25</ele><time>2026-04-05T13:34:56Z</time></trkpt><trkpt lat="44.49006767319193" lon="8.049866733667118"><ele>628.5</ele><time>2026-04-05T13:34:57Z</time></trkpt><trkpt lat="44.49020412906601" lon="8.049861099560196"><ele>634.75</ele><time>2026-04-05T13:34:58Z</time></trkpt><trkpt lat="44.490353017482434" lon="8.049854843743903"><ele>641.0</ele><time>2026-04-05T13:34:58.999Z</time></trkpt><trkpt lat="44.490496947707044" lon="8.049845999273597"><ele>641.0</ele><time>2026-04-05T13:34:59.999Z</time></trkpt><trkpt lat="44.490640946707586" lon="8.049836592782475"><ele>641.0</ele><time>2026-04-05T13:35:00.999Z</time></trkpt><trkpt lat="44.49077447596287" lon="8.04982787021032"><ele>641.0</ele><time>2026-04-05T13:35:01.999Z</time></trkpt><trkpt lat="44.490879941460506" lon="8.049802234135182"><ele>641.0</ele><time>2026-04-05T13:35:02.999Z</time></trkpt><trkpt lat="44.490969864507335" lon="8.049779680750499"><ele>641.0</ele><time>2026-04-05T13:35:03.999Z</time></trkpt><trkpt lat="44.49103710876708" lon="8.049715144197629"><ele>641.0</ele><time>2026-04-05T13:35:04.999Z</time></trkpt><trkpt lat="44.49110859821358" lon="8.049611510072886"><ele>641.0</ele><time>2026-04-05T13:35:05.999Z</time></trkpt><trkpt lat="44.4911646725851" lon="8.049476768296847"><ele>641.0</ele><time>2026-04-05T13:35:06.999Z</time></trkpt><trkpt lat="44.49120079335554" lon="8.049319027562351"><ele>641.0</ele><time>2026-04-05T13:35:07.999Z</time></trkpt><trkpt lat="44.49126912279425" lon="8.049192892580539"><ele>642.4</ele><time>2026-04-05T13:35:08.999Z</time></trkpt><trkpt lat="44.49132769260014" lon="8.049100926951535"><ele>643.8</ele><time>2026-04-05T13:35:09.999Z</time></trkpt><trkpt lat="44.491401143554384" lon="8.049043600113416"><ele>645.1999999999999</ele><time>2026-04-05T13:35:10.999Z</time></trkpt><trkpt lat="44.49149730370488" lon="8.048958232352534"><ele>646.5999999999999</ele><time>2026-04-05T13:35:11.999Z</time></trkpt><trkpt lat="44.491617953255584" lon="8.048891919008604"><ele>648.0</ele><time>2026-04-05T13:35:12.999Z</time></trkpt><trkpt lat="44.49174768245089" lon="8.04880010591002"><ele>648.0</ele><time>2026-04-05T13:35:13.999Z</time></trkpt><trkpt lat="44.49185468795402" lon="8.048694322668453"><ele>648.0</ele><time>2026-04-05T13:35:14.999Z</time></trkpt><trkpt lat="44.49195595820482" lon="8.04859169936739"><ele>648.0</ele><time>2026-04-05T13:35:15.999Z</time></trkpt><trkpt lat="44.49205324386287" lon="8.048477488014196"><ele>648.0</ele><time>2026-04-05T13:35:16.999Z</time></trkpt><trkpt lat="44.49213989925728" lon="8.048345469313066"><ele>646.25</ele><time>2026-04-05T13:35:17.999Z</time></trkpt><trkpt lat="44.4922205388204" lon="8.04821344760248"><ele>644.5</ele><time>2026-04-05T13:35:18.999Z</time></trkpt><trkpt lat="44.492285538363454" lon="8.048065974460254"><ele>642.75</ele><time>2026-04-05T13:35:19.999Z</time></trkpt><trkpt lat="44.49233905254737" lon="8.047901442886264"><ele>641.0</ele><time>2026-04-05T13:35:20.999Z</time></trkpt><trkpt lat="44.49238881739803" lon="8.047709563627716"><ele>641.0</ele><time>2026-04-05T13:35:21.999Z</time></trkpt><trkpt lat="44.492418327787895" lon="8.047515379299728"><ele>641.0</ele><time>2026-04-05T13:35:22.999Z</time></trkpt><trkpt lat="44.49245260363688" lon="8.047323179546844"><ele>641.0</ele><time>2026-04-05T13:35:23.999Z</time></trkpt><trkpt lat="44.492485928379566" lon="8.047156497762902"><ele>641.0</ele><time>2026-04-05T13:35:24.999Z</time></trkpt><trkpt lat="44.492523603969765" lon="8.04702247859377"><ele>643.1666666666666</ele><time>2026-04-05T13:35:25.999Z</time></trkpt><trkpt lat="44.492549490645935" lon="8.046910309138612"><ele>645.3333333333333</ele><time>2026-04-05T13:35:26.999Z</time></trkpt><trkpt lat="44.49254961800326" lon="8.04681451853319"><ele>647.5</ele><time>2026-04-05T13:35:27.999Z</time></trkpt><trkpt lat="44.492498642856525" lon="8.046737204910295"><ele>649.6666666666666</ele><time>2026-04-05T13:35:28.999Z</time></trkpt><trkpt lat="44.492418887375436" lon="8.04671082087538"><ele>651.8333333333334</ele><time>2026-04-05T13:35:29.999Z</time></trkpt><trkpt lat="44.49234525413494" lon="8.04674048506257"><ele>654.0</ele><time>2026-04-05T13:35:30.999Z</time></trkpt><trkpt lat="44.49230248180821" lon="8.046867969650348"><ele>654.0</ele><time>2026-04-05T13:35:31.999Z</time></trkpt><trkpt lat="44.49228042428119" lon="8.046994119232245"><ele>654.0</ele><time>2026-04-05T13:35:32.999Z</time></trkpt><trkpt lat="44.49226777422407" lon="8.047139454318025"><ele>654.0</ele><time>2026-04-05T13:35:33.999Z</time></trkpt><trkpt lat="44.49222972296768" lon="8.047299058265024"><ele>654.0</ele><time>2026-04-05T13:35:34.999Z</time></trkpt><trkpt lat="44.492169870587375" lon="8.047452513608523"><ele>654.0</ele><time>2026-04-05T13:35:35.999Z</time></trkpt><trkpt lat="44.49209712103811" lon="8.047597163309135"><ele>658.5</ele><time>2026-04-05T13:35:36.999Z</time></trkpt><trkpt lat="44.49201722411751" lon="8.047731525699897"><ele>663.0</ele><time>2026-04-05T13:35:37.999Z</time></trkpt><trkpt lat="44.49193745244885" lon="8.04785555302946"><ele>667.5</ele><time>2026-04-05T13:35:38.999Z</time></trkpt><trkpt lat="44.49185196370467" lon="8.047972947631767"><ele>672.0</ele><time>2026-04-05T13:35:39.999Z</time></trkpt><trkpt lat="44.49175628232745" lon="8.048069030615576"><ele>672.0</ele><time>2026-04-05T13:35:40.999Z</time></trkpt><trkpt lat="44.49165370877673" lon="8.04811857725632"><ele>672.0</ele><time>2026-04-05T13:35:41.999Z</time></trkpt><trkpt lat="44.4915513081838" lon="8.048138018310564"><ele>672.0</ele><time>2026-04-05T13:35:42.999Z</time></trkpt><trkpt lat="44.491438917874014" lon="8.048097216964422"><ele>672.0</ele><time>2026-04-05T13:35:43.999Z</time></trkpt><trkpt lat="44.4913255495187" lon="8.048038626339784"><ele>672.0</ele><time>2026-04-05T13:35:44.999Z</time></trkpt><trkpt lat="44.491206466398346" lon="8.047982248370097"><ele>675.75</ele><time>2026-04-05T13:35:45.999Z</time></trkpt><trkpt lat="44.49111112962115" lon="8.047964957923808"><ele>679.5</ele><time>2026-04-05T13:35:46.999Z</time></trkpt><trkpt lat="44.49101447624677" lon="8.048024490346938"><ele>683.25</ele><time>2026-04-05T13:35:47.999Z</time></trkpt><trkpt lat="44.490917730948354" lon="8.048134600698416"><ele>687.0</ele><time>2026-04-05T13:35:48.999Z</time></trkpt><trkpt lat="44.490833340488855" lon="8.048279713202724"><ele>681.25</ele><time>2026-04-05T13:35:49.999Z</time></trkpt><trkpt lat="44.49075683323055" lon="8.048437565366434"><ele>675.5</ele><time>2026-04-05T13:35:50.999Z</time></trkpt><trkpt lat="44.490678349647936" lon="8.048556780026553"><ele>669.75</ele><time>2026-04-05T13:35:51.999Z</time></trkpt><trkpt lat="44.490601789552095" lon="8.04864463422046"><ele>664.0</ele><time>2026-04-05T13:35:52.999Z</time></trkpt><trkpt lat="44.490509747604335" lon="8.048699168455823"><ele>666.0</ele><time>2026-04-05T13:35:53.999Z</time></trkpt><trkpt lat="44.49040874708805" lon="8.048710454029987"><ele>668.0</ele><time>2026-04-05T13:35:54.999Z</time></trkpt><trkpt lat="44.4903046766374" lon="8.048653283645613"><ele>670.0</ele><time>2026-04-05T13:35:55.999Z</time></trkpt><trkpt lat="44.49020149948299" lon="8.048556205386792"><ele>672.0</ele><time>2026-04-05T13:35:56.999Z</time></trkpt><trkpt lat="44.49009967966543" lon="8.048436654415958"><ele>672.0</ele><time>2026-04-05T13:35:57.999Z</time></trkpt><trkpt lat="44.48998830511005" lon="8.048324638330634"><ele>672.0</ele><time>2026-04-05T13:35:58.999Z</time></trkpt><trkpt lat="44.489867385590486" lon="8.048251635688848"><ele>672.0</ele><time>2026-04-05T13:35:59.998Z</time></trkpt><trkpt lat="44.4897456050999" lon="8.048220551729022"><ele>672.0</ele><time>2026-04-05T13:36:00.998Z</time></trkpt><trkpt lat="44.48961466381967" lon="8.048223580173206"><ele>673.5</ele><time>2026-04-05T13:36:01.998Z</time></trkpt><trkpt lat="44.489479801962254" lon="8.048271995450717"><ele>675.0</ele><time>2026-04-05T13:36:02.998Z</time></trkpt><trkpt lat="44.48934804660425" lon="8.048346529863009"><ele>676.5</ele><time>2026-04-05T13:36:03.998Z</time></trkpt><trkpt lat="44.48924190236909" lon="8.048439097650782"><ele>678.0</ele><time>2026-04-05T13:36:04.998Z</time></trkpt><trkpt lat="44.489156286996284" lon="8.048513232345242"><ele>678.0</ele><time>2026-04-05T13:36:05.998Z</time></trkpt><trkpt lat="44.48907452859926" lon="8.04856379453071"><ele>678.0</ele><time>2026-04-05T13:36:06.998Z</time></trkpt><trkpt lat="44.48899393738146" lon="8.048568618085842"><ele>678.0</ele><time>2026-04-05T13:36:07.998Z</time></trkpt><trkpt lat="44.4889070483869" lon="8.04852357605322"><ele>678.0</ele><time>2026-04-05T13:36:08.998Z</time></trkpt><trkpt lat="44.488843603642536" lon="8.048414799750104"><ele>678.0</ele><time>2026-04-05T13:36:09.998Z</time></trkpt><trkpt lat="44.488805951920355" lon="8.048258381164448"><ele>679.25</ele><time>2026-04-05T13:36:10.998Z</time></trkpt><trkpt lat="44.488772823380195" lon="8.04808492456489"><ele>680.5</ele><time>2026-04-05T13:36:11.998Z</time></trkpt><trkpt lat="44.48872356051405" lon="8.04790910313599"><ele>681.75</ele><time>2026-04-05T13:36:12.998Z</time></trkpt><trkpt lat="44.48866389500233" lon="8.047756470891526"><ele>683.0</ele><time>2026-04-05T13:36:13.998Z</time></trkpt><trkpt lat="44.4886052609163" lon="8.047640825711333"><ele>683.0</ele><time>2026-04-05T13:36:14.998Z</time></trkpt><trkpt lat="44.48855306493703" lon="8.047558042166715"><ele>683.0</ele><time>2026-04-05T13:36:15.998Z</time></trkpt><trkpt lat="44.48852878396698" lon="8.047466803368927"><ele>683.0</ele><time>2026-04-05T13:36:16.998Z</time></trkpt><trkpt lat="44.488550922437305" lon="8.04738363879556"><ele>683.0</ele><time>2026-04-05T13:36:18Z</time></trkpt><trkpt lat="44.48861062444304" lon="8.047327543470088"><ele>683.0</ele><time>2026-04-05T13:36:19Z</time></trkpt><trkpt lat="44.48868159937009" lon="8.04733470644575"><ele>683.0</ele><time>2026-04-05T13:36:20Z</time></trkpt><trkpt lat="44.48873424295212" lon="8.04745020427205"><ele>687.0</ele><time>2026-04-05T13:36:21Z</time></trkpt><trkpt lat="44.488780626640235" lon="8.047569433954676"><ele>691.0</ele><time>2026-04-05T13:36:22Z</time></trkpt><trkpt lat="44.48885434462401" lon="8.047693475089797"><ele>695.0</ele><time>2026-04-05T13:36:23Z</time></trkpt><trkpt lat="44.48891594596173" lon="8.04782532729475"><ele>699.0</ele><time>2026-04-05T13:36:24Z</time></trkpt><trkpt lat="44.48898277810741" lon="8.047922010039585"><ele>703.0</ele><time>2026-04-05T13:36:25Z</time></trkpt><trkpt lat="44.48905397103438" lon="8.047965146580818"><ele>703.0</ele><time>2026-04-05T13:36:26Z</time></trkpt><trkpt lat="44.48912919632122" lon="8.047967425291116"><ele>703.0</ele><time>2026-04-05T13:36:27Z</time></trkpt><trkpt lat="44.48922747407129" lon="8.047904495545119"><ele>703.0</ele><time>2026-04-05T13:36:28Z</time></trkpt><trkpt lat="44.48931859994758" lon="8.047792389372608"><ele>703.0</ele><time>2026-04-05T13:36:29Z</time></trkpt><trkpt lat="44.48942788033989" lon="8.04774579617382"><ele>703.0</ele><time>2026-04-05T13:36:30Z</time></trkpt><trkpt lat="44.489538389521414" lon="8.047714421266145"><ele>702.5</ele><time>2026-04-05T13:36:31Z</time></trkpt><trkpt lat="44.48964976723105" lon="8.047715619640977"><ele>702.0</ele><time>2026-04-05T13:36:32Z</time></trkpt><trkpt lat="44.48977004515538" lon="8.047713920799422"><ele>701.5</ele><time>2026-04-05T13:36:33Z</time></trkpt><trkpt lat="44.48989053355031" lon="8.047709372920725"><ele>701.0</ele><time>2026-04-05T13:36:34Z</time></trkpt><trkpt lat="44.4900063501427" lon="8.047675760309254"><ele>701.0</ele><time>2026-04-05T13:36:35Z</time></trkpt><trkpt lat="44.49011962789139" lon="8.047674323346865"><ele>701.0</ele><time>2026-04-05T13:36:36Z</time></trkpt><trkpt lat="44.4902231186816" lon="8.047609242367923"><ele>701.0</ele><time>2026-04-05T13:36:37Z</time></trkpt><trkpt lat="44.490318697331425" lon="8.047513271313875"><ele>701.0</ele><time>2026-04-05T13:36:38Z</time></trkpt><trkpt lat="44.490397733855566" lon="8.047362186371785"><ele>702.5</ele><time>2026-04-05T13:36:39Z</time></trkpt><trkpt lat="44.490489787219495" lon="8.047197743975335"><ele>704.0</ele><time>2026-04-05T13:36:40Z</time></trkpt><trkpt lat="44.49057263788315" lon="8.047033632644647"><ele>705.5</ele><time>2026-04-05T13:36:41Z</time></trkpt><trkpt lat="44.49066849675411" lon="8.046879585849519"><ele>707.0</ele><time>2026-04-05T13:36:42Z</time></trkpt><trkpt lat="44.49077795028454" lon="8.046778183829701"><ele>707.0</ele><time>2026-04-05T13:36:43Z</time></trkpt><trkpt lat="44.49086979177539" lon="8.046685512464215"><ele>707.0</ele><time>2026-04-05T13:36:44Z</time></trkpt><trkpt lat="44.49096270741186" lon="8.04659687371637"><ele>707.0</ele><time>2026-04-05T13:36:45Z</time></trkpt><trkpt lat="44.491043623608576" lon="8.046476273654955"><ele>707.0</ele><time>2026-04-05T13:36:46Z</time></trkpt><trkpt lat="44.491119281513456" lon="8.046347174334793"><ele>710.0</ele><time>2026-04-05T13:36:47Z</time></trkpt><trkpt lat="44.491162690299134" lon="8.046189948568937"><ele>713.0</ele><time>2026-04-05T13:36:48Z</time></trkpt><trkpt lat="44.491178458374684" lon="8.046021031774085"><ele>716.0</ele><time>2026-04-05T13:36:49Z</time></trkpt><trkpt lat="44.4911701078012" lon="8.045836408118067"><ele>719.0</ele><time>2026-04-05T13:36:50Z</time></trkpt><trkpt lat="44.49116342639089" lon="8.045654820133244"><ele>721.5</ele><time>2026-04-05T13:36:51Z</time></trkpt><trkpt lat="44.49115750826836" lon="8.045484332430117"><ele>724.0</ele><time>2026-04-05T13:36:52Z</time></trkpt><trkpt lat="44.49116925914114" lon="8.045332175436494"><ele>726.5</ele><time>2026-04-05T13:36:53Z</time></trkpt><trkpt lat="44.49121751334265" lon="8.045193856852592"><ele>729.0</ele><time>2026-04-05T13:36:54Z</time></trkpt><trkpt lat="44.491312447139826" lon="8.045086849440196"><ele>726.75</ele><time>2026-04-05T13:36:55Z</time></trkpt><trkpt lat="44.491408925958126" lon="8.044975713465867"><ele>724.5</ele><time>2026-04-05T13:36:56Z</time></trkpt><trkpt lat="44.491512533844066" lon="8.04486371361496"><ele>722.25</ele><time>2026-04-05T13:36:57Z</time></trkpt><trkpt lat="44.491628349651805" lon="8.044740205673957"><ele>720.0</ele><time>2026-04-05T13:36:58Z</time></trkpt><trkpt lat="44.491741578318845" lon="8.044630910501906"><ele>720.0</ele><time>2026-04-05T13:36:59Z</time></trkpt><trkpt lat="44.49184742689864" lon="8.044516318598918"><ele>720.0</ele><time>2026-04-05T13:37:00Z</time></trkpt><trkpt lat="44.491946855214465" lon="8.044402842297766"><ele>720.0</ele><time>2026-04-05T13:37:01Z</time></trkpt><trkpt lat="44.49204055621761" lon="8.04430250259144"><ele>720.0</ele><time>2026-04-05T13:37:01.999Z</time></trkpt><trkpt lat="44.49214765682679" lon="8.044217605827411"><ele>717.6</ele><time>2026-04-05T13:37:02.999Z</time></trkpt><trkpt lat="44.49225586011165" lon="8.044161911320737"><ele>715.2</ele><time>2026-04-05T13:37:03.999Z</time></trkpt><trkpt lat="44.492355460700715" lon="8.044126596630827"><ele>712.8</ele><time>2026-04-05T13:37:04.999Z</time></trkpt><trkpt lat="44.49244204822593" lon="8.0440997877112"><ele>710.4</ele><time>2026-04-05T13:37:05.999Z</time></trkpt><trkpt lat="44.49250790246395" lon="8.044068585077287"><ele>708.0</ele><time>2026-04-05T13:37:06.999Z</time></trkpt><trkpt lat="44.49263544908613" lon="8.044015007789914"><ele>708.0</ele><time>2026-04-05T13:37:08.999Z</time></trkpt><trkpt lat="44.49272532738489" lon="8.043986915535164"><ele>708.0</ele><time>2026-04-05T13:37:09.999Z</time></trkpt><trkpt lat="44.492822958406094" lon="8.04396260852088"><ele>708.0</ele><time>2026-04-05T13:37:10.999Z</time></trkpt><trkpt lat="44.49292216529093" lon="8.04395026245715"><ele>708.0</ele><time>2026-04-05T13:37:11.999Z</time></trkpt><trkpt lat="44.49304107893466" lon="8.043941401972964"><ele>708.0</ele><time>2026-04-05T13:37:12.999Z</time></trkpt><trkpt lat="44.49316876693589" lon="8.043971056515076"><ele>707.25</ele><time>2026-04-05T13:37:13.999Z</time></trkpt><trkpt lat="44.49329250442714" lon="8.043972346264704"><ele>706.5</ele><time>2026-04-05T13:37:14.999Z</time></trkpt><trkpt lat="44.49342139518562" lon="8.043979454620176"><ele>705.75</ele><time>2026-04-05T13:37:15.999Z</time></trkpt><trkpt lat="44.493555405119196" lon="8.043998435819628"><ele>705.0</ele><time>2026-04-05T13:37:16.999Z</time></trkpt><trkpt lat="44.49368250066307" lon="8.044027140249662"><ele>706.5</ele><time>2026-04-05T13:37:17.999Z</time></trkpt><trkpt lat="44.493806362326886" lon="8.044075580450725"><ele>708.0</ele><time>2026-04-05T13:37:18.999Z</time></trkpt><trkpt lat="44.493925938392756" lon="8.044163190071746"><ele>709.5</ele><time>2026-04-05T13:37:19.999Z</time></trkpt><trkpt lat="44.494038285106974" lon="8.044282940573657"><ele>711.0</ele><time>2026-04-05T13:37:20.999Z</time></trkpt><trkpt lat="44.49415282821296" lon="8.04441938738225"><ele>714.0</ele><time>2026-04-05T13:37:21.999Z</time></trkpt><trkpt lat="44.49427386265647" lon="8.04452656025677"><ele>717.0</ele><time>2026-04-05T13:37:22.999Z</time></trkpt><trkpt lat="44.49437147327631" lon="8.044637639561813"><ele>720.0</ele><time>2026-04-05T13:37:23.999Z</time></trkpt><trkpt lat="44.49446494839144" lon="8.044730277018656"><ele>723.0</ele><time>2026-04-05T13:37:24.999Z</time></trkpt><trkpt lat="44.494573852746804" lon="8.044804378693133"><ele>726.75</ele><time>2026-04-05T13:37:25.999Z</time></trkpt><trkpt lat="44.494698676469184" lon="8.044844884454943"><ele>730.5</ele><time>2026-04-05T13:37:26.999Z</time></trkpt><trkpt lat="44.494845236009134" lon="8.04483688468796"><ele>734.25</ele><time>2026-04-05T13:37:27.999Z</time></trkpt><trkpt lat="44.49500794676336" lon="8.044798643916101"><ele>738.0</ele><time>2026-04-05T13:37:28.999Z</time></trkpt><trkpt lat="44.495165813182936" lon="8.044794675321066"><ele>738.0</ele><time>2026-04-05T13:37:29.999Z</time></trkpt><trkpt lat="44.495321049861566" lon="8.044787031809339"><ele>738.0</ele><time>2026-04-05T13:37:30.999Z</time></trkpt><trkpt lat="44.495461083915266" lon="8.04480454910342"><ele>738.0</ele><time>2026-04-05T13:37:31.999Z</time></trkpt><trkpt lat="44.495585965463796" lon="8.044799223600474"><ele>738.0</ele><time>2026-04-05T13:37:32.999Z</time></trkpt><trkpt lat="44.49568062371012" lon="8.044758275543348"><ele>737.0</ele><time>2026-04-05T13:37:33.999Z</time></trkpt><trkpt lat="44.49576162035139" lon="8.044672854733543"><ele>736.0</ele><time>2026-04-05T13:37:34.999Z</time></trkpt><trkpt lat="44.49582007411393" lon="8.044511209354042"><ele>735.0</ele><time>2026-04-05T13:37:35.999Z</time></trkpt><trkpt lat="44.495861367087656" lon="8.044333522393787"><ele>734.0</ele><time>2026-04-05T13:37:36.999Z</time></trkpt><trkpt lat="44.49593271174997" lon="8.044156229979283"><ele>735.0</ele><time>2026-04-05T13:37:37.999Z</time></trkpt><trkpt lat="44.49599313078896" lon="8.043979527359374"><ele>736.0</ele><time>2026-04-05T13:37:38.999Z</time></trkpt><trkpt lat="44.496066304988574" lon="8.043807596148735"><ele>737.0</ele><time>2026-04-05T13:37:39.999Z</time></trkpt><trkpt lat="44.49614732465882" lon="8.04367262017016"><ele>738.0</ele><time>2026-04-05T13:37:40.999Z</time></trkpt><trkpt lat="44.49623934835244" lon="8.043571036238678"><ele>738.0</ele><time>2026-04-05T13:37:41.999Z</time></trkpt><trkpt lat="44.496350510290185" lon="8.0434956012754"><ele>738.0</ele><time>2026-04-05T13:37:42.999Z</time></trkpt><trkpt lat="44.49645961366607" lon="8.04344502583718"><ele>738.0</ele><time>2026-04-05T13:37:43.999Z</time></trkpt><trkpt lat="44.49661319793399" lon="8.04340679623172"><ele>738.0</ele><time>2026-04-05T13:37:44.999Z</time></trkpt><trkpt lat="44.49677601152111" lon="8.043371147015502"><ele>738.0</ele><time>2026-04-05T13:37:45.999Z</time></trkpt><trkpt lat="44.49694412937057" lon="8.043335719350814"><ele>738.0</ele><time>2026-04-05T13:37:46.999Z</time></trkpt><trkpt lat="44.49711503010705" lon="8.043299705223786"><ele>738.0</ele><time>2026-04-05T13:37:47.999Z</time></trkpt><trkpt lat="44.497294282183866" lon="8.04326193122825"><ele>735.6666666666666</ele><time>2026-04-05T13:37:48.999Z</time></trkpt><trkpt lat="44.497474350625616" lon="8.043222623714188"><ele>733.3333333333333</ele><time>2026-04-05T13:37:49.999Z</time></trkpt><trkpt lat="44.4976480720214" lon="8.043183307228276"><ele>731.0</ele><time>2026-04-05T13:37:50.999Z</time></trkpt><trkpt lat="44.497800440315906" lon="8.04312896354098"><ele>733.25</ele><time>2026-04-05T13:37:51.999Z</time></trkpt><trkpt lat="44.49794090908317" lon="8.04309818663078"><ele>735.5</ele><time>2026-04-05T13:37:52.999Z</time></trkpt><trkpt lat="44.4980691535117" lon="8.043072204876044"><ele>737.75</ele><time>2026-04-05T13:37:53.999Z</time></trkpt><trkpt lat="44.498198298678574" lon="8.043027872022423"><ele>740.0</ele><time>2026-04-05T13:37:54.999Z</time></trkpt><trkpt lat="44.498323430497344" lon="8.042949447068667"><ele>740.0</ele><time>2026-04-05T13:37:55.999Z</time></trkpt><trkpt lat="44.49843018102512" lon="8.042808964855324"><ele>740.0</ele><time>2026-04-05T13:37:56.999Z</time></trkpt><trkpt lat="44.49853152563931" lon="8.042659984805676"><ele>740.0</ele><time>2026-04-05T13:37:57.999Z</time></trkpt><trkpt lat="44.498640864824324" lon="8.042493101175536"><ele>741.5</ele><time>2026-04-05T13:37:58.999Z</time></trkpt><trkpt lat="44.49874293888916" lon="8.042320890707776"><ele>743.0</ele><time>2026-04-05T13:37:59.999Z</time></trkpt><trkpt lat="44.498838084879246" lon="8.042168307053956"><ele>744.5</ele><time>2026-04-05T13:38:00.999Z</time></trkpt><trkpt lat="44.49893704309567" lon="8.04204068125933"><ele>746.0</ele><time>2026-04-05T13:38:01.999Z</time></trkpt><trkpt lat="44.49906528869398" lon="8.041930581190643"><ele>746.0</ele><time>2026-04-05T13:38:02.998Z</time></trkpt><trkpt lat="44.49920145882115" lon="8.041859622569515"><ele>746.0</ele><time>2026-04-05T13:38:03.998Z</time></trkpt><trkpt lat="44.4993586873606" lon="8.04180542961988"><ele>746.0</ele><time>2026-04-05T13:38:04.998Z</time></trkpt><trkpt lat="44.499529730890075" lon="8.041757247446085"><ele>746.6666666666666</ele><time>2026-04-05T13:38:05.998Z</time></trkpt><trkpt lat="44.49971103826994" lon="8.041706173912546"><ele>747.3333333333334</ele><time>2026-04-05T13:38:06.998Z</time></trkpt><trkpt lat="44.4998874501456" lon="8.041656479464384"><ele>748.0</ele><time>2026-04-05T13:38:07.998Z</time></trkpt><trkpt lat="44.50006486541429" lon="8.041606502375558"><ele>752.0</ele><time>2026-04-05T13:38:08.998Z</time></trkpt><trkpt lat="44.500246711787355" lon="8.041555277077155"><ele>756.0</ele><time>2026-04-05T13:38:09.998Z</time></trkpt><trkpt lat="44.50043457686217" lon="8.041501572340506"><ele>760.0</ele><time>2026-04-05T13:38:10.998Z</time></trkpt><trkpt lat="44.5006118268583" lon="8.041449480360905"><ele>760.0</ele><time>2026-04-05T13:38:11.998Z</time></trkpt><trkpt lat="44.5007758495712" lon="8.04140005803988"><ele>760.0</ele><time>2026-04-05T13:38:12.998Z</time></trkpt><trkpt lat="44.500920628420324" lon="8.041356471837565"><ele>760.0</ele><time>2026-04-05T13:38:13.998Z</time></trkpt><trkpt lat="44.501059326347914" lon="8.041316704667109"><ele>760.0</ele><time>2026-04-05T13:38:14.998Z</time></trkpt><trkpt lat="44.50119132633675" lon="8.041284582415326"><ele>760.0</ele><time>2026-04-05T13:38:15.998Z</time></trkpt><trkpt lat="44.50132018967728" lon="8.041270945108101"><ele>760.0</ele><time>2026-04-05T13:38:16.998Z</time></trkpt><trkpt lat="44.501440819510115" lon="8.041288563272186"><ele>760.0</ele><time>2026-04-05T13:38:17.998Z</time></trkpt><trkpt lat="44.50155013604564" lon="8.041348077111564"><ele>761.5</ele><time>2026-04-05T13:38:18.998Z</time></trkpt><trkpt lat="44.50166614850649" lon="8.04143502422294"><ele>763.0</ele><time>2026-04-05T13:38:19.998Z</time></trkpt><trkpt lat="44.50179878978003" lon="8.041535315297951"><ele>764.5</ele><time>2026-04-05T13:38:20.998Z</time></trkpt><trkpt lat="44.50193429076249" lon="8.041616831371714"><ele>766.0</ele><time>2026-04-05T13:38:21.998Z</time></trkpt><trkpt lat="44.50208964575628" lon="8.041743538058453"><ele>766.0</ele><time>2026-04-05T13:38:22.998Z</time></trkpt><trkpt lat="44.50224419088956" lon="8.041856833869666"><ele>766.0</ele><time>2026-04-05T13:38:24Z</time></trkpt><trkpt lat="44.50237572528106" lon="8.04196181689307"><ele>766.0</ele><time>2026-04-05T13:38:25Z</time></trkpt><trkpt lat="44.50249003645479" lon="8.042072352946358"><ele>766.0</ele><time>2026-04-05T13:38:26Z</time></trkpt><trkpt lat="44.50260403855231" lon="8.042159850625927"><ele>766.0</ele><time>2026-04-05T13:38:27Z</time></trkpt><trkpt lat="44.50271371710606" lon="8.042209562647635"><ele>766.0</ele><time>2026-04-05T13:38:28Z</time></trkpt><trkpt lat="44.50281128294436" lon="8.042248011555628"><ele>766.0</ele><time>2026-04-05T13:38:29Z</time></trkpt><trkpt lat="44.50290711996905" lon="8.042249932635745"><ele>766.0</ele><time>2026-04-05T13:38:30Z</time></trkpt><trkpt lat="44.50300484418834" lon="8.042198049125183"><ele>765.25</ele><time>2026-04-05T13:38:31Z</time></trkpt><trkpt lat="44.5030859833487" lon="8.042090228345165"><ele>764.5</ele><time>2026-04-05T13:38:32Z</time></trkpt><trkpt lat="44.50315305947415" lon="8.041943545444303"><ele>763.75</ele><time>2026-04-05T13:38:33Z</time></trkpt><trkpt lat="44.50321469098012" lon="8.041767141259228"><ele>763.0</ele><time>2026-04-05T13:38:34Z</time></trkpt><trkpt lat="44.50327503191002" lon="8.041581129987264"><ele>767.6666666666667</ele><time>2026-04-05T13:38:35Z</time></trkpt><trkpt lat="44.50335253344684" lon="8.041391520010109"><ele>772.3333333333334</ele><time>2026-04-05T13:38:36Z</time></trkpt><trkpt lat="44.50342564163834" lon="8.041207896436148"><ele>777.0</ele><time>2026-04-05T13:38:37Z</time></trkpt><trkpt lat="44.503524721235756" lon="8.041047571794175"><ele>777.0</ele><time>2026-04-05T13:38:38Z</time></trkpt><trkpt lat="44.5036112734298" lon="8.040877101294747"><ele>777.0</ele><time>2026-04-05T13:38:39Z</time></trkpt><trkpt lat="44.503734728829805" lon="8.040750793966787"><ele>777.0</ele><time>2026-04-05T13:38:40Z</time></trkpt><trkpt lat="44.5038577055293" lon="8.040645236510578"><ele>777.0</ele><time>2026-04-05T13:38:41Z</time></trkpt><trkpt lat="44.50399208641706" lon="8.040565474147389"><ele>778.5</ele><time>2026-04-05T13:38:42Z</time></trkpt><trkpt lat="44.50412934576225" lon="8.040534967754029"><ele>780.0</ele><time>2026-04-05T13:38:43Z</time></trkpt><trkpt lat="44.50427202199731" lon="8.04053158179706"><ele>781.5</ele><time>2026-04-05T13:38:44Z</time></trkpt><trkpt lat="44.50440931511395" lon="8.04057644584101"><ele>783.0</ele><time>2026-04-05T13:38:45Z</time></trkpt><trkpt lat="44.5045444550394" lon="8.040650311650362"><ele>780.6666666666667</ele><time>2026-04-05T13:38:46Z</time></trkpt><trkpt lat="44.504678729521316" lon="8.040758490138568"><ele>778.3333333333334</ele><time>2026-04-05T13:38:47Z</time></trkpt><trkpt lat="44.50481980194801" lon="8.040874654107874"><ele>776.0</ele><time>2026-04-05T13:38:48Z</time></trkpt><trkpt lat="44.504947303029944" lon="8.040983127092018"><ele>776.0</ele><time>2026-04-05T13:38:49Z</time></trkpt><trkpt lat="44.505059543239135" lon="8.041063619077917"><ele>776.0</ele><time>2026-04-05T13:38:50Z</time></trkpt><trkpt lat="44.50517085050522" lon="8.04109551366277"><ele>776.0</ele><time>2026-04-05T13:38:51Z</time></trkpt><trkpt lat="44.50527404972952" lon="8.04111002014621"><ele>776.0</ele><time>2026-04-05T13:38:52Z</time></trkpt><trkpt lat="44.50538197615855" lon="8.041057371775654"><ele>777.75</ele><time>2026-04-05T13:38:53Z</time></trkpt><trkpt lat="44.50547404752069" lon="8.040943504696193"><ele>779.5</ele><time>2026-04-05T13:38:54Z</time></trkpt><trkpt lat="44.50556176587215" lon="8.04081704558199"><ele>781.25</ele><time>2026-04-05T13:38:55Z</time></trkpt><trkpt lat="44.50566138267217" lon="8.040654999955386"><ele>783.0</ele><time>2026-04-05T13:38:56Z</time></trkpt><trkpt lat="44.50576426316136" lon="8.040491724855316"><ele>783.0</ele><time>2026-04-05T13:38:57Z</time></trkpt><trkpt lat="44.505843445726555" lon="8.040363802704142"><ele>783.0</ele><time>2026-04-05T13:38:58Z</time></trkpt><trkpt lat="44.505939628531934" lon="8.040228738199197"><ele>783.0</ele><time>2026-04-05T13:38:59Z</time></trkpt><trkpt lat="44.50606963924198" lon="8.040142476227045"><ele>783.0</ele><time>2026-04-05T13:39:00Z</time></trkpt><trkpt lat="44.50622052965693" lon="8.04009190490681"><ele>780.3333333333333</ele><time>2026-04-05T13:39:01Z</time></trkpt><trkpt lat="44.506374728766126" lon="8.040070296593012"><ele>777.6666666666666</ele><time>2026-04-05T13:39:02Z</time></trkpt><trkpt lat="44.50653758216137" lon="8.040075580160241"><ele>775.0</ele><time>2026-04-05T13:39:03Z</time></trkpt><trkpt lat="44.50669765161627" lon="8.040075641568968"><ele>775.0</ele><time>2026-04-05T13:39:04Z</time></trkpt><trkpt lat="44.5068650825956" lon="8.040071294970211"><ele>775.0</ele><time>2026-04-05T13:39:05Z</time></trkpt><trkpt lat="44.50703878895338" lon="8.040066503230063"><ele>775.0</ele><time>2026-04-05T13:39:06Z</time></trkpt><trkpt lat="44.507214924759154" lon="8.040050008366237"><ele>774.0</ele><time>2026-04-05T13:39:07Z</time></trkpt><trkpt lat="44.50739174875569" lon="8.040032914806694"><ele>773.0</ele><time>2026-04-05T13:39:08Z</time></trkpt><trkpt lat="44.5075653968566" lon="8.039995535752585"><ele>772.0</ele><time>2026-04-05T13:39:08.999Z</time></trkpt><trkpt lat="44.507726126181154" lon="8.039921663050588"><ele>774.6666666666666</ele><time>2026-04-05T13:39:09.999Z</time></trkpt><trkpt lat="44.507886985793384" lon="8.039882530854253"><ele>777.3333333333333</ele><time>2026-04-05T13:39:10.999Z</time></trkpt><trkpt lat="44.508040970551896" lon="8.039825021965806"><ele>780.0</ele><time>2026-04-05T13:39:11.999Z</time></trkpt><trkpt lat="44.50818045857198" lon="8.039786007544281"><ele>780.0</ele><time>2026-04-05T13:39:12.999Z</time></trkpt><trkpt lat="44.50831609409803" lon="8.039762797329265"><ele>780.0</ele><time>2026-04-05T13:39:13.999Z</time></trkpt><trkpt lat="44.50845047381245" lon="8.039760407199749"><ele>780.0</ele><time>2026-04-05T13:39:14.999Z</time></trkpt><trkpt lat="44.50857766883539" lon="8.039799209427672"><ele>780.0</ele><time>2026-04-05T13:39:15.999Z</time></trkpt><trkpt lat="44.50869536153716" lon="8.039869874781303"><ele>777.5</ele><time>2026-04-05T13:39:16.999Z</time></trkpt><trkpt lat="44.50880607614986" lon="8.039967306614642"><ele>775.0</ele><time>2026-04-05T13:39:17.999Z</time></trkpt><trkpt lat="44.508919548123394" lon="8.040083116973085"><ele>772.5</ele><time>2026-04-05T13:39:18.999Z</time></trkpt><trkpt lat="44.50904375495246" lon="8.040205026859674"><ele>770.0</ele><time>2026-04-05T13:39:19.999Z</time></trkpt><trkpt lat="44.50917191775014" lon="8.040330631497943"><ele>770.0</ele><time>2026-04-05T13:39:20.999Z</time></trkpt><trkpt lat="44.5093024009837" lon="8.04046030943744"><ele>770.0</ele><time>2026-04-05T13:39:21.999Z</time></trkpt><trkpt lat="44.50942721498364" lon="8.040588380752412"><ele>770.0</ele><time>2026-04-05T13:39:22.999Z</time></trkpt><trkpt lat="44.50955452032933" lon="8.040721765592595"><ele>766.6666666666667</ele><time>2026-04-05T13:39:23.999Z</time></trkpt><trkpt lat="44.5096851275571" lon="8.040861228566616"><ele>763.3333333333334</ele><time>2026-04-05T13:39:24.999Z</time></trkpt><trkpt lat="44.509825519439886" lon="8.041004170282656"><ele>760.0</ele><time>2026-04-05T13:39:25.999Z</time></trkpt><trkpt lat="44.509927170936784" lon="8.041202216979729"><ele>760.0</ele><time>2026-04-05T13:39:26.999Z</time></trkpt><trkpt lat="44.51003960928219" lon="8.041408343793378"><ele>760.0</ele><time>2026-04-05T13:39:27.999Z</time></trkpt><trkpt lat="44.5101468497972" lon="8.041605543749673"><ele>760.0</ele><time>2026-04-05T13:39:28.999Z</time></trkpt><trkpt lat="44.51027588772927" lon="8.041825448942673"><ele>757.6666666666667</ele><time>2026-04-05T13:39:29.999Z</time></trkpt><trkpt lat="44.51041649007627" lon="8.042023157058896"><ele>755.3333333333334</ele><time>2026-04-05T13:39:30.999Z</time></trkpt><trkpt lat="44.51056612424583" lon="8.042216372733034"><ele>753.0</ele><time>2026-04-05T13:39:31.999Z</time></trkpt><trkpt lat="44.51071752768109" lon="8.042404864685402"><ele>757.0</ele><time>2026-04-05T13:39:32.999Z</time></trkpt><trkpt lat="44.510867356765424" lon="8.042591396639443"><ele>761.0</ele><time>2026-04-05T13:39:33.999Z</time></trkpt><trkpt lat="44.51101759780363" lon="8.042778441579127"><ele>765.0</ele><time>2026-04-05T13:39:34.999Z</time></trkpt><trkpt lat="44.51115961468493" lon="8.042953515587419"><ele>762.3333333333334</ele><time>2026-04-05T13:39:35.999Z</time></trkpt><trkpt lat="44.511305862323994" lon="8.043102780831163"><ele>759.6666666666667</ele><time>2026-04-05T13:39:36.999Z</time></trkpt><trkpt lat="44.51143940848495" lon="8.043260127364864"><ele>757.0</ele><time>2026-04-05T13:39:37.999Z</time></trkpt><trkpt lat="44.51157594551762" lon="8.043426380619417"><ele>757.0</ele><time>2026-04-05T13:39:38.999Z</time></trkpt><trkpt lat="44.51172992825648" lon="8.043552162552684"><ele>757.0</ele><time>2026-04-05T13:39:39.999Z</time></trkpt><trkpt lat="44.51188291782441" lon="8.043649997746481"><ele>757.0</ele><time>2026-04-05T13:39:40.999Z</time></trkpt><trkpt lat="44.51201669476628" lon="8.043715228176724"><ele>756.0</ele><time>2026-04-05T13:39:41.999Z</time></trkpt><trkpt lat="44.512128667018835" lon="8.043760836377066"><ele>755.0</ele><time>2026-04-05T13:39:42.999Z</time></trkpt><trkpt lat="44.512220687155896" lon="8.043793243203826"><ele>754.0</ele><time>2026-04-05T13:39:43.999Z</time></trkpt><trkpt lat="44.5122998929441" lon="8.043821106871697"><ele>753.0</ele><time>2026-04-05T13:39:44.999Z</time></trkpt><trkpt lat="44.51236993702324" lon="8.043824834286802"><ele>752.0</ele><time>2026-04-05T13:39:45.999Z</time></trkpt><trkpt lat="44.512441208479444" lon="8.04384737661623"><ele>751.0</ele><time>2026-04-05T13:39:46.999Z</time></trkpt><trkpt lat="44.512530888912885" lon="8.043878756369919"><ele>751.0</ele><time>2026-04-05T13:39:47.999Z</time></trkpt><trkpt lat="44.51261930469587" lon="8.043925105474846"><ele>751.0</ele><time>2026-04-05T13:39:48.999Z</time></trkpt><trkpt lat="44.512717269456644" lon="8.043961358095421"><ele>751.0</ele><time>2026-04-05T13:39:49.999Z</time></trkpt><trkpt lat="44.51282538454192" lon="8.043995025736125"><ele>751.0</ele><time>2026-04-05T13:39:50.999Z</time></trkpt><trkpt lat="44.512922995959514" lon="8.044031385438402"><ele>751.0</ele><time>2026-04-05T13:39:51.999Z</time></trkpt><trkpt lat="44.51301620859537" lon="8.044065756722528"><ele>750.0</ele><time>2026-04-05T13:39:52.999Z</time></trkpt><trkpt lat="44.51312306629717" lon="8.044098384724812"><ele>749.0</ele><time>2026-04-05T13:39:53.999Z</time></trkpt><trkpt lat="44.513250927644215" lon="8.044136807119889"><ele>748.0</ele><time>2026-04-05T13:39:54.999Z</time></trkpt><trkpt lat="44.51338341122078" lon="8.044166199740365"><ele>747.0</ele><time>2026-04-05T13:39:55.999Z</time></trkpt><trkpt lat="44.5135204150016" lon="8.044189215277092"><ele>754.0</ele><time>2026-04-05T13:39:56.999Z</time></trkpt><trkpt lat="44.51367478716663" lon="8.044215616541543"><ele>761.0</ele><time>2026-04-05T13:39:57.999Z</time></trkpt><trkpt lat="44.51384609867519" lon="8.0442020551923"><ele>768.0</ele><time>2026-04-05T13:39:58.999Z</time></trkpt><trkpt lat="44.51402669175061" lon="8.044207813464759"><ele>768.5</ele><time>2026-04-05T13:39:59.999Z</time></trkpt><trkpt lat="44.51419272143245" lon="8.044215780595652"><ele>769.0</ele><time>2026-04-05T13:40:00.999Z</time></trkpt><trkpt lat="44.51433787176366" lon="8.044222390667585"><ele>769.5</ele><time>2026-04-05T13:40:01.999Z</time></trkpt><trkpt lat="44.51447095103399" lon="8.044223823350453"><ele>770.0</ele><time>2026-04-05T13:40:02.999Z</time></trkpt><trkpt lat="44.514593486090945" lon="8.044234678834078"><ele>770.0</ele><time>2026-04-05T13:40:03.999Z</time></trkpt><trkpt lat="44.514712360667275" lon="8.044253318664346"><ele>770.0</ele><time>2026-04-05T13:40:04.999Z</time></trkpt><trkpt lat="44.51483479371616" lon="8.044283020460481"><ele>770.0</ele><time>2026-04-05T13:40:05.999Z</time></trkpt><trkpt lat="44.51496788511983" lon="8.044316724281924"><ele>770.0</ele><time>2026-04-05T13:40:06.999Z</time></trkpt><trkpt lat="44.515107264228114" lon="8.044351290617032"><ele>770.0</ele><time>2026-04-05T13:40:07.998Z</time></trkpt><trkpt lat="44.5152447488676" lon="8.044379816253356"><ele>770.0</ele><time>2026-04-05T13:40:08.998Z</time></trkpt><trkpt lat="44.515374355701475" lon="8.044396295827678"><ele>770.0</ele><time>2026-04-05T13:40:09.998Z</time></trkpt><trkpt lat="44.515496860243985" lon="8.044410150017983"><ele>770.0</ele><time>2026-04-05T13:40:10.998Z</time></trkpt><trkpt lat="44.51562769626891" lon="8.044396856970724"><ele>770.5</ele><time>2026-04-05T13:40:11.998Z</time></trkpt><trkpt lat="44.515758071606875" lon="8.044362577270189"><ele>771.0</ele><time>2026-04-05T13:40:12.998Z</time></trkpt><trkpt lat="44.5158844177252" lon="8.044312255897076"><ele>771.5</ele><time>2026-04-05T13:40:13.998Z</time></trkpt><trkpt lat="44.5159973253182" lon="8.044255123935436"><ele>772.0</ele><time>2026-04-05T13:40:14.998Z</time></trkpt><trkpt lat="44.516093757027726" lon="8.044198516852601"><ele>771.9999999999999</ele><time>2026-04-05T13:40:15.998Z</time></trkpt><trkpt lat="44.516178785228426" lon="8.044140859792902"><ele>772.0</ele><time>2026-04-05T13:40:16.998Z</time></trkpt><trkpt lat="44.51624408205302" lon="8.044105215815406"><ele>772.0</ele><time>2026-04-05T13:40:17.998Z</time></trkpt><trkpt lat="44.51632196391948" lon="8.044063620668009"><ele>772.0</ele><time>2026-04-05T13:40:19.998Z</time></trkpt><trkpt lat="44.51620347697578" lon="8.044135173141918"><ele>771.9999999999999</ele><time>2026-04-05T13:40:26.998Z</time></trkpt><trkpt lat="44.516134601585435" lon="8.04414837235144"><ele>772.0</ele><time>2026-04-05T13:40:27.998Z</time></trkpt><trkpt lat="44.516018921485085" lon="8.044194396615696"><ele>772.0</ele><time>2026-04-05T13:40:28.998Z</time></trkpt><trkpt lat="44.515906377637116" lon="8.044252403884991"><ele>772.0</ele><time>2026-04-05T13:40:30Z</time></trkpt><trkpt lat="44.51578830907376" lon="8.044306049194974"><ele>772.0</ele><time>2026-04-05T13:40:31Z</time></trkpt><trkpt lat="44.515638937697105" lon="8.044353238817557"><ele>772.0</ele><time>2026-04-05T13:40:32Z</time></trkpt><trkpt lat="44.515467878740225" lon="8.044372934735838"><ele>771.3333333333333</ele><time>2026-04-05T13:40:33Z</time></trkpt><trkpt lat="44.51529771920243" lon="8.044364313468114"><ele>770.6666666666667</ele><time>2026-04-05T13:40:34Z</time></trkpt><trkpt lat="44.51512498913088" lon="8.044331476233154"><ele>770.0</ele><time>2026-04-05T13:40:35Z</time></trkpt><trkpt lat="44.514947927702636" lon="8.044278874802567"><ele>770.0</ele><time>2026-04-05T13:40:36Z</time></trkpt><trkpt lat="44.5147862724204" lon="8.04423998834716"><ele>770.0</ele><time>2026-04-05T13:40:37Z</time></trkpt><trkpt lat="44.514620178217406" lon="8.04421475642871"><ele>770.0</ele><time>2026-04-05T13:40:38Z</time></trkpt><trkpt lat="44.51445172136226" lon="8.044198657838166"><ele>770.0</ele><time>2026-04-05T13:40:39Z</time></trkpt><trkpt lat="44.514279747330235" lon="8.04419420621423"><ele>770.0</ele><time>2026-04-05T13:40:40Z</time></trkpt><trkpt lat="44.514108242680805" lon="8.044191490980387"><ele>770.0</ele><time>2026-04-05T13:40:41Z</time></trkpt><trkpt lat="44.51394977971238" lon="8.044194383602651"><ele>770.0</ele><time>2026-04-05T13:40:42Z</time></trkpt><trkpt lat="44.51379326449885" lon="8.044187310240531"><ele>770.0</ele><time>2026-04-05T13:40:43Z</time></trkpt><trkpt lat="44.51364074978326" lon="8.044186235455685"><ele>770.0</ele><time>2026-04-05T13:40:44Z</time></trkpt><trkpt lat="44.51349224491716" lon="8.044174209986384"><ele>769.5</ele><time>2026-04-05T13:40:45Z</time></trkpt><trkpt lat="44.51335520401585" lon="8.04413435050796"><ele>769.0</ele><time>2026-04-05T13:40:46Z</time></trkpt><trkpt lat="44.513224561225364" lon="8.04409969828941"><ele>768.5</ele><time>2026-04-05T13:40:47Z</time></trkpt><trkpt lat="44.513094288277436" lon="8.04405717957804"><ele>768.0</ele><time>2026-04-05T13:40:48Z</time></trkpt><trkpt lat="44.51296107494188" lon="8.044008778296899"><ele>763.75</ele><time>2026-04-05T13:40:49Z</time></trkpt><trkpt lat="44.51282936717976" lon="8.043983550043288"><ele>759.5</ele><time>2026-04-05T13:40:50Z</time></trkpt><trkpt lat="44.51271730128841" lon="8.043919957047546"><ele>755.25</ele><time>2026-04-05T13:40:51Z</time></trkpt><trkpt lat="44.51261150580517" lon="8.0438827419736"><ele>751.0</ele><time>2026-04-05T13:40:52Z</time></trkpt><trkpt lat="44.51251335034772" lon="8.04384821436377"><ele>751.0</ele><time>2026-04-05T13:40:53Z</time></trkpt><trkpt lat="44.51242016592123" lon="8.043826496280335"><ele>751.0</ele><time>2026-04-05T13:40:54Z</time></trkpt><trkpt lat="44.5123439889684" lon="8.043799051211462"><ele>751.0</ele><time>2026-04-05T13:40:55Z</time></trkpt><trkpt lat="44.51224691223559" lon="8.043761363174108"><ele>751.0</ele><time>2026-04-05T13:40:57Z</time></trkpt><trkpt lat="44.51222901108625" lon="8.043906923854923"><ele>751.0</ele><time>2026-04-05T13:41:01Z</time></trkpt><trkpt lat="44.51229494201318" lon="8.044010234304785"><ele>751.0</ele><time>2026-04-05T13:41:03Z</time></trkpt><trkpt lat="44.51234577312283" lon="8.044070351256215"><ele>751.0</ele><time>2026-04-05T13:41:04Z</time></trkpt><trkpt lat="44.512408842514986" lon="8.044143658994372"><ele>751.0</ele><time>2026-04-05T13:41:05Z</time></trkpt><trkpt lat="44.51248101597755" lon="8.044227548638396"><ele>751.0</ele><time>2026-04-05T13:41:06Z</time></trkpt><trkpt lat="44.51257590317872" lon="8.04431004533407"><ele>751.0</ele><time>2026-04-05T13:41:07Z</time></trkpt><trkpt lat="44.512663921532074" lon="8.044424024005643"><ele>754.25</ele><time>2026-04-05T13:41:08Z</time></trkpt><trkpt lat="44.51276153312971" lon="8.044544148461286"><ele>757.5</ele><time>2026-04-05T13:41:09Z</time></trkpt><trkpt lat="44.51284649532042" lon="8.04466797801304"><ele>760.75</ele><time>2026-04-05T13:41:10Z</time></trkpt><trkpt lat="44.51293238343622" lon="8.04478756021651"><ele>764.0</ele><time>2026-04-05T13:41:11Z</time></trkpt><trkpt lat="44.513011801227634" lon="8.044876260168543"><ele>765.0</ele><time>2026-04-05T13:41:12Z</time></trkpt><trkpt lat="44.51310103622853" lon="8.044947938189724"><ele>766.0</ele><time>2026-04-05T13:41:13Z</time></trkpt><trkpt lat="44.5131976144398" lon="8.045035663536563"><ele>767.0</ele><time>2026-04-05T13:41:14Z</time></trkpt><trkpt lat="44.513299710612706" lon="8.04513577311816"><ele>768.0</ele><time>2026-04-05T13:41:14.999Z</time></trkpt><trkpt lat="44.513405894600005" lon="8.045252293386834"><ele>770.5</ele><time>2026-04-05T13:41:15.999Z</time></trkpt><trkpt lat="44.51351040416077" lon="8.045374451773169"><ele>773.0</ele><time>2026-04-05T13:41:16.999Z</time></trkpt><trkpt lat="44.51360877916016" lon="8.045504044062133"><ele>775.5</ele><time>2026-04-05T13:41:17.999Z</time></trkpt><trkpt lat="44.513700225644946" lon="8.045627272014068"><ele>778.0</ele><time>2026-04-05T13:41:18.999Z</time></trkpt><trkpt lat="44.51377900440672" lon="8.04573988656746"><ele>779.8</ele><time>2026-04-05T13:41:19.999Z</time></trkpt><trkpt lat="44.51387073486117" lon="8.045819965305435"><ele>781.5999999999999</ele><time>2026-04-05T13:41:20.999Z</time></trkpt><trkpt lat="44.513942521404815" lon="8.045875813660633"><ele>783.4000000000001</ele><time>2026-04-05T13:41:21.999Z</time></trkpt><trkpt lat="44.51401715560371" lon="8.045924027331308"><ele>785.2</ele><time>2026-04-05T13:41:22.999Z</time></trkpt><trkpt lat="44.51410723687529" lon="8.045979378972815"><ele>787.0</ele><time>2026-04-05T13:41:23.999Z</time></trkpt><trkpt lat="44.51421780984645" lon="8.0460382923787"><ele>787.0</ele><time>2026-04-05T13:41:24.999Z</time></trkpt><trkpt lat="44.51433857150581" lon="8.046108529701748"><ele>787.0</ele><time>2026-04-05T13:41:25.999Z</time></trkpt><trkpt lat="44.51444731093551" lon="8.046182935946321"><ele>787.0</ele><time>2026-04-05T13:41:26.999Z</time></trkpt><trkpt lat="44.51456342092879" lon="8.046246807455727"><ele>787.0</ele><time>2026-04-05T13:41:27.999Z</time></trkpt><trkpt lat="44.514681063813505" lon="8.046316163832259"><ele>788.0</ele><time>2026-04-05T13:41:28.999Z</time></trkpt><trkpt lat="44.51480129536237" lon="8.046384205682518"><ele>789.0</ele><time>2026-04-05T13:41:29.999Z</time></trkpt><trkpt lat="44.51491069825194" lon="8.046458527069307"><ele>790.0</ele><time>2026-04-05T13:41:30.999Z</time></trkpt><trkpt lat="44.51502516071444" lon="8.046526282464187"><ele>791.0</ele><time>2026-04-05T13:41:31.999Z</time></trkpt><trkpt lat="44.515140377947475" lon="8.046592996769089"><ele>790.8</ele><time>2026-04-05T13:41:32.999Z</time></trkpt><trkpt lat="44.515254248783" lon="8.046652822900882"><ele>790.5999999999999</ele><time>2026-04-05T13:41:33.999Z</time></trkpt><trkpt lat="44.51535988588212" lon="8.046696821700781"><ele>790.4</ele><time>2026-04-05T13:41:34.999Z</time></trkpt><trkpt lat="44.515460113857706" lon="8.04673230606445"><ele>790.2</ele><time>2026-04-05T13:41:35.999Z</time></trkpt><trkpt lat="44.51556126336988" lon="8.046767430822065"><ele>790.0</ele><time>2026-04-05T13:41:36.999Z</time></trkpt><trkpt lat="44.51567115334531" lon="8.046799124907848"><ele>791.25</ele><time>2026-04-05T13:41:37.999Z</time></trkpt><trkpt lat="44.51578528748485" lon="8.046830536426155"><ele>792.5</ele><time>2026-04-05T13:41:38.999Z</time></trkpt><trkpt lat="44.51589565038008" lon="8.046868496091168"><ele>793.75</ele><time>2026-04-05T13:41:39.999Z</time></trkpt><trkpt lat="44.51600132560908" lon="8.046906548030199"><ele>795.0</ele><time>2026-04-05T13:41:40.999Z</time></trkpt><trkpt lat="44.51610934684304" lon="8.046964322127163"><ele>795.0</ele><time>2026-04-05T13:41:41.999Z</time></trkpt><trkpt lat="44.516225072268035" lon="8.046981292642029"><ele>795.0</ele><time>2026-04-05T13:41:42.999Z</time></trkpt><trkpt lat="44.51632965507879" lon="8.047030351070788"><ele>795.0</ele><time>2026-04-05T13:41:43.999Z</time></trkpt><trkpt lat="44.516445196284835" lon="8.047064348153052"><ele>795.0</ele><time>2026-04-05T13:41:44.999Z</time></trkpt><trkpt lat="44.516560564459" lon="8.047099304245233"><ele>795.5</ele><time>2026-04-05T13:41:45.999Z</time></trkpt><trkpt lat="44.51668146488096" lon="8.047125726326456"><ele>796.0</ele><time>2026-04-05T13:41:46.999Z</time></trkpt><trkpt lat="44.51680641367824" lon="8.047146888760285"><ele>796.5</ele><time>2026-04-05T13:41:47.999Z</time></trkpt><trkpt lat="44.51692862718353" lon="8.047173189672701"><ele>797.0</ele><time>2026-04-05T13:41:48.999Z</time></trkpt><trkpt lat="44.51704458581498" lon="8.047174594090533"><ele>795.8</ele><time>2026-04-05T13:41:49.999Z</time></trkpt><trkpt lat="44.51715340578617" lon="8.047161817745634"><ele>794.6</ele><time>2026-04-05T13:41:50.999Z</time></trkpt><trkpt lat="44.51726363370521" lon="8.047149921781505"><ele>793.4</ele><time>2026-04-05T13:41:51.999Z</time></trkpt><trkpt lat="44.5173719776678" lon="8.047184316350737"><ele>792.1999999999999</ele><time>2026-04-05T13:41:52.999Z</time></trkpt><trkpt lat="44.517473364636935" lon="8.047206781722995"><ele>791.0</ele><time>2026-04-05T13:41:53.999Z</time></trkpt><trkpt lat="44.51757746372304" lon="8.047243636408574"><ele>791.0</ele><time>2026-04-05T13:41:54.999Z</time></trkpt><trkpt lat="44.51768788023152" lon="8.04727853298706"><ele>791.0</ele><time>2026-04-05T13:41:55.999Z</time></trkpt><trkpt lat="44.51779937920654" lon="8.047327132127732"><ele>791.0</ele><time>2026-04-05T13:41:56.999Z</time></trkpt><trkpt lat="44.51790458810918" lon="8.047383694419107"><ele>791.0</ele><time>2026-04-05T13:41:57.999Z</time></trkpt><trkpt lat="44.51800186263444" lon="8.047446005622046"><ele>790.75</ele><time>2026-04-05T13:41:58.999Z</time></trkpt><trkpt lat="44.51810301597808" lon="8.047507345436205"><ele>790.5</ele><time>2026-04-05T13:41:59.999Z</time></trkpt><trkpt lat="44.518209442923094" lon="8.047579088967417"><ele>790.25</ele><time>2026-04-05T13:42:00.999Z</time></trkpt><trkpt lat="44.51832439117671" lon="8.047605596613574"><ele>790.0</ele><time>2026-04-05T13:42:01.999Z</time></trkpt><trkpt lat="44.518449985173426" lon="8.047638314421844"><ele>790.0</ele><time>2026-04-05T13:42:02.999Z</time></trkpt><trkpt lat="44.51856596747681" lon="8.047660911960639"><ele>790.0</ele><time>2026-04-05T13:42:03.999Z</time></trkpt><trkpt lat="44.5186736234944" lon="8.04768527620577"><ele>790.0</ele><time>2026-04-05T13:42:04.999Z</time></trkpt><trkpt lat="44.518778713227874" lon="8.047711334041113"><ele>790.0</ele><time>2026-04-05T13:42:05.999Z</time></trkpt><trkpt lat="44.518883191689405" lon="8.047764692574352"><ele>790.0</ele><time>2026-04-05T13:42:06.999Z</time></trkpt><trkpt lat="44.51899596221305" lon="8.047785398809756"><ele>790.0</ele><time>2026-04-05T13:42:07.999Z</time></trkpt><trkpt lat="44.51910721389823" lon="8.047827422952277"><ele>790.0</ele><time>2026-04-05T13:42:08.999Z</time></trkpt><trkpt lat="44.519218214986424" lon="8.047878900921281"><ele>790.0</ele><time>2026-04-05T13:42:09.999Z</time></trkpt><trkpt lat="44.51933844871727" lon="8.047933017209038"><ele>790.0</ele><time>2026-04-05T13:42:10.999Z</time></trkpt><trkpt lat="44.51946700578354" lon="8.04796965486984"><ele>790.5</ele><time>2026-04-05T13:42:11.999Z</time></trkpt><trkpt lat="44.51959551894788" lon="8.048002239799768"><ele>791.0</ele><time>2026-04-05T13:42:12.999Z</time></trkpt><trkpt lat="44.51971859486466" lon="8.048036704529965"><ele>791.5</ele><time>2026-04-05T13:42:13.998Z</time></trkpt><trkpt lat="44.51985201992515" lon="8.048079911730747"><ele>792.0</ele><time>2026-04-05T13:42:14.998Z</time></trkpt><trkpt lat="44.51998627175563" lon="8.048117115194069"><ele>792.0</ele><time>2026-04-05T13:42:15.998Z</time></trkpt><trkpt lat="44.52011243246411" lon="8.048160818841913"><ele>792.0</ele><time>2026-04-05T13:42:16.998Z</time></trkpt><trkpt lat="44.52022407241148" lon="8.048197925672504"><ele>792.0</ele><time>2026-04-05T13:42:17.998Z</time></trkpt><trkpt lat="44.520318260963116" lon="8.04822947692208"><ele>792.0</ele><time>2026-04-05T13:42:18.998Z</time></trkpt><trkpt lat="44.5203999353807" lon="8.048256282331712"><ele>792.0</ele><time>2026-04-05T13:42:19.998Z</time></trkpt><trkpt lat="44.520487907357186" lon="8.048298866507253"><ele>792.4000000000001</ele><time>2026-04-05T13:42:20.998Z</time></trkpt><trkpt lat="44.52058307653288" lon="8.04836341348223"><ele>792.8000000000001</ele><time>2026-04-05T13:42:21.998Z</time></trkpt><trkpt lat="44.52068335744992" lon="8.048428427974295"><ele>793.2</ele><time>2026-04-05T13:42:22.998Z</time></trkpt><trkpt lat="44.52077177408555" lon="8.048507052919994"><ele>793.6</ele><time>2026-04-05T13:42:23.998Z</time></trkpt><trkpt lat="44.520861488078005" lon="8.048567642660876"><ele>794.0</ele><time>2026-04-05T13:42:24.998Z</time></trkpt><trkpt lat="44.520938311165644" lon="8.048653886164313"><ele>794.0</ele><time>2026-04-05T13:42:25.998Z</time></trkpt><trkpt lat="44.52101661372547" lon="8.0487226702327"><ele>794.0</ele><time>2026-04-05T13:42:26.998Z</time></trkpt><trkpt lat="44.52110633054917" lon="8.048777025399698"><ele>794.0</ele><time>2026-04-05T13:42:27.998Z</time></trkpt><trkpt lat="44.52119945175612" lon="8.048819184700491"><ele>794.0</ele><time>2026-04-05T13:42:28.998Z</time></trkpt><trkpt lat="44.52129297615647" lon="8.048854956174843"><ele>794.0</ele><time>2026-04-05T13:42:29.998Z</time></trkpt><trkpt lat="44.521391146570494" lon="8.04888815812224"><ele>792.6</ele><time>2026-04-05T13:42:30.998Z</time></trkpt><trkpt lat="44.52148918963124" lon="8.048929844891031"><ele>791.2</ele><time>2026-04-05T13:42:31.998Z</time></trkpt><trkpt lat="44.521588686087334" lon="8.048960593252374"><ele>789.8000000000001</ele><time>2026-04-05T13:42:32.998Z</time></trkpt><trkpt lat="44.52168297009206" lon="8.048993883627015"><ele>788.4000000000001</ele><time>2026-04-05T13:42:33.998Z</time></trkpt><trkpt lat="44.52178053684112" lon="8.049035296908407"><ele>787.0</ele><time>2026-04-05T13:42:34.998Z</time></trkpt><trkpt lat="44.521877642516344" lon="8.049077538790364"><ele>786.9999999999999</ele><time>2026-04-05T13:42:36Z</time></trkpt><trkpt lat="44.52196236359578" lon="8.049121778584647"><ele>787.0</ele><time>2026-04-05T13:42:37Z</time></trkpt><trkpt lat="44.52204476115085" lon="8.049160262597479"><ele>787.0</ele><time>2026-04-05T13:42:38Z</time></trkpt><trkpt lat="44.52212699694139" lon="8.049203271954644"><ele>787.0</ele><time>2026-04-05T13:42:39Z</time></trkpt><trkpt lat="44.52219516438558" lon="8.049239444217493"><ele>786.9999999999999</ele><time>2026-04-05T13:42:40Z</time></trkpt><trkpt lat="44.52226768930108" lon="8.049264364448065"><ele>787.0</ele><time>2026-04-05T13:42:41Z</time></trkpt><trkpt lat="44.522370571418165" lon="8.049232111074092"><ele>786.8333333333333</ele><time>2026-04-05T13:42:43Z</time></trkpt><trkpt lat="44.52243119406859" lon="8.04919353303798"><ele>786.6666666666666</ele><time>2026-04-05T13:42:44Z</time></trkpt><trkpt lat="44.522495011051895" lon="8.049146971479429"><ele>786.5</ele><time>2026-04-05T13:42:45Z</time></trkpt><trkpt lat="44.522567088918244" lon="8.049110345472297"><ele>786.3333333333333</ele><time>2026-04-05T13:42:46Z</time></trkpt><trkpt lat="44.522642676024596" lon="8.049071283777927"><ele>786.1666666666666</ele><time>2026-04-05T13:42:47Z</time></trkpt><trkpt lat="44.52271644705994" lon="8.04904085616384"><ele>786.0</ele><time>2026-04-05T13:42:48Z</time></trkpt><trkpt lat="44.52280216525232" lon="8.04901115120352"><ele>785.1999999999999</ele><time>2026-04-05T13:42:49Z</time></trkpt><trkpt lat="44.52289276728164" lon="8.048975142814397"><ele>784.4</ele><time>2026-04-05T13:42:50Z</time></trkpt><trkpt lat="44.522988414836036" lon="8.048941974392767"><ele>783.6</ele><time>2026-04-05T13:42:51Z</time></trkpt><trkpt lat="44.52307890802648" lon="8.048903215257369"><ele>782.8</ele><time>2026-04-05T13:42:52Z</time></trkpt><trkpt lat="44.52316625682269" lon="8.048863089243703"><ele>782.0</ele><time>2026-04-05T13:42:53Z</time></trkpt><trkpt lat="44.523258626570986" lon="8.048825255171922"><ele>781.0</ele><time>2026-04-05T13:42:54Z</time></trkpt><trkpt lat="44.52334808862062" lon="8.048790654530288"><ele>780.0</ele><time>2026-04-05T13:42:55Z</time></trkpt><trkpt lat="44.52343786717309" lon="8.048751660134782"><ele>779.0</ele><time>2026-04-05T13:42:56Z</time></trkpt><trkpt lat="44.523526111469955" lon="8.048711300113304"><ele>778.0</ele><time>2026-04-05T13:42:57Z</time></trkpt><trkpt lat="44.523618153441646" lon="8.04867600595473"><ele>777.0</ele><time>2026-04-05T13:42:58Z</time></trkpt><trkpt lat="44.523718840707794" lon="8.048664809041226"><ele>775.6</ele><time>2026-04-05T13:42:59Z</time></trkpt><trkpt lat="44.52382496453156" lon="8.04864818017284"><ele>774.2</ele><time>2026-04-05T13:43:00Z</time></trkpt><trkpt lat="44.52391139697054" lon="8.048640095438302"><ele>772.8</ele><time>2026-04-05T13:43:01Z</time></trkpt><trkpt lat="44.52400722449909" lon="8.04862130211415"><ele>771.4</ele><time>2026-04-05T13:43:02Z</time></trkpt><trkpt lat="44.52409832472394" lon="8.048635549841014"><ele>770.0</ele><time>2026-04-05T13:43:03Z</time></trkpt><trkpt lat="44.52417741055132" lon="8.048629171706578"><ele>770.0000000000001</ele><time>2026-04-05T13:43:04Z</time></trkpt><trkpt lat="44.52424090140667" lon="8.048609977693534"><ele>770.0</ele><time>2026-04-05T13:43:06Z</time></trkpt><trkpt lat="44.52429458079656" lon="8.04853775716407"><ele>770.0</ele><time>2026-04-05T13:43:08Z</time></trkpt><trkpt lat="44.52437107525206" lon="8.048576264885115"><ele>770.0</ele><time>2026-04-05T13:43:09Z</time></trkpt><trkpt lat="44.524452244842784" lon="8.048599649616586"><ele>770.0000000000001</ele><time>2026-04-05T13:43:10Z</time></trkpt><trkpt lat="44.52452898827319" lon="8.048635094128922"><ele>770.0</ele><time>2026-04-05T13:43:11Z</time></trkpt><trkpt lat="44.524601471507786" lon="8.048695545837344"><ele>768.2</ele><time>2026-04-05T13:43:12Z</time></trkpt><trkpt lat="44.52467884396396" lon="8.048771348951389"><ele>766.4</ele><time>2026-04-05T13:43:13Z</time></trkpt><trkpt lat="44.52476494764265" lon="8.048853689110674"><ele>764.5999999999999</ele><time>2026-04-05T13:43:14Z</time></trkpt><trkpt lat="44.524845508381745" lon="8.04893527320905"><ele>762.8</ele><time>2026-04-05T13:43:15Z</time></trkpt><trkpt lat="44.52492551843842" lon="8.04901443158538"><ele>761.0</ele><time>2026-04-05T13:43:16Z</time></trkpt><trkpt lat="44.52500615726862" lon="8.049088320634052"><ele>761.0</ele><time>2026-04-05T13:43:17Z</time></trkpt><trkpt lat="44.52509491456674" lon="8.049161108049054"><ele>761.0</ele><time>2026-04-05T13:43:18Z</time></trkpt><trkpt lat="44.52518718446645" lon="8.04924133815931"><ele>761.0</ele><time>2026-04-05T13:43:19Z</time></trkpt><trkpt lat="44.52527831538576" lon="8.049330228089406"><ele>761.0</ele><time>2026-04-05T13:43:20Z</time></trkpt><trkpt lat="44.525361880007665" lon="8.049427681391496"><ele>761.0</ele><time>2026-04-05T13:43:21Z</time></trkpt><trkpt lat="44.52545330328304" lon="8.049522062281412"><ele>761.0</ele><time>2026-04-05T13:43:21.999Z</time></trkpt><trkpt lat="44.525550446622056" lon="8.049613794262022"><ele>761.0</ele><time>2026-04-05T13:43:22.999Z</time></trkpt><trkpt lat="44.525649045954275" lon="8.049709501627222"><ele>761.0</ele><time>2026-04-05T13:43:23.999Z</time></trkpt><trkpt lat="44.52574588734283" lon="8.049807638755993"><ele>761.0</ele><time>2026-04-05T13:43:24.999Z</time></trkpt><trkpt lat="44.52584199612451" lon="8.049903714355224"><ele>760.8</ele><time>2026-04-05T13:43:25.999Z</time></trkpt><trkpt lat="44.52593987568219" lon="8.04998304243217"><ele>760.5999999999999</ele><time>2026-04-05T13:43:26.999Z</time></trkpt><trkpt lat="44.52603942593114" lon="8.050054406709675"><ele>760.4</ele><time>2026-04-05T13:43:27.999Z</time></trkpt><trkpt lat="44.52613391957576" lon="8.050116465486347"><ele>760.2</ele><time>2026-04-05T13:43:28.999Z</time></trkpt><trkpt lat="44.526235804711725" lon="8.050171535455222"><ele>760.0</ele><time>2026-04-05T13:43:29.999Z</time></trkpt><trkpt lat="44.526327285324534" lon="8.05024107899999"><ele>760.0</ele><time>2026-04-05T13:43:30.999Z</time></trkpt><trkpt lat="44.52642981914925" lon="8.050291986152098"><ele>760.0</ele><time>2026-04-05T13:43:31.999Z</time></trkpt><trkpt lat="44.526540970958706" lon="8.050331224650897"><ele>760.0</ele><time>2026-04-05T13:43:32.999Z</time></trkpt><trkpt lat="44.52665561856291" lon="8.050360153414063"><ele>760.0</ele><time>2026-04-05T13:43:33.999Z</time></trkpt><trkpt lat="44.526777865953036" lon="8.05039025995276"><ele>760.0</ele><time>2026-04-05T13:43:34.999Z</time></trkpt><trkpt lat="44.526888574240296" lon="8.050417654145646"><ele>760.0</ele><time>2026-04-05T13:43:35.999Z</time></trkpt><trkpt lat="44.52700728452642" lon="8.050440762618827"><ele>760.0</ele><time>2026-04-05T13:43:36.999Z</time></trkpt><trkpt lat="44.52712231777704" lon="8.050456482499069"><ele>760.0</ele><time>2026-04-05T13:43:37.999Z</time></trkpt><trkpt lat="44.527235509810794" lon="8.050464856383122"><ele>757.8</ele><time>2026-04-05T13:43:38.999Z</time></trkpt><trkpt lat="44.52734403949073" lon="8.05046809480258"><ele>755.6</ele><time>2026-04-05T13:43:39.999Z</time></trkpt><trkpt lat="44.527444071835774" lon="8.05047111174841"><ele>753.4000000000001</ele><time>2026-04-05T13:43:40.999Z</time></trkpt><trkpt lat="44.52754682542975" lon="8.050461498602322"><ele>751.2</ele><time>2026-04-05T13:43:41.999Z</time></trkpt><trkpt lat="44.52764529055584" lon="8.050441679888268"><ele>749.0</ele><time>2026-04-05T13:43:42.999Z</time></trkpt><trkpt lat="44.52774768735301" lon="8.05041535725856"><ele>749.0</ele><time>2026-04-05T13:43:43.999Z</time></trkpt><trkpt lat="44.52785471786214" lon="8.050377925967286"><ele>749.0</ele><time>2026-04-05T13:43:44.999Z</time></trkpt><trkpt lat="44.527971843884686" lon="8.050329860020723"><ele>749.0</ele><time>2026-04-05T13:43:45.999Z</time></trkpt><trkpt lat="44.52809135195629" lon="8.050283448950605"><ele>749.0</ele><time>2026-04-05T13:43:46.999Z</time></trkpt><trkpt lat="44.528214327917226" lon="8.050219898081608"><ele>749.0</ele><time>2026-04-05T13:43:47.999Z</time></trkpt><trkpt lat="44.52834395744443" lon="8.050149169215372"><ele>749.0</ele><time>2026-04-05T13:43:48.999Z</time></trkpt><trkpt lat="44.52846871308972" lon="8.05007083510438"><ele>749.0</ele><time>2026-04-05T13:43:49.999Z</time></trkpt><trkpt lat="44.5285964917279" lon="8.049995319484207"><ele>749.0</ele><time>2026-04-05T13:43:50.999Z</time></trkpt><trkpt lat="44.52872917475724" lon="8.049910135546343"><ele>747.0</ele><time>2026-04-05T13:43:51.999Z</time></trkpt><trkpt lat="44.52885702164761" lon="8.04981899153002"><ele>745.0</ele><time>2026-04-05T13:43:52.999Z</time></trkpt><trkpt lat="44.52898406040295" lon="8.049720555396194"><ele>743.0</ele><time>2026-04-05T13:43:53.999Z</time></trkpt><trkpt lat="44.529104789676964" lon="8.049610489541015"><ele>741.0</ele><time>2026-04-05T13:43:54.999Z</time></trkpt><trkpt lat="44.52921962279646" lon="8.049488989367289"><ele>741.0</ele><time>2026-04-05T13:43:55.999Z</time></trkpt><trkpt lat="44.52933618404433" lon="8.049375038787161"><ele>741.0</ele><time>2026-04-05T13:43:56.999Z</time></trkpt><trkpt lat="44.52944820627544" lon="8.049253123904448"><ele>741.0</ele><time>2026-04-05T13:43:57.999Z</time></trkpt><trkpt lat="44.529560599160185" lon="8.049117538750904"><ele>741.0</ele><time>2026-04-05T13:43:58.999Z</time></trkpt><trkpt lat="44.52967920208972" lon="8.048971648057242"><ele>738.6666666666666</ele><time>2026-04-05T13:43:59.999Z</time></trkpt><trkpt lat="44.52979695707231" lon="8.048819273031725"><ele>736.3333333333333</ele><time>2026-04-05T13:44:00.999Z</time></trkpt><trkpt lat="44.52991574343818" lon="8.048661197901078"><ele>734.0</ele><time>2026-04-05T13:44:01.999Z</time></trkpt><trkpt lat="44.530036254620065" lon="8.04850131824479"><ele>734.0</ele><time>2026-04-05T13:44:02.999Z</time></trkpt><trkpt lat="44.5301539753116" lon="8.04834228765751"><ele>734.0</ele><time>2026-04-05T13:44:03.999Z</time></trkpt><trkpt lat="44.53026818424985" lon="8.048183314147048"><ele>734.0</ele><time>2026-04-05T13:44:04.999Z</time></trkpt><trkpt lat="44.53038049304526" lon="8.048036948628832"><ele>733.25</ele><time>2026-04-05T13:44:05.999Z</time></trkpt><trkpt lat="44.530489588266626" lon="8.047891939563923"><ele>732.5</ele><time>2026-04-05T13:44:06.999Z</time></trkpt><trkpt lat="44.530600060302916" lon="8.047759296520908"><ele>731.75</ele><time>2026-04-05T13:44:07.999Z</time></trkpt><trkpt lat="44.53070523216716" lon="8.047618603398286"><ele>731.0</ele><time>2026-04-05T13:44:08.999Z</time></trkpt><trkpt lat="44.530815302451124" lon="8.047492730350625"><ele>729.75</ele><time>2026-04-05T13:44:09.999Z</time></trkpt><trkpt lat="44.530924969014336" lon="8.047369679324921"><ele>728.5</ele><time>2026-04-05T13:44:10.999Z</time></trkpt><trkpt lat="44.53105148975318" lon="8.04726333458916"><ele>727.25</ele><time>2026-04-05T13:44:11.999Z</time></trkpt><trkpt lat="44.53118088941103" lon="8.047171314480362"><ele>726.0</ele><time>2026-04-05T13:44:12.999Z</time></trkpt><trkpt lat="44.53131488323069" lon="8.04708185282916"><ele>726.0</ele><time>2026-04-05T13:44:13.999Z</time></trkpt><trkpt lat="44.53145310012509" lon="8.04699725382832"><ele>726.0</ele><time>2026-04-05T13:44:14.999Z</time></trkpt><trkpt lat="44.53158284950137" lon="8.046937012881926"><ele>726.0</ele><time>2026-04-05T13:44:15.999Z</time></trkpt><trkpt lat="44.531708833055106" lon="8.046882483737447"><ele>726.0</ele><time>2026-04-05T13:44:16.999Z</time></trkpt><trkpt lat="44.531828685343285" lon="8.04683960906725"><ele>726.0</ele><time>2026-04-05T13:44:17.999Z</time></trkpt><trkpt lat="44.531935667951146" lon="8.04681307928535"><ele>726.0</ele><time>2026-04-05T13:44:18.999Z</time></trkpt><trkpt lat="44.53203038610664" lon="8.046804761851572"><ele>726.0</ele><time>2026-04-05T13:44:19.998Z</time></trkpt><trkpt lat="44.53212131605513" lon="8.046805355071289"><ele>726.0</ele><time>2026-04-05T13:44:20.998Z</time></trkpt><trkpt lat="44.53220112985255" lon="8.046826757689471"><ele>726.0</ele><time>2026-04-05T13:44:21.998Z</time></trkpt><trkpt lat="44.53228905054297" lon="8.046862742927106"><ele>726.1999999999999</ele><time>2026-04-05T13:44:22.998Z</time></trkpt><trkpt lat="44.532383801660515" lon="8.046877229085828"><ele>726.4</ele><time>2026-04-05T13:44:23.998Z</time></trkpt><trkpt lat="44.532476724021116" lon="8.046852418832723"><ele>726.6</ele><time>2026-04-05T13:44:24.998Z</time></trkpt><trkpt lat="44.53257806033942" lon="8.046774335917029"><ele>726.8</ele><time>2026-04-05T13:44:25.998Z</time></trkpt><trkpt lat="44.532672903415474" lon="8.046676620781918"><ele>727.0</ele><time>2026-04-05T13:44:26.998Z</time></trkpt><trkpt lat="44.53278026996281" lon="8.046582007316227"><ele>730.3333333333334</ele><time>2026-04-05T13:44:27.998Z</time></trkpt><trkpt lat="44.53291354942759" lon="8.0465159839793"><ele>733.6666666666666</ele><time>2026-04-05T13:44:28.998Z</time></trkpt><trkpt lat="44.5330619586926" lon="8.046460610704667"><ele>737.0</ele><time>2026-04-05T13:44:29.998Z</time></trkpt><trkpt lat="44.53321021339189" lon="8.046389747117875"><ele>737.0</ele><time>2026-04-05T13:44:30.998Z</time></trkpt><trkpt lat="44.53335336471765" lon="8.046313602691342"><ele>737.0</ele><time>2026-04-05T13:44:31.998Z</time></trkpt><trkpt lat="44.533507493826555" lon="8.04623889905418"><ele>737.0</ele><time>2026-04-05T13:44:32.998Z</time></trkpt><trkpt lat="44.53366665888662" lon="8.046166816946593"><ele>734.3333333333333</ele><time>2026-04-05T13:44:33.998Z</time></trkpt><trkpt lat="44.53382896358401" lon="8.0460825876298"><ele>731.6666666666666</ele><time>2026-04-05T13:44:34.998Z</time></trkpt><trkpt lat="44.53399775742759" lon="8.046000101786687"><ele>729.0</ele><time>2026-04-05T13:44:35.998Z</time></trkpt><trkpt lat="44.534167959482026" lon="8.045924107707703"><ele>729.0</ele><time>2026-04-05T13:44:36.998Z</time></trkpt><trkpt lat="44.53434012748075" lon="8.045850059662692"><ele>729.0</ele><time>2026-04-05T13:44:37.998Z</time></trkpt><trkpt lat="44.534510517842655" lon="8.04576915320687"><ele>729.0</ele><time>2026-04-05T13:44:38.998Z</time></trkpt><trkpt lat="44.534674073787656" lon="8.0456827343635"><ele>731.6666666666666</ele><time>2026-04-05T13:44:39.998Z</time></trkpt><trkpt lat="44.534825030316085" lon="8.045600112708735"><ele>734.3333333333333</ele><time>2026-04-05T13:44:40.998Z</time></trkpt><trkpt lat="44.53497117782667" lon="8.045521545294877"><ele>737.0</ele><time>2026-04-05T13:44:42Z</time></trkpt><trkpt lat="44.53511927989981" lon="8.045450394518372"><ele>737.0</ele><time>2026-04-05T13:44:43Z</time></trkpt><trkpt lat="44.535269669353305" lon="8.045378936834119"><ele>737.0</ele><time>2026-04-05T13:44:44Z</time></trkpt><trkpt lat="44.53541472182491" lon="8.045331021116374"><ele>737.0</ele><time>2026-04-05T13:44:45Z</time></trkpt><trkpt lat="44.53556447594779" lon="8.04525256360165"><ele>733.3333333333333</ele><time>2026-04-05T13:44:46Z</time></trkpt><trkpt lat="44.535737094407686" lon="8.045222797907433"><ele>729.6666666666666</ele><time>2026-04-05T13:44:47Z</time></trkpt><trkpt lat="44.53591943831617" lon="8.045206008407195"><ele>726.0</ele><time>2026-04-05T13:44:48Z</time></trkpt><trkpt lat="44.536100156079634" lon="8.045196109915922"><ele>722.6666666666666</ele><time>2026-04-05T13:44:49Z</time></trkpt><trkpt lat="44.536273090484414" lon="8.045189153605353"><ele>719.3333333333333</ele><time>2026-04-05T13:44:50Z</time></trkpt><trkpt lat="44.53644203790694" lon="8.04518382285901"><ele>716.0</ele><time>2026-04-05T13:44:51Z</time></trkpt><trkpt lat="44.53660106475129" lon="8.045175251931989"><ele>716.0</ele><time>2026-04-05T13:44:52Z</time></trkpt><trkpt lat="44.536770134754256" lon="8.045183410099689"><ele>716.0</ele><time>2026-04-05T13:44:53Z</time></trkpt><trkpt lat="44.53693878700733" lon="8.045207606500963"><ele>716.0</ele><time>2026-04-05T13:44:54Z</time></trkpt><trkpt lat="44.537109436989034" lon="8.045250812175967"><ele>713.6666666666666</ele><time>2026-04-05T13:44:55Z</time></trkpt><trkpt lat="44.5372838581629" lon="8.045321741250552"><ele>711.3333333333334</ele><time>2026-04-05T13:44:56Z</time></trkpt><trkpt lat="44.53746126444273" lon="8.045413816785821"><ele>709.0</ele><time>2026-04-05T13:44:57Z</time></trkpt><trkpt lat="44.537633920821754" lon="8.045528823028164"><ele>709.0</ele><time>2026-04-05T13:44:58Z</time></trkpt><trkpt lat="44.537804908492554" lon="8.045650424509594"><ele>709.0</ele><time>2026-04-05T13:44:59Z</time></trkpt><trkpt lat="44.53797710363663" lon="8.045772169365923"><ele>709.0</ele><time>2026-04-05T13:45:00Z</time></trkpt><trkpt lat="44.5381380665753" lon="8.045890470842808"><ele>709.3333333333334</ele><time>2026-04-05T13:45:01Z</time></trkpt><trkpt lat="44.53828692935583" lon="8.04601401515411"><ele>709.6666666666666</ele><time>2026-04-05T13:45:02Z</time></trkpt><trkpt lat="44.538431916966935" lon="8.046152160007727"><ele>710.0</ele><time>2026-04-05T13:45:03Z</time></trkpt><trkpt lat="44.538575036232764" lon="8.046301443164579"><ele>708.0</ele><time>2026-04-05T13:45:04Z</time></trkpt><trkpt lat="44.538720456912706" lon="8.046450467580076"><ele>706.0</ele><time>2026-04-05T13:45:05Z</time></trkpt><trkpt lat="44.53887242870849" lon="8.046600099590695"><ele>704.0</ele><time>2026-04-05T13:45:06Z</time></trkpt><trkpt lat="44.53901961154591" lon="8.046755907727855"><ele>708.3333333333333</ele><time>2026-04-05T13:45:07Z</time></trkpt><trkpt lat="44.53916445315565" lon="8.046898057942315"><ele>712.6666666666666</ele><time>2026-04-05T13:45:08Z</time></trkpt><trkpt lat="44.53929629817897" lon="8.04703087111068"><ele>717.0</ele><time>2026-04-05T13:45:09Z</time></trkpt><trkpt lat="44.53943941074218" lon="8.047158208889813"><ele>713.6666666666666</ele><time>2026-04-05T13:45:10Z</time></trkpt><trkpt lat="44.53959364185777" lon="8.047266974128268"><ele>710.3333333333333</ele><time>2026-04-05T13:45:11Z</time></trkpt><trkpt lat="44.53975975471662" lon="8.047349036658948"><ele>707.0</ele><time>2026-04-05T13:45:12Z</time></trkpt><trkpt lat="44.53993618877004" lon="8.047411482384703"><ele>707.0</ele><time>2026-04-05T13:45:13Z</time></trkpt><trkpt lat="44.540123337775654" lon="8.04745672549799"><ele>707.0</ele><time>2026-04-05T13:45:14Z</time></trkpt><trkpt lat="44.54029044955" lon="8.047501067900836"><ele>707.0</ele><time>2026-04-05T13:45:15Z</time></trkpt><trkpt lat="44.54044194391325" lon="8.047544347619928"><ele>709.75</ele><time>2026-04-05T13:45:16Z</time></trkpt><trkpt lat="44.54058229879111" lon="8.047593355998336"><ele>712.5</ele><time>2026-04-05T13:45:17Z</time></trkpt><trkpt lat="44.54070438957033" lon="8.047636652052729"><ele>715.25</ele><time>2026-04-05T13:45:18Z</time></trkpt><trkpt lat="44.54081188725763" lon="8.047687674366548"><ele>718.0</ele><time>2026-04-05T13:45:19Z</time></trkpt><trkpt lat="44.54090194581676" lon="8.047775724333995"><ele>718.0</ele><time>2026-04-05T13:45:20Z</time></trkpt><trkpt lat="44.540967810479835" lon="8.047888620984523"><ele>718.0</ele><time>2026-04-05T13:45:21Z</time></trkpt><trkpt lat="44.54100730774487" lon="8.048040048497912"><ele>718.0</ele><time>2026-04-05T13:45:21.999Z</time></trkpt><trkpt lat="44.54102026274637" lon="8.048211799366639"><ele>718.0</ele><time>2026-04-05T13:45:22.999Z</time></trkpt><trkpt lat="44.5409733064691" lon="8.048386329078996"><ele>721.3333333333334</ele><time>2026-04-05T13:45:23.999Z</time></trkpt><trkpt lat="44.54093910034332" lon="8.048574174857238"><ele>724.6666666666666</ele><time>2026-04-05T13:45:24.999Z</time></trkpt><trkpt lat="44.54087566081424" lon="8.048774069196698"><ele>728.0</ele><time>2026-04-05T13:45:25.999Z</time></trkpt><trkpt lat="44.54081911764816" lon="8.048999317568388"><ele>728.3333333333333</ele><time>2026-04-05T13:45:26.999Z</time></trkpt><trkpt lat="44.54076312809856" lon="8.049252216057797"><ele>728.6666666666666</ele><time>2026-04-05T13:45:27.999Z</time></trkpt><trkpt lat="44.540709297808" lon="8.049524967507136"><ele>729.0</ele><time>2026-04-05T13:45:28.999Z</time></trkpt><trkpt lat="44.54064946658011" lon="8.049813715615176"><ele>726.3333333333334</ele><time>2026-04-05T13:45:29.999Z</time></trkpt><trkpt lat="44.540591971514075" lon="8.050079447900325"><ele>723.6666666666667</ele><time>2026-04-05T13:45:30.999Z</time></trkpt><trkpt lat="44.54053707787382" lon="8.050319116411716"><ele>721.0</ele><time>2026-04-05T13:45:31.999Z</time></trkpt><trkpt lat="44.540479557653086" lon="8.050539264874967"><ele>721.0</ele><time>2026-04-05T13:45:32.999Z</time></trkpt><trkpt lat="44.54040765106184" lon="8.05076620018282"><ele>721.0</ele><time>2026-04-05T13:45:33.999Z</time></trkpt><trkpt lat="44.54032410565134" lon="8.050993224592283"><ele>721.0</ele><time>2026-04-05T13:45:34.999Z</time></trkpt><trkpt lat="44.5402364515775" lon="8.05122988143753"><ele>723.6666666666667</ele><time>2026-04-05T13:45:35.999Z</time></trkpt><trkpt lat="44.54014942957389" lon="8.051461384369164"><ele>726.3333333333334</ele><time>2026-04-05T13:45:36.999Z</time></trkpt><trkpt lat="44.54006433000398" lon="8.051694779994946"><ele>729.0</ele><time>2026-04-05T13:45:37.999Z</time></trkpt><trkpt lat="44.539984245939436" lon="8.051914729138888"><ele>729.0</ele><time>2026-04-05T13:45:38.999Z</time></trkpt><trkpt lat="44.53990302041652" lon="8.052123604052378"><ele>729.0</ele><time>2026-04-05T13:45:39.999Z</time></trkpt><trkpt lat="44.53983467083216" lon="8.052313519693453"><ele>729.0</ele><time>2026-04-05T13:45:40.999Z</time></trkpt><trkpt lat="44.539777389759784" lon="8.052486921435468"><ele>727.5</ele><time>2026-04-05T13:45:41.999Z</time></trkpt><trkpt lat="44.53973707551172" lon="8.052662663369619"><ele>726.0</ele><time>2026-04-05T13:45:42.999Z</time></trkpt><trkpt lat="44.53971771505648" lon="8.052853124776187"><ele>724.5</ele><time>2026-04-05T13:45:43.999Z</time></trkpt><trkpt lat="44.53973833306937" lon="8.05303270292398"><ele>723.0</ele><time>2026-04-05T13:45:44.999Z</time></trkpt><trkpt lat="44.539778085715376" lon="8.053244640196255"><ele>723.3333333333334</ele><time>2026-04-05T13:45:45.999Z</time></trkpt><trkpt lat="44.539844948981425" lon="8.053439166667197"><ele>723.6666666666667</ele><time>2026-04-05T13:45:46.999Z</time></trkpt><trkpt lat="44.53993473794131" lon="8.053621377743601"><ele>724.0</ele><time>2026-04-05T13:45:47.999Z</time></trkpt><trkpt lat="44.54004144844589" lon="8.053780270139653"><ele>724.0</ele><time>2026-04-05T13:45:48.999Z</time></trkpt><trkpt lat="44.54016679606956" lon="8.053911527121759"><ele>724.0</ele><time>2026-04-05T13:45:49.999Z</time></trkpt><trkpt lat="44.54030966675473" lon="8.054026168308285"><ele>724.0</ele><time>2026-04-05T13:45:50.999Z</time></trkpt><trkpt lat="44.54044085014827" lon="8.054155434316879"><ele>722.6666666666667</ele><time>2026-04-05T13:45:51.999Z</time></trkpt><trkpt lat="44.54057109360953" lon="8.054278959401657"><ele>721.3333333333334</ele><time>2026-04-05T13:45:52.999Z</time></trkpt><trkpt lat="44.540695891715316" lon="8.054386614708301"><ele>720.0</ele><time>2026-04-05T13:45:53.999Z</time></trkpt><trkpt lat="44.54080330720623" lon="8.05453593829027"><ele>720.0</ele><time>2026-04-05T13:45:54.999Z</time></trkpt><trkpt lat="44.540893597502" lon="8.05473260403423"><ele>720.0</ele><time>2026-04-05T13:45:55.999Z</time></trkpt><trkpt lat="44.54098985282443" lon="8.054936636601045"><ele>720.0</ele><time>2026-04-05T13:45:56.999Z</time></trkpt><trkpt lat="44.54110922402114" lon="8.055150544826278"><ele>719.0</ele><time>2026-04-05T13:45:57.999Z</time></trkpt><trkpt lat="44.54122274116147" lon="8.055383082534549"><ele>718.0</ele><time>2026-04-05T13:45:58.999Z</time></trkpt><trkpt lat="44.54132682458322" lon="8.055603555824197"><ele>717.0</ele><time>2026-04-05T13:45:59.999Z</time></trkpt><trkpt lat="44.54142763743398" lon="8.055811910233995"><ele>720.0</ele><time>2026-04-05T13:46:00.999Z</time></trkpt><trkpt lat="44.541525901226436" lon="8.056004823559372"><ele>723.0</ele><time>2026-04-05T13:46:01.999Z</time></trkpt><trkpt lat="44.54164602251031" lon="8.056192047521685"><ele>726.0</ele><time>2026-04-05T13:46:02.999Z</time></trkpt><trkpt lat="44.54179619230429" lon="8.056371061312724"><ele>726.0</ele><time>2026-04-05T13:46:03.999Z</time></trkpt><trkpt lat="44.54196428734523" lon="8.056537093370629"><ele>726.0</ele><time>2026-04-05T13:46:04.999Z</time></trkpt><trkpt lat="44.542133099551066" lon="8.056694509880309"><ele>726.0</ele><time>2026-04-05T13:46:05.999Z</time></trkpt><trkpt lat="44.54228846788588" lon="8.056836777147748"><ele>726.6666666666666</ele><time>2026-04-05T13:46:06.999Z</time></trkpt><trkpt lat="44.542440368934805" lon="8.056964829353246"><ele>727.3333333333333</ele><time>2026-04-05T13:46:07.999Z</time></trkpt><trkpt lat="44.542605190763624" lon="8.057066094513438"><ele>728.0</ele><time>2026-04-05T13:46:08.999Z</time></trkpt><trkpt lat="44.54278509736995" lon="8.057149813904516"><ele>725.6666666666666</ele><time>2026-04-05T13:46:09.999Z</time></trkpt><trkpt lat="44.54297008835552" lon="8.0572065304119"><ele>723.3333333333334</ele><time>2026-04-05T13:46:10.999Z</time></trkpt><trkpt lat="44.54316076258739" lon="8.057241823463894"><ele>721.0</ele><time>2026-04-05T13:46:11.999Z</time></trkpt><trkpt lat="44.54334698328016" lon="8.057262045357023"><ele>721.0</ele><time>2026-04-05T13:46:12.999Z</time></trkpt><trkpt lat="44.5435240353595" lon="8.057253167320471"><ele>721.0</ele><time>2026-04-05T13:46:13.999Z</time></trkpt><trkpt lat="44.54368918626104" lon="8.057232855550229"><ele>721.0</ele><time>2026-04-05T13:46:14.999Z</time></trkpt><trkpt lat="44.543835819735904" lon="8.057222961754327"><ele>721.0</ele><time>2026-04-05T13:46:15.999Z</time></trkpt><trkpt lat="44.543987804819714" lon="8.057230138533713"><ele>721.0</ele><time>2026-04-05T13:46:16.999Z</time></trkpt><trkpt lat="44.544128254044416" lon="8.057263914781393"><ele>721.0</ele><time>2026-04-05T13:46:17.999Z</time></trkpt><trkpt lat="44.544265769310286" lon="8.057329192770638"><ele>721.0</ele><time>2026-04-05T13:46:18.999Z</time></trkpt><trkpt lat="44.544392210404574" lon="8.057460603493412"><ele>721.6666666666667</ele><time>2026-04-05T13:46:19.999Z</time></trkpt><trkpt lat="44.54452945711653" lon="8.057604009579263"><ele>722.3333333333334</ele><time>2026-04-05T13:46:20.999Z</time></trkpt><trkpt lat="44.54466456590508" lon="8.057748200900141"><ele>723.0</ele><time>2026-04-05T13:46:21.999Z</time></trkpt><trkpt lat="44.544818178929596" lon="8.057851818455868"><ele>723.0</ele><time>2026-04-05T13:46:22.998Z</time></trkpt><trkpt lat="44.54497205467295" lon="8.057944646949753"><ele>723.0</ele><time>2026-04-05T13:46:23.998Z</time></trkpt><trkpt lat="44.54513274761224" lon="8.058013124266468"><ele>723.0</ele><time>2026-04-05T13:46:24.998Z</time></trkpt><trkpt lat="44.545300696100284" lon="8.058094142643169"><ele>721.6666666666666</ele><time>2026-04-05T13:46:25.998Z</time></trkpt><trkpt lat="44.54546537599799" lon="8.058195476978286"><ele>720.3333333333333</ele><time>2026-04-05T13:46:26.998Z</time></trkpt><trkpt lat="44.54561677330862" lon="8.058346317870493"><ele>719.0</ele><time>2026-04-05T13:46:27.998Z</time></trkpt><trkpt lat="44.54577322323594" lon="8.058499274264912"><ele>721.6666666666666</ele><time>2026-04-05T13:46:28.998Z</time></trkpt><trkpt lat="44.545930539002924" lon="8.058636495833625"><ele>724.3333333333334</ele><time>2026-04-05T13:46:29.998Z</time></trkpt><trkpt lat="44.54607023775027" lon="8.058785652118006"><ele>727.0</ele><time>2026-04-05T13:46:30.998Z</time></trkpt><trkpt lat="44.54618998319258" lon="8.058936103855617"><ele>727.75</ele><time>2026-04-05T13:46:31.998Z</time></trkpt><trkpt lat="44.54631778313314" lon="8.05904980109756"><ele>728.5</ele><time>2026-04-05T13:46:32.998Z</time></trkpt><trkpt lat="44.54643605297296" lon="8.059162872267063"><ele>729.25</ele><time>2026-04-05T13:46:33.998Z</time></trkpt><trkpt lat="44.54655209936437" lon="8.059259902610023"><ele>730.0</ele><time>2026-04-05T13:46:34.998Z</time></trkpt><trkpt lat="44.54666645086374" lon="8.059322151829775"><ele>730.0</ele><time>2026-04-05T13:46:35.998Z</time></trkpt><trkpt lat="44.546798998052815" lon="8.059343864836482"><ele>730.0</ele><time>2026-04-05T13:46:36.998Z</time></trkpt><trkpt lat="44.54694951772556" lon="8.05933690136281"><ele>730.0</ele><time>2026-04-05T13:46:37.998Z</time></trkpt><trkpt lat="44.547110337022254" lon="8.059322736813769"><ele>730.0</ele><time>2026-04-05T13:46:38.998Z</time></trkpt><trkpt lat="44.54727082647423" lon="8.0593173944994"><ele>730.6666666666667</ele><time>2026-04-05T13:46:39.998Z</time></trkpt><trkpt lat="44.54742807260656" lon="8.059342112715616"><ele>731.3333333333334</ele><time>2026-04-05T13:46:40.998Z</time></trkpt><trkpt lat="44.54758672863955" lon="8.059410669598455"><ele>732.0</ele><time>2026-04-05T13:46:41.998Z</time></trkpt><trkpt lat="44.54773639425685" lon="8.059505411360876"><ele>732.0</ele><time>2026-04-05T13:46:42.998Z</time></trkpt><trkpt lat="44.54788394617925" lon="8.059627323475556"><ele>732.0</ele><time>2026-04-05T13:46:43.998Z</time></trkpt><trkpt lat="44.54802378379878" lon="8.059768943839968"><ele>732.0</ele><time>2026-04-05T13:46:44.998Z</time></trkpt><trkpt lat="44.54816450303305" lon="8.059922150321682"><ele>731.3333333333334</ele><time>2026-04-05T13:46:45.998Z</time></trkpt><trkpt lat="44.54829682703366" lon="8.060079851218863"><ele>730.6666666666667</ele><time>2026-04-05T13:46:46.998Z</time></trkpt><trkpt lat="44.54841676866522" lon="8.060229313179116"><ele>730.0</ele><time>2026-04-05T13:46:48Z</time></trkpt><trkpt lat="44.54853540378353" lon="8.060358892511958"><ele>730.0</ele><time>2026-04-05T13:46:49Z</time></trkpt><trkpt lat="44.54865759767893" lon="8.06045853102215"><ele>730.0</ele><time>2026-04-05T13:46:50Z</time></trkpt><trkpt lat="44.54879040191466" lon="8.060525202883863"><ele>730.0</ele><time>2026-04-05T13:46:51Z</time></trkpt><trkpt lat="44.54893563958903" lon="8.060554180911586"><ele>730.0</ele><time>2026-04-05T13:46:52Z</time></trkpt><trkpt lat="44.54908939569384" lon="8.060541709474075"><ele>729.25</ele><time>2026-04-05T13:46:53Z</time></trkpt><trkpt lat="44.54923062026384" lon="8.060520505591889"><ele>728.5</ele><time>2026-04-05T13:46:54Z</time></trkpt><trkpt lat="44.549358533533784" lon="8.060528001284025"><ele>727.75</ele><time>2026-04-05T13:46:55Z</time></trkpt><trkpt lat="44.54947302274149" lon="8.060576603285417"><ele>727.0</ele><time>2026-04-05T13:46:56Z</time></trkpt><trkpt lat="44.54957774664663" lon="8.060652250383313"><ele>726.5</ele><time>2026-04-05T13:46:57Z</time></trkpt><trkpt lat="44.54966106833449" lon="8.060788059657563"><ele>726.0</ele><time>2026-04-05T13:46:58Z</time></trkpt><trkpt lat="44.54975209172121" lon="8.060931749800979"><ele>725.5</ele><time>2026-04-05T13:46:59Z</time></trkpt><trkpt lat="44.549852733664174" lon="8.061084837758346"><ele>725.0</ele><time>2026-04-05T13:47:00Z</time></trkpt><trkpt lat="44.54994742861366" lon="8.061245414888761"><ele>725.0</ele><time>2026-04-05T13:47:01Z</time></trkpt><trkpt lat="44.55004095571214" lon="8.061388157710711"><ele>725.0</ele><time>2026-04-05T13:47:02Z</time></trkpt><trkpt lat="44.550140076705325" lon="8.061502520941593"><ele>725.0</ele><time>2026-04-05T13:47:03Z</time></trkpt><trkpt lat="44.55026386322914" lon="8.061594503255787"><ele>725.0</ele><time>2026-04-05T13:47:04Z</time></trkpt><trkpt lat="44.55041061609527" lon="8.061650969716585"><ele>726.6666666666666</ele><time>2026-04-05T13:47:05Z</time></trkpt><trkpt lat="44.55057346876445" lon="8.061685589159369"><ele>728.3333333333334</ele><time>2026-04-05T13:47:06Z</time></trkpt><trkpt lat="44.5507438701002" lon="8.061708600144815"><ele>730.0</ele><time>2026-04-05T13:47:07Z</time></trkpt><trkpt lat="44.550893186869494" lon="8.061737255895402"><ele>730.0</ele><time>2026-04-05T13:47:08Z</time></trkpt><trkpt lat="44.55102789257106" lon="8.061766608628133"><ele>730.0</ele><time>2026-04-05T13:47:09Z</time></trkpt><trkpt lat="44.55115038770828" lon="8.061802874921687"><ele>730.0</ele><time>2026-04-05T13:47:10Z</time></trkpt><trkpt lat="44.55126918368883" lon="8.061856922078672"><ele>730.0</ele><time>2026-04-05T13:47:11Z</time></trkpt><trkpt lat="44.55139114487885" lon="8.061942431651897"><ele>728.3333333333334</ele><time>2026-04-05T13:47:12Z</time></trkpt><trkpt lat="44.55151825563848" lon="8.062056486138088"><ele>726.6666666666666</ele><time>2026-04-05T13:47:13Z</time></trkpt><trkpt lat="44.551646388699545" lon="8.06220032089622"><ele>725.0</ele><time>2026-04-05T13:47:14Z</time></trkpt><trkpt lat="44.551774395406284" lon="8.06235510953576"><ele>726.6666666666666</ele><time>2026-04-05T13:47:15Z</time></trkpt><trkpt lat="44.55190854707395" lon="8.062513030325821"><ele>728.3333333333334</ele><time>2026-04-05T13:47:16Z</time></trkpt><trkpt lat="44.55204244866557" lon="8.062666682440161"><ele>730.0</ele><time>2026-04-05T13:47:17Z</time></trkpt><trkpt lat="44.552166418152495" lon="8.062800280424478"><ele>730.0</ele><time>2026-04-05T13:47:18Z</time></trkpt><trkpt lat="44.55228398830508" lon="8.062923752743673"><ele>730.0</ele><time>2026-04-05T13:47:19Z</time></trkpt><trkpt lat="44.5523912040578" lon="8.063023396754003"><ele>730.0</ele><time>2026-04-05T13:47:20Z</time></trkpt><trkpt lat="44.55249893362818" lon="8.06309061984395"><ele>730.0</ele><time>2026-04-05T13:47:21Z</time></trkpt><trkpt lat="44.552614102902496" lon="8.063122381877987"><ele>730.0</ele><time>2026-04-05T13:47:22Z</time></trkpt><trkpt lat="44.55273981608906" lon="8.063111573913792"><ele>730.0</ele><time>2026-04-05T13:47:23Z</time></trkpt><trkpt lat="44.55287204934857" lon="8.063051585756888"><ele>730.0</ele><time>2026-04-05T13:47:24Z</time></trkpt><trkpt lat="44.553012842946195" lon="8.062963017320731"><ele>730.0</ele><time>2026-04-05T13:47:25Z</time></trkpt><trkpt lat="44.553158548340285" lon="8.06286600574474"><ele>730.6666666666667</ele><time>2026-04-05T13:47:26Z</time></trkpt><trkpt lat="44.55332260726199" lon="8.062797416809898"><ele>731.3333333333334</ele><time>2026-04-05T13:47:27Z</time></trkpt><trkpt lat="44.55346468176218" lon="8.06269408017581"><ele>732.0</ele><time>2026-04-05T13:47:28Z</time></trkpt><trkpt lat="44.55359856159247" lon="8.062619897958486"><ele>731.75</ele><time>2026-04-05T13:47:28.999Z</time></trkpt><trkpt lat="44.553726220517326" lon="8.062574962557786"><ele>731.5</ele><time>2026-04-05T13:47:29.999Z</time></trkpt><trkpt lat="44.55383628924023" lon="8.062507323204521"><ele>731.25</ele><time>2026-04-05T13:47:30.999Z</time></trkpt><trkpt lat="44.55395763092034" lon="8.062489500466981"><ele>731.0</ele><time>2026-04-05T13:47:31.999Z</time></trkpt><trkpt lat="44.55409741759608" lon="8.062506940754165"><ele>731.0</ele><time>2026-04-05T13:47:32.999Z</time></trkpt><trkpt lat="44.554243261960494" lon="8.062548068142918"><ele>731.0</ele><time>2026-04-05T13:47:33.999Z</time></trkpt><trkpt lat="44.55439421968728" lon="8.062599561254716"><ele>731.0</ele><time>2026-04-05T13:47:34.999Z</time></trkpt><trkpt lat="44.55454464704761" lon="8.062623210333955"><ele>731.75</ele><time>2026-04-05T13:47:35.999Z</time></trkpt><trkpt lat="44.554689535456816" lon="8.06261320562128"><ele>732.5</ele><time>2026-04-05T13:47:36.999Z</time></trkpt><trkpt lat="44.55482563887909" lon="8.06256971933362"><ele>733.25</ele><time>2026-04-05T13:47:37.999Z</time></trkpt><trkpt lat="44.5549562304445" lon="8.06249412524285"><ele>734.0</ele><time>2026-04-05T13:47:38.999Z</time></trkpt><trkpt lat="44.55507175058231" lon="8.062370404533405"><ele>731.0</ele><time>2026-04-05T13:47:39.999Z</time></trkpt><trkpt lat="44.5551862070665" lon="8.06222933064407"><ele>728.0</ele><time>2026-04-05T13:47:40.999Z</time></trkpt><trkpt lat="44.555287311302834" lon="8.062054323513768"><ele>725.0</ele><time>2026-04-05T13:47:41.999Z</time></trkpt><trkpt lat="44.555377394117706" lon="8.061860252192618"><ele>729.3333333333333</ele><time>2026-04-05T13:47:42.999Z</time></trkpt><trkpt lat="44.55546086947576" lon="8.061648625677405"><ele>733.6666666666666</ele><time>2026-04-05T13:47:43.999Z</time></trkpt><trkpt lat="44.5555476121397" lon="8.061446681000987"><ele>738.0</ele><time>2026-04-05T13:47:44.999Z</time></trkpt><trkpt lat="44.55561756017881" lon="8.061267775090414"><ele>738.0</ele><time>2026-04-05T13:47:45.999Z</time></trkpt><trkpt lat="44.55568571102475" lon="8.061098592243724"><ele>738.0</ele><time>2026-04-05T13:47:46.999Z</time></trkpt><trkpt lat="44.55575030655564" lon="8.060943062243487"><ele>738.0</ele><time>2026-04-05T13:47:47.999Z</time></trkpt><trkpt lat="44.55582976173118" lon="8.060813297831784"><ele>738.0</ele><time>2026-04-05T13:47:48.999Z</time></trkpt><trkpt lat="44.555891614594486" lon="8.06067275352431"><ele>736.0</ele><time>2026-04-05T13:47:49.999Z</time></trkpt><trkpt lat="44.55598793624612" lon="8.060550640826856"><ele>734.0</ele><time>2026-04-05T13:47:50.999Z</time></trkpt><trkpt lat="44.556110325582836" lon="8.060469316457606"><ele>732.0</ele><time>2026-04-05T13:47:51.999Z</time></trkpt><trkpt lat="44.55623865195905" lon="8.06040070657616"><ele>730.0</ele><time>2026-04-05T13:47:52.999Z</time></trkpt><trkpt lat="44.55637367029028" lon="8.060352922936595"><ele>730.0</ele><time>2026-04-05T13:47:53.999Z</time></trkpt><trkpt lat="44.556497551410686" lon="8.060287193062395"><ele>730.0</ele><time>2026-04-05T13:47:54.999Z</time></trkpt><trkpt lat="44.55661427080676" lon="8.060265487998242"><ele>730.0</ele><time>2026-04-05T13:47:55.999Z</time></trkpt><trkpt lat="44.556719966095194" lon="8.060230807809557"><ele>730.0</ele><time>2026-04-05T13:47:56.999Z</time></trkpt><trkpt lat="44.55681588690264" lon="8.0601837769625"><ele>730.0</ele><time>2026-04-05T13:47:57.999Z</time></trkpt><trkpt lat="44.556900502950896" lon="8.060135965198798"><ele>730.0</ele><time>2026-04-05T13:47:58.999Z</time></trkpt><trkpt lat="44.55698003022453" lon="8.06009106296897"><ele>730.0</ele><time>2026-04-05T13:47:59.999Z</time></trkpt><trkpt lat="44.55706499577571" lon="8.060040980199334"><ele>730.0</ele><time>2026-04-05T13:48:00.999Z</time></trkpt><trkpt lat="44.55715888486828" lon="8.0599862785529"><ele>730.0</ele><time>2026-04-05T13:48:01.999Z</time></trkpt><trkpt lat="44.55726514206477" lon="8.059943944221633"><ele>728.25</ele><time>2026-04-05T13:48:02.999Z</time></trkpt><trkpt lat="44.55737356297236" lon="8.059885345600815"><ele>726.5</ele><time>2026-04-05T13:48:03.999Z</time></trkpt><trkpt lat="44.55748039622607" lon="8.059810287378555"><ele>724.75</ele><time>2026-04-05T13:48:04.999Z</time></trkpt><trkpt lat="44.55759739746709" lon="8.059743393840195"><ele>723.0</ele><time>2026-04-05T13:48:05.999Z</time></trkpt><trkpt lat="44.55771155468193" lon="8.059687617756156"><ele>723.0</ele><time>2026-04-05T13:48:06.999Z</time></trkpt><trkpt lat="44.557820197389525" lon="8.059636653126077"><ele>723.0</ele><time>2026-04-05T13:48:07.999Z</time></trkpt><trkpt lat="44.557935195663646" lon="8.059624004885567"><ele>723.0</ele><time>2026-04-05T13:48:08.999Z</time></trkpt><trkpt lat="44.558059271673756" lon="8.059630994677635"><ele>723.0</ele><time>2026-04-05T13:48:09.999Z</time></trkpt><trkpt lat="44.55818880205419" lon="8.059648860547284"><ele>725.75</ele><time>2026-04-05T13:48:10.999Z</time></trkpt><trkpt lat="44.55831485483832" lon="8.059689768808346"><ele>728.5</ele><time>2026-04-05T13:48:11.999Z</time></trkpt><trkpt lat="44.55842368915722" lon="8.059711043459341"><ele>731.25</ele><time>2026-04-05T13:48:12.999Z</time></trkpt><trkpt lat="44.55852954904576" lon="8.059719196777772"><ele>734.0</ele><time>2026-04-05T13:48:13.999Z</time></trkpt><trkpt lat="44.5586601694184" lon="8.059711539737789"><ele>736.3333333333333</ele><time>2026-04-05T13:48:14.999Z</time></trkpt><trkpt lat="44.55880558386467" lon="8.059660431497234"><ele>738.6666666666666</ele><time>2026-04-05T13:48:15.999Z</time></trkpt><trkpt lat="44.55896110596167" lon="8.059605795599962"><ele>741.0</ele><time>2026-04-05T13:48:16.999Z</time></trkpt><trkpt lat="44.55912402271484" lon="8.05953704344332"><ele>741.0</ele><time>2026-04-05T13:48:17.999Z</time></trkpt><trkpt lat="44.5592968194378" lon="8.059457068201256"><ele>741.0</ele><time>2026-04-05T13:48:18.999Z</time></trkpt><trkpt lat="44.55947179804125" lon="8.05937648984056"><ele>741.0</ele><time>2026-04-05T13:48:19.999Z</time></trkpt><trkpt lat="44.559637053227156" lon="8.059334322642844"><ele>740.0</ele><time>2026-04-05T13:48:20.999Z</time></trkpt><trkpt lat="44.55979182567837" lon="8.059251436420428"><ele>739.0</ele><time>2026-04-05T13:48:21.999Z</time></trkpt><trkpt lat="44.55995755212112" lon="8.059198005754094"><ele>738.0</ele><time>2026-04-05T13:48:22.999Z</time></trkpt><trkpt lat="44.56011585241046" lon="8.059155736360239"><ele>738.0</ele><time>2026-04-05T13:48:23.999Z</time></trkpt><trkpt lat="44.560275369395754" lon="8.059128417616403"><ele>738.0</ele><time>2026-04-05T13:48:24.999Z</time></trkpt><trkpt lat="44.56042487671507" lon="8.059106603102629"><ele>738.0</ele><time>2026-04-05T13:48:25.999Z</time></trkpt><trkpt lat="44.56056278083895" lon="8.059084491442123"><ele>742.5</ele><time>2026-04-05T13:48:26.999Z</time></trkpt><trkpt lat="44.56069051741013" lon="8.059081360055433"><ele>747.0</ele><time>2026-04-05T13:48:27.999Z</time></trkpt><trkpt lat="44.56080384791203" lon="8.05906404785073"><ele>751.5</ele><time>2026-04-05T13:48:28.999Z</time></trkpt><trkpt lat="44.56091082602618" lon="8.059050345811254"><ele>756.0</ele><time>2026-04-05T13:48:29.999Z</time></trkpt><trkpt lat="44.561017665463396" lon="8.059038149204692"><ele>756.0</ele><time>2026-04-05T13:48:30.998Z</time></trkpt><trkpt lat="44.561121307289866" lon="8.059066785620958"><ele>756.0</ele><time>2026-04-05T13:48:31.998Z</time></trkpt><trkpt lat="44.561240959020466" lon="8.059163956985318"><ele>756.0</ele><time>2026-04-05T13:48:32.998Z</time></trkpt><trkpt lat="44.56135190155969" lon="8.059292226675048"><ele>756.0</ele><time>2026-04-05T13:48:33.998Z</time></trkpt><trkpt lat="44.56146734449276" lon="8.059446663668409"><ele>751.25</ele><time>2026-04-05T13:48:34.998Z</time></trkpt><trkpt lat="44.56157271495001" lon="8.059636734769516"><ele>746.5</ele><time>2026-04-05T13:48:35.998Z</time></trkpt><trkpt lat="44.56159479929586" lon="8.059539267788283"><ele>741.75</ele><time>2026-04-05T13:48:36.998Z</time></trkpt><trkpt lat="44.56165300909576" lon="8.059690461675567"><ele>737.0</ele><time>2026-04-05T13:48:37.998Z</time></trkpt><trkpt lat="44.56170588745862" lon="8.059849970733032"><ele>733.5</ele><time>2026-04-05T13:48:38.998Z</time></trkpt><trkpt lat="44.56177798683677" lon="8.059991312981532"><ele>730.0</ele><time>2026-04-05T13:48:39.998Z</time></trkpt><trkpt lat="44.56186445578531" lon="8.060088443772896"><ele>726.5</ele><time>2026-04-05T13:48:40.998Z</time></trkpt><trkpt lat="44.56197481647367" lon="8.060135042359978"><ele>723.0</ele><time>2026-04-05T13:48:41.998Z</time></trkpt><trkpt lat="44.56207460148946" lon="8.060172080055139"><ele>723.0</ele><time>2026-04-05T13:48:42.998Z</time></trkpt><trkpt lat="44.56217346230075" lon="8.06019111075239"><ele>723.0</ele><time>2026-04-05T13:48:43.998Z</time></trkpt><trkpt lat="44.562271153470334" lon="8.060217555757182"><ele>723.0</ele><time>2026-04-05T13:48:44.998Z</time></trkpt><trkpt lat="44.56237040872469" lon="8.060229836615392"><ele>723.0</ele><time>2026-04-05T13:48:45.998Z</time></trkpt><trkpt lat="44.56246278694965" lon="8.060244124015377"><ele>723.0</ele><time>2026-04-05T13:48:46.998Z</time></trkpt><trkpt lat="44.562556805271775" lon="8.060265942140495"><ele>723.0</ele><time>2026-04-05T13:48:47.998Z</time></trkpt><trkpt lat="44.56264999265947" lon="8.060315346348109"><ele>723.0</ele><time>2026-04-05T13:48:48.998Z</time></trkpt><trkpt lat="44.56273023564848" lon="8.060396509069276"><ele>723.0</ele><time>2026-04-05T13:48:49.998Z</time></trkpt><trkpt lat="44.56281418982026" lon="8.06047056418083"><ele>723.0</ele><time>2026-04-05T13:48:50.998Z</time></trkpt><trkpt lat="44.56290065582979" lon="8.060553374367483"><ele>723.0</ele><time>2026-04-05T13:48:51.998Z</time></trkpt><trkpt lat="44.56299091551726" lon="8.06064282375046"><ele>721.25</ele><time>2026-04-05T13:48:52.998Z</time></trkpt><trkpt lat="44.56308516094615" lon="8.060735871254318"><ele>719.5</ele><time>2026-04-05T13:48:54Z</time></trkpt><trkpt lat="44.56318178681845" lon="8.060831268937013"><ele>717.75</ele><time>2026-04-05T13:48:55Z</time></trkpt><trkpt lat="44.563284832563525" lon="8.060905666773502"><ele>716.0</ele><time>2026-04-05T13:48:56Z</time></trkpt><trkpt lat="44.563377300369275" lon="8.061004651332112"><ele>716.0</ele><time>2026-04-05T13:48:57Z</time></trkpt><trkpt lat="44.56347061537366" lon="8.061097099598962"><ele>716.0</ele><time>2026-04-05T13:48:58Z</time></trkpt><trkpt lat="44.5635678939706" lon="8.06118987450455"><ele>716.0</ele><time>2026-04-05T13:48:59Z</time></trkpt><trkpt lat="44.56366415229488" lon="8.061281862459857"><ele>716.0</ele><time>2026-04-05T13:49:00Z</time></trkpt><trkpt lat="44.56375581302817" lon="8.06137723550841"><ele>716.25</ele><time>2026-04-05T13:49:01Z</time></trkpt><trkpt lat="44.56385045015436" lon="8.061467441280236"><ele>716.5</ele><time>2026-04-05T13:49:02Z</time></trkpt><trkpt lat="44.56395118525237" lon="8.061554094263123"><ele>716.75</ele><time>2026-04-05T13:49:03Z</time></trkpt><trkpt lat="44.56403621101734" lon="8.061674706910104"><ele>717.0</ele><time>2026-04-05T13:49:04Z</time></trkpt><trkpt lat="44.56414109803881" lon="8.06177827123615"><ele>717.0</ele><time>2026-04-05T13:49:05Z</time></trkpt><trkpt lat="44.56425417413618" lon="8.061866854376822"><ele>717.0</ele><time>2026-04-05T13:49:06Z</time></trkpt><trkpt lat="44.56435185065956" lon="8.06198009110778"><ele>717.0</ele><time>2026-04-05T13:49:07Z</time></trkpt><trkpt lat="44.56446484355787" lon="8.062092544294467"><ele>717.0</ele><time>2026-04-05T13:49:08Z</time></trkpt><trkpt lat="44.564588754955636" lon="8.062212879596988"><ele>716.3333333333334</ele><time>2026-04-05T13:49:09Z</time></trkpt><trkpt lat="44.56471400505625" lon="8.062338860576718"><ele>715.6666666666667</ele><time>2026-04-05T13:49:10Z</time></trkpt><trkpt lat="44.56484881971807" lon="8.06246960148872"><ele>715.0</ele><time>2026-04-05T13:49:11Z</time></trkpt><trkpt lat="44.56498109679163" lon="8.062599189297854"><ele>715.0</ele><time>2026-04-05T13:49:12Z</time></trkpt><trkpt lat="44.5651121256158" lon="8.062723120092631"><ele>715.0</ele><time>2026-04-05T13:49:13Z</time></trkpt><trkpt lat="44.5652366209497" lon="8.06283922278608"><ele>715.0</ele><time>2026-04-05T13:49:14Z</time></trkpt><trkpt lat="44.56534749987609" lon="8.062948676402236"><ele>715.0</ele><time>2026-04-05T13:49:15Z</time></trkpt><trkpt lat="44.5654595560025" lon="8.063040961359524"><ele>713.5</ele><time>2026-04-05T13:49:16Z</time></trkpt><trkpt lat="44.565566555101874" lon="8.06312621858566"><ele>712.0</ele><time>2026-04-05T13:49:17Z</time></trkpt><trkpt lat="44.56571092862152" lon="8.0631865993689"><ele>710.5</ele><time>2026-04-05T13:49:18Z</time></trkpt><trkpt lat="44.56587802085418" lon="8.063226823172167"><ele>709.0</ele><time>2026-04-05T13:49:19Z</time></trkpt><trkpt lat="44.566055565212324" lon="8.063232151776074"><ele>708.0</ele><time>2026-04-05T13:49:20Z</time></trkpt><trkpt lat="44.5662306112907" lon="8.063225337798885"><ele>707.0</ele><time>2026-04-05T13:49:21Z</time></trkpt><trkpt lat="44.56639333658415" lon="8.0631943296067"><ele>706.0</ele><time>2026-04-05T13:49:22Z</time></trkpt><trkpt lat="44.566561337041556" lon="8.063120743438194"><ele>706.0</ele><time>2026-04-05T13:49:23Z</time></trkpt><trkpt lat="44.5667327833243" lon="8.063006634685468"><ele>706.0</ele><time>2026-04-05T13:49:24Z</time></trkpt><trkpt lat="44.56690472155773" lon="8.062869087347039"><ele>706.0</ele><time>2026-04-05T13:49:25Z</time></trkpt><trkpt lat="44.56707802983957" lon="8.062740681079903"><ele>704.0</ele><time>2026-04-05T13:49:26Z</time></trkpt><trkpt lat="44.56723759172389" lon="8.06262789176825"><ele>702.0</ele><time>2026-04-05T13:49:27Z</time></trkpt><trkpt lat="44.56738329688686" lon="8.062510687970832"><ele>700.0</ele><time>2026-04-05T13:49:28Z</time></trkpt><trkpt lat="44.56752606058289" lon="8.06237913097661"><ele>700.0</ele><time>2026-04-05T13:49:29Z</time></trkpt><trkpt lat="44.567649979383845" lon="8.062239742900424"><ele>700.0</ele><time>2026-04-05T13:49:30Z</time></trkpt><trkpt lat="44.56776953397383" lon="8.062128110225526"><ele>700.0</ele><time>2026-04-05T13:49:31Z</time></trkpt><trkpt lat="44.567908029738135" lon="8.06205313050733"><ele>702.6666666666667</ele><time>2026-04-05T13:49:32Z</time></trkpt><trkpt lat="44.56806039579565" lon="8.06200042320335"><ele>705.3333333333334</ele><time>2026-04-05T13:49:33Z</time></trkpt><trkpt lat="44.56824103623613" lon="8.0619753119217"><ele>708.0</ele><time>2026-04-05T13:49:34Z</time></trkpt><trkpt lat="44.56842871270251" lon="8.061961159166811"><ele>708.0</ele><time>2026-04-05T13:49:35Z</time></trkpt><trkpt lat="44.5686081935485" lon="8.061947923983059"><ele>708.0</ele><time>2026-04-05T13:49:36Z</time></trkpt><trkpt lat="44.568769005808676" lon="8.061938556211457"><ele>708.0</ele><time>2026-04-05T13:49:37Z</time></trkpt><trkpt lat="44.56891235375676" lon="8.06192569481807"><ele>708.25</ele><time>2026-04-05T13:49:37.999Z</time></trkpt><trkpt lat="44.56904314620875" lon="8.061924400269021"><ele>708.5</ele><time>2026-04-05T13:49:38.999Z</time></trkpt><trkpt lat="44.56916937542605" lon="8.061955574256459"><ele>708.75</ele><time>2026-04-05T13:49:39.999Z</time></trkpt><trkpt lat="44.569304638647566" lon="8.062036720097874"><ele>709.0</ele><time>2026-04-05T13:49:40.999Z</time></trkpt><trkpt lat="44.56941286155738" lon="8.062176578867579"><ele>709.0</ele><time>2026-04-05T13:49:41.999Z</time></trkpt><trkpt lat="44.56951379951533" lon="8.062345007533564"><ele>709.0</ele><time>2026-04-05T13:49:42.999Z</time></trkpt><trkpt lat="44.56961679557458" lon="8.062532819350885"><ele>709.0</ele><time>2026-04-05T13:49:43.999Z</time></trkpt><trkpt lat="44.569732274844505" lon="8.06272517419486"><ele>710.3333333333334</ele><time>2026-04-05T13:49:44.999Z</time></trkpt><trkpt lat="44.569850372200406" lon="8.062955976813184"><ele>711.6666666666666</ele><time>2026-04-05T13:49:45.999Z</time></trkpt><trkpt lat="44.569978638957096" lon="8.063195203415063"><ele>713.0</ele><time>2026-04-05T13:49:46.999Z</time></trkpt><trkpt lat="44.57011280967311" lon="8.063444392681234"><ele>713.0</ele><time>2026-04-05T13:49:47.999Z</time></trkpt><trkpt lat="44.57024125465347" lon="8.063685679293307"><ele>713.0</ele><time>2026-04-05T13:49:48.999Z</time></trkpt><trkpt lat="44.57037356287808" lon="8.0639364753345"><ele>713.0</ele><time>2026-04-05T13:49:49.999Z</time></trkpt><trkpt lat="44.57051256412636" lon="8.064188653005479"><ele>715.3333333333333</ele><time>2026-04-05T13:49:50.999Z</time></trkpt><trkpt lat="44.570643682105306" lon="8.06444227255554"><ele>717.6666666666666</ele><time>2026-04-05T13:49:51.999Z</time></trkpt><trkpt lat="44.57076026564241" lon="8.064672840518385"><ele>720.0</ele><time>2026-04-05T13:49:52.999Z</time></trkpt><trkpt lat="44.5708789080499" lon="8.06489368359242"><ele>719.3333333333334</ele><time>2026-04-05T13:49:53.999Z</time></trkpt><trkpt lat="44.57098996695153" lon="8.06510888664209"><ele>718.6666666666667</ele><time>2026-04-05T13:49:54.999Z</time></trkpt><trkpt lat="44.571091047543355" lon="8.065308770937955"><ele>718.0</ele><time>2026-04-05T13:49:55.999Z</time></trkpt><trkpt lat="44.57118014526512" lon="8.065495562361535"><ele>722.0</ele><time>2026-04-05T13:49:56.999Z</time></trkpt><trkpt lat="44.571239800678626" lon="8.065709543897727"><ele>726.0</ele><time>2026-04-05T13:49:57.999Z</time></trkpt><trkpt lat="44.57128932845659" lon="8.065935991156044"><ele>730.0</ele><time>2026-04-05T13:49:58.999Z</time></trkpt><trkpt lat="44.57134413137715" lon="8.066147663603244"><ele>729.75</ele><time>2026-04-05T13:49:59.999Z</time></trkpt><trkpt lat="44.57138073688904" lon="8.066328820513853"><ele>729.5</ele><time>2026-04-05T13:50:00.999Z</time></trkpt><trkpt lat="44.57142970759695" lon="8.066490552200849"><ele>729.25</ele><time>2026-04-05T13:50:01.999Z</time></trkpt><trkpt lat="44.57150652527339" lon="8.066628982467586"><ele>729.0</ele><time>2026-04-05T13:50:02.999Z</time></trkpt><trkpt lat="44.57161029950226" lon="8.06672958886376"><ele>729.0</ele><time>2026-04-05T13:50:03.999Z</time></trkpt><trkpt lat="44.57173090910833" lon="8.066801882609052"><ele>729.0</ele><time>2026-04-05T13:50:04.999Z</time></trkpt><trkpt lat="44.57186950748157" lon="8.066853701679499"><ele>729.0</ele><time>2026-04-05T13:50:05.999Z</time></trkpt><trkpt lat="44.572045258427764" lon="8.06685139162022"><ele>730.6666666666666</ele><time>2026-04-05T13:50:06.999Z</time></trkpt><trkpt lat="44.57221385438054" lon="8.066896317524641"><ele>732.3333333333333</ele><time>2026-04-05T13:50:07.999Z</time></trkpt><trkpt lat="44.57238255845851" lon="8.066935482070182"><ele>734.0</ele><time>2026-04-05T13:50:08.999Z</time></trkpt><trkpt lat="44.57251642254509" lon="8.066967030623134"><ele>734.0</ele><time>2026-04-05T13:50:09.999Z</time></trkpt><trkpt lat="44.572632661049035" lon="8.067004627372828"><ele>734.0</ele><time>2026-04-05T13:50:10.999Z</time></trkpt><trkpt lat="44.57274562500014" lon="8.06709439629875"><ele>734.0</ele><time>2026-04-05T13:50:11.999Z</time></trkpt><trkpt lat="44.57287071748376" lon="8.067226919604321"><ele>734.0</ele><time>2026-04-05T13:50:12.999Z</time></trkpt><trkpt lat="44.57295916393156" lon="8.067388156366974"><ele>735.0</ele><time>2026-04-05T13:50:13.999Z</time></trkpt><trkpt lat="44.573055534252866" lon="8.067584381042456"><ele>736.0</ele><time>2026-04-05T13:50:14.999Z</time></trkpt><trkpt lat="44.57312192558195" lon="8.067772681551784"><ele>737.0</ele><time>2026-04-05T13:50:15.999Z</time></trkpt><trkpt lat="44.57316350737278" lon="8.067957955332437"><ele>737.0</ele><time>2026-04-05T13:50:16.999Z</time></trkpt><trkpt lat="44.57321335290693" lon="8.068122355184123"><ele>737.0</ele><time>2026-04-05T13:50:17.999Z</time></trkpt><trkpt lat="44.573241111334696" lon="8.068278392307906"><ele>737.0</ele><time>2026-04-05T13:50:18.999Z</time></trkpt><trkpt lat="44.573351480851706" lon="8.068374877057538"><ele>737.0</ele><time>2026-04-05T13:50:19.999Z</time></trkpt><trkpt lat="44.57346577441339" lon="8.068446046014003"><ele>736.5</ele><time>2026-04-05T13:50:20.999Z</time></trkpt><trkpt lat="44.5735955445644" lon="8.068481051676129"><ele>736.0</ele><time>2026-04-05T13:50:21.999Z</time></trkpt><trkpt lat="44.57374013160446" lon="8.068480545756822"><ele>735.5</ele><time>2026-04-05T13:50:22.999Z</time></trkpt><trkpt lat="44.57390746427007" lon="8.068444177943583"><ele>735.0</ele><time>2026-04-05T13:50:23.999Z</time></trkpt><trkpt lat="44.5740725909072" lon="8.06849504467216"><ele>735.0</ele><time>2026-04-05T13:50:24.999Z</time></trkpt><trkpt lat="44.57423406433045" lon="8.068548765028645"><ele>735.0</ele><time>2026-04-05T13:50:25.999Z</time></trkpt><trkpt lat="44.57436644705192" lon="8.068619653974169"><ele>735.0</ele><time>2026-04-05T13:50:26.999Z</time></trkpt><trkpt lat="44.57448491297442" lon="8.068715225747805"><ele>735.0</ele><time>2026-04-05T13:50:27.999Z</time></trkpt><trkpt lat="44.574599940564035" lon="8.068823492621657"><ele>733.6666666666666</ele><time>2026-04-05T13:50:28.999Z</time></trkpt><trkpt lat="44.57470169035865" lon="8.068964470045755"><ele>732.3333333333333</ele><time>2026-04-05T13:50:29.999Z</time></trkpt><trkpt lat="44.57480328817697" lon="8.06913301414137"><ele>731.0</ele><time>2026-04-05T13:50:30.999Z</time></trkpt><trkpt lat="44.57482976916246" lon="8.069349716939179"><ele>731.0</ele><time>2026-04-05T13:50:31.999Z</time></trkpt><trkpt lat="44.574876437946145" lon="8.069534730795288"><ele>731.0</ele><time>2026-04-05T13:50:32.999Z</time></trkpt><trkpt lat="44.5749237058732" lon="8.069703966594785"><ele>731.0</ele><time>2026-04-05T13:50:33.999Z</time></trkpt><trkpt lat="44.57499458160291" lon="8.06987328294665"><ele>731.0</ele><time>2026-04-05T13:50:34.999Z</time></trkpt><trkpt lat="44.57508211336104" lon="8.070034608173415"><ele>729.6666666666666</ele><time>2026-04-05T13:50:35.999Z</time></trkpt><trkpt lat="44.575195838915484" lon="8.070190400463945"><ele>728.3333333333334</ele><time>2026-04-05T13:50:36.999Z</time></trkpt><trkpt lat="44.57533194381651" lon="8.07032818715414"><ele>727.0</ele><time>2026-04-05T13:50:37.999Z</time></trkpt><trkpt lat="44.57547369791057" lon="8.070458362768738"><ele>727.0</ele><time>2026-04-05T13:50:38.998Z</time></trkpt><trkpt lat="44.57560355651585" lon="8.070569001203957"><ele>727.0</ele><time>2026-04-05T13:50:39.998Z</time></trkpt><trkpt lat="44.575743601739596" lon="8.070682572602557"><ele>727.0</ele><time>2026-04-05T13:50:40.998Z</time></trkpt><trkpt lat="44.575879261607845" lon="8.070809323035279"><ele>726.3333333333334</ele><time>2026-04-05T13:50:41.998Z</time></trkpt><trkpt lat="44.57601449982853" lon="8.070942068733526"><ele>725.6666666666666</ele><time>2026-04-05T13:50:42.998Z</time></trkpt><trkpt lat="44.57614932757495" lon="8.07107934248032"><ele>725.0</ele><time>2026-04-05T13:50:43.998Z</time></trkpt><trkpt lat="44.57628047348968" lon="8.071213749565207"><ele>723.6666666666666</ele><time>2026-04-05T13:50:44.998Z</time></trkpt><trkpt lat="44.576406341153124" lon="8.07133650557018"><ele>722.3333333333334</ele><time>2026-04-05T13:50:45.998Z</time></trkpt><trkpt lat="44.57653792725834" lon="8.07145744609942"><ele>721.0</ele><time>2026-04-05T13:50:46.998Z</time></trkpt><trkpt lat="44.57665807216338" lon="8.071563931130411"><ele>721.25</ele><time>2026-04-05T13:50:47.998Z</time></trkpt><trkpt lat="44.57677992579873" lon="8.071665236956491"><ele>721.5</ele><time>2026-04-05T13:50:48.998Z</time></trkpt><trkpt lat="44.576892711989125" lon="8.071770141966855"><ele>721.75</ele><time>2026-04-05T13:50:49.998Z</time></trkpt><trkpt lat="44.57700065859405" lon="8.071861861497894"><ele>722.0</ele><time>2026-04-05T13:50:50.998Z</time></trkpt><trkpt lat="44.57712305597083" lon="8.071947804434012"><ele>721.0</ele><time>2026-04-05T13:50:51.998Z</time></trkpt><trkpt lat="44.57724141524453" lon="8.07203955054217"><ele>720.0</ele><time>2026-04-05T13:50:52.998Z</time></trkpt><trkpt lat="44.57734879093661" lon="8.072152201976357"><ele>719.0</ele><time>2026-04-05T13:50:53.998Z</time></trkpt><trkpt lat="44.57744476236733" lon="8.072272219480894"><ele>718.0</ele><time>2026-04-05T13:50:54.998Z</time></trkpt><trkpt lat="44.57753338328069" lon="8.072391165379424"><ele>719.25</ele><time>2026-04-05T13:50:55.998Z</time></trkpt><trkpt lat="44.57761936384767" lon="8.072509710395144"><ele>720.5</ele><time>2026-04-05T13:50:56.998Z</time></trkpt><trkpt lat="44.57770256054025" lon="8.07262964787529"><ele>721.75</ele><time>2026-04-05T13:50:57.998Z</time></trkpt><trkpt lat="44.57778754919561" lon="8.072742043427638"><ele>723.0</ele><time>2026-04-05T13:50:58.998Z</time></trkpt><trkpt lat="44.577883105929445" lon="8.07286715066423"><ele>721.0</ele><time>2026-04-05T13:51:00Z</time></trkpt><trkpt lat="44.57798619594365" lon="8.073008948000997"><ele>719.0</ele><time>2026-04-05T13:51:01Z</time></trkpt><trkpt lat="44.57809813186946" lon="8.073158025426086"><ele>717.0</ele><time>2026-04-05T13:51:02Z</time></trkpt><trkpt lat="44.57821557044401" lon="8.073311006527453"><ele>717.0</ele><time>2026-04-05T13:51:03Z</time></trkpt><trkpt lat="44.57834014381345" lon="8.073458300818158"><ele>717.0</ele><time>2026-04-05T13:51:04Z</time></trkpt><trkpt lat="44.578473995556436" lon="8.073589222164776"><ele>717.0</ele><time>2026-04-05T13:51:05Z</time></trkpt><trkpt lat="44.57862084300838" lon="8.073724650282745"><ele>711.0</ele><time>2026-04-05T13:51:06Z</time></trkpt><trkpt lat="44.578775132574606" lon="8.07384667175706"><ele>705.0</ele><time>2026-04-05T13:51:07Z</time></trkpt><trkpt lat="44.578916684725414" lon="8.073961192384873"><ele>699.0</ele><time>2026-04-05T13:51:08Z</time></trkpt><trkpt lat="44.57905509197858" lon="8.074082313679332"><ele>703.0</ele><time>2026-04-05T13:51:09Z</time></trkpt><trkpt lat="44.57919222477438" lon="8.074205823957934"><ele>707.0</ele><time>2026-04-05T13:51:10Z</time></trkpt><trkpt lat="44.579332186620654" lon="8.074334222230732"><ele>711.0</ele><time>2026-04-05T13:51:11Z</time></trkpt><trkpt lat="44.579474715164174" lon="8.07446679788"><ele>706.3333333333334</ele><time>2026-04-05T13:51:12Z</time></trkpt><trkpt lat="44.57960681515594" lon="8.074591804574247"><ele>701.6666666666667</ele><time>2026-04-05T13:51:13Z</time></trkpt><trkpt lat="44.57974231882395" lon="8.074705967478563"><ele>697.0</ele><time>2026-04-05T13:51:14Z</time></trkpt><trkpt lat="44.57986978763828" lon="8.07480733693102"><ele>697.0</ele><time>2026-04-05T13:51:15Z</time></trkpt><trkpt lat="44.57999925977178" lon="8.074891856708078"><ele>697.0</ele><time>2026-04-05T13:51:16Z</time></trkpt><trkpt lat="44.58013190432574" lon="8.074949530446911"><ele>697.0</ele><time>2026-04-05T13:51:17Z</time></trkpt><trkpt lat="44.580285187121" lon="8.074963191105512"><ele>697.0</ele><time>2026-04-05T13:51:18Z</time></trkpt><trkpt lat="44.580450972974944" lon="8.074928726334841"><ele>695.0</ele><time>2026-04-05T13:51:19Z</time></trkpt><trkpt lat="44.58062017979165" lon="8.074857015210089"><ele>693.0</ele><time>2026-04-05T13:51:20Z</time></trkpt><trkpt lat="44.58079471924635" lon="8.074770828276668"><ele>691.0</ele><time>2026-04-05T13:51:21Z</time></trkpt><trkpt lat="44.58096951459717" lon="8.074679934093373"><ele>691.0</ele><time>2026-04-05T13:51:22Z</time></trkpt><trkpt lat="44.581138720612046" lon="8.07462484179551"><ele>691.0</ele><time>2026-04-05T13:51:23Z</time></trkpt><trkpt lat="44.58129933240208" lon="8.074552896306749"><ele>691.0</ele><time>2026-04-05T13:51:24Z</time></trkpt><trkpt lat="44.58144895445799" lon="8.074485873408964"><ele>690.6666666666667</ele><time>2026-04-05T13:51:25Z</time></trkpt><trkpt lat="44.58158592953868" lon="8.074406451873651"><ele>690.3333333333334</ele><time>2026-04-05T13:51:26Z</time></trkpt><trkpt lat="44.58174108178229" lon="8.074363223056974"><ele>690.0</ele><time>2026-04-05T13:51:27Z</time></trkpt><trkpt lat="44.581900684560594" lon="8.074344362562453"><ele>688.0</ele><time>2026-04-05T13:51:28Z</time></trkpt><trkpt lat="44.58205481829631" lon="8.074345880507023"><ele>686.0</ele><time>2026-04-05T13:51:29Z</time></trkpt><trkpt lat="44.58221621800242" lon="8.074376362815496"><ele>684.0</ele><time>2026-04-05T13:51:30Z</time></trkpt><trkpt lat="44.582380233329836" lon="8.074429872410638"><ele>684.0</ele><time>2026-04-05T13:51:31Z</time></trkpt><trkpt lat="44.58254093997971" lon="8.074524270270476"><ele>684.0</ele><time>2026-04-05T13:51:32Z</time></trkpt><trkpt lat="44.58271598341168" lon="8.074615515081355"><ele>684.0</ele><time>2026-04-05T13:51:33Z</time></trkpt><trkpt lat="44.582879345307916" lon="8.074705510425106"><ele>682.6666666666666</ele><time>2026-04-05T13:51:34Z</time></trkpt><trkpt lat="44.58304538141024" lon="8.07478593985613"><ele>681.3333333333333</ele><time>2026-04-05T13:51:35Z</time></trkpt><trkpt lat="44.58320506875829" lon="8.074878007921786"><ele>680.0</ele><time>2026-04-05T13:51:36Z</time></trkpt><trkpt lat="44.5833569638574" lon="8.07496590823436"><ele>680.5</ele><time>2026-04-05T13:51:37Z</time></trkpt><trkpt lat="44.58349605980837" lon="8.075042873410492"><ele>681.0</ele><time>2026-04-05T13:51:38Z</time></trkpt><trkpt lat="44.58362649852429" lon="8.075114743932334"><ele>681.5</ele><time>2026-04-05T13:51:39Z</time></trkpt><trkpt lat="44.583757010827476" lon="8.075168034821242"><ele>682.0</ele><time>2026-04-05T13:51:40Z</time></trkpt><trkpt lat="44.58389203071084" lon="8.07520597384931"><ele>682.0</ele><time>2026-04-05T13:51:41Z</time></trkpt><trkpt lat="44.58402695106126" lon="8.075215032830052"><ele>682.0</ele><time>2026-04-05T13:51:42Z</time></trkpt><trkpt lat="44.58415849307509" lon="8.075198638819776"><ele>682.0</ele><time>2026-04-05T13:51:43Z</time></trkpt><trkpt lat="44.58428744832813" lon="8.075162130724387"><ele>682.0</ele><time>2026-04-05T13:51:44Z</time></trkpt><trkpt lat="44.58438475265665" lon="8.07508619370774"><ele>682.0</ele><time>2026-04-05T13:51:45Z</time></trkpt><trkpt lat="44.584480532345495" lon="8.075006744781792"><ele>682.0</ele><time>2026-04-05T13:51:45.999Z</time></trkpt><trkpt lat="44.58459980808138" lon="8.074959547085959"><ele>682.0</ele><time>2026-04-05T13:51:46.999Z</time></trkpt><trkpt lat="44.584726965542245" lon="8.074886201425677"><ele>682.0</ele><time>2026-04-05T13:51:47.999Z</time></trkpt><trkpt lat="44.58486937615973" lon="8.07480405771096"><ele>679.75</ele><time>2026-04-05T13:51:48.999Z</time></trkpt><trkpt lat="44.58501891079253" lon="8.074720109084845"><ele>677.5</ele><time>2026-04-05T13:51:49.999Z</time></trkpt><trkpt lat="44.58513571966098" lon="8.074645614128881"><ele>675.25</ele><time>2026-04-05T13:51:50.999Z</time></trkpt><trkpt lat="44.58526207119194" lon="8.074579381708983"><ele>673.0</ele><time>2026-04-05T13:51:51.999Z</time></trkpt><trkpt lat="44.58539501756508" lon="8.07453879085456"><ele>673.0</ele><time>2026-04-05T13:51:52.999Z</time></trkpt><trkpt lat="44.58554052470903" lon="8.074525561371239"><ele>673.0</ele><time>2026-04-05T13:51:53.999Z</time></trkpt><trkpt lat="44.58569285966827" lon="8.074574200291687"><ele>673.0</ele><time>2026-04-05T13:51:54.999Z</time></trkpt><trkpt lat="44.58586135929569" lon="8.074614064198125"><ele>673.0</ele><time>2026-04-05T13:51:55.999Z</time></trkpt><trkpt lat="44.586031761558736" lon="8.074665036329561"><ele>673.0</ele><time>2026-04-05T13:51:56.999Z</time></trkpt><trkpt lat="44.58621138141882" lon="8.074718718476783"><ele>673.0</ele><time>2026-04-05T13:51:57.999Z</time></trkpt><trkpt lat="44.58639709984919" lon="8.074751637898036"><ele>673.0</ele><time>2026-04-05T13:51:58.999Z</time></trkpt><trkpt lat="44.586588171463525" lon="8.074814187072544"><ele>673.0</ele><time>2026-04-05T13:51:59.999Z</time></trkpt><trkpt lat="44.5867679175345" lon="8.074866378902392"><ele>673.0</ele><time>2026-04-05T13:52:00.999Z</time></trkpt><trkpt lat="44.58692784485887" lon="8.074910313639572"><ele>675.75</ele><time>2026-04-05T13:52:01.999Z</time></trkpt><trkpt lat="44.58707689356709" lon="8.074949731120702"><ele>678.5</ele><time>2026-04-05T13:52:02.999Z</time></trkpt><trkpt lat="44.587217798603206" lon="8.07497973064728"><ele>681.25</ele><time>2026-04-05T13:52:03.999Z</time></trkpt><trkpt lat="44.58734797294141" lon="8.074988560949107"><ele>684.0</ele><time>2026-04-05T13:52:04.999Z</time></trkpt><trkpt lat="44.58746152841098" lon="8.074986949617728"><ele>684.0</ele><time>2026-04-05T13:52:05.999Z</time></trkpt><trkpt lat="44.58756301928201" lon="8.074989441171923"><ele>684.0</ele><time>2026-04-05T13:52:06.999Z</time></trkpt><trkpt lat="44.58765897390032" lon="8.074997657400198"><ele>684.0</ele><time>2026-04-05T13:52:07.999Z</time></trkpt><trkpt lat="44.58776410063603" lon="8.075005022650059"><ele>684.0</ele><time>2026-04-05T13:52:08.999Z</time></trkpt><trkpt lat="44.587875039091756" lon="8.074981042557068"><ele>684.0</ele><time>2026-04-05T13:52:09.999Z</time></trkpt><trkpt lat="44.58799461808241" lon="8.074943632499092"><ele>685.25</ele><time>2026-04-05T13:52:10.999Z</time></trkpt><trkpt lat="44.58816023633104" lon="8.074963930799317"><ele>686.5</ele><time>2026-04-05T13:52:11.999Z</time></trkpt><trkpt lat="44.5882668611155" lon="8.074978544933334"><ele>687.75</ele><time>2026-04-05T13:52:12.999Z</time></trkpt><trkpt lat="44.588396146824685" lon="8.075027108278404"><ele>689.0</ele><time>2026-04-05T13:52:13.999Z</time></trkpt><trkpt lat="44.58850975706075" lon="8.07508220574386"><ele>689.0</ele><time>2026-04-05T13:52:14.999Z</time></trkpt><trkpt lat="44.58858488034304" lon="8.0752232704502"><ele>689.0</ele><time>2026-04-05T13:52:15.999Z</time></trkpt><trkpt lat="44.58863989566449" lon="8.075370346409862"><ele>689.0</ele><time>2026-04-05T13:52:16.999Z</time></trkpt><trkpt lat="44.58870312061687" lon="8.075531134258018"><ele>689.0</ele><time>2026-04-05T13:52:17.999Z</time></trkpt><trkpt lat="44.588781204373944" lon="8.075695379307238"><ele>691.5</ele><time>2026-04-05T13:52:18.999Z</time></trkpt><trkpt lat="44.58884132028891" lon="8.075869889200673"><ele>694.0</ele><time>2026-04-05T13:52:19.999Z</time></trkpt><trkpt lat="44.58890774843617" lon="8.076020002452355"><ele>696.5</ele><time>2026-04-05T13:52:20.999Z</time></trkpt><trkpt lat="44.5889853113022" lon="8.07615757895244"><ele>699.0</ele><time>2026-04-05T13:52:21.999Z</time></trkpt><trkpt lat="44.589076339394616" lon="8.076272955028703"><ele>699.0</ele><time>2026-04-05T13:52:22.999Z</time></trkpt><trkpt lat="44.58919930697668" lon="8.076359423814042"><ele>699.0</ele><time>2026-04-05T13:52:23.999Z</time></trkpt><trkpt lat="44.58933529266975" lon="8.07641508234757"><ele>699.0</ele><time>2026-04-05T13:52:24.999Z</time></trkpt><trkpt lat="44.58949283817831" lon="8.076446990817084"><ele>699.0</ele><time>2026-04-05T13:52:25.999Z</time></trkpt><trkpt lat="44.58964353790751" lon="8.076463741800419"><ele>702.3333333333334</ele><time>2026-04-05T13:52:26.999Z</time></trkpt><trkpt lat="44.589807331298644" lon="8.07644978537391"><ele>705.6666666666667</ele><time>2026-04-05T13:52:27.999Z</time></trkpt><trkpt lat="44.589960260393035" lon="8.076447095672217"><ele>709.0</ele><time>2026-04-05T13:52:28.999Z</time></trkpt><trkpt lat="44.5900975617449" lon="8.076442926521526"><ele>709.0</ele><time>2026-04-05T13:52:29.999Z</time></trkpt><trkpt lat="44.590219255178155" lon="8.076463417267584"><ele>709.0</ele><time>2026-04-05T13:52:30.999Z</time></trkpt><trkpt lat="44.59035253067336" lon="8.076514162892698"><ele>709.0</ele><time>2026-04-05T13:52:31.999Z</time></trkpt><trkpt lat="44.590481765696246" lon="8.07657425108733"><ele>709.0</ele><time>2026-04-05T13:52:32.999Z</time></trkpt><trkpt lat="44.590570354600686" lon="8.076719705661093"><ele>704.25</ele><time>2026-04-05T13:52:33.999Z</time></trkpt><trkpt lat="44.590658812076825" lon="8.076873635198389"><ele>699.5</ele><time>2026-04-05T13:52:34.999Z</time></trkpt><trkpt lat="44.590725480225764" lon="8.077055285692335"><ele>694.75</ele><time>2026-04-05T13:52:35.999Z</time></trkpt><trkpt lat="44.590801180057504" lon="8.07724113309802"><ele>690.0</ele><time>2026-04-05T13:52:36.999Z</time></trkpt><trkpt lat="44.59082355969847" lon="8.07745430585932"><ele>690.0</ele><time>2026-04-05T13:52:37.999Z</time></trkpt><trkpt lat="44.59081746484345" lon="8.077668270899787"><ele>690.0</ele><time>2026-04-05T13:52:38.999Z</time></trkpt><trkpt lat="44.59079395785189" lon="8.077862672487525"><ele>690.0</ele><time>2026-04-05T13:52:39.999Z</time></trkpt><trkpt lat="44.59077287615456" lon="8.078036368076143"><ele>690.0</ele><time>2026-04-05T13:52:40.999Z</time></trkpt><trkpt lat="44.590773619492055" lon="8.07819245706627"><ele>690.25</ele><time>2026-04-05T13:52:41.999Z</time></trkpt><trkpt lat="44.59080023748834" lon="8.078349371490816"><ele>690.5</ele><time>2026-04-05T13:52:42.999Z</time></trkpt><trkpt lat="44.59086639276435" lon="8.078512647172168"><ele>690.75</ele><time>2026-04-05T13:52:43.999Z</time></trkpt><trkpt lat="44.59096343088912" lon="8.078657604643746"><ele>691.0</ele><time>2026-04-05T13:52:44.999Z</time></trkpt><trkpt lat="44.59108644317352" lon="8.078778868769058"><ele>689.3333333333334</ele><time>2026-04-05T13:52:45.999Z</time></trkpt><trkpt lat="44.5912358615231" lon="8.078863821719574"><ele>687.6666666666666</ele><time>2026-04-05T13:52:46.998Z</time></trkpt><trkpt lat="44.59140247599342" lon="8.07893863873494"><ele>686.0</ele><time>2026-04-05T13:52:47.998Z</time></trkpt><trkpt lat="44.59157351461608" lon="8.07902205336758"><ele>686.3333333333333</ele><time>2026-04-05T13:52:48.998Z</time></trkpt><trkpt lat="44.591721395286086" lon="8.079136142254816"><ele>686.6666666666666</ele><time>2026-04-05T13:52:49.998Z</time></trkpt><trkpt lat="44.591859229565095" lon="8.079234896555917"><ele>687.0</ele><time>2026-04-05T13:52:50.998Z</time></trkpt><trkpt lat="44.59199376231748" lon="8.07935420991381"><ele>686.3333333333334</ele><time>2026-04-05T13:52:51.998Z</time></trkpt><trkpt lat="44.59213218642375" lon="8.07948550802889"><ele>685.6666666666667</ele><time>2026-04-05T13:52:52.998Z</time></trkpt><trkpt lat="44.592267068585635" lon="8.079615468603711"><ele>685.0</ele><time>2026-04-05T13:52:53.998Z</time></trkpt><trkpt lat="44.59239857955922" lon="8.07974208007656"><ele>685.0</ele><time>2026-04-05T13:52:54.998Z</time></trkpt><trkpt lat="44.59252888827127" lon="8.07986753392196"><ele>685.0</ele><time>2026-04-05T13:52:55.998Z</time></trkpt><trkpt lat="44.592665972242095" lon="8.079973987452687"><ele>685.0</ele><time>2026-04-05T13:52:56.998Z</time></trkpt><trkpt lat="44.59279194053278" lon="8.080096451689894"><ele>687.75</ele><time>2026-04-05T13:52:57.998Z</time></trkpt><trkpt lat="44.59291799359078" lon="8.080216410606418"><ele>690.5</ele><time>2026-04-05T13:52:58.998Z</time></trkpt><trkpt lat="44.59303914814981" lon="8.080330516449342"><ele>693.25</ele><time>2026-04-05T13:52:59.998Z</time></trkpt><trkpt lat="44.59316100188077" lon="8.08044805007375"><ele>696.0</ele><time>2026-04-05T13:53:00.998Z</time></trkpt><trkpt lat="44.59328430230294" lon="8.080567619509193"><ele>696.0</ele><time>2026-04-05T13:53:01.998Z</time></trkpt><trkpt lat="44.59340231867657" lon="8.08068898036965"><ele>696.0</ele><time>2026-04-05T13:53:02.998Z</time></trkpt><trkpt lat="44.593528912640245" lon="8.080806486110081"><ele>696.0</ele><time>2026-04-05T13:53:03.998Z</time></trkpt><trkpt lat="44.593651385097175" lon="8.080920851784912"><ele>696.0</ele><time>2026-04-05T13:53:04.998Z</time></trkpt><trkpt lat="44.593764970730085" lon="8.08103053414125"><ele>697.0</ele><time>2026-04-05T13:53:06Z</time></trkpt><trkpt lat="44.59388585881639" lon="8.081147084622332"><ele>698.0</ele><time>2026-04-05T13:53:07Z</time></trkpt><trkpt lat="44.59400668786699" lon="8.081271975771271"><ele>699.0</ele><time>2026-04-05T13:53:08Z</time></trkpt><trkpt lat="44.59414404473742" lon="8.081395050432612"><ele>699.0</ele><time>2026-04-05T13:53:09Z</time></trkpt><trkpt lat="44.594264285251576" lon="8.08152701943001"><ele>699.0</ele><time>2026-04-05T13:53:10Z</time></trkpt><trkpt lat="44.594398902072605" lon="8.081654167072879"><ele>699.0</ele><time>2026-04-05T13:53:11Z</time></trkpt><trkpt lat="44.594529551455366" lon="8.081780426092276"><ele>699.0</ele><time>2026-04-05T13:53:12Z</time></trkpt><trkpt lat="44.59465175867085" lon="8.081897388081565"><ele>699.0</ele><time>2026-04-05T13:53:13Z</time></trkpt><trkpt lat="44.594758112852" lon="8.08200430225143"><ele>699.0</ele><time>2026-04-05T13:53:14Z</time></trkpt><trkpt lat="44.59486259983364" lon="8.08210122999985"><ele>699.0</ele><time>2026-04-05T13:53:15Z</time></trkpt><trkpt lat="44.59495567672288" lon="8.082195845959813"><ele>699.0</ele><time>2026-04-05T13:53:16Z</time></trkpt><trkpt lat="44.595034731505976" lon="8.08227914081843"><ele>699.0</ele><time>2026-04-05T13:53:17Z</time></trkpt><trkpt lat="44.595106410691606" lon="8.082362514975168"><ele>699.0</ele><time>2026-04-05T13:53:18Z</time></trkpt><trkpt lat="44.59515732320092" lon="8.08244449162887"><ele>699.0</ele><time>2026-04-05T13:53:19Z</time></trkpt><trkpt lat="44.59521112870978" lon="8.082515381466495"><ele>699.0</ele><time>2026-04-05T13:53:20Z</time></trkpt><trkpt lat="44.595279104025174" lon="8.082553578921289"><ele>699.0</ele><time>2026-04-05T13:53:21Z</time></trkpt><trkpt lat="44.59536159524011" lon="8.082572552514952"><ele>700.8000000000001</ele><time>2026-04-05T13:53:22Z</time></trkpt><trkpt lat="44.595453085114166" lon="8.082594695037386"><ele>702.6</ele><time>2026-04-05T13:53:23Z</time></trkpt><trkpt lat="44.59553995881937" lon="8.08263838757784"><ele>704.4</ele><time>2026-04-05T13:53:24Z</time></trkpt><trkpt lat="44.59563134752028" lon="8.082686185656772"><ele>706.2</ele><time>2026-04-05T13:53:25Z</time></trkpt><trkpt lat="44.59572488110742" lon="8.082739801536608"><ele>708.0</ele><time>2026-04-05T13:53:26Z</time></trkpt><trkpt lat="44.59581716055998" lon="8.082786275585642"><ele>708.0</ele><time>2026-04-05T13:53:27Z</time></trkpt><trkpt lat="44.59591471110139" lon="8.082831983605127"><ele>708.0</ele><time>2026-04-05T13:53:28Z</time></trkpt><trkpt lat="44.596007428654495" lon="8.082874575083526"><ele>708.0</ele><time>2026-04-05T13:53:29Z</time></trkpt><trkpt lat="44.59610089645823" lon="8.082920745127636"><ele>708.0</ele><time>2026-04-05T13:53:30Z</time></trkpt><trkpt lat="44.59619865794437" lon="8.082964053318006"><ele>708.0</ele><time>2026-04-05T13:53:31Z</time></trkpt><trkpt lat="44.59628924201673" lon="8.083009237840873"><ele>707.8</ele><time>2026-04-05T13:53:32Z</time></trkpt><trkpt lat="44.59637966148452" lon="8.083056932613129"><ele>707.5999999999999</ele><time>2026-04-05T13:53:33Z</time></trkpt><trkpt lat="44.59647197089104" lon="8.083096854737557"><ele>707.4000000000001</ele><time>2026-04-05T13:53:34Z</time></trkpt><trkpt lat="44.59656608481396" lon="8.083132921985278"><ele>707.2</ele><time>2026-04-05T13:53:35Z</time></trkpt><trkpt lat="44.596661232128774" lon="8.08317655837022"><ele>707.0</ele><time>2026-04-05T13:53:36Z</time></trkpt><trkpt lat="44.59675716562153" lon="8.083229558672539"><ele>708.0</ele><time>2026-04-05T13:53:37Z</time></trkpt><trkpt lat="44.59684901557947" lon="8.083275981309367"><ele>709.0</ele><time>2026-04-05T13:53:38Z</time></trkpt><trkpt lat="44.59694299522595" lon="8.083318676112208"><ele>710.0</ele><time>2026-04-05T13:53:39Z</time></trkpt><trkpt lat="44.59703299679196" lon="8.083363368190192"><ele>711.0</ele><time>2026-04-05T13:53:40Z</time></trkpt><trkpt lat="44.59712329788264" lon="8.083426644522847"><ele>712.0</ele><time>2026-04-05T13:53:41Z</time></trkpt><trkpt lat="44.59722008069903" lon="8.083470104490713"><ele>712.0</ele><time>2026-04-05T13:53:42Z</time></trkpt><trkpt lat="44.59731641393502" lon="8.08348951791034"><ele>712.0</ele><time>2026-04-05T13:53:43Z</time></trkpt><trkpt lat="44.597414459179575" lon="8.083536672434454"><ele>712.0</ele><time>2026-04-05T13:53:44Z</time></trkpt><trkpt lat="44.59751472901031" lon="8.083569352854058"><ele>712.0</ele><time>2026-04-05T13:53:45Z</time></trkpt><trkpt lat="44.597614952137754" lon="8.083594830097889"><ele>712.0</ele><time>2026-04-05T13:53:46Z</time></trkpt><trkpt lat="44.5977056044169" lon="8.083610526236349"><ele>712.0</ele><time>2026-04-05T13:53:47Z</time></trkpt><trkpt lat="44.597782438482916" lon="8.083621603612956"><ele>712.0</ele><time>2026-04-05T13:53:48Z</time></trkpt><trkpt lat="44.59784573823165" lon="8.08364551394491"><ele>712.0</ele><time>2026-04-05T13:53:49Z</time></trkpt><trkpt lat="44.59790815029657" lon="8.08367537861495"><ele>712.0</ele><time>2026-04-05T13:53:50Z</time></trkpt><trkpt lat="44.59801144797363" lon="8.0836810934787"><ele>712.0</ele><time>2026-04-05T13:53:52Z</time></trkpt><trkpt lat="44.598086633389684" lon="8.083557421412532"><ele>712.0</ele><time>2026-04-05T13:53:54Z</time></trkpt><trkpt lat="44.598228101376264" lon="8.083549484599834"><ele>712.0</ele><time>2026-04-05T13:53:56Z</time></trkpt><trkpt lat="44.59832071767522" lon="8.083513892609064"><ele>712.0</ele><time>2026-04-05T13:53:56.999Z</time></trkpt><trkpt lat="44.59842525935329" lon="8.083499656669007"><ele>712.0</ele><time>2026-04-05T13:53:57.999Z</time></trkpt><trkpt lat="44.598530838841576" lon="8.083478658993421"><ele>712.0</ele><time>2026-04-05T13:53:58.999Z</time></trkpt><trkpt lat="44.59862451310899" lon="8.083453545782538"><ele>712.0</ele><time>2026-04-05T13:53:59.999Z</time></trkpt><trkpt lat="44.598723020737175" lon="8.08343336732237"><ele>712.25</ele><time>2026-04-05T13:54:00.999Z</time></trkpt><trkpt lat="44.59882839173722" lon="8.08341154164071"><ele>712.5</ele><time>2026-04-05T13:54:01.999Z</time></trkpt><trkpt lat="44.59894022133616" lon="8.083388753201348"><ele>712.75</ele><time>2026-04-05T13:54:02.999Z</time></trkpt><trkpt lat="44.59905803615293" lon="8.083372428976064"><ele>713.0</ele><time>2026-04-05T13:54:03.999Z</time></trkpt><trkpt lat="44.599187064054156" lon="8.083346744126938"><ele>713.0</ele><time>2026-04-05T13:54:04.999Z</time></trkpt><trkpt lat="44.59932141064835" lon="8.083310066567691"><ele>713.0</ele><time>2026-04-05T13:54:05.999Z</time></trkpt><trkpt lat="44.599464532976754" lon="8.083273059376896"><ele>713.0</ele><time>2026-04-05T13:54:06.999Z</time></trkpt><trkpt lat="44.599621492469566" lon="8.083246150201708"><ele>713.0</ele><time>2026-04-05T13:54:07.999Z</time></trkpt><trkpt lat="44.599785263368474" lon="8.083218208006283"><ele>707.6666666666666</ele><time>2026-04-05T13:54:08.999Z</time></trkpt><trkpt lat="44.59995324147125" lon="8.083179159541112"><ele>702.3333333333334</ele><time>2026-04-05T13:54:09.999Z</time></trkpt><trkpt lat="44.60012789213627" lon="8.083137609099563"><ele>697.0</ele><time>2026-04-05T13:54:10.999Z</time></trkpt><trkpt lat="44.600295503219094" lon="8.083080646126989"><ele>700.0</ele><time>2026-04-05T13:54:11.999Z</time></trkpt><trkpt lat="44.60045829458565" lon="8.0829968502719"><ele>703.0</ele><time>2026-04-05T13:54:12.999Z</time></trkpt><trkpt lat="44.60061693155735" lon="8.082889457005512"><ele>706.0</ele><time>2026-04-05T13:54:13.999Z</time></trkpt><trkpt lat="44.60076738186257" lon="8.082748474534457"><ele>706.0</ele><time>2026-04-05T13:54:14.999Z</time></trkpt><trkpt lat="44.60091753752481" lon="8.082599954986222"><ele>706.0</ele><time>2026-04-05T13:54:15.999Z</time></trkpt><trkpt lat="44.6010677448806" lon="8.082465182936849"><ele>706.0</ele><time>2026-04-05T13:54:16.999Z</time></trkpt><trkpt lat="44.601214952262346" lon="8.082339965108886"><ele>705.0</ele><time>2026-04-05T13:54:17.999Z</time></trkpt><trkpt lat="44.60134946571175" lon="8.082231862825417"><ele>704.0</ele><time>2026-04-05T13:54:18.999Z</time></trkpt><trkpt lat="44.6014759372477" lon="8.082119998403043"><ele>703.0</ele><time>2026-04-05T13:54:19.999Z</time></trkpt><trkpt lat="44.60160041554083" lon="8.082000847948585"><ele>703.0</ele><time>2026-04-05T13:54:20.999Z</time></trkpt><trkpt lat="44.60170520257708" lon="8.081850186337128"><ele>703.0</ele><time>2026-04-05T13:54:21.999Z</time></trkpt><trkpt lat="44.60179882339265" lon="8.081681063018568"><ele>703.0</ele><time>2026-04-05T13:54:22.999Z</time></trkpt><trkpt lat="44.6018974185724" lon="8.081506683802374"><ele>703.75</ele><time>2026-04-05T13:54:23.999Z</time></trkpt><trkpt lat="44.60199311967457" lon="8.081333685621258"><ele>704.5</ele><time>2026-04-05T13:54:24.999Z</time></trkpt><trkpt lat="44.60208482936841" lon="8.081168712847488"><ele>705.25</ele><time>2026-04-05T13:54:25.999Z</time></trkpt><trkpt lat="44.6021572901131" lon="8.081008475592743"><ele>706.0</ele><time>2026-04-05T13:54:26.999Z</time></trkpt><trkpt lat="44.602223497241035" lon="8.080848406678024"><ele>703.25</ele><time>2026-04-05T13:54:27.999Z</time></trkpt><trkpt lat="44.60229534441633" lon="8.080705649200835"><ele>700.5</ele><time>2026-04-05T13:54:28.999Z</time></trkpt><trkpt lat="44.60238473323457" lon="8.080580651764238"><ele>697.75</ele><time>2026-04-05T13:54:29.999Z</time></trkpt><trkpt lat="44.60249434924519" lon="8.080470401508077"><ele>695.0</ele><time>2026-04-05T13:54:30.999Z</time></trkpt><trkpt lat="44.602613131094365" lon="8.080382216996256"><ele>695.0</ele><time>2026-04-05T13:54:31.999Z</time></trkpt><trkpt lat="44.60272822442202" lon="8.080320134491682"><ele>695.0</ele><time>2026-04-05T13:54:32.999Z</time></trkpt><trkpt lat="44.602840198484834" lon="8.080281036337588"><ele>695.0</ele><time>2026-04-05T13:54:33.999Z</time></trkpt><trkpt lat="44.60294721559541" lon="8.08024855020387"><ele>695.0</ele><time>2026-04-05T13:54:34.999Z</time></trkpt><trkpt lat="44.603058508200924" lon="8.080231279005394"><ele>697.0</ele><time>2026-04-05T13:54:35.999Z</time></trkpt><trkpt lat="44.603163789506006" lon="8.08019942912289"><ele>699.0</ele><time>2026-04-05T13:54:36.999Z</time></trkpt><trkpt lat="44.60328788135153" lon="8.080303626629945"><ele>701.0</ele><time>2026-04-05T13:54:37.999Z</time></trkpt><trkpt lat="44.60339007263554" lon="8.080330430077806"><ele>703.0</ele><time>2026-04-05T13:54:38.999Z</time></trkpt><trkpt lat="44.60351001516554" lon="8.080314148878502"><ele>703.0</ele><time>2026-04-05T13:54:39.999Z</time></trkpt><trkpt lat="44.603629393477576" lon="8.080308995480687"><ele>703.0</ele><time>2026-04-05T13:54:40.999Z</time></trkpt><trkpt lat="44.603739622786115" lon="8.080298244918293"><ele>703.0</ele><time>2026-04-05T13:54:41.999Z</time></trkpt><trkpt lat="44.60384944569572" lon="8.080311365913365"><ele>703.0</ele><time>2026-04-05T13:54:42.999Z</time></trkpt><trkpt lat="44.603968215105105" lon="8.080359324071066"><ele>704.5</ele><time>2026-04-05T13:54:43.999Z</time></trkpt><trkpt lat="44.604090949426016" lon="8.080432559451623"><ele>706.0</ele><time>2026-04-05T13:54:44.999Z</time></trkpt><trkpt lat="44.60419983508464" lon="8.080524758891686"><ele>707.5</ele><time>2026-04-05T13:54:45.999Z</time></trkpt><trkpt lat="44.60430365061649" lon="8.080594570452435"><ele>709.0</ele><time>2026-04-05T13:54:46.999Z</time></trkpt><trkpt lat="44.60440834858801" lon="8.08065252686219"><ele>707.75</ele><time>2026-04-05T13:54:47.999Z</time></trkpt><trkpt lat="44.604508627325934" lon="8.080691372524045"><ele>706.5</ele><time>2026-04-05T13:54:48.999Z</time></trkpt><trkpt lat="44.60462779817188" lon="8.080622811030265"><ele>705.25</ele><time>2026-04-05T13:54:49.999Z</time></trkpt><trkpt lat="44.604739164994484" lon="8.080541330000763"><ele>704.0</ele><time>2026-04-05T13:54:50.999Z</time></trkpt><trkpt lat="44.60483424215763" lon="8.08039893157947"><ele>704.0</ele><time>2026-04-05T13:54:51.999Z</time></trkpt><trkpt lat="44.60493589505462" lon="8.080279724071813"><ele>704.0</ele><time>2026-04-05T13:54:52.999Z</time></trkpt><trkpt lat="44.60504381058067" lon="8.08017671340904"><ele>704.0</ele><time>2026-04-05T13:54:53.999Z</time></trkpt><trkpt lat="44.605171873574456" lon="8.080125722160602"><ele>704.0</ele><time>2026-04-05T13:54:54.999Z</time></trkpt><trkpt lat="44.60529471881502" lon="8.080065969364442"><ele>701.5</ele><time>2026-04-05T13:54:55.999Z</time></trkpt><trkpt lat="44.60542583046913" lon="8.080040318916843"><ele>699.0</ele><time>2026-04-05T13:54:56.999Z</time></trkpt><trkpt lat="44.605559705819715" lon="8.080042334563988"><ele>696.5</ele><time>2026-04-05T13:54:57.998Z</time></trkpt><trkpt lat="44.60569375592067" lon="8.080056904243936"><ele>694.0</ele><time>2026-04-05T13:54:58.998Z</time></trkpt><trkpt lat="44.605833408563555" lon="8.080082879962053"><ele>694.0</ele><time>2026-04-05T13:54:59.998Z</time></trkpt><trkpt lat="44.605957045213195" lon="8.080114868509021"><ele>694.0</ele><time>2026-04-05T13:55:00.998Z</time></trkpt><trkpt lat="44.60607019570205" lon="8.08017160793875"><ele>694.0</ele><time>2026-04-05T13:55:01.998Z</time></trkpt><trkpt lat="44.60617752135756" lon="8.080246446776602"><ele>694.0</ele><time>2026-04-05T13:55:02.998Z</time></trkpt><trkpt lat="44.6062653074497" lon="8.080351346931488"><ele>695.4000000000001</ele><time>2026-04-05T13:55:03.998Z</time></trkpt><trkpt lat="44.60636344932576" lon="8.08043267131215"><ele>696.8</ele><time>2026-04-05T13:55:04.998Z</time></trkpt><trkpt lat="44.60645509867005" lon="8.080510700960447"><ele>698.2</ele><time>2026-04-05T13:55:05.998Z</time></trkpt><trkpt lat="44.60655715424653" lon="8.080548089914238"><ele>699.5999999999999</ele><time>2026-04-05T13:55:06.998Z</time></trkpt><trkpt lat="44.60666380159635" lon="8.080526111156663"><ele>701.0</ele><time>2026-04-05T13:55:07.998Z</time></trkpt><trkpt lat="44.60675671223526" lon="8.080468740190739"><ele>701.0</ele><time>2026-04-05T13:55:08.998Z</time></trkpt><trkpt lat="44.60684467648696" lon="8.080379141791793"><ele>701.0</ele><time>2026-04-05T13:55:09.998Z</time></trkpt><trkpt lat="44.60693335740992" lon="8.08032485288055"><ele>701.0</ele><time>2026-04-05T13:55:10.998Z</time></trkpt><trkpt lat="44.60703295537304" lon="8.080299851950816"><ele>701.0</ele><time>2026-04-05T13:55:12Z</time></trkpt><trkpt lat="44.60715297139264" lon="8.080323074930382"><ele>701.0</ele><time>2026-04-05T13:55:13Z</time></trkpt><trkpt lat="44.6072755035136" lon="8.080394362105988"><ele>702.75</ele><time>2026-04-05T13:55:14Z</time></trkpt><trkpt lat="44.60738894260377" lon="8.08050168136142"><ele>704.5</ele><time>2026-04-05T13:55:15Z</time></trkpt><trkpt lat="44.60750272858081" lon="8.080597260046567"><ele>706.25</ele><time>2026-04-05T13:55:16Z</time></trkpt><trkpt lat="44.60760316096095" lon="8.080695612695203"><ele>708.0</ele><time>2026-04-05T13:55:17Z</time></trkpt><trkpt lat="44.60770960739254" lon="8.080770819458898"><ele>702.25</ele><time>2026-04-05T13:55:18Z</time></trkpt><trkpt lat="44.60782442472879" lon="8.08082413197091"><ele>696.5</ele><time>2026-04-05T13:55:19Z</time></trkpt><trkpt lat="44.60794579110699" lon="8.080835757458868"><ele>690.75</ele><time>2026-04-05T13:55:20Z</time></trkpt><trkpt lat="44.608059507675954" lon="8.08080427365942"><ele>685.0</ele><time>2026-04-05T13:55:21Z</time></trkpt><trkpt lat="44.60816249675073" lon="8.080828784132557"><ele>685.0</ele><time>2026-04-05T13:55:22Z</time></trkpt><trkpt lat="44.608257882548465" lon="8.080869330850968"><ele>685.0</ele><time>2026-04-05T13:55:23Z</time></trkpt><trkpt lat="44.608333442515914" lon="8.080964740094567"><ele>685.0</ele><time>2026-04-05T13:55:24Z</time></trkpt><trkpt lat="44.60836879393087" lon="8.08111624030085"><ele>685.0</ele><time>2026-04-05T13:55:25Z</time></trkpt><trkpt lat="44.60842224629221" lon="8.081257785147145"><ele>685.0</ele><time>2026-04-05T13:55:26Z</time></trkpt><trkpt lat="44.60849759799075" lon="8.081360768980481"><ele>685.0</ele><time>2026-04-05T13:55:27Z</time></trkpt><trkpt lat="44.608596835367734" lon="8.08144542486554"><ele>685.0</ele><time>2026-04-05T13:55:28Z</time></trkpt><trkpt lat="44.60871935512627" lon="8.081497987840894"><ele>685.0</ele><time>2026-04-05T13:55:29Z</time></trkpt><trkpt lat="44.60883571237854" lon="8.081537790531193"><ele>685.0</ele><time>2026-04-05T13:55:30Z</time></trkpt><trkpt lat="44.60893475258934" lon="8.081602000597034"><ele>683.8</ele><time>2026-04-05T13:55:31Z</time></trkpt><trkpt lat="44.60902821757867" lon="8.081663841358806"><ele>682.6</ele><time>2026-04-05T13:55:32Z</time></trkpt><trkpt lat="44.609104549938635" lon="8.081730988589214"><ele>681.4000000000001</ele><time>2026-04-05T13:55:33Z</time></trkpt><trkpt lat="44.609126528887366" lon="8.081894673501711"><ele>680.2</ele><time>2026-04-05T13:55:34Z</time></trkpt><trkpt lat="44.60913372337543" lon="8.082052985870009"><ele>679.0</ele><time>2026-04-05T13:55:35Z</time></trkpt><trkpt lat="44.609136164717114" lon="8.082221387500327"><ele>679.0</ele><time>2026-04-05T13:55:36Z</time></trkpt><trkpt lat="44.609153631510175" lon="8.082373061912746"><ele>679.0</ele><time>2026-04-05T13:55:37Z</time></trkpt><trkpt lat="44.60916289301314" lon="8.08251582657012"><ele>679.0</ele><time>2026-04-05T13:55:38Z</time></trkpt><trkpt lat="44.609191433000895" lon="8.082648935124404"><ele>679.0</ele><time>2026-04-05T13:55:39Z</time></trkpt><trkpt lat="44.60925595155212" lon="8.082760703340782"><ele>679.0</ele><time>2026-04-05T13:55:40Z</time></trkpt><trkpt lat="44.609349946812074" lon="8.082836319779947"><ele>676.75</ele><time>2026-04-05T13:55:41Z</time></trkpt><trkpt lat="44.60946539710493" lon="8.082877207557845"><ele>674.5</ele><time>2026-04-05T13:55:42Z</time></trkpt><trkpt lat="44.60960315918705" lon="8.08286629852926"><ele>672.25</ele><time>2026-04-05T13:55:43Z</time></trkpt><trkpt lat="44.6097473951795" lon="8.082919863044614"><ele>670.0</ele><time>2026-04-05T13:55:44Z</time></trkpt><trkpt lat="44.6098892063637" lon="8.08295018953073"><ele>674.75</ele><time>2026-04-05T13:55:45Z</time></trkpt><trkpt lat="44.61003841885076" lon="8.082982167273258"><ele>679.5</ele><time>2026-04-05T13:55:46Z</time></trkpt><trkpt lat="44.61018448814" lon="8.083018824659938"><ele>684.25</ele><time>2026-04-05T13:55:47Z</time></trkpt><trkpt lat="44.61031312393245" lon="8.083058929644052"><ele>689.0</ele><time>2026-04-05T13:55:48Z</time></trkpt><trkpt lat="44.6104285814256" lon="8.083121472830731"><ele>689.25</ele><time>2026-04-05T13:55:49Z</time></trkpt><trkpt lat="44.610523812729156" lon="8.083211569975242"><ele>689.5</ele><time>2026-04-05T13:55:50Z</time></trkpt><trkpt lat="44.6106061050751" lon="8.08334265394727"><ele>689.75</ele><time>2026-04-05T13:55:51Z</time></trkpt><trkpt lat="44.61069610928295" lon="8.083476679788122"><ele>690.0</ele><time>2026-04-05T13:55:52Z</time></trkpt><trkpt lat="44.61078964387423" lon="8.083586582245676"><ele>686.6</ele><time>2026-04-05T13:55:53Z</time></trkpt><trkpt lat="44.61086585646903" lon="8.083685295995915"><ele>683.2</ele><time>2026-04-05T13:55:54Z</time></trkpt><trkpt lat="44.61094396700785" lon="8.083757869006172"><ele>679.8</ele><time>2026-04-05T13:55:55Z</time></trkpt><trkpt lat="44.61103671178208" lon="8.083786410047518"><ele>676.4</ele><time>2026-04-05T13:55:56Z</time></trkpt><trkpt lat="44.611139539549" lon="8.083776152933417"><ele>673.0</ele><time>2026-04-05T13:55:56.999Z</time></trkpt><trkpt lat="44.61125949064359" lon="8.08365168546779"><ele>673.0</ele><time>2026-04-05T13:55:57.999Z</time></trkpt><trkpt lat="44.61137940911201" lon="8.083598738372293"><ele>673.0</ele><time>2026-04-05T13:55:58.999Z</time></trkpt><trkpt lat="44.61151791480937" lon="8.08354223725644"><ele>673.0</ele><time>2026-04-05T13:55:59.999Z</time></trkpt><trkpt lat="44.61166977820954" lon="8.083524948387737"><ele>673.0</ele><time>2026-04-05T13:56:00.999Z</time></trkpt><trkpt lat="44.61181895606946" lon="8.083511442407904"><ele>673.0</ele><time>2026-04-05T13:56:01.999Z</time></trkpt><trkpt lat="44.611952766235895" lon="8.083517997802128"><ele>673.0</ele><time>2026-04-05T13:56:02.999Z</time></trkpt><trkpt lat="44.612073855468104" lon="8.083564037504566"><ele>673.0</ele><time>2026-04-05T13:56:03.999Z</time></trkpt><trkpt lat="44.61218844004413" lon="8.083639549537235"><ele>673.0</ele><time>2026-04-05T13:56:04.999Z</time></trkpt><trkpt lat="44.6123033551915" lon="8.083704367852588"><ele>672.0</ele><time>2026-04-05T13:56:05.999Z</time></trkpt><trkpt lat="44.61242208979937" lon="8.083733031027093"><ele>671.0</ele><time>2026-04-05T13:56:06.999Z</time></trkpt><trkpt lat="44.61254748778678" lon="8.083735053090948"><ele>670.0</ele><time>2026-04-05T13:56:07.999Z</time></trkpt><trkpt lat="44.612682711203625" lon="8.083672275780717"><ele>669.0</ele><time>2026-04-05T13:56:08.999Z</time></trkpt><trkpt lat="44.61280995057619" lon="8.083627591709403"><ele>665.0</ele><time>2026-04-05T13:56:09.999Z</time></trkpt><trkpt lat="44.6129270726625" lon="8.083582956498471"><ele>661.0</ele><time>2026-04-05T13:56:10.999Z</time></trkpt><trkpt lat="44.61303855864615" lon="8.083583366620864"><ele>657.0</ele><time>2026-04-05T13:56:11.999Z</time></trkpt><trkpt lat="44.61315449409019" lon="8.0836160508307"><ele>653.0</ele><time>2026-04-05T13:56:12.999Z</time></trkpt><trkpt lat="44.61326257307895" lon="8.083634756127264"><ele>653.0</ele><time>2026-04-05T13:56:13.999Z</time></trkpt><trkpt lat="44.61337746938637" lon="8.083628758776488"><ele>653.0</ele><time>2026-04-05T13:56:14.999Z</time></trkpt><trkpt lat="44.61349350882038" lon="8.083572195257709"><ele>653.0</ele><time>2026-04-05T13:56:15.999Z</time></trkpt><trkpt lat="44.613598050776126" lon="8.083451420576749"><ele>653.0</ele><time>2026-04-05T13:56:16.999Z</time></trkpt><trkpt lat="44.61368388530527" lon="8.083332143929987"><ele>648.0</ele><time>2026-04-05T13:56:17.999Z</time></trkpt><trkpt lat="44.613735863395924" lon="8.083183355697326"><ele>643.0</ele><time>2026-04-05T13:56:18.999Z</time></trkpt><trkpt lat="44.613753486389705" lon="8.082993595173281"><ele>638.0</ele><time>2026-04-05T13:56:19.999Z</time></trkpt><trkpt lat="44.613750684352595" lon="8.082785453349368"><ele>633.0</ele><time>2026-04-05T13:56:20.999Z</time></trkpt><trkpt lat="44.61375124910607" lon="8.082556035215966"><ele>632.0</ele><time>2026-04-05T13:56:21.999Z</time></trkpt><trkpt lat="44.61375941672524" lon="8.08231218043602"><ele>631.0</ele><time>2026-04-05T13:56:22.999Z</time></trkpt><trkpt lat="44.613764233867414" lon="8.082069198870458"><ele>630.0</ele><time>2026-04-05T13:56:23.999Z</time></trkpt><trkpt lat="44.61378329119721" lon="8.081850605148887"><ele>630.0</ele><time>2026-04-05T13:56:24.999Z</time></trkpt><trkpt lat="44.61379042368141" lon="8.081635152537025"><ele>630.0</ele><time>2026-04-05T13:56:25.999Z</time></trkpt><trkpt lat="44.61378197365421" lon="8.081420181688534"><ele>630.0</ele><time>2026-04-05T13:56:26.999Z</time></trkpt><trkpt lat="44.613791566493695" lon="8.081227629076027"><ele>630.0</ele><time>2026-04-05T13:56:27.999Z</time></trkpt><trkpt lat="44.61380506416448" lon="8.081052144583563"><ele>630.75</ele><time>2026-04-05T13:56:28.999Z</time></trkpt><trkpt lat="44.613839834270415" lon="8.080893494431285"><ele>631.5</ele><time>2026-04-05T13:56:29.999Z</time></trkpt><trkpt lat="44.61387931649382" lon="8.080744492094473"><ele>632.25</ele><time>2026-04-05T13:56:30.999Z</time></trkpt><trkpt lat="44.61393623075494" lon="8.080596363061463"><ele>633.0</ele><time>2026-04-05T13:56:31.999Z</time></trkpt><trkpt lat="44.614001734014636" lon="8.080441451128408"><ele>633.25</ele><time>2026-04-05T13:56:32.999Z</time></trkpt><trkpt lat="44.61411008132566" lon="8.080332120672628"><ele>633.5</ele><time>2026-04-05T13:56:33.999Z</time></trkpt><trkpt lat="44.61421846144579" lon="8.08022302859195"><ele>633.75</ele><time>2026-04-05T13:56:34.999Z</time></trkpt><trkpt lat="44.61433285448163" lon="8.080122032699762"><ele>634.0</ele><time>2026-04-05T13:56:35.999Z</time></trkpt><trkpt lat="44.614444387789895" lon="8.080028829010425"><ele>633.0</ele><time>2026-04-05T13:56:36.999Z</time></trkpt><trkpt lat="44.61454910447251" lon="8.079941708522183"><ele>632.0</ele><time>2026-04-05T13:56:37.999Z</time></trkpt><trkpt lat="44.61464946195356" lon="8.079860082130676"><ele>631.0</ele><time>2026-04-05T13:56:38.999Z</time></trkpt><trkpt lat="44.61474325044588" lon="8.079789301443995"><ele>630.0</ele><time>2026-04-05T13:56:39.999Z</time></trkpt><trkpt lat="44.614832532222735" lon="8.079737121339198"><ele>629.0</ele><time>2026-04-05T13:56:40.999Z</time></trkpt><trkpt lat="44.61490759209612" lon="8.079706467080754"><ele>628.6</ele><time>2026-04-05T13:56:41.999Z</time></trkpt><trkpt lat="44.61499413778185" lon="8.079699539640686"><ele>628.2</ele><time>2026-04-05T13:56:43.999Z</time></trkpt><trkpt lat="44.6150582632404" lon="8.079705639374499"><ele>627.8000000000001</ele><time>2026-04-05T13:56:54.999Z</time></trkpt><trkpt lat="44.615091360053874" lon="8.07949522225549"><ele>627.4</ele><time>2026-04-05T13:56:55.999Z</time></trkpt><trkpt lat="44.615126205473395" lon="8.079386004442012"><ele>627.0</ele><time>2026-04-05T13:56:56.998Z</time></trkpt><trkpt lat="44.615160138518824" lon="8.079279571781813"><ele>627.0</ele><time>2026-04-05T13:56:57.998Z</time></trkpt><trkpt lat="44.615196667962984" lon="8.079168307273804"><ele>627.0</ele><time>2026-04-05T13:56:58.998Z</time></trkpt><trkpt lat="44.615242366443674" lon="8.079052366966211"><ele>627.0</ele><time>2026-04-05T13:56:59.998Z</time></trkpt><trkpt lat="44.61529729584092" lon="8.078939917531336"><ele>627.0</ele><time>2026-04-05T13:57:00.998Z</time></trkpt><trkpt lat="44.615356053199775" lon="8.078824976965219"><ele>627.0</ele><time>2026-04-05T13:57:01.998Z</time></trkpt><trkpt lat="44.61542468276536" lon="8.078711135374638"><ele>627.4</ele><time>2026-04-05T13:57:02.998Z</time></trkpt><trkpt lat="44.61549093592932" lon="8.07860785273953"><ele>627.8000000000001</ele><time>2026-04-05T13:57:03.998Z</time></trkpt><trkpt lat="44.61555705331596" lon="8.078505357664202"><ele>628.2</ele><time>2026-04-05T13:57:04.998Z</time></trkpt><trkpt lat="44.61562106984946" lon="8.078408935182216"><ele>628.6</ele><time>2026-04-05T13:57:05.998Z</time></trkpt><trkpt lat="44.61569667209701" lon="8.078326154587298"><ele>629.0</ele><time>2026-04-05T13:57:06.998Z</time></trkpt><trkpt lat="44.615760360407535" lon="8.078238169422734"><ele>626.1666666666666</ele><time>2026-04-05T13:57:07.998Z</time></trkpt><trkpt lat="44.61582027926815" lon="8.078149614489396"><ele>623.3333333333333</ele><time>2026-04-05T13:57:08.998Z</time></trkpt><trkpt lat="44.61587589555322" lon="8.07805665915813"><ele>620.5</ele><time>2026-04-05T13:57:09.998Z</time></trkpt><trkpt lat="44.615929828671064" lon="8.077962762429017"><ele>617.6666666666666</ele><time>2026-04-05T13:57:10.998Z</time></trkpt><trkpt lat="44.61598325500587" lon="8.077872803499519"><ele>614.8333333333334</ele><time>2026-04-05T13:57:11.998Z</time></trkpt><trkpt lat="44.61603476216345" lon="8.077781859457673"><ele>612.0</ele><time>2026-04-05T13:57:12.998Z</time></trkpt><trkpt lat="44.61608244367139" lon="8.077688888890094"><ele>612.0</ele><time>2026-04-05T13:57:13.998Z</time></trkpt><trkpt lat="44.61612725651524" lon="8.077598997823214"><ele>612.0</ele><time>2026-04-05T13:57:14.998Z</time></trkpt><trkpt lat="44.616169215280244" lon="8.077506633934108"><ele>612.0</ele><time>2026-04-05T13:57:15.998Z</time></trkpt><trkpt lat="44.61621473856785" lon="8.077419199816168"><ele>612.0</ele><time>2026-04-05T13:57:16.998Z</time></trkpt><trkpt lat="44.61626382748776" lon="8.077332745329235"><ele>612.0</ele><time>2026-04-05T13:57:18Z</time></trkpt><trkpt lat="44.61631409872081" lon="8.077244107083324"><ele>612.0</ele><time>2026-04-05T13:57:19Z</time></trkpt><trkpt lat="44.61635880469078" lon="8.077145596774407"><ele>612.3333333333334</ele><time>2026-04-05T13:57:20Z</time></trkpt><trkpt lat="44.61639961538188" lon="8.077048451393143"><ele>612.6666666666666</ele><time>2026-04-05T13:57:21Z</time></trkpt><trkpt lat="44.6164377458341" lon="8.07694858208175"><ele>613.0</ele><time>2026-04-05T13:57:22Z</time></trkpt><trkpt lat="44.616473774316404" lon="8.076847229327043"><ele>613.3333333333333</ele><time>2026-04-05T13:57:23Z</time></trkpt><trkpt lat="44.61652230611272" lon="8.076753137528419"><ele>613.6666666666666</ele><time>2026-04-05T13:57:24Z</time></trkpt><trkpt lat="44.616575548164064" lon="8.076668601344176"><ele>614.0</ele><time>2026-04-05T13:57:25Z</time></trkpt><trkpt lat="44.61663834271624" lon="8.076600302860326"><ele>612.6666666666666</ele><time>2026-04-05T13:57:26Z</time></trkpt><trkpt lat="44.61670731856732" lon="8.076546787440472"><ele>611.3333333333333</ele><time>2026-04-05T13:57:27Z</time></trkpt><trkpt lat="44.616786388303495" lon="8.076515542535374"><ele>610.0</ele><time>2026-04-05T13:57:28Z</time></trkpt><trkpt lat="44.616865615700725" lon="8.076497887472241"><ele>608.6666666666666</ele><time>2026-04-05T13:57:29Z</time></trkpt><trkpt lat="44.616945533475516" lon="8.076489777136594"><ele>607.3333333333334</ele><time>2026-04-05T13:57:30Z</time></trkpt><trkpt lat="44.6170263837151" lon="8.07648495704141"><ele>606.0</ele><time>2026-04-05T13:57:31Z</time></trkpt><trkpt lat="44.617105179344854" lon="8.076490685410466"><ele>606.0</ele><time>2026-04-05T13:57:32Z</time></trkpt><trkpt lat="44.617186171020755" lon="8.076482501145964"><ele>606.0</ele><time>2026-04-05T13:57:33Z</time></trkpt><trkpt lat="44.61726932129438" lon="8.076452224672435"><ele>606.0</ele><time>2026-04-05T13:57:34Z</time></trkpt><trkpt lat="44.61734699061045" lon="8.076394267492562"><ele>606.0</ele><time>2026-04-05T13:57:35Z</time></trkpt><trkpt lat="44.617423756216134" lon="8.076316565776104"><ele>606.0</ele><time>2026-04-05T13:57:36Z</time></trkpt><trkpt lat="44.61749317993712" lon="8.076228919944091"><ele>606.0</ele><time>2026-04-05T13:57:37Z</time></trkpt><trkpt lat="44.61756081276904" lon="8.07612767423767"><ele>606.0</ele><time>2026-04-05T13:57:38Z</time></trkpt><trkpt lat="44.61761912951366" lon="8.076033191260498"><ele>606.0</ele><time>2026-04-05T13:57:39Z</time></trkpt><trkpt lat="44.617673428176374" lon="8.075935158948559"><ele>606.0</ele><time>2026-04-05T13:57:40Z</time></trkpt><trkpt lat="44.61772462758818" lon="8.075839585375236"><ele>606.0</ele><time>2026-04-05T13:57:41Z</time></trkpt><trkpt lat="44.617771276040045" lon="8.075751967979325"><ele>606.0</ele><time>2026-04-05T13:57:42Z</time></trkpt><trkpt lat="44.61781814325704" lon="8.075679569436314"><ele>606.0</ele><time>2026-04-05T13:57:43Z</time></trkpt><trkpt lat="44.61786839303636" lon="8.075616699992109"><ele>602.8</ele><time>2026-04-05T13:57:44Z</time></trkpt><trkpt lat="44.61792129893971" lon="8.075567130599739"><ele>599.6</ele><time>2026-04-05T13:57:45Z</time></trkpt><trkpt lat="44.61801093547428" lon="8.07546966987855"><ele>596.4</ele><time>2026-04-05T13:57:47Z</time></trkpt><trkpt lat="44.6181137059259" lon="8.075390330612493"><ele>593.2</ele><time>2026-04-05T13:57:49Z</time></trkpt><trkpt lat="44.61822571026085" lon="8.075344487029001"><ele>590.0</ele><time>2026-04-05T13:57:51Z</time></trkpt><trkpt lat="44.61833873422476" lon="8.075314742720654"><ele>590.0000000000001</ele><time>2026-04-05T13:57:53Z</time></trkpt><trkpt lat="44.6184019814064" lon="8.075328527326409"><ele>590.0</ele><time>2026-04-05T13:57:54Z</time></trkpt><trkpt lat="44.61846626558298" lon="8.075341432916815"><ele>590.0</ele><time>2026-04-05T13:57:55Z</time></trkpt><trkpt lat="44.61853182901683" lon="8.075356125467083"><ele>590.0</ele><time>2026-04-05T13:57:56Z</time></trkpt><trkpt lat="44.618597199346716" lon="8.075377957158688"><ele>590.0</ele><time>2026-04-05T13:57:57Z</time></trkpt><trkpt lat="44.61866328363095" lon="8.075392792190637"><ele>590.0000000000001</ele><time>2026-04-05T13:57:58Z</time></trkpt><trkpt lat="44.618732940158345" lon="8.075402751926045"><ele>590.0</ele><time>2026-04-05T13:57:59Z</time></trkpt><trkpt lat="44.618799784760604" lon="8.075402873191111"><ele>589.1666666666666</ele><time>2026-04-05T13:58:00Z</time></trkpt><trkpt lat="44.6188642047782" lon="8.075383372504708"><ele>588.3333333333333</ele><time>2026-04-05T13:58:01Z</time></trkpt><trkpt lat="44.618925657286" lon="8.075333537541097"><ele>587.5</ele><time>2026-04-05T13:58:02Z</time></trkpt><trkpt lat="44.618972960785214" lon="8.075265325669854"><ele>586.6666666666666</ele><time>2026-04-05T13:58:02.999Z</time></trkpt><trkpt lat="44.61901088966734" lon="8.075187640122467"><ele>585.8333333333334</ele><time>2026-04-05T13:58:03.999Z</time></trkpt><trkpt lat="44.619105866513685" lon="8.075088755592633"><ele>585.0</ele><time>2026-04-05T13:58:05.999Z</time></trkpt><trkpt lat="44.61917357681627" lon="8.075110628157164"><ele>585.0</ele><time>2026-04-05T13:58:06.999Z</time></trkpt><trkpt lat="44.61923717922602" lon="8.075133771427346"><ele>585.0</ele><time>2026-04-05T13:58:07.999Z</time></trkpt><trkpt lat="44.61931262593007" lon="8.075132777276352"><ele>585.0</ele><time>2026-04-05T13:58:08.999Z</time></trkpt><trkpt lat="44.61938102794737" lon="8.075149709916712"><ele>585.0</ele><time>2026-04-05T13:58:09.999Z</time></trkpt><trkpt lat="44.61945323327056" lon="8.075148003191634"><ele>585.0</ele><time>2026-04-05T13:58:10.999Z</time></trkpt><trkpt lat="44.61953398461683" lon="8.075127492298437"><ele>585.0</ele><time>2026-04-05T13:58:11.999Z</time></trkpt><trkpt lat="44.61960932322883" lon="8.075092228740857"><ele>585.0</ele><time>2026-04-05T13:58:12.999Z</time></trkpt><trkpt lat="44.6196780653788" lon="8.07505093784557"><ele>583.8571428571429</ele><time>2026-04-05T13:58:13.999Z</time></trkpt><trkpt lat="44.619748072683095" lon="8.075003739745464"><ele>582.7142857142857</ele><time>2026-04-05T13:58:14.999Z</time></trkpt><trkpt lat="44.61981674395872" lon="8.074952538388795"><ele>581.5714285714286</ele><time>2026-04-05T13:58:15.999Z</time></trkpt><trkpt lat="44.61988304667002" lon="8.074903639092932"><ele>580.4285714285714</ele><time>2026-04-05T13:58:16.999Z</time></trkpt><trkpt lat="44.61994827550932" lon="8.07485980065498"><ele>579.2857142857143</ele><time>2026-04-05T13:58:17.999Z</time></trkpt><trkpt lat="44.62001102029584" lon="8.074820407338047"><ele>578.1428571428571</ele><time>2026-04-05T13:58:18.999Z</time></trkpt><trkpt lat="44.62007659553438" lon="8.074787634690912"><ele>577.0</ele><time>2026-04-05T13:58:19.999Z</time></trkpt><trkpt lat="44.62014765534403" lon="8.074790778578292"><ele>576.0</ele><time>2026-04-05T13:58:20.999Z</time></trkpt><trkpt lat="44.62021545700354" lon="8.074779019305824"><ele>575.0</ele><time>2026-04-05T13:58:21.999Z</time></trkpt><trkpt lat="44.620278803387606" lon="8.074776275968272"><ele>574.0</ele><time>2026-04-05T13:58:22.999Z</time></trkpt><trkpt lat="44.620342955358716" lon="8.07477927914468"><ele>573.0</ele><time>2026-04-05T13:58:23.999Z</time></trkpt><trkpt lat="44.62041382234306" lon="8.074784312189644"><ele>572.0</ele><time>2026-04-05T13:58:24.999Z</time></trkpt><trkpt lat="44.62048129611994" lon="8.07479041032585"><ele>571.0</ele><time>2026-04-05T13:58:25.999Z</time></trkpt><trkpt lat="44.620547265636006" lon="8.074776127280188"><ele>570.0</ele><time>2026-04-05T13:58:26.999Z</time></trkpt><trkpt lat="44.62066404944291" lon="8.07479597148566"><ele>568.2</ele><time>2026-04-05T13:58:28.999Z</time></trkpt><trkpt lat="44.620773526627545" lon="8.074777247109457"><ele>566.4</ele><time>2026-04-05T13:58:30.999Z</time></trkpt><trkpt lat="44.620853824884" lon="8.074718978929948"><ele>564.6</ele><time>2026-04-05T13:58:32.999Z</time></trkpt><trkpt lat="44.62082832577981" lon="8.074556361659555"><ele>562.8</ele><time>2026-04-05T13:58:33.999Z</time></trkpt><trkpt lat="44.620800026601884" lon="8.074399091275492"><ele>561.0</ele><time>2026-04-05T13:58:35.999Z</time></trkpt><trkpt lat="44.620772542794235" lon="8.074235384272045"><ele>561.0</ele><time>2026-04-05T13:58:37.999Z</time></trkpt><trkpt lat="44.62073664772919" lon="8.074155885629978"><ele>561.0</ele><time>2026-04-05T13:58:38.999Z</time></trkpt><trkpt lat="44.62071734045238" lon="8.074065681096345"><ele>561.0</ele><time>2026-04-05T13:58:39.999Z</time></trkpt><trkpt lat="44.62069556058716" lon="8.07397813316387"><ele>561.0</ele><time>2026-04-05T13:58:40.999Z</time></trkpt><trkpt lat="44.62067220802034" lon="8.073887783777101"><ele>561.0</ele><time>2026-04-05T13:58:41.999Z</time></trkpt><trkpt lat="44.62064960094411" lon="8.073799317913632"><ele>561.0</ele><time>2026-04-05T13:58:42.999Z</time></trkpt><trkpt lat="44.6206347345222" lon="8.073625093331948"><ele>559.4285714285714</ele><time>2026-04-05T13:58:44.999Z</time></trkpt><trkpt lat="44.62064708203045" lon="8.07353619757281"><ele>557.8571428571428</ele><time>2026-04-05T13:58:45.999Z</time></trkpt><trkpt lat="44.62067725553008" lon="8.073456391583946"><ele>556.2857142857142</ele><time>2026-04-05T13:58:46.999Z</time></trkpt><trkpt lat="44.62072460291337" lon="8.07339544777393"><ele>554.7142857142857</ele><time>2026-04-05T13:58:47.999Z</time></trkpt><trkpt lat="44.62079209961532" lon="8.073387433410566"><ele>553.1428571428571</ele><time>2026-04-05T13:58:48.999Z</time></trkpt><trkpt lat="44.62085414861431" lon="8.07336071233168"><ele>551.5714285714286</ele><time>2026-04-05T13:58:49.999Z</time></trkpt><trkpt lat="44.62091610156826" lon="8.073325904160109"><ele>550.0</ele><time>2026-04-05T13:58:50.999Z</time></trkpt><trkpt lat="44.62097304949265" lon="8.073281594546987"><ele>547.2</ele><time>2026-04-05T13:58:51.999Z</time></trkpt><trkpt lat="44.621017591769636" lon="8.073203281988002"><ele>544.4</ele><time>2026-04-05T13:58:52.999Z</time></trkpt><trkpt lat="44.62106809011653" lon="8.073140605432513"><ele>541.6</ele><time>2026-04-05T13:58:53.999Z</time></trkpt><trkpt lat="44.62116177236447" lon="8.073033390613615"><ele>538.8</ele><time>2026-04-05T13:58:55.999Z</time></trkpt><trkpt lat="44.621252701719285" lon="8.072931975625679"><ele>536.0</ele><time>2026-04-05T13:58:57.999Z</time></trkpt><trkpt lat="44.62136762996924" lon="8.072916237634"><ele>536.0</ele><time>2026-04-05T13:58:59.999Z</time></trkpt><trkpt lat="44.621434233741056" lon="8.072914611825965"><ele>536.0</ele><time>2026-04-05T13:59:00.999Z</time></trkpt><trkpt lat="44.62149818420583" lon="8.072911791524627"><ele>536.0</ele><time>2026-04-05T13:59:01.999Z</time></trkpt><trkpt lat="44.621621077036146" lon="8.072904999389994"><ele>536.0</ele><time>2026-04-05T13:59:03.998Z</time></trkpt><trkpt lat="44.6217375136048" lon="8.07289559405515"><ele>536.0</ele><time>2026-04-05T13:59:05.998Z</time></trkpt><trkpt lat="44.62184774201855" lon="8.072888534798992"><ele>536.0</ele><time>2026-04-05T13:59:07.998Z</time></trkpt><trkpt lat="44.62195197475522" lon="8.072903228402792"><ele>536.0</ele><time>2026-04-05T13:59:09.998Z</time></trkpt><trkpt lat="44.622063487233696" lon="8.072921115719897"><ele>536.0</ele><time>2026-04-05T13:59:11.998Z</time></trkpt><trkpt lat="44.62215631374769" lon="8.073010743358443"><ele>536.0</ele><time>2026-04-05T13:59:13.998Z</time></trkpt><trkpt lat="44.62224973761681" lon="8.073064495796439"><ele>536.0</ele><time>2026-04-05T13:59:15.998Z</time></trkpt><trkpt lat="44.62234063429585" lon="8.073123453329965"><ele>534.8333333333333</ele><time>2026-04-05T13:59:17.998Z</time></trkpt><trkpt lat="44.62244572233007" lon="8.07306796664411"><ele>533.6666666666666</ele><time>2026-04-05T13:59:19.998Z</time></trkpt><trkpt lat="44.62255852607183" lon="8.073000290849428"><ele>532.5</ele><time>2026-04-05T13:59:21.998Z</time></trkpt><trkpt lat="44.622620500684675" lon="8.072963109569965"><ele>531.3333333333334</ele><time>2026-04-05T13:59:22.998Z</time></trkpt><trkpt lat="44.622682797781714" lon="8.072925734853847"><ele>530.1666666666667</ele><time>2026-04-05T13:59:24Z</time></trkpt><trkpt lat="44.62274682010127" lon="8.072887471054178"><ele>529.0</ele><time>2026-04-05T13:59:25Z</time></trkpt><trkpt lat="44.6228102278541" lon="8.072846396477075"><ele>526.3333333333334</ele><time>2026-04-05T13:59:26Z</time></trkpt><trkpt lat="44.62286828457498" lon="8.072777260089515"><ele>523.6666666666667</ele><time>2026-04-05T13:59:27Z</time></trkpt><trkpt lat="44.62293387956203" lon="8.072737040144542"><ele>521.0</ele><time>2026-04-05T13:59:28Z</time></trkpt><trkpt lat="44.62299183977622" lon="8.072688840767682"><ele>518.3333333333334</ele><time>2026-04-05T13:59:29Z</time></trkpt><trkpt lat="44.62310404935398" lon="8.072617266403673"><ele>515.6666666666666</ele><time>2026-04-05T13:59:31Z</time></trkpt><trkpt lat="44.62318423414128" lon="8.072579620651084"><ele>513.0</ele><time>2026-04-05T13:59:33Z</time></trkpt><trkpt lat="44.623258749898596" lon="8.072600541482164"><ele>513.0</ele><time>2026-04-05T13:59:35Z</time></trkpt><trkpt lat="44.62327492865872" lon="8.072729188500215"><ele>513.0</ele><time>2026-04-05T13:59:37Z</time></trkpt><trkpt lat="44.62326209840509" lon="8.07282658168309"><ele>513.0</ele><time>2026-04-05T13:59:39Z</time></trkpt><trkpt lat="44.62330053353835" lon="8.072903974379216"><ele>513.0</ele><time>2026-04-05T13:59:41Z</time></trkpt><trkpt lat="44.623415221380725" lon="8.072842548398889"><ele>513.0</ele><time>2026-04-05T13:59:43Z</time></trkpt><trkpt lat="44.623475404833854" lon="8.072713023853092"><ele>513.0</ele><time>2026-04-05T13:59:45Z</time></trkpt><trkpt lat="44.62348098220106" lon="8.072529803778576"><ele>513.0</ele><time>2026-04-05T13:59:47Z</time></trkpt><trkpt lat="44.623467741443605" lon="8.072440610012245"><ele>513.0</ele><time>2026-04-05T13:59:48Z</time></trkpt><trkpt lat="44.62345203225111" lon="8.072347921765585"><ele>513.0</ele><time>2026-04-05T13:59:49Z</time></trkpt><trkpt lat="44.62343594318953" lon="8.072253901268889"><ele>513.0</ele><time>2026-04-05T13:59:50Z</time></trkpt><trkpt lat="44.62342058876309" lon="8.072164173957772"><ele>513.0</ele><time>2026-04-05T13:59:51Z</time></trkpt><trkpt lat="44.62340451067536" lon="8.072067474923518"><ele>511.7142857142858</ele><time>2026-04-05T13:59:52Z</time></trkpt><trkpt lat="44.62338690261785" lon="8.071959473353976"><ele>510.42857142857144</ele><time>2026-04-05T13:59:53Z</time></trkpt><trkpt lat="44.62337075366042" lon="8.071863391027964"><ele>509.14285714285717</ele><time>2026-04-05T13:59:54Z</time></trkpt><trkpt lat="44.62335250567257" lon="8.071765737304165"><ele>507.8571428571429</ele><time>2026-04-05T13:59:55Z</time></trkpt><trkpt lat="44.62333166102047" lon="8.07167149250063"><ele>506.57142857142856</ele><time>2026-04-05T13:59:56Z</time></trkpt><trkpt lat="44.62330669075673" lon="8.071575191603255"><ele>505.2857142857143</ele><time>2026-04-05T13:59:57Z</time></trkpt><trkpt lat="44.62328018038916" lon="8.071483005053874"><ele>504.0</ele><time>2026-04-05T13:59:58Z</time></trkpt><trkpt lat="44.62325365676468" lon="8.071398235867916"><ele>501.0</ele><time>2026-04-05T13:59:59Z</time></trkpt><trkpt lat="44.62322694712736" lon="8.071313872135839"><ele>498.0</ele><time>2026-04-05T14:00:00Z</time></trkpt><trkpt lat="44.62316394091322" lon="8.071169778684633"><ele>495.0</ele><time>2026-04-05T14:00:02Z</time></trkpt><trkpt lat="44.62310708950526" lon="8.07102532582182"><ele>492.0</ele><time>2026-04-05T14:00:04Z</time></trkpt><trkpt lat="44.62301612191945" lon="8.070919950016993"><ele>489.0</ele><time>2026-04-05T14:00:06Z</time></trkpt><trkpt lat="44.62296003806521" lon="8.070875384101521"><ele>489.0</ele><time>2026-04-05T14:00:06.999Z</time></trkpt><trkpt lat="44.62288633652992" lon="8.070864366284253"><ele>489.00000000000006</ele><time>2026-04-05T14:00:07.999Z</time></trkpt><trkpt lat="44.62282014163574" lon="8.070860620166679"><ele>489.0</ele><time>2026-04-05T14:00:08.999Z</time></trkpt><trkpt lat="44.62275136033838" lon="8.070856727669158"><ele>489.0</ele><time>2026-04-05T14:00:09.999Z</time></trkpt><trkpt lat="44.62268555632452" lon="8.070853212807622"><ele>489.00000000000006</ele><time>2026-04-05T14:00:10.999Z</time></trkpt><trkpt lat="44.62262029779905" lon="8.07084979491152"><ele>489.0</ele><time>2026-04-05T14:00:11.999Z</time></trkpt><trkpt lat="44.62255637704265" lon="8.07086957726418"><ele>489.0</ele><time>2026-04-05T14:00:12.999Z</time></trkpt><trkpt lat="44.622465241990206" lon="8.070858824375156"><ele>490.3333333333333</ele><time>2026-04-05T14:00:14.999Z</time></trkpt><trkpt lat="44.62239145493318" lon="8.070854674654056"><ele>491.66666666666663</ele><time>2026-04-05T14:00:16.999Z</time></trkpt><trkpt lat="44.622343793562656" lon="8.070748993998688"><ele>493.0</ele><time>2026-04-05T14:00:19.999Z</time></trkpt><trkpt lat="44.622453070078336" lon="8.070735092354683"><ele>494.3333333333333</ele><time>2026-04-05T14:00:21.999Z</time></trkpt><trkpt lat="44.6225536260172" lon="8.070708229700985"><ele>495.66666666666663</ele><time>2026-04-05T14:00:23.999Z</time></trkpt><trkpt lat="44.62262075617233" lon="8.070679469680778"><ele>497.0</ele><time>2026-04-05T14:00:24.999Z</time></trkpt><trkpt lat="44.622683581991375" lon="8.070669137207574"><ele>492.8</ele><time>2026-04-05T14:00:25.999Z</time></trkpt><trkpt lat="44.62274843902266" lon="8.07065029355492"><ele>488.6</ele><time>2026-04-05T14:00:26.999Z</time></trkpt><trkpt lat="44.622855694872335" lon="8.070610037389187"><ele>484.40000000000003</ele><time>2026-04-05T14:00:28.999Z</time></trkpt><trkpt lat="44.62294926383609" lon="8.070571170724405"><ele>480.20000000000005</ele><time>2026-04-05T14:00:30.999Z</time></trkpt><trkpt lat="44.62304780364164" lon="8.070528995132756"><ele>476.0</ele><time>2026-04-05T14:00:32.999Z</time></trkpt><trkpt lat="44.623143122571975" lon="8.070484997463707"><ele>475.99999999999994</ele><time>2026-04-05T14:00:34.999Z</time></trkpt><trkpt lat="44.62323701050869" lon="8.070455224294083"><ele>476.0</ele><time>2026-04-05T14:00:36.999Z</time></trkpt><trkpt lat="44.62330906450929" lon="8.070432023792304"><ele>476.0</ele><time>2026-04-05T14:00:38.999Z</time></trkpt><trkpt lat="44.62334356172672" lon="8.070313576770792"><ele>476.0</ele><time>2026-04-05T14:00:41.999Z</time></trkpt><trkpt lat="44.62328341004705" lon="8.070231796561295"><ele>475.99999999999994</ele><time>2026-04-05T14:00:43.999Z</time></trkpt><trkpt lat="44.62321664274334" lon="8.070149675569017"><ele>476.0</ele><time>2026-04-05T14:00:45.999Z</time></trkpt><trkpt lat="44.62314384889617" lon="8.070084969431921"><ele>476.0</ele><time>2026-04-05T14:00:47.999Z</time></trkpt><trkpt lat="44.62307989472864" lon="8.070018992556783"><ele>476.0</ele><time>2026-04-05T14:00:49.999Z</time></trkpt><trkpt lat="44.62307093135637" lon="8.069904011743828"><ele>476.0</ele><time>2026-04-05T14:00:51.999Z</time></trkpt><trkpt lat="44.62316453680925" lon="8.069834477132412"><ele>476.0</ele><time>2026-04-05T14:00:53.999Z</time></trkpt><trkpt lat="44.62324893161509" lon="8.069751402949954"><ele>476.0</ele><time>2026-04-05T14:00:55.999Z</time></trkpt><trkpt lat="44.62333822735392" lon="8.06967505297688"><ele>472.0</ele><time>2026-04-05T14:00:57.999Z</time></trkpt><trkpt lat="44.62341950554397" lon="8.069591756560182"><ele>468.0</ele><time>2026-04-05T14:00:59.999Z</time></trkpt><trkpt lat="44.62349327533853" lon="8.06949680253564"><ele>464.0</ele><time>2026-04-05T14:01:01.999Z</time></trkpt><trkpt lat="44.623562858303956" lon="8.06940052000204"><ele>460.0</ele><time>2026-04-05T14:01:03.999Z</time></trkpt><trkpt lat="44.62363887538624" lon="8.069320122269263"><ele>456.0</ele><time>2026-04-05T14:01:05.999Z</time></trkpt><trkpt lat="44.62372799260935" lon="8.06927609522543"><ele>456.0</ele><time>2026-04-05T14:01:07.998Z</time></trkpt><trkpt lat="44.623815732101725" lon="8.069225554808376"><ele>456.0</ele><time>2026-04-05T14:01:09.998Z</time></trkpt><trkpt lat="44.623904644547316" lon="8.069168600102408"><ele>456.0</ele><time>2026-04-05T14:01:11.998Z</time></trkpt><trkpt lat="44.624017833234696" lon="8.069111908352461"><ele>456.0</ele><time>2026-04-05T14:01:13.998Z</time></trkpt><trkpt lat="44.624081193347216" lon="8.06909266407386"><ele>456.0</ele><time>2026-04-05T14:01:14.998Z</time></trkpt><trkpt lat="44.624203708869615" lon="8.069072248702595"><ele>451.25</ele><time>2026-04-05T14:01:16.998Z</time></trkpt><trkpt lat="44.624319434615195" lon="8.069036936293116"><ele>446.5</ele><time>2026-04-05T14:01:18.998Z</time></trkpt><trkpt lat="44.62443918620146" lon="8.0690206687313"><ele>441.75</ele><time>2026-04-05T14:01:20.998Z</time></trkpt><trkpt lat="44.6245549455737" lon="8.06898639843897"><ele>437.0</ele><time>2026-04-05T14:01:22.998Z</time></trkpt><trkpt lat="44.62464445669276" lon="8.068888068444235"><ele>437.0</ele><time>2026-04-05T14:01:24.998Z</time></trkpt><trkpt lat="44.624740300339234" lon="8.068789103106345"><ele>437.0</ele><time>2026-04-05T14:01:26.998Z</time></trkpt><trkpt lat="44.62484803028084" lon="8.068714420419436"><ele>437.0</ele><time>2026-04-05T14:01:28.998Z</time></trkpt><trkpt lat="44.62493369885244" lon="8.06861575196621"><ele>437.0</ele><time>2026-04-05T14:01:31Z</time></trkpt><trkpt lat="44.62501947167825" lon="8.068526144850075"><ele>437.0</ele><time>2026-04-05T14:01:33Z</time></trkpt><trkpt lat="44.625101893149484" lon="8.068437583029285"><ele>437.00000000000006</ele><time>2026-04-05T14:01:35Z</time></trkpt><trkpt lat="44.625174722521756" lon="8.068343102162906"><ele>437.00000000000006</ele><time>2026-04-05T14:01:37Z</time></trkpt><trkpt lat="44.62521941154786" lon="8.068238113538728"><ele>437.0</ele><time>2026-04-05T14:01:39Z</time></trkpt><trkpt lat="44.62525144388491" lon="8.06811205895902"><ele>437.0</ele><time>2026-04-05T14:01:41Z</time></trkpt><trkpt lat="44.625281620403285" lon="8.067982223076378"><ele>435.0</ele><time>2026-04-05T14:01:43Z</time></trkpt><trkpt lat="44.62534200121972" lon="8.067859894825178"><ele>433.00000000000006</ele><time>2026-04-05T14:01:45Z</time></trkpt><trkpt lat="44.62543909578972" lon="8.067807380384275"><ele>431.00000000000006</ele><time>2026-04-05T14:01:47Z</time></trkpt><trkpt lat="44.62554392506439" lon="8.06779198504052"><ele>429.0</ele><time>2026-04-05T14:01:49Z</time></trkpt><trkpt lat="44.625658607538206" lon="8.067774080970166"><ele>427.0</ele><time>2026-04-05T14:01:51Z</time></trkpt><trkpt lat="44.62576578012628" lon="8.06775687475119"><ele>427.0</ele><time>2026-04-05T14:01:53Z</time></trkpt><trkpt lat="44.625863938133335" lon="8.067744128233976"><ele>427.00000000000006</ele><time>2026-04-05T14:01:55Z</time></trkpt><trkpt lat="44.62593637597239" lon="8.067683962832847"><ele>427.00000000000006</ele><time>2026-04-05T14:01:57Z</time></trkpt><trkpt lat="44.62591782893181" lon="8.067549435048146"><ele>427.0</ele><time>2026-04-05T14:01:59Z</time></trkpt><trkpt lat="44.62582189186901" lon="8.067480316975454"><ele>427.0</ele><time>2026-04-05T14:02:01Z</time></trkpt><trkpt lat="44.62573773842063" lon="8.067422487315072"><ele>422.6</ele><time>2026-04-05T14:02:03Z</time></trkpt><trkpt lat="44.625635669790526" lon="8.067380529048089"><ele>418.20000000000005</ele><time>2026-04-05T14:02:05Z</time></trkpt><trkpt lat="44.6255416667094" lon="8.067355145269623"><ele>413.8</ele><time>2026-04-05T14:02:07Z</time></trkpt><trkpt lat="44.625470046361805" lon="8.067334832422192"><ele>409.4</ele><time>2026-04-05T14:02:09Z</time></trkpt><trkpt lat="44.625471147070954" lon="8.067199047680912"><ele>405.0</ele><time>2026-04-05T14:02:11.999Z</time></trkpt><trkpt lat="44.625565025030646" lon="8.067132611244052"><ele>405.0</ele><time>2026-04-05T14:02:13.999Z</time></trkpt><trkpt lat="44.62566700119788" lon="8.067028311194266"><ele>405.0</ele><time>2026-04-05T14:02:15.999Z</time></trkpt><trkpt lat="44.62572756017277" lon="8.066972558287974"><ele>405.0</ele><time>2026-04-05T14:02:16.999Z</time></trkpt><trkpt lat="44.625781672673064" lon="8.066904575325028"><ele>405.0</ele><time>2026-04-05T14:02:17.999Z</time></trkpt><trkpt lat="44.62584945717413" lon="8.066839885717144"><ele>405.0</ele><time>2026-04-05T14:02:18.999Z</time></trkpt><trkpt lat="44.62591649379736" lon="8.066771328766276"><ele>405.0</ele><time>2026-04-05T14:02:19.999Z</time></trkpt><trkpt lat="44.62598358353524" lon="8.06669844692569"><ele>405.0</ele><time>2026-04-05T14:02:20.999Z</time></trkpt><trkpt lat="44.62605847488819" lon="8.066631354794328"><ele>405.0</ele><time>2026-04-05T14:02:21.999Z</time></trkpt><trkpt lat="44.62613133973745" lon="8.066557404438168"><ele>405.0</ele><time>2026-04-05T14:02:22.999Z</time></trkpt><trkpt lat="44.62620034745347" lon="8.066466207452686"><ele>405.0</ele><time>2026-04-05T14:02:23.999Z</time></trkpt><trkpt lat="44.62627033462745" lon="8.066387619850863"><ele>405.0</ele><time>2026-04-05T14:02:24.999Z</time></trkpt><trkpt lat="44.6263454202946" lon="8.066314849759184"><ele>401.6</ele><time>2026-04-05T14:02:25.999Z</time></trkpt><trkpt lat="44.62643089403458" lon="8.066244965645128"><ele>398.2</ele><time>2026-04-05T14:02:26.999Z</time></trkpt><trkpt lat="44.62652427728202" lon="8.066210677890691"><ele>394.79999999999995</ele><time>2026-04-05T14:02:27.999Z</time></trkpt><trkpt lat="44.62661238348588" lon="8.06616055136806"><ele>391.4</ele><time>2026-04-05T14:02:28.999Z</time></trkpt><trkpt lat="44.626695054623454" lon="8.066095391887684"><ele>388.0</ele><time>2026-04-05T14:02:29.999Z</time></trkpt><trkpt lat="44.626784609980895" lon="8.066054776760724"><ele>388.0</ele><time>2026-04-05T14:02:30.999Z</time></trkpt><trkpt lat="44.62687179175034" lon="8.066011461038947"><ele>388.0</ele><time>2026-04-05T14:02:31.999Z</time></trkpt><trkpt lat="44.626955887730716" lon="8.06596274336923"><ele>388.0</ele><time>2026-04-05T14:02:32.999Z</time></trkpt><trkpt lat="44.62704228595763" lon="8.065915238076895"><ele>388.0</ele><time>2026-04-05T14:02:33.999Z</time></trkpt><trkpt lat="44.6271272597199" lon="8.065865685462777"><ele>388.0</ele><time>2026-04-05T14:02:34.999Z</time></trkpt><trkpt lat="44.627211641156855" lon="8.06582323933322"><ele>388.1666666666667</ele><time>2026-04-05T14:02:35.999Z</time></trkpt><trkpt lat="44.62729371679568" lon="8.065789546887105"><ele>388.33333333333337</ele><time>2026-04-05T14:02:36.999Z</time></trkpt><trkpt lat="44.627384220466844" lon="8.065788695611026"><ele>388.5</ele><time>2026-04-05T14:02:37.999Z</time></trkpt><trkpt lat="44.62747441609381" lon="8.065768747389082"><ele>388.66666666666663</ele><time>2026-04-05T14:02:38.999Z</time></trkpt><trkpt lat="44.627558296254485" lon="8.065737340571335"><ele>388.8333333333333</ele><time>2026-04-05T14:02:39.999Z</time></trkpt><trkpt lat="44.62764561393658" lon="8.065725070879669"><ele>389.0</ele><time>2026-04-05T14:02:40.999Z</time></trkpt><trkpt lat="44.62773077748045" lon="8.065718121745833"><ele>384.2</ele><time>2026-04-05T14:02:41.999Z</time></trkpt><trkpt lat="44.62782019497308" lon="8.06570386686802"><ele>379.4</ele><time>2026-04-05T14:02:42.999Z</time></trkpt><trkpt lat="44.62791212075518" lon="8.065687700335664"><ele>374.6</ele><time>2026-04-05T14:02:43.999Z</time></trkpt><trkpt lat="44.628000837797806" lon="8.065679029765288"><ele>369.8</ele><time>2026-04-05T14:02:44.999Z</time></trkpt><trkpt lat="44.628113557496036" lon="8.065685893930908"><ele>365.0</ele><time>2026-04-05T14:02:45.999Z</time></trkpt><trkpt lat="44.62819374056292" lon="8.0657164734639"><ele>365.0</ele><time>2026-04-05T14:02:46.999Z</time></trkpt><trkpt lat="44.62827785300033" lon="8.065725316243547"><ele>365.0</ele><time>2026-04-05T14:02:47.999Z</time></trkpt><trkpt lat="44.62837238631484" lon="8.065744576792563"><ele>365.0</ele><time>2026-04-05T14:02:48.999Z</time></trkpt><trkpt lat="44.628449496121995" lon="8.065758848247023"><ele>365.0</ele><time>2026-04-05T14:02:49.999Z</time></trkpt><trkpt lat="44.62852636309826" lon="8.0657674855385"><ele>365.0</ele><time>2026-04-05T14:02:50.999Z</time></trkpt><trkpt lat="44.62858752146489" lon="8.065802739204758"><ele>365.0</ele><time>2026-04-05T14:02:51.999Z</time></trkpt><trkpt lat="44.62869478537628" lon="8.065874205313241"><ele>365.33333333333337</ele><time>2026-04-05T14:02:52.999Z</time></trkpt><trkpt lat="44.628777137626756" lon="8.065974418349876"><ele>365.6666666666667</ele><time>2026-04-05T14:02:54.999Z</time></trkpt><trkpt lat="44.628818121008976" lon="8.066066701318313"><ele>366.0</ele><time>2026-04-05T14:02:55.999Z</time></trkpt><trkpt lat="44.62887541599691" lon="8.066151597419378"><ele>366.3333333333333</ele><time>2026-04-05T14:02:56.999Z</time></trkpt><trkpt lat="44.6289449787214" lon="8.06622249786605"><ele>366.66666666666663</ele><time>2026-04-05T14:02:57.999Z</time></trkpt><trkpt lat="44.629024329884736" lon="8.06628577472004"><ele>367.0</ele><time>2026-04-05T14:02:58.999Z</time></trkpt><trkpt lat="44.62911308941704" lon="8.066334316851947"><ele>367.0</ele><time>2026-04-05T14:02:59.999Z</time></trkpt><trkpt lat="44.62919976981992" lon="8.066373364856876"><ele>367.0</ele><time>2026-04-05T14:03:00.999Z</time></trkpt><trkpt lat="44.629281955905654" lon="8.066408532719949"><ele>367.0</ele><time>2026-04-05T14:03:01.999Z</time></trkpt><trkpt lat="44.62936564011201" lon="8.066440267428097"><ele>367.0</ele><time>2026-04-05T14:03:02.999Z</time></trkpt><trkpt lat="44.62944850222918" lon="8.066478899748244"><ele>367.0</ele><time>2026-04-05T14:03:03.999Z</time></trkpt><trkpt lat="44.62952120937685" lon="8.066545504589879"><ele>367.0</ele><time>2026-04-05T14:03:04.999Z</time></trkpt><trkpt lat="44.629584146063294" lon="8.066584896901029"><ele>366.1428571428571</ele><time>2026-04-05T14:03:05.999Z</time></trkpt><trkpt lat="44.62965078209964" lon="8.066627769160046"><ele>365.28571428571433</ele><time>2026-04-05T14:03:06.999Z</time></trkpt><trkpt lat="44.629706094550386" lon="8.066670907169811"><ele>364.42857142857144</ele><time>2026-04-05T14:03:07.999Z</time></trkpt><trkpt lat="44.62975095235196" lon="8.066748254891976"><ele>363.57142857142856</ele><time>2026-04-05T14:03:08.999Z</time></trkpt><trkpt lat="44.629849107005505" lon="8.066779311818433"><ele>362.71428571428567</ele><time>2026-04-05T14:03:11.999Z</time></trkpt><trkpt lat="44.629905527727914" lon="8.06671702133405"><ele>361.8571428571429</ele><time>2026-04-05T14:03:12.999Z</time></trkpt><trkpt lat="44.62991881139756" lon="8.066627667047907"><ele>361.0</ele><time>2026-04-05T14:03:13.998Z</time></trkpt><trkpt lat="44.62984113583832" lon="8.06651687649619"><ele>362.20000000000005</ele><time>2026-04-05T14:03:14.998Z</time></trkpt><trkpt lat="44.62976261588846" lon="8.066418138625435"><ele>363.40000000000003</ele><time>2026-04-05T14:03:16.998Z</time></trkpt><trkpt lat="44.62971446557265" lon="8.066358390533024"><ele>364.6</ele><time>2026-04-05T14:03:17.998Z</time></trkpt><trkpt lat="44.629649629568604" lon="8.066264690435258"><ele>365.8</ele><time>2026-04-05T14:03:19.998Z</time></trkpt><trkpt lat="44.62956179330785" lon="8.066144650449226"><ele>367.0</ele><time>2026-04-05T14:03:21.998Z</time></trkpt><trkpt lat="44.629472854134335" lon="8.066031823734658"><ele>367.0</ele><time>2026-04-05T14:03:23.998Z</time></trkpt><trkpt lat="44.62942740316693" lon="8.065968872423463"><ele>367.0</ele><time>2026-04-05T14:03:24.998Z</time></trkpt><trkpt lat="44.62935632839656" lon="8.065863086904008"><ele>367.0</ele><time>2026-04-05T14:03:26.998Z</time></trkpt><trkpt lat="44.62929049269217" lon="8.065746896738235"><ele>367.0</ele><time>2026-04-05T14:03:28.998Z</time></trkpt><trkpt lat="44.62921039414982" lon="8.065505716652467"><ele>366.75</ele><time>2026-04-05T14:03:30.998Z</time></trkpt><trkpt lat="44.62923055860415" lon="8.065385463921901"><ele>366.5</ele><time>2026-04-05T14:03:31.998Z</time></trkpt><trkpt lat="44.62942539245587" lon="8.065509707636007"><ele>366.25</ele><time>2026-04-05T14:03:32.998Z</time></trkpt><trkpt lat="44.62948441194494" lon="8.065626294062705"><ele>366.0</ele><time>2026-04-05T14:03:37Z</time></trkpt><trkpt lat="44.62953945525457" lon="8.065686409239243"><ele>366.0</ele><time>2026-04-05T14:03:38Z</time></trkpt><trkpt lat="44.629594741945155" lon="8.065745439016414"><ele>366.0</ele><time>2026-04-05T14:03:39Z</time></trkpt><trkpt lat="44.62965638806595" lon="8.06581013386531"><ele>366.0</ele><time>2026-04-05T14:03:40Z</time></trkpt><trkpt lat="44.629721279340735" lon="8.06587823439553"><ele>366.0</ele><time>2026-04-05T14:03:41Z</time></trkpt><trkpt lat="44.6297884359461" lon="8.065948712191968"><ele>366.0</ele><time>2026-04-05T14:03:42Z</time></trkpt><trkpt lat="44.6298545989422" lon="8.066018147326918"><ele>366.0</ele><time>2026-04-05T14:03:43Z</time></trkpt><trkpt lat="44.62991858672278" lon="8.066085365037715"><ele>363.8333333333333</ele><time>2026-04-05T14:03:44Z</time></trkpt><trkpt lat="44.62998410630394" lon="8.066152478447307"><ele>361.6666666666667</ele><time>2026-04-05T14:03:45Z</time></trkpt><trkpt lat="44.63004869197471" lon="8.06621723592128"><ele>359.5</ele><time>2026-04-05T14:03:46Z</time></trkpt><trkpt lat="44.630104023365426" lon="8.066302065670772"><ele>357.33333333333337</ele><time>2026-04-05T14:03:47Z</time></trkpt><trkpt lat="44.6301785788723" lon="8.066374848691424"><ele>355.1666666666667</ele><time>2026-04-05T14:03:48Z</time></trkpt><trkpt lat="44.63025439642754" lon="8.066448863757763"><ele>353.0</ele><time>2026-04-05T14:03:49Z</time></trkpt><trkpt lat="44.63036068766394" lon="8.066499460809322"><ele>352.0</ele><time>2026-04-05T14:03:51Z</time></trkpt><trkpt lat="44.63042570568939" lon="8.066562202391989"><ele>351.0</ele><time>2026-04-05T14:03:52Z</time></trkpt><trkpt lat="44.63055249301736" lon="8.066716392400297"><ele>350.0</ele><time>2026-04-05T14:03:54Z</time></trkpt><trkpt lat="44.630652861337296" lon="8.066801521528905"><ele>349.0</ele><time>2026-04-05T14:03:56Z</time></trkpt><trkpt lat="44.630761730608086" lon="8.066798981040897"><ele>349.0</ele><time>2026-04-05T14:03:58Z</time></trkpt><trkpt lat="44.630821816403966" lon="8.06674970892471"><ele>349.0</ele><time>2026-04-05T14:03:59Z</time></trkpt><trkpt lat="44.63093288273809" lon="8.066680743916699"><ele>349.0</ele><time>2026-04-05T14:04:01Z</time></trkpt><trkpt lat="44.63095296783922" lon="8.06649930364551"><ele>349.0</ele><time>2026-04-05T14:04:02Z</time></trkpt><trkpt lat="44.63099221276616" lon="8.066406914561238"><ele>349.0</ele><time>2026-04-05T14:04:03Z</time></trkpt><trkpt lat="44.631035386856865" lon="8.066318339057268"><ele>349.0</ele><time>2026-04-05T14:04:04Z</time></trkpt><trkpt lat="44.631072343849794" lon="8.066217099259259"><ele>349.0</ele><time>2026-04-05T14:04:05Z</time></trkpt><trkpt lat="44.63110577097269" lon="8.066117084103663"><ele>349.0</ele><time>2026-04-05T14:04:06Z</time></trkpt><trkpt lat="44.63114585469323" lon="8.06601368189944"><ele>349.0</ele><time>2026-04-05T14:04:07Z</time></trkpt><trkpt lat="44.631188667472145" lon="8.065923366983329"><ele>349.0</ele><time>2026-04-05T14:04:08Z</time></trkpt><trkpt lat="44.63123172079483" lon="8.0658488681715"><ele>349.0</ele><time>2026-04-05T14:04:09Z</time></trkpt><trkpt lat="44.63129611333607" lon="8.065815037486914"><ele>348.4</ele><time>2026-04-05T14:04:10Z</time></trkpt><trkpt lat="44.631363068635835" lon="8.065812249565209"><ele>347.79999999999995</ele><time>2026-04-05T14:04:11Z</time></trkpt><trkpt lat="44.63147858755034" lon="8.065903677221415"><ele>347.20000000000005</ele><time>2026-04-05T14:04:13Z</time></trkpt><trkpt lat="44.63155811220553" lon="8.065979532835293"><ele>346.6</ele><time>2026-04-05T14:04:14Z</time></trkpt><trkpt lat="44.63163208300371" lon="8.066060903052584"><ele>346.0</ele><time>2026-04-05T14:04:15Z</time></trkpt><trkpt lat="44.63169757391539" lon="8.066128878088485"><ele>346.0</ele><time>2026-04-05T14:04:16Z</time></trkpt><trkpt lat="44.63176803210014" lon="8.066190534550715"><ele>346.0</ele><time>2026-04-05T14:04:17Z</time></trkpt><trkpt lat="44.63185647398112" lon="8.066228107922479"><ele>346.0</ele><time>2026-04-05T14:04:18Z</time></trkpt><trkpt lat="44.63195268226398" lon="8.066239331634439"><ele>346.0</ele><time>2026-04-05T14:04:19Z</time></trkpt><trkpt lat="44.63203705940914" lon="8.066225124457238"><ele>346.0</ele><time>2026-04-05T14:04:19.999Z</time></trkpt><trkpt lat="44.632124257971604" lon="8.066207353422046"><ele>346.0</ele><time>2026-04-05T14:04:20.999Z</time></trkpt><trkpt lat="44.63221388749639" lon="8.066199247015815"><ele>345.20000000000005</ele><time>2026-04-05T14:04:21.999Z</time></trkpt><trkpt lat="44.63231013478051" lon="8.066210707051889"><ele>344.40000000000003</ele><time>2026-04-05T14:04:22.999Z</time></trkpt><trkpt lat="44.63241566513421" lon="8.066204765453037"><ele>343.6</ele><time>2026-04-05T14:04:23.999Z</time></trkpt><trkpt lat="44.632514529258515" lon="8.066196247061498"><ele>342.8</ele><time>2026-04-05T14:04:24.999Z</time></trkpt><trkpt lat="44.63261588786448" lon="8.066188028762472"><ele>342.0</ele><time>2026-04-05T14:04:25.999Z</time></trkpt><trkpt lat="44.63273107435976" lon="8.066184979106433"><ele>339.75</ele><time>2026-04-05T14:04:26.999Z</time></trkpt><trkpt lat="44.63284276263254" lon="8.066203911946795"><ele>337.5</ele><time>2026-04-05T14:04:27.999Z</time></trkpt><trkpt lat="44.63296092041392" lon="8.066188493405097"><ele>335.25</ele><time>2026-04-05T14:04:28.999Z</time></trkpt><trkpt lat="44.63307885512981" lon="8.066198983811093"><ele>333.0</ele><time>2026-04-05T14:04:29.999Z</time></trkpt><trkpt lat="44.6331922698898" lon="8.066173462203151"><ele>333.0</ele><time>2026-04-05T14:04:30.999Z</time></trkpt><trkpt lat="44.633304066002836" lon="8.066143204990896"><ele>333.0</ele><time>2026-04-05T14:04:31.999Z</time></trkpt><trkpt lat="44.63341339124044" lon="8.066101945948708"><ele>333.0</ele><time>2026-04-05T14:04:32.999Z</time></trkpt><trkpt lat="44.63352256295643" lon="8.066058977890146"><ele>333.0</ele><time>2026-04-05T14:04:33.999Z</time></trkpt><trkpt lat="44.63363447968458" lon="8.066010800677287"><ele>333.0</ele><time>2026-04-05T14:04:34.999Z</time></trkpt><trkpt lat="44.63373855501869" lon="8.065963634584364"><ele>333.0</ele><time>2026-04-05T14:04:35.999Z</time></trkpt><trkpt lat="44.63383165738326" lon="8.06589031628414"><ele>333.0</ele><time>2026-04-05T14:04:36.999Z</time></trkpt><trkpt lat="44.63391693567546" lon="8.065797199310438"><ele>333.0</ele><time>2026-04-05T14:04:37.999Z</time></trkpt><trkpt lat="44.633994269487026" lon="8.065680295215172"><ele>333.0</ele><time>2026-04-05T14:04:38.999Z</time></trkpt><trkpt lat="44.63406448418382" lon="8.065561147176824"><ele>333.0</ele><time>2026-04-05T14:04:39.999Z</time></trkpt><trkpt lat="44.63413125810077" lon="8.065438902712291"><ele>333.0</ele><time>2026-04-05T14:04:40.999Z</time></trkpt><trkpt lat="44.63421464942302" lon="8.065316253683596"><ele>333.0</ele><time>2026-04-05T14:04:41.999Z</time></trkpt><trkpt lat="44.63428889474837" lon="8.065185991348836"><ele>333.0</ele><time>2026-04-05T14:04:42.999Z</time></trkpt><trkpt lat="44.63436640343414" lon="8.065064088154282"><ele>333.0</ele><time>2026-04-05T14:04:43.999Z</time></trkpt><trkpt lat="44.634442236360705" lon="8.064953005051281"><ele>333.0</ele><time>2026-04-05T14:04:44.999Z</time></trkpt><trkpt lat="44.6345115590797" lon="8.064836816332338"><ele>333.0</ele><time>2026-04-05T14:04:45.999Z</time></trkpt><trkpt lat="44.634580789410734" lon="8.064730282538292"><ele>333.0</ele><time>2026-04-05T14:04:46.999Z</time></trkpt><trkpt lat="44.634660338677534" lon="8.064634531574457"><ele>333.0</ele><time>2026-04-05T14:04:47.999Z</time></trkpt><trkpt lat="44.63475123882088" lon="8.064579069029607"><ele>331.79999999999995</ele><time>2026-04-05T14:04:48.999Z</time></trkpt><trkpt lat="44.63484761183199" lon="8.06453357184361"><ele>330.6</ele><time>2026-04-05T14:04:49.999Z</time></trkpt><trkpt lat="44.634945495073126" lon="8.064488743003855"><ele>329.4</ele><time>2026-04-05T14:04:50.999Z</time></trkpt><trkpt lat="44.63504822759198" lon="8.06446864856792"><ele>328.20000000000005</ele><time>2026-04-05T14:04:51.999Z</time></trkpt><trkpt lat="44.635150730769936" lon="8.064408523822847"><ele>327.0</ele><time>2026-04-05T14:04:52.999Z</time></trkpt><trkpt lat="44.63525225549595" lon="8.064373123618665"><ele>325.6</ele><time>2026-04-05T14:04:53.999Z</time></trkpt><trkpt lat="44.635350733101795" lon="8.06433654926713"><ele>324.20000000000005</ele><time>2026-04-05T14:04:54.999Z</time></trkpt><trkpt lat="44.63545333477309" lon="8.06430282082707"><ele>322.8</ele><time>2026-04-05T14:04:55.999Z</time></trkpt><trkpt lat="44.63555703407463" lon="8.064280338506038"><ele>321.4</ele><time>2026-04-05T14:04:56.999Z</time></trkpt><trkpt lat="44.63566314202509" lon="8.064269033806385"><ele>320.0</ele><time>2026-04-05T14:04:57.999Z</time></trkpt><trkpt lat="44.63576846520634" lon="8.064260917691412"><ele>320.0</ele><time>2026-04-05T14:04:58.999Z</time></trkpt><trkpt lat="44.63587486735616" lon="8.064237598120773"><ele>320.0</ele><time>2026-04-05T14:04:59.999Z</time></trkpt><trkpt lat="44.63597846555023" lon="8.064197805093569"><ele>320.0</ele><time>2026-04-05T14:05:00.999Z</time></trkpt><trkpt lat="44.63607957118156" lon="8.064125725760318"><ele>320.0</ele><time>2026-04-05T14:05:01.999Z</time></trkpt><trkpt lat="44.63615518670106" lon="8.064019355179468"><ele>320.0</ele><time>2026-04-05T14:05:02.999Z</time></trkpt><trkpt lat="44.636241532970196" lon="8.06392955102696"><ele>319.0</ele><time>2026-04-05T14:05:03.999Z</time></trkpt><trkpt lat="44.636337086917116" lon="8.063853488797001"><ele>318.0</ele><time>2026-04-05T14:05:04.999Z</time></trkpt><trkpt lat="44.63643211778792" lon="8.063779802437123"><ele>317.0</ele><time>2026-04-05T14:05:05.999Z</time></trkpt><trkpt lat="44.63650623250626" lon="8.063686768284063"><ele>316.0</ele><time>2026-04-05T14:05:06.999Z</time></trkpt><trkpt lat="44.63657099775005" lon="8.06358744577874"><ele>315.0</ele><time>2026-04-05T14:05:07.999Z</time></trkpt><trkpt lat="44.636618076979495" lon="8.063488652670866"><ele>315.0</ele><time>2026-04-05T14:05:08.999Z</time></trkpt><trkpt lat="44.636668649051124" lon="8.063369580073921"><ele>315.0</ele><time>2026-04-05T14:05:09.999Z</time></trkpt><trkpt lat="44.636713037681666" lon="8.063250960279856"><ele>315.0</ele><time>2026-04-05T14:05:10.999Z</time></trkpt><trkpt lat="44.63674847657849" lon="8.063119192877815"><ele>315.0</ele><time>2026-04-05T14:05:11.999Z</time></trkpt><trkpt lat="44.63677724530259" lon="8.06298335901518"><ele>315.0</ele><time>2026-04-05T14:05:12.999Z</time></trkpt><trkpt lat="44.63681241697936" lon="8.062870038232653"><ele>315.0</ele><time>2026-04-05T14:05:13.999Z</time></trkpt><trkpt lat="44.63685964413484" lon="8.062771243064963"><ele>315.0</ele><time>2026-04-05T14:05:14.999Z</time></trkpt><trkpt lat="44.6369086615085" lon="8.062669206023164"><ele>315.0</ele><time>2026-04-05T14:05:15.999Z</time></trkpt><trkpt lat="44.63697075931918" lon="8.062586935837437"><ele>315.0</ele><time>2026-04-05T14:05:16.999Z</time></trkpt><trkpt lat="44.6370376566833" lon="8.062505996582512"><ele>315.0</ele><time>2026-04-05T14:05:17.999Z</time></trkpt><trkpt lat="44.637105875254136" lon="8.062406992729686"><ele>315.0</ele><time>2026-04-05T14:05:18.999Z</time></trkpt><trkpt lat="44.63717744668998" lon="8.062325960133258"><ele>313.2</ele><time>2026-04-05T14:05:19.999Z</time></trkpt><trkpt lat="44.63725685937311" lon="8.062236612020055"><ele>311.4</ele><time>2026-04-05T14:05:20.999Z</time></trkpt><trkpt lat="44.63733769573697" lon="8.06215039978621"><ele>309.6</ele><time>2026-04-05T14:05:21.999Z</time></trkpt><trkpt lat="44.63741897641552" lon="8.062062554227698"><ele>307.8</ele><time>2026-04-05T14:05:22.999Z</time></trkpt><trkpt lat="44.63749859494749" lon="8.061976280368834"><ele>306.0</ele><time>2026-04-05T14:05:23.998Z</time></trkpt><trkpt lat="44.6375784463118" lon="8.061881028618208"><ele>306.0</ele><time>2026-04-05T14:05:24.998Z</time></trkpt><trkpt lat="44.637661060466215" lon="8.061786868494982"><ele>306.0</ele><time>2026-04-05T14:05:25.998Z</time></trkpt><trkpt lat="44.6377506148973" lon="8.061693382953"><ele>306.0</ele><time>2026-04-05T14:05:26.998Z</time></trkpt><trkpt lat="44.637836484316665" lon="8.061605368711069"><ele>306.0</ele><time>2026-04-05T14:05:27.998Z</time></trkpt><trkpt lat="44.63792856758309" lon="8.061523200141659"><ele>306.0</ele><time>2026-04-05T14:05:28.998Z</time></trkpt><trkpt lat="44.638018604095365" lon="8.061444026707434"><ele>304.6</ele><time>2026-04-05T14:05:29.998Z</time></trkpt><trkpt lat="44.63810844371244" lon="8.061357307173928"><ele>303.20000000000005</ele><time>2026-04-05T14:05:30.998Z</time></trkpt><trkpt lat="44.63820117735462" lon="8.061283263721592"><ele>301.79999999999995</ele><time>2026-04-05T14:05:31.998Z</time></trkpt><trkpt lat="44.63828639538516" lon="8.061202728953726"><ele>300.4</ele><time>2026-04-05T14:05:32.998Z</time></trkpt><trkpt lat="44.63837761593228" lon="8.061118142172468"><ele>299.0</ele><time>2026-04-05T14:05:33.998Z</time></trkpt><trkpt lat="44.638465414295915" lon="8.061040242639947"><ele>299.0</ele><time>2026-04-05T14:05:34.998Z</time></trkpt><trkpt lat="44.638552197886106" lon="8.060955410697982"><ele>299.0</ele><time>2026-04-05T14:05:35.998Z</time></trkpt><trkpt lat="44.63863866851068" lon="8.060872912692425"><ele>299.0</ele><time>2026-04-05T14:05:36.998Z</time></trkpt><trkpt lat="44.63873024109825" lon="8.060794084436926"><ele>299.0</ele><time>2026-04-05T14:05:37.998Z</time></trkpt><trkpt lat="44.638819609304655" lon="8.06071532122737"><ele>299.0</ele><time>2026-04-05T14:05:38.998Z</time></trkpt><trkpt lat="44.6389167792675" lon="8.060648525233269"><ele>298.0</ele><time>2026-04-05T14:05:39.998Z</time></trkpt><trkpt lat="44.639007838676896" lon="8.060565543139214"><ele>297.0</ele><time>2026-04-05T14:05:40.998Z</time></trkpt><trkpt lat="44.63909681621801" lon="8.06048955316169"><ele>296.0</ele><time>2026-04-05T14:05:42Z</time></trkpt><trkpt lat="44.63918248430532" lon="8.060413083278211"><ele>295.0</ele><time>2026-04-05T14:05:43Z</time></trkpt><trkpt lat="44.639277068800446" lon="8.060348713635658"><ele>294.0</ele><time>2026-04-05T14:05:44Z</time></trkpt><trkpt lat="44.639374334964856" lon="8.060297267460141"><ele>294.0</ele><time>2026-04-05T14:05:45Z</time></trkpt><trkpt lat="44.6394668745859" lon="8.060265093385551"><ele>294.0</ele><time>2026-04-05T14:05:46Z</time></trkpt><trkpt lat="44.63955427678928" lon="8.060209707086402"><ele>294.0</ele><time>2026-04-05T14:05:47Z</time></trkpt><trkpt lat="44.6396391613088" lon="8.060161096074857"><ele>294.0</ele><time>2026-04-05T14:05:48Z</time></trkpt><trkpt lat="44.63972172970079" lon="8.060114526028284"><ele>294.0</ele><time>2026-04-05T14:05:49Z</time></trkpt><trkpt lat="44.639802801600425" lon="8.060067680591143"><ele>294.2</ele><time>2026-04-05T14:05:50Z</time></trkpt><trkpt lat="44.63989691557632" lon="8.060016244327056"><ele>294.4</ele><time>2026-04-05T14:05:51Z</time></trkpt><trkpt lat="44.63999558243662" lon="8.059975603613823"><ele>294.6</ele><time>2026-04-05T14:05:52Z</time></trkpt><trkpt lat="44.640083539760006" lon="8.059912686325418"><ele>294.8</ele><time>2026-04-05T14:05:53Z</time></trkpt><trkpt lat="44.64016253030925" lon="8.059845577107314"><ele>295.0</ele><time>2026-04-05T14:05:54Z</time></trkpt><trkpt lat="44.6402351141388" lon="8.059763812478787"><ele>295.2</ele><time>2026-04-05T14:05:55Z</time></trkpt><trkpt lat="44.640304791667496" lon="8.05966379434838"><ele>295.4</ele><time>2026-04-05T14:05:56Z</time></trkpt><trkpt lat="44.640375279175586" lon="8.059558426831817"><ele>295.6</ele><time>2026-04-05T14:05:57Z</time></trkpt><trkpt lat="44.640444577680015" lon="8.059455527055052"><ele>295.8</ele><time>2026-04-05T14:05:58Z</time></trkpt><trkpt lat="44.640528464448806" lon="8.05935313948498"><ele>296.0</ele><time>2026-04-05T14:05:59Z</time></trkpt><trkpt lat="44.640588148547515" lon="8.059248821465252"><ele>296.0</ele><time>2026-04-05T14:06:00Z</time></trkpt><trkpt lat="44.64066698520722" lon="8.05916294179123"><ele>296.0</ele><time>2026-04-05T14:06:01Z</time></trkpt><trkpt lat="44.64075218636584" lon="8.05909190584797"><ele>296.0</ele><time>2026-04-05T14:06:02Z</time></trkpt><trkpt lat="44.64084259504233" lon="8.059033203300288"><ele>296.0</ele><time>2026-04-05T14:06:03Z</time></trkpt><trkpt lat="44.64093274729004" lon="8.058985487852272"><ele>296.0</ele><time>2026-04-05T14:06:04Z</time></trkpt><trkpt lat="44.64104754149938" lon="8.058948844139172"><ele>292.25</ele><time>2026-04-05T14:06:05Z</time></trkpt><trkpt lat="44.641148043938614" lon="8.05889730763018"><ele>288.5</ele><time>2026-04-05T14:06:06Z</time></trkpt><trkpt lat="44.64125611923219" lon="8.058837448338124"><ele>284.75</ele><time>2026-04-05T14:06:07Z</time></trkpt><trkpt lat="44.64136857471978" lon="8.05877733824212"><ele>281.0</ele><time>2026-04-05T14:06:08Z</time></trkpt><trkpt lat="44.641476747956034" lon="8.058730984229552"><ele>281.0</ele><time>2026-04-05T14:06:09Z</time></trkpt><trkpt lat="44.6415790933853" lon="8.058698589606987"><ele>281.0</ele><time>2026-04-05T14:06:10Z</time></trkpt><trkpt lat="44.64167364604254" lon="8.058669228483229"><ele>281.0</ele><time>2026-04-05T14:06:11Z</time></trkpt><trkpt lat="44.641756919469536" lon="8.058651109961595"><ele>281.0</ele><time>2026-04-05T14:06:12Z</time></trkpt><trkpt lat="44.641861291943805" lon="8.05862440009246"><ele>281.0</ele><time>2026-04-05T14:06:13Z</time></trkpt><trkpt lat="44.64196423529832" lon="8.058608683797047"><ele>281.2</ele><time>2026-04-05T14:06:14Z</time></trkpt><trkpt lat="44.64206530533987" lon="8.05859373315593"><ele>281.40000000000003</ele><time>2026-04-05T14:06:15Z</time></trkpt><trkpt lat="44.64216442517283" lon="8.058569464930315"><ele>281.6</ele><time>2026-04-05T14:06:16Z</time></trkpt><trkpt lat="44.64225899004047" lon="8.058518314299011"><ele>281.8</ele><time>2026-04-05T14:06:17Z</time></trkpt><trkpt lat="44.64235329679033" lon="8.058457399534761"><ele>282.0</ele><time>2026-04-05T14:06:18Z</time></trkpt><trkpt lat="44.64244510168114" lon="8.058390727018654"><ele>282.0</ele><time>2026-04-05T14:06:19Z</time></trkpt><trkpt lat="44.64253770706943" lon="8.058319855760484"><ele>282.0</ele><time>2026-04-05T14:06:20Z</time></trkpt><trkpt lat="44.64262903061473" lon="8.058243450610876"><ele>282.0</ele><time>2026-04-05T14:06:21Z</time></trkpt><trkpt lat="44.642721642029066" lon="8.058178880038328"><ele>282.0</ele><time>2026-04-05T14:06:22Z</time></trkpt><trkpt lat="44.64279838508436" lon="8.05808730167604"><ele>282.0</ele><time>2026-04-05T14:06:23Z</time></trkpt><trkpt lat="44.642877499112146" lon="8.057990541049401"><ele>280.8</ele><time>2026-04-05T14:06:24Z</time></trkpt><trkpt lat="44.642964815017265" lon="8.057914413595885"><ele>279.6</ele><time>2026-04-05T14:06:25Z</time></trkpt><trkpt lat="44.64306158587608" lon="8.057844490107978"><ele>278.40000000000003</ele><time>2026-04-05T14:06:26Z</time></trkpt><trkpt lat="44.64316377006495" lon="8.057783172634787"><ele>277.2</ele><time>2026-04-05T14:06:27Z</time></trkpt><trkpt lat="44.64326968360433" lon="8.057768490702236"><ele>276.0</ele><time>2026-04-05T14:06:27.999Z</time></trkpt><trkpt lat="44.64337462286212" lon="8.057733829672147"><ele>276.0</ele><time>2026-04-05T14:06:28.999Z</time></trkpt><trkpt lat="44.64347381315196" lon="8.057684174862468"><ele>276.0</ele><time>2026-04-05T14:06:29.999Z</time></trkpt><trkpt lat="44.64357708442385" lon="8.05765680493128"><ele>276.0</ele><time>2026-04-05T14:06:30.999Z</time></trkpt><trkpt lat="44.64367050048871" lon="8.057625733460219"><ele>276.0</ele><time>2026-04-05T14:06:31.999Z</time></trkpt><trkpt lat="44.643760552302076" lon="8.057626875309882"><ele>276.0</ele><time>2026-04-05T14:06:32.999Z</time></trkpt><trkpt lat="44.64385166091221" lon="8.05760997031973"><ele>275.8333333333333</ele><time>2026-04-05T14:06:33.999Z</time></trkpt><trkpt lat="44.6439403366568" lon="8.057570531555672"><ele>275.6666666666667</ele><time>2026-04-05T14:06:34.999Z</time></trkpt><trkpt lat="44.64402600783099" lon="8.057549107159469"><ele>275.5</ele><time>2026-04-05T14:06:35.999Z</time></trkpt><trkpt lat="44.64411262115538" lon="8.057530394571703"><ele>275.33333333333337</ele><time>2026-04-05T14:06:36.999Z</time></trkpt><trkpt lat="44.64420084370682" lon="8.05750483780412"><ele>275.1666666666667</ele><time>2026-04-05T14:06:37.999Z</time></trkpt><trkpt lat="44.64428318955353" lon="8.057481093018856"><ele>275.0</ele><time>2026-04-05T14:06:38.999Z</time></trkpt><trkpt lat="44.64436165871388" lon="8.057457402701843"><ele>274.83333333333337</ele><time>2026-04-05T14:06:39.999Z</time></trkpt><trkpt lat="44.644435332785086" lon="8.057433570449746"><ele>274.6666666666667</ele><time>2026-04-05T14:06:40.999Z</time></trkpt><trkpt lat="44.64451364774632" lon="8.05743332993512"><ele>274.5</ele><time>2026-04-05T14:06:41.999Z</time></trkpt><trkpt lat="44.644577031097334" lon="8.057408671678761"><ele>274.3333333333333</ele><time>2026-04-05T14:06:42.999Z</time></trkpt><trkpt lat="44.64465068383002" lon="8.057391397945187"><ele>274.16666666666663</ele><time>2026-04-05T14:06:43.999Z</time></trkpt><trkpt lat="44.64473256344184" lon="8.057383552431732"><ele>274.0</ele><time>2026-04-05T14:06:44.999Z</time></trkpt><trkpt lat="44.6448152176092" lon="8.057388472543009"><ele>273.8333333333333</ele><time>2026-04-05T14:06:45.999Z</time></trkpt><trkpt lat="44.64489865488698" lon="8.057394241117798"><ele>273.66666666666663</ele><time>2026-04-05T14:06:46.999Z</time></trkpt><trkpt lat="44.64498226588145" lon="8.057408936892518"><ele>273.5</ele><time>2026-04-05T14:06:47.999Z</time></trkpt><trkpt lat="44.645065080820395" lon="8.057426931001947"><ele>273.3333333333333</ele><time>2026-04-05T14:06:48.999Z</time></trkpt><trkpt lat="44.64514914710199" lon="8.057447336182152"><ele>273.1666666666667</ele><time>2026-04-05T14:06:49.999Z</time></trkpt><trkpt lat="44.64522354173355" lon="8.057465969899427"><ele>273.0</ele><time>2026-04-05T14:06:50.999Z</time></trkpt><trkpt lat="44.645298982400774" lon="8.057477652053324"><ele>272.85714285714283</ele><time>2026-04-05T14:06:51.999Z</time></trkpt><trkpt lat="44.6453738250838" lon="8.057493315891302"><ele>272.7142857142857</ele><time>2026-04-05T14:06:52.999Z</time></trkpt><trkpt lat="44.645447508682345" lon="8.05750731569294"><ele>272.57142857142856</ele><time>2026-04-05T14:06:53.999Z</time></trkpt><trkpt lat="44.64551923164914" lon="8.057514546570154"><ele>272.42857142857144</ele><time>2026-04-05T14:06:54.999Z</time></trkpt><trkpt lat="44.645588762994734" lon="8.057519364394262"><ele>272.2857142857143</ele><time>2026-04-05T14:06:55.999Z</time></trkpt><trkpt lat="44.64565392979897" lon="8.057529665574473"><ele>272.1428571428571</ele><time>2026-04-05T14:06:56.999Z</time></trkpt><trkpt lat="44.64572156527012" lon="8.057521623921359"><ele>272.0</ele><time>2026-04-05T14:06:57.999Z</time></trkpt><trkpt lat="44.645790772701304" lon="8.057516492555521"><ele>272.0</ele><time>2026-04-05T14:06:58.999Z</time></trkpt><trkpt lat="44.64586876114069" lon="8.057524912501844"><ele>272.0</ele><time>2026-04-05T14:06:59.999Z</time></trkpt><trkpt lat="44.64595853936238" lon="8.057538273887902"><ele>272.0</ele><time>2026-04-05T14:07:00.999Z</time></trkpt><trkpt lat="44.646052072364604" lon="8.057530207007758"><ele>272.0</ele><time>2026-04-05T14:07:01.999Z</time></trkpt><trkpt lat="44.64613990455645" lon="8.057494484914509"><ele>272.0</ele><time>2026-04-05T14:07:02.999Z</time></trkpt><trkpt lat="44.646231949622766" lon="8.057446123503418"><ele>269.8</ele><time>2026-04-05T14:07:03.999Z</time></trkpt><trkpt lat="44.646326896449395" lon="8.057393044364709"><ele>267.6</ele><time>2026-04-05T14:07:04.999Z</time></trkpt><trkpt lat="44.6464225060073" lon="8.057336129972667"><ele>265.40000000000003</ele><time>2026-04-05T14:07:05.999Z</time></trkpt><trkpt lat="44.6465280146942" lon="8.057290219076657"><ele>263.2</ele><time>2026-04-05T14:07:06.999Z</time></trkpt><trkpt lat="44.646635821521684" lon="8.057261492847326"><ele>261.0</ele><time>2026-04-05T14:07:07.999Z</time></trkpt><trkpt lat="44.64674642474431" lon="8.057244877727221"><ele>261.0</ele><time>2026-04-05T14:07:08.999Z</time></trkpt><trkpt lat="44.646854543196284" lon="8.057235042134389"><ele>261.0</ele><time>2026-04-05T14:07:09.999Z</time></trkpt><trkpt lat="44.64696080298222" lon="8.057195092205793"><ele>261.0</ele><time>2026-04-05T14:07:10.999Z</time></trkpt><trkpt lat="44.64706193495543" lon="8.05714850693987"><ele>261.0</ele><time>2026-04-05T14:07:11.999Z</time></trkpt><trkpt lat="44.647155248570456" lon="8.057098077345044"><ele>261.0</ele><time>2026-04-05T14:07:12.999Z</time></trkpt><trkpt lat="44.64724926265422" lon="8.05704148728177"><ele>260.2</ele><time>2026-04-05T14:07:13.999Z</time></trkpt><trkpt lat="44.64734358832303" lon="8.057018540215838"><ele>259.40000000000003</ele><time>2026-04-05T14:07:14.999Z</time></trkpt><trkpt lat="44.64743055025068" lon="8.056954724730653"><ele>258.6</ele><time>2026-04-05T14:07:15.999Z</time></trkpt><trkpt lat="44.647522256656416" lon="8.0569126689868"><ele>257.8</ele><time>2026-04-05T14:07:16.999Z</time></trkpt><trkpt lat="44.64760781528564" lon="8.056880172986215"><ele>257.0</ele><time>2026-04-05T14:07:17.999Z</time></trkpt><trkpt lat="44.64769273087784" lon="8.056849054486069"><ele>257.0</ele><time>2026-04-05T14:07:18.999Z</time></trkpt><trkpt lat="44.647770499092296" lon="8.056799152230571"><ele>257.0</ele><time>2026-04-05T14:07:19.999Z</time></trkpt><trkpt lat="44.64785275274844" lon="8.05674821051666"><ele>257.0</ele><time>2026-04-05T14:07:20.999Z</time></trkpt><trkpt lat="44.64793680813372" lon="8.056697822169724"><ele>257.0</ele><time>2026-04-05T14:07:21.999Z</time></trkpt><trkpt lat="44.64802380169536" lon="8.05664880020759"><ele>257.0</ele><time>2026-04-05T14:07:22.999Z</time></trkpt><trkpt lat="44.648114774918646" lon="8.056600502222219"><ele>256.6</ele><time>2026-04-05T14:07:23.999Z</time></trkpt><trkpt lat="44.64820831328508" lon="8.056552249487419"><ele>256.2</ele><time>2026-04-05T14:07:24.999Z</time></trkpt><trkpt lat="44.64830264556516" lon="8.056504134891664"><ele>255.8</ele><time>2026-04-05T14:07:25.999Z</time></trkpt><trkpt lat="44.64839673206338" lon="8.056457942511903"><ele>255.4</ele><time>2026-04-05T14:07:26.999Z</time></trkpt><trkpt lat="44.64849138056174" lon="8.056413972945856"><ele>255.0</ele><time>2026-04-05T14:07:27.999Z</time></trkpt><trkpt lat="44.64858738462544" lon="8.056359968876356"><ele>254.0</ele><time>2026-04-05T14:07:28.999Z</time></trkpt><trkpt lat="44.648681347059636" lon="8.056311653540131"><ele>253.0</ele><time>2026-04-05T14:07:29.999Z</time></trkpt><trkpt lat="44.64877684226368" lon="8.056261249549442"><ele>252.0</ele><time>2026-04-05T14:07:30.999Z</time></trkpt><trkpt lat="44.64887454600387" lon="8.056221052334257"><ele>251.0</ele><time>2026-04-05T14:07:31.998Z</time></trkpt><trkpt lat="44.648971203643875" lon="8.05617409718343"><ele>250.0</ele><time>2026-04-05T14:07:32.998Z</time></trkpt><trkpt lat="44.649068962936724" lon="8.056131846209787"><ele>249.99999999999997</ele><time>2026-04-05T14:07:33.998Z</time></trkpt><trkpt lat="44.6491668527016" lon="8.056086042619555"><ele>250.0</ele><time>2026-04-05T14:07:34.998Z</time></trkpt><trkpt lat="44.64925429311193" lon="8.05604398083277"><ele>250.0</ele><time>2026-04-05T14:07:35.998Z</time></trkpt><trkpt lat="44.64933467987954" lon="8.05599743361552"><ele>250.0</ele><time>2026-04-05T14:07:36.998Z</time></trkpt><trkpt lat="44.64940668914828" lon="8.055963307355771"><ele>249.99999999999997</ele><time>2026-04-05T14:07:37.998Z</time></trkpt><trkpt lat="44.64947938197008" lon="8.055932896083116"><ele>250.0</ele><time>2026-04-05T14:07:38.998Z</time></trkpt><trkpt lat="44.64954659338848" lon="8.055901611720836"><ele>250.0</ele><time>2026-04-05T14:07:39.998Z</time></trkpt><trkpt lat="44.64961226303734" lon="8.055878576451741"><ele>250.0</ele><time>2026-04-05T14:07:40.998Z</time></trkpt><trkpt lat="44.64967721549377" lon="8.05586985469612"><ele>250.0</ele><time>2026-04-05T14:07:41.998Z</time></trkpt><trkpt lat="44.6497713632894" lon="8.055892283762459"><ele>250.0</ele><time>2026-04-05T14:07:43.998Z</time></trkpt><trkpt lat="44.64984880219308" lon="8.055928591931037"><ele>250.0</ele><time>2026-04-05T14:08:00Z</time></trkpt><trkpt lat="44.64989611080285" lon="8.055732664425035"><ele>249.71428571428572</ele><time>2026-04-05T14:08:02Z</time></trkpt><trkpt lat="44.64990016737318" lon="8.055641080530096"><ele>249.42857142857144</ele><time>2026-04-05T14:08:03Z</time></trkpt><trkpt lat="44.649899654113476" lon="8.055546971676346"><ele>249.14285714285717</ele><time>2026-04-05T14:08:04Z</time></trkpt><trkpt lat="44.64992022636945" lon="8.05546235512034"><ele>248.85714285714286</ele><time>2026-04-05T14:08:05Z</time></trkpt><trkpt lat="44.64994479633938" lon="8.055373178967697"><ele>248.5714285714286</ele><time>2026-04-05T14:08:06Z</time></trkpt><trkpt lat="44.64996854468921" lon="8.05528164204552"><ele>248.2857142857143</ele><time>2026-04-05T14:08:07Z</time></trkpt><trkpt lat="44.649992796815916" lon="8.055188914638753"><ele>248.0</ele><time>2026-04-05T14:08:08Z</time></trkpt><trkpt lat="44.65002104363251" lon="8.055093945456935"><ele>248.00000000000003</ele><time>2026-04-05T14:08:09Z</time></trkpt><trkpt lat="44.65005592081584" lon="8.055001458798674"><ele>248.0</ele><time>2026-04-05T14:08:10Z</time></trkpt><trkpt lat="44.65009880067395" lon="8.05490824496791"><ele>248.0</ele><time>2026-04-05T14:08:11Z</time></trkpt><trkpt lat="44.650139797800826" lon="8.054812876784176"><ele>248.0</ele><time>2026-04-05T14:08:12Z</time></trkpt><trkpt lat="44.650186257635674" lon="8.054719509452603"><ele>248.00000000000003</ele><time>2026-04-05T14:08:13Z</time></trkpt><trkpt lat="44.65023633135285" lon="8.054628946265746"><ele>248.0</ele><time>2026-04-05T14:08:14Z</time></trkpt><trkpt lat="44.6502958453327" lon="8.054543989912473"><ele>247.8</ele><time>2026-04-05T14:08:15Z</time></trkpt><trkpt lat="44.65036263938646" lon="8.054459160867419"><ele>247.60000000000002</ele><time>2026-04-05T14:08:16Z</time></trkpt><trkpt lat="44.65043407255492" lon="8.054364551459608"><ele>247.39999999999998</ele><time>2026-04-05T14:08:17Z</time></trkpt><trkpt lat="44.650498813216785" lon="8.054263205666611"><ele>247.2</ele><time>2026-04-05T14:08:18Z</time></trkpt><trkpt lat="44.65054677697017" lon="8.054159414344344"><ele>247.0</ele><time>2026-04-05T14:08:19Z</time></trkpt><trkpt lat="44.65060887852676" lon="8.054060300771605"><ele>246.6</ele><time>2026-04-05T14:08:20Z</time></trkpt><trkpt lat="44.65067448283727" lon="8.053965563923297"><ele>246.2</ele><time>2026-04-05T14:08:21Z</time></trkpt><trkpt lat="44.65074420752665" lon="8.053859096495069"><ele>245.8</ele><time>2026-04-05T14:08:22Z</time></trkpt><trkpt lat="44.65081755595279" lon="8.053752502143674"><ele>245.4</ele><time>2026-04-05T14:08:23Z</time></trkpt><trkpt lat="44.65088996412591" lon="8.053640137187394"><ele>245.0</ele><time>2026-04-05T14:08:24Z</time></trkpt><trkpt lat="44.65096654457418" lon="8.053524389460973"><ele>245.0</ele><time>2026-04-05T14:08:25Z</time></trkpt><trkpt lat="44.65104735870971" lon="8.053409632393596"><ele>245.0</ele><time>2026-04-05T14:08:26Z</time></trkpt><trkpt lat="44.65112656327154" lon="8.053288974584788"><ele>245.0</ele><time>2026-04-05T14:08:27Z</time></trkpt><trkpt lat="44.6512102165223" lon="8.05317894423742"><ele>245.0</ele><time>2026-04-05T14:08:28Z</time></trkpt><trkpt lat="44.651277234844514" lon="8.053069258872242"><ele>245.0</ele><time>2026-04-05T14:08:29Z</time></trkpt><trkpt lat="44.65134618077352" lon="8.052971170524089"><ele>244.4</ele><time>2026-04-05T14:08:30Z</time></trkpt><trkpt lat="44.65140334014566" lon="8.052870285730819"><ele>243.8</ele><time>2026-04-05T14:08:31Z</time></trkpt><trkpt lat="44.65146162903067" lon="8.052785370820033"><ele>243.2</ele><time>2026-04-05T14:08:32Z</time></trkpt><trkpt lat="44.651524597613324" lon="8.052690394263998"><ele>242.6</ele><time>2026-04-05T14:08:33Z</time></trkpt><trkpt lat="44.65158448153451" lon="8.052598783775199"><ele>242.0</ele><time>2026-04-05T14:08:34Z</time></trkpt><trkpt lat="44.65164771882259" lon="8.052500881034225"><ele>242.0</ele><time>2026-04-05T14:08:34.999Z</time></trkpt><trkpt lat="44.65171153622521" lon="8.052406875665238"><ele>242.0</ele><time>2026-04-05T14:08:35.999Z</time></trkpt><trkpt lat="44.651779321716596" lon="8.052310158646199"><ele>242.0</ele><time>2026-04-05T14:08:36.999Z</time></trkpt><trkpt lat="44.6518407674688" lon="8.052212648320282"><ele>242.0</ele><time>2026-04-05T14:08:37.999Z</time></trkpt><trkpt lat="44.65190402431211" lon="8.05211643200803"><ele>242.0</ele><time>2026-04-05T14:08:38.999Z</time></trkpt><trkpt lat="44.65196799299574" lon="8.052014052467651"><ele>242.0</ele><time>2026-04-05T14:08:39.999Z</time></trkpt><trkpt lat="44.652034000199066" lon="8.0519155008743"><ele>242.0</ele><time>2026-04-05T14:08:40.999Z</time></trkpt><trkpt lat="44.652099419848696" lon="8.05181866558329"><ele>242.0</ele><time>2026-04-05T14:08:41.999Z</time></trkpt><trkpt lat="44.65216382535452" lon="8.051717432447079"><ele>242.0</ele><time>2026-04-05T14:08:42.999Z</time></trkpt><trkpt lat="44.65223878229152" lon="8.05163435970805"><ele>242.0</ele><time>2026-04-05T14:08:43.999Z</time></trkpt><trkpt lat="44.65230485144894" lon="8.051534407271063"><ele>241.0</ele><time>2026-04-05T14:08:44.999Z</time></trkpt><trkpt lat="44.65237399531234" lon="8.051438903916074"><ele>240.0</ele><time>2026-04-05T14:08:45.999Z</time></trkpt><trkpt lat="44.65244418621849" lon="8.05134103510132"><ele>239.0</ele><time>2026-04-05T14:08:46.999Z</time></trkpt><trkpt lat="44.65250989484847" lon="8.051241034682723"><ele>238.0</ele><time>2026-04-05T14:08:47.999Z</time></trkpt><trkpt lat="44.652574662677736" lon="8.051139011892213"><ele>237.0</ele><time>2026-04-05T14:08:48.999Z</time></trkpt><trkpt lat="44.652633606956734" lon="8.051028841790561"><ele>237.0</ele><time>2026-04-05T14:08:49.999Z</time></trkpt><trkpt lat="44.652698103417784" lon="8.0509239434579"><ele>237.0</ele><time>2026-04-05T14:08:50.999Z</time></trkpt><trkpt lat="44.65276943621385" lon="8.05082510991942"><ele>237.0</ele><time>2026-04-05T14:08:51.999Z</time></trkpt><trkpt lat="44.652834379165384" lon="8.050721387383147"><ele>237.0</ele><time>2026-04-05T14:08:52.999Z</time></trkpt><trkpt lat="44.65289430899341" lon="8.05063542092354"><ele>237.0</ele><time>2026-04-05T14:08:53.999Z</time></trkpt><trkpt lat="44.652957426621775" lon="8.050564746429346"><ele>236.83333333333334</ele><time>2026-04-05T14:08:54.999Z</time></trkpt><trkpt lat="44.653035910850825" lon="8.050506905910876"><ele>236.66666666666669</ele><time>2026-04-05T14:08:55.999Z</time></trkpt><trkpt lat="44.65312074419438" lon="8.050431559792253"><ele>236.5</ele><time>2026-04-05T14:08:56.999Z</time></trkpt><trkpt lat="44.653186441149096" lon="8.050300701379307"><ele>236.33333333333334</ele><time>2026-04-05T14:08:57.999Z</time></trkpt><trkpt lat="44.65318530455471" lon="8.05020575018713"><ele>236.16666666666669</ele><time>2026-04-05T14:08:58.999Z</time></trkpt><trkpt lat="44.65321754594411" lon="8.050116738657833"><ele>236.0</ele><time>2026-04-05T14:09:00.999Z</time></trkpt><trkpt lat="44.653305768658335" lon="8.049998236772081"><ele>235.5</ele><time>2026-04-05T14:09:01.999Z</time></trkpt><trkpt lat="44.65343984006082" lon="8.049797398428414"><ele>235.0</ele><time>2026-04-05T14:09:02.999Z</time></trkpt><trkpt lat="44.65352949004082" lon="8.049659546952636"><ele>234.5</ele><time>2026-04-05T14:09:03.999Z</time></trkpt><trkpt lat="44.65358859689285" lon="8.049572735624725"><ele>234.0</ele><time>2026-04-05T14:09:04.999Z</time></trkpt><trkpt lat="44.653663191503" lon="8.049458444234281"><ele>234.0</ele><time>2026-04-05T14:09:05.999Z</time></trkpt><trkpt lat="44.65374601275885" lon="8.049334918425163"><ele>234.0</ele><time>2026-04-05T14:09:06.999Z</time></trkpt><trkpt lat="44.65383178389345" lon="8.049206764859571"><ele>234.0</ele><time>2026-04-05T14:09:07.999Z</time></trkpt><trkpt lat="44.653917199341265" lon="8.04909551285509"><ele>234.0</ele><time>2026-04-05T14:09:08.999Z</time></trkpt><trkpt lat="44.65399916785545" lon="8.048997693005512"><ele>233.39999999999998</ele><time>2026-04-05T14:09:09.999Z</time></trkpt><trkpt lat="44.65407786898061" lon="8.048904086012096"><ele>232.79999999999998</ele><time>2026-04-05T14:09:10.999Z</time></trkpt><trkpt lat="44.6541541301604" lon="8.048819500652028"><ele>232.20000000000002</ele><time>2026-04-05T14:09:11.999Z</time></trkpt><trkpt lat="44.654227928101925" lon="8.04874262221548"><ele>231.60000000000002</ele><time>2026-04-05T14:09:12.999Z</time></trkpt><trkpt lat="44.65430699879512" lon="8.048671475716192"><ele>231.0</ele><time>2026-04-05T14:09:13.999Z</time></trkpt><trkpt lat="44.654387523946575" lon="8.048602909325918"><ele>230.8</ele><time>2026-04-05T14:09:14.999Z</time></trkpt><trkpt lat="44.65447710392738" lon="8.048534710825205"><ele>230.60000000000002</ele><time>2026-04-05T14:09:15.999Z</time></trkpt><trkpt lat="44.65457476861522" lon="8.048465931387762"><ele>230.4</ele><time>2026-04-05T14:09:16.999Z</time></trkpt><trkpt lat="44.65467515840497" lon="8.048417762939115"><ele>230.2</ele><time>2026-04-05T14:09:17.999Z</time></trkpt><trkpt lat="44.65477223555405" lon="8.048342080766556"><ele>230.0</ele><time>2026-04-05T14:09:18.999Z</time></trkpt><trkpt lat="44.65488931530593" lon="8.048311331208291"><ele>229.25</ele><time>2026-04-05T14:09:19.999Z</time></trkpt><trkpt lat="44.655008336388505" lon="8.04828219629337"><ele>228.5</ele><time>2026-04-05T14:09:20.999Z</time></trkpt><trkpt lat="44.65510453007471" lon="8.048213769052033"><ele>227.75</ele><time>2026-04-05T14:09:21.999Z</time></trkpt><trkpt lat="44.65521510424232" lon="8.048150483340878"><ele>227.0</ele><time>2026-04-05T14:09:22.999Z</time></trkpt><trkpt lat="44.655325375382944" lon="8.048096142568099"><ele>227.0</ele><time>2026-04-05T14:09:23.999Z</time></trkpt><trkpt lat="44.65543745846381" lon="8.048049264921028"><ele>227.0</ele><time>2026-04-05T14:09:24.999Z</time></trkpt><trkpt lat="44.655547377803984" lon="8.047987536783022"><ele>227.0</ele><time>2026-04-05T14:09:25.999Z</time></trkpt><trkpt lat="44.655661436687964" lon="8.04793428587125"><ele>227.0</ele><time>2026-04-05T14:09:26.999Z</time></trkpt><trkpt lat="44.65577945617877" lon="8.047890153041696"><ele>227.0</ele><time>2026-04-05T14:09:27.999Z</time></trkpt><trkpt lat="44.65589100968902" lon="8.04783968576672"><ele>227.0</ele><time>2026-04-05T14:09:28.999Z</time></trkpt><trkpt lat="44.656003265825305" lon="8.047793975460399"><ele>227.0</ele><time>2026-04-05T14:09:29.999Z</time></trkpt><trkpt lat="44.65612427707697" lon="8.04774069551264"><ele>227.0</ele><time>2026-04-05T14:09:30.999Z</time></trkpt><trkpt lat="44.65624240047153" lon="8.04768518647516"><ele>227.25</ele><time>2026-04-05T14:09:31.999Z</time></trkpt><trkpt lat="44.656357379491205" lon="8.047635284518853"><ele>227.5</ele><time>2026-04-05T14:09:32.999Z</time></trkpt><trkpt lat="44.65647330181747" lon="8.047585109326898"><ele>227.75</ele><time>2026-04-05T14:09:33.999Z</time></trkpt><trkpt lat="44.6565917402756" lon="8.047531780045711"><ele>228.0</ele><time>2026-04-05T14:09:34.999Z</time></trkpt><trkpt lat="44.65671436915443" lon="8.047471437814131"><ele>227.25</ele><time>2026-04-05T14:09:35.999Z</time></trkpt><trkpt lat="44.656835712296065" lon="8.047421522148735"><ele>226.5</ele><time>2026-04-05T14:09:36.999Z</time></trkpt><trkpt lat="44.656964068949826" lon="8.047368168900416"><ele>225.75</ele><time>2026-04-05T14:09:37.998Z</time></trkpt><trkpt lat="44.657093533043074" lon="8.047313704680315"><ele>225.0</ele><time>2026-04-05T14:09:38.998Z</time></trkpt><trkpt lat="44.65722495119441" lon="8.047255694792499"><ele>225.0</ele><time>2026-04-05T14:09:39.998Z</time></trkpt><trkpt lat="44.65736733251918" lon="8.047189345884599"><ele>225.0</ele><time>2026-04-05T14:09:40.998Z</time></trkpt><trkpt lat="44.65752932392485" lon="8.047119225824703"><ele>225.0</ele><time>2026-04-05T14:09:41.998Z</time></trkpt><trkpt lat="44.65768730706148" lon="8.047048230365293"><ele>225.33333333333331</ele><time>2026-04-05T14:09:42.998Z</time></trkpt><trkpt lat="44.65784392625689" lon="8.046975092102238"><ele>225.66666666666666</ele><time>2026-04-05T14:09:43.998Z</time></trkpt><trkpt lat="44.658010408165325" lon="8.046895298847932"><ele>226.0</ele><time>2026-04-05T14:09:44.998Z</time></trkpt><trkpt lat="44.65818005567366" lon="8.046816035472254"><ele>226.0</ele><time>2026-04-05T14:09:45.998Z</time></trkpt><trkpt lat="44.65834851731921" lon="8.046745092832904"><ele>226.0</ele><time>2026-04-05T14:09:46.998Z</time></trkpt><trkpt lat="44.65851997546511" lon="8.04667352983655"><ele>226.0</ele><time>2026-04-05T14:09:47.998Z</time></trkpt><trkpt lat="44.658697668271635" lon="8.046596475926266"><ele>224.33333333333331</ele><time>2026-04-05T14:09:48.998Z</time></trkpt><trkpt lat="44.65888207697105" lon="8.046514983034175"><ele>222.66666666666669</ele><time>2026-04-05T14:09:49.998Z</time></trkpt><trkpt lat="44.65906755512966" lon="8.046433731689593"><ele>221.0</ele><time>2026-04-05T14:09:50.998Z</time></trkpt><trkpt lat="44.65925856939291" lon="8.04635028221553"><ele>221.0</ele><time>2026-04-05T14:09:51.998Z</time></trkpt><trkpt lat="44.659449220463884" lon="8.046261072910074"><ele>221.0</ele><time>2026-04-05T14:09:52.998Z</time></trkpt><trkpt lat="44.659634985642704" lon="8.046173098824971"><ele>221.0</ele><time>2026-04-05T14:09:54Z</time></trkpt><trkpt lat="44.65982067323483" lon="8.04608771385471"><ele>221.0</ele><time>2026-04-05T14:09:55Z</time></trkpt><trkpt lat="44.66000370742051" lon="8.046004315010972"><ele>221.0</ele><time>2026-04-05T14:09:56Z</time></trkpt><trkpt lat="44.66018803657781" lon="8.045919984182143"><ele>221.0</ele><time>2026-04-05T14:09:57Z</time></trkpt><trkpt lat="44.66037767171703" lon="8.04583314768914"><ele>219.33333333333334</ele><time>2026-04-05T14:09:58Z</time></trkpt><trkpt lat="44.6605635884437" lon="8.04575096309064"><ele>217.66666666666669</ele><time>2026-04-05T14:09:59Z</time></trkpt><trkpt lat="44.660737319533624" lon="8.045670834785488"><ele>216.0</ele><time>2026-04-05T14:10:00Z</time></trkpt><trkpt lat="44.660916271592164" lon="8.045587997649541"><ele>216.0</ele><time>2026-04-05T14:10:01Z</time></trkpt><trkpt lat="44.6610977178304" lon="8.04550810109754"><ele>216.0</ele><time>2026-04-05T14:10:02Z</time></trkpt><trkpt lat="44.6612733615378" lon="8.045424927920845"><ele>216.0</ele><time>2026-04-05T14:10:03Z</time></trkpt><trkpt lat="44.66145283609037" lon="8.045348328547584"><ele>216.33333333333331</ele><time>2026-04-05T14:10:04Z</time></trkpt><trkpt lat="44.66163262879052" lon="8.04527117720509"><ele>216.66666666666666</ele><time>2026-04-05T14:10:05Z</time></trkpt><trkpt lat="44.661812574068136" lon="8.045193108811384"><ele>217.0</ele><time>2026-04-05T14:10:06Z</time></trkpt><trkpt lat="44.66198779865777" lon="8.045111614407912"><ele>216.33333333333331</ele><time>2026-04-05T14:10:07Z</time></trkpt><trkpt lat="44.662160411243775" lon="8.04503074747385"><ele>215.66666666666669</ele><time>2026-04-05T14:10:08Z</time></trkpt><trkpt lat="44.66233415701057" lon="8.044945394041775"><ele>215.0</ele><time>2026-04-05T14:10:09Z</time></trkpt><trkpt lat="44.66250073252648" lon="8.044868754032153"><ele>214.75</ele><time>2026-04-05T14:10:10Z</time></trkpt><trkpt lat="44.662659974838355" lon="8.04479923319899"><ele>214.5</ele><time>2026-04-05T14:10:11Z</time></trkpt><trkpt lat="44.662803604742734" lon="8.044734256480014"><ele>214.25</ele><time>2026-04-05T14:10:12Z</time></trkpt><trkpt lat="44.662926944336085" lon="8.044678463018709"><ele>214.0</ele><time>2026-04-05T14:10:13Z</time></trkpt><trkpt lat="44.66303632352066" lon="8.044644055783767"><ele>213.25</ele><time>2026-04-05T14:10:14Z</time></trkpt><trkpt lat="44.66315146482823" lon="8.044592336132254"><ele>212.5</ele><time>2026-04-05T14:10:15Z</time></trkpt><trkpt lat="44.66325370020466" lon="8.044524663477963"><ele>211.75</ele><time>2026-04-05T14:10:16Z</time></trkpt><trkpt lat="44.66337165633367" lon="8.044503580054377"><ele>211.0</ele><time>2026-04-05T14:10:17Z</time></trkpt><trkpt lat="44.66346644621908" lon="8.044453926698628"><ele>211.0</ele><time>2026-04-05T14:10:18Z</time></trkpt><trkpt lat="44.66357254663884" lon="8.04438337598734"><ele>211.0</ele><time>2026-04-05T14:10:19Z</time></trkpt><trkpt lat="44.66369589039181" lon="8.04433247398399"><ele>211.0</ele><time>2026-04-05T14:10:20Z</time></trkpt><trkpt lat="44.66382288518213" lon="8.044278746307649"><ele>211.0</ele><time>2026-04-05T14:10:21Z</time></trkpt><trkpt lat="44.66395685727444" lon="8.044228886731405"><ele>210.5</ele><time>2026-04-05T14:10:22Z</time></trkpt><trkpt lat="44.66408482954147" lon="8.044169429244375"><ele>210.0</ele><time>2026-04-05T14:10:23Z</time></trkpt><trkpt lat="44.664217272792484" lon="8.044114270492928"><ele>209.5</ele><time>2026-04-05T14:10:24Z</time></trkpt><trkpt lat="44.66435022996023" lon="8.044054480242579"><ele>209.0</ele><time>2026-04-05T14:10:25Z</time></trkpt><trkpt lat="44.66448475058141" lon="8.043994800337988"><ele>208.75</ele><time>2026-04-05T14:10:26Z</time></trkpt><trkpt lat="44.66462123445458" lon="8.043933720559377"><ele>208.5</ele><time>2026-04-05T14:10:27Z</time></trkpt><trkpt lat="44.66476416178427" lon="8.043879633209563"><ele>208.25</ele><time>2026-04-05T14:10:28Z</time></trkpt><trkpt lat="44.66490769367781" lon="8.043808718832022"><ele>208.0</ele><time>2026-04-05T14:10:29Z</time></trkpt><trkpt lat="44.665056060585684" lon="8.04373750988535"><ele>208.0</ele><time>2026-04-05T14:10:30Z</time></trkpt><trkpt lat="44.66521940303418" lon="8.043660621303763"><ele>208.0</ele><time>2026-04-05T14:10:31Z</time></trkpt><trkpt lat="44.6653865892169" lon="8.04358360317656"><ele>208.0</ele><time>2026-04-05T14:10:32Z</time></trkpt><trkpt lat="44.66556484464592" lon="8.043499605092169"><ele>208.0</ele><time>2026-04-05T14:10:33Z</time></trkpt><trkpt lat="44.665741526975275" lon="8.043420709357562"><ele>208.0</ele><time>2026-04-05T14:10:34Z</time></trkpt><trkpt lat="44.665920045525084" lon="8.043340069442722"><ele>208.0</ele><time>2026-04-05T14:10:35Z</time></trkpt><trkpt lat="44.666102752356714" lon="8.043258500049015"><ele>206.33333333333331</ele><time>2026-04-05T14:10:36Z</time></trkpt><trkpt lat="44.66628533625552" lon="8.043175076020066"><ele>204.66666666666669</ele><time>2026-04-05T14:10:37Z</time></trkpt><trkpt lat="44.6664669900589" lon="8.043092651507829"><ele>203.0</ele><time>2026-04-05T14:10:38Z</time></trkpt><trkpt lat="44.666643394464316" lon="8.043017461461385"><ele>203.0</ele><time>2026-04-05T14:10:39Z</time></trkpt><trkpt lat="44.66681541124779" lon="8.042944936233212"><ele>203.0</ele><time>2026-04-05T14:10:40Z</time></trkpt><trkpt lat="44.66698866495176" lon="8.04286626617047"><ele>203.0</ele><time>2026-04-05T14:10:41Z</time></trkpt><trkpt lat="44.66715496705792" lon="8.042789781866702"><ele>202.66666666666669</ele><time>2026-04-05T14:10:41.999Z</time></trkpt><trkpt lat="44.66732437434227" lon="8.042712587920692"><ele>202.33333333333331</ele><time>2026-04-05T14:10:42.999Z</time></trkpt><trkpt lat="44.667493905158075" lon="8.0426390823502"><ele>202.0</ele><time>2026-04-05T14:10:43.999Z</time></trkpt><trkpt lat="44.66766499160596" lon="8.042563086458019"><ele>202.0</ele><time>2026-04-05T14:10:44.999Z</time></trkpt><trkpt lat="44.667843724407376" lon="8.042480854838951"><ele>202.0</ele><time>2026-04-05T14:10:45.999Z</time></trkpt><trkpt lat="44.66802683641232" lon="8.042401395691464"><ele>202.0</ele><time>2026-04-05T14:10:46.999Z</time></trkpt><trkpt lat="44.66821789104425" lon="8.042322064625727"><ele>201.33333333333331</ele><time>2026-04-05T14:10:47.999Z</time></trkpt><trkpt lat="44.668409843670474" lon="8.042233839871068"><ele>200.66666666666669</ele><time>2026-04-05T14:10:48.999Z</time></trkpt><trkpt lat="44.66860427629858" lon="8.042148060534196"><ele>200.0</ele><time>2026-04-05T14:10:49.999Z</time></trkpt><trkpt lat="44.66879932036737" lon="8.042057447327707"><ele>199.33333333333334</ele><time>2026-04-05T14:10:50.999Z</time></trkpt><trkpt lat="44.6689872598703" lon="8.041968513979436"><ele>198.66666666666669</ele><time>2026-04-05T14:10:51.999Z</time></trkpt><trkpt lat="44.66916959143249" lon="8.04188589685403"><ele>198.0</ele><time>2026-04-05T14:10:52.999Z</time></trkpt><trkpt lat="44.66934543821784" lon="8.041807360387365"><ele>198.33333333333331</ele><time>2026-04-05T14:10:53.999Z</time></trkpt><trkpt lat="44.66952397348795" lon="8.04172759140269"><ele>198.66666666666666</ele><time>2026-04-05T14:10:54.999Z</time></trkpt><trkpt lat="44.66970177407744" lon="8.041651149408544"><ele>199.0</ele><time>2026-04-05T14:10:55.999Z</time></trkpt><trkpt lat="44.66987674391619" lon="8.041574606466197"><ele>199.33333333333331</ele><time>2026-04-05T14:10:56.999Z</time></trkpt><trkpt lat="44.670050272376045" lon="8.041496658040643"><ele>199.66666666666669</ele><time>2026-04-05T14:10:57.999Z</time></trkpt><trkpt lat="44.67022210941734" lon="8.041418241898063"><ele>200.0</ele><time>2026-04-05T14:10:58.999Z</time></trkpt><trkpt lat="44.67039280203004" lon="8.041339007307267"><ele>200.0</ele><time>2026-04-05T14:10:59.999Z</time></trkpt><trkpt lat="44.67055941158245" lon="8.041261926853664"><ele>200.0</ele><time>2026-04-05T14:11:00.999Z</time></trkpt><trkpt lat="44.67073004027472" lon="8.041185804050865"><ele>200.0</ele><time>2026-04-05T14:11:01.999Z</time></trkpt><trkpt lat="44.67091038141261" lon="8.04110793846987"><ele>200.0</ele><time>2026-04-05T14:11:02.999Z</time></trkpt><trkpt lat="44.67109470563322" lon="8.041025280482767"><ele>200.0</ele><time>2026-04-05T14:11:03.999Z</time></trkpt><trkpt lat="44.67127879545693" lon="8.040945099159032"><ele>200.0</ele><time>2026-04-05T14:11:04.999Z</time></trkpt><trkpt lat="44.67146960059753" lon="8.040858954230897"><ele>199.33333333333334</ele><time>2026-04-05T14:11:05.999Z</time></trkpt><trkpt lat="44.67166637633273" lon="8.040770943817703"><ele>198.66666666666669</ele><time>2026-04-05T14:11:06.999Z</time></trkpt><trkpt lat="44.671863496993595" lon="8.040678819285104"><ele>198.0</ele><time>2026-04-05T14:11:07.999Z</time></trkpt><trkpt lat="44.672062456583774" lon="8.040587084781025"><ele>196.66666666666669</ele><time>2026-04-05T14:11:08.999Z</time></trkpt><trkpt lat="44.67225977258172" lon="8.040499986262223"><ele>195.33333333333334</ele><time>2026-04-05T14:11:09.999Z</time></trkpt><trkpt lat="44.672445031411144" lon="8.040413624228156"><ele>194.0</ele><time>2026-04-05T14:11:10.999Z</time></trkpt><trkpt lat="44.672625264392764" lon="8.040331592048569"><ele>193.33333333333334</ele><time>2026-04-05T14:11:11.999Z</time></trkpt><trkpt lat="44.672796879914" lon="8.040244947957392"><ele>192.66666666666669</ele><time>2026-04-05T14:11:12.999Z</time></trkpt><trkpt lat="44.672971961616895" lon="8.040186636551564"><ele>192.0</ele><time>2026-04-05T14:11:13.999Z</time></trkpt><trkpt lat="44.67313317779587" lon="8.040090719057007"><ele>192.0</ele><time>2026-04-05T14:11:14.999Z</time></trkpt><trkpt lat="44.673300146512354" lon="8.040015425607818"><ele>192.0</ele><time>2026-04-05T14:11:15.999Z</time></trkpt><trkpt lat="44.67346960191043" lon="8.039935138345818"><ele>192.0</ele><time>2026-04-05T14:11:16.999Z</time></trkpt><trkpt lat="44.67364602205412" lon="8.03985750951766"><ele>192.0</ele><time>2026-04-05T14:11:17.999Z</time></trkpt><trkpt lat="44.673830247290425" lon="8.039778312758704"><ele>192.0</ele><time>2026-04-05T14:11:18.999Z</time></trkpt><trkpt lat="44.67401726201463" lon="8.039701084562617"><ele>192.0</ele><time>2026-04-05T14:11:19.999Z</time></trkpt><trkpt lat="44.67419161822482" lon="8.039616163442437"><ele>192.0</ele><time>2026-04-05T14:11:20.999Z</time></trkpt><trkpt lat="44.67435821820365" lon="8.039545407204319"><ele>192.0</ele><time>2026-04-05T14:11:21.999Z</time></trkpt><trkpt lat="44.67452253432177" lon="8.039474107749527"><ele>192.0</ele><time>2026-04-05T14:11:22.999Z</time></trkpt><trkpt lat="44.674693317989615" lon="8.039399250660823"><ele>191.66666666666666</ele><time>2026-04-05T14:11:23.999Z</time></trkpt><trkpt lat="44.67486857685001" lon="8.039320605390252"><ele>191.33333333333331</ele><time>2026-04-05T14:11:24.999Z</time></trkpt><trkpt lat="44.67504432230149" lon="8.039241034108954"><ele>191.0</ele><time>2026-04-05T14:11:25.999Z</time></trkpt><trkpt lat="44.67522421389805" lon="8.03916301105591"><ele>191.33333333333331</ele><time>2026-04-05T14:11:26.999Z</time></trkpt><trkpt lat="44.67540070336592" lon="8.039082208830424"><ele>191.66666666666666</ele><time>2026-04-05T14:11:27.999Z</time></trkpt><trkpt lat="44.67558214623393" lon="8.03900381812674"><ele>192.0</ele><time>2026-04-05T14:11:28.999Z</time></trkpt><trkpt lat="44.67575980341158" lon="8.038922887390996"><ele>192.0</ele><time>2026-04-05T14:11:29.999Z</time></trkpt><trkpt lat="44.67593888264093" lon="8.03884395487982"><ele>192.0</ele><time>2026-04-05T14:11:30.999Z</time></trkpt><trkpt lat="44.6761171561758" lon="8.038764384272916"><ele>192.0</ele><time>2026-04-05T14:11:31.999Z</time></trkpt><trkpt lat="44.676294420550136" lon="8.038685557028035"><ele>191.0</ele><time>2026-04-05T14:11:32.999Z</time></trkpt><trkpt lat="44.67647470661728" lon="8.038606363883332"><ele>190.0</ele><time>2026-04-05T14:11:33.999Z</time></trkpt><trkpt lat="44.676657863056306" lon="8.03852634510552"><ele>189.0</ele><time>2026-04-05T14:11:34.999Z</time></trkpt><trkpt lat="44.67683855703141" lon="8.038444870758475"><ele>189.0</ele><time>2026-04-05T14:11:35.999Z</time></trkpt><trkpt lat="44.67701840071634" lon="8.038362100073629"><ele>189.0</ele><time>2026-04-05T14:11:36.999Z</time></trkpt><trkpt lat="44.67718487296003" lon="8.03827795732325"><ele>189.0</ele><time>2026-04-05T14:11:37.999Z</time></trkpt><trkpt lat="44.67734309084385" lon="8.038210998175602"><ele>190.0</ele><time>2026-04-05T14:11:38.999Z</time></trkpt><trkpt lat="44.67749286330136" lon="8.038134604084808"><ele>191.0</ele><time>2026-04-05T14:11:39.999Z</time></trkpt><trkpt lat="44.67763583934762" lon="8.038069573380069"><ele>192.0</ele><time>2026-04-05T14:11:40.999Z</time></trkpt><trkpt lat="44.677774078047015" lon="8.038010652616205"><ele>192.0</ele><time>2026-04-05T14:11:41.999Z</time></trkpt><trkpt lat="44.67790644190422" lon="8.037953707713037"><ele>192.0</ele><time>2026-04-05T14:11:42.999Z</time></trkpt><trkpt lat="44.67803140223479" lon="8.037896244463678"><ele>192.0</ele><time>2026-04-05T14:11:43.999Z</time></trkpt><trkpt lat="44.67814417188499" lon="8.037845779397676"><ele>192.0</ele><time>2026-04-05T14:11:44.999Z</time></trkpt><trkpt lat="44.67824274274641" lon="8.037802081460187"><ele>192.0</ele><time>2026-04-05T14:11:45.999Z</time></trkpt><trkpt lat="44.67833784357526" lon="8.037775620776053"><ele>192.0</ele><time>2026-04-05T14:11:46.998Z</time></trkpt><trkpt lat="44.67842035063894" lon="8.03775421628469"><ele>192.0</ele><time>2026-04-05T14:11:47.998Z</time></trkpt><trkpt lat="44.678508966731435" lon="8.037748118355738"><ele>192.0</ele><time>2026-04-05T14:11:48.998Z</time></trkpt><trkpt lat="44.67859444760086" lon="8.037730090136863"><ele>192.0</ele><time>2026-04-05T14:11:49.998Z</time></trkpt><trkpt lat="44.678676468299834" lon="8.037662157255454"><ele>191.75</ele><time>2026-04-05T14:11:50.998Z</time></trkpt><trkpt lat="44.67876014996255" lon="8.037568223882749"><ele>191.5</ele><time>2026-04-05T14:11:51.998Z</time></trkpt><trkpt lat="44.67889030480789" lon="8.037527575147289"><ele>191.25</ele><time>2026-04-05T14:11:52.998Z</time></trkpt><trkpt lat="44.67901921277303" lon="8.037446301113192"><ele>191.0</ele><time>2026-04-05T14:11:53.998Z</time></trkpt><trkpt lat="44.67915147705032" lon="8.037388482777247"><ele>191.4</ele><time>2026-04-05T14:11:54.998Z</time></trkpt><trkpt lat="44.679264130279556" lon="8.037336112322333"><ele>191.8</ele><time>2026-04-05T14:11:55.998Z</time></trkpt><trkpt lat="44.67936939567453" lon="8.037307968488964"><ele>192.20000000000002</ele><time>2026-04-05T14:11:56.998Z</time></trkpt><trkpt lat="44.67947360163715" lon="8.037246421454542"><ele>192.60000000000002</ele><time>2026-04-05T14:11:57.998Z</time></trkpt><trkpt lat="44.67957539853683" lon="8.03719079285755"><ele>193.0</ele><time>2026-04-05T14:11:58.998Z</time></trkpt><trkpt lat="44.67968689109432" lon="8.037144789904463"><ele>193.0</ele><time>2026-04-05T14:12:00Z</time></trkpt><trkpt lat="44.67980331849648" lon="8.03709147693102"><ele>193.0</ele><time>2026-04-05T14:12:01Z</time></trkpt><trkpt lat="44.67993001708165" lon="8.037034274816705"><ele>193.0</ele><time>2026-04-05T14:12:02Z</time></trkpt><trkpt lat="44.68006939962305" lon="8.036970787559246"><ele>193.0</ele><time>2026-04-05T14:12:03Z</time></trkpt><trkpt lat="44.68021929858242" lon="8.036926004290352"><ele>192.0</ele><time>2026-04-05T14:12:04Z</time></trkpt><trkpt lat="44.68037470270121" lon="8.036855634567377"><ele>191.0</ele><time>2026-04-05T14:12:05Z</time></trkpt><trkpt lat="44.68054033187109" lon="8.036780225441209"><ele>190.0</ele><time>2026-04-05T14:12:06Z</time></trkpt><trkpt lat="44.68070536036002" lon="8.03668197306423"><ele>191.33333333333334</ele><time>2026-04-05T14:12:07Z</time></trkpt><trkpt lat="44.68089167662666" lon="8.036619869456779"><ele>192.66666666666669</ele><time>2026-04-05T14:12:08Z</time></trkpt><trkpt lat="44.68106070917573" lon="8.036542025366156"><ele>194.0</ele><time>2026-04-05T14:12:09Z</time></trkpt><trkpt lat="44.68121255854908" lon="8.036461777921975"><ele>194.0</ele><time>2026-04-05T14:12:10Z</time></trkpt><trkpt lat="44.68137852909874" lon="8.036393170815257"><ele>194.0</ele><time>2026-04-05T14:12:11Z</time></trkpt><trkpt lat="44.68153414081721" lon="8.036323298137267"><ele>194.0</ele><time>2026-04-05T14:12:12Z</time></trkpt><trkpt lat="44.68167540424083" lon="8.03626279737944"><ele>194.0</ele><time>2026-04-05T14:12:13Z</time></trkpt><trkpt lat="44.681808266814" lon="8.036205544978607"><ele>194.0</ele><time>2026-04-05T14:12:14Z</time></trkpt><trkpt lat="44.68194071743255" lon="8.036132702118762"><ele>194.0</ele><time>2026-04-05T14:12:15Z</time></trkpt><trkpt lat="44.682053303672326" lon="8.036081439279624"><ele>194.0</ele><time>2026-04-05T14:12:16Z</time></trkpt><trkpt lat="44.682171932035935" lon="8.036029460758105"><ele>193.0</ele><time>2026-04-05T14:12:17Z</time></trkpt><trkpt lat="44.68229364912763" lon="8.035974526873911"><ele>192.0</ele><time>2026-04-05T14:12:18Z</time></trkpt><trkpt lat="44.68241611003556" lon="8.0359197304233"><ele>191.0</ele><time>2026-04-05T14:12:19Z</time></trkpt><trkpt lat="44.68253941594541" lon="8.035870009848775"><ele>190.0</ele><time>2026-04-05T14:12:20Z</time></trkpt><trkpt lat="44.68266322345793" lon="8.035811028969123"><ele>190.6</ele><time>2026-04-05T14:12:21Z</time></trkpt><trkpt lat="44.682779975605385" lon="8.035767625144"><ele>191.2</ele><time>2026-04-05T14:12:22Z</time></trkpt><trkpt lat="44.68288860046998" lon="8.035724996014455"><ele>191.8</ele><time>2026-04-05T14:12:23Z</time></trkpt><trkpt lat="44.68299118739924" lon="8.035671998662304"><ele>192.4</ele><time>2026-04-05T14:12:24Z</time></trkpt><trkpt lat="44.68308771264051" lon="8.035637285013308"><ele>193.0</ele><time>2026-04-05T14:12:25Z</time></trkpt><trkpt lat="44.68319407826599" lon="8.035589207248613"><ele>193.0</ele><time>2026-04-05T14:12:26Z</time></trkpt><trkpt lat="44.68329869229109" lon="8.035519954363872"><ele>193.0</ele><time>2026-04-05T14:12:27Z</time></trkpt><trkpt lat="44.68342255919282" lon="8.035479149886989"><ele>193.0</ele><time>2026-04-05T14:12:28Z</time></trkpt><trkpt lat="44.68353588800763" lon="8.035422481078182"><ele>193.0</ele><time>2026-04-05T14:12:29Z</time></trkpt><trkpt lat="44.683653445385" lon="8.035366633432968"><ele>192.0</ele><time>2026-04-05T14:12:30Z</time></trkpt><trkpt lat="44.683774806103024" lon="8.035319542730349"><ele>191.0</ele><time>2026-04-05T14:12:31Z</time></trkpt><trkpt lat="44.68389818945898" lon="8.035263478083127"><ele>190.0</ele><time>2026-04-05T14:12:32Z</time></trkpt><trkpt lat="44.68402446986166" lon="8.035205962443502"><ele>189.0</ele><time>2026-04-05T14:12:33Z</time></trkpt><trkpt lat="44.684140108566574" lon="8.03515549042486"><ele>189.0</ele><time>2026-04-05T14:12:34Z</time></trkpt><trkpt lat="44.6842450052362" lon="8.035095787677117"><ele>189.0</ele><time>2026-04-05T14:12:35Z</time></trkpt><trkpt lat="44.68434491738787" lon="8.03505104420676"><ele>189.0</ele><time>2026-04-05T14:12:36Z</time></trkpt><trkpt lat="44.684442764683375" lon="8.035011925885415"><ele>189.0</ele><time>2026-04-05T14:12:37Z</time></trkpt><trkpt lat="44.68453357291864" lon="8.03498013190096"><ele>189.0</ele><time>2026-04-05T14:12:38Z</time></trkpt><trkpt lat="44.68461265671167" lon="8.03493768016452"><ele>189.0</ele><time>2026-04-05T14:12:39Z</time></trkpt><trkpt lat="44.68468788149316" lon="8.03489687345441"><ele>189.0</ele><time>2026-04-05T14:12:40Z</time></trkpt><trkpt lat="44.684767415580936" lon="8.034869480539642"><ele>189.0</ele><time>2026-04-05T14:12:41Z</time></trkpt><trkpt lat="44.68484281088725" lon="8.0348287714626"><ele>189.0</ele><time>2026-04-05T14:12:41.999Z</time></trkpt><trkpt lat="44.684919720736346" lon="8.034790595202729"><ele>189.0</ele><time>2026-04-05T14:12:42.999Z</time></trkpt><trkpt lat="44.6849994767524" lon="8.034753310753546"><ele>189.0</ele><time>2026-04-05T14:12:43.999Z</time></trkpt><trkpt lat="44.68507762341672" lon="8.034717280295503"><ele>189.0</ele><time>2026-04-05T14:12:44.999Z</time></trkpt><trkpt lat="44.6851555632251" lon="8.034705656767159"><ele>189.0</ele><time>2026-04-05T14:12:45.999Z</time></trkpt><trkpt lat="44.685236511052274" lon="8.034669509229971"><ele>189.0</ele><time>2026-04-05T14:12:46.999Z</time></trkpt><trkpt lat="44.68531069481917" lon="8.034636382191392"><ele>189.0</ele><time>2026-04-05T14:12:47.999Z</time></trkpt><trkpt lat="44.68538811339953" lon="8.034601810975998"><ele>189.0</ele><time>2026-04-05T14:12:48.999Z</time></trkpt><trkpt lat="44.68546254554253" lon="8.034568252861236"><ele>189.0</ele><time>2026-04-05T14:12:49.999Z</time></trkpt><trkpt lat="44.685529453706145" lon="8.034538178789575"><ele>188.33333333333334</ele><time>2026-04-05T14:12:50.999Z</time></trkpt><trkpt lat="44.68560153057923" lon="8.034505781424263"><ele>187.66666666666666</ele><time>2026-04-05T14:12:51.999Z</time></trkpt><trkpt lat="44.685675716960034" lon="8.034472435901892"><ele>187.0</ele><time>2026-04-05T14:12:52.999Z</time></trkpt><trkpt lat="44.685756958995405" lon="8.034432797484925"><ele>186.33333333333331</ele><time>2026-04-05T14:12:53.999Z</time></trkpt><trkpt lat="44.68582552567581" lon="8.034392114462785"><ele>185.66666666666666</ele><time>2026-04-05T14:12:54.999Z</time></trkpt><trkpt lat="44.68589445281872" lon="8.034367110037822"><ele>185.0</ele><time>2026-04-05T14:12:55.999Z</time></trkpt><trkpt lat="44.68600434735134" lon="8.034334461982802"><ele>185.0</ele><time>2026-04-05T14:12:57.999Z</time></trkpt><trkpt lat="44.686060443285264" lon="8.0342823867393"><ele>185.0</ele><time>2026-04-05T14:13:00.999Z</time></trkpt><trkpt lat="44.686131648262595" lon="8.034263120628477"><ele>185.0</ele><time>2026-04-05T14:13:02.999Z</time></trkpt><trkpt lat="44.686238614821455" lon="8.034272871770524"><ele>185.0</ele><time>2026-04-05T14:13:04.999Z</time></trkpt><trkpt lat="44.68635217672438" lon="8.034255265134231"><ele>185.0</ele><time>2026-04-05T14:13:06.999Z</time></trkpt><trkpt lat="44.68642408140537" lon="8.034254322682862"><ele>185.0</ele><time>2026-04-05T14:13:07.999Z</time></trkpt><trkpt lat="44.686495678020925" lon="8.034209958110058"><ele>184.4</ele><time>2026-04-05T14:13:08.999Z</time></trkpt><trkpt lat="44.686583936313745" lon="8.034205570882202"><ele>183.8</ele><time>2026-04-05T14:13:09.999Z</time></trkpt><trkpt lat="44.68667667581739" lon="8.034198716791026"><ele>183.2</ele><time>2026-04-05T14:13:10.999Z</time></trkpt><trkpt lat="44.686762749905924" lon="8.034202043059667"><ele>182.6</ele><time>2026-04-05T14:13:11.999Z</time></trkpt><trkpt lat="44.68685709083392" lon="8.034201064343492"><ele>182.0</ele><time>2026-04-05T14:13:12.999Z</time></trkpt><trkpt lat="44.686957003366835" lon="8.03419984309453"><ele>182.0</ele><time>2026-04-05T14:13:13.999Z</time></trkpt><trkpt lat="44.68706282264157" lon="8.034197857709632"><ele>182.0</ele><time>2026-04-05T14:13:14.999Z</time></trkpt><trkpt lat="44.687172440419396" lon="8.03419805575819"><ele>182.0</ele><time>2026-04-05T14:13:15.999Z</time></trkpt><trkpt lat="44.687285291299" lon="8.034199966343188"><ele>182.0</ele><time>2026-04-05T14:13:16.999Z</time></trkpt><trkpt lat="44.68739581440701" lon="8.034202757031858"><ele>182.0</ele><time>2026-04-05T14:13:17.999Z</time></trkpt><trkpt lat="44.68750615196192" lon="8.034295793928635"><ele>182.0</ele><time>2026-04-05T14:13:18.999Z</time></trkpt><trkpt lat="44.68760667973207" lon="8.0341816937438"><ele>182.0</ele><time>2026-04-05T14:13:19.999Z</time></trkpt><trkpt lat="44.68769329930433" lon="8.03417525457044"><ele>182.0</ele><time>2026-04-05T14:13:20.999Z</time></trkpt><trkpt lat="44.68777053658558" lon="8.034165234340799"><ele>182.0</ele><time>2026-04-05T14:13:21.999Z</time></trkpt><trkpt lat="44.687843742809726" lon="8.034137429649203"><ele>182.0</ele><time>2026-04-05T14:13:22.999Z</time></trkpt><trkpt lat="44.687922216147385" lon="8.034110778782743"><ele>182.0</ele><time>2026-04-05T14:13:23.999Z</time></trkpt><trkpt lat="44.68799972443641" lon="8.034079033445098"><ele>182.0</ele><time>2026-04-05T14:13:24.999Z</time></trkpt><trkpt lat="44.68807259948417" lon="8.034199150271222"><ele>182.0</ele><time>2026-04-05T14:13:25.999Z</time></trkpt><trkpt lat="44.68814688579699" lon="8.034198570750952"><ele>182.0</ele><time>2026-04-05T14:13:26.999Z</time></trkpt><trkpt lat="44.688233608787854" lon="8.034198635805367"><ele>182.0</ele><time>2026-04-05T14:13:27.999Z</time></trkpt><trkpt lat="44.68833479264011" lon="8.034198635803245"><ele>182.0</ele><time>2026-04-05T14:13:28.999Z</time></trkpt><trkpt lat="44.6884049356929" lon="8.03419863580344"><ele>182.0</ele><time>2026-04-05T14:13:29.999Z</time></trkpt><trkpt lat="44.68853675268763" lon="8.03419719161672"><ele>182.0</ele><time>2026-04-05T14:13:30.999Z</time></trkpt><trkpt lat="44.68861127731186" lon="8.03419597212362"><ele>182.0</ele><time>2026-04-05T14:13:31.999Z</time></trkpt><trkpt lat="44.68868269090957" lon="8.034121580820518"><ele>182.0</ele><time>2026-04-05T14:13:32.999Z</time></trkpt><trkpt lat="44.68874386123584" lon="8.03414533893873"><ele>182.0</ele><time>2026-04-05T14:13:33.999Z</time></trkpt><trkpt lat="44.68881602013548" lon="8.034191479411929"><ele>182.0</ele><time>2026-04-05T14:13:34.999Z</time></trkpt><trkpt lat="44.68888339109004" lon="8.034200818235039"><ele>182.0</ele><time>2026-04-05T14:13:35.999Z</time></trkpt><trkpt lat="44.68894629649134" lon="8.034181163117092"><ele>182.0</ele><time>2026-04-05T14:13:36.999Z</time></trkpt><trkpt lat="44.68902270974782" lon="8.034163920106629"><ele>182.0</ele><time>2026-04-05T14:13:37.999Z</time></trkpt><trkpt lat="44.689106826170764" lon="8.034146439945442"><ele>182.0</ele><time>2026-04-05T14:13:38.999Z</time></trkpt><trkpt lat="44.689202733427585" lon="8.034137433323663"><ele>182.0</ele><time>2026-04-05T14:13:39.999Z</time></trkpt><trkpt lat="44.689301952230366" lon="8.034134869460305"><ele>182.2</ele><time>2026-04-05T14:13:40.999Z</time></trkpt><trkpt lat="44.689397892343536" lon="8.034136174830365"><ele>182.39999999999998</ele><time>2026-04-05T14:13:41.999Z</time></trkpt><trkpt lat="44.68950431564508" lon="8.034145335340817"><ele>182.60000000000002</ele><time>2026-04-05T14:13:42.999Z</time></trkpt><trkpt lat="44.689614741029914" lon="8.034153254233741"><ele>182.8</ele><time>2026-04-05T14:13:43.999Z</time></trkpt><trkpt lat="44.68972080416821" lon="8.03413881544067"><ele>183.0</ele><time>2026-04-05T14:13:44.999Z</time></trkpt><trkpt lat="44.68984139620048" lon="8.034135390804458"><ele>182.60000000000002</ele><time>2026-04-05T14:13:45.999Z</time></trkpt><trkpt lat="44.68995649435669" lon="8.034137752581643"><ele>182.20000000000002</ele><time>2026-04-05T14:13:46.999Z</time></trkpt><trkpt lat="44.69006040209902" lon="8.034145404559991"><ele>181.8</ele><time>2026-04-05T14:13:47.999Z</time></trkpt><trkpt lat="44.69015747613585" lon="8.034143644613708"><ele>181.4</ele><time>2026-04-05T14:13:48.998Z</time></trkpt><trkpt lat="44.69024764668961" lon="8.034148126535746"><ele>181.0</ele><time>2026-04-05T14:13:49.998Z</time></trkpt><trkpt lat="44.69033496014342" lon="8.034154413923254"><ele>180.60000000000002</ele><time>2026-04-05T14:13:50.998Z</time></trkpt><trkpt lat="44.69042371099178" lon="8.034158607186175"><ele>180.2</ele><time>2026-04-05T14:13:51.998Z</time></trkpt><trkpt lat="44.690525049011626" lon="8.034156071578366"><ele>179.8</ele><time>2026-04-05T14:13:52.998Z</time></trkpt><trkpt lat="44.69062994025175" lon="8.034151395590484"><ele>179.39999999999998</ele><time>2026-04-05T14:13:53.998Z</time></trkpt><trkpt lat="44.69072277819891" lon="8.034150654459959"><ele>179.0</ele><time>2026-04-05T14:13:54.998Z</time></trkpt><trkpt lat="44.690822481520804" lon="8.034155985718927"><ele>179.0</ele><time>2026-04-05T14:13:55.998Z</time></trkpt><trkpt lat="44.69091894614461" lon="8.034149597457187"><ele>179.0</ele><time>2026-04-05T14:13:56.998Z</time></trkpt><trkpt lat="44.69101556658011" lon="8.034167416911988"><ele>179.0</ele><time>2026-04-05T14:13:57.998Z</time></trkpt><trkpt lat="44.691085195669324" lon="8.034147934676485"><ele>179.0</ele><time>2026-04-05T14:13:58.998Z</time></trkpt><trkpt lat="44.69117873399583" lon="8.034150530270997"><ele>179.0</ele><time>2026-04-05T14:13:59.998Z</time></trkpt><trkpt lat="44.69127421417334" lon="8.034159117870086"><ele>179.0</ele><time>2026-04-05T14:14:00.998Z</time></trkpt><trkpt lat="44.69137816005876" lon="8.034159353024931"><ele>179.0</ele><time>2026-04-05T14:14:01.998Z</time></trkpt><trkpt lat="44.69148745499908" lon="8.034147103804909"><ele>179.0</ele><time>2026-04-05T14:14:02.998Z</time></trkpt><trkpt lat="44.69159565655" lon="8.034138954329514"><ele>179.0</ele><time>2026-04-05T14:14:03.998Z</time></trkpt><trkpt lat="44.69170262231497" lon="8.034148043370669"><ele>179.0</ele><time>2026-04-05T14:14:04.998Z</time></trkpt><trkpt lat="44.69181264964356" lon="8.034166244881536"><ele>179.0</ele><time>2026-04-05T14:14:06Z</time></trkpt><trkpt lat="44.69190795007954" lon="8.03418752920751"><ele>179.0</ele><time>2026-04-05T14:14:07Z</time></trkpt><trkpt lat="44.692018916058075" lon="8.034234522177046"><ele>179.0</ele><time>2026-04-05T14:14:08Z</time></trkpt><trkpt lat="44.69212668390326" lon="8.034286587122562"><ele>179.0</ele><time>2026-04-05T14:14:09Z</time></trkpt><trkpt lat="44.69223567248925" lon="8.034233866664655"><ele>179.0</ele><time>2026-04-05T14:14:10Z</time></trkpt><trkpt lat="44.69233453352268" lon="8.034366510707242"><ele>178.75</ele><time>2026-04-05T14:14:11Z</time></trkpt><trkpt lat="44.69245819465964" lon="8.034133685089213"><ele>178.5</ele><time>2026-04-05T14:14:12Z</time></trkpt><trkpt lat="44.69257338275496" lon="8.03411960471795"><ele>178.25</ele><time>2026-04-05T14:14:13Z</time></trkpt><trkpt lat="44.692693512233504" lon="8.034112551962377"><ele>178.0</ele><time>2026-04-05T14:14:14Z</time></trkpt><trkpt lat="44.69280224315723" lon="8.03410896663294"><ele>178.0</ele><time>2026-04-05T14:14:15Z</time></trkpt><trkpt lat="44.69290083875728" lon="8.034099025951967"><ele>178.0</ele><time>2026-04-05T14:14:16Z</time></trkpt><trkpt lat="44.69298409900629" lon="8.034099136178638"><ele>178.0</ele><time>2026-04-05T14:14:17Z</time></trkpt><trkpt lat="44.69307598445652" lon="8.03411070734057"><ele>178.0</ele><time>2026-04-05T14:14:18Z</time></trkpt><trkpt lat="44.69316243266993" lon="8.03409596132531"><ele>178.0</ele><time>2026-04-05T14:14:19Z</time></trkpt><trkpt lat="44.6932495903169" lon="8.034081077673369"><ele>178.0</ele><time>2026-04-05T14:14:20Z</time></trkpt><trkpt lat="44.69332569806189" lon="8.03408544247648"><ele>178.0</ele><time>2026-04-05T14:14:21Z</time></trkpt><trkpt lat="44.69340038266421" lon="8.03408711430637"><ele>178.0</ele><time>2026-04-05T14:14:22Z</time></trkpt><trkpt lat="44.69346309189479" lon="8.034078596665362"><ele>178.0</ele><time>2026-04-05T14:14:23Z</time></trkpt><trkpt lat="44.693561011359385" lon="8.034084772599213"><ele>178.0</ele><time>2026-04-05T14:14:25Z</time></trkpt><trkpt lat="44.69365865851759" lon="8.034148253391246"><ele>178.0</ele><time>2026-04-05T14:14:27Z</time></trkpt><trkpt lat="44.693786629293086" lon="8.034187150219159"><ele>177.66666666666669</ele><time>2026-04-05T14:14:29Z</time></trkpt><trkpt lat="44.69384512082429" lon="8.034242731127673"><ele>177.33333333333334</ele><time>2026-04-05T14:14:30Z</time></trkpt><trkpt lat="44.69389913284024" lon="8.034121460910281"><ele>177.0</ele><time>2026-04-05T14:14:31Z</time></trkpt><trkpt lat="44.69403595222433" lon="8.03411115927292"><ele>176.66666666666666</ele><time>2026-04-05T14:14:33Z</time></trkpt><trkpt lat="44.69410038437819" lon="8.034135190013005"><ele>176.33333333333331</ele><time>2026-04-05T14:14:34Z</time></trkpt><trkpt lat="44.694158015765616" lon="8.034171030639436"><ele>176.0</ele><time>2026-04-05T14:14:35Z</time></trkpt><trkpt lat="44.694214891438456" lon="8.034213662251588"><ele>176.0</ele><time>2026-04-05T14:14:36Z</time></trkpt><trkpt lat="44.6942817746722" lon="8.034143863991218"><ele>176.0</ele><time>2026-04-05T14:14:37Z</time></trkpt><trkpt lat="44.69436186473108" lon="8.03411969877413"><ele>176.0</ele><time>2026-04-05T14:14:38Z</time></trkpt><trkpt lat="44.69444440588514" lon="8.034125459759553"><ele>176.0</ele><time>2026-04-05T14:14:38.999Z</time></trkpt><trkpt lat="44.69453536982096" lon="8.034126036013944"><ele>176.0</ele><time>2026-04-05T14:14:39.999Z</time></trkpt><trkpt lat="44.69462492246205" lon="8.034117962135333"><ele>176.0</ele><time>2026-04-05T14:14:40.999Z</time></trkpt><trkpt lat="44.69471947223499" lon="8.03412076328747"><ele>175.60000000000002</ele><time>2026-04-05T14:14:41.999Z</time></trkpt><trkpt lat="44.694810049829954" lon="8.034124295303027"><ele>175.2</ele><time>2026-04-05T14:14:42.999Z</time></trkpt><trkpt lat="44.69489489217581" lon="8.034120649544377"><ele>174.8</ele><time>2026-04-05T14:14:43.999Z</time></trkpt><trkpt lat="44.69498581843513" lon="8.03412172650344"><ele>174.39999999999998</ele><time>2026-04-05T14:14:44.999Z</time></trkpt><trkpt lat="44.69507701711818" lon="8.034126182260175"><ele>174.0</ele><time>2026-04-05T14:14:45.999Z</time></trkpt><trkpt lat="44.69517784807264" lon="8.03411935003621"><ele>174.2</ele><time>2026-04-05T14:14:46.999Z</time></trkpt><trkpt lat="44.695277607870715" lon="8.034110891727327"><ele>174.39999999999998</ele><time>2026-04-05T14:14:47.999Z</time></trkpt><trkpt lat="44.6953744319169" lon="8.03411210797124"><ele>174.6</ele><time>2026-04-05T14:14:48.999Z</time></trkpt><trkpt lat="44.69546569781132" lon="8.034122848179264"><ele>174.8</ele><time>2026-04-05T14:14:49.999Z</time></trkpt><trkpt lat="44.695568150076" lon="8.03412238967456"><ele>175.0</ele><time>2026-04-05T14:14:50.999Z</time></trkpt><trkpt lat="44.69565493961449" lon="8.034112119602426"><ele>175.0</ele><time>2026-04-05T14:14:51.999Z</time></trkpt><trkpt lat="44.69575058489057" lon="8.034111382646673"><ele>175.0</ele><time>2026-04-05T14:14:52.999Z</time></trkpt><trkpt lat="44.69584539905104" lon="8.03411168777001"><ele>175.0</ele><time>2026-04-05T14:14:53.999Z</time></trkpt><trkpt lat="44.6959347826322" lon="8.034114381503262"><ele>175.0</ele><time>2026-04-05T14:14:54.999Z</time></trkpt><trkpt lat="44.6960154927984" lon="8.034121196488394"><ele>175.0</ele><time>2026-04-05T14:14:55.999Z</time></trkpt><trkpt lat="44.69608548666536" lon="8.034123759991658"><ele>175.0</ele><time>2026-04-05T14:14:56.999Z</time></trkpt><trkpt lat="44.69618252190455" lon="8.034123413086196"><ele>175.16666666666669</ele><time>2026-04-05T14:14:58.999Z</time></trkpt><trkpt lat="44.69626194962157" lon="8.034127237244903"><ele>175.33333333333334</ele><time>2026-04-05T14:15:01.999Z</time></trkpt><trkpt lat="44.69634433458865" lon="8.034193700874296"><ele>175.5</ele><time>2026-04-05T14:15:05.999Z</time></trkpt><trkpt lat="44.69641294391498" lon="8.034219776941393"><ele>175.66666666666666</ele><time>2026-04-05T14:15:07.999Z</time></trkpt><trkpt lat="44.696471499277806" lon="8.034181013384014"><ele>175.83333333333331</ele><time>2026-04-05T14:15:09.999Z</time></trkpt><trkpt lat="44.69649064896996" lon="8.034091466918689"><ele>176.0</ele><time>2026-04-05T14:15:11.999Z</time></trkpt><trkpt lat="44.696446246142564" lon="8.034007287867514"><ele>176.0</ele><time>2026-04-05T14:15:13.999Z</time></trkpt><trkpt lat="44.69637832805878" lon="8.034016930706649"><ele>176.0</ele><time>2026-04-05T14:15:15.999Z</time></trkpt><trkpt lat="44.696346755218066" lon="8.034139972232467"><ele>176.0</ele><time>2026-04-05T14:15:18.999Z</time></trkpt><trkpt lat="44.696403620940956" lon="8.034239762817872"><ele>176.0</ele><time>2026-04-05T14:15:20.999Z</time></trkpt><trkpt lat="44.69644900316107" lon="8.034328060760323"><ele>176.0</ele><time>2026-04-05T14:15:22.999Z</time></trkpt><trkpt lat="44.696487975348475" lon="8.034413583417596"><ele>176.0</ele><time>2026-04-05T14:15:34.999Z</time></trkpt><trkpt lat="44.696498500040896" lon="8.034537488962462"><ele>176.20000000000002</ele><time>2026-04-05T14:15:37.999Z</time></trkpt><trkpt lat="44.69648667640516" lon="8.03467550255258"><ele>176.4</ele><time>2026-04-05T14:15:39.999Z</time></trkpt><trkpt lat="44.696474158063225" lon="8.03481683399429"><ele>176.6</ele><time>2026-04-05T14:15:42.999Z</time></trkpt><trkpt lat="44.69646779821662" lon="8.034963667345831"><ele>176.8</ele><time>2026-04-05T14:15:44.999Z</time></trkpt><trkpt lat="44.69647652192957" lon="8.0351197887901"><ele>177.0</ele><time>2026-04-05T14:15:46.999Z</time></trkpt><trkpt lat="44.69646544927191" lon="8.035263156722298"><ele>177.0</ele><time>2026-04-05T14:15:48.999Z</time></trkpt><trkpt lat="44.69645493790552" lon="8.035371932056899"><ele>177.0</ele><time>2026-04-05T14:15:50.999Z</time></trkpt><trkpt lat="44.69645155724674" lon="8.035460864029998"><ele>177.0</ele><time>2026-04-05T14:15:52.998Z</time></trkpt><trkpt lat="44.69644747383342" lon="8.035562388089428"><ele>177.0</ele><time>2026-04-05T14:15:54.998Z</time></trkpt><trkpt lat="44.69641580991633" lon="8.035644061871817"><ele>177.0</ele><time>2026-04-05T14:15:56.998Z</time></trkpt><trkpt lat="44.69631347234995" lon="8.03567265114309"><ele>177.0</ele><time>2026-04-05T14:15:59.998Z</time></trkpt><trkpt lat="44.69624062081517" lon="8.035627450807587"><ele>177.0</ele><time>2026-04-05T14:16:01.998Z</time></trkpt><trkpt lat="44.69616320538843" lon="8.03562315487199"><ele>177.0</ele><time>2026-04-05T14:16:04.998Z</time></trkpt><trkpt lat="44.69610393637482" lon="8.035569402355186"><ele>177.0</ele><time>2026-04-05T14:16:09.998Z</time></trkpt><trkpt lat="44.69609263994939" lon="8.035407736038612"><ele>177.0</ele><time>2026-04-05T14:16:13Z</time></trkpt><trkpt lat="44.696044260718224" lon="8.035284779141309"><ele>177.0</ele><time>2026-04-05T14:16:15Z</time></trkpt><trkpt lat="44.69593524191287" lon="8.035283292693089"><ele>177.0</ele><time>2026-04-05T14:16:17Z</time></trkpt><trkpt lat="44.69585662637848" lon="8.035219585228862"><ele>177.0</ele><time>2026-04-05T14:16:19Z</time></trkpt><trkpt lat="44.69586319315136" lon="8.035128997930247"><ele>177.0</ele><time>2026-04-05T14:16:20Z</time></trkpt><trkpt lat="44.69587412605868" lon="8.035009843786279"><ele>177.0</ele><time>2026-04-05T14:16:22Z</time></trkpt><trkpt lat="44.69587901009377" lon="8.034908683872029"><ele>177.0</ele><time>2026-04-05T14:16:25Z</time></trkpt><trkpt lat="44.695887882900415" lon="8.034810321646896"><ele>177.0</ele><time>2026-04-05T14:16:28Z</time></trkpt><trkpt lat="44.695883287392256" lon="8.03472027766125"><ele>177.0</ele><time>2026-04-05T14:16:34Z</time></trkpt><trkpt lat="44.69588867695883" lon="8.034630219357464"><ele>177.0</ele><time>2026-04-05T14:16:37Z</time></trkpt><trkpt lat="44.69587855157288" lon="8.034516654628492"><ele>177.0</ele><time>2026-04-05T14:16:39Z</time></trkpt><trkpt lat="44.695894427888796" lon="8.034428079810052"><ele>177.0</ele><time>2026-04-05T14:16:41Z</time></trkpt><trkpt lat="44.695878612503705" lon="8.034332094188022"><ele>177.0</ele><time>2026-04-05T14:16:46Z</time></trkpt></trkseg><trkseg><trkpt lat="44.69593811175531" lon="8.034248151539984"><ele>177.0</ele><time>2026-04-05T15:25:32.999Z</time></trkpt><trkpt lat="44.6958468449422" lon="8.034209478640953"><ele>177.0</ele><time>2026-04-05T15:26:05.998Z</time></trkpt><trkpt lat="44.69588918940273" lon="8.034109672030587"><ele>177.0</ele><time>2026-04-05T15:26:34Z</time></trkpt><trkpt lat="44.695964184232935" lon="8.034054908087352"><ele>177.0</ele><time>2026-04-05T15:26:37Z</time></trkpt><trkpt lat="44.696082755984946" lon="8.034041753396336"><ele>177.0</ele><time>2026-04-05T15:26:39Z</time></trkpt><trkpt lat="44.69613694747782" lon="8.034112627898876"><ele>177.0</ele><time>2026-04-05T15:26:40Z</time></trkpt><trkpt lat="44.69622693968413" lon="8.034119640065425"><ele>177.0</ele><time>2026-04-05T15:26:42Z</time></trkpt><trkpt lat="44.696340814620484" lon="8.034146572172872"><ele>177.0</ele><time>2026-04-05T15:26:44Z</time></trkpt><trkpt lat="44.69642851075742" lon="8.034211677593067"><ele>177.0</ele><time>2026-04-05T15:26:46Z</time></trkpt><trkpt lat="44.696546879008785" lon="8.034128509047255"><ele>177.0</ele><time>2026-04-05T15:26:48Z</time></trkpt><trkpt lat="44.69656012392762" lon="8.03403683680948"><ele>176.8</ele><time>2026-04-05T15:26:49Z</time></trkpt><trkpt lat="44.69656070928115" lon="8.033924131172235"><ele>176.6</ele><time>2026-04-05T15:26:51Z</time></trkpt><trkpt lat="44.696603248071455" lon="8.033848386034633"><ele>176.4</ele><time>2026-04-05T15:26:56Z</time></trkpt><trkpt lat="44.69663050149646" lon="8.03372416538704"><ele>176.20000000000002</ele><time>2026-04-05T15:27:01.999Z</time></trkpt><trkpt lat="44.69664300504421" lon="8.033588179474416"><ele>176.0</ele><time>2026-04-05T15:27:03.999Z</time></trkpt><trkpt lat="44.696656159811546" lon="8.033430000678024"><ele>175.0</ele><time>2026-04-05T15:27:05.999Z</time></trkpt><trkpt lat="44.69665706179494" lon="8.033277811241001"><ele>174.0</ele><time>2026-04-05T15:27:07.999Z</time></trkpt><trkpt lat="44.69666510062075" lon="8.033129940994025"><ele>173.0</ele><time>2026-04-05T15:27:09.999Z</time></trkpt><trkpt lat="44.69668130011397" lon="8.032958856568081"><ele>172.0</ele><time>2026-04-05T15:27:11.999Z</time></trkpt><trkpt lat="44.6966700581389" lon="8.032856108102898"><ele>171.0</ele><time>2026-04-05T15:27:12.999Z</time></trkpt><trkpt lat="44.69669682012003" lon="8.032693374732784"><ele>171.0</ele><time>2026-04-05T15:27:14.999Z</time></trkpt><trkpt lat="44.69671399238229" lon="8.03259432330234"><ele>171.0</ele><time>2026-04-05T15:27:15.999Z</time></trkpt><trkpt lat="44.69674436906648" lon="8.032502935970173"><ele>171.0</ele><time>2026-04-05T15:27:16.999Z</time></trkpt><trkpt lat="44.69678545223181" lon="8.032407352263908"><ele>171.0</ele><time>2026-04-05T15:27:17.999Z</time></trkpt><trkpt lat="44.69684336771027" lon="8.03232811979268"><ele>171.0</ele><time>2026-04-05T15:27:18.999Z</time></trkpt><trkpt lat="44.69692973737956" lon="8.03229073018676"><ele>171.0</ele><time>2026-04-05T15:27:19.999Z</time></trkpt><trkpt lat="44.69700283006933" lon="8.032211485134821"><ele>171.33333333333334</ele><time>2026-04-05T15:27:20.999Z</time></trkpt><trkpt lat="44.69707037807211" lon="8.032116651958203"><ele>171.66666666666666</ele><time>2026-04-05T15:27:21.999Z</time></trkpt><trkpt lat="44.69714620946488" lon="8.032037702787925"><ele>172.0</ele><time>2026-04-05T15:27:22.999Z</time></trkpt><trkpt lat="44.69721656812596" lon="8.031972058660886"><ele>172.33333333333331</ele><time>2026-04-05T15:27:23.999Z</time></trkpt><trkpt lat="44.69727328280478" lon="8.031910411427516"><ele>172.66666666666666</ele><time>2026-04-05T15:27:24.999Z</time></trkpt><trkpt lat="44.697354404764404" lon="8.031826667270801"><ele>173.0</ele><time>2026-04-05T15:27:26.999Z</time></trkpt><trkpt lat="44.697421487602014" lon="8.031768151689038"><ele>173.0</ele><time>2026-04-05T15:27:28.999Z</time></trkpt><trkpt lat="44.69749762443392" lon="8.031703938581494"><ele>173.0</ele><time>2026-04-05T15:27:30.999Z</time></trkpt><trkpt lat="44.69757831239388" lon="8.031620113406808"><ele>173.0</ele><time>2026-04-05T15:27:32.999Z</time></trkpt><trkpt lat="44.69768024512866" lon="8.031525442098202"><ele>173.0</ele><time>2026-04-05T15:27:34.999Z</time></trkpt><trkpt lat="44.69778214560632" lon="8.031431415957654"><ele>173.0</ele><time>2026-04-05T15:27:36.999Z</time></trkpt><trkpt lat="44.697838819817" lon="8.031376281258881"><ele>173.28571428571428</ele><time>2026-04-05T15:27:37.999Z</time></trkpt><trkpt lat="44.69789869744012" lon="8.031319896174692"><ele>173.57142857142858</ele><time>2026-04-05T15:27:38.999Z</time></trkpt><trkpt lat="44.69795642685876" lon="8.031264043317265"><ele>173.85714285714286</ele><time>2026-04-05T15:27:39.999Z</time></trkpt><trkpt lat="44.698017907750724" lon="8.031205578676813"><ele>174.14285714285714</ele><time>2026-04-05T15:27:40.999Z</time></trkpt><trkpt lat="44.69807819367138" lon="8.03114717744942"><ele>174.42857142857144</ele><time>2026-04-05T15:27:41.999Z</time></trkpt><trkpt lat="44.698140364801226" lon="8.031087332404931"><ele>174.71428571428572</ele><time>2026-04-05T15:27:42.999Z</time></trkpt><trkpt lat="44.698202436520454" lon="8.031027413689644"><ele>175.0</ele><time>2026-04-05T15:27:43.999Z</time></trkpt><trkpt lat="44.6982661302943" lon="8.03097020489643"><ele>175.0</ele><time>2026-04-05T15:27:44.999Z</time></trkpt><trkpt lat="44.69832985044103" lon="8.030905625935281"><ele>175.0</ele><time>2026-04-05T15:27:45.999Z</time></trkpt><trkpt lat="44.69839243705643" lon="8.030846210622855"><ele>175.0</ele><time>2026-04-05T15:27:46.999Z</time></trkpt><trkpt lat="44.6984579588295" lon="8.030783724526795"><ele>175.0</ele><time>2026-04-05T15:27:47.999Z</time></trkpt><trkpt lat="44.69852145134776" lon="8.030720828317405"><ele>175.0</ele><time>2026-04-05T15:27:48.999Z</time></trkpt><trkpt lat="44.69858998917066" lon="8.03066983150544"><ele>175.0</ele><time>2026-04-05T15:27:49.999Z</time></trkpt><trkpt lat="44.69865434132255" lon="8.030611760921527"><ele>174.5</ele><time>2026-04-05T15:27:50.998Z</time></trkpt><trkpt lat="44.698713484246646" lon="8.030555791942465"><ele>174.0</ele><time>2026-04-05T15:27:51.998Z</time></trkpt><trkpt lat="44.698780419379105" lon="8.030485305733915"><ele>173.5</ele><time>2026-04-05T15:27:53.998Z</time></trkpt><trkpt lat="44.69884457788984" lon="8.030417363574587"><ele>173.0</ele><time>2026-04-05T15:28:01.998Z</time></trkpt><trkpt lat="44.698904926562875" lon="8.03037037942832"><ele>172.5</ele><time>2026-04-05T15:28:03.998Z</time></trkpt><trkpt lat="44.69897517685376" lon="8.030318630612802"><ele>172.0</ele><time>2026-04-05T15:28:05.998Z</time></trkpt><trkpt lat="44.69908960782045" lon="8.030326021824632"><ele>172.00000000000003</ele><time>2026-04-05T15:28:07.998Z</time></trkpt><trkpt lat="44.69913943344658" lon="8.030266594278073"><ele>172.0</ele><time>2026-04-05T15:28:08.998Z</time></trkpt><trkpt lat="44.699194846438374" lon="8.030205469673065"><ele>172.0</ele><time>2026-04-05T15:28:09.998Z</time></trkpt><trkpt lat="44.699252942600076" lon="8.030165909105424"><ele>172.0</ele><time>2026-04-05T15:28:10.998Z</time></trkpt><trkpt lat="44.6993176669282" lon="8.030135757438474"><ele>172.0</ele><time>2026-04-05T15:28:11.998Z</time></trkpt><trkpt lat="44.69939572495208" lon="8.030124893064801"><ele>172.00000000000003</ele><time>2026-04-05T15:28:12.998Z</time></trkpt><trkpt lat="44.69947786928949" lon="8.030137426172326"><ele>172.0</ele><time>2026-04-05T15:28:13.998Z</time></trkpt><trkpt lat="44.699561338389245" lon="8.03016109927106"><ele>171.8</ele><time>2026-04-05T15:28:14.998Z</time></trkpt><trkpt lat="44.69965240857601" lon="8.030193931180271"><ele>171.6</ele><time>2026-04-05T15:28:15.998Z</time></trkpt><trkpt lat="44.69974593602689" lon="8.03023915487228"><ele>171.4</ele><time>2026-04-05T15:28:16.998Z</time></trkpt><trkpt lat="44.699834913089305" lon="8.030295905386586"><ele>171.20000000000002</ele><time>2026-04-05T15:28:17.998Z</time></trkpt><trkpt lat="44.69993240786016" lon="8.03035883859608"><ele>171.0</ele><time>2026-04-05T15:28:18.998Z</time></trkpt><trkpt lat="44.70001376741546" lon="8.030405258360897"><ele>171.0</ele><time>2026-04-05T15:28:19.998Z</time></trkpt><trkpt lat="44.700080947477645" lon="8.030434811580983"><ele>171.0</ele><time>2026-04-05T15:28:20.998Z</time></trkpt><trkpt lat="44.70015357104722" lon="8.03048149498994"><ele>171.0</ele><time>2026-04-05T15:28:21.998Z</time></trkpt><trkpt lat="44.70021857270909" lon="8.030524384139037"><ele>171.0</ele><time>2026-04-05T15:28:22.998Z</time></trkpt><trkpt lat="44.70030651823138" lon="8.030624046235427"><ele>171.0</ele><time>2026-04-05T15:28:24.998Z</time></trkpt><trkpt lat="44.70045070307761" lon="8.030640326399679"><ele>170.8</ele><time>2026-04-05T15:28:26.998Z</time></trkpt><trkpt lat="44.70053632418833" lon="8.03067929582038"><ele>170.60000000000002</ele><time>2026-04-05T15:28:27.998Z</time></trkpt><trkpt lat="44.70062841436376" lon="8.03073270302421"><ele>170.4</ele><time>2026-04-05T15:28:28.998Z</time></trkpt><trkpt lat="44.700718912571624" lon="8.03079505465027"><ele>170.2</ele><time>2026-04-05T15:28:29.998Z</time></trkpt><trkpt lat="44.70080909048354" lon="8.030857255096427"><ele>170.0</ele><time>2026-04-05T15:28:30.998Z</time></trkpt><trkpt lat="44.70090338447303" lon="8.030913228613977"><ele>170.0</ele><time>2026-04-05T15:28:31.998Z</time></trkpt><trkpt lat="44.70099693674575" lon="8.030970188814301"><ele>170.0</ele><time>2026-04-05T15:28:32.998Z</time></trkpt><trkpt lat="44.70109242754505" lon="8.031030992523368"><ele>170.0</ele><time>2026-04-05T15:28:33.998Z</time></trkpt><trkpt lat="44.701190469306084" lon="8.031097860481495"><ele>170.0</ele><time>2026-04-05T15:28:34.998Z</time></trkpt><trkpt lat="44.70127557103963" lon="8.031176116067554"><ele>170.0</ele><time>2026-04-05T15:28:35.999Z</time></trkpt><trkpt lat="44.70135299428655" lon="8.031258018470474"><ele>170.0</ele><time>2026-04-05T15:28:36.999Z</time></trkpt><trkpt lat="44.70144757312841" lon="8.031354918010864"><ele>170.0</ele><time>2026-04-05T15:28:37.999Z</time></trkpt><trkpt lat="44.701534372309034" lon="8.03144363425002"><ele>170.0</ele><time>2026-04-05T15:28:38.999Z</time></trkpt><trkpt lat="44.70161472583446" lon="8.03152914210593"><ele>170.0</ele><time>2026-04-05T15:28:39.999Z</time></trkpt><trkpt lat="44.70170247591873" lon="8.031620198461765"><ele>170.0</ele><time>2026-04-05T15:28:40.999Z</time></trkpt><trkpt lat="44.701785460298545" lon="8.031735218197023"><ele>170.0</ele><time>2026-04-05T15:28:41.999Z</time></trkpt><trkpt lat="44.70187044748755" lon="8.031806531650187"><ele>170.0</ele><time>2026-04-05T15:28:42.999Z</time></trkpt><trkpt lat="44.70195034975596" lon="8.031888383091363"><ele>170.0</ele><time>2026-04-05T15:28:43.999Z</time></trkpt><trkpt lat="44.702021697987135" lon="8.031960132871028"><ele>170.0</ele><time>2026-04-05T15:28:44.999Z</time></trkpt><trkpt lat="44.70208658474356" lon="8.032022437133241"><ele>170.0</ele><time>2026-04-05T15:28:45.999Z</time></trkpt><trkpt lat="44.70214502224898" lon="8.032078150926063"><ele>170.0</ele><time>2026-04-05T15:28:46.999Z</time></trkpt><trkpt lat="44.70223964074772" lon="8.032180916562474"><ele>170.0</ele><time>2026-04-05T15:28:48.999Z</time></trkpt><trkpt lat="44.70230848633783" lon="8.032289100721929"><ele>170.0</ele><time>2026-04-05T15:28:50.999Z</time></trkpt><trkpt lat="44.702386905854844" lon="8.032385452647576"><ele>170.0</ele><time>2026-04-05T15:28:52.999Z</time></trkpt><trkpt lat="44.70249493260318" lon="8.032361683467169"><ele>170.0</ele><time>2026-04-05T15:28:54.999Z</time></trkpt><trkpt lat="44.7025302896712" lon="8.03217167932799"><ele>170.0</ele><time>2026-04-05T15:28:56.999Z</time></trkpt><trkpt lat="44.7025235437086" lon="8.032078369059603"><ele>170.0</ele><time>2026-04-05T15:28:57.999Z</time></trkpt><trkpt lat="44.70251086141511" lon="8.031990629191117"><ele>170.0</ele><time>2026-04-05T15:28:58.999Z</time></trkpt><trkpt lat="44.702541252378744" lon="8.031872456817451"><ele>170.0</ele><time>2026-04-05T15:28:59.999Z</time></trkpt><trkpt lat="44.70259001193581" lon="8.0317706849139"><ele>170.0</ele><time>2026-04-05T15:29:00.999Z</time></trkpt><trkpt lat="44.70264547972546" lon="8.031665294775884"><ele>170.0</ele><time>2026-04-05T15:29:01.999Z</time></trkpt><trkpt lat="44.70270513673569" lon="8.03155417442065"><ele>169.6</ele><time>2026-04-05T15:29:02.999Z</time></trkpt><trkpt lat="44.70276057178015" lon="8.031432759145794"><ele>169.2</ele><time>2026-04-05T15:29:03.999Z</time></trkpt><trkpt lat="44.702822153228205" lon="8.031328282367344"><ele>168.8</ele><time>2026-04-05T15:29:04.999Z</time></trkpt><trkpt lat="44.70287736276203" lon="8.031221101859474"><ele>168.4</ele><time>2026-04-05T15:29:05.999Z</time></trkpt><trkpt lat="44.702929003908686" lon="8.03109828535597"><ele>168.0</ele><time>2026-04-05T15:29:06.999Z</time></trkpt><trkpt lat="44.702990315379616" lon="8.03098131513898"><ele>168.0</ele><time>2026-04-05T15:29:07.999Z</time></trkpt><trkpt lat="44.7030547040085" lon="8.030867724819583"><ele>168.0</ele><time>2026-04-05T15:29:08.999Z</time></trkpt><trkpt lat="44.70311787164479" lon="8.030745166386923"><ele>168.0</ele><time>2026-04-05T15:29:09.999Z</time></trkpt><trkpt lat="44.703173468268986" lon="8.03060275873267"><ele>168.0</ele><time>2026-04-05T15:29:10.999Z</time></trkpt><trkpt lat="44.70322981995755" lon="8.03046759645369"><ele>168.0</ele><time>2026-04-05T15:29:11.999Z</time></trkpt><trkpt lat="44.703298370325236" lon="8.030340094732958"><ele>168.0</ele><time>2026-04-05T15:29:12.999Z</time></trkpt><trkpt lat="44.703367974546794" lon="8.03021532234974"><ele>168.0</ele><time>2026-04-05T15:29:13.999Z</time></trkpt><trkpt lat="44.70344238139044" lon="8.030087334946522"><ele>168.0</ele><time>2026-04-05T15:29:14.999Z</time></trkpt><trkpt lat="44.703513343617644" lon="8.029956071599134"><ele>168.0</ele><time>2026-04-05T15:29:15.999Z</time></trkpt><trkpt lat="44.70358385297184" lon="8.029819152679126"><ele>168.25</ele><time>2026-04-05T15:29:16.999Z</time></trkpt><trkpt lat="44.70366004584619" lon="8.029687519662733"><ele>168.5</ele><time>2026-04-05T15:29:17.999Z</time></trkpt><trkpt lat="44.703732770258625" lon="8.029544200879535"><ele>168.75</ele><time>2026-04-05T15:29:18.999Z</time></trkpt><trkpt lat="44.703806604783196" lon="8.029402620500877"><ele>169.0</ele><time>2026-04-05T15:29:19.999Z</time></trkpt><trkpt lat="44.70387816383555" lon="8.029262558969059"><ele>168.79999999999998</ele><time>2026-04-05T15:29:20.999Z</time></trkpt><trkpt lat="44.70394623268406" lon="8.029130902051676"><ele>168.6</ele><time>2026-04-05T15:29:21.999Z</time></trkpt><trkpt lat="44.704007332418755" lon="8.029007477732858"><ele>168.4</ele><time>2026-04-05T15:29:22.999Z</time></trkpt><trkpt lat="44.70406443380778" lon="8.02889603211764"><ele>168.2</ele><time>2026-04-05T15:29:23.999Z</time></trkpt><trkpt lat="44.70411398504848" lon="8.028781604759446"><ele>168.0</ele><time>2026-04-05T15:29:24.999Z</time></trkpt><trkpt lat="44.70416144648779" lon="8.028664231586852"><ele>168.0</ele><time>2026-04-05T15:29:25.999Z</time></trkpt><trkpt lat="44.70420607696155" lon="8.028539094903943"><ele>168.0</ele><time>2026-04-05T15:29:26.999Z</time></trkpt><trkpt lat="44.70424482259799" lon="8.028402191201483"><ele>168.0</ele><time>2026-04-05T15:29:27.999Z</time></trkpt><trkpt lat="44.704289454271176" lon="8.028281420530673"><ele>168.0</ele><time>2026-04-05T15:29:28.999Z</time></trkpt><trkpt lat="44.70434914026206" lon="8.028200386069638"><ele>168.0</ele><time>2026-04-05T15:29:29.999Z</time></trkpt><trkpt lat="44.704411718320834" lon="8.028130641468534"><ele>167.16666666666666</ele><time>2026-04-05T15:29:30.999Z</time></trkpt><trkpt lat="44.704476627225844" lon="8.028059158825126"><ele>166.33333333333334</ele><time>2026-04-05T15:29:31.999Z</time></trkpt><trkpt lat="44.7045351441579" lon="8.027974189982501"><ele>165.5</ele><time>2026-04-05T15:29:32.999Z</time></trkpt><trkpt lat="44.70458827352021" lon="8.027880747671155"><ele>164.66666666666669</ele><time>2026-04-05T15:29:33.999Z</time></trkpt><trkpt lat="44.70464271902443" lon="8.02778737147618"><ele>163.83333333333334</ele><time>2026-04-05T15:29:34.999Z</time></trkpt><trkpt lat="44.70470014909169" lon="8.027694327779047"><ele>163.0</ele><time>2026-04-05T15:29:35.999Z</time></trkpt><trkpt lat="44.70476831765245" lon="8.027614496990498"><ele>163.0</ele><time>2026-04-05T15:29:36.999Z</time></trkpt><trkpt lat="44.70485051333016" lon="8.027559167480112"><ele>163.0</ele><time>2026-04-05T15:29:37.999Z</time></trkpt><trkpt lat="44.70494247965049" lon="8.027530894505684"><ele>163.0</ele><time>2026-04-05T15:29:38.999Z</time></trkpt><trkpt lat="44.705036698506674" lon="8.02751143581921"><ele>163.0</ele><time>2026-04-05T15:29:39.999Z</time></trkpt><trkpt lat="44.70513174510764" lon="8.027489466565779"><ele>163.0</ele><time>2026-04-05T15:29:40.999Z</time></trkpt><trkpt lat="44.7052293047908" lon="8.027458679743312"><ele>162.4</ele><time>2026-04-05T15:29:41.999Z</time></trkpt><trkpt lat="44.70533197126989" lon="8.02742802312907"><ele>161.8</ele><time>2026-04-05T15:29:42.999Z</time></trkpt><trkpt lat="44.70543639813473" lon="8.027396453439481"><ele>161.2</ele><time>2026-04-05T15:29:43.999Z</time></trkpt><trkpt lat="44.70554494604437" lon="8.027365413186395"><ele>160.6</ele><time>2026-04-05T15:29:44.999Z</time></trkpt><trkpt lat="44.70564979203741" lon="8.02732681135534"><ele>160.0</ele><time>2026-04-05T15:29:45.999Z</time></trkpt><trkpt lat="44.705758623730006" lon="8.027317635878559"><ele>160.0</ele><time>2026-04-05T15:29:46.999Z</time></trkpt><trkpt lat="44.70586913765438" lon="8.027282548617364"><ele>160.0</ele><time>2026-04-05T15:29:47.999Z</time></trkpt><trkpt lat="44.7059845911591" lon="8.027247238714212"><ele>160.0</ele><time>2026-04-05T15:29:48.999Z</time></trkpt><trkpt lat="44.7061051277333" lon="8.027207007561739"><ele>160.0</ele><time>2026-04-05T15:29:49.998Z</time></trkpt><trkpt lat="44.70623051242752" lon="8.027181833583644"><ele>161.25</ele><time>2026-04-05T15:29:50.998Z</time></trkpt><trkpt lat="44.706352402974325" lon="8.02715087751668"><ele>162.5</ele><time>2026-04-05T15:29:51.998Z</time></trkpt><trkpt lat="44.70647384595421" lon="8.027116360969348"><ele>163.75</ele><time>2026-04-05T15:29:52.998Z</time></trkpt><trkpt lat="44.706601819344556" lon="8.027083372650605"><ele>165.0</ele><time>2026-04-05T15:29:53.998Z</time></trkpt><trkpt lat="44.706727808508525" lon="8.027049715002644"><ele>165.0</ele><time>2026-04-05T15:29:54.998Z</time></trkpt><trkpt lat="44.706854328490095" lon="8.02701980397151"><ele>165.0</ele><time>2026-04-05T15:29:55.998Z</time></trkpt><trkpt lat="44.706984860057204" lon="8.026985857329342"><ele>165.0</ele><time>2026-04-05T15:29:56.998Z</time></trkpt><trkpt lat="44.707113338578175" lon="8.02695468176497"><ele>165.0</ele><time>2026-04-05T15:29:57.998Z</time></trkpt><trkpt lat="44.70724417201245" lon="8.026918198944475"><ele>165.0</ele><time>2026-04-05T15:29:58.998Z</time></trkpt><trkpt lat="44.70737380301882" lon="8.02687961687883"><ele>165.0</ele><time>2026-04-05T15:29:59.998Z</time></trkpt><trkpt lat="44.707506618997826" lon="8.026845617259413"><ele>165.0</ele><time>2026-04-05T15:30:00.998Z</time></trkpt><trkpt lat="44.70764134135091" lon="8.026808685990906"><ele>165.0</ele><time>2026-04-05T15:30:01.998Z</time></trkpt><trkpt lat="44.707772592912235" lon="8.026777893121208"><ele>165.0</ele><time>2026-04-05T15:30:02.998Z</time></trkpt><trkpt lat="44.70791070369314" lon="8.026752976664973"><ele>165.0</ele><time>2026-04-05T15:30:03.998Z</time></trkpt><trkpt lat="44.70803370014749" lon="8.026714488985457"><ele>165.0</ele><time>2026-04-05T15:30:04.998Z</time></trkpt><trkpt lat="44.70814286960049" lon="8.026674598900714"><ele>165.0</ele><time>2026-04-05T15:30:05.998Z</time></trkpt><trkpt lat="44.7082581209906" lon="8.026639735668073"><ele>165.0</ele><time>2026-04-05T15:30:06.998Z</time></trkpt><trkpt lat="44.708360391693894" lon="8.026600515838062"><ele>165.0</ele><time>2026-04-05T15:30:07.998Z</time></trkpt><trkpt lat="44.708459103794034" lon="8.026563947341767"><ele>165.0</ele><time>2026-04-05T15:30:08.998Z</time></trkpt><trkpt lat="44.7085433180572" lon="8.026539634530055"><ele>165.0</ele><time>2026-04-05T15:30:09.998Z</time></trkpt><trkpt lat="44.70863520745641" lon="8.026511046806137"><ele>165.0</ele><time>2026-04-05T15:30:10.998Z</time></trkpt><trkpt lat="44.708720632076165" lon="8.02648543073712"><ele>165.33333333333334</ele><time>2026-04-05T15:30:11.998Z</time></trkpt><trkpt lat="44.70880086503293" lon="8.02646371687866"><ele>165.66666666666666</ele><time>2026-04-05T15:30:12.998Z</time></trkpt><trkpt lat="44.70888056154828" lon="8.026442277901868"><ele>166.0</ele><time>2026-04-05T15:30:13.998Z</time></trkpt><trkpt lat="44.70895691233691" lon="8.026427570140314"><ele>166.33333333333331</ele><time>2026-04-05T15:30:14.998Z</time></trkpt><trkpt lat="44.70903550954005" lon="8.026430266070737"><ele>166.66666666666666</ele><time>2026-04-05T15:30:15.998Z</time></trkpt><trkpt lat="44.70910857569438" lon="8.026453656146117"><ele>167.0</ele><time>2026-04-05T15:30:16.998Z</time></trkpt><trkpt lat="44.70917358442255" lon="8.026492974188043"><ele>167.0</ele><time>2026-04-05T15:30:17.998Z</time></trkpt><trkpt lat="44.70922799969923" lon="8.026546969173685"><ele>167.0</ele><time>2026-04-05T15:30:18.998Z</time></trkpt><trkpt lat="44.7092880346725" lon="8.026601521519515"><ele>167.0</ele><time>2026-04-05T15:30:19.998Z</time></trkpt><trkpt lat="44.70934589648599" lon="8.026653201117169"><ele>167.0</ele><time>2026-04-05T15:30:20.998Z</time></trkpt><trkpt lat="44.709405683971404" lon="8.026688849254937"><ele>167.0</ele><time>2026-04-05T15:30:21.998Z</time></trkpt><trkpt lat="44.709470661667005" lon="8.026702595764101"><ele>167.0</ele><time>2026-04-05T15:30:22.998Z</time></trkpt><trkpt lat="44.70953697537534" lon="8.026688727780742"><ele>167.0</ele><time>2026-04-05T15:30:23.998Z</time></trkpt><trkpt lat="44.70959825809931" lon="8.02663807101638"><ele>167.14285714285714</ele><time>2026-04-05T15:30:24.998Z</time></trkpt><trkpt lat="44.709639958475044" lon="8.026560391983379"><ele>167.28571428571428</ele><time>2026-04-05T15:30:25.998Z</time></trkpt><trkpt lat="44.709654703082485" lon="8.026465161512638"><ele>167.42857142857144</ele><time>2026-04-05T15:30:26.998Z</time></trkpt><trkpt lat="44.709644540380744" lon="8.026374073799353"><ele>167.57142857142856</ele><time>2026-04-05T15:30:27.998Z</time></trkpt><trkpt lat="44.70961022336058" lon="8.026286666707698"><ele>167.71428571428572</ele><time>2026-04-05T15:30:28.998Z</time></trkpt><trkpt lat="44.70955575780346" lon="8.026220386757643"><ele>167.85714285714286</ele><time>2026-04-05T15:30:29.998Z</time></trkpt><trkpt lat="44.7094838600576" lon="8.02617731607611"><ele>168.0</ele><time>2026-04-05T15:30:30.998Z</time></trkpt><trkpt lat="44.70941453701615" lon="8.02614864816251"><ele>167.83333333333334</ele><time>2026-04-05T15:30:31.998Z</time></trkpt><trkpt lat="44.70935505840346" lon="8.026107611165033"><ele>167.66666666666666</ele><time>2026-04-05T15:30:32.998Z</time></trkpt><trkpt lat="44.709281358716964" lon="8.025987879006633"><ele>167.5</ele><time>2026-04-05T15:30:34.998Z</time></trkpt><trkpt lat="44.70926127532762" lon="8.025819852315042"><ele>167.33333333333331</ele><time>2026-04-05T15:30:36.998Z</time></trkpt><trkpt lat="44.70928497895743" lon="8.025732085968027"><ele>167.16666666666666</ele><time>2026-04-05T15:30:37.998Z</time></trkpt><trkpt lat="44.70932401276514" lon="8.025648221843538"><ele>167.0</ele><time>2026-04-05T15:30:38.998Z</time></trkpt><trkpt lat="44.70936801662176" lon="8.02556179016673"><ele>167.0</ele><time>2026-04-05T15:30:39.998Z</time></trkpt><trkpt lat="44.70941611824239" lon="8.025457067632255"><ele>167.0</ele><time>2026-04-05T15:30:40.998Z</time></trkpt><trkpt lat="44.70946683185102" lon="8.025335595935251"><ele>167.0</ele><time>2026-04-05T15:30:41.999Z</time></trkpt><trkpt lat="44.70952144380739" lon="8.025205686819728"><ele>167.0</ele><time>2026-04-05T15:30:42.999Z</time></trkpt><trkpt lat="44.709578966711575" lon="8.025069443385256"><ele>167.0</ele><time>2026-04-05T15:30:43.999Z</time></trkpt><trkpt lat="44.70963349647504" lon="8.024923608879188"><ele>166.75</ele><time>2026-04-05T15:30:44.999Z</time></trkpt><trkpt lat="44.70969482186683" lon="8.02477895227239"><ele>166.5</ele><time>2026-04-05T15:30:45.999Z</time></trkpt><trkpt lat="44.70975474559642" lon="8.024631816068293"><ele>166.25</ele><time>2026-04-05T15:30:46.999Z</time></trkpt><trkpt lat="44.70980696249663" lon="8.024475140277769"><ele>166.0</ele><time>2026-04-05T15:30:47.999Z</time></trkpt><trkpt lat="44.709867160352466" lon="8.02432474801902"><ele>166.0</ele><time>2026-04-05T15:30:48.999Z</time></trkpt><trkpt lat="44.709927735590064" lon="8.024183652940595"><ele>166.0</ele><time>2026-04-05T15:30:49.999Z</time></trkpt><trkpt lat="44.709983163127795" lon="8.024041757226533"><ele>166.0</ele><time>2026-04-05T15:30:50.999Z</time></trkpt><trkpt lat="44.710038018452586" lon="8.02390293666469"><ele>166.0</ele><time>2026-04-05T15:30:51.999Z</time></trkpt><trkpt lat="44.71012107801491" lon="8.023797344813202"><ele>166.0</ele><time>2026-04-05T15:30:52.999Z</time></trkpt><trkpt lat="44.710150384372824" lon="8.023636344130445"><ele>166.0</ele><time>2026-04-05T15:30:53.999Z</time></trkpt><trkpt lat="44.7102035416233" lon="8.023493982998067"><ele>166.0</ele><time>2026-04-05T15:30:54.999Z</time></trkpt><trkpt lat="44.71026589471621" lon="8.023366421987525"><ele>166.0</ele><time>2026-04-05T15:30:55.999Z</time></trkpt><trkpt lat="44.71032854791005" lon="8.023222531978586"><ele>166.25</ele><time>2026-04-05T15:30:56.999Z</time></trkpt><trkpt lat="44.71038844935118" lon="8.023055845576343"><ele>166.5</ele><time>2026-04-05T15:30:57.999Z</time></trkpt><trkpt lat="44.71046031015272" lon="8.02289470860354"><ele>166.75</ele><time>2026-04-05T15:30:58.999Z</time></trkpt><trkpt lat="44.7105708852861" lon="8.02273315224693"><ele>167.0</ele><time>2026-04-05T15:30:59.999Z</time></trkpt><trkpt lat="44.71066531066218" lon="8.02251064406057"><ele>167.0</ele><time>2026-04-05T15:31:00.999Z</time></trkpt><trkpt lat="44.7107103277007" lon="8.022264615938715"><ele>167.0</ele><time>2026-04-05T15:31:01.999Z</time></trkpt><trkpt lat="44.71080721447944" lon="8.02205625638973"><ele>167.0</ele><time>2026-04-05T15:31:02.999Z</time></trkpt><trkpt lat="44.71090516644065" lon="8.021843259629819"><ele>167.0</ele><time>2026-04-05T15:31:03.999Z</time></trkpt><trkpt lat="44.71099855931936" lon="8.02164497215069"><ele>167.0</ele><time>2026-04-05T15:31:04.999Z</time></trkpt><trkpt lat="44.711105749050105" lon="8.021471273740898"><ele>167.0</ele><time>2026-04-05T15:31:05.999Z</time></trkpt><trkpt lat="44.711182708611105" lon="8.021289649757646"><ele>167.0</ele><time>2026-04-05T15:31:06.999Z</time></trkpt><trkpt lat="44.711255675615824" lon="8.02111752911825"><ele>167.0</ele><time>2026-04-05T15:31:07.999Z</time></trkpt><trkpt lat="44.711324739900846" lon="8.020954712855087"><ele>167.0</ele><time>2026-04-05T15:31:08.999Z</time></trkpt><trkpt lat="44.711386526787116" lon="8.020779290314035"><ele>167.0</ele><time>2026-04-05T15:31:09.999Z</time></trkpt><trkpt lat="44.71146351513536" lon="8.02060859201662"><ele>167.0</ele><time>2026-04-05T15:31:10.999Z</time></trkpt><trkpt lat="44.71154272994329" lon="8.020429005042073"><ele>167.0</ele><time>2026-04-05T15:31:11.999Z</time></trkpt><trkpt lat="44.711606843168134" lon="8.020250973196426"><ele>167.0</ele><time>2026-04-05T15:31:12.999Z</time></trkpt><trkpt lat="44.711697855637205" lon="8.020075102646215"><ele>167.0</ele><time>2026-04-05T15:31:13.999Z</time></trkpt><trkpt lat="44.711771404971806" lon="8.019900991199956"><ele>167.0</ele><time>2026-04-05T15:31:14.999Z</time></trkpt><trkpt lat="44.71184214633644" lon="8.01970720026497"><ele>167.0</ele><time>2026-04-05T15:31:15.999Z</time></trkpt><trkpt lat="44.71192057007716" lon="8.019524424442439"><ele>167.0</ele><time>2026-04-05T15:31:16.999Z</time></trkpt><trkpt lat="44.711997072028225" lon="8.019323414267037"><ele>167.33333333333331</ele><time>2026-04-05T15:31:17.999Z</time></trkpt><trkpt lat="44.71209460879432" lon="8.019138543192595"><ele>167.66666666666666</ele><time>2026-04-05T15:31:18.999Z</time></trkpt><trkpt lat="44.712176600032286" lon="8.018944468330888"><ele>168.0</ele><time>2026-04-05T15:31:19.999Z</time></trkpt><trkpt lat="44.7122573465858" lon="8.018753539247028"><ele>168.0</ele><time>2026-04-05T15:31:20.999Z</time></trkpt><trkpt lat="44.712336629083374" lon="8.018567130566874"><ele>168.0</ele><time>2026-04-05T15:31:21.999Z</time></trkpt><trkpt lat="44.71240736122305" lon="8.01840062302764"><ele>168.0</ele><time>2026-04-05T15:31:22.999Z</time></trkpt><trkpt lat="44.71248369884973" lon="8.018221228440527"><ele>168.0</ele><time>2026-04-05T15:31:23.999Z</time></trkpt><trkpt lat="44.71253281035984" lon="8.018030143747199"><ele>168.0</ele><time>2026-04-05T15:31:24.999Z</time></trkpt><trkpt lat="44.71260763465999" lon="8.017872294948926"><ele>168.0</ele><time>2026-04-05T15:31:25.999Z</time></trkpt><trkpt lat="44.71267360404287" lon="8.017721592658638"><ele>168.0</ele><time>2026-04-05T15:31:26.999Z</time></trkpt><trkpt lat="44.712736758759874" lon="8.017565055822969"><ele>168.0</ele><time>2026-04-05T15:31:27.999Z</time></trkpt><trkpt lat="44.71279456008928" lon="8.017423774119319"><ele>168.0</ele><time>2026-04-05T15:31:28.999Z</time></trkpt><trkpt lat="44.71284965603763" lon="8.017286155649112"><ele>168.0</ele><time>2026-04-05T15:31:29.999Z</time></trkpt><trkpt lat="44.712895513606924" lon="8.01717066243889"><ele>168.0</ele><time>2026-04-05T15:31:30.999Z</time></trkpt><trkpt lat="44.712960473171286" lon="8.017097421137269"><ele>168.0</ele><time>2026-04-05T15:31:31.999Z</time></trkpt><trkpt lat="44.71300262914089" lon="8.016999593013184"><ele>168.0</ele><time>2026-04-05T15:31:32.999Z</time></trkpt><trkpt lat="44.71304432923659" lon="8.016905099945834"><ele>168.0</ele><time>2026-04-05T15:31:34.999Z</time></trkpt><trkpt lat="44.71310199521208" lon="8.016759204780183"><ele>168.0</ele><time>2026-04-05T15:31:41.999Z</time></trkpt><trkpt lat="44.71313565019095" lon="8.016645731312185"><ele>168.0</ele><time>2026-04-05T15:31:43.999Z</time></trkpt><trkpt lat="44.713079377745835" lon="8.016562842540552"><ele>168.0</ele><time>2026-04-05T15:31:44.999Z</time></trkpt><trkpt lat="44.712999828831414" lon="8.016482192373397"><ele>168.0</ele><time>2026-04-05T15:31:45.999Z</time></trkpt><trkpt lat="44.71298582557164" lon="8.016371387958946"><ele>168.2</ele><time>2026-04-05T15:31:46.999Z</time></trkpt><trkpt lat="44.7129511905458" lon="8.016246483083957"><ele>168.4</ele><time>2026-04-05T15:31:47.999Z</time></trkpt><trkpt lat="44.7129097299079" lon="8.016137416452766"><ele>168.6</ele><time>2026-04-05T15:31:48.999Z</time></trkpt><trkpt lat="44.71287850589813" lon="8.016019326132666"><ele>168.79999999999998</ele><time>2026-04-05T15:31:49.999Z</time></trkpt><trkpt lat="44.71284928795898" lon="8.015875948606691"><ele>169.0</ele><time>2026-04-05T15:31:50.999Z</time></trkpt><trkpt lat="44.712803990983716" lon="8.015745992822097"><ele>169.2</ele><time>2026-04-05T15:31:51.999Z</time></trkpt><trkpt lat="44.71275730848337" lon="8.015609083967222"><ele>169.39999999999998</ele><time>2026-04-05T15:31:52.999Z</time></trkpt><trkpt lat="44.71270962852141" lon="8.01546718563127"><ele>169.6</ele><time>2026-04-05T15:31:53.999Z</time></trkpt><trkpt lat="44.71266442373155" lon="8.015316104030378"><ele>169.8</ele><time>2026-04-05T15:31:54.999Z</time></trkpt><trkpt lat="44.71262512578927" lon="8.015175528768609"><ele>170.0</ele><time>2026-04-05T15:31:55.999Z</time></trkpt><trkpt lat="44.71258485620555" lon="8.015041137835818"><ele>169.75</ele><time>2026-04-05T15:31:56.999Z</time></trkpt><trkpt lat="44.71254173701526" lon="8.014899010389339"><ele>169.5</ele><time>2026-04-05T15:31:57.999Z</time></trkpt><trkpt lat="44.712500717931924" lon="8.014752070839267"><ele>169.25</ele><time>2026-04-05T15:31:58.999Z</time></trkpt><trkpt lat="44.71245667973916" lon="8.014603552381194"><ele>169.0</ele><time>2026-04-05T15:31:59.999Z</time></trkpt><trkpt lat="44.712411673982494" lon="8.01445254240398"><ele>169.0</ele><time>2026-04-05T15:32:00.999Z</time></trkpt><trkpt lat="44.712361887967916" lon="8.01428720851846"><ele>169.0</ele><time>2026-04-05T15:32:01.999Z</time></trkpt><trkpt lat="44.7123084982729" lon="8.014108130422573"><ele>169.0</ele><time>2026-04-05T15:32:02.999Z</time></trkpt><trkpt lat="44.71224980101826" lon="8.013921394175622"><ele>169.0</ele><time>2026-04-05T15:32:03.999Z</time></trkpt><trkpt lat="44.7121872361887" lon="8.013720366180262"><ele>169.0</ele><time>2026-04-05T15:32:04.999Z</time></trkpt><trkpt lat="44.7121235732013" lon="8.013514432211215"><ele>169.0</ele><time>2026-04-05T15:32:05.999Z</time></trkpt><trkpt lat="44.71207342520259" lon="8.013287697196509"><ele>169.0</ele><time>2026-04-05T15:32:06.999Z</time></trkpt><trkpt lat="44.71200587001857" lon="8.013058928905501"><ele>169.0</ele><time>2026-04-05T15:32:07.999Z</time></trkpt><trkpt lat="44.71193698728527" lon="8.012827250146055"><ele>169.0</ele><time>2026-04-05T15:32:08.999Z</time></trkpt><trkpt lat="44.711870392828494" lon="8.012581643439383"><ele>169.0</ele><time>2026-04-05T15:32:09.999Z</time></trkpt><trkpt lat="44.71178480186183" lon="8.012339239681646"><ele>169.0</ele><time>2026-04-05T15:32:10.999Z</time></trkpt><trkpt lat="44.71170302010416" lon="8.012078219667284"><ele>169.0</ele><time>2026-04-05T15:32:11.999Z</time></trkpt><trkpt lat="44.711624328014814" lon="8.011818690147287"><ele>169.0</ele><time>2026-04-05T15:32:12.999Z</time></trkpt><trkpt lat="44.71154721996508" lon="8.011559820112579"><ele>169.0</ele><time>2026-04-05T15:32:13.999Z</time></trkpt><trkpt lat="44.711467123604926" lon="8.011295358036687"><ele>169.0</ele><time>2026-04-05T15:32:14.999Z</time></trkpt><trkpt lat="44.71140573131662" lon="8.011032952740065"><ele>169.0</ele><time>2026-04-05T15:32:15.999Z</time></trkpt><trkpt lat="44.7113307782615" lon="8.010780471388873"><ele>169.0</ele><time>2026-04-05T15:32:16.999Z</time></trkpt><trkpt lat="44.71123764824306" lon="8.010526007681312"><ele>169.0</ele><time>2026-04-05T15:32:17.999Z</time></trkpt><trkpt lat="44.71116058049809" lon="8.01025656587894"><ele>169.0</ele><time>2026-04-05T15:32:18.999Z</time></trkpt><trkpt lat="44.71108304789637" lon="8.009983250555985"><ele>168.33333333333334</ele><time>2026-04-05T15:32:19.999Z</time></trkpt><trkpt lat="44.71100236603701" lon="8.009706780090134"><ele>167.66666666666666</ele><time>2026-04-05T15:32:20.999Z</time></trkpt><trkpt lat="44.71091651062282" lon="8.009430248553443"><ele>167.0</ele><time>2026-04-05T15:32:21.998Z</time></trkpt><trkpt lat="44.710831233038085" lon="8.009150240980423"><ele>168.66666666666666</ele><time>2026-04-05T15:32:22.998Z</time></trkpt><trkpt lat="44.71074757028467" lon="8.0088697006097"><ele>170.33333333333334</ele><time>2026-04-05T15:32:23.998Z</time></trkpt><trkpt lat="44.71066637198596" lon="8.0085908577147"><ele>172.0</ele><time>2026-04-05T15:32:24.998Z</time></trkpt><trkpt lat="44.71058328373237" lon="8.008312245888956"><ele>173.0</ele><time>2026-04-05T15:32:25.998Z</time></trkpt><trkpt lat="44.71050328095449" lon="8.008037976263482"><ele>174.0</ele><time>2026-04-05T15:32:26.998Z</time></trkpt><trkpt lat="44.71042370720369" lon="8.007767530727136"><ele>175.0</ele><time>2026-04-05T15:32:27.998Z</time></trkpt><trkpt lat="44.710343769302774" lon="8.007503444743769"><ele>173.0</ele><time>2026-04-05T15:32:28.998Z</time></trkpt><trkpt lat="44.710267128569086" lon="8.007252754496957"><ele>171.0</ele><time>2026-04-05T15:32:29.998Z</time></trkpt><trkpt lat="44.71019654538211" lon="8.00701908305073"><ele>169.0</ele><time>2026-04-05T15:32:30.998Z</time></trkpt><trkpt lat="44.71013076271465" lon="8.006793855121064"><ele>170.0</ele><time>2026-04-05T15:32:31.998Z</time></trkpt><trkpt lat="44.71007068228155" lon="8.006581838646298"><ele>171.0</ele><time>2026-04-05T15:32:32.998Z</time></trkpt><trkpt lat="44.71001047504115" lon="8.006375400037888"><ele>172.0</ele><time>2026-04-05T15:32:33.998Z</time></trkpt><trkpt lat="44.709949727379296" lon="8.006168476261161"><ele>172.0</ele><time>2026-04-05T15:32:34.998Z</time></trkpt><trkpt lat="44.709887244018134" lon="8.005967783511393"><ele>172.0</ele><time>2026-04-05T15:32:35.998Z</time></trkpt><trkpt lat="44.709829274033595" lon="8.005772686668866"><ele>172.0</ele><time>2026-04-05T15:32:36.998Z</time></trkpt><trkpt lat="44.70977090913" lon="8.005571471333464"><ele>173.66666666666669</ele><time>2026-04-05T15:32:37.998Z</time></trkpt><trkpt lat="44.70971359728793" lon="8.005367426886536"><ele>175.33333333333334</ele><time>2026-04-05T15:32:38.998Z</time></trkpt><trkpt lat="44.70965347487647" lon="8.005165318249508"><ele>177.0</ele><time>2026-04-05T15:32:39.998Z</time></trkpt><trkpt lat="44.70959688854535" lon="8.004966354046308"><ele>178.75</ele><time>2026-04-05T15:32:40.998Z</time></trkpt><trkpt lat="44.70954509865118" lon="8.004783482731312"><ele>180.5</ele><time>2026-04-05T15:32:41.998Z</time></trkpt><trkpt lat="44.70949157734481" lon="8.004603420207111"><ele>182.25</ele><time>2026-04-05T15:32:42.998Z</time></trkpt><trkpt lat="44.70944041967292" lon="8.004430145507957"><ele>184.0</ele><time>2026-04-05T15:32:43.998Z</time></trkpt><trkpt lat="44.7093888778619" lon="8.004258103053507"><ele>180.5</ele><time>2026-04-05T15:32:44.998Z</time></trkpt><trkpt lat="44.70934180857151" lon="8.004090462660832"><ele>177.0</ele><time>2026-04-05T15:32:45.998Z</time></trkpt><trkpt lat="44.709293695772466" lon="8.003931491844972"><ele>173.5</ele><time>2026-04-05T15:32:46.998Z</time></trkpt><trkpt lat="44.709246492530056" lon="8.003777228275489"><ele>170.0</ele><time>2026-04-05T15:32:47.999Z</time></trkpt><trkpt lat="44.709205797317594" lon="8.00363669651427"><ele>170.0</ele><time>2026-04-05T15:32:48.999Z</time></trkpt><trkpt lat="44.70916941359891" lon="8.003505624637839"><ele>170.0</ele><time>2026-04-05T15:32:49.999Z</time></trkpt><trkpt lat="44.709132759491986" lon="8.003386598112664"><ele>170.0</ele><time>2026-04-05T15:32:50.999Z</time></trkpt><trkpt lat="44.70909575680623" lon="8.003280724745665"><ele>170.0</ele><time>2026-04-05T15:32:51.999Z</time></trkpt><trkpt lat="44.70906196636662" lon="8.00318889913956"><ele>170.0</ele><time>2026-04-05T15:32:52.999Z</time></trkpt><trkpt lat="44.70903500528653" lon="8.003105008587198"><ele>170.0</ele><time>2026-04-05T15:32:53.999Z</time></trkpt><trkpt lat="44.70900010101308" lon="8.002965066117309"><ele>170.16666666666666</ele><time>2026-04-05T15:32:55.999Z</time></trkpt><trkpt lat="44.70896805515457" lon="8.002879777064111"><ele>170.33333333333331</ele><time>2026-04-05T15:32:58Z</time></trkpt><trkpt lat="44.708941823754884" lon="8.002797444921228"><ele>170.5</ele><time>2026-04-05T15:33:19.999Z</time></trkpt><trkpt lat="44.70891693992036" lon="8.002679633635243"><ele>170.66666666666666</ele><time>2026-04-05T15:34:39.999Z</time></trkpt><trkpt lat="44.70889061625758" lon="8.002578405752008"><ele>170.83333333333334</ele><time>2026-04-05T15:34:40.999Z</time></trkpt><trkpt lat="44.70885775747364" lon="8.002460902898187"><ele>171.0</ele><time>2026-04-05T15:34:41.999Z</time></trkpt><trkpt lat="44.70883643615565" lon="8.00235859655075"><ele>171.0</ele><time>2026-04-05T15:34:42.999Z</time></trkpt><trkpt lat="44.708829969331305" lon="8.002266563847721"><ele>171.0</ele><time>2026-04-05T15:34:43.998Z</time></trkpt><trkpt lat="44.708828045010755" lon="8.002177043409763"><ele>171.0</ele><time>2026-04-05T15:34:44.998Z</time></trkpt><trkpt lat="44.708858899878145" lon="8.002027290289412"><ele>171.0</ele><time>2026-04-05T15:34:46.998Z</time></trkpt><trkpt lat="44.708979279489405" lon="8.001957598255927"><ele>171.0</ele><time>2026-04-05T15:34:48.998Z</time></trkpt><trkpt lat="44.709034216279136" lon="8.001885643463279"><ele>171.0</ele><time>2026-04-05T15:34:49.998Z</time></trkpt><trkpt lat="44.709109891178855" lon="8.001835830635727"><ele>171.0</ele><time>2026-04-05T15:34:50.998Z</time></trkpt><trkpt lat="44.70919198401593" lon="8.0017670081339"><ele>171.0</ele><time>2026-04-05T15:34:51.998Z</time></trkpt><trkpt lat="44.70927261323971" lon="8.001676525803722"><ele>171.0</ele><time>2026-04-05T15:34:52.998Z</time></trkpt><trkpt lat="44.709367432191854" lon="8.001607827866222"><ele>171.0</ele><time>2026-04-05T15:34:54Z</time></trkpt><trkpt lat="44.7094554830026" lon="8.001515113105162"><ele>171.0</ele><time>2026-04-05T15:34:55Z</time></trkpt><trkpt lat="44.70951851367035" lon="8.001382428626725"><ele>172.0</ele><time>2026-04-05T15:34:56Z</time></trkpt><trkpt lat="44.70957735314744" lon="8.001234688681079"><ele>173.0</ele><time>2026-04-05T15:34:57Z</time></trkpt><trkpt lat="44.70963665886343" lon="8.001084282185708"><ele>174.0</ele><time>2026-04-05T15:34:58Z</time></trkpt><trkpt lat="44.70973146621079" lon="8.000965405770463"><ele>175.0</ele><time>2026-04-05T15:34:59Z</time></trkpt><trkpt lat="44.709833090524306" lon="8.00087485378752"><ele>175.25</ele><time>2026-04-05T15:35:00Z</time></trkpt><trkpt lat="44.70994580162967" lon="8.000777969821888"><ele>175.5</ele><time>2026-04-05T15:35:01Z</time></trkpt><trkpt lat="44.71006596002539" lon="8.000678027740472"><ele>175.75</ele><time>2026-04-05T15:35:02Z</time></trkpt><trkpt lat="44.710182374228125" lon="8.000543979325013"><ele>176.0</ele><time>2026-04-05T15:35:03Z</time></trkpt><trkpt lat="44.710309585042054" lon="8.000435848870264"><ele>176.0</ele><time>2026-04-05T15:35:04Z</time></trkpt><trkpt lat="44.71042748347962" lon="8.000319065459772"><ele>176.0</ele><time>2026-04-05T15:35:05Z</time></trkpt><trkpt lat="44.71056010772809" lon="8.000209707360725"><ele>176.0</ele><time>2026-04-05T15:35:06Z</time></trkpt><trkpt lat="44.71071541688438" lon="8.00014425776889"><ele>176.0</ele><time>2026-04-05T15:35:07Z</time></trkpt><trkpt lat="44.71087231928351" lon="8.000076888940367"><ele>176.0</ele><time>2026-04-05T15:35:08Z</time></trkpt><trkpt lat="44.711012945037616" lon="7.999986602186377"><ele>176.0</ele><time>2026-04-05T15:35:09Z</time></trkpt><trkpt lat="44.71114225844395" lon="7.999920859224475"><ele>180.0</ele><time>2026-04-05T15:35:10Z</time></trkpt><trkpt lat="44.711252057088274" lon="7.999827699311851"><ele>184.0</ele><time>2026-04-05T15:35:11Z</time></trkpt><trkpt lat="44.711355012595654" lon="7.999703089157051"><ele>188.0</ele><time>2026-04-05T15:35:12Z</time></trkpt><trkpt lat="44.711445664357385" lon="7.999533244500848"><ele>192.0</ele><time>2026-04-05T15:35:13Z</time></trkpt><trkpt lat="44.71152806393316" lon="7.999335060859858"><ele>188.66666666666666</ele><time>2026-04-05T15:35:14Z</time></trkpt><trkpt lat="44.71163278319643" lon="7.999137664216277"><ele>185.33333333333331</ele><time>2026-04-05T15:35:15Z</time></trkpt><trkpt lat="44.71172576092334" lon="7.998929007182278"><ele>182.0</ele><time>2026-04-05T15:35:16Z</time></trkpt><trkpt lat="44.71179927268423" lon="7.998706503564086"><ele>182.0</ele><time>2026-04-05T15:35:17Z</time></trkpt><trkpt lat="44.71185261966872" lon="7.998475142758561"><ele>182.0</ele><time>2026-04-05T15:35:18Z</time></trkpt><trkpt lat="44.71192214638234" lon="7.9982532254857475"><ele>182.0</ele><time>2026-04-05T15:35:19Z</time></trkpt><trkpt lat="44.711986339980214" lon="7.998030124411913"><ele>181.33333333333331</ele><time>2026-04-05T15:35:20Z</time></trkpt><trkpt lat="44.71206348231567" lon="7.99783318228142"><ele>180.66666666666666</ele><time>2026-04-05T15:35:21Z</time></trkpt><trkpt lat="44.71212570588848" lon="7.997647397356668"><ele>180.0</ele><time>2026-04-05T15:35:22Z</time></trkpt><trkpt lat="44.712200114835554" lon="7.99747055826211"><ele>180.0</ele><time>2026-04-05T15:35:23Z</time></trkpt><trkpt lat="44.71229378772543" lon="7.997289882071674"><ele>180.0</ele><time>2026-04-05T15:35:24Z</time></trkpt><trkpt lat="44.712382881359545" lon="7.997123531430656"><ele>180.0</ele><time>2026-04-05T15:35:25Z</time></trkpt><trkpt lat="44.71247343263277" lon="7.996974785786877"><ele>180.0</ele><time>2026-04-05T15:35:26Z</time></trkpt><trkpt lat="44.712564213681475" lon="7.996810277717175"><ele>180.0</ele><time>2026-04-05T15:35:27Z</time></trkpt><trkpt lat="44.71268203560512" lon="7.996670105674566"><ele>180.0</ele><time>2026-04-05T15:35:28Z</time></trkpt><trkpt lat="44.71283439449441" lon="7.9965827994465295"><ele>180.0</ele><time>2026-04-05T15:35:29Z</time></trkpt><trkpt lat="44.712981993859884" lon="7.9964669499388545"><ele>179.33333333333334</ele><time>2026-04-05T15:35:30Z</time></trkpt><trkpt lat="44.7131292780909" lon="7.996338348762598"><ele>178.66666666666669</ele><time>2026-04-05T15:35:31Z</time></trkpt><trkpt lat="44.71328482131932" lon="7.996221514722036"><ele>178.0</ele><time>2026-04-05T15:35:32Z</time></trkpt><trkpt lat="44.713443659795715" lon="7.9960952509618"><ele>178.33333333333334</ele><time>2026-04-05T15:35:33Z</time></trkpt><trkpt lat="44.713604524834054" lon="7.9959651449464655"><ele>178.66666666666666</ele><time>2026-04-05T15:35:34Z</time></trkpt><trkpt lat="44.713759570978745" lon="7.995847135507337"><ele>179.0</ele><time>2026-04-05T15:35:35Z</time></trkpt><trkpt lat="44.71389673244678" lon="7.995736028844196"><ele>179.0</ele><time>2026-04-05T15:35:36Z</time></trkpt><trkpt lat="44.71402568162123" lon="7.995614340804975"><ele>179.0</ele><time>2026-04-05T15:35:37Z</time></trkpt><trkpt lat="44.71413702234007" lon="7.995466777977267"><ele>179.0</ele><time>2026-04-05T15:35:38Z</time></trkpt><trkpt lat="44.714233140317866" lon="7.9952887604245495"><ele>179.0</ele><time>2026-04-05T15:35:39Z</time></trkpt><trkpt lat="44.71431461151572" lon="7.995101360727903"><ele>179.0</ele><time>2026-04-05T15:35:40Z</time></trkpt><trkpt lat="44.71438243480624" lon="7.994929883850168"><ele>179.0</ele><time>2026-04-05T15:35:41Z</time></trkpt><trkpt lat="44.714474252056334" lon="7.994805197675744"><ele>179.0</ele><time>2026-04-05T15:35:42Z</time></trkpt><trkpt lat="44.714567915684206" lon="7.994693302217043"><ele>179.5</ele><time>2026-04-05T15:35:43Z</time></trkpt><trkpt lat="44.71468011648505" lon="7.994609638186644"><ele>180.0</ele><time>2026-04-05T15:35:44Z</time></trkpt><trkpt lat="44.714804693887004" lon="7.9945632359999665"><ele>180.5</ele><time>2026-04-05T15:35:45Z</time></trkpt><trkpt lat="44.71494325964173" lon="7.994555639362197"><ele>181.0</ele><time>2026-04-05T15:35:46Z</time></trkpt><trkpt lat="44.71509210043364" lon="7.994569602413393"><ele>183.0</ele><time>2026-04-05T15:35:47Z</time></trkpt><trkpt lat="44.715244783946204" lon="7.994617179072658"><ele>185.0</ele><time>2026-04-05T15:35:48Z</time></trkpt><trkpt lat="44.71539914027589" lon="7.994665791806346"><ele>187.0</ele><time>2026-04-05T15:35:49Z</time></trkpt><trkpt lat="44.71553227358193" lon="7.994735061789941"><ele>187.0</ele><time>2026-04-05T15:35:50Z</time></trkpt><trkpt lat="44.715651858126826" lon="7.994793060788939"><ele>187.0</ele><time>2026-04-05T15:35:51Z</time></trkpt><trkpt lat="44.715756946380495" lon="7.994838188377789"><ele>187.0</ele><time>2026-04-05T15:35:52Z</time></trkpt><trkpt lat="44.71584924917023" lon="7.99485511502354"><ele>187.0</ele><time>2026-04-05T15:35:53Z</time></trkpt><trkpt lat="44.715926369483434" lon="7.994819398658338"><ele>187.0</ele><time>2026-04-05T15:35:54Z</time></trkpt><trkpt lat="44.71598825345699" lon="7.994731331315381"><ele>187.0</ele><time>2026-04-05T15:35:55Z</time></trkpt><trkpt lat="44.7160219040072" lon="7.994596083593111"><ele>187.0</ele><time>2026-04-05T15:35:56Z</time></trkpt><trkpt lat="44.71603844149935" lon="7.994421027796807"><ele>187.0</ele><time>2026-04-05T15:35:57Z</time></trkpt><trkpt lat="44.71606193489933" lon="7.9942275622304155"><ele>187.0</ele><time>2026-04-05T15:35:58Z</time></trkpt><trkpt lat="44.716128150572644" lon="7.994011313412387"><ele>189.66666666666669</ele><time>2026-04-05T15:35:58.999Z</time></trkpt><trkpt lat="44.71619044135455" lon="7.993804026168314"><ele>192.33333333333334</ele><time>2026-04-05T15:35:59.999Z</time></trkpt><trkpt lat="44.716277811628444" lon="7.993584586406315"><ele>195.0</ele><time>2026-04-05T15:36:00.999Z</time></trkpt><trkpt lat="44.716372163467184" lon="7.993360296231626"><ele>194.33333333333331</ele><time>2026-04-05T15:36:01.999Z</time></trkpt><trkpt lat="44.71645884882385" lon="7.9931508135702085"><ele>193.66666666666666</ele><time>2026-04-05T15:36:02.999Z</time></trkpt><trkpt lat="44.71653354241451" lon="7.992961162154006"><ele>193.0</ele><time>2026-04-05T15:36:03.999Z</time></trkpt><trkpt lat="44.71660393343831" lon="7.992787890265468"><ele>193.0</ele><time>2026-04-05T15:36:04.999Z</time></trkpt><trkpt lat="44.71666434715729" lon="7.992623886307361"><ele>193.0</ele><time>2026-04-05T15:36:05.999Z</time></trkpt><trkpt lat="44.716710542443636" lon="7.992443328857479"><ele>193.0</ele><time>2026-04-05T15:36:06.999Z</time></trkpt><trkpt lat="44.716730680707" lon="7.992242115012057"><ele>193.0</ele><time>2026-04-05T15:36:07.999Z</time></trkpt><trkpt lat="44.71673130509226" lon="7.992037541058885"><ele>192.5</ele><time>2026-04-05T15:36:08.999Z</time></trkpt><trkpt lat="44.71672391370495" lon="7.991822035991717"><ele>192.0</ele><time>2026-04-05T15:36:09.999Z</time></trkpt><trkpt lat="44.71670528420923" lon="7.991611040916532"><ele>191.5</ele><time>2026-04-05T15:36:10.999Z</time></trkpt><trkpt lat="44.71669189625238" lon="7.991415543011484"><ele>191.0</ele><time>2026-04-05T15:36:11.999Z</time></trkpt><trkpt lat="44.716685312295965" lon="7.991235061202077"><ele>191.0</ele><time>2026-04-05T15:36:12.999Z</time></trkpt><trkpt lat="44.71668178197366" lon="7.991068210671282"><ele>191.0</ele><time>2026-04-05T15:36:13.999Z</time></trkpt><trkpt lat="44.7166915730885" lon="7.990916776626827"><ele>191.0</ele><time>2026-04-05T15:36:14.999Z</time></trkpt><trkpt lat="44.716751927455334" lon="7.990779908066374"><ele>191.0</ele><time>2026-04-05T15:36:15.999Z</time></trkpt><trkpt lat="44.71682822698716" lon="7.990672919186759"><ele>191.0</ele><time>2026-04-05T15:36:16.999Z</time></trkpt><trkpt lat="44.7169095031046" lon="7.990571752532135"><ele>193.0</ele><time>2026-04-05T15:36:17.999Z</time></trkpt><trkpt lat="44.7169928832344" lon="7.9904547349786155"><ele>195.0</ele><time>2026-04-05T15:36:18.999Z</time></trkpt><trkpt lat="44.717098807296686" lon="7.990356349179394"><ele>197.0</ele><time>2026-04-05T15:36:19.999Z</time></trkpt><trkpt lat="44.71722282483821" lon="7.990282644717979"><ele>199.0</ele><time>2026-04-05T15:36:20.999Z</time></trkpt><trkpt lat="44.71734593872245" lon="7.99018488176522"><ele>199.0</ele><time>2026-04-05T15:36:21.999Z</time></trkpt><trkpt lat="44.71748546406737" lon="7.990112645028286"><ele>199.0</ele><time>2026-04-05T15:36:22.999Z</time></trkpt><trkpt lat="44.71762207209855" lon="7.990029093645257"><ele>199.0</ele><time>2026-04-05T15:36:23.999Z</time></trkpt><trkpt lat="44.71774470731317" lon="7.9899449129007625"><ele>199.0</ele><time>2026-04-05T15:36:24.999Z</time></trkpt><trkpt lat="44.71784749260673" lon="7.9898491567767715"><ele>199.75</ele><time>2026-04-05T15:36:25.999Z</time></trkpt><trkpt lat="44.71793520395486" lon="7.989714907100649"><ele>200.5</ele><time>2026-04-05T15:36:26.999Z</time></trkpt><trkpt lat="44.71801951414856" lon="7.989564008412426"><ele>201.25</ele><time>2026-04-05T15:36:27.999Z</time></trkpt><trkpt lat="44.71812255948736" lon="7.989431230664722"><ele>202.0</ele><time>2026-04-05T15:36:28.999Z</time></trkpt><trkpt lat="44.71819711024698" lon="7.989270007379462"><ele>201.25</ele><time>2026-04-05T15:36:29.999Z</time></trkpt><trkpt lat="44.7182644283196" lon="7.989099604941458"><ele>200.5</ele><time>2026-04-05T15:36:30.999Z</time></trkpt><trkpt lat="44.718313719235624" lon="7.988912439220423"><ele>199.75</ele><time>2026-04-05T15:36:31.999Z</time></trkpt><trkpt lat="44.71835893454876" lon="7.9887142845680374"><ele>199.0</ele><time>2026-04-05T15:36:32.999Z</time></trkpt><trkpt lat="44.71840695294696" lon="7.988531409837024"><ele>199.0</ele><time>2026-04-05T15:36:33.999Z</time></trkpt><trkpt lat="44.7184969005674" lon="7.98837729535625"><ele>199.0</ele><time>2026-04-05T15:36:34.999Z</time></trkpt><trkpt lat="44.71859698104647" lon="7.988235811584803"><ele>199.0</ele><time>2026-04-05T15:36:35.999Z</time></trkpt><trkpt lat="44.71870828205746" lon="7.988072953021567"><ele>199.0</ele><time>2026-04-05T15:36:36.999Z</time></trkpt><trkpt lat="44.71881496186783" lon="7.9878932375731555"><ele>201.0</ele><time>2026-04-05T15:36:37.999Z</time></trkpt><trkpt lat="44.71893660363992" lon="7.98771603351563"><ele>203.0</ele><time>2026-04-05T15:36:38.999Z</time></trkpt><trkpt lat="44.71905394879081" lon="7.987524375951488"><ele>205.0</ele><time>2026-04-05T15:36:39.999Z</time></trkpt><trkpt lat="44.71916535365727" lon="7.987328575489277"><ele>205.0</ele><time>2026-04-05T15:36:40.999Z</time></trkpt><trkpt lat="44.719270566419866" lon="7.987132929186305"><ele>205.0</ele><time>2026-04-05T15:36:41.999Z</time></trkpt><trkpt lat="44.719374350554936" lon="7.986943415532444"><ele>205.0</ele><time>2026-04-05T15:36:42.999Z</time></trkpt><trkpt lat="44.71947754022208" lon="7.986757730610847"><ele>206.66666666666666</ele><time>2026-04-05T15:36:43.999Z</time></trkpt><trkpt lat="44.71959806155403" lon="7.986579914743012"><ele>208.33333333333331</ele><time>2026-04-05T15:36:44.999Z</time></trkpt><trkpt lat="44.719679840029364" lon="7.986377543134513"><ele>210.0</ele><time>2026-04-05T15:36:45.999Z</time></trkpt><trkpt lat="44.719783490113905" lon="7.986191402495024"><ele>210.0</ele><time>2026-04-05T15:36:46.999Z</time></trkpt><trkpt lat="44.7198882825816" lon="7.986016026498199"><ele>210.0</ele><time>2026-04-05T15:36:47.999Z</time></trkpt><trkpt lat="44.71997935724351" lon="7.98585792418173"><ele>210.0</ele><time>2026-04-05T15:36:48.999Z</time></trkpt><trkpt lat="44.720062469599085" lon="7.9857018330626905"><ele>210.0</ele><time>2026-04-05T15:36:49.999Z</time></trkpt><trkpt lat="44.72013548641344" lon="7.985526345682597"><ele>210.66666666666669</ele><time>2026-04-05T15:36:50.999Z</time></trkpt><trkpt lat="44.7201922912324" lon="7.985331363663343"><ele>211.33333333333334</ele><time>2026-04-05T15:36:51.999Z</time></trkpt><trkpt lat="44.72024998398946" lon="7.985130323416034"><ele>212.0</ele><time>2026-04-05T15:36:52.999Z</time></trkpt><trkpt lat="44.72028602376001" lon="7.984898858160735"><ele>212.0</ele><time>2026-04-05T15:36:53.999Z</time></trkpt><trkpt lat="44.72033690479339" lon="7.984670711515185"><ele>212.0</ele><time>2026-04-05T15:36:54.999Z</time></trkpt><trkpt lat="44.72040002289052" lon="7.984459159468997"><ele>212.0</ele><time>2026-04-05T15:36:55.999Z</time></trkpt><trkpt lat="44.72045379042661" lon="7.984247623768993"><ele>211.33333333333334</ele><time>2026-04-05T15:36:56.999Z</time></trkpt><trkpt lat="44.72051330519703" lon="7.984039437952551"><ele>210.66666666666669</ele><time>2026-04-05T15:36:57.999Z</time></trkpt><trkpt lat="44.72059205017137" lon="7.983842065878289"><ele>210.0</ele><time>2026-04-05T15:36:58.999Z</time></trkpt><trkpt lat="44.7206799125493" lon="7.983647002546755"><ele>210.0</ele><time>2026-04-05T15:37:00Z</time></trkpt><trkpt lat="44.72076852863495" lon="7.983455292183508"><ele>210.0</ele><time>2026-04-05T15:37:01Z</time></trkpt><trkpt lat="44.720846678708284" lon="7.983251506568489"><ele>210.0</ele><time>2026-04-05T15:37:02Z</time></trkpt><trkpt lat="44.720932664769116" lon="7.983064016695192"><ele>209.0</ele><time>2026-04-05T15:37:03Z</time></trkpt><trkpt lat="44.721014428370886" lon="7.982879821986591"><ele>208.0</ele><time>2026-04-05T15:37:04Z</time></trkpt><trkpt lat="44.72109174383733" lon="7.982701335933132"><ele>207.0</ele><time>2026-04-05T15:37:05Z</time></trkpt><trkpt lat="44.72116408170781" lon="7.982515127480192"><ele>209.33333333333331</ele><time>2026-04-05T15:37:06Z</time></trkpt><trkpt lat="44.7212241674263" lon="7.982309920062908"><ele>211.66666666666666</ele><time>2026-04-05T15:37:07Z</time></trkpt><trkpt lat="44.72127306445726" lon="7.982097970112432"><ele>214.0</ele><time>2026-04-05T15:37:08Z</time></trkpt><trkpt lat="44.72131856405972" lon="7.981878497879003"><ele>213.66666666666666</ele><time>2026-04-05T15:37:09Z</time></trkpt><trkpt lat="44.721363170560586" lon="7.981658023310446"><ele>213.33333333333331</ele><time>2026-04-05T15:37:10Z</time></trkpt><trkpt lat="44.72141127947017" lon="7.9814422046201905"><ele>213.0</ele><time>2026-04-05T15:37:11Z</time></trkpt><trkpt lat="44.72145873491747" lon="7.981219179712042"><ele>213.0</ele><time>2026-04-05T15:37:12Z</time></trkpt><trkpt lat="44.7215051161292" lon="7.980993618968416"><ele>213.0</ele><time>2026-04-05T15:37:13Z</time></trkpt><trkpt lat="44.721538368920044" lon="7.980761743869592"><ele>213.0</ele><time>2026-04-05T15:37:14Z</time></trkpt><trkpt lat="44.72155428137571" lon="7.980520482142249"><ele>213.0</ele><time>2026-04-05T15:37:15Z</time></trkpt><trkpt lat="44.7215530567604" lon="7.980271640078148"><ele>213.0</ele><time>2026-04-05T15:37:16Z</time></trkpt><trkpt lat="44.72154377157515" lon="7.980013832700828"><ele>213.0</ele><time>2026-04-05T15:37:17Z</time></trkpt><trkpt lat="44.721541611236816" lon="7.97975670051513"><ele>213.0</ele><time>2026-04-05T15:37:18Z</time></trkpt><trkpt lat="44.72153644952477" lon="7.979475005635241"><ele>213.0</ele><time>2026-04-05T15:37:19Z</time></trkpt><trkpt lat="44.72152857503797" lon="7.9791940094045115"><ele>213.0</ele><time>2026-04-05T15:37:20Z</time></trkpt><trkpt lat="44.72152282244111" lon="7.978910058752562"><ele>212.66666666666669</ele><time>2026-04-05T15:37:21Z</time></trkpt><trkpt lat="44.72151962490269" lon="7.978625278462267"><ele>212.33333333333334</ele><time>2026-04-05T15:37:22Z</time></trkpt><trkpt lat="44.7215120869742" lon="7.978341248341285"><ele>212.0</ele><time>2026-04-05T15:37:23Z</time></trkpt><trkpt lat="44.72150606459084" lon="7.978052039047505"><ele>213.33333333333334</ele><time>2026-04-05T15:37:24Z</time></trkpt><trkpt lat="44.7214979847815" lon="7.9777652529537"><ele>214.66666666666669</ele><time>2026-04-05T15:37:25Z</time></trkpt><trkpt lat="44.721490405290886" lon="7.977489274875913"><ele>216.0</ele><time>2026-04-05T15:37:26Z</time></trkpt><trkpt lat="44.72148555938646" lon="7.977223071453375"><ele>218.0</ele><time>2026-04-05T15:37:27Z</time></trkpt><trkpt lat="44.72147966405019" lon="7.976965943043522"><ele>220.0</ele><time>2026-04-05T15:37:28Z</time></trkpt><trkpt lat="44.72147249279994" lon="7.976728615444051"><ele>222.0</ele><time>2026-04-05T15:37:29Z</time></trkpt><trkpt lat="44.72146162487796" lon="7.976506323161999"><ele>222.25</ele><time>2026-04-05T15:37:30Z</time></trkpt><trkpt lat="44.7214492153395" lon="7.976312196101699"><ele>222.5</ele><time>2026-04-05T15:37:31Z</time></trkpt><trkpt lat="44.721466810221685" lon="7.97614024359152"><ele>222.75</ele><time>2026-04-05T15:37:32Z</time></trkpt><trkpt lat="44.72148311800786" lon="7.97598035519825"><ele>223.0</ele><time>2026-04-05T15:37:33Z</time></trkpt><trkpt lat="44.721515841609886" lon="7.975817778663282"><ele>223.0</ele><time>2026-04-05T15:37:34Z</time></trkpt><trkpt lat="44.72157505687634" lon="7.975664854459073"><ele>223.0</ele><time>2026-04-05T15:37:35Z</time></trkpt><trkpt lat="44.721636262205465" lon="7.97554493794714"><ele>223.0</ele><time>2026-04-05T15:37:36Z</time></trkpt><trkpt lat="44.721703552749105" lon="7.975420655613778"><ele>223.0</ele><time>2026-04-05T15:37:37Z</time></trkpt><trkpt lat="44.72179068295291" lon="7.97530369374035"><ele>223.0</ele><time>2026-04-05T15:37:38Z</time></trkpt><trkpt lat="44.721885375781135" lon="7.975167771806708"><ele>223.0</ele><time>2026-04-05T15:37:39Z</time></trkpt><trkpt lat="44.72197704677789" lon="7.9750374430323445"><ele>223.0</ele><time>2026-04-05T15:37:40Z</time></trkpt><trkpt lat="44.72205427322223" lon="7.974916779743409"><ele>223.0</ele><time>2026-04-05T15:37:41Z</time></trkpt><trkpt lat="44.722131498366835" lon="7.974807620820726"><ele>224.75</ele><time>2026-04-05T15:37:42Z</time></trkpt><trkpt lat="44.72222179968438" lon="7.974695001580552"><ele>226.5</ele><time>2026-04-05T15:37:43Z</time></trkpt><trkpt lat="44.72233174861507" lon="7.974592769564651"><ele>228.25</ele><time>2026-04-05T15:37:44Z</time></trkpt><trkpt lat="44.72245566128713" lon="7.974492876826288"><ele>230.0</ele><time>2026-04-05T15:37:45Z</time></trkpt><trkpt lat="44.72258454882399" lon="7.974390648631709"><ele>230.0</ele><time>2026-04-05T15:37:46Z</time></trkpt><trkpt lat="44.7227202660256" lon="7.974275910323146"><ele>230.0</ele><time>2026-04-05T15:37:47Z</time></trkpt><trkpt lat="44.72285594062805" lon="7.974153883211768"><ele>230.0</ele><time>2026-04-05T15:37:48Z</time></trkpt><trkpt lat="44.72298540925448" lon="7.974017872535078"><ele>233.33333333333334</ele><time>2026-04-05T15:37:49Z</time></trkpt><trkpt lat="44.723106947174855" lon="7.97386456736719"><ele>236.66666666666669</ele><time>2026-04-05T15:37:50Z</time></trkpt><trkpt lat="44.72321921714316" lon="7.9736913038558"><ele>240.0</ele><time>2026-04-05T15:37:51Z</time></trkpt><trkpt lat="44.723328643719015" lon="7.973523638456115"><ele>240.0</ele><time>2026-04-05T15:37:52Z</time></trkpt><trkpt lat="44.72343291054548" lon="7.973367620443816"><ele>240.0</ele><time>2026-04-05T15:37:53Z</time></trkpt><trkpt lat="44.723520081792486" lon="7.973228085259815"><ele>240.0</ele><time>2026-04-05T15:37:54Z</time></trkpt><trkpt lat="44.72359112848627" lon="7.97310419638555"><ele>240.0</ele><time>2026-04-05T15:37:55Z</time></trkpt><trkpt lat="44.72364435183893" lon="7.97299091161597"><ele>239.5</ele><time>2026-04-05T15:37:56Z</time></trkpt><trkpt lat="44.7237142345661" lon="7.972884549738302"><ele>239.0</ele><time>2026-04-05T15:37:57Z</time></trkpt><trkpt lat="44.7238136915955" lon="7.9728159337044735"><ele>238.5</ele><time>2026-04-05T15:37:58Z</time></trkpt><trkpt lat="44.72392908436042" lon="7.9727621552837284"><ele>238.0</ele><time>2026-04-05T15:37:58.999Z</time></trkpt><trkpt lat="44.72406381480707" lon="7.972705461459121"><ele>238.0</ele><time>2026-04-05T15:37:59.999Z</time></trkpt><trkpt lat="44.72420993661174" lon="7.972635241893587"><ele>238.0</ele><time>2026-04-05T15:38:00.999Z</time></trkpt><trkpt lat="44.72437444125633" lon="7.972573374755578"><ele>238.0</ele><time>2026-04-05T15:38:01.999Z</time></trkpt><trkpt lat="44.724549194349315" lon="7.972497392204173"><ele>231.66666666666666</ele><time>2026-04-05T15:38:02.999Z</time></trkpt><trkpt lat="44.72472911777575" lon="7.972409758655421"><ele>225.33333333333331</ele><time>2026-04-05T15:38:03.999Z</time></trkpt><trkpt lat="44.72491111707485" lon="7.972313323921358"><ele>219.0</ele><time>2026-04-05T15:38:04.999Z</time></trkpt><trkpt lat="44.725088745900365" lon="7.9722048205656835"><ele>219.33333333333331</ele><time>2026-04-05T15:38:05.999Z</time></trkpt><trkpt lat="44.72526157114201" lon="7.972086534222746"><ele>219.66666666666666</ele><time>2026-04-05T15:38:06.999Z</time></trkpt><trkpt lat="44.72543284197486" lon="7.971960988844103"><ele>220.0</ele><time>2026-04-05T15:38:07.999Z</time></trkpt><trkpt lat="44.7256036848236" lon="7.971835914432929"><ele>220.0</ele><time>2026-04-05T15:38:08.999Z</time></trkpt><trkpt lat="44.72577249512994" lon="7.97170698999725"><ele>220.0</ele><time>2026-04-05T15:38:09.999Z</time></trkpt><trkpt lat="44.72593744136764" lon="7.971580673204417"><ele>220.0</ele><time>2026-04-05T15:38:10.999Z</time></trkpt><trkpt lat="44.72610126524173" lon="7.971457599664778"><ele>218.33333333333331</ele><time>2026-04-05T15:38:11.999Z</time></trkpt><trkpt lat="44.726263538553084" lon="7.971341639814157"><ele>216.66666666666669</ele><time>2026-04-05T15:38:12.999Z</time></trkpt><trkpt lat="44.726425076215186" lon="7.971222151482094"><ele>215.0</ele><time>2026-04-05T15:38:13.999Z</time></trkpt><trkpt lat="44.72658917851645" lon="7.971097543796286"><ele>215.0</ele><time>2026-04-05T15:38:14.999Z</time></trkpt><trkpt lat="44.72674978693844" lon="7.970976802099462"><ele>215.0</ele><time>2026-04-05T15:38:15.999Z</time></trkpt><trkpt lat="44.72690408414242" lon="7.97086331515755"><ele>215.0</ele><time>2026-04-05T15:38:16.999Z</time></trkpt><trkpt lat="44.72704791938114" lon="7.970755828085698"><ele>213.66666666666669</ele><time>2026-04-05T15:38:17.999Z</time></trkpt><trkpt lat="44.72718458929187" lon="7.970653008043381"><ele>212.33333333333331</ele><time>2026-04-05T15:38:18.999Z</time></trkpt><trkpt lat="44.72731564294137" lon="7.9705540500326375"><ele>211.0</ele><time>2026-04-05T15:38:19.999Z</time></trkpt><trkpt lat="44.72744331143679" lon="7.970453367651625"><ele>211.0</ele><time>2026-04-05T15:38:20.999Z</time></trkpt><trkpt lat="44.727569527645414" lon="7.970358329592508"><ele>211.0</ele><time>2026-04-05T15:38:21.999Z</time></trkpt><trkpt lat="44.72769226250464" lon="7.970270092311179"><ele>211.0</ele><time>2026-04-05T15:38:22.999Z</time></trkpt><trkpt lat="44.727808329521594" lon="7.9701809294162995"><ele>211.0</ele><time>2026-04-05T15:38:23.999Z</time></trkpt><trkpt lat="44.72792868306682" lon="7.970089490866426"><ele>209.5</ele><time>2026-04-05T15:38:24.999Z</time></trkpt><trkpt lat="44.728051904825975" lon="7.969980870563051"><ele>208.0</ele><time>2026-04-05T15:38:25.999Z</time></trkpt><trkpt lat="44.72818522074734" lon="7.9698710827610855"><ele>206.5</ele><time>2026-04-05T15:38:26.999Z</time></trkpt><trkpt lat="44.72830162381241" lon="7.969763165989787"><ele>205.0</ele><time>2026-04-05T15:38:27.999Z</time></trkpt><trkpt lat="44.7284114802968" lon="7.969665512837235"><ele>205.0</ele><time>2026-04-05T15:38:28.999Z</time></trkpt><trkpt lat="44.72851540454616" lon="7.969569347784933"><ele>205.0</ele><time>2026-04-05T15:38:29.999Z</time></trkpt><trkpt lat="44.72861154070631" lon="7.969474889264709"><ele>205.0</ele><time>2026-04-05T15:38:30.999Z</time></trkpt><trkpt lat="44.72870221187005" lon="7.9693895757027855"><ele>205.0</ele><time>2026-04-05T15:38:31.999Z</time></trkpt><trkpt lat="44.72878744657014" lon="7.969304176167086"><ele>204.8</ele><time>2026-04-05T15:38:32.999Z</time></trkpt><trkpt lat="44.72886073935689" lon="7.969211850536327"><ele>204.6</ele><time>2026-04-05T15:38:33.999Z</time></trkpt><trkpt lat="44.728917598671565" lon="7.969094847775415"><ele>204.39999999999998</ele><time>2026-04-05T15:38:34.999Z</time></trkpt><trkpt lat="44.72895309587845" lon="7.968960162062781"><ele>204.2</ele><time>2026-04-05T15:38:35.999Z</time></trkpt><trkpt lat="44.72897758894084" lon="7.968802798752127"><ele>204.0</ele><time>2026-04-05T15:38:36.999Z</time></trkpt><trkpt lat="44.728993263413" lon="7.96863967155824"><ele>204.0</ele><time>2026-04-05T15:38:37.999Z</time></trkpt><trkpt lat="44.72901809258004" lon="7.968492765411806"><ele>204.0</ele><time>2026-04-05T15:38:38.999Z</time></trkpt><trkpt lat="44.72904549010402" lon="7.968360653422871"><ele>204.0</ele><time>2026-04-05T15:38:39.999Z</time></trkpt><trkpt lat="44.729075557714886" lon="7.968236887127406"><ele>204.0</ele><time>2026-04-05T15:38:40.999Z</time></trkpt><trkpt lat="44.72910606424149" lon="7.96811220252534"><ele>204.0</ele><time>2026-04-05T15:38:41.999Z</time></trkpt><trkpt lat="44.72913789746158" lon="7.967998154394929"><ele>203.83333333333334</ele><time>2026-04-05T15:38:42.999Z</time></trkpt><trkpt lat="44.72917696146237" lon="7.967902491279791"><ele>203.66666666666669</ele><time>2026-04-05T15:38:43.999Z</time></trkpt><trkpt lat="44.72922783300385" lon="7.967817669871806"><ele>203.5</ele><time>2026-04-05T15:38:44.999Z</time></trkpt><trkpt lat="44.729289305125405" lon="7.967756397300069"><ele>203.33333333333334</ele><time>2026-04-05T15:38:45.999Z</time></trkpt><trkpt lat="44.729362465426576" lon="7.967720885235935"><ele>203.16666666666669</ele><time>2026-04-05T15:38:46.999Z</time></trkpt><trkpt lat="44.72945605731182" lon="7.9677187648137435"><ele>203.0</ele><time>2026-04-05T15:38:47.999Z</time></trkpt><trkpt lat="44.72954921013133" lon="7.96777288065218"><ele>202.75</ele><time>2026-04-05T15:38:48.999Z</time></trkpt><trkpt lat="44.729661988272646" lon="7.967812873431081"><ele>202.5</ele><time>2026-04-05T15:38:49.999Z</time></trkpt><trkpt lat="44.729778457574874" lon="7.967876626444115"><ele>202.25</ele><time>2026-04-05T15:38:50.999Z</time></trkpt><trkpt lat="44.72990738722084" lon="7.967947162322001"><ele>202.0</ele><time>2026-04-05T15:38:51.999Z</time></trkpt><trkpt lat="44.73004053883071" lon="7.968012068258228"><ele>202.0</ele><time>2026-04-05T15:38:52.999Z</time></trkpt><trkpt lat="44.73017026465481" lon="7.9680733667646075"><ele>202.0</ele><time>2026-04-05T15:38:53.999Z</time></trkpt><trkpt lat="44.730307431760245" lon="7.9681414806069615"><ele>202.0</ele><time>2026-04-05T15:38:54.999Z</time></trkpt><trkpt lat="44.73044888906233" lon="7.968212245077608"><ele>202.0</ele><time>2026-04-05T15:38:55.999Z</time></trkpt><trkpt lat="44.7305914041419" lon="7.968280352364339"><ele>202.5</ele><time>2026-04-05T15:38:56.999Z</time></trkpt><trkpt lat="44.73072403614129" lon="7.968353359179899"><ele>203.0</ele><time>2026-04-05T15:38:57.999Z</time></trkpt><trkpt lat="44.730845201170744" lon="7.968411158554948"><ele>203.5</ele><time>2026-04-05T15:38:58.999Z</time></trkpt><trkpt lat="44.730960597366135" lon="7.9684620974275004"><ele>204.0</ele><time>2026-04-05T15:38:59.999Z</time></trkpt><trkpt lat="44.7310741176279" lon="7.9684934807351215"><ele>203.0</ele><time>2026-04-05T15:39:00.999Z</time></trkpt><trkpt lat="44.731192284316904" lon="7.968500381618872"><ele>202.0</ele><time>2026-04-05T15:39:01.999Z</time></trkpt><trkpt lat="44.731307974280654" lon="7.968491013525367"><ele>201.0</ele><time>2026-04-05T15:39:02.999Z</time></trkpt><trkpt lat="44.73141694289383" lon="7.9684641017380375"><ele>200.0</ele><time>2026-04-05T15:39:03.999Z</time></trkpt><trkpt lat="44.73152147194457" lon="7.968406567934559"><ele>200.25</ele><time>2026-04-05T15:39:04.999Z</time></trkpt><trkpt lat="44.73161838861992" lon="7.968317037693625"><ele>200.5</ele><time>2026-04-05T15:39:06Z</time></trkpt><trkpt lat="44.7317054601595" lon="7.968206369677925"><ele>200.75</ele><time>2026-04-05T15:39:07Z</time></trkpt><trkpt lat="44.73178893909635" lon="7.968073665604072"><ele>201.0</ele><time>2026-04-05T15:39:08Z</time></trkpt><trkpt lat="44.731848105782575" lon="7.967898133227278"><ele>200.5</ele><time>2026-04-05T15:39:09Z</time></trkpt><trkpt lat="44.731903012730825" lon="7.967735110606617"><ele>200.0</ele><time>2026-04-05T15:39:10Z</time></trkpt><trkpt lat="44.731968268344204" lon="7.967560552071581"><ele>199.5</ele><time>2026-04-05T15:39:11Z</time></trkpt><trkpt lat="44.73203214248991" lon="7.967368657228269"><ele>199.0</ele><time>2026-04-05T15:39:12Z</time></trkpt><trkpt lat="44.73210442307147" lon="7.9671714588153115"><ele>199.0</ele><time>2026-04-05T15:39:13Z</time></trkpt><trkpt lat="44.73217722560465" lon="7.966970044692927"><ele>199.0</ele><time>2026-04-05T15:39:14Z</time></trkpt><trkpt lat="44.732243319893165" lon="7.966773058817978"><ele>199.0</ele><time>2026-04-05T15:39:15Z</time></trkpt><trkpt lat="44.73230289244797" lon="7.9665953422691524"><ele>199.6</ele><time>2026-04-05T15:39:16Z</time></trkpt><trkpt lat="44.73234821376067" lon="7.966463273393332"><ele>200.2</ele><time>2026-04-05T15:39:17Z</time></trkpt><trkpt lat="44.732382438873664" lon="7.9663740614358876"><ele>200.79999999999998</ele><time>2026-04-05T15:39:18Z</time></trkpt><trkpt lat="44.732460352791875" lon="7.966325812638733"><ele>201.39999999999998</ele><time>2026-04-05T15:39:20Z</time></trkpt><trkpt lat="44.73256059306645" lon="7.966441821673405"><ele>202.0</ele><time>2026-04-05T15:39:22Z</time></trkpt><trkpt lat="44.73262855449041" lon="7.966457902217562"><ele>202.0</ele><time>2026-04-05T15:39:23Z</time></trkpt><trkpt lat="44.73271065119945" lon="7.966507063743236"><ele>202.0</ele><time>2026-04-05T15:39:24Z</time></trkpt><trkpt lat="44.73281231906772" lon="7.96656282859958"><ele>202.0</ele><time>2026-04-05T15:39:25Z</time></trkpt><trkpt lat="44.732924420899316" lon="7.96662313527078"><ele>202.0</ele><time>2026-04-05T15:39:26Z</time></trkpt><trkpt lat="44.73303906933732" lon="7.966699092511302"><ele>202.0</ele><time>2026-04-05T15:39:27Z</time></trkpt><trkpt lat="44.733164987355224" lon="7.9667718948552615"><ele>201.75</ele><time>2026-04-05T15:39:28Z</time></trkpt><trkpt lat="44.733285743973596" lon="7.966845124062358"><ele>201.5</ele><time>2026-04-05T15:39:29Z</time></trkpt><trkpt lat="44.733406579926935" lon="7.966914207208693"><ele>201.25</ele><time>2026-04-05T15:39:30Z</time></trkpt><trkpt lat="44.73353518797712" lon="7.96698479974569"><ele>201.0</ele><time>2026-04-05T15:39:31Z</time></trkpt><trkpt lat="44.733667699670235" lon="7.967056726506979"><ele>201.0</ele><time>2026-04-05T15:39:32Z</time></trkpt><trkpt lat="44.733804844642115" lon="7.967134519362105"><ele>201.0</ele><time>2026-04-05T15:39:33Z</time></trkpt><trkpt lat="44.73393681189636" lon="7.967207550009218"><ele>201.0</ele><time>2026-04-05T15:39:34Z</time></trkpt><trkpt lat="44.73406448222512" lon="7.9672723732711175"><ele>201.0</ele><time>2026-04-05T15:39:35Z</time></trkpt><trkpt lat="44.73419107216358" lon="7.967337236385565"><ele>201.0</ele><time>2026-04-05T15:39:36Z</time></trkpt><trkpt lat="44.73431654741975" lon="7.967399808556197"><ele>201.0</ele><time>2026-04-05T15:39:37Z</time></trkpt><trkpt lat="44.734440989920266" lon="7.967451360653202"><ele>201.0</ele><time>2026-04-05T15:39:38Z</time></trkpt><trkpt lat="44.73455849801187" lon="7.967495103776875"><ele>201.0</ele><time>2026-04-05T15:39:39Z</time></trkpt><trkpt lat="44.73466286230047" lon="7.967533252418401"><ele>201.0</ele><time>2026-04-05T15:39:40Z</time></trkpt><trkpt lat="44.73475559597405" lon="7.9675559983801385"><ele>201.0</ele><time>2026-04-05T15:39:41Z</time></trkpt><trkpt lat="44.73483354371981" lon="7.967567484656437"><ele>201.0</ele><time>2026-04-05T15:39:42Z</time></trkpt><trkpt lat="44.73489759120284" lon="7.9675755312510965"><ele>201.0</ele><time>2026-04-05T15:39:43Z</time></trkpt><trkpt lat="44.735008457296416" lon="7.967615334393873"><ele>201.0</ele><time>2026-04-05T15:39:45Z</time></trkpt><trkpt lat="44.7350505523881" lon="7.967548913406305"><ele>201.0</ele><time>2026-04-05T15:39:46Z</time></trkpt><trkpt lat="44.73512620163094" lon="7.967471343317429"><ele>201.0</ele><time>2026-04-05T15:39:48Z</time></trkpt><trkpt lat="44.735143457031626" lon="7.967363752799454"><ele>201.0</ele><time>2026-04-05T15:39:49Z</time></trkpt><trkpt lat="44.735154239498364" lon="7.967237817625827"><ele>201.0</ele><time>2026-04-05T15:39:50Z</time></trkpt><trkpt lat="44.735175914296306" lon="7.967087698068541"><ele>201.0</ele><time>2026-04-05T15:39:51Z</time></trkpt><trkpt lat="44.73520226625399" lon="7.966923894235084"><ele>201.0</ele><time>2026-04-05T15:39:52Z</time></trkpt><trkpt lat="44.735224476491354" lon="7.966729220967372"><ele>204.0</ele><time>2026-04-05T15:39:53Z</time></trkpt><trkpt lat="44.73524778928258" lon="7.96653855708186"><ele>207.0</ele><time>2026-04-05T15:39:54Z</time></trkpt><trkpt lat="44.73525784227229" lon="7.966355108720784"><ele>210.0</ele><time>2026-04-05T15:39:55Z</time></trkpt><trkpt lat="44.735257541901895" lon="7.966150674363644"><ele>213.0</ele><time>2026-04-05T15:39:56Z</time></trkpt><trkpt lat="44.735259292602024" lon="7.965937606638856"><ele>214.33333333333331</ele><time>2026-04-05T15:39:57Z</time></trkpt><trkpt lat="44.73526313135883" lon="7.965722559326742"><ele>215.66666666666666</ele><time>2026-04-05T15:39:58Z</time></trkpt><trkpt lat="44.735267495324536" lon="7.965500230829385"><ele>217.0</ele><time>2026-04-05T15:39:59Z</time></trkpt><trkpt lat="44.73527104801677" lon="7.965279650016243"><ele>217.0</ele><time>2026-04-05T15:40:00Z</time></trkpt><trkpt lat="44.73527169305208" lon="7.9650590023250984"><ele>217.0</ele><time>2026-04-05T15:40:01Z</time></trkpt><trkpt lat="44.73528055541023" lon="7.964857333317939"><ele>217.0</ele><time>2026-04-05T15:40:02Z</time></trkpt><trkpt lat="44.73528724187518" lon="7.964664324049039"><ele>217.0</ele><time>2026-04-05T15:40:03Z</time></trkpt><trkpt lat="44.73529786876163" lon="7.964492188845456"><ele>216.8</ele><time>2026-04-05T15:40:04Z</time></trkpt><trkpt lat="44.73532486589612" lon="7.964341053647938"><ele>216.6</ele><time>2026-04-05T15:40:05Z</time></trkpt><trkpt lat="44.73534346247664" lon="7.964203223173936"><ele>216.40000000000003</ele><time>2026-04-05T15:40:06Z</time></trkpt><trkpt lat="44.735366673048325" lon="7.964061483283204"><ele>216.20000000000002</ele><time>2026-04-05T15:40:07Z</time></trkpt><trkpt lat="44.73538621542264" lon="7.963916782514348"><ele>216.0</ele><time>2026-04-05T15:40:07.999Z</time></trkpt><trkpt lat="44.73543357514828" lon="7.963764242090766"><ele>216.0</ele><time>2026-04-05T15:40:08.999Z</time></trkpt><trkpt lat="44.73547680165463" lon="7.963599930030295"><ele>216.00000000000003</ele><time>2026-04-05T15:40:09.999Z</time></trkpt><trkpt lat="44.7355272426735" lon="7.963457888909555"><ele>216.00000000000003</ele><time>2026-04-05T15:40:10.999Z</time></trkpt><trkpt lat="44.73556165319373" lon="7.963319760713856"><ele>216.0</ele><time>2026-04-05T15:40:11.999Z</time></trkpt><trkpt lat="44.73559094316683" lon="7.963177134870177"><ele>216.0</ele><time>2026-04-05T15:40:12.999Z</time></trkpt><trkpt lat="44.73560935041352" lon="7.963026063049198"><ele>214.5</ele><time>2026-04-05T15:40:13.999Z</time></trkpt><trkpt lat="44.735565289317975" lon="7.962850447813577"><ele>213.0</ele><time>2026-04-05T15:40:14.999Z</time></trkpt><trkpt lat="44.73555479857109" lon="7.962677975512159"><ele>211.5</ele><time>2026-04-05T15:40:15.999Z</time></trkpt><trkpt lat="44.73558329012567" lon="7.962516843240504"><ele>210.0</ele><time>2026-04-05T15:40:16.999Z</time></trkpt><trkpt lat="44.73560237707309" lon="7.962350185626746"><ele>209.75</ele><time>2026-04-05T15:40:17.999Z</time></trkpt><trkpt lat="44.73562032908849" lon="7.9621843696827375"><ele>209.5</ele><time>2026-04-05T15:40:18.999Z</time></trkpt><trkpt lat="44.735633082599" lon="7.962020200769246"><ele>209.25</ele><time>2026-04-05T15:40:19.999Z</time></trkpt><trkpt lat="44.735650863381174" lon="7.961867482878522"><ele>209.0</ele><time>2026-04-05T15:40:20.999Z</time></trkpt><trkpt lat="44.73566732173394" lon="7.961722144660866"><ele>209.0</ele><time>2026-04-05T15:40:21.999Z</time></trkpt><trkpt lat="44.73568176514949" lon="7.961584036880782"><ele>209.0</ele><time>2026-04-05T15:40:22.999Z</time></trkpt><trkpt lat="44.73569469312389" lon="7.961456102123153"><ele>209.0</ele><time>2026-04-05T15:40:23.999Z</time></trkpt><trkpt lat="44.73570519593267" lon="7.961331516815709"><ele>209.0</ele><time>2026-04-05T15:40:24.999Z</time></trkpt><trkpt lat="44.73571605380926" lon="7.961206603112071"><ele>209.0</ele><time>2026-04-05T15:40:25.999Z</time></trkpt><trkpt lat="44.735730714394826" lon="7.96108148157315"><ele>209.00000000000003</ele><time>2026-04-05T15:40:26.999Z</time></trkpt><trkpt lat="44.73574237422057" lon="7.960952262218864"><ele>209.0</ele><time>2026-04-05T15:40:27.999Z</time></trkpt><trkpt lat="44.7357547695316" lon="7.960824677719012"><ele>209.0</ele><time>2026-04-05T15:40:28.999Z</time></trkpt><trkpt lat="44.7357671864376" lon="7.960707054641234"><ele>209.0</ele><time>2026-04-05T15:40:29.999Z</time></trkpt><trkpt lat="44.73579697130411" lon="7.960596961968805"><ele>209.00000000000003</ele><time>2026-04-05T15:40:30.999Z</time></trkpt><trkpt lat="44.73581611770031" lon="7.960492038944191"><ele>209.0</ele><time>2026-04-05T15:40:31.999Z</time></trkpt><trkpt lat="44.735827686421175" lon="7.960394319099764"><ele>209.16666666666669</ele><time>2026-04-05T15:40:32.999Z</time></trkpt><trkpt lat="44.73587704502053" lon="7.96032417709735"><ele>209.33333333333334</ele><time>2026-04-05T15:40:33.999Z</time></trkpt><trkpt lat="44.73591837818776" lon="7.960251359004994"><ele>209.5</ele><time>2026-04-05T15:40:34.999Z</time></trkpt><trkpt lat="44.735967132747376" lon="7.960190737288539"><ele>209.66666666666669</ele><time>2026-04-05T15:40:35.999Z</time></trkpt><trkpt lat="44.736022689110136" lon="7.9601418236267625"><ele>209.83333333333334</ele><time>2026-04-05T15:40:36.999Z</time></trkpt><trkpt lat="44.73610964705749" lon="7.960030692584381"><ele>210.0</ele><time>2026-04-05T15:40:38.999Z</time></trkpt><trkpt lat="44.73612494899096" lon="7.959915535864486"><ele>210.16666666666666</ele><time>2026-04-05T15:40:39.999Z</time></trkpt><trkpt lat="44.736131680007006" lon="7.959809614363171"><ele>210.33333333333331</ele><time>2026-04-05T15:40:40.999Z</time></trkpt><trkpt lat="44.73614821265035" lon="7.959701892950569"><ele>210.5</ele><time>2026-04-05T15:40:41.999Z</time></trkpt><trkpt lat="44.736145060101784" lon="7.959573246200361"><ele>210.66666666666666</ele><time>2026-04-05T15:40:42.999Z</time></trkpt><trkpt lat="44.736134487255896" lon="7.959433289563067"><ele>210.83333333333331</ele><time>2026-04-05T15:40:43.999Z</time></trkpt><trkpt lat="44.73613736934501" lon="7.959301092844661"><ele>211.0</ele><time>2026-04-05T15:40:44.999Z</time></trkpt><trkpt lat="44.73613133731427" lon="7.9591588486792295"><ele>210.99999999999997</ele><time>2026-04-05T15:40:45.999Z</time></trkpt><trkpt lat="44.736107084621196" lon="7.959028047569038"><ele>211.0</ele><time>2026-04-05T15:40:46.999Z</time></trkpt><trkpt lat="44.73608756665544" lon="7.958902113917284"><ele>211.0</ele><time>2026-04-05T15:40:47.999Z</time></trkpt><trkpt lat="44.736066776099015" lon="7.958792085349222"><ele>211.0</ele><time>2026-04-05T15:40:48.999Z</time></trkpt><trkpt lat="44.73604215235764" lon="7.958681780256855"><ele>210.99999999999997</ele><time>2026-04-05T15:40:49.999Z</time></trkpt><trkpt lat="44.7360179228631" lon="7.95857523356112"><ele>211.0</ele><time>2026-04-05T15:40:50.999Z</time></trkpt><trkpt lat="44.73599576761425" lon="7.958454717655325"><ele>210.4</ele><time>2026-04-05T15:40:51.999Z</time></trkpt><trkpt lat="44.735977621363695" lon="7.958310951081317"><ele>209.8</ele><time>2026-04-05T15:40:52.999Z</time></trkpt><trkpt lat="44.73595339782587" lon="7.958152374087254"><ele>209.20000000000002</ele><time>2026-04-05T15:40:53.999Z</time></trkpt><trkpt lat="44.73590725818326" lon="7.9579951177216195"><ele>208.60000000000002</ele><time>2026-04-05T15:40:54.999Z</time></trkpt><trkpt lat="44.735880475029404" lon="7.95787491993107"><ele>208.0</ele><time>2026-04-05T15:40:55.999Z</time></trkpt><trkpt lat="44.735860329814656" lon="7.9577733598263585"><ele>208.0</ele><time>2026-04-05T15:40:56.999Z</time></trkpt><trkpt lat="44.73583835331418" lon="7.957662568087192"><ele>208.0</ele><time>2026-04-05T15:40:57.999Z</time></trkpt><trkpt lat="44.73582141877498" lon="7.957530882094452"><ele>208.0</ele><time>2026-04-05T15:40:58.999Z</time></trkpt><trkpt lat="44.7357940095117" lon="7.95741665856704"><ele>208.0</ele><time>2026-04-05T15:40:59.999Z</time></trkpt><trkpt lat="44.735768597175586" lon="7.9572747309701555"><ele>208.0</ele><time>2026-04-05T15:41:00.999Z</time></trkpt><trkpt lat="44.73575518083306" lon="7.957122474358783"><ele>208.25</ele><time>2026-04-05T15:41:01.999Z</time></trkpt><trkpt lat="44.735732762393305" lon="7.9569631752108325"><ele>208.5</ele><time>2026-04-05T15:41:02.999Z</time></trkpt><trkpt lat="44.73570317485682" lon="7.956805777916711"><ele>208.75</ele><time>2026-04-05T15:41:03.999Z</time></trkpt><trkpt lat="44.735673659221256" lon="7.956634538387701"><ele>209.0</ele><time>2026-04-05T15:41:04.999Z</time></trkpt><trkpt lat="44.73565094675561" lon="7.956469576417456"><ele>209.0</ele><time>2026-04-05T15:41:05.999Z</time></trkpt><trkpt lat="44.73564407733687" lon="7.9562709065305315"><ele>209.0</ele><time>2026-04-05T15:41:06.999Z</time></trkpt><trkpt lat="44.735635841551655" lon="7.956054000746671"><ele>209.0</ele><time>2026-04-05T15:41:07.999Z</time></trkpt><trkpt lat="44.73561180352421" lon="7.955827858116751"><ele>209.0</ele><time>2026-04-05T15:41:08.999Z</time></trkpt><trkpt lat="44.73558575834246" lon="7.955590488198536"><ele>209.0</ele><time>2026-04-05T15:41:09.999Z</time></trkpt><trkpt lat="44.73555742932761" lon="7.955336147844315"><ele>209.0</ele><time>2026-04-05T15:41:10.999Z</time></trkpt><trkpt lat="44.73552714133579" lon="7.955068344926022"><ele>209.0</ele><time>2026-04-05T15:41:12Z</time></trkpt><trkpt lat="44.73549479738889" lon="7.954785961335888"><ele>209.0</ele><time>2026-04-05T15:41:13Z</time></trkpt><trkpt lat="44.73546484475234" lon="7.9545052101139335"><ele>209.0</ele><time>2026-04-05T15:41:14Z</time></trkpt><trkpt lat="44.73543170149052" lon="7.954231246912733"><ele>209.66666666666669</ele><time>2026-04-05T15:41:15Z</time></trkpt><trkpt lat="44.73540075451694" lon="7.95395070803101"><ele>210.33333333333331</ele><time>2026-04-05T15:41:16Z</time></trkpt><trkpt lat="44.73536816134808" lon="7.953662875118335"><ele>211.0</ele><time>2026-04-05T15:41:17Z</time></trkpt><trkpt lat="44.735333673119165" lon="7.953368229370422"><ele>211.66666666666666</ele><time>2026-04-05T15:41:18Z</time></trkpt><trkpt lat="44.73530162457515" lon="7.953067611244725"><ele>212.33333333333331</ele><time>2026-04-05T15:41:19Z</time></trkpt><trkpt lat="44.73526920858545" lon="7.9527684918985795"><ele>213.0</ele><time>2026-04-05T15:41:20Z</time></trkpt><trkpt lat="44.73523718939512" lon="7.952486520677788"><ele>211.66666666666669</ele><time>2026-04-05T15:41:21Z</time></trkpt><trkpt lat="44.73520580347912" lon="7.95222582360609"><ele>210.33333333333334</ele><time>2026-04-05T15:41:22Z</time></trkpt><trkpt lat="44.73517552688432" lon="7.951973285816916"><ele>209.0</ele><time>2026-04-05T15:41:23Z</time></trkpt><trkpt lat="44.73514962940301" lon="7.951724448359348"><ele>209.33333333333334</ele><time>2026-04-05T15:41:24Z</time></trkpt><trkpt lat="44.73512168082047" lon="7.951475212300631"><ele>209.66666666666669</ele><time>2026-04-05T15:41:25Z</time></trkpt><trkpt lat="44.735093898134245" lon="7.9512228909411125"><ele>210.0</ele><time>2026-04-05T15:41:26Z</time></trkpt><trkpt lat="44.73506523763235" lon="7.950972032769994"><ele>210.0</ele><time>2026-04-05T15:41:27Z</time></trkpt><trkpt lat="44.73504086363601" lon="7.950732442514914"><ele>210.0</ele><time>2026-04-05T15:41:28Z</time></trkpt><trkpt lat="44.735017453425975" lon="7.950507033804258"><ele>210.0</ele><time>2026-04-05T15:41:29Z</time></trkpt><trkpt lat="44.73499533280413" lon="7.950296156066604"><ele>210.0</ele><time>2026-04-05T15:41:30Z</time></trkpt><trkpt lat="44.73497072476551" lon="7.950094103970346"><ele>210.0</ele><time>2026-04-05T15:41:31Z</time></trkpt><trkpt lat="44.73495385539145" lon="7.949905389133607"><ele>210.0</ele><time>2026-04-05T15:41:32Z</time></trkpt><trkpt lat="44.7349334106081" lon="7.94973753050922"><ele>210.0</ele><time>2026-04-05T15:41:33Z</time></trkpt><trkpt lat="44.73491682378696" lon="7.9495773789716"><ele>210.33333333333334</ele><time>2026-04-05T15:41:34Z</time></trkpt><trkpt lat="44.7349040714921" lon="7.949447307323876"><ele>210.66666666666669</ele><time>2026-04-05T15:41:35Z</time></trkpt><trkpt lat="44.73490493896955" lon="7.949338326979814"><ele>211.0</ele><time>2026-04-05T15:41:36Z</time></trkpt><trkpt lat="44.73492408010894" lon="7.94924401993106"><ele>211.33333333333334</ele><time>2026-04-05T15:41:37Z</time></trkpt><trkpt lat="44.73496266607238" lon="7.949150266380364"><ele>211.66666666666669</ele><time>2026-04-05T15:41:38Z</time></trkpt><trkpt lat="44.734984200791175" lon="7.949030796799553"><ele>212.0</ele><time>2026-04-05T15:41:39Z</time></trkpt><trkpt lat="44.73499001774778" lon="7.948893391141883"><ele>212.25</ele><time>2026-04-05T15:41:40Z</time></trkpt><trkpt lat="44.735019384487885" lon="7.94874366864251"><ele>212.5</ele><time>2026-04-05T15:41:41Z</time></trkpt><trkpt lat="44.73508079640828" lon="7.948595535913088"><ele>212.75</ele><time>2026-04-05T15:41:42Z</time></trkpt><trkpt lat="44.73516360220916" lon="7.948429690199756"><ele>213.0</ele><time>2026-04-05T15:41:43Z</time></trkpt><trkpt lat="44.735243747793305" lon="7.94824413191851"><ele>214.33333333333331</ele><time>2026-04-05T15:41:44Z</time></trkpt><trkpt lat="44.735331130337215" lon="7.9480437766990075"><ele>215.66666666666666</ele><time>2026-04-05T15:41:45Z</time></trkpt><trkpt lat="44.73541839808095" lon="7.947843273270305"><ele>217.0</ele><time>2026-04-05T15:41:46Z</time></trkpt><trkpt lat="44.73551290040594" lon="7.947623931333169"><ele>216.0</ele><time>2026-04-05T15:41:47Z</time></trkpt><trkpt lat="44.73561869856846" lon="7.947377260702152"><ele>215.0</ele><time>2026-04-05T15:41:48Z</time></trkpt><trkpt lat="44.735732048317054" lon="7.947113888794001"><ele>214.0</ele><time>2026-04-05T15:41:49Z</time></trkpt><trkpt lat="44.735846685571175" lon="7.946856507145493"><ele>214.0</ele><time>2026-04-05T15:41:50Z</time></trkpt><trkpt lat="44.73596115556078" lon="7.9466185243248475"><ele>214.0</ele><time>2026-04-05T15:41:51Z</time></trkpt><trkpt lat="44.736086820456045" lon="7.94638682566612"><ele>214.0</ele><time>2026-04-05T15:41:52Z</time></trkpt><trkpt lat="44.7362476139888" lon="7.946170650348144"><ele>218.5</ele><time>2026-04-05T15:41:52.999Z</time></trkpt><trkpt lat="44.736412913708676" lon="7.945947026941419"><ele>223.0</ele><time>2026-04-05T15:41:53.999Z</time></trkpt><trkpt lat="44.736582432639985" lon="7.945720945000229"><ele>223.0</ele><time>2026-04-05T15:41:54.999Z</time></trkpt><trkpt lat="44.73674274382058" lon="7.945508519575977"><ele>223.0</ele><time>2026-04-05T15:41:55.999Z</time></trkpt><trkpt lat="44.73689074071844" lon="7.94528872684342"><ele>223.0</ele><time>2026-04-05T15:41:56.999Z</time></trkpt><trkpt lat="44.73705438225897" lon="7.9450958053842475"><ele>223.33333333333331</ele><time>2026-04-05T15:41:57.999Z</time></trkpt><trkpt lat="44.73723003531967" lon="7.944919174603951"><ele>223.66666666666669</ele><time>2026-04-05T15:41:58.999Z</time></trkpt><trkpt lat="44.737425386668065" lon="7.94477858008835"><ele>224.0</ele><time>2026-04-05T15:41:59.999Z</time></trkpt><trkpt lat="44.73761905675055" lon="7.944619626112019"><ele>224.33333333333334</ele><time>2026-04-05T15:42:00.999Z</time></trkpt><trkpt lat="44.73780541495345" lon="7.944466673398684"><ele>224.66666666666669</ele><time>2026-04-05T15:42:01.999Z</time></trkpt><trkpt lat="44.737968440263835" lon="7.944306528431778"><ele>225.0</ele><time>2026-04-05T15:42:02.999Z</time></trkpt><trkpt lat="44.738138431760724" lon="7.944195531783731"><ele>223.66666666666669</ele><time>2026-04-05T15:42:03.999Z</time></trkpt><trkpt lat="44.73828827388909" lon="7.944086606923282"><ele>222.33333333333334</ele><time>2026-04-05T15:42:04.999Z</time></trkpt><trkpt lat="44.7384488548396" lon="7.944021428072012"><ele>221.0</ele><time>2026-04-05T15:42:05.999Z</time></trkpt><trkpt lat="44.73863302838858" lon="7.943994417945834"><ele>221.0</ele><time>2026-04-05T15:42:06.999Z</time></trkpt><trkpt lat="44.73882774749925" lon="7.943983217358419"><ele>221.0</ele><time>2026-04-05T15:42:07.999Z</time></trkpt><trkpt lat="44.73902158273976" lon="7.943954148183071"><ele>221.0</ele><time>2026-04-05T15:42:08.999Z</time></trkpt><trkpt lat="44.73919675771886" lon="7.943951295551116"><ele>221.0</ele><time>2026-04-05T15:42:09.999Z</time></trkpt><trkpt lat="44.73935601948888" lon="7.943919065885291"><ele>221.0</ele><time>2026-04-05T15:42:10.999Z</time></trkpt><trkpt lat="44.7395184782853" lon="7.943859567534107"><ele>221.0</ele><time>2026-04-05T15:42:11.999Z</time></trkpt><trkpt lat="44.73968081996345" lon="7.943767038821685"><ele>221.0</ele><time>2026-04-05T15:42:12.999Z</time></trkpt><trkpt lat="44.739839991008125" lon="7.943649595357417"><ele>221.0</ele><time>2026-04-05T15:42:13.999Z</time></trkpt><trkpt lat="44.74000695853225" lon="7.943497145819635"><ele>221.0</ele><time>2026-04-05T15:42:14.999Z</time></trkpt><trkpt lat="44.74018079251822" lon="7.943346862812213"><ele>221.66666666666669</ele><time>2026-04-05T15:42:15.999Z</time></trkpt><trkpt lat="44.74036207873989" lon="7.943184855157253"><ele>222.33333333333331</ele><time>2026-04-05T15:42:16.999Z</time></trkpt><trkpt lat="44.74054762252858" lon="7.943021014615143"><ele>223.0</ele><time>2026-04-05T15:42:17.999Z</time></trkpt><trkpt lat="44.74073576659756" lon="7.9428606761183405"><ele>223.0</ele><time>2026-04-05T15:42:18.999Z</time></trkpt><trkpt lat="44.7409234272266" lon="7.942740331571232"><ele>223.0</ele><time>2026-04-05T15:42:19.999Z</time></trkpt><trkpt lat="44.741091583919655" lon="7.942602072767661"><ele>223.0</ele><time>2026-04-05T15:42:20.999Z</time></trkpt><trkpt lat="44.74127392316632" lon="7.942489284160761"><ele>223.0</ele><time>2026-04-05T15:42:21.999Z</time></trkpt><trkpt lat="44.74145923212709" lon="7.942377566969447"><ele>223.0</ele><time>2026-04-05T15:42:22.999Z</time></trkpt><trkpt lat="44.741648895728595" lon="7.942263244990356"><ele>223.0</ele><time>2026-04-05T15:42:23.999Z</time></trkpt><trkpt lat="44.741841472692194" lon="7.942153108823266"><ele>225.0</ele><time>2026-04-05T15:42:24.999Z</time></trkpt><trkpt lat="44.74203310149724" lon="7.942034631800271"><ele>227.0</ele><time>2026-04-05T15:42:25.999Z</time></trkpt><trkpt lat="44.74222363773349" lon="7.941917226295437"><ele>229.0</ele><time>2026-04-05T15:42:26.999Z</time></trkpt><trkpt lat="44.74241380236616" lon="7.941802274016791"><ele>229.66666666666666</ele><time>2026-04-05T15:42:27.999Z</time></trkpt><trkpt lat="44.74260095356001" lon="7.941691931329532"><ele>230.33333333333331</ele><time>2026-04-05T15:42:28.999Z</time></trkpt><trkpt lat="44.74279107526493" lon="7.941577473197799"><ele>231.0</ele><time>2026-04-05T15:42:29.999Z</time></trkpt><trkpt lat="44.74298089481748" lon="7.941458475683129"><ele>231.0</ele><time>2026-04-05T15:42:30.999Z</time></trkpt><trkpt lat="44.74316991047271" lon="7.9413444974796015"><ele>231.0</ele><time>2026-04-05T15:42:31.999Z</time></trkpt><trkpt lat="44.7433603606776" lon="7.941240283167955"><ele>231.0</ele><time>2026-04-05T15:42:32.999Z</time></trkpt><trkpt lat="44.74355454209655" lon="7.941166732227743"><ele>234.33333333333331</ele><time>2026-04-05T15:42:33.999Z</time></trkpt><trkpt lat="44.743734529056866" lon="7.941075729596392"><ele>237.66666666666666</ele><time>2026-04-05T15:42:34.999Z</time></trkpt><trkpt lat="44.74390738741358" lon="7.9410048329200436"><ele>241.0</ele><time>2026-04-05T15:42:35.999Z</time></trkpt><trkpt lat="44.744080930471725" lon="7.940940364662992"><ele>240.0</ele><time>2026-04-05T15:42:36.999Z</time></trkpt><trkpt lat="44.74426197974082" lon="7.940871588565045"><ele>239.0</ele><time>2026-04-05T15:42:37.999Z</time></trkpt><trkpt lat="44.744442883389496" lon="7.9407985965879035"><ele>238.0</ele><time>2026-04-05T15:42:38.999Z</time></trkpt><trkpt lat="44.74462203334636" lon="7.940730220886907"><ele>238.0</ele><time>2026-04-05T15:42:39.999Z</time></trkpt><trkpt lat="44.7448014545938" lon="7.940647964799665"><ele>238.0</ele><time>2026-04-05T15:42:40.999Z</time></trkpt><trkpt lat="44.74498755733844" lon="7.9405579674444"><ele>238.0</ele><time>2026-04-05T15:42:41.999Z</time></trkpt><trkpt lat="44.74516333721858" lon="7.940452841986882"><ele>240.0</ele><time>2026-04-05T15:42:42.999Z</time></trkpt><trkpt lat="44.74533434989599" lon="7.940326717673954"><ele>242.0</ele><time>2026-04-05T15:42:43.999Z</time></trkpt><trkpt lat="44.74550708188281" lon="7.940193935695534"><ele>244.0</ele><time>2026-04-05T15:42:44.999Z</time></trkpt><trkpt lat="44.745678432602226" lon="7.940063728603732"><ele>244.33333333333331</ele><time>2026-04-05T15:42:45.999Z</time></trkpt><trkpt lat="44.74584633374555" lon="7.93993827231841"><ele>244.66666666666669</ele><time>2026-04-05T15:42:46.999Z</time></trkpt><trkpt lat="44.746009038381395" lon="7.939817922553651"><ele>245.0</ele><time>2026-04-05T15:42:47.999Z</time></trkpt><trkpt lat="44.7461675039096" lon="7.939691826901853"><ele>245.0</ele><time>2026-04-05T15:42:48.999Z</time></trkpt><trkpt lat="44.74632921355938" lon="7.9395695936857775"><ele>245.0</ele><time>2026-04-05T15:42:49.999Z</time></trkpt><trkpt lat="44.746486158532164" lon="7.93945149854008"><ele>245.0</ele><time>2026-04-05T15:42:50.999Z</time></trkpt><trkpt lat="44.74663470682348" lon="7.939339591620456"><ele>245.0</ele><time>2026-04-05T15:42:51.999Z</time></trkpt><trkpt lat="44.74677157142159" lon="7.939238073556544"><ele>245.0</ele><time>2026-04-05T15:42:52.999Z</time></trkpt><trkpt lat="44.7469148636168" lon="7.939172566193724"><ele>245.0</ele><time>2026-04-05T15:42:53.999Z</time></trkpt><trkpt lat="44.747062459318805" lon="7.939104319769773"><ele>242.0</ele><time>2026-04-05T15:42:54.999Z</time></trkpt><trkpt lat="44.747219917842344" lon="7.9390430854693514"><ele>239.0</ele><time>2026-04-05T15:42:55.999Z</time></trkpt><trkpt lat="44.747385431938966" lon="7.938991501554222"><ele>236.0</ele><time>2026-04-05T15:42:56.999Z</time></trkpt><trkpt lat="44.74754543294474" lon="7.938930110052913"><ele>236.0</ele><time>2026-04-05T15:42:57.999Z</time></trkpt><trkpt lat="44.74769619253724" lon="7.938893624077527"><ele>236.0</ele><time>2026-04-05T15:42:58.999Z</time></trkpt><trkpt lat="44.74784254389488" lon="7.938853492695419"><ele>236.0</ele><time>2026-04-05T15:42:59.999Z</time></trkpt><trkpt lat="44.747993184944114" lon="7.938812005690222"><ele>238.66666666666669</ele><time>2026-04-05T15:43:00.998Z</time></trkpt><trkpt lat="44.74814794899704" lon="7.938769157742549"><ele>241.33333333333331</ele><time>2026-04-05T15:43:01.998Z</time></trkpt><trkpt lat="44.74829828608995" lon="7.938729449243512"><ele>244.0</ele><time>2026-04-05T15:43:02.998Z</time></trkpt><trkpt lat="44.74844233137532" lon="7.9387075759325745"><ele>244.0</ele><time>2026-04-05T15:43:03.998Z</time></trkpt><trkpt lat="44.7485877867324" lon="7.93872024785821"><ele>244.0</ele><time>2026-04-05T15:43:04.998Z</time></trkpt><trkpt lat="44.74873492277041" lon="7.938739524675451"><ele>244.0</ele><time>2026-04-05T15:43:05.998Z</time></trkpt><trkpt lat="44.74888335228386" lon="7.938771977143068"><ele>244.0</ele><time>2026-04-05T15:43:06.998Z</time></trkpt><trkpt lat="44.74902448565159" lon="7.9388479216063566"><ele>244.0</ele><time>2026-04-05T15:43:07.998Z</time></trkpt><trkpt lat="44.749163352633744" lon="7.9389505394051945"><ele>244.0</ele><time>2026-04-05T15:43:08.998Z</time></trkpt><trkpt lat="44.749300617027664" lon="7.939075239437071"><ele>244.0</ele><time>2026-04-05T15:43:09.998Z</time></trkpt><trkpt lat="44.749439467138124" lon="7.939203266636325"><ele>243.66666666666666</ele><time>2026-04-05T15:43:10.998Z</time></trkpt><trkpt lat="44.74957907354594" lon="7.9393173223858176"><ele>243.33333333333331</ele><time>2026-04-05T15:43:11.998Z</time></trkpt><trkpt lat="44.74972071719661" lon="7.939403009636658"><ele>243.0</ele><time>2026-04-05T15:43:12.998Z</time></trkpt><trkpt lat="44.749867216792175" lon="7.939458903690263"><ele>243.0</ele><time>2026-04-05T15:43:13.998Z</time></trkpt><trkpt lat="44.75001942943462" lon="7.939492377438708"><ele>243.0</ele><time>2026-04-05T15:43:14.998Z</time></trkpt><trkpt lat="44.750169895806174" lon="7.9395063535839565"><ele>243.0</ele><time>2026-04-05T15:43:15.998Z</time></trkpt><trkpt lat="44.750316868343084" lon="7.939493825652367"><ele>243.66666666666669</ele><time>2026-04-05T15:43:16.998Z</time></trkpt><trkpt lat="44.75047096729411" lon="7.939465259783853"><ele>244.33333333333334</ele><time>2026-04-05T15:43:18Z</time></trkpt><trkpt lat="44.750608286090056" lon="7.93938619934358"><ele>245.0</ele><time>2026-04-05T15:43:19Z</time></trkpt><trkpt lat="44.750736443694606" lon="7.939272600556019"><ele>245.33333333333334</ele><time>2026-04-05T15:43:20Z</time></trkpt><trkpt lat="44.75087850209666" lon="7.939145278587449"><ele>245.66666666666669</ele><time>2026-04-05T15:43:21Z</time></trkpt><trkpt lat="44.751022239104465" lon="7.939025855982139"><ele>246.0</ele><time>2026-04-05T15:43:22Z</time></trkpt><trkpt lat="44.75115249715328" lon="7.938910934446944"><ele>246.0</ele><time>2026-04-05T15:43:23Z</time></trkpt><trkpt lat="44.75126682845726" lon="7.938782618786885"><ele>246.0</ele><time>2026-04-05T15:43:24Z</time></trkpt><trkpt lat="44.7513687027579" lon="7.93862522580706"><ele>246.0</ele><time>2026-04-05T15:43:25Z</time></trkpt><trkpt lat="44.75146173234881" lon="7.938444055634242"><ele>245.0</ele><time>2026-04-05T15:43:26Z</time></trkpt><trkpt lat="44.751541379033924" lon="7.93823611752386"><ele>244.0</ele><time>2026-04-05T15:43:27Z</time></trkpt><trkpt lat="44.75161193413345" lon="7.938021294988144"><ele>243.0</ele><time>2026-04-05T15:43:28Z</time></trkpt><trkpt lat="44.75167399016264" lon="7.937804407718012"><ele>243.0</ele><time>2026-04-05T15:43:29Z</time></trkpt><trkpt lat="44.75173652828675" lon="7.937605554785422"><ele>243.0</ele><time>2026-04-05T15:43:30Z</time></trkpt><trkpt lat="44.75179952102297" lon="7.93741598579558"><ele>243.0</ele><time>2026-04-05T15:43:31Z</time></trkpt><trkpt lat="44.751866933968614" lon="7.937224742065415"><ele>244.0</ele><time>2026-04-05T15:43:32Z</time></trkpt><trkpt lat="44.75193062384795" lon="7.937056553091428"><ele>245.0</ele><time>2026-04-05T15:43:33Z</time></trkpt><trkpt lat="44.7519969793933" lon="7.936882367695908"><ele>246.0</ele><time>2026-04-05T15:43:34Z</time></trkpt><trkpt lat="44.75207515032576" lon="7.936720789562836"><ele>247.0</ele><time>2026-04-05T15:43:35Z</time></trkpt><trkpt lat="44.75218607093521" lon="7.936617395920913"><ele>247.25</ele><time>2026-04-05T15:43:36Z</time></trkpt><trkpt lat="44.752301435469136" lon="7.9365361148535545"><ele>247.5</ele><time>2026-04-05T15:43:37Z</time></trkpt><trkpt lat="44.75243251168731" lon="7.936490430038083"><ele>247.75</ele><time>2026-04-05T15:43:38Z</time></trkpt><trkpt lat="44.752575975477306" lon="7.936466216794459"><ele>248.0</ele><time>2026-04-05T15:43:39Z</time></trkpt><trkpt lat="44.75273750374277" lon="7.936410683408323"><ele>249.66666666666669</ele><time>2026-04-05T15:43:40Z</time></trkpt><trkpt lat="44.752902037055804" lon="7.93639520184364"><ele>251.33333333333331</ele><time>2026-04-05T15:43:41Z</time></trkpt><trkpt lat="44.753053550803145" lon="7.936374329803966"><ele>253.0</ele><time>2026-04-05T15:43:42Z</time></trkpt><trkpt lat="44.75320114986532" lon="7.93635216448403"><ele>253.0</ele><time>2026-04-05T15:43:43Z</time></trkpt><trkpt lat="44.75335093928799" lon="7.936346256682749"><ele>253.0</ele><time>2026-04-05T15:43:44Z</time></trkpt><trkpt lat="44.75349462159794" lon="7.936400643725047"><ele>253.0</ele><time>2026-04-05T15:43:45Z</time></trkpt><trkpt lat="44.7536381581247" lon="7.936419802580944"><ele>253.0</ele><time>2026-04-05T15:43:46Z</time></trkpt><trkpt lat="44.75378153586134" lon="7.936419799011017"><ele>252.75</ele><time>2026-04-05T15:43:47Z</time></trkpt><trkpt lat="44.75392534736182" lon="7.936449999205736"><ele>252.5</ele><time>2026-04-05T15:43:48Z</time></trkpt><trkpt lat="44.75406833985975" lon="7.936471383029684"><ele>252.25</ele><time>2026-04-05T15:43:49Z</time></trkpt><trkpt lat="44.754209443989225" lon="7.936485633997834"><ele>252.0</ele><time>2026-04-05T15:43:50Z</time></trkpt><trkpt lat="44.75435065981522" lon="7.936481151737014"><ele>252.0</ele><time>2026-04-05T15:43:51Z</time></trkpt><trkpt lat="44.75449478399799" lon="7.936453914960116"><ele>252.0</ele><time>2026-04-05T15:43:52Z</time></trkpt><trkpt lat="44.75464268683509" lon="7.936402185189235"><ele>252.0</ele><time>2026-04-05T15:43:53Z</time></trkpt><trkpt lat="44.754796473263966" lon="7.936353670906435"><ele>252.0</ele><time>2026-04-05T15:43:54Z</time></trkpt><trkpt lat="44.754956369294206" lon="7.936326555258985"><ele>252.0</ele><time>2026-04-05T15:43:55Z</time></trkpt><trkpt lat="44.75510742635958" lon="7.936262656686564"><ele>252.0</ele><time>2026-04-05T15:43:56Z</time></trkpt><trkpt lat="44.755257757677974" lon="7.936218754837175"><ele>254.33333333333331</ele><time>2026-04-05T15:43:57Z</time></trkpt><trkpt lat="44.75540790995978" lon="7.936179414966434"><ele>256.66666666666663</ele><time>2026-04-05T15:43:58Z</time></trkpt><trkpt lat="44.755557466377944" lon="7.936143430483063"><ele>259.0</ele><time>2026-04-05T15:43:59Z</time></trkpt><trkpt lat="44.75570911273911" lon="7.936127430314042"><ele>259.0</ele><time>2026-04-05T15:44:00Z</time></trkpt><trkpt lat="44.755862166361425" lon="7.936133981894962"><ele>259.0</ele><time>2026-04-05T15:44:01Z</time></trkpt><trkpt lat="44.756013444026486" lon="7.936156195620477"><ele>259.0</ele><time>2026-04-05T15:44:02Z</time></trkpt><trkpt lat="44.756163573612255" lon="7.936188410447133"><ele>259.5</ele><time>2026-04-05T15:44:03Z</time></trkpt><trkpt lat="44.75631466771791" lon="7.93622304090934"><ele>260.0</ele><time>2026-04-05T15:44:04Z</time></trkpt><trkpt lat="44.75645668802416" lon="7.936246145423146"><ele>260.5</ele><time>2026-04-05T15:44:05Z</time></trkpt><trkpt lat="44.756593380600044" lon="7.936248364992306"><ele>261.0</ele><time>2026-04-05T15:44:06Z</time></trkpt><trkpt lat="44.756732486005745" lon="7.936233655672334"><ele>260.75</ele><time>2026-04-05T15:44:07Z</time></trkpt><trkpt lat="44.75687229905692" lon="7.9362081989543825"><ele>260.5</ele><time>2026-04-05T15:44:08Z</time></trkpt><trkpt lat="44.757007656439974" lon="7.936201719267786"><ele>260.25</ele><time>2026-04-05T15:44:09Z</time></trkpt><trkpt lat="44.75714155371621" lon="7.936234642681706"><ele>260.0</ele><time>2026-04-05T15:44:10Z</time></trkpt><trkpt lat="44.757263958598024" lon="7.936307328921691"><ele>260.0</ele><time>2026-04-05T15:44:11Z</time></trkpt><trkpt lat="44.757381012107274" lon="7.936416465716374"><ele>260.0</ele><time>2026-04-05T15:44:12Z</time></trkpt><trkpt lat="44.75748968517767" lon="7.9365714620683265"><ele>260.0</ele><time>2026-04-05T15:44:13Z</time></trkpt><trkpt lat="44.75759748595319" lon="7.936757316348239"><ele>261.6666666666667</ele><time>2026-04-05T15:44:14Z</time></trkpt><trkpt lat="44.757711340663235" lon="7.936948921022115"><ele>263.3333333333333</ele><time>2026-04-05T15:44:15Z</time></trkpt><trkpt lat="44.757813872917794" lon="7.937130790011699"><ele>265.0</ele><time>2026-04-05T15:44:15.999Z</time></trkpt><trkpt lat="44.757909356761566" lon="7.937294217389867"><ele>265.0</ele><time>2026-04-05T15:44:16.999Z</time></trkpt><trkpt lat="44.75800368174756" lon="7.937447831400975"><ele>265.0</ele><time>2026-04-05T15:44:17.999Z</time></trkpt><trkpt lat="44.75809892140228" lon="7.93759511485588"><ele>265.0</ele><time>2026-04-05T15:44:18.999Z</time></trkpt><trkpt lat="44.758192913193184" lon="7.937744355163746"><ele>265.0</ele><time>2026-04-05T15:44:19.999Z</time></trkpt><trkpt lat="44.75828615653576" lon="7.937898792157686"><ele>266.25</ele><time>2026-04-05T15:44:20.999Z</time></trkpt><trkpt lat="44.75837890686267" lon="7.93805166407084"><ele>267.5</ele><time>2026-04-05T15:44:21.999Z</time></trkpt><trkpt lat="44.75846851941513" lon="7.938195631939498"><ele>268.75</ele><time>2026-04-05T15:44:22.999Z</time></trkpt><trkpt lat="44.75857672159871" lon="7.938312315295154"><ele>270.0</ele><time>2026-04-05T15:44:23.999Z</time></trkpt><trkpt lat="44.7587023146405" lon="7.9384006140679135"><ele>272.5</ele><time>2026-04-05T15:44:24.999Z</time></trkpt><trkpt lat="44.75884662567242" lon="7.938442684176567"><ele>275.0</ele><time>2026-04-05T15:44:25.999Z</time></trkpt><trkpt lat="44.7589929791084" lon="7.938467656112912"><ele>277.5</ele><time>2026-04-05T15:44:26.999Z</time></trkpt><trkpt lat="44.75914217005313" lon="7.938486974841359"><ele>280.0</ele><time>2026-04-05T15:44:27.999Z</time></trkpt><trkpt lat="44.75927739020942" lon="7.938512072009238"><ele>277.5</ele><time>2026-04-05T15:44:28.999Z</time></trkpt><trkpt lat="44.75941000764369" lon="7.938535361126649"><ele>275.0</ele><time>2026-04-05T15:44:29.999Z</time></trkpt><trkpt lat="44.75953930479526" lon="7.938550958637549"><ele>272.5</ele><time>2026-04-05T15:44:30.999Z</time></trkpt><trkpt lat="44.759683297102214" lon="7.938548796760168"><ele>270.0</ele><time>2026-04-05T15:44:31.999Z</time></trkpt><trkpt lat="44.7598010771829" lon="7.938546698572705"><ele>270.0</ele><time>2026-04-05T15:44:32.999Z</time></trkpt><trkpt lat="44.75991369463217" lon="7.938509536284556"><ele>270.0</ele><time>2026-04-05T15:44:33.999Z</time></trkpt><trkpt lat="44.76004756909138" lon="7.938432736391394"><ele>270.0</ele><time>2026-04-05T15:44:34.999Z</time></trkpt><trkpt lat="44.76018458592904" lon="7.938347100737266"><ele>270.0</ele><time>2026-04-05T15:44:35.999Z</time></trkpt><trkpt lat="44.760328144671604" lon="7.9382608605198595"><ele>268.5</ele><time>2026-04-05T15:44:36.999Z</time></trkpt><trkpt lat="44.76046115625569" lon="7.938178080216533"><ele>267.0</ele><time>2026-04-05T15:44:37.999Z</time></trkpt><trkpt lat="44.76058636726782" lon="7.938091225222403"><ele>265.5</ele><time>2026-04-05T15:44:38.999Z</time></trkpt><trkpt lat="44.76070863332681" lon="7.938001862532937"><ele>264.0</ele><time>2026-04-05T15:44:39.999Z</time></trkpt><trkpt lat="44.76082641493406" lon="7.937909626204732"><ele>264.0</ele><time>2026-04-05T15:44:40.999Z</time></trkpt><trkpt lat="44.7609376250859" lon="7.937814519451187"><ele>264.0</ele><time>2026-04-05T15:44:41.999Z</time></trkpt><trkpt lat="44.761047013572565" lon="7.9377127754399694"><ele>264.0</ele><time>2026-04-05T15:44:42.999Z</time></trkpt><trkpt lat="44.761157295082306" lon="7.9376053115729786"><ele>264.0</ele><time>2026-04-05T15:44:43.999Z</time></trkpt><trkpt lat="44.7612677283081" lon="7.937502319399358"><ele>263.25</ele><time>2026-04-05T15:44:44.999Z</time></trkpt><trkpt lat="44.76137357202008" lon="7.93740900111198"><ele>262.5</ele><time>2026-04-05T15:44:45.999Z</time></trkpt><trkpt lat="44.761474656840036" lon="7.937336732399448"><ele>261.75</ele><time>2026-04-05T15:44:46.999Z</time></trkpt><trkpt lat="44.761579967116525" lon="7.937291659501481"><ele>261.0</ele><time>2026-04-05T15:44:47.999Z</time></trkpt><trkpt lat="44.76168709923656" lon="7.9372783527652215"><ele>261.0</ele><time>2026-04-05T15:44:48.999Z</time></trkpt><trkpt lat="44.761795693210736" lon="7.937283392773903"><ele>261.0</ele><time>2026-04-05T15:44:49.999Z</time></trkpt><trkpt lat="44.76190889898003" lon="7.93729939567292"><ele>261.0</ele><time>2026-04-05T15:44:50.999Z</time></trkpt><trkpt lat="44.76201277486368" lon="7.937310289768065"><ele>261.0</ele><time>2026-04-05T15:44:51.999Z</time></trkpt><trkpt lat="44.76212855415394" lon="7.93728183623514"><ele>261.0</ele><time>2026-04-05T15:44:52.999Z</time></trkpt><trkpt lat="44.7622262428192" lon="7.937234458768298"><ele>260.2</ele><time>2026-04-05T15:44:53.999Z</time></trkpt><trkpt lat="44.76230381848336" lon="7.9371930312608585"><ele>259.40000000000003</ele><time>2026-04-05T15:44:54.999Z</time></trkpt><trkpt lat="44.76237071881522" lon="7.937158053759745"><ele>258.6</ele><time>2026-04-05T15:44:55.999Z</time></trkpt><trkpt lat="44.762459136554476" lon="7.937071239058612"><ele>257.8</ele><time>2026-04-05T15:44:57.999Z</time></trkpt><trkpt lat="44.76245026103662" lon="7.93692849413834"><ele>257.0</ele><time>2026-04-05T15:44:59.999Z</time></trkpt><trkpt lat="44.76234360393392" lon="7.9368250645299465"><ele>257.0</ele><time>2026-04-05T15:45:01.999Z</time></trkpt><trkpt lat="44.76229119549882" lon="7.936750256986003"><ele>257.0</ele><time>2026-04-05T15:45:02.999Z</time></trkpt><trkpt lat="44.762270863684364" lon="7.9366115419247"><ele>257.0</ele><time>2026-04-05T15:45:03.999Z</time></trkpt><trkpt lat="44.76226551317208" lon="7.936462883024131"><ele>257.0</ele><time>2026-04-05T15:45:04.999Z</time></trkpt><trkpt lat="44.76226308512736" lon="7.936283547130383"><ele>257.0</ele><time>2026-04-05T15:45:05.999Z</time></trkpt><trkpt lat="44.76226690378704" lon="7.936079417540998"><ele>258.33333333333337</ele><time>2026-04-05T15:45:06.999Z</time></trkpt><trkpt lat="44.76227041672481" lon="7.935859303162886"><ele>259.6666666666667</ele><time>2026-04-05T15:45:07.999Z</time></trkpt><trkpt lat="44.76227575176613" lon="7.935644568531495"><ele>261.0</ele><time>2026-04-05T15:45:08.999Z</time></trkpt><trkpt lat="44.76228327480964" lon="7.93542203681132"><ele>261.0</ele><time>2026-04-05T15:45:09.999Z</time></trkpt><trkpt lat="44.76228803467287" lon="7.935186766541784"><ele>261.0</ele><time>2026-04-05T15:45:10.999Z</time></trkpt><trkpt lat="44.76229428705552" lon="7.9349480798279535"><ele>261.0</ele><time>2026-04-05T15:45:11.999Z</time></trkpt><trkpt lat="44.76230607131233" lon="7.934726539789268"><ele>262.3333333333333</ele><time>2026-04-05T15:45:12.999Z</time></trkpt><trkpt lat="44.76231957052852" lon="7.934521795750315"><ele>263.66666666666663</ele><time>2026-04-05T15:45:13.999Z</time></trkpt><trkpt lat="44.76234429253265" lon="7.934312506681938"><ele>265.0</ele><time>2026-04-05T15:45:14.999Z</time></trkpt><trkpt lat="44.76240305070884" lon="7.934113684934926"><ele>266.3333333333333</ele><time>2026-04-05T15:45:15.999Z</time></trkpt><trkpt lat="44.76248593109683" lon="7.933911416996093"><ele>267.6666666666667</ele><time>2026-04-05T15:45:16.999Z</time></trkpt><trkpt lat="44.76258975637263" lon="7.933708143802532"><ele>269.0</ele><time>2026-04-05T15:45:17.999Z</time></trkpt><trkpt lat="44.76269673463571" lon="7.933511524453699"><ele>269.25</ele><time>2026-04-05T15:45:18.999Z</time></trkpt><trkpt lat="44.76279268266411" lon="7.933324765929613"><ele>269.5</ele><time>2026-04-05T15:45:19.999Z</time></trkpt><trkpt lat="44.76286745514841" lon="7.9331618627662115"><ele>269.75</ele><time>2026-04-05T15:45:20.999Z</time></trkpt><trkpt lat="44.762917241160295" lon="7.933011161338915"><ele>270.0</ele><time>2026-04-05T15:45:21.999Z</time></trkpt><trkpt lat="44.76294449832106" lon="7.93284492982545"><ele>270.0</ele><time>2026-04-05T15:45:22.999Z</time></trkpt><trkpt lat="44.76294162183754" lon="7.932658518903827"><ele>270.0</ele><time>2026-04-05T15:45:24Z</time></trkpt><trkpt lat="44.762921936495836" lon="7.932470013654915"><ele>270.0</ele><time>2026-04-05T15:45:25Z</time></trkpt><trkpt lat="44.76292171511923" lon="7.932292683127999"><ele>270.0</ele><time>2026-04-05T15:45:26Z</time></trkpt><trkpt lat="44.76295134320483" lon="7.932117162159988"><ele>271.0</ele><time>2026-04-05T15:45:27Z</time></trkpt><trkpt lat="44.76300160895374" lon="7.931929563354167"><ele>272.0</ele><time>2026-04-05T15:45:28Z</time></trkpt><trkpt lat="44.763067783950085" lon="7.931733557551887"><ele>273.0</ele><time>2026-04-05T15:45:29Z</time></trkpt><trkpt lat="44.76315762328064" lon="7.9315294078073295"><ele>275.6666666666667</ele><time>2026-04-05T15:45:30Z</time></trkpt><trkpt lat="44.76325044298695" lon="7.931317623401205"><ele>278.33333333333337</ele><time>2026-04-05T15:45:31Z</time></trkpt><trkpt lat="44.763329606189075" lon="7.931117542198488"><ele>281.0</ele><time>2026-04-05T15:45:32Z</time></trkpt><trkpt lat="44.76340248193048" lon="7.930952064612819"><ele>283.0</ele><time>2026-04-05T15:45:33Z</time></trkpt><trkpt lat="44.76347746624578" lon="7.930795783464275"><ele>285.0</ele><time>2026-04-05T15:45:34Z</time></trkpt><trkpt lat="44.76357725753062" lon="7.930648591912571"><ele>287.0</ele><time>2026-04-05T15:45:35Z</time></trkpt><trkpt lat="44.763705281036145" lon="7.930522733268911"><ele>289.0</ele><time>2026-04-05T15:45:36Z</time></trkpt><trkpt lat="44.763849873370525" lon="7.930425122028234"><ele>289.0</ele><time>2026-04-05T15:45:37Z</time></trkpt><trkpt lat="44.764008891437946" lon="7.930363659036399"><ele>289.0</ele><time>2026-04-05T15:45:38Z</time></trkpt><trkpt lat="44.76417995628034" lon="7.930314137727697"><ele>289.0</ele><time>2026-04-05T15:45:39Z</time></trkpt><trkpt lat="44.764356068714754" lon="7.9302654535683255"><ele>291.0</ele><time>2026-04-05T15:45:40Z</time></trkpt><trkpt lat="44.7645332370441" lon="7.930207799912628"><ele>293.0</ele><time>2026-04-05T15:45:41Z</time></trkpt><trkpt lat="44.764715264645545" lon="7.930141081654811"><ele>295.0</ele><time>2026-04-05T15:45:42Z</time></trkpt><trkpt lat="44.76489652052764" lon="7.93007394628912"><ele>298.0</ele><time>2026-04-05T15:45:43Z</time></trkpt><trkpt lat="44.765063504124825" lon="7.930018049641554"><ele>301.0</ele><time>2026-04-05T15:45:44Z</time></trkpt><trkpt lat="44.765213554197736" lon="7.929979794373312"><ele>304.0</ele><time>2026-04-05T15:45:45Z</time></trkpt><trkpt lat="44.76537039056522" lon="7.9299584983919384"><ele>307.3333333333333</ele><time>2026-04-05T15:45:46Z</time></trkpt><trkpt lat="44.76553395411889" lon="7.9299634852311085"><ele>310.6666666666667</ele><time>2026-04-05T15:45:47Z</time></trkpt><trkpt lat="44.765695076649095" lon="7.929990513432418"><ele>314.0</ele><time>2026-04-05T15:45:48Z</time></trkpt><trkpt lat="44.765849797784455" lon="7.930042639767852"><ele>314.75</ele><time>2026-04-05T15:45:49Z</time></trkpt><trkpt lat="44.76598542039996" lon="7.930103720167996"><ele>315.5</ele><time>2026-04-05T15:45:50Z</time></trkpt><trkpt lat="44.76609090152449" lon="7.930191346856652"><ele>316.25</ele><time>2026-04-05T15:45:51Z</time></trkpt><trkpt lat="44.766174684558415" lon="7.93030961321455"><ele>317.0</ele><time>2026-04-05T15:45:52Z</time></trkpt><trkpt lat="44.76624670438059" lon="7.93042879276067"><ele>317.0</ele><time>2026-04-05T15:45:53Z</time></trkpt><trkpt lat="44.76631211870268" lon="7.930509360245889"><ele>317.0</ele><time>2026-04-05T15:45:54Z</time></trkpt><trkpt lat="44.766396057252145" lon="7.930542449210177"><ele>317.0</ele><time>2026-04-05T15:45:55Z</time></trkpt><trkpt lat="44.76649730260474" lon="7.930526744323724"><ele>317.0</ele><time>2026-04-05T15:45:56Z</time></trkpt><trkpt lat="44.76658836502835" lon="7.930452606744368"><ele>317.0</ele><time>2026-04-05T15:45:57Z</time></trkpt><trkpt lat="44.76664822102375" lon="7.9303369382959685"><ele>317.0</ele><time>2026-04-05T15:45:58Z</time></trkpt><trkpt lat="44.766657390407076" lon="7.930228679453239"><ele>317.0</ele><time>2026-04-05T15:45:59Z</time></trkpt><trkpt lat="44.766641525489696" lon="7.9300872518711785"><ele>317.0</ele><time>2026-04-05T15:46:00Z</time></trkpt><trkpt lat="44.76659578239373" lon="7.929950663462443"><ele>317.0</ele><time>2026-04-05T15:46:01Z</time></trkpt><trkpt lat="44.766509137259476" lon="7.929816868257386"><ele>317.0</ele><time>2026-04-05T15:46:02Z</time></trkpt><trkpt lat="44.76642299531647" lon="7.929674006619148"><ele>317.5</ele><time>2026-04-05T15:46:03Z</time></trkpt><trkpt lat="44.766349183761356" lon="7.929523438686129"><ele>318.0</ele><time>2026-04-05T15:46:04Z</time></trkpt><trkpt lat="44.76629350413952" lon="7.92936058714609"><ele>318.5</ele><time>2026-04-05T15:46:05Z</time></trkpt><trkpt lat="44.76627327102392" lon="7.929197572209724"><ele>319.0</ele><time>2026-04-05T15:46:06Z</time></trkpt><trkpt lat="44.7662878005031" lon="7.929053215863712"><ele>321.75</ele><time>2026-04-05T15:46:07Z</time></trkpt><trkpt lat="44.76632920695448" lon="7.928905621869542"><ele>324.5</ele><time>2026-04-05T15:46:08Z</time></trkpt><trkpt lat="44.766393385583825" lon="7.928743312749849"><ele>327.25</ele><time>2026-04-05T15:46:09Z</time></trkpt><trkpt lat="44.76646999721416" lon="7.928568817018199"><ele>330.0</ele><time>2026-04-05T15:46:10Z</time></trkpt><trkpt lat="44.76654354343076" lon="7.928398773312231"><ele>331.75</ele><time>2026-04-05T15:46:11Z</time></trkpt><trkpt lat="44.76662174790796" lon="7.928247300122439"><ele>333.5</ele><time>2026-04-05T15:46:12Z</time></trkpt><trkpt lat="44.76670126048211" lon="7.9280998846140385"><ele>335.25</ele><time>2026-04-05T15:46:13Z</time></trkpt><trkpt lat="44.76677942471883" lon="7.927964386020798"><ele>337.0</ele><time>2026-04-05T15:46:14Z</time></trkpt><trkpt lat="44.76685932108317" lon="7.927832168198064"><ele>338.6</ele><time>2026-04-05T15:46:15Z</time></trkpt><trkpt lat="44.76693224366694" lon="7.927701520177936"><ele>340.20000000000005</ele><time>2026-04-05T15:46:16Z</time></trkpt><trkpt lat="44.76700387552358" lon="7.927567564562502"><ele>341.8</ele><time>2026-04-05T15:46:17Z</time></trkpt><trkpt lat="44.76706879638041" lon="7.927455758009638"><ele>343.4</ele><time>2026-04-05T15:46:18Z</time></trkpt><trkpt lat="44.767120327250396" lon="7.927358177987184"><ele>345.0</ele><time>2026-04-05T15:46:18.999Z</time></trkpt><trkpt lat="44.76717107677744" lon="7.927295414367508"><ele>347.1666666666667</ele><time>2026-04-05T15:46:19.999Z</time></trkpt><trkpt lat="44.76721947833137" lon="7.927237273971527"><ele>349.3333333333333</ele><time>2026-04-05T15:46:20.999Z</time></trkpt><trkpt lat="44.767267291849684" lon="7.927155365690324"><ele>351.5</ele><time>2026-04-05T15:46:21.999Z</time></trkpt><trkpt lat="44.767309279340395" lon="7.927074487720964"><ele>353.66666666666663</ele><time>2026-04-05T15:46:22.999Z</time></trkpt><trkpt lat="44.7673444744599" lon="7.926996870783588"><ele>355.8333333333333</ele><time>2026-04-05T15:46:23.999Z</time></trkpt><trkpt lat="44.767408740083546" lon="7.9268572997414175"><ele>358.0</ele><time>2026-04-05T15:46:25.999Z</time></trkpt><trkpt lat="44.767427674626596" lon="7.926720981508346"><ele>358.0</ele><time>2026-04-05T15:46:27.999Z</time></trkpt><trkpt lat="44.767457240298675" lon="7.926639296123772"><ele>358.0</ele><time>2026-04-05T15:46:28.999Z</time></trkpt><trkpt lat="44.76749733881349" lon="7.926544985199927"><ele>358.0</ele><time>2026-04-05T15:46:29.999Z</time></trkpt><trkpt lat="44.767545334873674" lon="7.926446148588623"><ele>358.0</ele><time>2026-04-05T15:46:30.999Z</time></trkpt><trkpt lat="44.76759589352736" lon="7.92634526882046"><ele>358.0</ele><time>2026-04-05T15:46:31.999Z</time></trkpt><trkpt lat="44.76765958167535" lon="7.92625592631406"><ele>358.0</ele><time>2026-04-05T15:46:32.999Z</time></trkpt><trkpt lat="44.767728924362586" lon="7.926186041326192"><ele>360.0</ele><time>2026-04-05T15:46:33.999Z</time></trkpt><trkpt lat="44.767802269847465" lon="7.926128518516962"><ele>362.0</ele><time>2026-04-05T15:46:34.999Z</time></trkpt><trkpt lat="44.767883082658614" lon="7.926105749783252"><ele>364.0</ele><time>2026-04-05T15:46:35.999Z</time></trkpt><trkpt lat="44.76796627031483" lon="7.926109864606068"><ele>366.0</ele><time>2026-04-05T15:46:36.999Z</time></trkpt><trkpt lat="44.76805270953675" lon="7.92612367194162"><ele>368.0</ele><time>2026-04-05T15:46:37.999Z</time></trkpt><trkpt lat="44.76814773054639" lon="7.926175449081993"><ele>370.0</ele><time>2026-04-05T15:46:38.999Z</time></trkpt><trkpt lat="44.76822108936146" lon="7.926147718001757"><ele>370.0</ele><time>2026-04-05T15:46:39.999Z</time></trkpt><trkpt lat="44.768282718199714" lon="7.926126640759431"><ele>370.0</ele><time>2026-04-05T15:46:40.999Z</time></trkpt><trkpt lat="44.768339163377554" lon="7.926074819452494"><ele>370.0</ele><time>2026-04-05T15:46:41.999Z</time></trkpt><trkpt lat="44.768376243611684" lon="7.926002671790716"><ele>370.0</ele><time>2026-04-05T15:46:42.999Z</time></trkpt><trkpt lat="44.76840961613925" lon="7.925899333186013"><ele>370.0</ele><time>2026-04-05T15:46:43.999Z</time></trkpt><trkpt lat="44.76843606492985" lon="7.925776169947602"><ele>370.0</ele><time>2026-04-05T15:46:44.999Z</time></trkpt><trkpt lat="44.76847081061647" lon="7.925651211566112"><ele>369.0</ele><time>2026-04-05T15:46:45.999Z</time></trkpt><trkpt lat="44.76850904711786" lon="7.925517769218402"><ele>368.0</ele><time>2026-04-05T15:46:46.999Z</time></trkpt><trkpt lat="44.76853415967589" lon="7.9253769340676765"><ele>367.0</ele><time>2026-04-05T15:46:47.999Z</time></trkpt><trkpt lat="44.76856264666339" lon="7.925228625841165"><ele>366.0</ele><time>2026-04-05T15:46:48.999Z</time></trkpt><trkpt lat="44.76860040243251" lon="7.925087972923923"><ele>365.0</ele><time>2026-04-05T15:46:49.999Z</time></trkpt><trkpt lat="44.76865902488956" lon="7.9249614011063665"><ele>367.8</ele><time>2026-04-05T15:46:50.999Z</time></trkpt><trkpt lat="44.768710315405094" lon="7.9248249624883425"><ele>370.6</ele><time>2026-04-05T15:46:51.999Z</time></trkpt><trkpt lat="44.76874400979105" lon="7.924681383925961"><ele>373.4</ele><time>2026-04-05T15:46:52.999Z</time></trkpt><trkpt lat="44.768778785418945" lon="7.924540853073177"><ele>376.2</ele><time>2026-04-05T15:46:53.999Z</time></trkpt><trkpt lat="44.768812020568355" lon="7.92441140687312"><ele>379.0</ele><time>2026-04-05T15:46:54.999Z</time></trkpt><trkpt lat="44.76884962168383" lon="7.924271653773699"><ele>378.4</ele><time>2026-04-05T15:46:55.999Z</time></trkpt><trkpt lat="44.76887907455851" lon="7.924121481334629"><ele>377.79999999999995</ele><time>2026-04-05T15:46:56.999Z</time></trkpt><trkpt lat="44.768901774103554" lon="7.9239748048068295"><ele>377.20000000000005</ele><time>2026-04-05T15:46:57.999Z</time></trkpt><trkpt lat="44.76891568168617" lon="7.923817941814403"><ele>376.6</ele><time>2026-04-05T15:46:58.999Z</time></trkpt><trkpt lat="44.7689473125528" lon="7.923667616792743"><ele>376.0</ele><time>2026-04-05T15:46:59.999Z</time></trkpt><trkpt lat="44.76900013162944" lon="7.923538719429273"><ele>376.0</ele><time>2026-04-05T15:47:00.999Z</time></trkpt><trkpt lat="44.76904756923161" lon="7.923423116302077"><ele>376.0</ele><time>2026-04-05T15:47:01.999Z</time></trkpt><trkpt lat="44.76909427632739" lon="7.923345007024304"><ele>376.0</ele><time>2026-04-05T15:47:02.999Z</time></trkpt><trkpt lat="44.769143181017824" lon="7.923265792568043"><ele>376.0</ele><time>2026-04-05T15:47:03.999Z</time></trkpt><trkpt lat="44.76917926597893" lon="7.923185134612785"><ele>376.0</ele><time>2026-04-05T15:47:04.999Z</time></trkpt><trkpt lat="44.76917823606518" lon="7.922996451492942"><ele>376.0</ele><time>2026-04-05T15:47:06.999Z</time></trkpt><trkpt lat="44.76917235081131" lon="7.922882529869203"><ele>375.5</ele><time>2026-04-05T15:47:07.999Z</time></trkpt><trkpt lat="44.76916583770806" lon="7.92277157817046"><ele>375.0</ele><time>2026-04-05T15:47:08.999Z</time></trkpt><trkpt lat="44.769175617432225" lon="7.922655343164364"><ele>374.5</ele><time>2026-04-05T15:47:09.999Z</time></trkpt><trkpt lat="44.76920970752848" lon="7.922536297847145"><ele>374.0</ele><time>2026-04-05T15:47:10.999Z</time></trkpt><trkpt lat="44.76923631897161" lon="7.922417419789783"><ele>373.5</ele><time>2026-04-05T15:47:11.999Z</time></trkpt><trkpt lat="44.769267375522254" lon="7.922283019856651"><ele>373.0</ele><time>2026-04-05T15:47:12.999Z</time></trkpt><trkpt lat="44.769299036876184" lon="7.922146070008847"><ele>373.0</ele><time>2026-04-05T15:47:13.999Z</time></trkpt><trkpt lat="44.76931117178361" lon="7.922019276133466"><ele>373.0</ele><time>2026-04-05T15:47:14.999Z</time></trkpt><trkpt lat="44.76933185513551" lon="7.9219240122887316"><ele>373.0</ele><time>2026-04-05T15:47:15.999Z</time></trkpt><trkpt lat="44.76928941999504" lon="7.921765043469478"><ele>373.0</ele><time>2026-04-05T15:47:17.999Z</time></trkpt><trkpt lat="44.76923605203762" lon="7.921669284742695"><ele>373.0</ele><time>2026-04-05T15:47:18.999Z</time></trkpt><trkpt lat="44.76916526350422" lon="7.9215745968893625"><ele>373.2</ele><time>2026-04-05T15:47:19.999Z</time></trkpt><trkpt lat="44.769097817160144" lon="7.921464613340588"><ele>373.4</ele><time>2026-04-05T15:47:20.999Z</time></trkpt><trkpt lat="44.76904096989843" lon="7.9213428220383335"><ele>373.59999999999997</ele><time>2026-04-05T15:47:21.999Z</time></trkpt><trkpt lat="44.76899517107611" lon="7.921194569381893"><ele>373.79999999999995</ele><time>2026-04-05T15:47:22.999Z</time></trkpt><trkpt lat="44.76895182291536" lon="7.921042558442224"><ele>374.0</ele><time>2026-04-05T15:47:23.999Z</time></trkpt><trkpt lat="44.76891387738328" lon="7.920890254588392"><ele>371.6</ele><time>2026-04-05T15:47:24.999Z</time></trkpt><trkpt lat="44.76887502583202" lon="7.9207507351997135"><ele>369.2</ele><time>2026-04-05T15:47:25.999Z</time></trkpt><trkpt lat="44.76883675026271" lon="7.920616455480697"><ele>366.8</ele><time>2026-04-05T15:47:26.999Z</time></trkpt><trkpt lat="44.76879675761655" lon="7.920493099644708"><ele>364.40000000000003</ele><time>2026-04-05T15:47:27.998Z</time></trkpt><trkpt lat="44.76873926290203" lon="7.920381917663494"><ele>362.0</ele><time>2026-04-05T15:47:28.998Z</time></trkpt><trkpt lat="44.76866944524733" lon="7.9202628613422625"><ele>362.0</ele><time>2026-04-05T15:47:30Z</time></trkpt><trkpt lat="44.7685938099191" lon="7.9201606063396355"><ele>362.0</ele><time>2026-04-05T15:47:31Z</time></trkpt><trkpt lat="44.768523270914244" lon="7.920074417202499"><ele>362.0</ele><time>2026-04-05T15:47:32Z</time></trkpt><trkpt lat="44.76845269479469" lon="7.919998488054362"><ele>362.0</ele><time>2026-04-05T15:47:33Z</time></trkpt><trkpt lat="44.76839820267388" lon="7.919920439361328"><ele>362.0</ele><time>2026-04-05T15:47:34Z</time></trkpt><trkpt lat="44.76834489392021" lon="7.919850659483978"><ele>362.0</ele><time>2026-04-05T15:47:35Z</time></trkpt><trkpt lat="44.768282419627724" lon="7.919797590224548"><ele>363.0</ele><time>2026-04-05T15:47:36Z</time></trkpt><trkpt lat="44.76821273680287" lon="7.919758481973567"><ele>364.0</ele><time>2026-04-05T15:47:37Z</time></trkpt><trkpt lat="44.768140450780436" lon="7.9197171258843495"><ele>365.0</ele><time>2026-04-05T15:47:38Z</time></trkpt><trkpt lat="44.76805419898177" lon="7.919676048498818"><ele>366.0</ele><time>2026-04-05T15:47:39Z</time></trkpt><trkpt lat="44.76799761471797" lon="7.919627131283072"><ele>367.0</ele><time>2026-04-05T15:47:40Z</time></trkpt><trkpt lat="44.7679401369887" lon="7.919541348010339"><ele>368.0</ele><time>2026-04-05T15:47:41Z</time></trkpt><trkpt lat="44.767904267207406" lon="7.91944106866721"><ele>368.0</ele><time>2026-04-05T15:47:42Z</time></trkpt><trkpt lat="44.7678890975328" lon="7.919310329800855"><ele>368.0</ele><time>2026-04-05T15:47:43Z</time></trkpt><trkpt lat="44.76788008383692" lon="7.919168272358625"><ele>368.0</ele><time>2026-04-05T15:47:44Z</time></trkpt><trkpt lat="44.76787292814702" lon="7.919013656005138"><ele>368.0</ele><time>2026-04-05T15:47:45Z</time></trkpt><trkpt lat="44.7678632786174" lon="7.91887606519473"><ele>368.0</ele><time>2026-04-05T15:47:46Z</time></trkpt><trkpt lat="44.767854918372436" lon="7.918741213061777"><ele>368.6666666666667</ele><time>2026-04-05T15:47:47Z</time></trkpt><trkpt lat="44.76785270133502" lon="7.91861878292171"><ele>369.33333333333337</ele><time>2026-04-05T15:47:48Z</time></trkpt><trkpt lat="44.767865690148305" lon="7.918511986013153"><ele>370.0</ele><time>2026-04-05T15:47:49Z</time></trkpt><trkpt lat="44.76790128786038" lon="7.918423776873782"><ele>370.6666666666667</ele><time>2026-04-05T15:47:50Z</time></trkpt><trkpt lat="44.767954507754865" lon="7.918359830147569"><ele>371.3333333333333</ele><time>2026-04-05T15:47:51Z</time></trkpt><trkpt lat="44.7680221467822" lon="7.9183178882629335"><ele>372.0</ele><time>2026-04-05T15:47:52Z</time></trkpt><trkpt lat="44.76810818686474" lon="7.918307020074641"><ele>372.0</ele><time>2026-04-05T15:47:53Z</time></trkpt><trkpt lat="44.76820153753525" lon="7.918322428626372"><ele>372.0</ele><time>2026-04-05T15:47:54Z</time></trkpt><trkpt lat="44.7682983295331" lon="7.918375539303428"><ele>372.0</ele><time>2026-04-05T15:47:55Z</time></trkpt><trkpt lat="44.76839628610043" lon="7.918452645773532"><ele>372.0</ele><time>2026-04-05T15:47:56Z</time></trkpt><trkpt lat="44.768502283717744" lon="7.918550719301105"><ele>372.0</ele><time>2026-04-05T15:47:57Z</time></trkpt><trkpt lat="44.76862424915088" lon="7.918644218655613"><ele>370.0</ele><time>2026-04-05T15:47:58Z</time></trkpt><trkpt lat="44.76873323930815" lon="7.918733218643512"><ele>368.0</ele><time>2026-04-05T15:47:59Z</time></trkpt><trkpt lat="44.76883129981883" lon="7.918810629363612"><ele>366.0</ele><time>2026-04-05T15:48:00Z</time></trkpt><trkpt lat="44.76892266054849" lon="7.918876698551127"><ele>364.0</ele><time>2026-04-05T15:48:01Z</time></trkpt><trkpt lat="44.76900631496092" lon="7.918933549481191"><ele>362.0</ele><time>2026-04-05T15:48:02Z</time></trkpt><trkpt lat="44.76909293229786" lon="7.918960604998932"><ele>362.0</ele><time>2026-04-05T15:48:03Z</time></trkpt><trkpt lat="44.769185053371544" lon="7.918957358237757"><ele>362.0</ele><time>2026-04-05T15:48:04Z</time></trkpt><trkpt lat="44.76928298733904" lon="7.918931344079034"><ele>362.0</ele><time>2026-04-05T15:48:05Z</time></trkpt><trkpt lat="44.769380064270386" lon="7.918922471262824"><ele>362.0</ele><time>2026-04-05T15:48:06Z</time></trkpt><trkpt lat="44.769490713098136" lon="7.918896804144876"><ele>362.0</ele><time>2026-04-05T15:48:07Z</time></trkpt><trkpt lat="44.769601623162416" lon="7.918841836546798"><ele>363.5</ele><time>2026-04-05T15:48:08Z</time></trkpt><trkpt lat="44.76970807732094" lon="7.918764470098244"><ele>365.0</ele><time>2026-04-05T15:48:09Z</time></trkpt><trkpt lat="44.76980960199331" lon="7.918660074678016"><ele>366.5</ele><time>2026-04-05T15:48:10Z</time></trkpt><trkpt lat="44.769917047764594" lon="7.918531314901684"><ele>368.0</ele><time>2026-04-05T15:48:11Z</time></trkpt><trkpt lat="44.77002728154673" lon="7.918403322017215"><ele>368.0</ele><time>2026-04-05T15:48:12Z</time></trkpt><trkpt lat="44.77013063739367" lon="7.918283060326993"><ele>368.0</ele><time>2026-04-05T15:48:13Z</time></trkpt><trkpt lat="44.77022738334371" lon="7.918178656941251"><ele>368.0</ele><time>2026-04-05T15:48:14Z</time></trkpt><trkpt lat="44.77033258218289" lon="7.918082088968162"><ele>368.0</ele><time>2026-04-05T15:48:15Z</time></trkpt><trkpt lat="44.77045955965246" lon="7.918003206195382"><ele>368.0</ele><time>2026-04-05T15:48:16Z</time></trkpt><trkpt lat="44.77062067784091" lon="7.917960129819295"><ele>368.0</ele><time>2026-04-05T15:48:17Z</time></trkpt><trkpt lat="44.770792410188655" lon="7.917922551623948"><ele>368.0</ele><time>2026-04-05T15:48:17.999Z</time></trkpt><trkpt lat="44.770925200004584" lon="7.917889323058223"><ele>366.75</ele><time>2026-04-05T15:48:18.999Z</time></trkpt><trkpt lat="44.771068965265485" lon="7.917872062304026"><ele>365.5</ele><time>2026-04-05T15:48:19.999Z</time></trkpt><trkpt lat="44.77120016044004" lon="7.91787424709314"><ele>364.25</ele><time>2026-04-05T15:48:20.999Z</time></trkpt><trkpt lat="44.77132489972676" lon="7.917864313013307"><ele>363.0</ele><time>2026-04-05T15:48:21.999Z</time></trkpt><trkpt lat="44.771442951712515" lon="7.917852215967018"><ele>363.0</ele><time>2026-04-05T15:48:22.999Z</time></trkpt><trkpt lat="44.7715518338163" lon="7.917849082576851"><ele>363.0</ele><time>2026-04-05T15:48:23.999Z</time></trkpt><trkpt lat="44.771658619966495" lon="7.917850849460492"><ele>363.0</ele><time>2026-04-05T15:48:24.999Z</time></trkpt><trkpt lat="44.77176549660132" lon="7.917865072516203"><ele>363.0</ele><time>2026-04-05T15:48:25.999Z</time></trkpt><trkpt lat="44.77185927113714" lon="7.917884603571938"><ele>363.0</ele><time>2026-04-05T15:48:26.999Z</time></trkpt><trkpt lat="44.77196648830952" lon="7.917922654742736"><ele>362.5</ele><time>2026-04-05T15:48:27.999Z</time></trkpt><trkpt lat="44.772074080161005" lon="7.917994793892536"><ele>362.0</ele><time>2026-04-05T15:48:28.999Z</time></trkpt><trkpt lat="44.772186085903634" lon="7.9180802403063115"><ele>361.5</ele><time>2026-04-05T15:48:29.999Z</time></trkpt><trkpt lat="44.7722994758406" lon="7.9181723282187875"><ele>361.0</ele><time>2026-04-05T15:48:30.999Z</time></trkpt><trkpt lat="44.77242243738511" lon="7.918249434110067"><ele>361.0</ele><time>2026-04-05T15:48:31.999Z</time></trkpt><trkpt lat="44.77255634475579" lon="7.918286152843792"><ele>361.0</ele><time>2026-04-05T15:48:32.999Z</time></trkpt><trkpt lat="44.77268370454027" lon="7.91829060668652"><ele>361.0</ele><time>2026-04-05T15:48:33.999Z</time></trkpt><trkpt lat="44.77279880315663" lon="7.918248309400114"><ele>361.0</ele><time>2026-04-05T15:48:34.999Z</time></trkpt><trkpt lat="44.7729090895862" lon="7.918193267830175"><ele>362.5</ele><time>2026-04-05T15:48:35.999Z</time></trkpt><trkpt lat="44.773024321268785" lon="7.918143341936242"><ele>364.0</ele><time>2026-04-05T15:48:36.999Z</time></trkpt><trkpt lat="44.77314737082255" lon="7.918109295616484"><ele>365.5</ele><time>2026-04-05T15:48:37.999Z</time></trkpt><trkpt lat="44.77326958206176" lon="7.91806363253307"><ele>367.0</ele><time>2026-04-05T15:48:38.999Z</time></trkpt><trkpt lat="44.77339339023422" lon="7.918013816101781"><ele>367.0</ele><time>2026-04-05T15:48:39.999Z</time></trkpt><trkpt lat="44.77351637409563" lon="7.917954559130736"><ele>367.0</ele><time>2026-04-05T15:48:40.999Z</time></trkpt><trkpt lat="44.77364064756578" lon="7.9178889639465275"><ele>367.0</ele><time>2026-04-05T15:48:41.999Z</time></trkpt><trkpt lat="44.773764471913026" lon="7.917818387925265"><ele>367.0</ele><time>2026-04-05T15:48:42.999Z</time></trkpt><trkpt lat="44.7738893995727" lon="7.9177392558564605"><ele>367.25</ele><time>2026-04-05T15:48:43.999Z</time></trkpt><trkpt lat="44.77400458768322" lon="7.917666693862087"><ele>367.5</ele><time>2026-04-05T15:48:44.999Z</time></trkpt><trkpt lat="44.774112516253545" lon="7.917593556094598"><ele>367.75</ele><time>2026-04-05T15:48:45.999Z</time></trkpt><trkpt lat="44.77422894494869" lon="7.917525862641448"><ele>368.0</ele><time>2026-04-05T15:48:46.999Z</time></trkpt><trkpt lat="44.7743671155394" lon="7.917473474841622"><ele>368.0</ele><time>2026-04-05T15:48:47.999Z</time></trkpt><trkpt lat="44.77452248658263" lon="7.917424816560712"><ele>368.0</ele><time>2026-04-05T15:48:48.999Z</time></trkpt><trkpt lat="44.7746856248263" lon="7.917381388164092"><ele>368.0</ele><time>2026-04-05T15:48:49.999Z</time></trkpt><trkpt lat="44.77484125202625" lon="7.917361783989842"><ele>368.0</ele><time>2026-04-05T15:48:50.999Z</time></trkpt><trkpt lat="44.774981562314004" lon="7.917334202415012"><ele>368.0</ele><time>2026-04-05T15:48:51.999Z</time></trkpt><trkpt lat="44.77511688641236" lon="7.917307887251374"><ele>368.0</ele><time>2026-04-05T15:48:52.999Z</time></trkpt><trkpt lat="44.7752466984969" lon="7.917276959581923"><ele>368.0</ele><time>2026-04-05T15:48:53.999Z</time></trkpt><trkpt lat="44.77535929717919" lon="7.917211823946546"><ele>366.25</ele><time>2026-04-05T15:48:54.999Z</time></trkpt><trkpt lat="44.775471132675165" lon="7.917145439993828"><ele>364.5</ele><time>2026-04-05T15:48:55.999Z</time></trkpt><trkpt lat="44.77558442925278" lon="7.917053461491991"><ele>362.75</ele><time>2026-04-05T15:48:56.999Z</time></trkpt><trkpt lat="44.77568919628056" lon="7.916921804042116"><ele>361.0</ele><time>2026-04-05T15:48:57.999Z</time></trkpt><trkpt lat="44.77579332970459" lon="7.916769408268163"><ele>360.66666666666663</ele><time>2026-04-05T15:48:58.999Z</time></trkpt><trkpt lat="44.77589974304466" lon="7.916599679918674"><ele>360.3333333333333</ele><time>2026-04-05T15:48:59.999Z</time></trkpt><trkpt lat="44.77601116472562" lon="7.9164275544874005"><ele>360.0</ele><time>2026-04-05T15:49:00.999Z</time></trkpt><trkpt lat="44.776131792614514" lon="7.916255384820503"><ele>359.0</ele><time>2026-04-05T15:49:01.999Z</time></trkpt><trkpt lat="44.77625549444198" lon="7.916092441440153"><ele>358.0</ele><time>2026-04-05T15:49:02.999Z</time></trkpt><trkpt lat="44.77637369931309" lon="7.915948099866408"><ele>357.0</ele><time>2026-04-05T15:49:03.999Z</time></trkpt><trkpt lat="44.77648682646608" lon="7.915810336673284"><ele>357.0</ele><time>2026-04-05T15:49:04.999Z</time></trkpt><trkpt lat="44.776595473035876" lon="7.915684907118024"><ele>357.0</ele><time>2026-04-05T15:49:05.999Z</time></trkpt><trkpt lat="44.77669991306919" lon="7.915565891873463"><ele>357.0</ele><time>2026-04-05T15:49:06.999Z</time></trkpt><trkpt lat="44.77679442538202" lon="7.915447408283094"><ele>357.0</ele><time>2026-04-05T15:49:07.999Z</time></trkpt><trkpt lat="44.77688764374608" lon="7.915335388468921"><ele>357.25</ele><time>2026-04-05T15:49:08.999Z</time></trkpt><trkpt lat="44.77698487815278" lon="7.915261455581516"><ele>357.5</ele><time>2026-04-05T15:49:09.999Z</time></trkpt><trkpt lat="44.77707301425408" lon="7.9151438637019815"><ele>357.75</ele><time>2026-04-05T15:49:10.999Z</time></trkpt><trkpt lat="44.777168004628" lon="7.915029473276641"><ele>358.0</ele><time>2026-04-05T15:49:11.999Z</time></trkpt><trkpt lat="44.77727737764497" lon="7.914906880892756"><ele>358.0</ele><time>2026-04-05T15:49:12.999Z</time></trkpt><trkpt lat="44.77739723417173" lon="7.914789079833401"><ele>358.0</ele><time>2026-04-05T15:49:13.999Z</time></trkpt><trkpt lat="44.777525373870176" lon="7.914677604546352"><ele>358.0</ele><time>2026-04-05T15:49:14.999Z</time></trkpt><trkpt lat="44.77765951011732" lon="7.914566749556753"><ele>362.0</ele><time>2026-04-05T15:49:15.999Z</time></trkpt><trkpt lat="44.77780788876863" lon="7.914471305641614"><ele>366.0</ele><time>2026-04-05T15:49:16.999Z</time></trkpt><trkpt lat="44.777961404380214" lon="7.914389837483769"><ele>370.0</ele><time>2026-04-05T15:49:17.999Z</time></trkpt><trkpt lat="44.77812392780617" lon="7.914307785238861"><ele>365.66666666666663</ele><time>2026-04-05T15:49:18.999Z</time></trkpt><trkpt lat="44.77828663553213" lon="7.914228931550988"><ele>361.3333333333333</ele><time>2026-04-05T15:49:19.999Z</time></trkpt><trkpt lat="44.77845520077265" lon="7.914153069545793"><ele>357.0</ele><time>2026-04-05T15:49:20.999Z</time></trkpt><trkpt lat="44.77862541250695" lon="7.914083142575158"><ele>356.0</ele><time>2026-04-05T15:49:21.999Z</time></trkpt><trkpt lat="44.77880014929998" lon="7.914015559039015"><ele>355.0</ele><time>2026-04-05T15:49:22.999Z</time></trkpt><trkpt lat="44.77896497145548" lon="7.913960555030916"><ele>354.0</ele><time>2026-04-05T15:49:23.999Z</time></trkpt><trkpt lat="44.77912130874436" lon="7.913909522150284"><ele>354.0</ele><time>2026-04-05T15:49:24.999Z</time></trkpt><trkpt lat="44.77926969913035" lon="7.913871154258202"><ele>354.0</ele><time>2026-04-05T15:49:25.999Z</time></trkpt><trkpt lat="44.779403976078555" lon="7.913818893401055"><ele>354.0</ele><time>2026-04-05T15:49:26.998Z</time></trkpt><trkpt lat="44.779529203802824" lon="7.913760766101347"><ele>354.0</ele><time>2026-04-05T15:49:27.998Z</time></trkpt><trkpt lat="44.77964713137289" lon="7.913686180984431"><ele>354.0</ele><time>2026-04-05T15:49:28.998Z</time></trkpt><trkpt lat="44.779758421064685" lon="7.913561649863934"><ele>354.0</ele><time>2026-04-05T15:49:29.998Z</time></trkpt><trkpt lat="44.77986158216415" lon="7.9134063640954"><ele>354.0</ele><time>2026-04-05T15:49:30.998Z</time></trkpt><trkpt lat="44.77995311737905" lon="7.913234563111654"><ele>354.0</ele><time>2026-04-05T15:49:31.998Z</time></trkpt><trkpt lat="44.780040391607166" lon="7.913060678965751"><ele>354.0</ele><time>2026-04-05T15:49:32.998Z</time></trkpt><trkpt lat="44.78011764162608" lon="7.912886088684936"><ele>354.0</ele><time>2026-04-05T15:49:33.998Z</time></trkpt><trkpt lat="44.780179676271516" lon="7.912718327846681"><ele>354.0</ele><time>2026-04-05T15:49:34.998Z</time></trkpt><trkpt lat="44.780223380681896" lon="7.912550080117965"><ele>354.0</ele><time>2026-04-05T15:49:36Z</time></trkpt><trkpt lat="44.78025636582508" lon="7.912389266795604"><ele>356.0</ele><time>2026-04-05T15:49:37Z</time></trkpt><trkpt lat="44.780290798943874" lon="7.91221339645103"><ele>358.0</ele><time>2026-04-05T15:49:38Z</time></trkpt><trkpt lat="44.78033194786356" lon="7.912023440162563"><ele>360.0</ele><time>2026-04-05T15:49:39Z</time></trkpt><trkpt lat="44.780380256629705" lon="7.9118104654988555"><ele>362.0</ele><time>2026-04-05T15:49:40Z</time></trkpt><trkpt lat="44.780433169988264" lon="7.911580237440318"><ele>362.0</ele><time>2026-04-05T15:49:41Z</time></trkpt><trkpt lat="44.780491228836" lon="7.911384823368701"><ele>362.0</ele><time>2026-04-05T15:49:42Z</time></trkpt><trkpt lat="44.78054687834033" lon="7.9112026943284235"><ele>362.0</ele><time>2026-04-05T15:49:43Z</time></trkpt><trkpt lat="44.780604531281426" lon="7.91100971550055"><ele>362.0</ele><time>2026-04-05T15:49:44Z</time></trkpt><trkpt lat="44.780661027390295" lon="7.910817705888351"><ele>359.25</ele><time>2026-04-05T15:49:45Z</time></trkpt><trkpt lat="44.780715804087244" lon="7.910648943706188"><ele>356.5</ele><time>2026-04-05T15:49:46Z</time></trkpt><trkpt lat="44.780779225763695" lon="7.910498354812742"><ele>353.75</ele><time>2026-04-05T15:49:47Z</time></trkpt><trkpt lat="44.780846097675486" lon="7.9103644663938395"><ele>351.0</ele><time>2026-04-05T15:49:48Z</time></trkpt><trkpt lat="44.78092488786797" lon="7.910226974489142"><ele>351.0</ele><time>2026-04-05T15:49:49Z</time></trkpt><trkpt lat="44.7810158312936" lon="7.910083531405742"><ele>351.0</ele><time>2026-04-05T15:49:50Z</time></trkpt><trkpt lat="44.78112614514543" lon="7.909959631176612"><ele>351.0</ele><time>2026-04-05T15:49:51Z</time></trkpt><trkpt lat="44.78124319209827" lon="7.909836825809408"><ele>351.0</ele><time>2026-04-05T15:49:52Z</time></trkpt><trkpt lat="44.78137519775894" lon="7.909722426767821"><ele>352.3333333333333</ele><time>2026-04-05T15:49:53Z</time></trkpt><trkpt lat="44.78152312428751" lon="7.909601195642112"><ele>353.66666666666663</ele><time>2026-04-05T15:49:54Z</time></trkpt><trkpt lat="44.781679508859305" lon="7.909477292969192"><ele>355.0</ele><time>2026-04-05T15:49:55Z</time></trkpt><trkpt lat="44.78183993847658" lon="7.909345139729722"><ele>352.66666666666663</ele><time>2026-04-05T15:49:56Z</time></trkpt><trkpt lat="44.78198817893145" lon="7.909237738102271"><ele>350.3333333333333</ele><time>2026-04-05T15:49:57Z</time></trkpt><trkpt lat="44.78212232911955" lon="7.909131217743927"><ele>348.0</ele><time>2026-04-05T15:49:58Z</time></trkpt><trkpt lat="44.782244512838155" lon="7.9090278301037"><ele>348.0</ele><time>2026-04-05T15:49:59Z</time></trkpt><trkpt lat="44.78236309011285" lon="7.9089283521502"><ele>348.0</ele><time>2026-04-05T15:50:00Z</time></trkpt><trkpt lat="44.78247358986455" lon="7.908836171503585"><ele>348.0</ele><time>2026-04-05T15:50:01Z</time></trkpt><trkpt lat="44.7825749842659" lon="7.908746316058851"><ele>348.0</ele><time>2026-04-05T15:50:02Z</time></trkpt><trkpt lat="44.78267280516481" lon="7.908663019052868"><ele>347.25</ele><time>2026-04-05T15:50:03Z</time></trkpt><trkpt lat="44.782765154331386" lon="7.9085878482849825"><ele>346.5</ele><time>2026-04-05T15:50:04Z</time></trkpt><trkpt lat="44.782854371667376" lon="7.908513480169381"><ele>345.75</ele><time>2026-04-05T15:50:05Z</time></trkpt><trkpt lat="44.78295795286887" lon="7.908438836322269"><ele>345.0</ele><time>2026-04-05T15:50:06Z</time></trkpt><trkpt lat="44.783079796677676" lon="7.90837566466759"><ele>345.0</ele><time>2026-04-05T15:50:07Z</time></trkpt><trkpt lat="44.78320821969385" lon="7.908322082223836"><ele>345.0</ele><time>2026-04-05T15:50:08Z</time></trkpt><trkpt lat="44.783345572172486" lon="7.908275401795611"><ele>345.0</ele><time>2026-04-05T15:50:09Z</time></trkpt><trkpt lat="44.78349285270877" lon="7.908245133002518"><ele>345.0</ele><time>2026-04-05T15:50:10Z</time></trkpt><trkpt lat="44.783646345386394" lon="7.908208250574241"><ele>343.3333333333333</ele><time>2026-04-05T15:50:11Z</time></trkpt><trkpt lat="44.783802907375836" lon="7.90816539822712"><ele>341.66666666666663</ele><time>2026-04-05T15:50:12Z</time></trkpt><trkpt lat="44.78395863692165" lon="7.9081256091922985"><ele>340.0</ele><time>2026-04-05T15:50:13Z</time></trkpt><trkpt lat="44.784097267008555" lon="7.908088032683198"><ele>340.0</ele><time>2026-04-05T15:50:14Z</time></trkpt><trkpt lat="44.78422406000439" lon="7.908047215795113"><ele>340.0</ele><time>2026-04-05T15:50:15Z</time></trkpt><trkpt lat="44.78434434461369" lon="7.908013891404079"><ele>340.0</ele><time>2026-04-05T15:50:16Z</time></trkpt><trkpt lat="44.78444701372054" lon="7.907988078087191"><ele>340.0</ele><time>2026-04-05T15:50:17Z</time></trkpt><trkpt lat="44.7845324616894" lon="7.907973087161631"><ele>340.0</ele><time>2026-04-05T15:50:18Z</time></trkpt><trkpt lat="44.78461169147137" lon="7.907965657485377"><ele>339.8333333333333</ele><time>2026-04-05T15:50:19Z</time></trkpt><trkpt lat="44.78468483735695" lon="7.907972772902643"><ele>339.66666666666663</ele><time>2026-04-05T15:50:20Z</time></trkpt><trkpt lat="44.784762045875375" lon="7.90797425312585"><ele>339.5</ele><time>2026-04-05T15:50:21Z</time></trkpt><trkpt lat="44.784836459786966" lon="7.907970487431615"><ele>339.3333333333333</ele><time>2026-04-05T15:50:22Z</time></trkpt><trkpt lat="44.78490324378704" lon="7.907964558935539"><ele>339.1666666666667</ele><time>2026-04-05T15:50:22.999Z</time></trkpt><trkpt lat="44.78499677311205" lon="7.907971944291032"><ele>339.0</ele><time>2026-04-05T15:50:24.999Z</time></trkpt><trkpt lat="44.785077718757854" lon="7.907912662173855"><ele>339.0</ele><time>2026-04-05T15:50:29.999Z</time></trkpt><trkpt lat="44.78510294336691" lon="7.907779337205488"><ele>339.0</ele><time>2026-04-05T15:50:30.999Z</time></trkpt><trkpt lat="44.785111021125445" lon="7.907631798864333"><ele>339.0</ele><time>2026-04-05T15:50:31.999Z</time></trkpt><trkpt lat="44.78512941948882" lon="7.907454077289604"><ele>339.0</ele><time>2026-04-05T15:50:32.999Z</time></trkpt><trkpt lat="44.78515885959238" lon="7.907267992156948"><ele>341.0</ele><time>2026-04-05T15:50:33.999Z</time></trkpt><trkpt lat="44.785190052794725" lon="7.907068911664645"><ele>343.0</ele><time>2026-04-05T15:50:34.999Z</time></trkpt><trkpt lat="44.78522153382976" lon="7.906837087099392"><ele>345.0</ele><time>2026-04-05T15:50:35.999Z</time></trkpt><trkpt lat="44.78525784161733" lon="7.906587475225481"><ele>345.0</ele><time>2026-04-05T15:50:36.999Z</time></trkpt><trkpt lat="44.78529747954802" lon="7.906319450462968"><ele>345.0</ele><time>2026-04-05T15:50:37.999Z</time></trkpt><trkpt lat="44.78533691761262" lon="7.906058617676491"><ele>345.0</ele><time>2026-04-05T15:50:38.999Z</time></trkpt><trkpt lat="44.785373410501165" lon="7.90578603488508"><ele>342.3333333333333</ele><time>2026-04-05T15:50:39.999Z</time></trkpt><trkpt lat="44.78541322312195" lon="7.905501396837931"><ele>339.66666666666663</ele><time>2026-04-05T15:50:40.999Z</time></trkpt><trkpt lat="44.78545770181757" lon="7.905210667492905"><ele>337.0</ele><time>2026-04-05T15:50:41.999Z</time></trkpt><trkpt lat="44.78550051233744" lon="7.904907159250965"><ele>335.3333333333333</ele><time>2026-04-05T15:50:42.999Z</time></trkpt><trkpt lat="44.78554770119767" lon="7.9046051497571455"><ele>333.6666666666667</ele><time>2026-04-05T15:50:43.999Z</time></trkpt><trkpt lat="44.785589122982" lon="7.904291000067539"><ele>332.0</ele><time>2026-04-05T15:50:44.999Z</time></trkpt><trkpt lat="44.785635623286105" lon="7.903963418715066"><ele>331.0</ele><time>2026-04-05T15:50:45.999Z</time></trkpt><trkpt lat="44.785682290766985" lon="7.903629429959099"><ele>330.0</ele><time>2026-04-05T15:50:46.999Z</time></trkpt><trkpt lat="44.78572888696347" lon="7.9032987066206495"><ele>329.6666666666667</ele><time>2026-04-05T15:50:47.999Z</time></trkpt><trkpt lat="44.785769765826615" lon="7.903007034474461"><ele>329.33333333333337</ele><time>2026-04-05T15:50:48.999Z</time></trkpt><trkpt lat="44.78580252981973" lon="7.902771296681746"><ele>329.0</ele><time>2026-04-05T15:50:49.999Z</time></trkpt><trkpt lat="44.785826047661864" lon="7.90261613692107"><ele>329.1666666666667</ele><time>2026-04-05T15:50:50.999Z</time></trkpt><trkpt lat="44.785840569638175" lon="7.90251418895924"><ele>329.33333333333337</ele><time>2026-04-05T15:50:51.999Z</time></trkpt><trkpt lat="44.785902331905994" lon="7.902484770006862"><ele>329.5</ele><time>2026-04-05T15:50:54.999Z</time></trkpt><trkpt lat="44.7859997933611" lon="7.90254098782587"><ele>329.6666666666667</ele><time>2026-04-05T15:50:56.999Z</time></trkpt><trkpt lat="44.78606802046831" lon="7.902588100652922"><ele>329.8333333333333</ele><time>2026-04-05T15:50:57.999Z</time></trkpt><trkpt lat="44.786147846845424" lon="7.9026228087359955"><ele>330.0</ele><time>2026-04-05T15:50:58.999Z</time></trkpt><trkpt lat="44.7862409845966" lon="7.902655753111988"><ele>330.6</ele><time>2026-04-05T15:50:59.999Z</time></trkpt><trkpt lat="44.78632890935826" lon="7.90268881947701"><ele>331.2</ele><time>2026-04-05T15:51:00.999Z</time></trkpt><trkpt lat="44.786422693164" lon="7.902724179342384"><ele>331.79999999999995</ele><time>2026-04-05T15:51:01.999Z</time></trkpt><trkpt lat="44.786524128471655" lon="7.902756014335238"><ele>332.4</ele><time>2026-04-05T15:51:02.999Z</time></trkpt><trkpt lat="44.786629258699364" lon="7.902786831573688"><ele>333.0</ele><time>2026-04-05T15:51:03.999Z</time></trkpt><trkpt lat="44.78673909106782" lon="7.902822548614754"><ele>333.79999999999995</ele><time>2026-04-05T15:51:04.999Z</time></trkpt><trkpt lat="44.78684589220308" lon="7.902854830127911"><ele>334.6</ele><time>2026-04-05T15:51:05.999Z</time></trkpt><trkpt lat="44.786947480507955" lon="7.902892944343356"><ele>335.4</ele><time>2026-04-05T15:51:06.999Z</time></trkpt><trkpt lat="44.78704375221444" lon="7.902924724119463"><ele>336.20000000000005</ele><time>2026-04-05T15:51:07.999Z</time></trkpt><trkpt lat="44.787131366356725" lon="7.9029513999958265"><ele>337.0</ele><time>2026-04-05T15:51:08.999Z</time></trkpt><trkpt lat="44.78721536256013" lon="7.902984174548219"><ele>337.0</ele><time>2026-04-05T15:51:09.999Z</time></trkpt><trkpt lat="44.787282001535516" lon="7.903023694406618"><ele>337.0</ele><time>2026-04-05T15:51:10.999Z</time></trkpt><trkpt lat="44.78733564350719" lon="7.903088494145701"><ele>337.0</ele><time>2026-04-05T15:51:11.999Z</time></trkpt><trkpt lat="44.78736244058663" lon="7.903196064247638"><ele>337.0</ele><time>2026-04-05T15:51:12.999Z</time></trkpt><trkpt lat="44.78735438862572" lon="7.903315019387983"><ele>337.0</ele><time>2026-04-05T15:51:13.999Z</time></trkpt><trkpt lat="44.78731294480843" lon="7.903408441972893"><ele>337.0</ele><time>2026-04-05T15:51:14.999Z</time></trkpt><trkpt lat="44.787273677057904" lon="7.903561546694861"><ele>339.40000000000003</ele><time>2026-04-05T15:51:16.999Z</time></trkpt><trkpt lat="44.78736445478229" lon="7.903677564682764"><ele>341.8</ele><time>2026-04-05T15:51:17.999Z</time></trkpt><trkpt lat="44.78744110110271" lon="7.9037125886158615"><ele>344.2</ele><time>2026-04-05T15:51:18.999Z</time></trkpt><trkpt lat="44.787536112350914" lon="7.903725471378161"><ele>346.6</ele><time>2026-04-05T15:51:19.999Z</time></trkpt><trkpt lat="44.78763431644056" lon="7.903744031983297"><ele>349.0</ele><time>2026-04-05T15:51:20.999Z</time></trkpt><trkpt lat="44.78773831958679" lon="7.903796471788234"><ele>349.75</ele><time>2026-04-05T15:51:21.999Z</time></trkpt><trkpt lat="44.78784950112033" lon="7.903854946364238"><ele>350.5</ele><time>2026-04-05T15:51:22.999Z</time></trkpt><trkpt lat="44.78795843628997" lon="7.903912005710552"><ele>351.25</ele><time>2026-04-05T15:51:23.999Z</time></trkpt><trkpt lat="44.78807082662784" lon="7.903966807492285"><ele>352.0</ele><time>2026-04-05T15:51:24.999Z</time></trkpt><trkpt lat="44.78818622415815" lon="7.903995260717343"><ele>352.0</ele><time>2026-04-05T15:51:25.999Z</time></trkpt><trkpt lat="44.78828556353119" lon="7.903993410968872"><ele>352.0</ele><time>2026-04-05T15:51:26.999Z</time></trkpt><trkpt lat="44.78836017172112" lon="7.903982528777568"><ele>352.0</ele><time>2026-04-05T15:51:27.999Z</time></trkpt><trkpt lat="44.788423677391684" lon="7.904036853074471"><ele>352.0</ele><time>2026-04-05T15:51:29.998Z</time></trkpt><trkpt lat="44.78834849366761" lon="7.904163533005336"><ele>352.0</ele><time>2026-04-05T15:51:31.998Z</time></trkpt><trkpt lat="44.78826446146803" lon="7.90418797664005"><ele>352.0</ele><time>2026-04-05T15:51:32.998Z</time></trkpt><trkpt lat="44.78816479648024" lon="7.9041973641252445"><ele>352.0</ele><time>2026-04-05T15:51:33.998Z</time></trkpt><trkpt lat="44.7880900680828" lon="7.904225163673737"><ele>352.0</ele><time>2026-04-05T15:51:34.998Z</time></trkpt><trkpt lat="44.788045716726025" lon="7.904358142250171"><ele>352.0</ele><time>2026-04-05T15:51:36.998Z</time></trkpt><trkpt lat="44.78815698692187" lon="7.904405186139616"><ele>352.0</ele><time>2026-04-05T15:51:38.998Z</time></trkpt><trkpt lat="44.78825971348158" lon="7.904334366899122"><ele>355.6</ele><time>2026-04-05T15:51:39.998Z</time></trkpt><trkpt lat="44.78834802631335" lon="7.904286793859904"><ele>359.20000000000005</ele><time>2026-04-05T15:51:40.998Z</time></trkpt><trkpt lat="44.788452323939474" lon="7.904273133471989"><ele>362.8</ele><time>2026-04-05T15:51:42Z</time></trkpt><trkpt lat="44.788560644158" lon="7.9042882286362355"><ele>366.4</ele><time>2026-04-05T15:51:43Z</time></trkpt><trkpt lat="44.78865012296815" lon="7.904312047403196"><ele>370.0</ele><time>2026-04-05T15:51:44Z</time></trkpt><trkpt lat="44.78872739274465" lon="7.904391395151685"><ele>370.0</ele><time>2026-04-05T15:51:46Z</time></trkpt><trkpt lat="44.788695975501255" lon="7.904478606033169"><ele>370.0</ele><time>2026-04-05T15:51:47Z</time></trkpt><trkpt lat="44.788627432428925" lon="7.904544652714002"><ele>370.0</ele><time>2026-04-05T15:51:48Z</time></trkpt><trkpt lat="44.788519791027774" lon="7.904583479743184"><ele>370.0</ele><time>2026-04-05T15:51:49Z</time></trkpt><trkpt lat="44.78841293223769" lon="7.904633762971093"><ele>370.0</ele><time>2026-04-05T15:51:50Z</time></trkpt><trkpt lat="44.78831435319497" lon="7.90471982692828"><ele>370.0</ele><time>2026-04-05T15:51:51Z</time></trkpt><trkpt lat="44.78820837762126" lon="7.904822010576235"><ele>370.0</ele><time>2026-04-05T15:51:52Z</time></trkpt><trkpt lat="44.78811273592548" lon="7.904913866993007"><ele>370.0</ele><time>2026-04-05T15:51:53Z</time></trkpt><trkpt lat="44.78803388327624" lon="7.904986832662051"><ele>370.0</ele><time>2026-04-05T15:51:54Z</time></trkpt><trkpt lat="44.78796485714655" lon="7.90502558809269"><ele>370.0</ele><time>2026-04-05T15:51:55Z</time></trkpt><trkpt lat="44.787909478286736" lon="7.905131933736715"><ele>371.8333333333333</ele><time>2026-04-05T15:51:57Z</time></trkpt><trkpt lat="44.78794429217919" lon="7.905212789060241"><ele>373.66666666666663</ele><time>2026-04-05T15:51:58Z</time></trkpt><trkpt lat="44.78801479494153" lon="7.9052460814316925"><ele>375.5</ele><time>2026-04-05T15:51:59Z</time></trkpt><trkpt lat="44.788099480544666" lon="7.905234061196609"><ele>377.3333333333333</ele><time>2026-04-05T15:52:00Z</time></trkpt><trkpt lat="44.78819799167869" lon="7.905215753138478"><ele>379.1666666666667</ele><time>2026-04-05T15:52:01Z</time></trkpt><trkpt lat="44.78830704207144" lon="7.905223553067821"><ele>381.0</ele><time>2026-04-05T15:52:02Z</time></trkpt><trkpt lat="44.78842985940491" lon="7.905232520898902"><ele>379.75</ele><time>2026-04-05T15:52:03Z</time></trkpt><trkpt lat="44.78855849038198" lon="7.9052488037978055"><ele>378.5</ele><time>2026-04-05T15:52:04Z</time></trkpt><trkpt lat="44.788691976228016" lon="7.905256190011723"><ele>377.25</ele><time>2026-04-05T15:52:05Z</time></trkpt><trkpt lat="44.78881994376402" lon="7.905260130151126"><ele>376.0</ele><time>2026-04-05T15:52:06Z</time></trkpt><trkpt lat="44.78893491845789" lon="7.905265400890769"><ele>376.0</ele><time>2026-04-05T15:52:07Z</time></trkpt><trkpt lat="44.78903630732341" lon="7.905255814444282"><ele>376.0</ele><time>2026-04-05T15:52:08Z</time></trkpt><trkpt lat="44.789121573781486" lon="7.905234973798642"><ele>376.0</ele><time>2026-04-05T15:52:09Z</time></trkpt><trkpt lat="44.78919652892311" lon="7.905209065977621"><ele>376.0</ele><time>2026-04-05T15:52:10Z</time></trkpt><trkpt lat="44.789311778997146" lon="7.905193482487293"><ele>376.0</ele><time>2026-04-05T15:52:12Z</time></trkpt><trkpt lat="44.789444499682" lon="7.905163014933049"><ele>375.6</ele><time>2026-04-05T15:52:14Z</time></trkpt><trkpt lat="44.78953142849432" lon="7.905123825510744"><ele>375.20000000000005</ele><time>2026-04-05T15:52:15Z</time></trkpt><trkpt lat="44.78962635328719" lon="7.905083236469828"><ele>374.79999999999995</ele><time>2026-04-05T15:52:16Z</time></trkpt><trkpt lat="44.78971649834935" lon="7.9050438468299165"><ele>374.4</ele><time>2026-04-05T15:52:17Z</time></trkpt><trkpt lat="44.789794763260595" lon="7.904998827053787"><ele>374.0</ele><time>2026-04-05T15:52:18Z</time></trkpt><trkpt lat="44.789869647846956" lon="7.9049201504716935"><ele>375.6</ele><time>2026-04-05T15:52:19Z</time></trkpt><trkpt lat="44.7899327644134" lon="7.90481437966835"><ele>377.2</ele><time>2026-04-05T15:52:20Z</time></trkpt><trkpt lat="44.78998632088119" lon="7.90468805740076"><ele>378.8</ele><time>2026-04-05T15:52:21Z</time></trkpt><trkpt lat="44.79003583018415" lon="7.904560798645689"><ele>380.40000000000003</ele><time>2026-04-05T15:52:22Z</time></trkpt><trkpt lat="44.79007752349814" lon="7.904421523635919"><ele>382.0</ele><time>2026-04-05T15:52:23Z</time></trkpt><trkpt lat="44.79011142750547" lon="7.904279899577729"><ele>381.0</ele><time>2026-04-05T15:52:24Z</time></trkpt><trkpt lat="44.7901226692165" lon="7.904120939492206"><ele>380.0</ele><time>2026-04-05T15:52:25Z</time></trkpt><trkpt lat="44.79012322816916" lon="7.903953150948024"><ele>379.0</ele><time>2026-04-05T15:52:26Z</time></trkpt><trkpt lat="44.79012587491653" lon="7.903773401493316"><ele>378.0</ele><time>2026-04-05T15:52:27Z</time></trkpt><trkpt lat="44.79012948435926" lon="7.903594484144495"><ele>377.5</ele><time>2026-04-05T15:52:28Z</time></trkpt><trkpt lat="44.79013580985965" lon="7.9034071796252015"><ele>377.0</ele><time>2026-04-05T15:52:29Z</time></trkpt><trkpt lat="44.79015480752293" lon="7.903219549619157"><ele>376.5</ele><time>2026-04-05T15:52:30Z</time></trkpt><trkpt lat="44.79018384259722" lon="7.90304137468395"><ele>376.0</ele><time>2026-04-05T15:52:31Z</time></trkpt><trkpt lat="44.79021010823507" lon="7.902867821874738"><ele>375.8</ele><time>2026-04-05T15:52:32Z</time></trkpt><trkpt lat="44.7902356468409" lon="7.902715221608712"><ele>375.6</ele><time>2026-04-05T15:52:33Z</time></trkpt><trkpt lat="44.790250780910185" lon="7.902575291228328"><ele>375.4</ele><time>2026-04-05T15:52:33.999Z</time></trkpt><trkpt lat="44.790274475323514" lon="7.902440434740643"><ele>375.2</ele><time>2026-04-05T15:52:34.999Z</time></trkpt><trkpt lat="44.79030594185494" lon="7.9022982455993676"><ele>375.0</ele><time>2026-04-05T15:52:35.999Z</time></trkpt><trkpt lat="44.790349982656" lon="7.902148571266302"><ele>375.0</ele><time>2026-04-05T15:52:36.999Z</time></trkpt><trkpt lat="44.79040329574485" lon="7.901996981073083"><ele>375.0</ele><time>2026-04-05T15:52:37.999Z</time></trkpt><trkpt lat="44.790469224180576" lon="7.901832972769292"><ele>375.0</ele><time>2026-04-05T15:52:38.999Z</time></trkpt><trkpt lat="44.79054441657704" lon="7.901663371183797"><ele>375.0</ele><time>2026-04-05T15:52:39.999Z</time></trkpt><trkpt lat="44.79062730665284" lon="7.901494312094663"><ele>376.0</ele><time>2026-04-05T15:52:40.999Z</time></trkpt><trkpt lat="44.790709143662994" lon="7.901330729238272"><ele>377.0</ele><time>2026-04-05T15:52:41.999Z</time></trkpt><trkpt lat="44.79079045658865" lon="7.901165808138353"><ele>378.0</ele><time>2026-04-05T15:52:42.999Z</time></trkpt><trkpt lat="44.79087128677608" lon="7.90100527222444"><ele>379.0</ele><time>2026-04-05T15:52:43.999Z</time></trkpt><trkpt lat="44.79096406818336" lon="7.900842408172647"><ele>378.5</ele><time>2026-04-05T15:52:44.999Z</time></trkpt><trkpt lat="44.79104568459976" lon="7.900695411292791"><ele>378.0</ele><time>2026-04-05T15:52:45.999Z</time></trkpt><trkpt lat="44.79113332572476" lon="7.900557630092633"><ele>377.5</ele><time>2026-04-05T15:52:46.999Z</time></trkpt><trkpt lat="44.79122008369253" lon="7.900418494432953"><ele>377.0</ele><time>2026-04-05T15:52:47.999Z</time></trkpt><trkpt lat="44.791306753296055" lon="7.90028756443928"><ele>377.0</ele><time>2026-04-05T15:52:48.999Z</time></trkpt><trkpt lat="44.79137958604414" lon="7.900169601074099"><ele>377.0</ele><time>2026-04-05T15:52:49.999Z</time></trkpt><trkpt lat="44.79145181088848" lon="7.90006071452668"><ele>377.0</ele><time>2026-04-05T15:52:50.999Z</time></trkpt><trkpt lat="44.79154765054149" lon="7.899967160645978"><ele>377.0</ele><time>2026-04-05T15:52:51.999Z</time></trkpt><trkpt lat="44.7916584926862" lon="7.899894775536275"><ele>379.75</ele><time>2026-04-05T15:52:52.999Z</time></trkpt><trkpt lat="44.79177575264086" lon="7.899816358340982"><ele>382.5</ele><time>2026-04-05T15:52:53.999Z</time></trkpt><trkpt lat="44.791892101693584" lon="7.899724546352342"><ele>385.25</ele><time>2026-04-05T15:52:54.999Z</time></trkpt><trkpt lat="44.79200517639704" lon="7.899618821340735"><ele>388.0</ele><time>2026-04-05T15:52:55.999Z</time></trkpt><trkpt lat="44.79211522432757" lon="7.899505571454075"><ele>388.5</ele><time>2026-04-05T15:52:56.999Z</time></trkpt><trkpt lat="44.79222765621779" lon="7.899409701374863"><ele>389.0</ele><time>2026-04-05T15:52:57.999Z</time></trkpt><trkpt lat="44.792336417352956" lon="7.899326498798584"><ele>389.5</ele><time>2026-04-05T15:52:58.999Z</time></trkpt><trkpt lat="44.79243129305664" lon="7.899245167027201"><ele>390.0</ele><time>2026-04-05T15:52:59.999Z</time></trkpt><trkpt lat="44.79252045104936" lon="7.899162993317986"><ele>390.0</ele><time>2026-04-05T15:53:00.999Z</time></trkpt><trkpt lat="44.7926063943611" lon="7.8990822832437395"><ele>390.0</ele><time>2026-04-05T15:53:01.999Z</time></trkpt><trkpt lat="44.79268761010018" lon="7.89900648743509"><ele>390.0</ele><time>2026-04-05T15:53:02.999Z</time></trkpt><trkpt lat="44.79278232357876" lon="7.898920670152462"><ele>390.0</ele><time>2026-04-05T15:53:03.999Z</time></trkpt><trkpt lat="44.79289714041773" lon="7.898833264121367"><ele>390.0</ele><time>2026-04-05T15:53:04.999Z</time></trkpt><trkpt lat="44.793027721507144" lon="7.898757397547673"><ele>390.0</ele><time>2026-04-05T15:53:05.999Z</time></trkpt><trkpt lat="44.79316314699413" lon="7.898691597579328"><ele>390.0</ele><time>2026-04-05T15:53:06.999Z</time></trkpt><trkpt lat="44.79328184119344" lon="7.898620897936098"><ele>390.0</ele><time>2026-04-05T15:53:07.999Z</time></trkpt><trkpt lat="44.79338408041918" lon="7.898536392467536"><ele>390.0</ele><time>2026-04-05T15:53:08.999Z</time></trkpt><trkpt lat="44.79346779705249" lon="7.898440901062531"><ele>389.0</ele><time>2026-04-05T15:53:09.999Z</time></trkpt><trkpt lat="44.793531099302186" lon="7.898326315434149"><ele>388.0</ele><time>2026-04-05T15:53:10.999Z</time></trkpt><trkpt lat="44.79358031750467" lon="7.898179164218057"><ele>387.0</ele><time>2026-04-05T15:53:11.999Z</time></trkpt><trkpt lat="44.793600407250736" lon="7.897999653039454"><ele>386.0</ele><time>2026-04-05T15:53:12.999Z</time></trkpt><trkpt lat="44.79362576133463" lon="7.897817328717011"><ele>386.0</ele><time>2026-04-05T15:53:13.999Z</time></trkpt><trkpt lat="44.793665459758614" lon="7.897630882802569"><ele>386.0</ele><time>2026-04-05T15:53:14.999Z</time></trkpt><trkpt lat="44.79370975851084" lon="7.897443688623245"><ele>386.0</ele><time>2026-04-05T15:53:15.999Z</time></trkpt><trkpt lat="44.79376183406644" lon="7.897253319799667"><ele>386.0</ele><time>2026-04-05T15:53:16.999Z</time></trkpt><trkpt lat="44.79381295636412" lon="7.8970741399487645"><ele>385.75</ele><time>2026-04-05T15:53:17.999Z</time></trkpt><trkpt lat="44.793860071049394" lon="7.896901767791568"><ele>385.5</ele><time>2026-04-05T15:53:18.999Z</time></trkpt><trkpt lat="44.793902409224025" lon="7.896723832787202"><ele>385.25</ele><time>2026-04-05T15:53:19.999Z</time></trkpt><trkpt lat="44.79392756016426" lon="7.896547298189356"><ele>385.0</ele><time>2026-04-05T15:53:20.999Z</time></trkpt><trkpt lat="44.79394796125743" lon="7.896371342966895"><ele>385.0</ele><time>2026-04-05T15:53:21.999Z</time></trkpt><trkpt lat="44.793984910530504" lon="7.896187169011903"><ele>385.0</ele><time>2026-04-05T15:53:22.999Z</time></trkpt><trkpt lat="44.79403318771351" lon="7.895979380875773"><ele>385.0</ele><time>2026-04-05T15:53:23.999Z</time></trkpt><trkpt lat="44.794105920346155" lon="7.895826534512159"><ele>385.0</ele><time>2026-04-05T15:53:24.999Z</time></trkpt><trkpt lat="44.79416207456298" lon="7.895674927342667"><ele>385.25</ele><time>2026-04-05T15:53:25.999Z</time></trkpt><trkpt lat="44.794217938231206" lon="7.89552093817872"><ele>385.5</ele><time>2026-04-05T15:53:26.999Z</time></trkpt><trkpt lat="44.794261856335005" lon="7.895372756145579"><ele>385.75</ele><time>2026-04-05T15:53:27.999Z</time></trkpt><trkpt lat="44.79431452233381" lon="7.895232138585668"><ele>386.0</ele><time>2026-04-05T15:53:28.999Z</time></trkpt><trkpt lat="44.794375275927564" lon="7.8951057819223305"><ele>384.5</ele><time>2026-04-05T15:53:29.999Z</time></trkpt><trkpt lat="44.794451566208515" lon="7.894980870723865"><ele>383.0</ele><time>2026-04-05T15:53:30.999Z</time></trkpt><trkpt lat="44.794541331648944" lon="7.894861351260193"><ele>381.5</ele><time>2026-04-05T15:53:31.999Z</time></trkpt><trkpt lat="44.79464334201192" lon="7.894748579307214"><ele>380.0</ele><time>2026-04-05T15:53:32.999Z</time></trkpt><trkpt lat="44.794764669453144" lon="7.894650360356079"><ele>380.0</ele><time>2026-04-05T15:53:33.999Z</time></trkpt><trkpt lat="44.79489724707044" lon="7.894579151090515"><ele>380.0</ele><time>2026-04-05T15:53:34.999Z</time></trkpt><trkpt lat="44.795031982757216" lon="7.894506390879215"><ele>380.0</ele><time>2026-04-05T15:53:35.999Z</time></trkpt><trkpt lat="44.79516672086933" lon="7.89442704072"><ele>380.0</ele><time>2026-04-05T15:53:36.999Z</time></trkpt><trkpt lat="44.79529568798862" lon="7.894359698959642"><ele>380.25</ele><time>2026-04-05T15:53:37.999Z</time></trkpt><trkpt lat="44.79542065982052" lon="7.894303016223601"><ele>380.5</ele><time>2026-04-05T15:53:38.999Z</time></trkpt><trkpt lat="44.79554920332167" lon="7.894262875799023"><ele>380.75</ele><time>2026-04-05T15:53:39.998Z</time></trkpt><trkpt lat="44.79568281964539" lon="7.894242844645527"><ele>381.0</ele><time>2026-04-05T15:53:40.998Z</time></trkpt><trkpt lat="44.7958200460166" lon="7.894232776236586"><ele>381.0</ele><time>2026-04-05T15:53:41.998Z</time></trkpt><trkpt lat="44.79595605702409" lon="7.894238744853152"><ele>381.0</ele><time>2026-04-05T15:53:42.998Z</time></trkpt><trkpt lat="44.79608895065083" lon="7.894255240212081"><ele>381.0</ele><time>2026-04-05T15:53:43.998Z</time></trkpt><trkpt lat="44.7962157088419" lon="7.894269633784321"><ele>381.0</ele><time>2026-04-05T15:53:44.998Z</time></trkpt><trkpt lat="44.79634072185388" lon="7.894275913354671"><ele>380.25</ele><time>2026-04-05T15:53:45.998Z</time></trkpt><trkpt lat="44.79646900238053" lon="7.894266060274317"><ele>379.5</ele><time>2026-04-05T15:53:46.998Z</time></trkpt><trkpt lat="44.79658828840415" lon="7.894246128310815"><ele>378.75</ele><time>2026-04-05T15:53:48Z</time></trkpt><trkpt lat="44.79670285534841" lon="7.8942059715278905"><ele>378.0</ele><time>2026-04-05T15:53:49Z</time></trkpt><trkpt lat="44.796822492294574" lon="7.894149463944939"><ele>376.25</ele><time>2026-04-05T15:53:50Z</time></trkpt><trkpt lat="44.79694377031842" lon="7.894072963903127"><ele>374.5</ele><time>2026-04-05T15:53:51Z</time></trkpt><trkpt lat="44.7970536390202" lon="7.893999410382524"><ele>372.75</ele><time>2026-04-05T15:53:52Z</time></trkpt><trkpt lat="44.79716555532932" lon="7.893920832205469"><ele>371.0</ele><time>2026-04-05T15:53:53Z</time></trkpt><trkpt lat="44.79729043925622" lon="7.893852341593253"><ele>371.0</ele><time>2026-04-05T15:53:54Z</time></trkpt><trkpt lat="44.79739603502323" lon="7.893793181264005"><ele>371.0</ele><time>2026-04-05T15:53:55Z</time></trkpt><trkpt lat="44.79750942215264" lon="7.893715099194933"><ele>371.0</ele><time>2026-04-05T15:53:56Z</time></trkpt><trkpt lat="44.79761596632316" lon="7.893646185151746"><ele>371.0</ele><time>2026-04-05T15:53:57Z</time></trkpt><trkpt lat="44.79770597673098" lon="7.893589422106047"><ele>369.6</ele><time>2026-04-05T15:53:58Z</time></trkpt><trkpt lat="44.79778391332832" lon="7.893532962428104"><ele>368.20000000000005</ele><time>2026-04-05T15:53:59Z</time></trkpt><trkpt lat="44.797851025986496" lon="7.893456111242556"><ele>366.79999999999995</ele><time>2026-04-05T15:54:00Z</time></trkpt><trkpt lat="44.79790829251033" lon="7.893343346636399"><ele>365.4</ele><time>2026-04-05T15:54:01Z</time></trkpt><trkpt lat="44.797956713309816" lon="7.8931975435359165"><ele>364.0</ele><time>2026-04-05T15:54:02Z</time></trkpt><trkpt lat="44.797996875252366" lon="7.893031233921663"><ele>364.0</ele><time>2026-04-05T15:54:03Z</time></trkpt><trkpt lat="44.79802961647375" lon="7.8928520041814805"><ele>364.0</ele><time>2026-04-05T15:54:04Z</time></trkpt><trkpt lat="44.79806452000721" lon="7.8926731535080235"><ele>364.0</ele><time>2026-04-05T15:54:05Z</time></trkpt><trkpt lat="44.79811249069592" lon="7.892502171902251"><ele>364.0</ele><time>2026-04-05T15:54:06Z</time></trkpt><trkpt lat="44.79816594050901" lon="7.892331243066821"><ele>364.75</ele><time>2026-04-05T15:54:07Z</time></trkpt><trkpt lat="44.798217895332314" lon="7.89215524780848"><ele>365.5</ele><time>2026-04-05T15:54:08Z</time></trkpt><trkpt lat="44.798295081262886" lon="7.892011625793812"><ele>366.25</ele><time>2026-04-05T15:54:09Z</time></trkpt><trkpt lat="44.79836047277905" lon="7.891864535416381"><ele>367.0</ele><time>2026-04-05T15:54:10Z</time></trkpt><trkpt lat="44.798421120070735" lon="7.891726956495823"><ele>366.5</ele><time>2026-04-05T15:54:11Z</time></trkpt><trkpt lat="44.79849272036925" lon="7.8915969425765535"><ele>366.0</ele><time>2026-04-05T15:54:12Z</time></trkpt><trkpt lat="44.79858801497733" lon="7.891487067188961"><ele>365.5</ele><time>2026-04-05T15:54:13Z</time></trkpt><trkpt lat="44.79870402373834" lon="7.891417085608055"><ele>365.0</ele><time>2026-04-05T15:54:14Z</time></trkpt><trkpt lat="44.798829360500115" lon="7.891380701018142"><ele>365.0</ele><time>2026-04-05T15:54:15Z</time></trkpt><trkpt lat="44.79895516024915" lon="7.891358038503659"><ele>365.0</ele><time>2026-04-05T15:54:16Z</time></trkpt><trkpt lat="44.79908501456341" lon="7.891355408397197"><ele>365.0</ele><time>2026-04-05T15:54:17Z</time></trkpt><trkpt lat="44.79922048147939" lon="7.891358765623016"><ele>365.0</ele><time>2026-04-05T15:54:18Z</time></trkpt><trkpt lat="44.79935531957045" lon="7.891379536414689"><ele>366.75</ele><time>2026-04-05T15:54:19Z</time></trkpt><trkpt lat="44.7994906522199" lon="7.8914226254560225"><ele>368.5</ele><time>2026-04-05T15:54:20Z</time></trkpt><trkpt lat="44.79961484488918" lon="7.891477009722057"><ele>370.25</ele><time>2026-04-05T15:54:21Z</time></trkpt><trkpt lat="44.79972525799453" lon="7.8915212523632405"><ele>372.0</ele><time>2026-04-05T15:54:22Z</time></trkpt><trkpt lat="44.79982827020164" lon="7.891561134355493"><ele>372.0</ele><time>2026-04-05T15:54:23Z</time></trkpt><trkpt lat="44.799928283532175" lon="7.891587834223331"><ele>372.0</ele><time>2026-04-05T15:54:24Z</time></trkpt><trkpt lat="44.80003736609806" lon="7.891586012845691"><ele>372.0</ele><time>2026-04-05T15:54:25Z</time></trkpt><trkpt lat="44.80014756718924" lon="7.891574684700117"><ele>372.0</ele><time>2026-04-05T15:54:26Z</time></trkpt><trkpt lat="44.80025470570878" lon="7.891523659135613"><ele>372.0</ele><time>2026-04-05T15:54:27Z</time></trkpt><trkpt lat="44.80036873690227" lon="7.891465951788048"><ele>372.5</ele><time>2026-04-05T15:54:28Z</time></trkpt><trkpt lat="44.80049720271904" lon="7.891423003939674"><ele>373.0</ele><time>2026-04-05T15:54:29Z</time></trkpt><trkpt lat="44.80064002973483" lon="7.891409257698803"><ele>373.5</ele><time>2026-04-05T15:54:30Z</time></trkpt><trkpt lat="44.80079064168401" lon="7.891408448074642"><ele>374.0</ele><time>2026-04-05T15:54:31Z</time></trkpt><trkpt lat="44.80094829523466" lon="7.891409461096615"><ele>373.33333333333337</ele><time>2026-04-05T15:54:32Z</time></trkpt><trkpt lat="44.801109540539244" lon="7.891403959619765"><ele>372.6666666666667</ele><time>2026-04-05T15:54:33Z</time></trkpt><trkpt lat="44.80127020180613" lon="7.891382933893154"><ele>372.0</ele><time>2026-04-05T15:54:34Z</time></trkpt><trkpt lat="44.801428396871586" lon="7.891349894526826"><ele>372.0</ele><time>2026-04-05T15:54:35Z</time></trkpt><trkpt lat="44.80157394322313" lon="7.891305897033035"><ele>372.0</ele><time>2026-04-05T15:54:35.999Z</time></trkpt><trkpt lat="44.80170634720158" lon="7.891259445924208"><ele>372.0</ele><time>2026-04-05T15:54:36.999Z</time></trkpt><trkpt lat="44.80183187348924" lon="7.891220321353832"><ele>372.0</ele><time>2026-04-05T15:54:37.999Z</time></trkpt><trkpt lat="44.8019506477969" lon="7.891181098006938"><ele>371.5</ele><time>2026-04-05T15:54:38.999Z</time></trkpt><trkpt lat="44.8020714967304" lon="7.891149753085618"><ele>371.0</ele><time>2026-04-05T15:54:39.999Z</time></trkpt><trkpt lat="44.8022025357401" lon="7.891124867477942"><ele>370.5</ele><time>2026-04-05T15:54:40.999Z</time></trkpt><trkpt lat="44.802345474433764" lon="7.891120582491751"><ele>370.0</ele><time>2026-04-05T15:54:41.999Z</time></trkpt><trkpt lat="44.80249996551024" lon="7.8911258864017855"><ele>370.3333333333333</ele><time>2026-04-05T15:54:42.999Z</time></trkpt><trkpt lat="44.80266482750868" lon="7.891130964409358"><ele>370.6666666666667</ele><time>2026-04-05T15:54:43.999Z</time></trkpt><trkpt lat="44.80283839174002" lon="7.89113073975965"><ele>371.0</ele><time>2026-04-05T15:54:44.999Z</time></trkpt><trkpt lat="44.80301451446227" lon="7.891128603996833"><ele>371.0</ele><time>2026-04-05T15:54:45.999Z</time></trkpt><trkpt lat="44.80318941364664" lon="7.8911236834993765"><ele>371.0</ele><time>2026-04-05T15:54:46.999Z</time></trkpt><trkpt lat="44.80337290622928" lon="7.89111806768922"><ele>371.0</ele><time>2026-04-05T15:54:47.999Z</time></trkpt><trkpt lat="44.80356296133938" lon="7.891105722965447"><ele>370.0</ele><time>2026-04-05T15:54:48.999Z</time></trkpt><trkpt lat="44.80375048599754" lon="7.891098443408794"><ele>369.0</ele><time>2026-04-05T15:54:49.999Z</time></trkpt><trkpt lat="44.803932936806184" lon="7.891083498799699"><ele>368.0</ele><time>2026-04-05T15:54:50.999Z</time></trkpt><trkpt lat="44.8040893063197" lon="7.891074504818033"><ele>368.0</ele><time>2026-04-05T15:54:51.999Z</time></trkpt><trkpt lat="44.80425791413241" lon="7.891068255857838"><ele>368.0</ele><time>2026-04-05T15:54:52.999Z</time></trkpt><trkpt lat="44.80441719894997" lon="7.891076307141"><ele>368.0</ele><time>2026-04-05T15:54:53.999Z</time></trkpt><trkpt lat="44.80457352197818" lon="7.891074642549762"><ele>365.33333333333337</ele><time>2026-04-05T15:54:54.999Z</time></trkpt><trkpt lat="44.804734570846854" lon="7.891066934203112"><ele>362.6666666666667</ele><time>2026-04-05T15:54:55.999Z</time></trkpt><trkpt lat="44.80490423557244" lon="7.891061634689526"><ele>360.0</ele><time>2026-04-05T15:54:56.999Z</time></trkpt><trkpt lat="44.80507001191455" lon="7.8910622292762955"><ele>359.5</ele><time>2026-04-05T15:54:57.999Z</time></trkpt><trkpt lat="44.80521944751722" lon="7.891063104154056"><ele>359.0</ele><time>2026-04-05T15:54:58.999Z</time></trkpt><trkpt lat="44.80536527898495" lon="7.89105801478936"><ele>358.5</ele><time>2026-04-05T15:54:59.999Z</time></trkpt><trkpt lat="44.805504442490886" lon="7.891051707512055"><ele>358.0</ele><time>2026-04-05T15:55:00.999Z</time></trkpt><trkpt lat="44.805637895874284" lon="7.89105035630204"><ele>358.0</ele><time>2026-04-05T15:55:01.999Z</time></trkpt><trkpt lat="44.80576665730032" lon="7.891045359647826"><ele>358.0</ele><time>2026-04-05T15:55:02.999Z</time></trkpt><trkpt lat="44.80590300498832" lon="7.891040750635954"><ele>358.0</ele><time>2026-04-05T15:55:03.999Z</time></trkpt><trkpt lat="44.80603398384473" lon="7.891027887438032"><ele>358.0</ele><time>2026-04-05T15:55:04.999Z</time></trkpt><trkpt lat="44.806155672514684" lon="7.891026565170144"><ele>357.5</ele><time>2026-04-05T15:55:05.999Z</time></trkpt><trkpt lat="44.80626115658898" lon="7.891009912469463"><ele>357.0</ele><time>2026-04-05T15:55:06.999Z</time></trkpt><trkpt lat="44.806376969374774" lon="7.890968506180212"><ele>356.5</ele><time>2026-04-05T15:55:07.999Z</time></trkpt><trkpt lat="44.806499986004695" lon="7.890910216769077"><ele>356.0</ele><time>2026-04-05T15:55:08.999Z</time></trkpt><trkpt lat="44.80663444897293" lon="7.890846022195198"><ele>357.5</ele><time>2026-04-05T15:55:09.999Z</time></trkpt><trkpt lat="44.806779151929156" lon="7.890779163875253"><ele>359.0</ele><time>2026-04-05T15:55:10.999Z</time></trkpt><trkpt lat="44.806916178658966" lon="7.89071107435847"><ele>360.5</ele><time>2026-04-05T15:55:11.999Z</time></trkpt><trkpt lat="44.80704311205124" lon="7.8906551088766035"><ele>362.0</ele><time>2026-04-05T15:55:12.999Z</time></trkpt><trkpt lat="44.80716177574536" lon="7.890602894527932"><ele>362.0</ele><time>2026-04-05T15:55:13.999Z</time></trkpt><trkpt lat="44.80728357058957" lon="7.890563964519858"><ele>362.0</ele><time>2026-04-05T15:55:14.999Z</time></trkpt><trkpt lat="44.80741668250008" lon="7.890544095175549"><ele>362.0</ele><time>2026-04-05T15:55:15.999Z</time></trkpt><trkpt lat="44.80755694598865" lon="7.890548817149306"><ele>362.0</ele><time>2026-04-05T15:55:16.999Z</time></trkpt><trkpt lat="44.80769427009085" lon="7.890582475962552"><ele>362.0</ele><time>2026-04-05T15:55:17.999Z</time></trkpt><trkpt lat="44.807828604278775" lon="7.890628581903526"><ele>362.0</ele><time>2026-04-05T15:55:18.999Z</time></trkpt><trkpt lat="44.807952406716474" lon="7.8906569466167555"><ele>362.0</ele><time>2026-04-05T15:55:19.999Z</time></trkpt><trkpt lat="44.80808467429314" lon="7.890658455968486"><ele>362.0</ele><time>2026-04-05T15:55:20.999Z</time></trkpt><trkpt lat="44.80822488481211" lon="7.890648890731343"><ele>362.0</ele><time>2026-04-05T15:55:21.999Z</time></trkpt><trkpt lat="44.808375118293185" lon="7.890632760967182"><ele>362.0</ele><time>2026-04-05T15:55:22.999Z</time></trkpt><trkpt lat="44.808510822283715" lon="7.890611054156091"><ele>362.0</ele><time>2026-04-05T15:55:23.999Z</time></trkpt><trkpt lat="44.80864262934242" lon="7.890591121068776"><ele>362.0</ele><time>2026-04-05T15:55:24.999Z</time></trkpt><trkpt lat="44.808772070065494" lon="7.890577678000324"><ele>362.25</ele><time>2026-04-05T15:55:25.999Z</time></trkpt><trkpt lat="44.80890091835407" lon="7.890555207493991"><ele>362.5</ele><time>2026-04-05T15:55:26.999Z</time></trkpt><trkpt lat="44.809025399520856" lon="7.890533055418463"><ele>362.75</ele><time>2026-04-05T15:55:27.999Z</time></trkpt><trkpt lat="44.80915599356675" lon="7.890504857460009"><ele>363.0</ele><time>2026-04-05T15:55:28.999Z</time></trkpt><trkpt lat="44.80928421782574" lon="7.890445518319532"><ele>361.75</ele><time>2026-04-05T15:55:29.999Z</time></trkpt><trkpt lat="44.8094019678654" lon="7.8903544235987555"><ele>360.5</ele><time>2026-04-05T15:55:30.999Z</time></trkpt><trkpt lat="44.80951843918922" lon="7.890249659710806"><ele>359.25</ele><time>2026-04-05T15:55:31.999Z</time></trkpt><trkpt lat="44.809614870289025" lon="7.890136589116263"><ele>358.0</ele><time>2026-04-05T15:55:32.999Z</time></trkpt><trkpt lat="44.80970480620055" lon="7.890026379549432"><ele>357.75</ele><time>2026-04-05T15:55:33.999Z</time></trkpt><trkpt lat="44.8097909164896" lon="7.889926035465585"><ele>357.5</ele><time>2026-04-05T15:55:34.999Z</time></trkpt><trkpt lat="44.80987615160537" lon="7.889833315879121"><ele>357.25</ele><time>2026-04-05T15:55:35.999Z</time></trkpt><trkpt lat="44.80997106548833" lon="7.889742569598223"><ele>357.0</ele><time>2026-04-05T15:55:36.999Z</time></trkpt><trkpt lat="44.81007626028949" lon="7.889657908650247"><ele>355.75</ele><time>2026-04-05T15:55:37.999Z</time></trkpt><trkpt lat="44.81019147265302" lon="7.889579347065487"><ele>354.5</ele><time>2026-04-05T15:55:38.999Z</time></trkpt><trkpt lat="44.81031732774676" lon="7.889502451301587"><ele>353.25</ele><time>2026-04-05T15:55:39.999Z</time></trkpt><trkpt lat="44.810451627730856" lon="7.8894294015935476"><ele>352.0</ele><time>2026-04-05T15:55:40.999Z</time></trkpt><trkpt lat="44.810587548192906" lon="7.889356138519429"><ele>352.0</ele><time>2026-04-05T15:55:41.998Z</time></trkpt><trkpt lat="44.81072647544642" lon="7.889292625146544"><ele>352.0</ele><time>2026-04-05T15:55:42.998Z</time></trkpt><trkpt lat="44.810857498510316" lon="7.889235564989712"><ele>352.0</ele><time>2026-04-05T15:55:43.998Z</time></trkpt><trkpt lat="44.810989280300376" lon="7.889182679424763"><ele>352.0</ele><time>2026-04-05T15:55:44.998Z</time></trkpt><trkpt lat="44.8111232659584" lon="7.889129249855015"><ele>352.0</ele><time>2026-04-05T15:55:45.998Z</time></trkpt><trkpt lat="44.811256864886616" lon="7.8890796294795535"><ele>352.0</ele><time>2026-04-05T15:55:46.998Z</time></trkpt><trkpt lat="44.81138979561893" lon="7.8890236085049255"><ele>352.0</ele><time>2026-04-05T15:55:47.998Z</time></trkpt><trkpt lat="44.81152438808608" lon="7.8889655421123175"><ele>352.0</ele><time>2026-04-05T15:55:48.998Z</time></trkpt><trkpt lat="44.8116578980435" lon="7.888907831652686"><ele>352.0</ele><time>2026-04-05T15:55:49.998Z</time></trkpt><trkpt lat="44.81178955240466" lon="7.888844265271708"><ele>352.0</ele><time>2026-04-05T15:55:50.998Z</time></trkpt><trkpt lat="44.81190780751145" lon="7.888776941221064"><ele>352.0</ele><time>2026-04-05T15:55:51.998Z</time></trkpt><trkpt lat="44.81201418656882" lon="7.888707922257422"><ele>352.0</ele><time>2026-04-05T15:55:52.998Z</time></trkpt><trkpt lat="44.812118350421976" lon="7.888629818881932"><ele>352.0</ele><time>2026-04-05T15:55:54Z</time></trkpt><trkpt lat="44.812209704764385" lon="7.888546125090162"><ele>352.0</ele><time>2026-04-05T15:55:55Z</time></trkpt><trkpt lat="44.812293459595914" lon="7.88846477535078"><ele>352.0</ele><time>2026-04-05T15:55:56Z</time></trkpt><trkpt lat="44.81235277226021" lon="7.888364657531164"><ele>352.0</ele><time>2026-04-05T15:55:57Z</time></trkpt><trkpt lat="44.812389200920386" lon="7.888239434256488"><ele>352.0</ele><time>2026-04-05T15:55:58Z</time></trkpt><trkpt lat="44.81239587713311" lon="7.888091587312889"><ele>352.0</ele><time>2026-04-05T15:55:59Z</time></trkpt><trkpt lat="44.8123835037343" lon="7.887939770689983"><ele>352.0</ele><time>2026-04-05T15:56:00Z</time></trkpt><trkpt lat="44.812371946635345" lon="7.887801422723106"><ele>352.0</ele><time>2026-04-05T15:56:01Z</time></trkpt><trkpt lat="44.81236817657781" lon="7.887676633507999"><ele>352.0</ele><time>2026-04-05T15:56:02Z</time></trkpt><trkpt lat="44.81238875814417" lon="7.887569406751576"><ele>352.0</ele><time>2026-04-05T15:56:03Z</time></trkpt><trkpt lat="44.81243900182539" lon="7.887474782975817"><ele>351.75</ele><time>2026-04-05T15:56:04Z</time></trkpt><trkpt lat="44.812520274973046" lon="7.887408445881083"><ele>351.5</ele><time>2026-04-05T15:56:05Z</time></trkpt><trkpt lat="44.81262714525362" lon="7.88738934845089"><ele>351.25</ele><time>2026-04-05T15:56:06Z</time></trkpt><trkpt lat="44.81274552140458" lon="7.887419404591218"><ele>351.0</ele><time>2026-04-05T15:56:07Z</time></trkpt><trkpt lat="44.81287153012473" lon="7.887477386666079"><ele>350.75</ele><time>2026-04-05T15:56:08Z</time></trkpt><trkpt lat="44.81300079157748" lon="7.887539951736991"><ele>350.5</ele><time>2026-04-05T15:56:09Z</time></trkpt><trkpt lat="44.81312691210488" lon="7.8875968053528105"><ele>350.25</ele><time>2026-04-05T15:56:10Z</time></trkpt><trkpt lat="44.81323957120126" lon="7.887648171706771"><ele>350.0</ele><time>2026-04-05T15:56:11Z</time></trkpt><trkpt lat="44.81335107296591" lon="7.887698155820912"><ele>350.0</ele><time>2026-04-05T15:56:12Z</time></trkpt><trkpt lat="44.813460426861475" lon="7.887750189155109"><ele>350.0</ele><time>2026-04-05T15:56:13Z</time></trkpt><trkpt lat="44.8135612716541" lon="7.8878002980337"><ele>350.0</ele><time>2026-04-05T15:56:14Z</time></trkpt><trkpt lat="44.81365779157895" lon="7.887855559360707"><ele>350.0</ele><time>2026-04-05T15:56:15Z</time></trkpt><trkpt lat="44.81375236807013" lon="7.8879031182945685"><ele>350.0</ele><time>2026-04-05T15:56:16Z</time></trkpt><trkpt lat="44.81383045172414" lon="7.887972997437716"><ele>348.6</ele><time>2026-04-05T15:56:17Z</time></trkpt><trkpt lat="44.8138879590285" lon="7.888076337749418"><ele>347.2</ele><time>2026-04-05T15:56:18Z</time></trkpt><trkpt lat="44.81392793528247" lon="7.888210051466871"><ele>345.79999999999995</ele><time>2026-04-05T15:56:19Z</time></trkpt><trkpt lat="44.813954158226146" lon="7.888339013953764"><ele>344.4</ele><time>2026-04-05T15:56:20Z</time></trkpt><trkpt lat="44.81395829911258" lon="7.888464794246982"><ele>343.0</ele><time>2026-04-05T15:56:21Z</time></trkpt><trkpt lat="44.81394071764841" lon="7.888601562222548"><ele>342.3333333333333</ele><time>2026-04-05T15:56:22Z</time></trkpt><trkpt lat="44.813894033956856" lon="7.888729957178298"><ele>341.66666666666663</ele><time>2026-04-05T15:56:23Z</time></trkpt><trkpt lat="44.81384271635881" lon="7.88884001012737"><ele>341.0</ele><time>2026-04-05T15:56:24Z</time></trkpt><trkpt lat="44.813800690624" lon="7.888933117113089"><ele>340.3333333333333</ele><time>2026-04-05T15:56:25Z</time></trkpt><trkpt lat="44.81378591281724" lon="7.889037213409676"><ele>339.6666666666667</ele><time>2026-04-05T15:56:26Z</time></trkpt><trkpt lat="44.81381221021254" lon="7.889163511301134"><ele>339.0</ele><time>2026-04-05T15:56:27Z</time></trkpt><trkpt lat="44.81387571038763" lon="7.889288778600448"><ele>338.2</ele><time>2026-04-05T15:56:28Z</time></trkpt><trkpt lat="44.813940360160395" lon="7.889418648385343"><ele>337.4</ele><time>2026-04-05T15:56:29Z</time></trkpt><trkpt lat="44.81399462807063" lon="7.889546659472776"><ele>336.6</ele><time>2026-04-05T15:56:30Z</time></trkpt><trkpt lat="44.81403869440551" lon="7.889672851867137"><ele>335.8</ele><time>2026-04-05T15:56:31Z</time></trkpt><trkpt lat="44.814081296382646" lon="7.8897917377875295"><ele>335.0</ele><time>2026-04-05T15:56:32Z</time></trkpt><trkpt lat="44.81413547352122" lon="7.88989830689486"><ele>335.0</ele><time>2026-04-05T15:56:33Z</time></trkpt><trkpt lat="44.81420922797118" lon="7.889977700144996"><ele>335.0</ele><time>2026-04-05T15:56:34Z</time></trkpt><trkpt lat="44.814302704473874" lon="7.890022396873531"><ele>335.0</ele><time>2026-04-05T15:56:35Z</time></trkpt><trkpt lat="44.81440913183555" lon="7.8900386458729255"><ele>335.0</ele><time>2026-04-05T15:56:36Z</time></trkpt><trkpt lat="44.81450772722633" lon="7.890028089150304"><ele>335.0</ele><time>2026-04-05T15:56:37Z</time></trkpt><trkpt lat="44.81460047677753" lon="7.890013552733763"><ele>333.6666666666667</ele><time>2026-04-05T15:56:38Z</time></trkpt><trkpt lat="44.81468672730158" lon="7.890031857752106"><ele>332.33333333333337</ele><time>2026-04-05T15:56:39Z</time></trkpt><trkpt lat="44.814762573084096" lon="7.890097575537596"><ele>331.0</ele><time>2026-04-05T15:56:40Z</time></trkpt><trkpt lat="44.81480422693082" lon="7.890212288472519"><ele>329.6666666666667</ele><time>2026-04-05T15:56:41Z</time></trkpt><trkpt lat="44.814814852320076" lon="7.890333905748722"><ele>328.3333333333333</ele><time>2026-04-05T15:56:42Z</time></trkpt><trkpt lat="44.81485949482372" lon="7.890441521803272"><ele>327.0</ele><time>2026-04-05T15:56:43Z</time></trkpt><trkpt lat="44.814925975090134" lon="7.890514455689366"><ele>327.0</ele><time>2026-04-05T15:56:44Z</time></trkpt><trkpt lat="44.81500633440746" lon="7.890555338800665"><ele>327.0</ele><time>2026-04-05T15:56:45Z</time></trkpt><trkpt lat="44.815101286197724" lon="7.890586789788958"><ele>327.0</ele><time>2026-04-05T15:56:46Z</time></trkpt><trkpt lat="44.81519390868698" lon="7.89063127272117"><ele>327.0</ele><time>2026-04-05T15:56:46.999Z</time></trkpt><trkpt lat="44.8152926022842" lon="7.890679229073783"><ele>327.0</ele><time>2026-04-05T15:56:47.999Z</time></trkpt><trkpt lat="44.81538047759163" lon="7.890721700067037"><ele>326.6666666666667</ele><time>2026-04-05T15:56:48.999Z</time></trkpt><trkpt lat="44.815467377377445" lon="7.890754494930408"><ele>326.3333333333333</ele><time>2026-04-05T15:56:49.999Z</time></trkpt><trkpt lat="44.81554767998689" lon="7.890777185265347"><ele>326.0</ele><time>2026-04-05T15:56:50.999Z</time></trkpt><trkpt lat="44.81562818158959" lon="7.890807640463956"><ele>325.66666666666663</ele><time>2026-04-05T15:56:51.999Z</time></trkpt><trkpt lat="44.81569414334071" lon="7.8908375587916035"><ele>325.3333333333333</ele><time>2026-04-05T15:56:52.999Z</time></trkpt><trkpt lat="44.815787171062425" lon="7.890902833117628"><ele>325.0</ele><time>2026-04-05T15:56:54.999Z</time></trkpt><trkpt lat="44.81586037171413" lon="7.891017154971877"><ele>324.16666666666663</ele><time>2026-04-05T15:56:56.999Z</time></trkpt><trkpt lat="44.81592995692153" lon="7.891027926468375"><ele>323.3333333333333</ele><time>2026-04-05T15:56:57.999Z</time></trkpt><trkpt lat="44.816017255833664" lon="7.891019811786977"><ele>322.5</ele><time>2026-04-05T15:56:58.999Z</time></trkpt><trkpt lat="44.81610795870321" lon="7.8910246494913014"><ele>321.6666666666667</ele><time>2026-04-05T15:56:59.999Z</time></trkpt><trkpt lat="44.81620148600425" lon="7.891038767037384"><ele>320.83333333333337</ele><time>2026-04-05T15:57:00.999Z</time></trkpt><trkpt lat="44.81629327806365" lon="7.891063262428821"><ele>320.0</ele><time>2026-04-05T15:57:01.999Z</time></trkpt><trkpt lat="44.816369514821965" lon="7.891078001313874"><ele>320.0</ele><time>2026-04-05T15:57:02.999Z</time></trkpt><trkpt lat="44.81644218091155" lon="7.891085174379459"><ele>320.0</ele><time>2026-04-05T15:57:03.999Z</time></trkpt><trkpt lat="44.816507284875726" lon="7.891087158784655"><ele>320.0</ele><time>2026-04-05T15:57:04.999Z</time></trkpt><trkpt lat="44.81657422800061" lon="7.891093967757936"><ele>320.0</ele><time>2026-04-05T15:57:05.999Z</time></trkpt><trkpt lat="44.81663855430314" lon="7.891085466256785"><ele>320.0</ele><time>2026-04-05T15:57:06.999Z</time></trkpt><trkpt lat="44.81671739092423" lon="7.891052343633441"><ele>320.0</ele><time>2026-04-05T15:57:07.999Z</time></trkpt><trkpt lat="44.81678359850275" lon="7.891059780259469"><ele>320.0</ele><time>2026-04-05T15:57:09.999Z</time></trkpt><trkpt lat="44.81682613243265" lon="7.89112609198572"><ele>318.85714285714283</ele><time>2026-04-05T15:57:10.999Z</time></trkpt><trkpt lat="44.81687163582517" lon="7.891187828624791"><ele>317.7142857142857</ele><time>2026-04-05T15:57:11.999Z</time></trkpt><trkpt lat="44.816936377328254" lon="7.891205787644033"><ele>316.57142857142856</ele><time>2026-04-05T15:57:12.999Z</time></trkpt><trkpt lat="44.81700568382566" lon="7.891181002636169"><ele>315.42857142857144</ele><time>2026-04-05T15:57:13.999Z</time></trkpt><trkpt lat="44.8170897353557" lon="7.891163784732464"><ele>314.2857142857143</ele><time>2026-04-05T15:57:14.999Z</time></trkpt><trkpt lat="44.817158837324776" lon="7.8911484365325"><ele>313.14285714285717</ele><time>2026-04-05T15:57:15.999Z</time></trkpt><trkpt lat="44.81722045488791" lon="7.891112783100122"><ele>312.0</ele><time>2026-04-05T15:57:16.999Z</time></trkpt><trkpt lat="44.81726941218212" lon="7.891052484959472"><ele>312.0</ele><time>2026-04-05T15:57:17.999Z</time></trkpt><trkpt lat="44.81734476742122" lon="7.89094902829163"><ele>312.0</ele><time>2026-04-05T15:57:19.999Z</time></trkpt><trkpt lat="44.81744696555095" lon="7.891032340141979"><ele>312.0</ele><time>2026-04-05T15:57:21.999Z</time></trkpt><trkpt lat="44.81740475174253" lon="7.891200541352822"><ele>312.0</ele><time>2026-04-05T15:57:23.999Z</time></trkpt><trkpt lat="44.81735235305073" lon="7.891266323379752"><ele>312.0</ele><time>2026-04-05T15:57:24.999Z</time></trkpt><trkpt lat="44.81728629338999" lon="7.891319484188035"><ele>312.0</ele><time>2026-04-05T15:57:25.999Z</time></trkpt><trkpt lat="44.81723123405605" lon="7.891397886877357"><ele>312.0</ele><time>2026-04-05T15:57:26.999Z</time></trkpt><trkpt lat="44.81719283021555" lon="7.891488196791851"><ele>312.0</ele><time>2026-04-05T15:57:27.999Z</time></trkpt><trkpt lat="44.817172990567364" lon="7.891574704338733"><ele>312.0</ele><time>2026-04-05T15:57:28.999Z</time></trkpt><trkpt lat="44.817225166437176" lon="7.89171337864884"><ele>312.0</ele><time>2026-04-05T15:57:30.999Z</time></trkpt><trkpt lat="44.81733937461634" lon="7.891704493299442"><ele>312.0</ele><time>2026-04-05T15:57:32.999Z</time></trkpt><trkpt lat="44.817407320959646" lon="7.891632552606752"><ele>312.0</ele><time>2026-04-05T15:57:33.999Z</time></trkpt><trkpt lat="44.81748527781724" lon="7.891542718143558"><ele>312.0</ele><time>2026-04-05T15:57:34.999Z</time></trkpt><trkpt lat="44.817584914165366" lon="7.8914588400852175"><ele>312.0</ele><time>2026-04-05T15:57:35.999Z</time></trkpt><trkpt lat="44.81769140009657" lon="7.891384655547719"><ele>312.0</ele><time>2026-04-05T15:57:36.999Z</time></trkpt><trkpt lat="44.81780213230481" lon="7.891310422984403"><ele>308.75</ele><time>2026-04-05T15:57:37.999Z</time></trkpt><trkpt lat="44.81791915355369" lon="7.8912281210702035"><ele>305.5</ele><time>2026-04-05T15:57:38.999Z</time></trkpt><trkpt lat="44.81802809340417" lon="7.8911473174893665"><ele>302.25</ele><time>2026-04-05T15:57:39.999Z</time></trkpt><trkpt lat="44.81813769507023" lon="7.891061934453728"><ele>299.0</ele><time>2026-04-05T15:57:40.999Z</time></trkpt><trkpt lat="44.81823953964105" lon="7.890966762181133"><ele>298.0</ele><time>2026-04-05T15:57:41.999Z</time></trkpt><trkpt lat="44.81833046416286" lon="7.890851193385538"><ele>297.0</ele><time>2026-04-05T15:57:42.999Z</time></trkpt><trkpt lat="44.81841526663066" lon="7.8907162559952555"><ele>296.0</ele><time>2026-04-05T15:57:43.999Z</time></trkpt><trkpt lat="44.81848442727415" lon="7.890579720846791"><ele>295.0</ele><time>2026-04-05T15:57:44.999Z</time></trkpt><trkpt lat="44.818562631763065" lon="7.890449938517105"><ele>295.0</ele><time>2026-04-05T15:57:45.999Z</time></trkpt><trkpt lat="44.81864798389741" lon="7.890361268709693"><ele>295.0</ele><time>2026-04-05T15:57:46.999Z</time></trkpt><trkpt lat="44.81875452759096" lon="7.890324012430818"><ele>295.0</ele><time>2026-04-05T15:57:47.999Z</time></trkpt><trkpt lat="44.81886215813545" lon="7.890327044846026"><ele>295.0</ele><time>2026-04-05T15:57:48.999Z</time></trkpt><trkpt lat="44.81897225358719" lon="7.890388365870623"><ele>295.0</ele><time>2026-04-05T15:57:49.999Z</time></trkpt><trkpt lat="44.81908124518915" lon="7.890462561239975"><ele>295.0</ele><time>2026-04-05T15:57:50.999Z</time></trkpt><trkpt lat="44.81919950267747" lon="7.890515784130802"><ele>295.0</ele><time>2026-04-05T15:57:51.998Z</time></trkpt><trkpt lat="44.819320875663244" lon="7.8905672134386045"><ele>295.0</ele><time>2026-04-05T15:57:52.998Z</time></trkpt><trkpt lat="44.81944310930813" lon="7.890624712137369"><ele>295.0</ele><time>2026-04-05T15:57:53.998Z</time></trkpt><trkpt lat="44.819562239316014" lon="7.890698421008819"><ele>295.0</ele><time>2026-04-05T15:57:54.998Z</time></trkpt><trkpt lat="44.81968337503843" lon="7.890772142738173"><ele>295.0</ele><time>2026-04-05T15:57:55.998Z</time></trkpt><trkpt lat="44.81980822198769" lon="7.890833117788615"><ele>295.0</ele><time>2026-04-05T15:57:56.998Z</time></trkpt><trkpt lat="44.81992702332795" lon="7.890885781889992"><ele>295.0</ele><time>2026-04-05T15:57:57.998Z</time></trkpt><trkpt lat="44.82003800430061" lon="7.89093850601537"><ele>295.0</ele><time>2026-04-05T15:57:58.998Z</time></trkpt><trkpt lat="44.82014589662198" lon="7.890991365585849"><ele>295.0</ele><time>2026-04-05T15:58:00Z</time></trkpt><trkpt lat="44.820257906211225" lon="7.89105318253919"><ele>295.0</ele><time>2026-04-05T15:58:01Z</time></trkpt><trkpt lat="44.82036413875681" lon="7.891125175915643"><ele>295.0</ele><time>2026-04-05T15:58:02Z</time></trkpt><trkpt lat="44.82046136092444" lon="7.891205697964873"><ele>295.6</ele><time>2026-04-05T15:58:03Z</time></trkpt><trkpt lat="44.820554279163204" lon="7.891276578299676"><ele>296.2</ele><time>2026-04-05T15:58:04Z</time></trkpt><trkpt lat="44.82063166911653" lon="7.891347776234898"><ele>296.8</ele><time>2026-04-05T15:58:05Z</time></trkpt><trkpt lat="44.82070004659871" lon="7.891413126114567"><ele>297.4</ele><time>2026-04-05T15:58:06Z</time></trkpt><trkpt lat="44.82077907353899" lon="7.891489680537031"><ele>298.0</ele><time>2026-04-05T15:58:08Z</time></trkpt><trkpt lat="44.82086192694033" lon="7.891460167769178"><ele>298.0</ele><time>2026-04-05T15:58:13Z</time></trkpt><trkpt lat="44.820867890940775" lon="7.891297399210885"><ele>298.0</ele><time>2026-04-05T15:58:15Z</time></trkpt><trkpt lat="44.82086981440474" lon="7.891193914784656"><ele>298.0</ele><time>2026-04-05T15:58:16Z</time></trkpt><trkpt lat="44.82088833595498" lon="7.89108084932634"><ele>298.0</ele><time>2026-04-05T15:58:17Z</time></trkpt><trkpt lat="44.820910632247724" lon="7.890965692310332"><ele>298.0</ele><time>2026-04-05T15:58:18Z</time></trkpt><trkpt lat="44.820940909369995" lon="7.8908531746642385"><ele>298.0</ele><time>2026-04-05T15:58:19Z</time></trkpt><trkpt lat="44.82099128094549" lon="7.890717175651137"><ele>299.25</ele><time>2026-04-05T15:58:20Z</time></trkpt><trkpt lat="44.82106502213638" lon="7.890574598672857"><ele>300.5</ele><time>2026-04-05T15:58:21Z</time></trkpt><trkpt lat="44.82115449449798" lon="7.89042465871555"><ele>301.75</ele><time>2026-04-05T15:58:22Z</time></trkpt><trkpt lat="44.82126374648488" lon="7.890270871170808"><ele>303.0</ele><time>2026-04-05T15:58:23Z</time></trkpt><trkpt lat="44.82137788276046" lon="7.890122551835946"><ele>300.6666666666667</ele><time>2026-04-05T15:58:24Z</time></trkpt><trkpt lat="44.82150077808422" lon="7.8899728295452105"><ele>298.33333333333337</ele><time>2026-04-05T15:58:25Z</time></trkpt><trkpt lat="44.821625990026504" lon="7.889818887544664"><ele>296.0</ele><time>2026-04-05T15:58:26Z</time></trkpt><trkpt lat="44.82175618893804" lon="7.889648546435367"><ele>298.0</ele><time>2026-04-05T15:58:27Z</time></trkpt><trkpt lat="44.821889254527704" lon="7.889478881810436"><ele>300.0</ele><time>2026-04-05T15:58:28Z</time></trkpt><trkpt lat="44.82202948588765" lon="7.88930567163329"><ele>302.0</ele><time>2026-04-05T15:58:29Z</time></trkpt><trkpt lat="44.822172456793815" lon="7.889123180646018"><ele>302.0</ele><time>2026-04-05T15:58:30Z</time></trkpt><trkpt lat="44.82232304858678" lon="7.8889387139146665"><ele>302.0</ele><time>2026-04-05T15:58:31Z</time></trkpt><trkpt lat="44.82247139476014" lon="7.888746220126774"><ele>302.0</ele><time>2026-04-05T15:58:32Z</time></trkpt><trkpt lat="44.82263607724545" lon="7.888572688542737"><ele>302.6666666666667</ele><time>2026-04-05T15:58:33Z</time></trkpt><trkpt lat="44.822805432111835" lon="7.888368913789493"><ele>303.3333333333333</ele><time>2026-04-05T15:58:34Z</time></trkpt><trkpt lat="44.822977217787965" lon="7.888161259872837"><ele>304.0</ele><time>2026-04-05T15:58:35Z</time></trkpt><trkpt lat="44.82313642112561" lon="7.887966455020002"><ele>304.0</ele><time>2026-04-05T15:58:36Z</time></trkpt><trkpt lat="44.823296599366266" lon="7.8877652710870585"><ele>304.0</ele><time>2026-04-05T15:58:37Z</time></trkpt><trkpt lat="44.82345692290027" lon="7.887564536797656"><ele>304.0</ele><time>2026-04-05T15:58:38Z</time></trkpt><trkpt lat="44.82361545765099" lon="7.887368593534255"><ele>306.0</ele><time>2026-04-05T15:58:39Z</time></trkpt><trkpt lat="44.82377115424694" lon="7.887173854618807"><ele>308.0</ele><time>2026-04-05T15:58:40Z</time></trkpt><trkpt lat="44.82392037052807" lon="7.886986858159573"><ele>310.0</ele><time>2026-04-05T15:58:41Z</time></trkpt><trkpt lat="44.82406017364881" lon="7.886813743189926"><ele>309.0</ele><time>2026-04-05T15:58:42Z</time></trkpt><trkpt lat="44.824194797549" lon="7.886650219471328"><ele>308.0</ele><time>2026-04-05T15:58:43Z</time></trkpt><trkpt lat="44.824322920482366" lon="7.886500666247743"><ele>307.0</ele><time>2026-04-05T15:58:44Z</time></trkpt><trkpt lat="44.82446432234315" lon="7.886358930393501"><ele>307.0</ele><time>2026-04-05T15:58:45Z</time></trkpt><trkpt lat="44.82461569512645" lon="7.886229784306303"><ele>307.0</ele><time>2026-04-05T15:58:46Z</time></trkpt><trkpt lat="44.82477799139714" lon="7.886114529534638"><ele>307.0</ele><time>2026-04-05T15:58:47Z</time></trkpt><trkpt lat="44.824960689115706" lon="7.886022699194968"><ele>305.0</ele><time>2026-04-05T15:58:47.999Z</time></trkpt><trkpt lat="44.825152426704584" lon="7.885943100107873"><ele>303.0</ele><time>2026-04-05T15:58:48.999Z</time></trkpt><trkpt lat="44.82534120712545" lon="7.885869507096065"><ele>301.0</ele><time>2026-04-05T15:58:49.999Z</time></trkpt><trkpt lat="44.825514695965595" lon="7.885786547251432"><ele>301.0</ele><time>2026-04-05T15:58:50.999Z</time></trkpt><trkpt lat="44.82567661751135" lon="7.8856922623680425"><ele>301.0</ele><time>2026-04-05T15:58:51.999Z</time></trkpt><trkpt lat="44.82583103246098" lon="7.8855812903786155"><ele>301.0</ele><time>2026-04-05T15:58:52.999Z</time></trkpt><trkpt lat="44.82597462904566" lon="7.885444724347485"><ele>302.66666666666663</ele><time>2026-04-05T15:58:53.999Z</time></trkpt><trkpt lat="44.82610238811731" lon="7.885252184506793"><ele>304.3333333333333</ele><time>2026-04-05T15:58:54.999Z</time></trkpt><trkpt lat="44.82623954533991" lon="7.885052942781434"><ele>306.0</ele><time>2026-04-05T15:58:55.999Z</time></trkpt><trkpt lat="44.82637484977162" lon="7.884842581745341"><ele>306.0</ele><time>2026-04-05T15:58:56.999Z</time></trkpt><trkpt lat="44.82651528715579" lon="7.8846343263043375"><ele>306.0</ele><time>2026-04-05T15:58:57.999Z</time></trkpt><trkpt lat="44.82665810078235" lon="7.884423833457971"><ele>306.0</ele><time>2026-04-05T15:58:58.999Z</time></trkpt><trkpt lat="44.82680023358851" lon="7.884214620766276"><ele>307.6666666666667</ele><time>2026-04-05T15:58:59.999Z</time></trkpt><trkpt lat="44.82693459878197" lon="7.884015464957185"><ele>309.33333333333337</ele><time>2026-04-05T15:59:00.999Z</time></trkpt><trkpt lat="44.827060026752" lon="7.883833764598632"><ele>311.0</ele><time>2026-04-05T15:59:01.999Z</time></trkpt><trkpt lat="44.82717903661965" lon="7.883658496737206"><ele>311.0</ele><time>2026-04-05T15:59:02.999Z</time></trkpt><trkpt lat="44.82729630756359" lon="7.883480420958471"><ele>311.0</ele><time>2026-04-05T15:59:03.999Z</time></trkpt><trkpt lat="44.82740004899982" lon="7.8832993108527285"><ele>311.0</ele><time>2026-04-05T15:59:04.999Z</time></trkpt><trkpt lat="44.82749419952615" lon="7.883112973682204"><ele>311.33333333333337</ele><time>2026-04-05T15:59:05.999Z</time></trkpt><trkpt lat="44.82758337578359" lon="7.8829098282454595"><ele>311.6666666666667</ele><time>2026-04-05T15:59:06.999Z</time></trkpt><trkpt lat="44.827655803515654" lon="7.882688743419312"><ele>312.0</ele><time>2026-04-05T15:59:07.999Z</time></trkpt><trkpt lat="44.82772029969336" lon="7.882454898980129"><ele>312.0</ele><time>2026-04-05T15:59:08.999Z</time></trkpt><trkpt lat="44.82777528268662" lon="7.882217228610087"><ele>312.0</ele><time>2026-04-05T15:59:09.999Z</time></trkpt><trkpt lat="44.827823011694456" lon="7.881979696765655"><ele>312.0</ele><time>2026-04-05T15:59:10.999Z</time></trkpt><trkpt lat="44.82786528118729" lon="7.8817411716910994"><ele>311.0</ele><time>2026-04-05T15:59:11.999Z</time></trkpt><trkpt lat="44.82789791804221" lon="7.881500998415721"><ele>310.0</ele><time>2026-04-05T15:59:12.999Z</time></trkpt><trkpt lat="44.827921985191054" lon="7.881254647231487"><ele>309.0</ele><time>2026-04-05T15:59:13.999Z</time></trkpt><trkpt lat="44.82793530221677" lon="7.881009304540522"><ele>308.0</ele><time>2026-04-05T15:59:14.999Z</time></trkpt><trkpt lat="44.82793092155286" lon="7.8807527257852295"><ele>307.0</ele><time>2026-04-05T15:59:15.999Z</time></trkpt><trkpt lat="44.827938704180895" lon="7.880551663839117"><ele>306.0</ele><time>2026-04-05T15:59:16.999Z</time></trkpt><trkpt lat="44.827943372398934" lon="7.880345915222216"><ele>306.0</ele><time>2026-04-05T15:59:17.999Z</time></trkpt><trkpt lat="44.8279596781944" lon="7.8801476448037295"><ele>306.0</ele><time>2026-04-05T15:59:18.999Z</time></trkpt><trkpt lat="44.82799035694334" lon="7.879947986969613"><ele>306.0</ele><time>2026-04-05T15:59:19.999Z</time></trkpt><trkpt lat="44.828045226768985" lon="7.879750038910272"><ele>306.0</ele><time>2026-04-05T15:59:20.999Z</time></trkpt><trkpt lat="44.82811953555557" lon="7.879551998958909"><ele>304.6666666666667</ele><time>2026-04-05T15:59:21.999Z</time></trkpt><trkpt lat="44.828217212882635" lon="7.879361640402641"><ele>303.33333333333337</ele><time>2026-04-05T15:59:22.999Z</time></trkpt><trkpt lat="44.82833422604458" lon="7.8791634048801"><ele>302.0</ele><time>2026-04-05T15:59:23.999Z</time></trkpt><trkpt lat="44.82845680861307" lon="7.8789633844739875"><ele>302.33333333333337</ele><time>2026-04-05T15:59:24.999Z</time></trkpt><trkpt lat="44.828582996839735" lon="7.87875267268593"><ele>302.6666666666667</ele><time>2026-04-05T15:59:25.999Z</time></trkpt><trkpt lat="44.82870224780271" lon="7.878547183210757"><ele>303.0</ele><time>2026-04-05T15:59:26.999Z</time></trkpt><trkpt lat="44.82881222164607" lon="7.878357948594139"><ele>299.0</ele><time>2026-04-05T15:59:27.999Z</time></trkpt><trkpt lat="44.828919461212145" lon="7.878173238647791"><ele>295.0</ele><time>2026-04-05T15:59:28.999Z</time></trkpt><trkpt lat="44.8290207076752" lon="7.877995110194705"><ele>291.0</ele><time>2026-04-05T15:59:29.999Z</time></trkpt><trkpt lat="44.829115510464106" lon="7.87782410646042"><ele>291.0</ele><time>2026-04-05T15:59:30.999Z</time></trkpt><trkpt lat="44.82919018264841" lon="7.877648727547989"><ele>291.0</ele><time>2026-04-05T15:59:31.999Z</time></trkpt><trkpt lat="44.82924922868815" lon="7.877453180500605"><ele>291.0</ele><time>2026-04-05T15:59:32.999Z</time></trkpt><trkpt lat="44.82930183579363" lon="7.877241507620734"><ele>292.0</ele><time>2026-04-05T15:59:33.999Z</time></trkpt><trkpt lat="44.8293229618431" lon="7.87702058202306"><ele>293.0</ele><time>2026-04-05T15:59:34.999Z</time></trkpt><trkpt lat="44.829323618347324" lon="7.876786312937578"><ele>294.0</ele><time>2026-04-05T15:59:35.999Z</time></trkpt><trkpt lat="44.82930160282309" lon="7.87655352601158"><ele>291.0</ele><time>2026-04-05T15:59:36.999Z</time></trkpt><trkpt lat="44.8292657033363" lon="7.876311311858397"><ele>288.0</ele><time>2026-04-05T15:59:37.999Z</time></trkpt><trkpt lat="44.82923191912132" lon="7.876069768423779"><ele>285.0</ele><time>2026-04-05T15:59:38.999Z</time></trkpt><trkpt lat="44.82920005178213" lon="7.875836654405532"><ele>285.0</ele><time>2026-04-05T15:59:39.999Z</time></trkpt><trkpt lat="44.82916954482892" lon="7.875606372934124"><ele>285.0</ele><time>2026-04-05T15:59:40.999Z</time></trkpt><trkpt lat="44.82913759272879" lon="7.875393546493961"><ele>285.0</ele><time>2026-04-05T15:59:41.999Z</time></trkpt><trkpt lat="44.829111022673" lon="7.875192053825472"><ele>285.25</ele><time>2026-04-05T15:59:42.999Z</time></trkpt><trkpt lat="44.82908443690229" lon="7.875006513900497"><ele>285.5</ele><time>2026-04-05T15:59:43.999Z</time></trkpt><trkpt lat="44.829060825156894" lon="7.874819550045518"><ele>285.75</ele><time>2026-04-05T15:59:44.999Z</time></trkpt><trkpt lat="44.829042551543644" lon="7.874661101075387"><ele>286.0</ele><time>2026-04-05T15:59:45.999Z</time></trkpt><trkpt lat="44.82902390286469" lon="7.874514906543902"><ele>286.0</ele><time>2026-04-05T15:59:46.999Z</time></trkpt><trkpt lat="44.82901249438703" lon="7.87438781231076"><ele>286.0</ele><time>2026-04-05T15:59:47.999Z</time></trkpt><trkpt lat="44.8290020122778" lon="7.874243650188895"><ele>286.0</ele><time>2026-04-05T15:59:48.999Z</time></trkpt><trkpt lat="44.82903018728802" lon="7.874147918437707"><ele>286.0</ele><time>2026-04-05T15:59:49.999Z</time></trkpt><trkpt lat="44.82906985770217" lon="7.87403735512078"><ele>286.0</ele><time>2026-04-05T15:59:50.999Z</time></trkpt><trkpt lat="44.82912606217387" lon="7.8739357437402"><ele>286.0</ele><time>2026-04-05T15:59:51.999Z</time></trkpt><trkpt lat="44.82918901368993" lon="7.8738488570105485"><ele>286.40000000000003</ele><time>2026-04-05T15:59:52.998Z</time></trkpt><trkpt lat="44.82925531735524" lon="7.873750906105315"><ele>286.8</ele><time>2026-04-05T15:59:53.998Z</time></trkpt><trkpt lat="44.829318686352494" lon="7.8736380150114496"><ele>287.20000000000005</ele><time>2026-04-05T15:59:54.998Z</time></trkpt><trkpt lat="44.82938833906283" lon="7.873515422873004"><ele>287.6</ele><time>2026-04-05T15:59:55.998Z</time></trkpt><trkpt lat="44.829458577411934" lon="7.873378156329839"><ele>288.0</ele><time>2026-04-05T15:59:56.998Z</time></trkpt><trkpt lat="44.8295387562449" lon="7.8732403276656076"><ele>288.5</ele><time>2026-04-05T15:59:57.998Z</time></trkpt><trkpt lat="44.82962401134832" lon="7.873102588286322"><ele>289.0</ele><time>2026-04-05T15:59:58.998Z</time></trkpt><trkpt lat="44.829722824323646" lon="7.872974797752155"><ele>289.5</ele><time>2026-04-05T15:59:59.998Z</time></trkpt><trkpt lat="44.82983169297403" lon="7.872868955210089"><ele>290.0</ele><time>2026-04-05T16:00:00.998Z</time></trkpt><trkpt lat="44.82995851651418" lon="7.872795916301617"><ele>290.0</ele><time>2026-04-05T16:00:01.998Z</time></trkpt><trkpt lat="44.830094908114596" lon="7.872740190767626"><ele>290.0</ele><time>2026-04-05T16:00:02.998Z</time></trkpt><trkpt lat="44.830231076950426" lon="7.872677228155053"><ele>290.0</ele><time>2026-04-05T16:00:03.998Z</time></trkpt><trkpt lat="44.830362867901236" lon="7.872587817175004"><ele>290.0</ele><time>2026-04-05T16:00:04.998Z</time></trkpt><trkpt lat="44.83049331430202" lon="7.872472837124424"><ele>290.0</ele><time>2026-04-05T16:00:06Z</time></trkpt><trkpt lat="44.830612540777835" lon="7.872337634272566"><ele>290.0</ele><time>2026-04-05T16:00:07Z</time></trkpt><trkpt lat="44.83072092261734" lon="7.87218205447189"><ele>290.0</ele><time>2026-04-05T16:00:08Z</time></trkpt><trkpt lat="44.83082047959891" lon="7.872012455491681"><ele>290.0</ele><time>2026-04-05T16:00:09Z</time></trkpt><trkpt lat="44.83092571949024" lon="7.87183676262115"><ele>290.0</ele><time>2026-04-05T16:00:10Z</time></trkpt><trkpt lat="44.83103394921308" lon="7.871663883659595"><ele>290.0</ele><time>2026-04-05T16:00:11Z</time></trkpt><trkpt lat="44.83114517992433" lon="7.871492152069137"><ele>289.33333333333337</ele><time>2026-04-05T16:00:12Z</time></trkpt><trkpt lat="44.831255517484955" lon="7.871327799126363"><ele>288.6666666666667</ele><time>2026-04-05T16:00:13Z</time></trkpt><trkpt lat="44.83136567223153" lon="7.8711613548876525"><ele>288.0</ele><time>2026-04-05T16:00:14Z</time></trkpt><trkpt lat="44.83148348411966" lon="7.871013997517839"><ele>288.6666666666667</ele><time>2026-04-05T16:00:15Z</time></trkpt><trkpt lat="44.83161173910973" lon="7.870886932936002"><ele>289.33333333333337</ele><time>2026-04-05T16:00:16Z</time></trkpt><trkpt lat="44.83174531598804" lon="7.870771802765604"><ele>290.0</ele><time>2026-04-05T16:00:17Z</time></trkpt><trkpt lat="44.83187186878709" lon="7.870662738029994"><ele>290.0</ele><time>2026-04-05T16:00:18Z</time></trkpt><trkpt lat="44.83200239264339" lon="7.870549087283565"><ele>290.0</ele><time>2026-04-05T16:00:19Z</time></trkpt><trkpt lat="44.832131528465375" lon="7.870430889597706"><ele>290.0</ele><time>2026-04-05T16:00:20Z</time></trkpt><trkpt lat="44.8322575519859" lon="7.87030055236682"><ele>290.0</ele><time>2026-04-05T16:00:21Z</time></trkpt><trkpt lat="44.83238108804463" lon="7.870176036615647"><ele>290.0</ele><time>2026-04-05T16:00:22Z</time></trkpt><trkpt lat="44.832497438265925" lon="7.870074878156501"><ele>290.0</ele><time>2026-04-05T16:00:23Z</time></trkpt><trkpt lat="44.8326182632573" lon="7.869996065680948"><ele>290.0</ele><time>2026-04-05T16:00:24Z</time></trkpt><trkpt lat="44.83273237976209" lon="7.869921648112441"><ele>290.75</ele><time>2026-04-05T16:00:25Z</time></trkpt><trkpt lat="44.832829272616" lon="7.869841243315079"><ele>291.5</ele><time>2026-04-05T16:00:26Z</time></trkpt><trkpt lat="44.83290881808063" lon="7.8697425973246515"><ele>292.25</ele><time>2026-04-05T16:00:27Z</time></trkpt><trkpt lat="44.83296536360547" lon="7.869607416667076"><ele>293.0</ele><time>2026-04-05T16:00:28Z</time></trkpt><trkpt lat="44.833006640583136" lon="7.869436418263699"><ele>293.5</ele><time>2026-04-05T16:00:29Z</time></trkpt><trkpt lat="44.83303899001695" lon="7.8692375551195495"><ele>294.0</ele><time>2026-04-05T16:00:30Z</time></trkpt><trkpt lat="44.83307129841664" lon="7.869037907005495"><ele>294.5</ele><time>2026-04-05T16:00:31Z</time></trkpt><trkpt lat="44.83309779117253" lon="7.868837235107894"><ele>295.0</ele><time>2026-04-05T16:00:32Z</time></trkpt><trkpt lat="44.83313544212621" lon="7.86864584318663"><ele>295.0</ele><time>2026-04-05T16:00:33Z</time></trkpt><trkpt lat="44.83318725220442" lon="7.868471465387863"><ele>295.0</ele><time>2026-04-05T16:00:34Z</time></trkpt><trkpt lat="44.833258189882024" lon="7.868312860089538"><ele>295.0</ele><time>2026-04-05T16:00:35Z</time></trkpt><trkpt lat="44.83332897087262" lon="7.868144914203179"><ele>295.0</ele><time>2026-04-05T16:00:36Z</time></trkpt><trkpt lat="44.83340191843146" lon="7.867959893077907"><ele>295.3333333333333</ele><time>2026-04-05T16:00:37Z</time></trkpt><trkpt lat="44.8334806078002" lon="7.8677541127296475"><ele>295.6666666666667</ele><time>2026-04-05T16:00:38Z</time></trkpt><trkpt lat="44.833563600652084" lon="7.867536430037754"><ele>296.0</ele><time>2026-04-05T16:00:39Z</time></trkpt><trkpt lat="44.83364794093946" lon="7.867312995026165"><ele>296.0</ele><time>2026-04-05T16:00:40Z</time></trkpt><trkpt lat="44.83373269890309" lon="7.867082717966506"><ele>296.0</ele><time>2026-04-05T16:00:41Z</time></trkpt><trkpt lat="44.83382131768588" lon="7.866848638850587"><ele>296.0</ele><time>2026-04-05T16:00:42Z</time></trkpt><trkpt lat="44.83390803913583" lon="7.866614270775773"><ele>296.33333333333337</ele><time>2026-04-05T16:00:43Z</time></trkpt><trkpt lat="44.833997983873815" lon="7.866388004123992"><ele>296.6666666666667</ele><time>2026-04-05T16:00:44Z</time></trkpt><trkpt lat="44.83408882921504" lon="7.866176035233144"><ele>297.0</ele><time>2026-04-05T16:00:45Z</time></trkpt><trkpt lat="44.83419398429364" lon="7.865978183741131"><ele>297.0</ele><time>2026-04-05T16:00:46Z</time></trkpt><trkpt lat="44.83430704464151" lon="7.8657787670440245"><ele>297.0</ele><time>2026-04-05T16:00:47Z</time></trkpt><trkpt lat="44.83441587201011" lon="7.86559782014715"><ele>297.0</ele><time>2026-04-05T16:00:48Z</time></trkpt><trkpt lat="44.83451993130205" lon="7.865422944394298"><ele>297.0</ele><time>2026-04-05T16:00:49Z</time></trkpt><trkpt lat="44.83461977169345" lon="7.865243764133228"><ele>297.0</ele><time>2026-04-05T16:00:50Z</time></trkpt><trkpt lat="44.83471847394927" lon="7.865060975975524"><ele>297.0</ele><time>2026-04-05T16:00:51Z</time></trkpt><trkpt lat="44.83481576543109" lon="7.864887321843678"><ele>297.25</ele><time>2026-04-05T16:00:51.999Z</time></trkpt><trkpt lat="44.83490670483781" lon="7.864727564003509"><ele>297.5</ele><time>2026-04-05T16:00:52.999Z</time></trkpt><trkpt lat="44.83499412202819" lon="7.864568149573396"><ele>297.75</ele><time>2026-04-05T16:00:53.999Z</time></trkpt><trkpt lat="44.835081722974174" lon="7.864409870587846"><ele>298.0</ele><time>2026-04-05T16:00:54.999Z</time></trkpt><trkpt lat="44.83517146520928" lon="7.864246540639283"><ele>298.0</ele><time>2026-04-05T16:00:55.999Z</time></trkpt><trkpt lat="44.83525974338449" lon="7.864095287903732"><ele>298.0</ele><time>2026-04-05T16:00:56.999Z</time></trkpt><trkpt lat="44.835341580518474" lon="7.8639515045587975"><ele>298.0</ele><time>2026-04-05T16:00:57.999Z</time></trkpt><trkpt lat="44.83542582710938" lon="7.863801679542297"><ele>298.0</ele><time>2026-04-05T16:00:58.999Z</time></trkpt><trkpt lat="44.83550975646574" lon="7.863658406942038"><ele>298.0</ele><time>2026-04-05T16:00:59.999Z</time></trkpt><trkpt lat="44.83558218641109" lon="7.8635237205074935"><ele>298.0</ele><time>2026-04-05T16:01:00.999Z</time></trkpt><trkpt lat="44.83564761911451" lon="7.863397987945299"><ele>298.0</ele><time>2026-04-05T16:01:01.999Z</time></trkpt><trkpt lat="44.83572415404229" lon="7.863293307763928"><ele>298.0</ele><time>2026-04-05T16:01:02.999Z</time></trkpt><trkpt lat="44.83581437607001" lon="7.863213819785977"><ele>298.0</ele><time>2026-04-05T16:01:03.999Z</time></trkpt><trkpt lat="44.83590963975001" lon="7.863180476288821"><ele>297.8</ele><time>2026-04-05T16:01:04.999Z</time></trkpt><trkpt lat="44.83600133175507" lon="7.863197268470464"><ele>297.6</ele><time>2026-04-05T16:01:05.999Z</time></trkpt><trkpt lat="44.836077486168485" lon="7.863262501598417"><ele>297.4</ele><time>2026-04-05T16:01:06.999Z</time></trkpt><trkpt lat="44.83614359036757" lon="7.863365619954849"><ele>297.2</ele><time>2026-04-05T16:01:07.999Z</time></trkpt><trkpt lat="44.836205849719214" lon="7.8635104480069336"><ele>297.0</ele><time>2026-04-05T16:01:08.999Z</time></trkpt><trkpt lat="44.83626292759133" lon="7.8636805787282755"><ele>297.0</ele><time>2026-04-05T16:01:09.999Z</time></trkpt><trkpt lat="44.836330705487526" lon="7.8638665403775185"><ele>297.0</ele><time>2026-04-05T16:01:10.999Z</time></trkpt><trkpt lat="44.83641018132019" lon="7.864060086817369"><ele>297.0</ele><time>2026-04-05T16:01:11.999Z</time></trkpt><trkpt lat="44.83649669748937" lon="7.864269796806486"><ele>297.3333333333333</ele><time>2026-04-05T16:01:12.999Z</time></trkpt><trkpt lat="44.83658399069936" lon="7.864490804367656"><ele>297.66666666666663</ele><time>2026-04-05T16:01:13.999Z</time></trkpt><trkpt lat="44.83667160342182" lon="7.864718012499984"><ele>298.0</ele><time>2026-04-05T16:01:14.999Z</time></trkpt><trkpt lat="44.836756914613" lon="7.864933495897655"><ele>297.5</ele><time>2026-04-05T16:01:15.999Z</time></trkpt><trkpt lat="44.83683310983557" lon="7.865125878123765"><ele>297.0</ele><time>2026-04-05T16:01:16.999Z</time></trkpt><trkpt lat="44.83690188094467" lon="7.865303955242124"><ele>296.5</ele><time>2026-04-05T16:01:17.999Z</time></trkpt><trkpt lat="44.83697278049662" lon="7.865473561171869"><ele>296.0</ele><time>2026-04-05T16:01:18.999Z</time></trkpt><trkpt lat="44.83704680502402" lon="7.865650086904105"><ele>296.0</ele><time>2026-04-05T16:01:19.999Z</time></trkpt><trkpt lat="44.83711852983639" lon="7.865828001720865"><ele>296.0</ele><time>2026-04-05T16:01:20.999Z</time></trkpt><trkpt lat="44.83718903403556" lon="7.86600197227115"><ele>296.0</ele><time>2026-04-05T16:01:21.999Z</time></trkpt><trkpt lat="44.83725554385031" lon="7.866166812198505"><ele>296.0</ele><time>2026-04-05T16:01:22.999Z</time></trkpt><trkpt lat="44.83731677662994" lon="7.866327529265128"><ele>295.2</ele><time>2026-04-05T16:01:23.999Z</time></trkpt><trkpt lat="44.83737304478142" lon="7.866474519324577"><ele>294.40000000000003</ele><time>2026-04-05T16:01:24.999Z</time></trkpt><trkpt lat="44.837430408008956" lon="7.866607798846424"><ele>293.6</ele><time>2026-04-05T16:01:25.999Z</time></trkpt><trkpt lat="44.837496361863664" lon="7.866719494896466"><ele>292.8</ele><time>2026-04-05T16:01:26.999Z</time></trkpt><trkpt lat="44.83758174858613" lon="7.866790112156892"><ele>292.0</ele><time>2026-04-05T16:01:27.999Z</time></trkpt><trkpt lat="44.83767734582874" lon="7.866830933093181"><ele>291.75</ele><time>2026-04-05T16:01:28.999Z</time></trkpt><trkpt lat="44.837776782898516" lon="7.866827599515054"><ele>291.5</ele><time>2026-04-05T16:01:29.999Z</time></trkpt><trkpt lat="44.83787341382368" lon="7.866782637695252"><ele>291.25</ele><time>2026-04-05T16:01:30.999Z</time></trkpt><trkpt lat="44.837979695067325" lon="7.866704849701061"><ele>291.0</ele><time>2026-04-05T16:01:31.999Z</time></trkpt><trkpt lat="44.838094010261585" lon="7.86661746456763"><ele>291.0</ele><time>2026-04-05T16:01:32.999Z</time></trkpt><trkpt lat="44.83822221036986" lon="7.866538427573609"><ele>291.0</ele><time>2026-04-05T16:01:33.999Z</time></trkpt><trkpt lat="44.83835529272174" lon="7.8664502952749835"><ele>291.0</ele><time>2026-04-05T16:01:34.999Z</time></trkpt><trkpt lat="44.83849471807875" lon="7.866351873634232"><ele>291.0</ele><time>2026-04-05T16:01:35.999Z</time></trkpt><trkpt lat="44.83864156118527" lon="7.866252345740203"><ele>290.6666666666667</ele><time>2026-04-05T16:01:36.999Z</time></trkpt><trkpt lat="44.838791595979735" lon="7.866150830568319"><ele>290.33333333333337</ele><time>2026-04-05T16:01:37.999Z</time></trkpt><trkpt lat="44.83894633488796" lon="7.866053872116421"><ele>290.0</ele><time>2026-04-05T16:01:38.999Z</time></trkpt><trkpt lat="44.83909387118172" lon="7.86593706766423"><ele>290.75</ele><time>2026-04-05T16:01:39.999Z</time></trkpt><trkpt lat="44.83922941819331" lon="7.865823758046958"><ele>291.5</ele><time>2026-04-05T16:01:40.999Z</time></trkpt><trkpt lat="44.83934806983334" lon="7.865717582734099"><ele>292.25</ele><time>2026-04-05T16:01:41.999Z</time></trkpt><trkpt lat="44.83945384081962" lon="7.865621798482062"><ele>293.0</ele><time>2026-04-05T16:01:42.999Z</time></trkpt><trkpt lat="44.83956040035017" lon="7.865553569535042"><ele>293.0</ele><time>2026-04-05T16:01:43.999Z</time></trkpt><trkpt lat="44.8396738671635" lon="7.865531504953202"><ele>293.0</ele><time>2026-04-05T16:01:44.999Z</time></trkpt><trkpt lat="44.83979953222737" lon="7.865555104579355"><ele>293.0</ele><time>2026-04-05T16:01:45.999Z</time></trkpt><trkpt lat="44.83993081121201" lon="7.865615534199833"><ele>293.0</ele><time>2026-04-05T16:01:46.999Z</time></trkpt><trkpt lat="44.84007384533249" lon="7.865669646525651"><ele>293.0</ele><time>2026-04-05T16:01:47.999Z</time></trkpt><trkpt lat="44.84022699918122" lon="7.865709630122106"><ele>293.0</ele><time>2026-04-05T16:01:48.999Z</time></trkpt><trkpt lat="44.8403997063023" lon="7.865752750015216"><ele>293.0</ele><time>2026-04-05T16:01:49.999Z</time></trkpt><trkpt lat="44.84057013724505" lon="7.865793424809439"><ele>293.0</ele><time>2026-04-05T16:01:50.999Z</time></trkpt><trkpt lat="44.84073800767957" lon="7.865841354919874"><ele>293.0</ele><time>2026-04-05T16:01:51.999Z</time></trkpt><trkpt lat="44.84090582056648" lon="7.865888825278893"><ele>293.0</ele><time>2026-04-05T16:01:52.999Z</time></trkpt><trkpt lat="44.84107063190638" lon="7.865929027705494"><ele>293.0</ele><time>2026-04-05T16:01:53.999Z</time></trkpt><trkpt lat="44.841237294046216" lon="7.865971236240147"><ele>293.0</ele><time>2026-04-05T16:01:54.999Z</time></trkpt><trkpt lat="44.84139851990741" lon="7.866011248312839"><ele>293.0</ele><time>2026-04-05T16:01:55.999Z</time></trkpt><trkpt lat="44.84155738823385" lon="7.866051952765965"><ele>293.0</ele><time>2026-04-05T16:01:56.999Z</time></trkpt><trkpt lat="44.84171623897837" lon="7.866096492890251"><ele>293.0</ele><time>2026-04-05T16:01:57.998Z</time></trkpt><trkpt lat="44.84187849941055" lon="7.8661516456228835"><ele>293.0</ele><time>2026-04-05T16:01:58.998Z</time></trkpt><trkpt lat="44.8420422097104" lon="7.866226033568759"><ele>292.33333333333337</ele><time>2026-04-05T16:01:59.998Z</time></trkpt><trkpt lat="44.84220878846941" lon="7.866303805179944"><ele>291.6666666666667</ele><time>2026-04-05T16:02:00.998Z</time></trkpt><trkpt lat="44.842376962161254" lon="7.866393225639612"><ele>291.0</ele><time>2026-04-05T16:02:01.998Z</time></trkpt><trkpt lat="44.842546741525915" lon="7.866485141575825"><ele>291.3333333333333</ele><time>2026-04-05T16:02:02.998Z</time></trkpt><trkpt lat="44.84271541989294" lon="7.866570411330371"><ele>291.66666666666663</ele><time>2026-04-05T16:02:03.998Z</time></trkpt><trkpt lat="44.84287963224927" lon="7.866652346557358"><ele>292.0</ele><time>2026-04-05T16:02:04.998Z</time></trkpt><trkpt lat="44.843037258606564" lon="7.866738991371512"><ele>292.0</ele><time>2026-04-05T16:02:05.998Z</time></trkpt><trkpt lat="44.84319449886828" lon="7.866818513101425"><ele>292.0</ele><time>2026-04-05T16:02:06.998Z</time></trkpt><trkpt lat="44.84334261430825" lon="7.866895404805458"><ele>292.0</ele><time>2026-04-05T16:02:07.998Z</time></trkpt><trkpt lat="44.84348828211306" lon="7.866962340707189"><ele>291.3333333333333</ele><time>2026-04-05T16:02:08.998Z</time></trkpt><trkpt lat="44.84363148354596" lon="7.867024564070449"><ele>290.6666666666667</ele><time>2026-04-05T16:02:09.998Z</time></trkpt><trkpt lat="44.84379185129311" lon="7.867071619270802"><ele>290.0</ele><time>2026-04-05T16:02:10.998Z</time></trkpt><trkpt lat="44.84396124806462" lon="7.867095850595075"><ele>290.0</ele><time>2026-04-05T16:02:12Z</time></trkpt><trkpt lat="44.84413393244142" lon="7.867112444171055"><ele>290.0</ele><time>2026-04-05T16:02:13Z</time></trkpt><trkpt lat="44.844314401979716" lon="7.867125598140291"><ele>290.0</ele><time>2026-04-05T16:02:14Z</time></trkpt><trkpt lat="44.8444994863864" lon="7.867140809404985"><ele>290.0</ele><time>2026-04-05T16:02:15Z</time></trkpt><trkpt lat="44.84468746814769" lon="7.8671624095667925"><ele>290.0</ele><time>2026-04-05T16:02:16Z</time></trkpt><trkpt lat="44.844876066210205" lon="7.867180838128101"><ele>290.0</ele><time>2026-04-05T16:02:17Z</time></trkpt><trkpt lat="44.84505636417091" lon="7.867199966555889"><ele>290.6666666666667</ele><time>2026-04-05T16:02:18Z</time></trkpt><trkpt lat="44.84523190109324" lon="7.867210789337012"><ele>291.3333333333333</ele><time>2026-04-05T16:02:19Z</time></trkpt><trkpt lat="44.84540521587291" lon="7.86721296933319"><ele>292.0</ele><time>2026-04-05T16:02:20Z</time></trkpt><trkpt lat="44.84558040005456" lon="7.867202855718573"><ele>292.0</ele><time>2026-04-05T16:02:21Z</time></trkpt><trkpt lat="44.8457529296555" lon="7.867184720023227"><ele>292.0</ele><time>2026-04-05T16:02:22Z</time></trkpt><trkpt lat="44.845927245101066" lon="7.867164628223062"><ele>292.0</ele><time>2026-04-05T16:02:23Z</time></trkpt><trkpt lat="44.84610292188983" lon="7.8671480923372705"><ele>291.3333333333333</ele><time>2026-04-05T16:02:24Z</time></trkpt><trkpt lat="44.84628592407244" lon="7.867119217004933"><ele>290.6666666666667</ele><time>2026-04-05T16:02:25Z</time></trkpt><trkpt lat="44.84647367258631" lon="7.867079024167522"><ele>290.0</ele><time>2026-04-05T16:02:26Z</time></trkpt><trkpt lat="44.84666150375445" lon="7.86702886221732"><ele>289.0</ele><time>2026-04-05T16:02:27Z</time></trkpt><trkpt lat="44.84684944197225" lon="7.866975118275597"><ele>288.0</ele><time>2026-04-05T16:02:28Z</time></trkpt><trkpt lat="44.84703213502191" lon="7.866923385142566"><ele>287.0</ele><time>2026-04-05T16:02:29Z</time></trkpt><trkpt lat="44.84721793682521" lon="7.866870477284013"><ele>287.0</ele><time>2026-04-05T16:02:30Z</time></trkpt><trkpt lat="44.84739947538159" lon="7.86682337886935"><ele>287.0</ele><time>2026-04-05T16:02:31Z</time></trkpt><trkpt lat="44.847586276339506" lon="7.866779675787295"><ele>287.0</ele><time>2026-04-05T16:02:32Z</time></trkpt><trkpt lat="44.847780711360656" lon="7.866740746206224"><ele>287.33333333333337</ele><time>2026-04-05T16:02:33Z</time></trkpt><trkpt lat="44.847981712829394" lon="7.866711698953542"><ele>287.6666666666667</ele><time>2026-04-05T16:02:34Z</time></trkpt><trkpt lat="44.848188765037" lon="7.866692270415856"><ele>288.0</ele><time>2026-04-05T16:02:35Z</time></trkpt><trkpt lat="44.848398926327214" lon="7.866676120759581"><ele>287.6666666666667</ele><time>2026-04-05T16:02:36Z</time></trkpt><trkpt lat="44.84860866781111" lon="7.866662022843171"><ele>287.33333333333337</ele><time>2026-04-05T16:02:37Z</time></trkpt><trkpt lat="44.848817866706185" lon="7.866645408210034"><ele>287.0</ele><time>2026-04-05T16:02:38Z</time></trkpt><trkpt lat="44.84902815259796" lon="7.866624529163558"><ele>287.0</ele><time>2026-04-05T16:02:39Z</time></trkpt><trkpt lat="44.849235050112064" lon="7.8666062777867065"><ele>287.0</ele><time>2026-04-05T16:02:40Z</time></trkpt><trkpt lat="44.849442483593464" lon="7.866575904990432"><ele>287.0</ele><time>2026-04-05T16:02:41Z</time></trkpt><trkpt lat="44.84963278081746" lon="7.8665467660429265"><ele>286.6666666666667</ele><time>2026-04-05T16:02:42Z</time></trkpt><trkpt lat="44.84980585464351" lon="7.866515742468239"><ele>286.3333333333333</ele><time>2026-04-05T16:02:43Z</time></trkpt><trkpt lat="44.849976968688885" lon="7.866482267215"><ele>286.0</ele><time>2026-04-05T16:02:44Z</time></trkpt><trkpt lat="44.85015843202702" lon="7.866447741647297"><ele>286.0</ele><time>2026-04-05T16:02:45Z</time></trkpt><trkpt lat="44.85032368999735" lon="7.866418457908842"><ele>286.0</ele><time>2026-04-05T16:02:46Z</time></trkpt><trkpt lat="44.85048524468707" lon="7.866411721848655"><ele>286.0</ele><time>2026-04-05T16:02:47Z</time></trkpt><trkpt lat="44.85064660765563" lon="7.866421828803295"><ele>286.0</ele><time>2026-04-05T16:02:48Z</time></trkpt><trkpt lat="44.85080017345455" lon="7.8664538324300315"><ele>286.0</ele><time>2026-04-05T16:02:49Z</time></trkpt><trkpt lat="44.85094437686197" lon="7.866511516034099"><ele>286.0</ele><time>2026-04-05T16:02:50Z</time></trkpt><trkpt lat="44.85107434641187" lon="7.866599704743954"><ele>286.0</ele><time>2026-04-05T16:02:51Z</time></trkpt><trkpt lat="44.85119279172881" lon="7.866672254969092"><ele>286.0</ele><time>2026-04-05T16:02:52Z</time></trkpt><trkpt lat="44.85131649872224" lon="7.86672351590615"><ele>286.0</ele><time>2026-04-05T16:02:53Z</time></trkpt><trkpt lat="44.851453243405764" lon="7.866741078336478"><ele>286.0</ele><time>2026-04-05T16:02:54Z</time></trkpt><trkpt lat="44.85160055500518" lon="7.866720402240808"><ele>286.0</ele><time>2026-04-05T16:02:55Z</time></trkpt><trkpt lat="44.85175104762782" lon="7.866672035645"><ele>286.0</ele><time>2026-04-05T16:02:56Z</time></trkpt><trkpt lat="44.851913089878224" lon="7.866605700650297"><ele>286.0</ele><time>2026-04-05T16:02:57Z</time></trkpt><trkpt lat="44.85208248438731" lon="7.866550345231362"><ele>286.0</ele><time>2026-04-05T16:02:58Z</time></trkpt><trkpt lat="44.85225221579214" lon="7.866494662090811"><ele>286.0</ele><time>2026-04-05T16:02:59Z</time></trkpt><trkpt lat="44.85243139856461" lon="7.8664344373185076"><ele>286.0</ele><time>2026-04-05T16:03:00Z</time></trkpt><trkpt lat="44.852612728939675" lon="7.86636790581864"><ele>286.0</ele><time>2026-04-05T16:03:01Z</time></trkpt><trkpt lat="44.85280054951262" lon="7.866295749425544"><ele>285.66666666666663</ele><time>2026-04-05T16:03:02Z</time></trkpt><trkpt lat="44.852992715671014" lon="7.8662202716567915"><ele>285.3333333333333</ele><time>2026-04-05T16:03:03Z</time></trkpt><trkpt lat="44.85318320787161" lon="7.866140986390052"><ele>285.0</ele><time>2026-04-05T16:03:04Z</time></trkpt><trkpt lat="44.853364816302566" lon="7.866065145114447"><ele>284.6666666666667</ele><time>2026-04-05T16:03:04.999Z</time></trkpt><trkpt lat="44.85354418935583" lon="7.865988635814772"><ele>284.33333333333337</ele><time>2026-04-05T16:03:05.999Z</time></trkpt><trkpt lat="44.85372267230982" lon="7.865916417025644"><ele>284.0</ele><time>2026-04-05T16:03:06.999Z</time></trkpt><trkpt lat="44.853899791013646" lon="7.865849273183867"><ele>284.0</ele><time>2026-04-05T16:03:07.999Z</time></trkpt><trkpt lat="44.85407163277087" lon="7.865792663989052"><ele>284.0</ele><time>2026-04-05T16:03:08.999Z</time></trkpt><trkpt lat="44.854227572286774" lon="7.86574843227575"><ele>284.0</ele><time>2026-04-05T16:03:09.999Z</time></trkpt><trkpt lat="44.85438164905234" lon="7.8657176916893325"><ele>284.0</ele><time>2026-04-05T16:03:10.999Z</time></trkpt><trkpt lat="44.85452409535827" lon="7.865682938926446"><ele>284.0</ele><time>2026-04-05T16:03:11.999Z</time></trkpt><trkpt lat="44.854660119917234" lon="7.865645141515535"><ele>284.0</ele><time>2026-04-05T16:03:12.999Z</time></trkpt><trkpt lat="44.85478766272263" lon="7.865606521533864"><ele>284.0</ele><time>2026-04-05T16:03:13.999Z</time></trkpt><trkpt lat="44.85490772796935" lon="7.865570096614098"><ele>284.0</ele><time>2026-04-05T16:03:14.999Z</time></trkpt><trkpt lat="44.85500554996467" lon="7.8655247995919435"><ele>284.0</ele><time>2026-04-05T16:03:15.999Z</time></trkpt><trkpt lat="44.855093772805525" lon="7.8654948610126345"><ele>284.0</ele><time>2026-04-05T16:03:16.999Z</time></trkpt><trkpt lat="44.85519625425496" lon="7.865462271628018"><ele>284.0</ele><time>2026-04-05T16:03:18.999Z</time></trkpt><trkpt lat="44.85527094678616" lon="7.865464274886691"><ele>284.0</ele><time>2026-04-05T16:03:21.999Z</time></trkpt><trkpt lat="44.85536280295854" lon="7.865475098562682"><ele>283.8</ele><time>2026-04-05T16:03:23.999Z</time></trkpt><trkpt lat="44.85545140274747" lon="7.86544838302911"><ele>283.59999999999997</ele><time>2026-04-05T16:03:24.999Z</time></trkpt><trkpt lat="44.85555595215471" lon="7.865398531390506"><ele>283.4</ele><time>2026-04-05T16:03:25.999Z</time></trkpt><trkpt lat="44.855667572408365" lon="7.865348821158105"><ele>283.2</ele><time>2026-04-05T16:03:26.999Z</time></trkpt><trkpt lat="44.85578368966468" lon="7.8652965068338565"><ele>283.0</ele><time>2026-04-05T16:03:27.999Z</time></trkpt><trkpt lat="44.855911404439645" lon="7.865240143328136"><ele>283.0</ele><time>2026-04-05T16:03:28.999Z</time></trkpt><trkpt lat="44.85605183943076" lon="7.865180400214009"><ele>283.0</ele><time>2026-04-05T16:03:29.999Z</time></trkpt><trkpt lat="44.856194122234484" lon="7.865113158484432"><ele>283.0</ele><time>2026-04-05T16:03:30.999Z</time></trkpt><trkpt lat="44.85634712536829" lon="7.865044069278414"><ele>283.0</ele><time>2026-04-05T16:03:31.999Z</time></trkpt><trkpt lat="44.85650468894613" lon="7.864971898913161"><ele>283.0</ele><time>2026-04-05T16:03:32.999Z</time></trkpt><trkpt lat="44.85666382360898" lon="7.864901818796791"><ele>283.0</ele><time>2026-04-05T16:03:33.999Z</time></trkpt><trkpt lat="44.85682975864105" lon="7.864823758943217"><ele>283.0</ele><time>2026-04-05T16:03:34.999Z</time></trkpt><trkpt lat="44.85700092439285" lon="7.864744312273399"><ele>283.0</ele><time>2026-04-05T16:03:35.999Z</time></trkpt><trkpt lat="44.85717520550281" lon="7.864666387869644"><ele>283.0</ele><time>2026-04-05T16:03:36.999Z</time></trkpt><trkpt lat="44.857354128817526" lon="7.864587943490859"><ele>283.0</ele><time>2026-04-05T16:03:37.999Z</time></trkpt><trkpt lat="44.85752943768337" lon="7.864503774200765"><ele>283.0</ele><time>2026-04-05T16:03:38.999Z</time></trkpt><trkpt lat="44.857714661408686" lon="7.864420089883411"><ele>283.0</ele><time>2026-04-05T16:03:39.999Z</time></trkpt><trkpt lat="44.857897815195386" lon="7.864336595243618"><ele>281.66666666666663</ele><time>2026-04-05T16:03:40.999Z</time></trkpt><trkpt lat="44.858083857585" lon="7.864251209092354"><ele>280.3333333333333</ele><time>2026-04-05T16:03:41.999Z</time></trkpt><trkpt lat="44.858270750477885" lon="7.864162123405011"><ele>279.0</ele><time>2026-04-05T16:03:42.999Z</time></trkpt><trkpt lat="44.85844975741917" lon="7.864079771038452"><ele>278.3333333333333</ele><time>2026-04-05T16:03:43.999Z</time></trkpt><trkpt lat="44.85862529042833" lon="7.86400157232894"><ele>277.66666666666663</ele><time>2026-04-05T16:03:44.999Z</time></trkpt><trkpt lat="44.858779157566666" lon="7.863935493457513"><ele>277.0</ele><time>2026-04-05T16:03:45.999Z</time></trkpt><trkpt lat="44.858931739820285" lon="7.863864809148638"><ele>277.0</ele><time>2026-04-05T16:03:46.999Z</time></trkpt><trkpt lat="44.85909267739606" lon="7.863795998405554"><ele>277.0</ele><time>2026-04-05T16:03:47.999Z</time></trkpt><trkpt lat="44.85925041180356" lon="7.86372192539929"><ele>277.0</ele><time>2026-04-05T16:03:48.999Z</time></trkpt><trkpt lat="44.85940373851217" lon="7.863647782451569"><ele>276.25</ele><time>2026-04-05T16:03:49.999Z</time></trkpt><trkpt lat="44.85955340096344" lon="7.863581627745844"><ele>275.5</ele><time>2026-04-05T16:03:50.999Z</time></trkpt><trkpt lat="44.8596931436747" lon="7.863514026506195"><ele>274.75</ele><time>2026-04-05T16:03:51.999Z</time></trkpt><trkpt lat="44.859824588969154" lon="7.863451622720354"><ele>274.0</ele><time>2026-04-05T16:03:52.999Z</time></trkpt><trkpt lat="44.85994870889753" lon="7.863386478692826"><ele>274.0</ele><time>2026-04-05T16:03:53.999Z</time></trkpt><trkpt lat="44.860063070616405" lon="7.8633292019173435"><ele>274.0</ele><time>2026-04-05T16:03:54.999Z</time></trkpt><trkpt lat="44.860168500309065" lon="7.863273862477505"><ele>274.0</ele><time>2026-04-05T16:03:55.999Z</time></trkpt><trkpt lat="44.8602671890637" lon="7.863192986613431"><ele>274.0</ele><time>2026-04-05T16:03:56.999Z</time></trkpt><trkpt lat="44.86035520016502" lon="7.863061841902761"><ele>273.75</ele><time>2026-04-05T16:03:57.999Z</time></trkpt><trkpt lat="44.860421506301904" lon="7.862884962470328"><ele>273.5</ele><time>2026-04-05T16:03:58.999Z</time></trkpt><trkpt lat="44.8604891813801" lon="7.86270755675818"><ele>273.25</ele><time>2026-04-05T16:03:59.999Z</time></trkpt><trkpt lat="44.860566319632994" lon="7.8625630175254955"><ele>273.0</ele><time>2026-04-05T16:04:00.999Z</time></trkpt><trkpt lat="44.860662703361484" lon="7.862452261671815"><ele>273.0</ele><time>2026-04-05T16:04:01.999Z</time></trkpt><trkpt lat="44.860775488908075" lon="7.862374150371914"><ele>273.0</ele><time>2026-04-05T16:04:02.999Z</time></trkpt><trkpt lat="44.860905255288394" lon="7.862356746217816"><ele>273.0</ele><time>2026-04-05T16:04:03.999Z</time></trkpt><trkpt lat="44.861041503731414" lon="7.862377557979387"><ele>273.0</ele><time>2026-04-05T16:04:04.999Z</time></trkpt><trkpt lat="44.86117918258823" lon="7.862402650207531"><ele>273.0</ele><time>2026-04-05T16:04:05.999Z</time></trkpt><trkpt lat="44.861314782975775" lon="7.862388355080397"><ele>273.0</ele><time>2026-04-05T16:04:06.999Z</time></trkpt><trkpt lat="44.86145105786632" lon="7.862324791274947"><ele>273.0</ele><time>2026-04-05T16:04:07.999Z</time></trkpt><trkpt lat="44.86158758360088" lon="7.862233188065393"><ele>273.0</ele><time>2026-04-05T16:04:08.998Z</time></trkpt><trkpt lat="44.861723600302795" lon="7.8621412571460745"><ele>272.6666666666667</ele><time>2026-04-05T16:04:09.998Z</time></trkpt><trkpt lat="44.86186734475955" lon="7.862054317556547"><ele>272.33333333333337</ele><time>2026-04-05T16:04:10.998Z</time></trkpt><trkpt lat="44.86202269973491" lon="7.861971639571679"><ele>272.0</ele><time>2026-04-05T16:04:11.998Z</time></trkpt><trkpt lat="44.86218417120844" lon="7.86187533777081"><ele>272.0</ele><time>2026-04-05T16:04:12.998Z</time></trkpt><trkpt lat="44.86234976517424" lon="7.861767556592825"><ele>272.0</ele><time>2026-04-05T16:04:13.998Z</time></trkpt><trkpt lat="44.86251879407209" lon="7.861678855958984"><ele>272.0</ele><time>2026-04-05T16:04:14.998Z</time></trkpt><trkpt lat="44.86269178296545" lon="7.86158465246503"><ele>272.0</ele><time>2026-04-05T16:04:15.998Z</time></trkpt><trkpt lat="44.86286744577818" lon="7.86148279721199"><ele>272.0</ele><time>2026-04-05T16:04:16.998Z</time></trkpt><trkpt lat="44.86304746655445" lon="7.861376184134463"><ele>272.0</ele><time>2026-04-05T16:04:18Z</time></trkpt><trkpt lat="44.863229567975374" lon="7.861273997434116"><ele>272.0</ele><time>2026-04-05T16:04:19Z</time></trkpt><trkpt lat="44.86341651241114" lon="7.861171895205201"><ele>272.0</ele><time>2026-04-05T16:04:20Z</time></trkpt><trkpt lat="44.86359633992553" lon="7.86107509486516"><ele>272.0</ele><time>2026-04-05T16:04:21Z</time></trkpt><trkpt lat="44.863767554538896" lon="7.860988992705545"><ele>272.0</ele><time>2026-04-05T16:04:22Z</time></trkpt><trkpt lat="44.86392073106061" lon="7.860905679219204"><ele>272.0</ele><time>2026-04-05T16:04:23Z</time></trkpt><trkpt lat="44.86406771214203" lon="7.86081729268387"><ele>272.0</ele><time>2026-04-05T16:04:24Z</time></trkpt><trkpt lat="44.864212774597114" lon="7.860711540170996"><ele>271.6666666666667</ele><time>2026-04-05T16:04:25Z</time></trkpt><trkpt lat="44.86435566978483" lon="7.860585538745293"><ele>271.3333333333333</ele><time>2026-04-05T16:04:26Z</time></trkpt><trkpt lat="44.86449686575048" lon="7.860439879276754"><ele>271.0</ele><time>2026-04-05T16:04:27Z</time></trkpt><trkpt lat="44.86464515943888" lon="7.860291601423575"><ele>271.0</ele><time>2026-04-05T16:04:28Z</time></trkpt><trkpt lat="44.86480024981262" lon="7.8601433508794445"><ele>271.0</ele><time>2026-04-05T16:04:29Z</time></trkpt><trkpt lat="44.86494802710368" lon="7.860002164956171"><ele>271.0</ele><time>2026-04-05T16:04:30Z</time></trkpt><trkpt lat="44.86508890380538" lon="7.859870074376144"><ele>271.0</ele><time>2026-04-05T16:04:31Z</time></trkpt><trkpt lat="44.8652228715808" lon="7.859744411777529"><ele>271.0</ele><time>2026-04-05T16:04:32Z</time></trkpt><trkpt lat="44.86535375847558" lon="7.859610642958606"><ele>271.0</ele><time>2026-04-05T16:04:33Z</time></trkpt><trkpt lat="44.86547453867062" lon="7.859478445369859"><ele>271.0</ele><time>2026-04-05T16:04:34Z</time></trkpt><trkpt lat="44.86559191368197" lon="7.859364345109858"><ele>271.0</ele><time>2026-04-05T16:04:35Z</time></trkpt><trkpt lat="44.86570937077873" lon="7.859265403697553"><ele>271.0</ele><time>2026-04-05T16:04:36Z</time></trkpt><trkpt lat="44.86583396811937" lon="7.859208351420545"><ele>271.0</ele><time>2026-04-05T16:04:37Z</time></trkpt><trkpt lat="44.86596571285407" lon="7.85917980151543"><ele>270.5</ele><time>2026-04-05T16:04:38Z</time></trkpt><trkpt lat="44.86610738952755" lon="7.859196127393332"><ele>270.0</ele><time>2026-04-05T16:04:39Z</time></trkpt><trkpt lat="44.866245829271115" lon="7.859228614877932"><ele>269.5</ele><time>2026-04-05T16:04:40Z</time></trkpt><trkpt lat="44.8663912422823" lon="7.859249021996594"><ele>269.0</ele><time>2026-04-05T16:04:41Z</time></trkpt><trkpt lat="44.866530080146084" lon="7.859249760583428"><ele>269.0</ele><time>2026-04-05T16:04:42Z</time></trkpt><trkpt lat="44.866655072793556" lon="7.859239167309147"><ele>269.0</ele><time>2026-04-05T16:04:43Z</time></trkpt><trkpt lat="44.866779357782754" lon="7.85919840701338"><ele>269.0</ele><time>2026-04-05T16:04:44Z</time></trkpt><trkpt lat="44.86690716390272" lon="7.85911577221634"><ele>269.0</ele><time>2026-04-05T16:04:45Z</time></trkpt><trkpt lat="44.86704052746032" lon="7.859006779200025"><ele>269.33333333333337</ele><time>2026-04-05T16:04:46Z</time></trkpt><trkpt lat="44.86718029093583" lon="7.858901656439904"><ele>269.6666666666667</ele><time>2026-04-05T16:04:47Z</time></trkpt><trkpt lat="44.86732909019779" lon="7.858794502795326"><ele>270.0</ele><time>2026-04-05T16:04:48Z</time></trkpt><trkpt lat="44.8674828568817" lon="7.858685551217976"><ele>270.0</ele><time>2026-04-05T16:04:49Z</time></trkpt><trkpt lat="44.86763050995801" lon="7.85857788549654"><ele>270.0</ele><time>2026-04-05T16:04:50Z</time></trkpt><trkpt lat="44.867765790241606" lon="7.858480928741337"><ele>270.0</ele><time>2026-04-05T16:04:51Z</time></trkpt><trkpt lat="44.8678926574252" lon="7.858391229271152"><ele>270.25</ele><time>2026-04-05T16:04:52Z</time></trkpt><trkpt lat="44.86801293915592" lon="7.858317346068941"><ele>270.5</ele><time>2026-04-05T16:04:53Z</time></trkpt><trkpt lat="44.86813191279901" lon="7.85827206985271"><ele>270.75</ele><time>2026-04-05T16:04:54Z</time></trkpt><trkpt lat="44.868260881964844" lon="7.858264048923278"><ele>271.0</ele><time>2026-04-05T16:04:55Z</time></trkpt><trkpt lat="44.86839567716407" lon="7.858295692924878"><ele>270.66666666666663</ele><time>2026-04-05T16:04:56Z</time></trkpt><trkpt lat="44.868538746984946" lon="7.858346923551468"><ele>270.3333333333333</ele><time>2026-04-05T16:04:57Z</time></trkpt><trkpt lat="44.86869190128858" lon="7.858428291091426"><ele>270.0</ele><time>2026-04-05T16:04:58Z</time></trkpt><trkpt lat="44.86885361479848" lon="7.858520346829135"><ele>270.0</ele><time>2026-04-05T16:04:59Z</time></trkpt><trkpt lat="44.86902500221243" lon="7.858620013613983"><ele>270.0</ele><time>2026-04-05T16:05:00Z</time></trkpt><trkpt lat="44.86920028224473" lon="7.858723398963537"><ele>270.0</ele><time>2026-04-05T16:05:01Z</time></trkpt><trkpt lat="44.86937094305309" lon="7.858820395448743"><ele>269.0</ele><time>2026-04-05T16:05:02Z</time></trkpt><trkpt lat="44.869532550460576" lon="7.858910021653519"><ele>268.0</ele><time>2026-04-05T16:05:03Z</time></trkpt><trkpt lat="44.869678567202975" lon="7.858989225133875"><ele>267.0</ele><time>2026-04-05T16:05:04Z</time></trkpt><trkpt lat="44.86982130061795" lon="7.859060039089221"><ele>267.0</ele><time>2026-04-05T16:05:05Z</time></trkpt><trkpt lat="44.86997413084376" lon="7.859133251941982"><ele>267.0</ele><time>2026-04-05T16:05:06Z</time></trkpt><trkpt lat="44.87013421955334" lon="7.859190723054076"><ele>267.0</ele><time>2026-04-05T16:05:06.999Z</time></trkpt><trkpt lat="44.87030262902956" lon="7.8592295724902685"><ele>267.0</ele><time>2026-04-05T16:05:07.999Z</time></trkpt><trkpt lat="44.87046566302144" lon="7.859265701018465"><ele>267.0</ele><time>2026-04-05T16:05:08.999Z</time></trkpt><trkpt lat="44.87062769974878" lon="7.859298703623501"><ele>267.0</ele><time>2026-04-05T16:05:09.999Z</time></trkpt><trkpt lat="44.870787577306444" lon="7.859333059527569"><ele>267.0</ele><time>2026-04-05T16:05:10.999Z</time></trkpt><trkpt lat="44.870944230865554" lon="7.859367377360803"><ele>267.0</ele><time>2026-04-05T16:05:11.999Z</time></trkpt><trkpt lat="44.87110072614693" lon="7.859400755343713"><ele>267.0</ele><time>2026-04-05T16:05:12.999Z</time></trkpt><trkpt lat="44.87124816873267" lon="7.859430086784471"><ele>267.0</ele><time>2026-04-05T16:05:13.999Z</time></trkpt><trkpt lat="44.87138367565466" lon="7.859455589626572"><ele>267.0</ele><time>2026-04-05T16:05:14.999Z</time></trkpt><trkpt lat="44.87150528486915" lon="7.859475682614875"><ele>267.0</ele><time>2026-04-05T16:05:15.999Z</time></trkpt><trkpt lat="44.87161406270113" lon="7.859483718592145"><ele>267.0</ele><time>2026-04-05T16:05:16.999Z</time></trkpt><trkpt lat="44.87171407219615" lon="7.859452805072722"><ele>267.25</ele><time>2026-04-05T16:05:17.999Z</time></trkpt><trkpt lat="44.871806320355056" lon="7.859365808654075"><ele>267.5</ele><time>2026-04-05T16:05:18.999Z</time></trkpt><trkpt lat="44.871892675618284" lon="7.859222909258986"><ele>267.75</ele><time>2026-04-05T16:05:19.999Z</time></trkpt><trkpt lat="44.87198546914981" lon="7.859066783198436"><ele>268.0</ele><time>2026-04-05T16:05:20.999Z</time></trkpt><trkpt lat="44.87209009860721" lon="7.858906308473936"><ele>267.0</ele><time>2026-04-05T16:05:21.999Z</time></trkpt><trkpt lat="44.87221087607803" lon="7.858733367347093"><ele>266.0</ele><time>2026-04-05T16:05:22.999Z</time></trkpt><trkpt lat="44.872338913129845" lon="7.8585538995594435"><ele>265.0</ele><time>2026-04-05T16:05:23.999Z</time></trkpt><trkpt lat="44.8724649950305" lon="7.858378361625721"><ele>264.66666666666663</ele><time>2026-04-05T16:05:24.999Z</time></trkpt><trkpt lat="44.87259337680292" lon="7.858196592187685"><ele>264.3333333333333</ele><time>2026-04-05T16:05:25.999Z</time></trkpt><trkpt lat="44.87272550949949" lon="7.858009038083185"><ele>264.0</ele><time>2026-04-05T16:05:26.999Z</time></trkpt><trkpt lat="44.87285596452748" lon="7.857822923689357"><ele>264.3333333333333</ele><time>2026-04-05T16:05:27.999Z</time></trkpt><trkpt lat="44.87298451442276" lon="7.857642926791286"><ele>264.66666666666663</ele><time>2026-04-05T16:05:28.999Z</time></trkpt><trkpt lat="44.87311339650793" lon="7.857468118463664"><ele>265.0</ele><time>2026-04-05T16:05:29.999Z</time></trkpt><trkpt lat="44.873243896789816" lon="7.857302307407008"><ele>265.0</ele><time>2026-04-05T16:05:30.999Z</time></trkpt><trkpt lat="44.87336361790569" lon="7.857153360217755"><ele>265.0</ele><time>2026-04-05T16:05:31.999Z</time></trkpt><trkpt lat="44.873480047549016" lon="7.857022266280567"><ele>265.0</ele><time>2026-04-05T16:05:32.999Z</time></trkpt><trkpt lat="44.87359772863625" lon="7.856913034256115"><ele>265.0</ele><time>2026-04-05T16:05:33.999Z</time></trkpt><trkpt lat="44.87373069779302" lon="7.856837396023914"><ele>265.0</ele><time>2026-04-05T16:05:34.999Z</time></trkpt><trkpt lat="44.873879815647044" lon="7.8568051722420424"><ele>265.0</ele><time>2026-04-05T16:05:35.999Z</time></trkpt><trkpt lat="44.87404100588941" lon="7.856797080732059"><ele>265.0</ele><time>2026-04-05T16:05:36.999Z</time></trkpt><trkpt lat="44.8742083072944" lon="7.856785246380582"><ele>265.5</ele><time>2026-04-05T16:05:37.999Z</time></trkpt><trkpt lat="44.87436359705005" lon="7.856760991167727"><ele>266.0</ele><time>2026-04-05T16:05:38.999Z</time></trkpt><trkpt lat="44.8744937610387" lon="7.856733927853737"><ele>266.5</ele><time>2026-04-05T16:05:39.999Z</time></trkpt><trkpt lat="44.874600091605785" lon="7.856701045743056"><ele>267.0</ele><time>2026-04-05T16:05:40.999Z</time></trkpt><trkpt lat="44.874688357554476" lon="7.856642815312894"><ele>267.0</ele><time>2026-04-05T16:05:41.999Z</time></trkpt><trkpt lat="44.87476553920568" lon="7.856548551717028"><ele>267.0</ele><time>2026-04-05T16:05:42.999Z</time></trkpt><trkpt lat="44.87483650579148" lon="7.856411219767247"><ele>267.0</ele><time>2026-04-05T16:05:43.999Z</time></trkpt><trkpt lat="44.87489392264119" lon="7.856236509669451"><ele>267.0</ele><time>2026-04-05T16:05:44.999Z</time></trkpt><trkpt lat="44.874949569585404" lon="7.8560618477688875"><ele>266.5</ele><time>2026-04-05T16:05:45.999Z</time></trkpt><trkpt lat="44.875017802572856" lon="7.855927974864007"><ele>266.0</ele><time>2026-04-05T16:05:46.999Z</time></trkpt><trkpt lat="44.87509818518327" lon="7.855828491812059"><ele>265.5</ele><time>2026-04-05T16:05:47.999Z</time></trkpt><trkpt lat="44.87519633059377" lon="7.855779022286959"><ele>265.0</ele><time>2026-04-05T16:05:48.999Z</time></trkpt><trkpt lat="44.87531833193251" lon="7.855778227164786"><ele>264.3333333333333</ele><time>2026-04-05T16:05:49.999Z</time></trkpt><trkpt lat="44.87545995082007" lon="7.855783295654048"><ele>263.6666666666667</ele><time>2026-04-05T16:05:50.999Z</time></trkpt><trkpt lat="44.87561502181885" lon="7.855781297782864"><ele>263.0</ele><time>2026-04-05T16:05:51.999Z</time></trkpt><trkpt lat="44.87578412581957" lon="7.855767060644989"><ele>262.6666666666667</ele><time>2026-04-05T16:05:52.999Z</time></trkpt><trkpt lat="44.875956053923055" lon="7.855744249017465"><ele>262.3333333333333</ele><time>2026-04-05T16:05:53.999Z</time></trkpt><trkpt lat="44.87613174682449" lon="7.855719490175526"><ele>262.0</ele><time>2026-04-05T16:05:54.999Z</time></trkpt><trkpt lat="44.876304374244214" lon="7.855697287235366"><ele>262.0</ele><time>2026-04-05T16:05:55.999Z</time></trkpt><trkpt lat="44.87647169435942" lon="7.855675564218151"><ele>262.0</ele><time>2026-04-05T16:05:56.999Z</time></trkpt><trkpt lat="44.876635011282296" lon="7.855653772541065"><ele>262.0</ele><time>2026-04-05T16:05:57.999Z</time></trkpt><trkpt lat="44.87679830134674" lon="7.855627906848215"><ele>261.66666666666663</ele><time>2026-04-05T16:05:58.999Z</time></trkpt><trkpt lat="44.87696246902397" lon="7.855601585095262"><ele>261.3333333333333</ele><time>2026-04-05T16:05:59.999Z</time></trkpt><trkpt lat="44.87712284590975" lon="7.855568753547136"><ele>261.0</ele><time>2026-04-05T16:06:00.999Z</time></trkpt><trkpt lat="44.87727919809537" lon="7.855529666128076"><ele>261.0</ele><time>2026-04-05T16:06:01.999Z</time></trkpt><trkpt lat="44.87742001057523" lon="7.855483613450277"><ele>261.0</ele><time>2026-04-05T16:06:02.999Z</time></trkpt><trkpt lat="44.87755296247851" lon="7.8554308692222"><ele>261.0</ele><time>2026-04-05T16:06:03.999Z</time></trkpt><trkpt lat="44.87767645343755" lon="7.855371219443116"><ele>261.0</ele><time>2026-04-05T16:06:04.999Z</time></trkpt><trkpt lat="44.87779430537053" lon="7.855317945220912"><ele>260.75</ele><time>2026-04-05T16:06:05.999Z</time></trkpt><trkpt lat="44.877905368310486" lon="7.855268313954148"><ele>260.5</ele><time>2026-04-05T16:06:06.999Z</time></trkpt><trkpt lat="44.878021072570235" lon="7.855209549419506"><ele>260.25</ele><time>2026-04-05T16:06:07.998Z</time></trkpt><trkpt lat="44.878152639194546" lon="7.855142904467554"><ele>260.0</ele><time>2026-04-05T16:06:08.998Z</time></trkpt><trkpt lat="44.878300697907804" lon="7.8550720333204715"><ele>260.0</ele><time>2026-04-05T16:06:09.998Z</time></trkpt><trkpt lat="44.87845844201058" lon="7.855004492430676"><ele>260.0</ele><time>2026-04-05T16:06:10.998Z</time></trkpt><trkpt lat="44.878622307008634" lon="7.854943207170558"><ele>260.0</ele><time>2026-04-05T16:06:11.998Z</time></trkpt><trkpt lat="44.87879133530919" lon="7.854897628180088"><ele>260.0</ele><time>2026-04-05T16:06:12.998Z</time></trkpt><trkpt lat="44.8789603634863" lon="7.854853352699182"><ele>260.0</ele><time>2026-04-05T16:06:13.998Z</time></trkpt><trkpt lat="44.87911874442561" lon="7.854812414965204"><ele>260.0</ele><time>2026-04-05T16:06:14.998Z</time></trkpt><trkpt lat="44.8792646587198" lon="7.854763650307826"><ele>259.33333333333337</ele><time>2026-04-05T16:06:15.998Z</time></trkpt><trkpt lat="44.87940355783123" lon="7.854694675831137"><ele>258.6666666666667</ele><time>2026-04-05T16:06:16.998Z</time></trkpt><trkpt lat="44.879540135243296" lon="7.854588302361294"><ele>258.0</ele><time>2026-04-05T16:06:17.998Z</time></trkpt><trkpt lat="44.879676397523326" lon="7.85445043821127"><ele>258.0</ele><time>2026-04-05T16:06:18.998Z</time></trkpt><trkpt lat="44.87980763742975" lon="7.85427680084847"><ele>258.0</ele><time>2026-04-05T16:06:19.998Z</time></trkpt><trkpt lat="44.87994617381304" lon="7.854086526603833"><ele>258.0</ele><time>2026-04-05T16:06:20.998Z</time></trkpt><trkpt lat="44.88010005956613" lon="7.853904534876031"><ele>257.6666666666667</ele><time>2026-04-05T16:06:21.998Z</time></trkpt><trkpt lat="44.88026806884757" lon="7.853732250088792"><ele>257.33333333333337</ele><time>2026-04-05T16:06:22.998Z</time></trkpt><trkpt lat="44.880443758199554" lon="7.853558972945881"><ele>257.0</ele><time>2026-04-05T16:06:24Z</time></trkpt><trkpt lat="44.88061174685077" lon="7.85340510898944"><ele>257.0</ele><time>2026-04-05T16:06:25Z</time></trkpt><trkpt lat="44.880765738973224" lon="7.853262420762869"><ele>257.0</ele><time>2026-04-05T16:06:26Z</time></trkpt><trkpt lat="44.88090525414703" lon="7.8531291280125295"><ele>257.0</ele><time>2026-04-05T16:06:27Z</time></trkpt><trkpt lat="44.881047022852066" lon="7.852990573308202"><ele>257.0</ele><time>2026-04-05T16:06:28Z</time></trkpt><trkpt lat="44.88119657379434" lon="7.852859175811857"><ele>257.0</ele><time>2026-04-05T16:06:29Z</time></trkpt><trkpt lat="44.881356029054125" lon="7.8527371291790935"><ele>257.0</ele><time>2026-04-05T16:06:30Z</time></trkpt><trkpt lat="44.88152248087423" lon="7.852620783439926"><ele>257.0</ele><time>2026-04-05T16:06:31Z</time></trkpt><trkpt lat="44.88169367919841" lon="7.852511276763549"><ele>257.0</ele><time>2026-04-05T16:06:32Z</time></trkpt><trkpt lat="44.88187494043426" lon="7.8524138276739155"><ele>257.0</ele><time>2026-04-05T16:06:33Z</time></trkpt><trkpt lat="44.882055740992136" lon="7.852315081037887"><ele>257.6666666666667</ele><time>2026-04-05T16:06:34Z</time></trkpt><trkpt lat="44.88223987241526" lon="7.852218943789423"><ele>258.3333333333333</ele><time>2026-04-05T16:06:35Z</time></trkpt><trkpt lat="44.882423648758376" lon="7.852116741249314"><ele>259.0</ele><time>2026-04-05T16:06:36Z</time></trkpt><trkpt lat="44.882606772876194" lon="7.852019979890703"><ele>259.0</ele><time>2026-04-05T16:06:37Z</time></trkpt><trkpt lat="44.88278435019768" lon="7.851929535515283"><ele>259.0</ele><time>2026-04-05T16:06:38Z</time></trkpt><trkpt lat="44.88294137241624" lon="7.85185863737347"><ele>259.0</ele><time>2026-04-05T16:06:39Z</time></trkpt><trkpt lat="44.88307137683468" lon="7.8518031795252625"><ele>258.59999999999997</ele><time>2026-04-05T16:06:40Z</time></trkpt><trkpt lat="44.88318104311985" lon="7.851768235425365"><ele>258.2</ele><time>2026-04-05T16:06:41Z</time></trkpt><trkpt lat="44.88327889376783" lon="7.851730943144883"><ele>257.79999999999995</ele><time>2026-04-05T16:06:42Z</time></trkpt><trkpt lat="44.88337741266165" lon="7.851697251405641"><ele>257.4</ele><time>2026-04-05T16:06:43Z</time></trkpt><trkpt lat="44.88348671792051" lon="7.8516747536229206"><ele>257.0</ele><time>2026-04-05T16:06:44Z</time></trkpt><trkpt lat="44.883611756602626" lon="7.851654621312711"><ele>256.0</ele><time>2026-04-05T16:06:45Z</time></trkpt><trkpt lat="44.88375206278136" lon="7.851648395982321"><ele>255.0</ele><time>2026-04-05T16:06:46Z</time></trkpt><trkpt lat="44.883902815262125" lon="7.851646777455962"><ele>254.0</ele><time>2026-04-05T16:06:47Z</time></trkpt><trkpt lat="44.88406540379091" lon="7.851642742241389"><ele>254.0</ele><time>2026-04-05T16:06:48Z</time></trkpt><trkpt lat="44.88424065672553" lon="7.85163385881685"><ele>254.0</ele><time>2026-04-05T16:06:49Z</time></trkpt><trkpt lat="44.88442438137033" lon="7.851620216930072"><ele>254.0</ele><time>2026-04-05T16:06:50Z</time></trkpt><trkpt lat="44.88460908038492" lon="7.851608917124331"><ele>253.0</ele><time>2026-04-05T16:06:51Z</time></trkpt><trkpt lat="44.884788041633584" lon="7.85159906913845"><ele>252.0</ele><time>2026-04-05T16:06:52Z</time></trkpt><trkpt lat="44.884965483931495" lon="7.85156674869834"><ele>251.0</ele><time>2026-04-05T16:06:53Z</time></trkpt><trkpt lat="44.885157023170656" lon="7.851562508772803"><ele>250.33333333333334</ele><time>2026-04-05T16:06:54Z</time></trkpt><trkpt lat="44.885349805048975" lon="7.851547189874077"><ele>249.66666666666669</ele><time>2026-04-05T16:06:55Z</time></trkpt><trkpt lat="44.88554591484203" lon="7.85153081450906"><ele>249.0</ele><time>2026-04-05T16:06:56Z</time></trkpt><trkpt lat="44.88574465686809" lon="7.8515175791035166"><ele>249.0</ele><time>2026-04-05T16:06:57Z</time></trkpt><trkpt lat="44.885947978948394" lon="7.851503670306576"><ele>249.0</ele><time>2026-04-05T16:06:58Z</time></trkpt><trkpt lat="44.88614841657208" lon="7.851481151150038"><ele>249.0</ele><time>2026-04-05T16:06:59Z</time></trkpt><trkpt lat="44.88633058410799" lon="7.851454781116658"><ele>249.0</ele><time>2026-04-05T16:07:00Z</time></trkpt><trkpt lat="44.886503402384086" lon="7.851421070396001"><ele>249.0</ele><time>2026-04-05T16:07:01Z</time></trkpt><trkpt lat="44.88666648558443" lon="7.851389131473449"><ele>249.0</ele><time>2026-04-05T16:07:02Z</time></trkpt><trkpt lat="44.886827814318714" lon="7.851355588920526"><ele>248.66666666666669</ele><time>2026-04-05T16:07:03Z</time></trkpt><trkpt lat="44.886991822289076" lon="7.85132924304533"><ele>248.33333333333334</ele><time>2026-04-05T16:07:04Z</time></trkpt><trkpt lat="44.887157952131034" lon="7.8512991982143685"><ele>248.0</ele><time>2026-04-05T16:07:05Z</time></trkpt><trkpt lat="44.887328893606224" lon="7.851262214346231"><ele>248.0</ele><time>2026-04-05T16:07:06Z</time></trkpt><trkpt lat="44.88750451637642" lon="7.85121634419426"><ele>248.0</ele><time>2026-04-05T16:07:07Z</time></trkpt><trkpt lat="44.887681631756976" lon="7.851160222145557"><ele>248.0</ele><time>2026-04-05T16:07:08Z</time></trkpt><trkpt lat="44.887857735279184" lon="7.851095070395682"><ele>248.66666666666669</ele><time>2026-04-05T16:07:09Z</time></trkpt><trkpt lat="44.88801467343585" lon="7.851030823709663"><ele>249.33333333333331</ele><time>2026-04-05T16:07:10Z</time></trkpt><trkpt lat="44.888164599126064" lon="7.850967781301628"><ele>250.0</ele><time>2026-04-05T16:07:10.999Z</time></trkpt><trkpt lat="44.88830729468256" lon="7.850915252323417"><ele>250.0</ele><time>2026-04-05T16:07:11.999Z</time></trkpt><trkpt lat="44.88844651150737" lon="7.8508603369069165"><ele>250.0</ele><time>2026-04-05T16:07:12.999Z</time></trkpt><trkpt lat="44.8885742970028" lon="7.850808153717268"><ele>250.0</ele><time>2026-04-05T16:07:13.999Z</time></trkpt><trkpt lat="44.888696533571526" lon="7.850757204470237"><ele>250.0</ele><time>2026-04-05T16:07:14.999Z</time></trkpt><trkpt lat="44.88880316522534" lon="7.850692884686542"><ele>250.0</ele><time>2026-04-05T16:07:15.999Z</time></trkpt><trkpt lat="44.88889353163845" lon="7.850601252640888"><ele>250.0</ele><time>2026-04-05T16:07:16.999Z</time></trkpt><trkpt lat="44.888974413111576" lon="7.850509311950488"><ele>250.0</ele><time>2026-04-05T16:07:17.999Z</time></trkpt><trkpt lat="44.88906142480889" lon="7.850397217564173"><ele>250.0</ele><time>2026-04-05T16:07:18.999Z</time></trkpt><trkpt lat="44.88916079673633" lon="7.850278358282701"><ele>249.33333333333331</ele><time>2026-04-05T16:07:19.999Z</time></trkpt><trkpt lat="44.88927296422665" lon="7.850156420208709"><ele>248.66666666666669</ele><time>2026-04-05T16:07:20.999Z</time></trkpt><trkpt lat="44.88939432056486" lon="7.850031417367598"><ele>248.0</ele><time>2026-04-05T16:07:21.999Z</time></trkpt><trkpt lat="44.889519377585856" lon="7.849895290824998"><ele>248.0</ele><time>2026-04-05T16:07:22.999Z</time></trkpt><trkpt lat="44.8896503568531" lon="7.849747616242636"><ele>248.0</ele><time>2026-04-05T16:07:23.999Z</time></trkpt><trkpt lat="44.88978919637785" lon="7.849591108292178"><ele>248.0</ele><time>2026-04-05T16:07:24.999Z</time></trkpt><trkpt lat="44.889926449287934" lon="7.849436511667989"><ele>247.66666666666669</ele><time>2026-04-05T16:07:25.999Z</time></trkpt><trkpt lat="44.89005781064473" lon="7.849278320018101"><ele>247.33333333333331</ele><time>2026-04-05T16:07:26.999Z</time></trkpt><trkpt lat="44.89017584624238" lon="7.849109359833241"><ele>247.0</ele><time>2026-04-05T16:07:27.999Z</time></trkpt><trkpt lat="44.890284085343794" lon="7.848928969021908"><ele>248.0</ele><time>2026-04-05T16:07:28.999Z</time></trkpt><trkpt lat="44.89038577363482" lon="7.848741140464239"><ele>249.0</ele><time>2026-04-05T16:07:29.999Z</time></trkpt><trkpt lat="44.890473200909554" lon="7.8485480392296765"><ele>250.0</ele><time>2026-04-05T16:07:30.999Z</time></trkpt><trkpt lat="44.89055480044606" lon="7.848368649575983"><ele>250.25</ele><time>2026-04-05T16:07:31.999Z</time></trkpt><trkpt lat="44.89063692019216" lon="7.848222057482418"><ele>250.5</ele><time>2026-04-05T16:07:32.999Z</time></trkpt><trkpt lat="44.890724852932074" lon="7.848090669350786"><ele>250.75</ele><time>2026-04-05T16:07:33.999Z</time></trkpt><trkpt lat="44.89083771259259" lon="7.847990475915901"><ele>251.0</ele><time>2026-04-05T16:07:34.999Z</time></trkpt><trkpt lat="44.89096493694616" lon="7.84791626226825"><ele>251.66666666666669</ele><time>2026-04-05T16:07:35.999Z</time></trkpt><trkpt lat="44.89110708759463" lon="7.8478908259708815"><ele>252.33333333333331</ele><time>2026-04-05T16:07:36.999Z</time></trkpt><trkpt lat="44.89125413285003" lon="7.847877347744196"><ele>253.0</ele><time>2026-04-05T16:07:37.999Z</time></trkpt><trkpt lat="44.89141404236999" lon="7.8478592203888375"><ele>253.0</ele><time>2026-04-05T16:07:38.999Z</time></trkpt><trkpt lat="44.89158373702691" lon="7.847836323779098"><ele>253.0</ele><time>2026-04-05T16:07:39.999Z</time></trkpt><trkpt lat="44.89176478959425" lon="7.847813873759505"><ele>253.0</ele><time>2026-04-05T16:07:40.999Z</time></trkpt><trkpt lat="44.891950062871175" lon="7.847790987262973"><ele>251.33333333333331</ele><time>2026-04-05T16:07:41.999Z</time></trkpt><trkpt lat="44.89214070226706" lon="7.847764420173331"><ele>249.66666666666669</ele><time>2026-04-05T16:07:42.999Z</time></trkpt><trkpt lat="44.89232864637426" lon="7.847739922772136"><ele>248.0</ele><time>2026-04-05T16:07:43.999Z</time></trkpt><trkpt lat="44.89251945712819" lon="7.847723975252955"><ele>248.33333333333334</ele><time>2026-04-05T16:07:44.999Z</time></trkpt><trkpt lat="44.89271849014677" lon="7.847726250096197"><ele>248.66666666666669</ele><time>2026-04-05T16:07:45.999Z</time></trkpt><trkpt lat="44.89291663388466" lon="7.847732307592674"><ele>249.0</ele><time>2026-04-05T16:07:46.999Z</time></trkpt><trkpt lat="44.89310578941881" lon="7.847740199537587"><ele>249.0</ele><time>2026-04-05T16:07:47.999Z</time></trkpt><trkpt lat="44.89328098526854" lon="7.847746309933005"><ele>249.0</ele><time>2026-04-05T16:07:48.999Z</time></trkpt><trkpt lat="44.893445846374824" lon="7.847755602249322"><ele>249.0</ele><time>2026-04-05T16:07:49.999Z</time></trkpt><trkpt lat="44.89361039219522" lon="7.847759595872575"><ele>250.0</ele><time>2026-04-05T16:07:50.999Z</time></trkpt><trkpt lat="44.89377151395942" lon="7.847769423853816"><ele>251.0</ele><time>2026-04-05T16:07:51.999Z</time></trkpt><trkpt lat="44.89393434089018" lon="7.847794427908245"><ele>252.0</ele><time>2026-04-05T16:07:52.999Z</time></trkpt><trkpt lat="44.894096145698356" lon="7.84784370843784"><ele>252.0</ele><time>2026-04-05T16:07:53.999Z</time></trkpt><trkpt lat="44.894246477919" lon="7.847918283598185"><ele>252.0</ele><time>2026-04-05T16:07:54.999Z</time></trkpt><trkpt lat="44.894384598787234" lon="7.847995791841246"><ele>252.0</ele><time>2026-04-05T16:07:55.999Z</time></trkpt><trkpt lat="44.894509425765655" lon="7.848061696567015"><ele>252.0</ele><time>2026-04-05T16:07:56.999Z</time></trkpt><trkpt lat="44.89462667022339" lon="7.848109241368927"><ele>253.0</ele><time>2026-04-05T16:07:57.999Z</time></trkpt><trkpt lat="44.89473766872803" lon="7.848117978589636"><ele>254.0</ele><time>2026-04-05T16:07:58.999Z</time></trkpt><trkpt lat="44.89484078987316" lon="7.848080380245582"><ele>255.0</ele><time>2026-04-05T16:07:59.999Z</time></trkpt><trkpt lat="44.89495151463272" lon="7.8479895076578154"><ele>256.0</ele><time>2026-04-05T16:08:00.999Z</time></trkpt><trkpt lat="44.895062622398186" lon="7.847868580108171"><ele>256.0</ele><time>2026-04-05T16:08:01.999Z</time></trkpt><trkpt lat="44.895164896612826" lon="7.847722883573987"><ele>256.0</ele><time>2026-04-05T16:08:02.999Z</time></trkpt><trkpt lat="44.895260680150145" lon="7.847600464778791"><ele>256.0</ele><time>2026-04-05T16:08:03.999Z</time></trkpt><trkpt lat="44.895346961808066" lon="7.847496503847066"><ele>256.0</ele><time>2026-04-05T16:08:04.999Z</time></trkpt><trkpt lat="44.89544009002703" lon="7.847434123969216"><ele>255.49999999999997</ele><time>2026-04-05T16:08:05.999Z</time></trkpt><trkpt lat="44.89553413331275" lon="7.847409082272789"><ele>255.0</ele><time>2026-04-05T16:08:06.999Z</time></trkpt><trkpt lat="44.89562302967707" lon="7.847400281009621"><ele>254.5</ele><time>2026-04-05T16:08:07.999Z</time></trkpt><trkpt lat="44.895701269770804" lon="7.847378535373759"><ele>254.0</ele><time>2026-04-05T16:08:08.999Z</time></trkpt><trkpt lat="44.895764424297425" lon="7.847309933531403"><ele>253.49999999999997</ele><time>2026-04-05T16:08:09.998Z</time></trkpt><trkpt lat="44.89580670356951" lon="7.847200351338755"><ele>253.0</ele><time>2026-04-05T16:08:10.998Z</time></trkpt><trkpt lat="44.89583233983083" lon="7.847058798862901"><ele>253.0</ele><time>2026-04-05T16:08:11.998Z</time></trkpt><trkpt lat="44.89585882262472" lon="7.846897876013368"><ele>253.0</ele><time>2026-04-05T16:08:12.998Z</time></trkpt><trkpt lat="44.89589767032543" lon="7.846727057404047"><ele>253.0</ele><time>2026-04-05T16:08:13.998Z</time></trkpt><trkpt lat="44.89594090069061" lon="7.846544373180917"><ele>253.0</ele><time>2026-04-05T16:08:14.998Z</time></trkpt><trkpt lat="44.89598854579768" lon="7.846355417477893"><ele>252.25</ele><time>2026-04-05T16:08:15.998Z</time></trkpt><trkpt lat="44.89603539688092" lon="7.846174341521764"><ele>251.5</ele><time>2026-04-05T16:08:16.998Z</time></trkpt><trkpt lat="44.89607794662995" lon="7.846007963389929"><ele>250.75</ele><time>2026-04-05T16:08:17.998Z</time></trkpt><trkpt lat="44.89612073559362" lon="7.845857962083567"><ele>250.0</ele><time>2026-04-05T16:08:18.998Z</time></trkpt><trkpt lat="44.89617041938894" lon="7.845723352466468"><ele>250.0</ele><time>2026-04-05T16:08:19.998Z</time></trkpt><trkpt lat="44.89624151066785" lon="7.845622672603535"><ele>250.0</ele><time>2026-04-05T16:08:20.998Z</time></trkpt><trkpt lat="44.89633215522578" lon="7.845570301875081"><ele>250.0</ele><time>2026-04-05T16:08:21.998Z</time></trkpt><trkpt lat="44.89642614647001" lon="7.8455708307167535"><ele>250.0</ele><time>2026-04-05T16:08:22.998Z</time></trkpt><trkpt lat="44.896524188441255" lon="7.84561983430661"><ele>250.0</ele><time>2026-04-05T16:08:23.998Z</time></trkpt><trkpt lat="44.896625811343895" lon="7.84569750042293"><ele>250.0</ele><time>2026-04-05T16:08:24.998Z</time></trkpt><trkpt lat="44.89672601045268" lon="7.845778610341328"><ele>250.0</ele><time>2026-04-05T16:08:25.998Z</time></trkpt><trkpt lat="44.896830864021894" lon="7.845849112802942"><ele>250.0</ele><time>2026-04-05T16:08:26.998Z</time></trkpt><trkpt lat="44.89693673664592" lon="7.8459146850166555"><ele>250.0</ele><time>2026-04-05T16:08:27.998Z</time></trkpt><trkpt lat="44.8970424747003" lon="7.845983941747153"><ele>250.25</ele><time>2026-04-05T16:08:28.998Z</time></trkpt><trkpt lat="44.897145456408374" lon="7.846059069532207"><ele>250.5</ele><time>2026-04-05T16:08:30Z</time></trkpt><trkpt lat="44.89724618067329" lon="7.84613595284723"><ele>250.75</ele><time>2026-04-05T16:08:31Z</time></trkpt><trkpt lat="44.897347255200756" lon="7.84621766226601"><ele>251.0</ele><time>2026-04-05T16:08:32Z</time></trkpt><trkpt lat="44.89744977990545" lon="7.846300024968503"><ele>251.0</ele><time>2026-04-05T16:08:33Z</time></trkpt><trkpt lat="44.89755957541427" lon="7.846386134245075"><ele>251.0</ele><time>2026-04-05T16:08:34Z</time></trkpt><trkpt lat="44.89768044396693" lon="7.846476665985012"><ele>251.0</ele><time>2026-04-05T16:08:35Z</time></trkpt><trkpt lat="44.897811584139355" lon="7.8465697875721085"><ele>251.0</ele><time>2026-04-05T16:08:36Z</time></trkpt><trkpt lat="44.89794423383735" lon="7.846669404754036"><ele>251.75</ele><time>2026-04-05T16:08:37Z</time></trkpt><trkpt lat="44.89808111042473" lon="7.846767853305538"><ele>252.5</ele><time>2026-04-05T16:08:38Z</time></trkpt><trkpt lat="44.89821396084955" lon="7.846864110397388"><ele>253.25</ele><time>2026-04-05T16:08:39Z</time></trkpt><trkpt lat="44.898336035198504" lon="7.846948911061582"><ele>254.0</ele><time>2026-04-05T16:08:40Z</time></trkpt><trkpt lat="44.898443552594905" lon="7.847022251950046"><ele>255.25</ele><time>2026-04-05T16:08:41Z</time></trkpt><trkpt lat="44.89853763021866" lon="7.8470844317823705"><ele>256.5</ele><time>2026-04-05T16:08:42Z</time></trkpt><trkpt lat="44.89863620801717" lon="7.847149735193752"><ele>257.75</ele><time>2026-04-05T16:08:43Z</time></trkpt><trkpt lat="44.89875382012344" lon="7.847241357274885"><ele>259.0</ele><time>2026-04-05T16:08:44Z</time></trkpt><trkpt lat="44.89888312911292" lon="7.847355689754729"><ele>259.0</ele><time>2026-04-05T16:08:45Z</time></trkpt><trkpt lat="44.89902355499304" lon="7.847473468417689"><ele>259.0</ele><time>2026-04-05T16:08:46Z</time></trkpt><trkpt lat="44.89916581651804" lon="7.847581668953515"><ele>259.0</ele><time>2026-04-05T16:08:47Z</time></trkpt><trkpt lat="44.899306431056154" lon="7.8476781815902195"><ele>259.25</ele><time>2026-04-05T16:08:48Z</time></trkpt><trkpt lat="44.899437552488685" lon="7.847754575238183"><ele>259.5</ele><time>2026-04-05T16:08:49Z</time></trkpt><trkpt lat="44.89955867745374" lon="7.84782106856833"><ele>259.75</ele><time>2026-04-05T16:08:50Z</time></trkpt><trkpt lat="44.89966750569444" lon="7.847880162416835"><ele>260.0</ele><time>2026-04-05T16:08:51Z</time></trkpt><trkpt lat="44.89976467075487" lon="7.8479379788912595"><ele>260.0</ele><time>2026-04-05T16:08:52Z</time></trkpt><trkpt lat="44.89985508850898" lon="7.847981536589642"><ele>260.0</ele><time>2026-04-05T16:08:53Z</time></trkpt><trkpt lat="44.89994309704411" lon="7.847997508411206"><ele>260.0</ele><time>2026-04-05T16:08:54Z</time></trkpt><trkpt lat="44.90003044692707" lon="7.847978803310911"><ele>260.0</ele><time>2026-04-05T16:08:55Z</time></trkpt><trkpt lat="44.90013126426349" lon="7.847926128866605"><ele>260.0</ele><time>2026-04-05T16:08:56Z</time></trkpt><trkpt lat="44.90025454931471" lon="7.8478610582294674"><ele>259.33333333333337</ele><time>2026-04-05T16:08:57Z</time></trkpt><trkpt lat="44.90040391604974" lon="7.8478044036869985"><ele>258.6666666666667</ele><time>2026-04-05T16:08:58Z</time></trkpt><trkpt lat="44.900565660464316" lon="7.8477513827790455"><ele>258.0</ele><time>2026-04-05T16:08:59Z</time></trkpt><trkpt lat="44.900733480954386" lon="7.847694974993925"><ele>257.6666666666667</ele><time>2026-04-05T16:09:00Z</time></trkpt><trkpt lat="44.90091193216108" lon="7.847625692793673"><ele>257.33333333333337</ele><time>2026-04-05T16:09:01Z</time></trkpt><trkpt lat="44.90109195455575" lon="7.847546578610101"><ele>257.0</ele><time>2026-04-05T16:09:02Z</time></trkpt><trkpt lat="44.90127736341146" lon="7.84745910124018"><ele>256.6666666666667</ele><time>2026-04-05T16:09:03Z</time></trkpt><trkpt lat="44.90145845373606" lon="7.847370120962663"><ele>256.3333333333333</ele><time>2026-04-05T16:09:04Z</time></trkpt><trkpt lat="44.901628511323615" lon="7.847295509294607"><ele>256.0</ele><time>2026-04-05T16:09:05Z</time></trkpt><trkpt lat="44.90178635944408" lon="7.847238824829997"><ele>256.0</ele><time>2026-04-05T16:09:06Z</time></trkpt><trkpt lat="44.90193960357593" lon="7.847181349395757"><ele>256.0</ele><time>2026-04-05T16:09:07Z</time></trkpt><trkpt lat="44.902092105225705" lon="7.8471112651834565"><ele>256.0</ele><time>2026-04-05T16:09:08Z</time></trkpt><trkpt lat="44.9022449035853" lon="7.847018278530133"><ele>256.0</ele><time>2026-04-05T16:09:09Z</time></trkpt><trkpt lat="44.90239068846302" lon="7.846904146924946"><ele>256.0</ele><time>2026-04-05T16:09:10Z</time></trkpt><trkpt lat="44.90252271867357" lon="7.846784415920411"><ele>256.0</ele><time>2026-04-05T16:09:11Z</time></trkpt><trkpt lat="44.90266402341631" lon="7.8466814602610775"><ele>256.3333333333333</ele><time>2026-04-05T16:09:12Z</time></trkpt><trkpt lat="44.90282822579906" lon="7.84659660537492"><ele>256.6666666666667</ele><time>2026-04-05T16:09:13Z</time></trkpt><trkpt lat="44.903007137868094" lon="7.846527472203334"><ele>257.0</ele><time>2026-04-05T16:09:14Z</time></trkpt><trkpt lat="44.90319761825944" lon="7.846462465417553"><ele>257.0</ele><time>2026-04-05T16:09:15Z</time></trkpt><trkpt lat="44.903388918047504" lon="7.846401715537365"><ele>257.0</ele><time>2026-04-05T16:09:15.999Z</time></trkpt><trkpt lat="44.90357228965427" lon="7.846347557793767"><ele>257.0</ele><time>2026-04-05T16:09:16.999Z</time></trkpt><trkpt lat="44.903737850699294" lon="7.846307590210822"><ele>257.0</ele><time>2026-04-05T16:09:17.999Z</time></trkpt><trkpt lat="44.903889086844416" lon="7.84626921214852"><ele>257.0</ele><time>2026-04-05T16:09:18.999Z</time></trkpt><trkpt lat="44.90404148421247" lon="7.846213218897031"><ele>257.0</ele><time>2026-04-05T16:09:19.999Z</time></trkpt><trkpt lat="44.90420346391106" lon="7.846130471260708"><ele>256.6666666666667</ele><time>2026-04-05T16:09:20.999Z</time></trkpt><trkpt lat="44.90436635504828" lon="7.8460301684836695"><ele>256.3333333333333</ele><time>2026-04-05T16:09:21.999Z</time></trkpt><trkpt lat="44.90453378098776" lon="7.845929850796922"><ele>256.0</ele><time>2026-04-05T16:09:22.999Z</time></trkpt><trkpt lat="44.90470684932818" lon="7.845840464276257"><ele>256.0</ele><time>2026-04-05T16:09:23.999Z</time></trkpt><trkpt lat="44.90488733338512" lon="7.8457679096814985"><ele>256.0</ele><time>2026-04-05T16:09:24.999Z</time></trkpt><trkpt lat="44.905073457878274" lon="7.845709638068773"><ele>256.0</ele><time>2026-04-05T16:09:25.999Z</time></trkpt><trkpt lat="44.905251735182254" lon="7.845661299668845"><ele>256.0</ele><time>2026-04-05T16:09:26.999Z</time></trkpt><trkpt lat="44.90542928835313" lon="7.84561720906747"><ele>256.0</ele><time>2026-04-05T16:09:27.999Z</time></trkpt><trkpt lat="44.90562489948235" lon="7.845582345566639"><ele>256.0</ele><time>2026-04-05T16:09:28.999Z</time></trkpt><trkpt lat="44.90582272409064" lon="7.845544867109993"><ele>256.5</ele><time>2026-04-05T16:09:29.999Z</time></trkpt><trkpt lat="44.906056398781296" lon="7.845545465238917"><ele>257.0</ele><time>2026-04-05T16:09:30.999Z</time></trkpt><trkpt lat="44.90629539647162" lon="7.845548030839219"><ele>257.0</ele><time>2026-04-05T16:09:31.999Z</time></trkpt><trkpt lat="44.906543749908465" lon="7.845558549007336"><ele>257.0</ele><time>2026-04-05T16:09:32.999Z</time></trkpt><trkpt lat="44.9067928593066" lon="7.845582444147737"><ele>256.6666666666667</ele><time>2026-04-05T16:09:33.999Z</time></trkpt><trkpt lat="44.90702047239235" lon="7.84561285270916"><ele>256.3333333333333</ele><time>2026-04-05T16:09:34.999Z</time></trkpt><trkpt lat="44.90723126882425" lon="7.8456397749867985"><ele>256.0</ele><time>2026-04-05T16:09:35.999Z</time></trkpt><trkpt lat="44.90742313310297" lon="7.845659391344799"><ele>255.66666666666666</ele><time>2026-04-05T16:09:36.999Z</time></trkpt><trkpt lat="44.9076183056256" lon="7.845684868528794"><ele>255.33333333333331</ele><time>2026-04-05T16:09:37.999Z</time></trkpt><trkpt lat="44.90780197214109" lon="7.8457091356716155"><ele>255.0</ele><time>2026-04-05T16:09:38.999Z</time></trkpt><trkpt lat="44.90798888398456" lon="7.845732188115109"><ele>255.0</ele><time>2026-04-05T16:09:39.999Z</time></trkpt><trkpt lat="44.90817827134882" lon="7.845751362830715"><ele>255.0</ele><time>2026-04-05T16:09:40.999Z</time></trkpt><trkpt lat="44.90836763173632" lon="7.845761636825021"><ele>255.0</ele><time>2026-04-05T16:09:41.999Z</time></trkpt><trkpt lat="44.90854253001735" lon="7.845758113680793"><ele>255.33333333333331</ele><time>2026-04-05T16:09:42.999Z</time></trkpt><trkpt lat="44.90870916342123" lon="7.845745599390126"><ele>255.66666666666666</ele><time>2026-04-05T16:09:43.999Z</time></trkpt><trkpt lat="44.90887158745912" lon="7.8457288477003235"><ele>256.0</ele><time>2026-04-05T16:09:44.999Z</time></trkpt><trkpt lat="44.909039807627245" lon="7.845706604391769"><ele>256.0</ele><time>2026-04-05T16:09:45.999Z</time></trkpt><trkpt lat="44.909206321795054" lon="7.845688658669138"><ele>256.0</ele><time>2026-04-05T16:09:46.999Z</time></trkpt><trkpt lat="44.909377543250464" lon="7.84566279930243"><ele>256.0</ele><time>2026-04-05T16:09:47.999Z</time></trkpt><trkpt lat="44.90954170896436" lon="7.845641323791983"><ele>256.0</ele><time>2026-04-05T16:09:48.999Z</time></trkpt><trkpt lat="44.909693102353756" lon="7.845615742618345"><ele>256.0</ele><time>2026-04-05T16:09:49.999Z</time></trkpt><trkpt lat="44.909836346588136" lon="7.845590706727687"><ele>256.0</ele><time>2026-04-05T16:09:50.999Z</time></trkpt><trkpt lat="44.9099741142995" lon="7.845578272473438"><ele>256.0</ele><time>2026-04-05T16:09:51.999Z</time></trkpt><trkpt lat="44.910107005364125" lon="7.845582432658976"><ele>256.0</ele><time>2026-04-05T16:09:52.999Z</time></trkpt><trkpt lat="44.9102318444269" lon="7.845593437021424"><ele>256.0</ele><time>2026-04-05T16:09:53.999Z</time></trkpt><trkpt lat="44.91035328555334" lon="7.845604029411292"><ele>256.0</ele><time>2026-04-05T16:09:54.999Z</time></trkpt><trkpt lat="44.910468729419186" lon="7.845613448503842"><ele>256.0</ele><time>2026-04-05T16:09:55.999Z</time></trkpt><trkpt lat="44.910594189575136" lon="7.845622867756404"><ele>256.0</ele><time>2026-04-05T16:09:56.999Z</time></trkpt><trkpt lat="44.91071941941255" lon="7.845636184215567"><ele>256.0</ele><time>2026-04-05T16:09:57.999Z</time></trkpt><trkpt lat="44.91084857939627" lon="7.845653382074637"><ele>256.0</ele><time>2026-04-05T16:09:58.999Z</time></trkpt><trkpt lat="44.91096896708345" lon="7.845668809813538"><ele>256.0</ele><time>2026-04-05T16:09:59.999Z</time></trkpt><trkpt lat="44.91108935515224" lon="7.845680109931771"><ele>256.0</ele><time>2026-04-05T16:10:00.999Z</time></trkpt><trkpt lat="44.91120288085863" lon="7.845689721328392"><ele>256.0</ele><time>2026-04-05T16:10:01.999Z</time></trkpt><trkpt lat="44.91130503292086" lon="7.845710269440498"><ele>256.0</ele><time>2026-04-05T16:10:02.999Z</time></trkpt><trkpt lat="44.911412887628046" lon="7.845732096199706"><ele>256.0</ele><time>2026-04-05T16:10:03.999Z</time></trkpt><trkpt lat="44.91152824410665" lon="7.845752997932694"><ele>256.0</ele><time>2026-04-05T16:10:04.999Z</time></trkpt><trkpt lat="44.91164250834447" lon="7.845781546351058"><ele>255.25</ele><time>2026-04-05T16:10:05.999Z</time></trkpt><trkpt lat="44.911759356615626" lon="7.845819628672818"><ele>254.5</ele><time>2026-04-05T16:10:06.999Z</time></trkpt><trkpt lat="44.91188066453131" lon="7.845869608280941"><ele>253.75</ele><time>2026-04-05T16:10:07.999Z</time></trkpt><trkpt lat="44.91200728512849" lon="7.845924563112246"><ele>253.0</ele><time>2026-04-05T16:10:08.999Z</time></trkpt><trkpt lat="44.912136487484894" lon="7.845968619544838"><ele>252.75</ele><time>2026-04-05T16:10:09.999Z</time></trkpt><trkpt lat="44.91226782347951" lon="7.8459980208101605"><ele>252.5</ele><time>2026-04-05T16:10:10.999Z</time></trkpt><trkpt lat="44.912404102288946" lon="7.84602182883821"><ele>252.25</ele><time>2026-04-05T16:10:11.999Z</time></trkpt><trkpt lat="44.91253965826263" lon="7.846041658138705"><ele>252.0</ele><time>2026-04-05T16:10:12.998Z</time></trkpt><trkpt lat="44.912675066161995" lon="7.846052735502573"><ele>252.5</ele><time>2026-04-05T16:10:13.998Z</time></trkpt><trkpt lat="44.912813605608804" lon="7.846058954587196"><ele>253.0</ele><time>2026-04-05T16:10:14.998Z</time></trkpt><trkpt lat="44.91295147862918" lon="7.846067259015727"><ele>253.5</ele><time>2026-04-05T16:10:15.998Z</time></trkpt><trkpt lat="44.9130923159346" lon="7.846086558155383"><ele>254.0</ele><time>2026-04-05T16:10:16.998Z</time></trkpt><trkpt lat="44.91322067594071" lon="7.846117965188344"><ele>254.0</ele><time>2026-04-05T16:10:17.998Z</time></trkpt><trkpt lat="44.91334075610871" lon="7.846158227117615"><ele>253.99999999999997</ele><time>2026-04-05T16:10:18.998Z</time></trkpt><trkpt lat="44.91344693628658" lon="7.84620037278005"><ele>253.99999999999997</ele><time>2026-04-05T16:10:19.998Z</time></trkpt><trkpt lat="44.913546137534" lon="7.846239650911577"><ele>254.0</ele><time>2026-04-05T16:10:20.998Z</time></trkpt><trkpt lat="44.91363737383754" lon="7.846271939278037"><ele>254.0</ele><time>2026-04-05T16:10:21.998Z</time></trkpt><trkpt lat="44.913725204157316" lon="7.84629552388963"><ele>254.33333333333334</ele><time>2026-04-05T16:10:22.998Z</time></trkpt><trkpt lat="44.913803449444465" lon="7.846317723726374"><ele>254.66666666666669</ele><time>2026-04-05T16:10:23.998Z</time></trkpt><trkpt lat="44.91387384844204" lon="7.846342431265629"><ele>255.0</ele><time>2026-04-05T16:10:24.998Z</time></trkpt><trkpt lat="44.91398286787933" lon="7.846381654587073"><ele>255.33333333333331</ele><time>2026-04-05T16:10:26.998Z</time></trkpt><trkpt lat="44.914053705929014" lon="7.846412336067825"><ele>255.66666666666666</ele><time>2026-04-05T16:10:28.998Z</time></trkpt><trkpt lat="44.91413196948232" lon="7.8464414663779225"><ele>256.0</ele><time>2026-04-05T16:11:10Z</time></trkpt><trkpt lat="44.91423618047079" lon="7.846490872928118"><ele>255.99999999999997</ele><time>2026-04-05T16:11:12Z</time></trkpt><trkpt lat="44.91431342521213" lon="7.846516214118938"><ele>256.0</ele><time>2026-04-05T16:11:13Z</time></trkpt><trkpt lat="44.914392188644946" lon="7.8465393796700855"><ele>256.0</ele><time>2026-04-05T16:11:14Z</time></trkpt><trkpt lat="44.91447688900035" lon="7.846553582199042"><ele>256.0</ele><time>2026-04-05T16:11:15Z</time></trkpt><trkpt lat="44.9145650664745" lon="7.846582496487841"><ele>255.99999999999997</ele><time>2026-04-05T16:11:16Z</time></trkpt><trkpt lat="44.91465660600476" lon="7.846621530249131"><ele>256.0</ele><time>2026-04-05T16:11:17Z</time></trkpt><trkpt lat="44.91475768226463" lon="7.846661839755151"><ele>256.0</ele><time>2026-04-05T16:11:18Z</time></trkpt><trkpt lat="44.91486424332305" lon="7.846710081869177"><ele>256.0</ele><time>2026-04-05T16:11:18.999Z</time></trkpt><trkpt lat="44.91498398038813" lon="7.846751210711328"><ele>256.0</ele><time>2026-04-05T16:11:19.999Z</time></trkpt><trkpt lat="44.91510379318536" lon="7.8467970914156"><ele>256.0</ele><time>2026-04-05T16:11:20.999Z</time></trkpt><trkpt lat="44.915224044048976" lon="7.846843173602786"><ele>255.75</ele><time>2026-04-05T16:11:21.999Z</time></trkpt><trkpt lat="44.915343168322906" lon="7.846886530690756"><ele>255.5</ele><time>2026-04-05T16:11:22.999Z</time></trkpt><trkpt lat="44.91546531913882" lon="7.846934771685538"><ele>255.25</ele><time>2026-04-05T16:11:23.999Z</time></trkpt><trkpt lat="44.91559217781085" lon="7.846992042006502"><ele>255.0</ele><time>2026-04-05T16:11:24.999Z</time></trkpt><trkpt lat="44.915718084307905" lon="7.847042654843514"><ele>255.0</ele><time>2026-04-05T16:11:25.999Z</time></trkpt><trkpt lat="44.91584640539634" lon="7.847092836480026"><ele>255.0</ele><time>2026-04-05T16:11:26.999Z</time></trkpt><trkpt lat="44.91598114030098" lon="7.847139976436245"><ele>255.0</ele><time>2026-04-05T16:11:27.999Z</time></trkpt><trkpt lat="44.916113410747364" lon="7.847194513626891"><ele>255.0</ele><time>2026-04-05T16:11:28.999Z</time></trkpt><trkpt lat="44.91624513100008" lon="7.847257355618428"><ele>254.5</ele><time>2026-04-05T16:11:29.999Z</time></trkpt><trkpt lat="44.9163752482756" lon="7.847329601832843"><ele>254.0</ele><time>2026-04-05T16:11:30.999Z</time></trkpt><trkpt lat="44.91651016172691" lon="7.847400402496507"><ele>253.5</ele><time>2026-04-05T16:11:31.999Z</time></trkpt><trkpt lat="44.916652321151936" lon="7.8474632046432236"><ele>253.0</ele><time>2026-04-05T16:11:32.999Z</time></trkpt><trkpt lat="44.91679492035698" lon="7.847521491846299"><ele>253.0</ele><time>2026-04-05T16:11:33.999Z</time></trkpt><trkpt lat="44.91693891929546" lon="7.847578012257068"><ele>253.0</ele><time>2026-04-05T16:11:34.999Z</time></trkpt><trkpt lat="44.917080974768936" lon="7.847644948144349"><ele>253.0</ele><time>2026-04-05T16:11:35.999Z</time></trkpt><trkpt lat="44.91722350685322" lon="7.847710150738501"><ele>253.0</ele><time>2026-04-05T16:11:36.999Z</time></trkpt><trkpt lat="44.917358105112314" lon="7.847766648004535"><ele>253.0</ele><time>2026-04-05T16:11:37.999Z</time></trkpt><trkpt lat="44.91747660645664" lon="7.847819157539348"><ele>253.0</ele><time>2026-04-05T16:11:38.999Z</time></trkpt><trkpt lat="44.91759365398108" lon="7.847865379523168"><ele>253.0</ele><time>2026-04-05T16:11:39.999Z</time></trkpt><trkpt lat="44.9177037700825" lon="7.847911587458422"><ele>253.0</ele><time>2026-04-05T16:11:40.999Z</time></trkpt><trkpt lat="44.91780732899864" lon="7.847941673882799"><ele>253.16666666666666</ele><time>2026-04-05T16:11:41.999Z</time></trkpt><trkpt lat="44.91790347360035" lon="7.8479607916077505"><ele>253.33333333333331</ele><time>2026-04-05T16:11:42.999Z</time></trkpt><trkpt lat="44.91799865397065" lon="7.84798076412893"><ele>253.5</ele><time>2026-04-05T16:11:43.999Z</time></trkpt><trkpt lat="44.918100024552146" lon="7.847997696858249"><ele>253.66666666666669</ele><time>2026-04-05T16:11:44.999Z</time></trkpt><trkpt lat="44.91817811032657" lon="7.848023166583428"><ele>253.83333333333334</ele><time>2026-04-05T16:11:45.999Z</time></trkpt><trkpt lat="44.918246853899234" lon="7.848050785266789"><ele>254.0</ele><time>2026-04-05T16:11:46.999Z</time></trkpt><trkpt lat="44.91833290103425" lon="7.848092686104518"><ele>254.2</ele><time>2026-04-05T16:11:48.999Z</time></trkpt><trkpt lat="44.9184150537031" lon="7.848109800832146"><ele>254.39999999999998</ele><time>2026-04-05T16:11:50.999Z</time></trkpt><trkpt lat="44.91854372468897" lon="7.84812877152121"><ele>254.6</ele><time>2026-04-05T16:11:52.999Z</time></trkpt><trkpt lat="44.918624923712784" lon="7.848140796832389"><ele>254.8</ele><time>2026-04-05T16:11:53.999Z</time></trkpt><trkpt lat="44.91871240525276" lon="7.8481602447115435"><ele>255.0</ele><time>2026-04-05T16:11:54.999Z</time></trkpt><trkpt lat="44.91879445044722" lon="7.848181174928456"><ele>255.0</ele><time>2026-04-05T16:11:55.999Z</time></trkpt><trkpt lat="44.918863003739716" lon="7.848192937860342"><ele>255.0</ele><time>2026-04-05T16:11:56.999Z</time></trkpt><trkpt lat="44.91899226144069" lon="7.848206234271084"><ele>255.0</ele><time>2026-04-05T16:11:58.999Z</time></trkpt><trkpt lat="44.91910409965254" lon="7.848219811414374"><ele>255.0</ele><time>2026-04-05T16:12:00.999Z</time></trkpt><trkpt lat="44.91918602657155" lon="7.848254455262728"><ele>255.0</ele><time>2026-04-05T16:12:02.999Z</time></trkpt><trkpt lat="44.91929133257026" lon="7.848261168524657"><ele>255.0</ele><time>2026-04-05T16:12:15.999Z</time></trkpt><trkpt lat="44.91937230126253" lon="7.848275848537095"><ele>255.0</ele><time>2026-04-05T16:12:17.999Z</time></trkpt><trkpt lat="44.919439079507455" lon="7.848241602376465"><ele>255.0</ele><time>2026-04-05T16:12:19.998Z</time></trkpt><trkpt lat="44.91948706109617" lon="7.848174726131663"><ele>255.0</ele><time>2026-04-05T16:12:21.998Z</time></trkpt><trkpt lat="44.91950167500927" lon="7.848073045231721"><ele>255.0</ele><time>2026-04-05T16:12:24.998Z</time></trkpt><trkpt lat="44.928299157949105" lon="7.8356375075352585"><ele>252.33333333333334</ele><time>2026-04-05T16:15:27Z</time></trkpt><trkpt lat="44.92829055234389" lon="7.83551162806203"><ele>249.66666666666669</ele><time>2026-04-05T16:15:27.999Z</time></trkpt><trkpt lat="44.928259858726314" lon="7.835406208903095"><ele>247.0</ele><time>2026-04-05T16:15:28.999Z</time></trkpt><trkpt lat="44.92822265706058" lon="7.835298674093719"><ele>244.33333333333334</ele><time>2026-04-05T16:15:29.999Z</time></trkpt><trkpt lat="44.928207874570454" lon="7.835174424433638"><ele>241.66666666666669</ele><time>2026-04-05T16:15:30.999Z</time></trkpt><trkpt lat="44.92823214968632" lon="7.835043910357796"><ele>239.0</ele><time>2026-04-05T16:15:31.999Z</time></trkpt><trkpt lat="44.928292407232995" lon="7.83495595714763"><ele>239.0</ele><time>2026-04-05T16:15:32.999Z</time></trkpt><trkpt lat="44.928377286821366" lon="7.834893777000764"><ele>239.0</ele><time>2026-04-05T16:15:33.999Z</time></trkpt><trkpt lat="44.928484609397536" lon="7.8348303081505195"><ele>239.0</ele><time>2026-04-05T16:15:34.999Z</time></trkpt></trkseg></trk></gpx>